<?xml version="1.0" encoding="UTF-8" standalone="no" ?>
<gpx xmlns="http://www.topografix.com/GPX/1/1" xmlns:xsi="http://www.w3.org/2001/XMLSchema-instance" xsi:schemaLocation="http://www.topografix.com/GPX/1/1 http://www.topografix.com/GPX/1/1/gpx.xsd" version="1.1" creator="VisuGPX - https://www.visugpx.com">
  <metadata>
    <name>#velotaf24/3</name>
  </metadata>
  <trk>
    <name><![CDATA[#velotaf24/3_1]]></name>
    <trkseg>
      <trkpt lat="50.02304" lon="4.3209">
        <ele>255.2</ele>
        <time>2024-03-19T05:35:54Z</time>
      </trkpt>
      <trkpt lat="50.02303" lon="4.3209">
        <ele>255.6</ele>
        <time>2024-03-19T05:35:55Z</time>
      </trkpt>
      <trkpt lat="50.02303" lon="4.3209">
        <ele>255.6</ele>
        <time>2024-03-19T05:35:56Z</time>
      </trkpt>
      <trkpt lat="50.02302" lon="4.3209">
        <ele>255.6</ele>
        <time>2024-03-19T05:35:57Z</time>
      </trkpt>
      <trkpt lat="50.02301" lon="4.3209">
        <ele>256</ele>
        <time>2024-03-19T05:35:58Z</time>
      </trkpt>
      <trkpt lat="50.023" lon="4.32091">
        <ele>256.2</ele>
        <time>2024-03-19T05:35:59Z</time>
      </trkpt>
      <trkpt lat="50.02299" lon="4.32091">
        <ele>256.4</ele>
        <time>2024-03-19T05:36:00Z</time>
      </trkpt>
      <trkpt lat="50.02299" lon="4.32091">
        <ele>256.4</ele>
        <time>2024-03-19T05:36:01Z</time>
      </trkpt>
      <trkpt lat="50.02298" lon="4.32092">
        <ele>256.6</ele>
        <time>2024-03-19T05:36:02Z</time>
      </trkpt>
      <trkpt lat="50.02296" lon="4.32092">
        <ele>256.8</ele>
        <time>2024-03-19T05:36:03Z</time>
      </trkpt>
      <trkpt lat="50.02295" lon="4.32092">
        <ele>256.8</ele>
        <time>2024-03-19T05:36:04Z</time>
      </trkpt>
      <trkpt lat="50.02294" lon="4.32092">
        <ele>257</ele>
        <time>2024-03-19T05:36:05Z</time>
      </trkpt>
      <trkpt lat="50.02293" lon="4.32093">
        <ele>257</ele>
        <time>2024-03-19T05:36:06Z</time>
      </trkpt>
      <trkpt lat="50.02292" lon="4.32093">
        <ele>256.4</ele>
        <time>2024-03-19T05:36:07Z</time>
      </trkpt>
      <trkpt lat="50.02291" lon="4.32093">
        <ele>256.4</ele>
        <time>2024-03-19T05:36:08Z</time>
      </trkpt>
      <trkpt lat="50.0229" lon="4.32094">
        <ele>256.4</ele>
        <time>2024-03-19T05:36:09Z</time>
      </trkpt>
      <trkpt lat="50.02289" lon="4.32094">
        <ele>256.2</ele>
        <time>2024-03-19T05:36:10Z</time>
      </trkpt>
      <trkpt lat="50.02288" lon="4.32094">
        <ele>256.2</ele>
        <time>2024-03-19T05:36:11Z</time>
      </trkpt>
      <trkpt lat="50.02287" lon="4.32094">
        <ele>256.2</ele>
        <time>2024-03-19T05:36:12Z</time>
      </trkpt>
      <trkpt lat="50.02286" lon="4.32094">
        <ele>256.2</ele>
        <time>2024-03-19T05:36:13Z</time>
      </trkpt>
      <trkpt lat="50.02285" lon="4.32095">
        <ele>256.2</ele>
        <time>2024-03-19T05:36:14Z</time>
      </trkpt>
      <trkpt lat="50.02285" lon="4.32094">
        <ele>256.2</ele>
        <time>2024-03-19T05:36:15Z</time>
      </trkpt>
      <trkpt lat="50.02285" lon="4.32094">
        <ele>256.4</ele>
        <time>2024-03-19T05:36:16Z</time>
      </trkpt>
      <trkpt lat="50.02285" lon="4.32095">
        <ele>256.4</ele>
        <time>2024-03-19T05:36:17Z</time>
      </trkpt>
      <trkpt lat="50.02284" lon="4.32095">
        <ele>256.4</ele>
        <time>2024-03-19T05:36:18Z</time>
      </trkpt>
      <trkpt lat="50.02282" lon="4.32097">
        <ele>257.4</ele>
        <time>2024-03-19T05:36:37Z</time>
      </trkpt>
      <trkpt lat="50.02282" lon="4.32099">
        <ele>257.4</ele>
        <time>2024-03-19T05:36:38Z</time>
      </trkpt>
      <trkpt lat="50.02282" lon="4.32101">
        <ele>257.2</ele>
        <time>2024-03-19T05:36:39Z</time>
      </trkpt>
      <trkpt lat="50.02281" lon="4.32103">
        <ele>257.4</ele>
        <time>2024-03-19T05:36:40Z</time>
      </trkpt>
      <trkpt lat="50.0228" lon="4.32104">
        <ele>257.4</ele>
        <time>2024-03-19T05:36:41Z</time>
      </trkpt>
      <trkpt lat="50.02278" lon="4.32105">
        <ele>257.4</ele>
        <time>2024-03-19T05:36:42Z</time>
      </trkpt>
      <trkpt lat="50.02277" lon="4.32104">
        <ele>257.4</ele>
        <time>2024-03-19T05:36:43Z</time>
      </trkpt>
      <trkpt lat="50.02275" lon="4.32103">
        <ele>257.2</ele>
        <time>2024-03-19T05:36:44Z</time>
      </trkpt>
      <trkpt lat="50.02275" lon="4.32102">
        <ele>257.4</ele>
        <time>2024-03-19T05:36:45Z</time>
      </trkpt>
      <trkpt lat="50.02274" lon="4.32099">
        <ele>257.4</ele>
        <time>2024-03-19T05:36:46Z</time>
      </trkpt>
      <trkpt lat="50.02274" lon="4.32097">
        <ele>257.4</ele>
        <time>2024-03-19T05:36:47Z</time>
      </trkpt>
      <trkpt lat="50.02274" lon="4.32094">
        <ele>257.4</ele>
        <time>2024-03-19T05:36:48Z</time>
      </trkpt>
      <trkpt lat="50.02274" lon="4.3209">
        <ele>257.6</ele>
        <time>2024-03-19T05:36:49Z</time>
      </trkpt>
      <trkpt lat="50.02274" lon="4.32087">
        <ele>257.6</ele>
        <time>2024-03-19T05:36:50Z</time>
      </trkpt>
      <trkpt lat="50.02274" lon="4.32084">
        <ele>257.6</ele>
        <time>2024-03-19T05:36:51Z</time>
      </trkpt>
      <trkpt lat="50.02274" lon="4.32081">
        <ele>257.6</ele>
        <time>2024-03-19T05:36:52Z</time>
      </trkpt>
      <trkpt lat="50.02274" lon="4.32078">
        <ele>258</ele>
        <time>2024-03-19T05:36:53Z</time>
      </trkpt>
      <trkpt lat="50.02274" lon="4.32075">
        <ele>258.2</ele>
        <time>2024-03-19T05:36:54Z</time>
      </trkpt>
      <trkpt lat="50.02273" lon="4.32072">
        <ele>258.4</ele>
        <time>2024-03-19T05:36:55Z</time>
      </trkpt>
      <trkpt lat="50.02274" lon="4.32069">
        <ele>258.4</ele>
        <time>2024-03-19T05:36:56Z</time>
      </trkpt>
      <trkpt lat="50.02274" lon="4.32067">
        <ele>258.6</ele>
        <time>2024-03-19T05:36:57Z</time>
      </trkpt>
      <trkpt lat="50.02274" lon="4.32064">
        <ele>258.8</ele>
        <time>2024-03-19T05:36:58Z</time>
      </trkpt>
      <trkpt lat="50.02274" lon="4.32061">
        <ele>258.8</ele>
        <time>2024-03-19T05:36:59Z</time>
      </trkpt>
      <trkpt lat="50.02274" lon="4.32057">
        <ele>259</ele>
        <time>2024-03-19T05:37:00Z</time>
      </trkpt>
      <trkpt lat="50.02274" lon="4.32055">
        <ele>259.2</ele>
        <time>2024-03-19T05:37:01Z</time>
      </trkpt>
      <trkpt lat="50.02274" lon="4.32052">
        <ele>259.4</ele>
        <time>2024-03-19T05:37:02Z</time>
      </trkpt>
      <trkpt lat="50.02273" lon="4.32048">
        <ele>259.6</ele>
        <time>2024-03-19T05:37:03Z</time>
      </trkpt>
      <trkpt lat="50.02273" lon="4.32044">
        <ele>259.8</ele>
        <time>2024-03-19T05:37:04Z</time>
      </trkpt>
      <trkpt lat="50.02273" lon="4.32038">
        <ele>259.8</ele>
        <time>2024-03-19T05:37:05Z</time>
      </trkpt>
      <trkpt lat="50.02273" lon="4.32033">
        <ele>260.4</ele>
        <time>2024-03-19T05:37:06Z</time>
      </trkpt>
      <trkpt lat="50.02272" lon="4.32029">
        <ele>261</ele>
        <time>2024-03-19T05:37:07Z</time>
      </trkpt>
      <trkpt lat="50.02271" lon="4.32024">
        <ele>261.4</ele>
        <time>2024-03-19T05:37:08Z</time>
      </trkpt>
      <trkpt lat="50.02271" lon="4.3202">
        <ele>261.8</ele>
        <time>2024-03-19T05:37:09Z</time>
      </trkpt>
      <trkpt lat="50.02271" lon="4.32016">
        <ele>262.2</ele>
        <time>2024-03-19T05:37:10Z</time>
      </trkpt>
      <trkpt lat="50.0227" lon="4.32012">
        <ele>262.2</ele>
        <time>2024-03-19T05:37:11Z</time>
      </trkpt>
      <trkpt lat="50.0227" lon="4.32009">
        <ele>262.4</ele>
        <time>2024-03-19T05:37:12Z</time>
      </trkpt>
      <trkpt lat="50.02269" lon="4.32005">
        <ele>262.4</ele>
        <time>2024-03-19T05:37:13Z</time>
      </trkpt>
      <trkpt lat="50.02268" lon="4.32002">
        <ele>262.2</ele>
        <time>2024-03-19T05:37:14Z</time>
      </trkpt>
      <trkpt lat="50.02267" lon="4.31998">
        <ele>262.2</ele>
        <time>2024-03-19T05:37:15Z</time>
      </trkpt>
      <trkpt lat="50.02265" lon="4.31995">
        <ele>262.6</ele>
        <time>2024-03-19T05:37:16Z</time>
      </trkpt>
      <trkpt lat="50.02264" lon="4.31991">
        <ele>262.6</ele>
        <time>2024-03-19T05:37:17Z</time>
      </trkpt>
      <trkpt lat="50.02263" lon="4.31988">
        <ele>262.8</ele>
        <time>2024-03-19T05:37:18Z</time>
      </trkpt>
      <trkpt lat="50.02261" lon="4.31984">
        <ele>263</ele>
        <time>2024-03-19T05:37:19Z</time>
      </trkpt>
      <trkpt lat="50.0226" lon="4.31981">
        <ele>263.2</ele>
        <time>2024-03-19T05:37:20Z</time>
      </trkpt>
      <trkpt lat="50.02258" lon="4.31978">
        <ele>263.4</ele>
        <time>2024-03-19T05:37:21Z</time>
      </trkpt>
      <trkpt lat="50.02257" lon="4.31974">
        <ele>263.4</ele>
        <time>2024-03-19T05:37:22Z</time>
      </trkpt>
      <trkpt lat="50.02257" lon="4.31971">
        <ele>263.8</ele>
        <time>2024-03-19T05:37:23Z</time>
      </trkpt>
      <trkpt lat="50.02258" lon="4.31967">
        <ele>263.8</ele>
        <time>2024-03-19T05:37:24Z</time>
      </trkpt>
      <trkpt lat="50.02259" lon="4.31963">
        <ele>264</ele>
        <time>2024-03-19T05:37:25Z</time>
      </trkpt>
      <trkpt lat="50.02261" lon="4.31959">
        <ele>264.4</ele>
        <time>2024-03-19T05:37:26Z</time>
      </trkpt>
      <trkpt lat="50.02263" lon="4.31954">
        <ele>264.4</ele>
        <time>2024-03-19T05:37:27Z</time>
      </trkpt>
      <trkpt lat="50.02265" lon="4.31949">
        <ele>264.4</ele>
        <time>2024-03-19T05:37:28Z</time>
      </trkpt>
      <trkpt lat="50.02268" lon="4.31944">
        <ele>264.6</ele>
        <time>2024-03-19T05:37:29Z</time>
      </trkpt>
      <trkpt lat="50.0227" lon="4.31939">
        <ele>264.6</ele>
        <time>2024-03-19T05:37:30Z</time>
      </trkpt>
      <trkpt lat="50.02272" lon="4.31934">
        <ele>264.6</ele>
        <time>2024-03-19T05:37:31Z</time>
      </trkpt>
      <trkpt lat="50.02274" lon="4.31928">
        <ele>264.8</ele>
        <time>2024-03-19T05:37:32Z</time>
      </trkpt>
      <trkpt lat="50.02276" lon="4.31923">
        <ele>264.8</ele>
        <time>2024-03-19T05:37:33Z</time>
      </trkpt>
      <trkpt lat="50.02278" lon="4.31917">
        <ele>264.8</ele>
        <time>2024-03-19T05:37:34Z</time>
      </trkpt>
      <trkpt lat="50.0228" lon="4.31912">
        <ele>265</ele>
        <time>2024-03-19T05:37:35Z</time>
      </trkpt>
      <trkpt lat="50.02282" lon="4.31907">
        <ele>265</ele>
        <time>2024-03-19T05:37:36Z</time>
      </trkpt>
      <trkpt lat="50.02283" lon="4.31902">
        <ele>265.2</ele>
        <time>2024-03-19T05:37:37Z</time>
      </trkpt>
      <trkpt lat="50.02285" lon="4.31897">
        <ele>265.2</ele>
        <time>2024-03-19T05:37:38Z</time>
      </trkpt>
      <trkpt lat="50.02288" lon="4.31892">
        <ele>265.4</ele>
        <time>2024-03-19T05:37:39Z</time>
      </trkpt>
      <trkpt lat="50.0229" lon="4.31887">
        <ele>265.4</ele>
        <time>2024-03-19T05:37:40Z</time>
      </trkpt>
      <trkpt lat="50.02292" lon="4.31883">
        <ele>265.4</ele>
        <time>2024-03-19T05:37:41Z</time>
      </trkpt>
      <trkpt lat="50.02294" lon="4.31878">
        <ele>265.4</ele>
        <time>2024-03-19T05:37:42Z</time>
      </trkpt>
      <trkpt lat="50.02295" lon="4.31873">
        <ele>265.6</ele>
        <time>2024-03-19T05:37:43Z</time>
      </trkpt>
      <trkpt lat="50.02297" lon="4.31869">
        <ele>266</ele>
        <time>2024-03-19T05:37:44Z</time>
      </trkpt>
      <trkpt lat="50.023" lon="4.31864">
        <ele>266</ele>
        <time>2024-03-19T05:37:45Z</time>
      </trkpt>
      <trkpt lat="50.02302" lon="4.3186">
        <ele>266</ele>
        <time>2024-03-19T05:37:46Z</time>
      </trkpt>
      <trkpt lat="50.02304" lon="4.31856">
        <ele>266.2</ele>
        <time>2024-03-19T05:37:47Z</time>
      </trkpt>
      <trkpt lat="50.02305" lon="4.31852">
        <ele>266.4</ele>
        <time>2024-03-19T05:37:48Z</time>
      </trkpt>
      <trkpt lat="50.02305" lon="4.31847">
        <ele>266.4</ele>
        <time>2024-03-19T05:37:49Z</time>
      </trkpt>
      <trkpt lat="50.02305" lon="4.31842">
        <ele>266.8</ele>
        <time>2024-03-19T05:37:50Z</time>
      </trkpt>
      <trkpt lat="50.02304" lon="4.31837">
        <ele>266.8</ele>
        <time>2024-03-19T05:37:51Z</time>
      </trkpt>
      <trkpt lat="50.02303" lon="4.31832">
        <ele>267.2</ele>
        <time>2024-03-19T05:37:52Z</time>
      </trkpt>
      <trkpt lat="50.02301" lon="4.31828">
        <ele>267.2</ele>
        <time>2024-03-19T05:37:53Z</time>
      </trkpt>
      <trkpt lat="50.02299" lon="4.31824">
        <ele>267.4</ele>
        <time>2024-03-19T05:37:54Z</time>
      </trkpt>
      <trkpt lat="50.02297" lon="4.3182">
        <ele>267.6</ele>
        <time>2024-03-19T05:37:55Z</time>
      </trkpt>
      <trkpt lat="50.02295" lon="4.31816">
        <ele>268</ele>
        <time>2024-03-19T05:37:56Z</time>
      </trkpt>
      <trkpt lat="50.02292" lon="4.31811">
        <ele>268.4</ele>
        <time>2024-03-19T05:37:57Z</time>
      </trkpt>
      <trkpt lat="50.0229" lon="4.31807">
        <ele>268.8</ele>
        <time>2024-03-19T05:37:58Z</time>
      </trkpt>
      <trkpt lat="50.02288" lon="4.31803">
        <ele>269.6</ele>
        <time>2024-03-19T05:37:59Z</time>
      </trkpt>
      <trkpt lat="50.02286" lon="4.31799">
        <ele>270.2</ele>
        <time>2024-03-19T05:38:00Z</time>
      </trkpt>
      <trkpt lat="50.02284" lon="4.31794">
        <ele>270.6</ele>
        <time>2024-03-19T05:38:01Z</time>
      </trkpt>
      <trkpt lat="50.02282" lon="4.3179">
        <ele>270.6</ele>
        <time>2024-03-19T05:38:02Z</time>
      </trkpt>
      <trkpt lat="50.02279" lon="4.31786">
        <ele>270.8</ele>
        <time>2024-03-19T05:38:03Z</time>
      </trkpt>
      <trkpt lat="50.02277" lon="4.31782">
        <ele>271</ele>
        <time>2024-03-19T05:38:04Z</time>
      </trkpt>
      <trkpt lat="50.02275" lon="4.31778">
        <ele>271.2</ele>
        <time>2024-03-19T05:38:05Z</time>
      </trkpt>
      <trkpt lat="50.02272" lon="4.31774">
        <ele>271.4</ele>
        <time>2024-03-19T05:38:06Z</time>
      </trkpt>
      <trkpt lat="50.0227" lon="4.3177">
        <ele>271.4</ele>
        <time>2024-03-19T05:38:07Z</time>
      </trkpt>
      <trkpt lat="50.02268" lon="4.31766">
        <ele>271.4</ele>
        <time>2024-03-19T05:38:08Z</time>
      </trkpt>
      <trkpt lat="50.02266" lon="4.31761">
        <ele>271.8</ele>
        <time>2024-03-19T05:38:09Z</time>
      </trkpt>
      <trkpt lat="50.02264" lon="4.31757">
        <ele>272</ele>
        <time>2024-03-19T05:38:10Z</time>
      </trkpt>
      <trkpt lat="50.02262" lon="4.31752">
        <ele>272</ele>
        <time>2024-03-19T05:38:11Z</time>
      </trkpt>
      <trkpt lat="50.0226" lon="4.31748">
        <ele>272.2</ele>
        <time>2024-03-19T05:38:12Z</time>
      </trkpt>
      <trkpt lat="50.02258" lon="4.31743">
        <ele>273</ele>
        <time>2024-03-19T05:38:13Z</time>
      </trkpt>
      <trkpt lat="50.02256" lon="4.31739">
        <ele>273.2</ele>
        <time>2024-03-19T05:38:14Z</time>
      </trkpt>
      <trkpt lat="50.02254" lon="4.31735">
        <ele>273.6</ele>
        <time>2024-03-19T05:38:15Z</time>
      </trkpt>
      <trkpt lat="50.02251" lon="4.3173">
        <ele>274.2</ele>
        <time>2024-03-19T05:38:16Z</time>
      </trkpt>
      <trkpt lat="50.02249" lon="4.31725">
        <ele>274.4</ele>
        <time>2024-03-19T05:38:17Z</time>
      </trkpt>
      <trkpt lat="50.02248" lon="4.3172">
        <ele>274.8</ele>
        <time>2024-03-19T05:38:18Z</time>
      </trkpt>
      <trkpt lat="50.02245" lon="4.31715">
        <ele>274.6</ele>
        <time>2024-03-19T05:38:19Z</time>
      </trkpt>
      <trkpt lat="50.02243" lon="4.31711">
        <ele>274.6</ele>
        <time>2024-03-19T05:38:20Z</time>
      </trkpt>
      <trkpt lat="50.02241" lon="4.31706">
        <ele>274.8</ele>
        <time>2024-03-19T05:38:21Z</time>
      </trkpt>
      <trkpt lat="50.02239" lon="4.31701">
        <ele>275</ele>
        <time>2024-03-19T05:38:22Z</time>
      </trkpt>
      <trkpt lat="50.02237" lon="4.31697">
        <ele>275.2</ele>
        <time>2024-03-19T05:38:23Z</time>
      </trkpt>
      <trkpt lat="50.02235" lon="4.31692">
        <ele>275.4</ele>
        <time>2024-03-19T05:38:24Z</time>
      </trkpt>
      <trkpt lat="50.02232" lon="4.31687">
        <ele>275.6</ele>
        <time>2024-03-19T05:38:25Z</time>
      </trkpt>
      <trkpt lat="50.0223" lon="4.31682">
        <ele>275.6</ele>
        <time>2024-03-19T05:38:26Z</time>
      </trkpt>
      <trkpt lat="50.02228" lon="4.31677">
        <ele>275.8</ele>
        <time>2024-03-19T05:38:27Z</time>
      </trkpt>
      <trkpt lat="50.02226" lon="4.31672">
        <ele>276.2</ele>
        <time>2024-03-19T05:38:28Z</time>
      </trkpt>
      <trkpt lat="50.02223" lon="4.31668">
        <ele>276.6</ele>
        <time>2024-03-19T05:38:29Z</time>
      </trkpt>
      <trkpt lat="50.02221" lon="4.31663">
        <ele>277</ele>
        <time>2024-03-19T05:38:30Z</time>
      </trkpt>
      <trkpt lat="50.02218" lon="4.31658">
        <ele>277.4</ele>
        <time>2024-03-19T05:38:31Z</time>
      </trkpt>
      <trkpt lat="50.02216" lon="4.31653">
        <ele>277.6</ele>
        <time>2024-03-19T05:38:32Z</time>
      </trkpt>
      <trkpt lat="50.02214" lon="4.31648">
        <ele>277.8</ele>
        <time>2024-03-19T05:38:33Z</time>
      </trkpt>
      <trkpt lat="50.02211" lon="4.31643">
        <ele>278.2</ele>
        <time>2024-03-19T05:38:34Z</time>
      </trkpt>
      <trkpt lat="50.02209" lon="4.31638">
        <ele>278.2</ele>
        <time>2024-03-19T05:38:35Z</time>
      </trkpt>
      <trkpt lat="50.02206" lon="4.31633">
        <ele>278.2</ele>
        <time>2024-03-19T05:38:36Z</time>
      </trkpt>
      <trkpt lat="50.02203" lon="4.31628">
        <ele>278.2</ele>
        <time>2024-03-19T05:38:37Z</time>
      </trkpt>
      <trkpt lat="50.022" lon="4.31624">
        <ele>278.4</ele>
        <time>2024-03-19T05:38:38Z</time>
      </trkpt>
      <trkpt lat="50.02197" lon="4.3162">
        <ele>278.6</ele>
        <time>2024-03-19T05:38:39Z</time>
      </trkpt>
      <trkpt lat="50.02194" lon="4.31616">
        <ele>278.6</ele>
        <time>2024-03-19T05:38:40Z</time>
      </trkpt>
      <trkpt lat="50.0219" lon="4.31612">
        <ele>279</ele>
        <time>2024-03-19T05:38:41Z</time>
      </trkpt>
      <trkpt lat="50.02186" lon="4.31609">
        <ele>279</ele>
        <time>2024-03-19T05:38:42Z</time>
      </trkpt>
      <trkpt lat="50.02183" lon="4.31606">
        <ele>279.2</ele>
        <time>2024-03-19T05:38:43Z</time>
      </trkpt>
      <trkpt lat="50.02179" lon="4.31603">
        <ele>279.2</ele>
        <time>2024-03-19T05:38:44Z</time>
      </trkpt>
      <trkpt lat="50.02175" lon="4.316">
        <ele>279.2</ele>
        <time>2024-03-19T05:38:45Z</time>
      </trkpt>
      <trkpt lat="50.02171" lon="4.31598">
        <ele>279.4</ele>
        <time>2024-03-19T05:38:46Z</time>
      </trkpt>
      <trkpt lat="50.02167" lon="4.31596">
        <ele>279.6</ele>
        <time>2024-03-19T05:38:47Z</time>
      </trkpt>
      <trkpt lat="50.02163" lon="4.31594">
        <ele>279.8</ele>
        <time>2024-03-19T05:38:48Z</time>
      </trkpt>
      <trkpt lat="50.02159" lon="4.31591">
        <ele>280</ele>
        <time>2024-03-19T05:38:49Z</time>
      </trkpt>
      <trkpt lat="50.02155" lon="4.31589">
        <ele>280</ele>
        <time>2024-03-19T05:38:50Z</time>
      </trkpt>
      <trkpt lat="50.02151" lon="4.31587">
        <ele>279.8</ele>
        <time>2024-03-19T05:38:51Z</time>
      </trkpt>
      <trkpt lat="50.02147" lon="4.31585">
        <ele>279.8</ele>
        <time>2024-03-19T05:38:52Z</time>
      </trkpt>
      <trkpt lat="50.02142" lon="4.31583">
        <ele>280</ele>
        <time>2024-03-19T05:38:53Z</time>
      </trkpt>
      <trkpt lat="50.02138" lon="4.31581">
        <ele>280</ele>
        <time>2024-03-19T05:38:54Z</time>
      </trkpt>
      <trkpt lat="50.02134" lon="4.31579">
        <ele>280</ele>
        <time>2024-03-19T05:38:55Z</time>
      </trkpt>
      <trkpt lat="50.0213" lon="4.31577">
        <ele>280</ele>
        <time>2024-03-19T05:38:56Z</time>
      </trkpt>
      <trkpt lat="50.02126" lon="4.31575">
        <ele>280</ele>
        <time>2024-03-19T05:38:57Z</time>
      </trkpt>
      <trkpt lat="50.02122" lon="4.31573">
        <ele>280</ele>
        <time>2024-03-19T05:38:58Z</time>
      </trkpt>
      <trkpt lat="50.02118" lon="4.31571">
        <ele>280.2</ele>
        <time>2024-03-19T05:38:59Z</time>
      </trkpt>
      <trkpt lat="50.02113" lon="4.31569">
        <ele>280.2</ele>
        <time>2024-03-19T05:39:00Z</time>
      </trkpt>
      <trkpt lat="50.02109" lon="4.31568">
        <ele>280.4</ele>
        <time>2024-03-19T05:39:01Z</time>
      </trkpt>
      <trkpt lat="50.02105" lon="4.31566">
        <ele>280.6</ele>
        <time>2024-03-19T05:39:02Z</time>
      </trkpt>
      <trkpt lat="50.02101" lon="4.31564">
        <ele>281</ele>
        <time>2024-03-19T05:39:03Z</time>
      </trkpt>
      <trkpt lat="50.02097" lon="4.31562">
        <ele>281.2</ele>
        <time>2024-03-19T05:39:04Z</time>
      </trkpt>
      <trkpt lat="50.02093" lon="4.31561">
        <ele>281.6</ele>
        <time>2024-03-19T05:39:05Z</time>
      </trkpt>
      <trkpt lat="50.02089" lon="4.31559">
        <ele>281.8</ele>
        <time>2024-03-19T05:39:06Z</time>
      </trkpt>
      <trkpt lat="50.02085" lon="4.31557">
        <ele>282.4</ele>
        <time>2024-03-19T05:39:07Z</time>
      </trkpt>
      <trkpt lat="50.02081" lon="4.31555">
        <ele>282.4</ele>
        <time>2024-03-19T05:39:08Z</time>
      </trkpt>
      <trkpt lat="50.02077" lon="4.31553">
        <ele>282.4</ele>
        <time>2024-03-19T05:39:09Z</time>
      </trkpt>
      <trkpt lat="50.02073" lon="4.31552">
        <ele>282.6</ele>
        <time>2024-03-19T05:39:10Z</time>
      </trkpt>
      <trkpt lat="50.02069" lon="4.3155">
        <ele>282.8</ele>
        <time>2024-03-19T05:39:11Z</time>
      </trkpt>
      <trkpt lat="50.02065" lon="4.31548">
        <ele>282.8</ele>
        <time>2024-03-19T05:39:12Z</time>
      </trkpt>
      <trkpt lat="50.02061" lon="4.31547">
        <ele>282.8</ele>
        <time>2024-03-19T05:39:13Z</time>
      </trkpt>
      <trkpt lat="50.02057" lon="4.31545">
        <ele>283.2</ele>
        <time>2024-03-19T05:39:14Z</time>
      </trkpt>
      <trkpt lat="50.02053" lon="4.31543">
        <ele>283.2</ele>
        <time>2024-03-19T05:39:15Z</time>
      </trkpt>
      <trkpt lat="50.02048" lon="4.31542">
        <ele>283.4</ele>
        <time>2024-03-19T05:39:16Z</time>
      </trkpt>
      <trkpt lat="50.02044" lon="4.3154">
        <ele>284</ele>
        <time>2024-03-19T05:39:17Z</time>
      </trkpt>
      <trkpt lat="50.0204" lon="4.31538">
        <ele>284.4</ele>
        <time>2024-03-19T05:39:18Z</time>
      </trkpt>
      <trkpt lat="50.02035" lon="4.31536">
        <ele>285</ele>
        <time>2024-03-19T05:39:19Z</time>
      </trkpt>
      <trkpt lat="50.02031" lon="4.31534">
        <ele>285.2</ele>
        <time>2024-03-19T05:39:20Z</time>
      </trkpt>
      <trkpt lat="50.02027" lon="4.31532">
        <ele>285.4</ele>
        <time>2024-03-19T05:39:21Z</time>
      </trkpt>
      <trkpt lat="50.02022" lon="4.3153">
        <ele>285.8</ele>
        <time>2024-03-19T05:39:22Z</time>
      </trkpt>
      <trkpt lat="50.02018" lon="4.31528">
        <ele>285.8</ele>
        <time>2024-03-19T05:39:23Z</time>
      </trkpt>
      <trkpt lat="50.02013" lon="4.31527">
        <ele>285.8</ele>
        <time>2024-03-19T05:39:24Z</time>
      </trkpt>
      <trkpt lat="50.02009" lon="4.31525">
        <ele>286</ele>
        <time>2024-03-19T05:39:25Z</time>
      </trkpt>
      <trkpt lat="50.02004" lon="4.31523">
        <ele>286.4</ele>
        <time>2024-03-19T05:39:26Z</time>
      </trkpt>
      <trkpt lat="50.02" lon="4.31522">
        <ele>286.6</ele>
        <time>2024-03-19T05:39:27Z</time>
      </trkpt>
      <trkpt lat="50.01995" lon="4.3152">
        <ele>286.6</ele>
        <time>2024-03-19T05:39:28Z</time>
      </trkpt>
      <trkpt lat="50.01991" lon="4.31518">
        <ele>287</ele>
        <time>2024-03-19T05:39:29Z</time>
      </trkpt>
      <trkpt lat="50.01986" lon="4.31516">
        <ele>287.2</ele>
        <time>2024-03-19T05:39:30Z</time>
      </trkpt>
      <trkpt lat="50.01982" lon="4.31514">
        <ele>287.4</ele>
        <time>2024-03-19T05:39:31Z</time>
      </trkpt>
      <trkpt lat="50.01977" lon="4.31513">
        <ele>287.4</ele>
        <time>2024-03-19T05:39:32Z</time>
      </trkpt>
      <trkpt lat="50.01973" lon="4.31511">
        <ele>287.6</ele>
        <time>2024-03-19T05:39:33Z</time>
      </trkpt>
      <trkpt lat="50.01968" lon="4.31509">
        <ele>287.6</ele>
        <time>2024-03-19T05:39:34Z</time>
      </trkpt>
      <trkpt lat="50.01964" lon="4.31508">
        <ele>287.6</ele>
        <time>2024-03-19T05:39:35Z</time>
      </trkpt>
      <trkpt lat="50.01959" lon="4.31506">
        <ele>287.8</ele>
        <time>2024-03-19T05:39:36Z</time>
      </trkpt>
      <trkpt lat="50.01954" lon="4.31505">
        <ele>287.8</ele>
        <time>2024-03-19T05:39:37Z</time>
      </trkpt>
      <trkpt lat="50.0195" lon="4.31503">
        <ele>288</ele>
        <time>2024-03-19T05:39:38Z</time>
      </trkpt>
      <trkpt lat="50.01945" lon="4.31501">
        <ele>288.4</ele>
        <time>2024-03-19T05:39:39Z</time>
      </trkpt>
      <trkpt lat="50.01941" lon="4.315">
        <ele>288.4</ele>
        <time>2024-03-19T05:39:40Z</time>
      </trkpt>
      <trkpt lat="50.01936" lon="4.31498">
        <ele>288.4</ele>
        <time>2024-03-19T05:39:41Z</time>
      </trkpt>
      <trkpt lat="50.01932" lon="4.31496">
        <ele>288.6</ele>
        <time>2024-03-19T05:39:42Z</time>
      </trkpt>
      <trkpt lat="50.01927" lon="4.31494">
        <ele>288.8</ele>
        <time>2024-03-19T05:39:43Z</time>
      </trkpt>
      <trkpt lat="50.01923" lon="4.31493">
        <ele>288.8</ele>
        <time>2024-03-19T05:39:44Z</time>
      </trkpt>
      <trkpt lat="50.01918" lon="4.31491">
        <ele>289</ele>
        <time>2024-03-19T05:39:45Z</time>
      </trkpt>
      <trkpt lat="50.01913" lon="4.3149">
        <ele>289.2</ele>
        <time>2024-03-19T05:39:46Z</time>
      </trkpt>
      <trkpt lat="50.01909" lon="4.31488">
        <ele>289.2</ele>
        <time>2024-03-19T05:39:47Z</time>
      </trkpt>
      <trkpt lat="50.01904" lon="4.31487">
        <ele>289.4</ele>
        <time>2024-03-19T05:39:48Z</time>
      </trkpt>
      <trkpt lat="50.01899" lon="4.31485">
        <ele>289.4</ele>
        <time>2024-03-19T05:39:49Z</time>
      </trkpt>
      <trkpt lat="50.01894" lon="4.31484">
        <ele>289.6</ele>
        <time>2024-03-19T05:39:50Z</time>
      </trkpt>
      <trkpt lat="50.01889" lon="4.31482">
        <ele>289.6</ele>
        <time>2024-03-19T05:39:51Z</time>
      </trkpt>
      <trkpt lat="50.01885" lon="4.31481">
        <ele>289.8</ele>
        <time>2024-03-19T05:39:52Z</time>
      </trkpt>
      <trkpt lat="50.0188" lon="4.31479">
        <ele>290</ele>
        <time>2024-03-19T05:39:53Z</time>
      </trkpt>
      <trkpt lat="50.01875" lon="4.31477">
        <ele>290</ele>
        <time>2024-03-19T05:39:54Z</time>
      </trkpt>
      <trkpt lat="50.0187" lon="4.31475">
        <ele>290</ele>
        <time>2024-03-19T05:39:55Z</time>
      </trkpt>
      <trkpt lat="50.01865" lon="4.31473">
        <ele>290.2</ele>
        <time>2024-03-19T05:39:56Z</time>
      </trkpt>
      <trkpt lat="50.0186" lon="4.31471">
        <ele>290.4</ele>
        <time>2024-03-19T05:39:57Z</time>
      </trkpt>
      <trkpt lat="50.01855" lon="4.31469">
        <ele>290.4</ele>
        <time>2024-03-19T05:39:58Z</time>
      </trkpt>
      <trkpt lat="50.0185" lon="4.31467">
        <ele>290.4</ele>
        <time>2024-03-19T05:39:59Z</time>
      </trkpt>
      <trkpt lat="50.01845" lon="4.31465">
        <ele>290.6</ele>
        <time>2024-03-19T05:40:00Z</time>
      </trkpt>
      <trkpt lat="50.0184" lon="4.31462">
        <ele>290.6</ele>
        <time>2024-03-19T05:40:01Z</time>
      </trkpt>
      <trkpt lat="50.01836" lon="4.3146">
        <ele>290.6</ele>
        <time>2024-03-19T05:40:02Z</time>
      </trkpt>
      <trkpt lat="50.01831" lon="4.31458">
        <ele>290.6</ele>
        <time>2024-03-19T05:40:03Z</time>
      </trkpt>
      <trkpt lat="50.01827" lon="4.31455">
        <ele>290.8</ele>
        <time>2024-03-19T05:40:04Z</time>
      </trkpt>
      <trkpt lat="50.01822" lon="4.31453">
        <ele>290.8</ele>
        <time>2024-03-19T05:40:05Z</time>
      </trkpt>
      <trkpt lat="50.01818" lon="4.31451">
        <ele>290.8</ele>
        <time>2024-03-19T05:40:06Z</time>
      </trkpt>
      <trkpt lat="50.01813" lon="4.31449">
        <ele>291</ele>
        <time>2024-03-19T05:40:07Z</time>
      </trkpt>
      <trkpt lat="50.01809" lon="4.31446">
        <ele>291.2</ele>
        <time>2024-03-19T05:40:08Z</time>
      </trkpt>
      <trkpt lat="50.01804" lon="4.31444">
        <ele>291.2</ele>
        <time>2024-03-19T05:40:09Z</time>
      </trkpt>
      <trkpt lat="50.018" lon="4.31442">
        <ele>291.4</ele>
        <time>2024-03-19T05:40:10Z</time>
      </trkpt>
      <trkpt lat="50.01795" lon="4.31439">
        <ele>291.8</ele>
        <time>2024-03-19T05:40:11Z</time>
      </trkpt>
      <trkpt lat="50.01791" lon="4.31437">
        <ele>292.2</ele>
        <time>2024-03-19T05:40:12Z</time>
      </trkpt>
      <trkpt lat="50.01787" lon="4.31434">
        <ele>292.4</ele>
        <time>2024-03-19T05:40:13Z</time>
      </trkpt>
      <trkpt lat="50.01782" lon="4.31431">
        <ele>292.4</ele>
        <time>2024-03-19T05:40:14Z</time>
      </trkpt>
      <trkpt lat="50.01778" lon="4.31428">
        <ele>292.8</ele>
        <time>2024-03-19T05:40:15Z</time>
      </trkpt>
      <trkpt lat="50.01773" lon="4.31425">
        <ele>293</ele>
        <time>2024-03-19T05:40:16Z</time>
      </trkpt>
      <trkpt lat="50.01769" lon="4.31422">
        <ele>293</ele>
        <time>2024-03-19T05:40:17Z</time>
      </trkpt>
      <trkpt lat="50.01765" lon="4.31418">
        <ele>293.4</ele>
        <time>2024-03-19T05:40:18Z</time>
      </trkpt>
      <trkpt lat="50.0176" lon="4.31414">
        <ele>293.6</ele>
        <time>2024-03-19T05:40:19Z</time>
      </trkpt>
      <trkpt lat="50.01756" lon="4.31411">
        <ele>293.8</ele>
        <time>2024-03-19T05:40:20Z</time>
      </trkpt>
      <trkpt lat="50.01752" lon="4.31407">
        <ele>294</ele>
        <time>2024-03-19T05:40:21Z</time>
      </trkpt>
      <trkpt lat="50.01747" lon="4.31403">
        <ele>294</ele>
        <time>2024-03-19T05:40:22Z</time>
      </trkpt>
      <trkpt lat="50.01743" lon="4.31399">
        <ele>294.2</ele>
        <time>2024-03-19T05:40:23Z</time>
      </trkpt>
      <trkpt lat="50.01739" lon="4.31395">
        <ele>294.2</ele>
        <time>2024-03-19T05:40:24Z</time>
      </trkpt>
      <trkpt lat="50.01734" lon="4.31392">
        <ele>294.4</ele>
        <time>2024-03-19T05:40:25Z</time>
      </trkpt>
      <trkpt lat="50.0173" lon="4.31388">
        <ele>294.8</ele>
        <time>2024-03-19T05:40:26Z</time>
      </trkpt>
      <trkpt lat="50.01726" lon="4.31384">
        <ele>294.8</ele>
        <time>2024-03-19T05:40:27Z</time>
      </trkpt>
      <trkpt lat="50.01721" lon="4.31381">
        <ele>295</ele>
        <time>2024-03-19T05:40:28Z</time>
      </trkpt>
      <trkpt lat="50.01717" lon="4.31378">
        <ele>295</ele>
        <time>2024-03-19T05:40:29Z</time>
      </trkpt>
      <trkpt lat="50.01712" lon="4.31375">
        <ele>295</ele>
        <time>2024-03-19T05:40:30Z</time>
      </trkpt>
      <trkpt lat="50.01708" lon="4.31372">
        <ele>295.2</ele>
        <time>2024-03-19T05:40:31Z</time>
      </trkpt>
      <trkpt lat="50.01703" lon="4.31369">
        <ele>295.4</ele>
        <time>2024-03-19T05:40:32Z</time>
      </trkpt>
      <trkpt lat="50.01698" lon="4.31367">
        <ele>295.6</ele>
        <time>2024-03-19T05:40:33Z</time>
      </trkpt>
      <trkpt lat="50.01694" lon="4.31365">
        <ele>295.8</ele>
        <time>2024-03-19T05:40:34Z</time>
      </trkpt>
      <trkpt lat="50.01689" lon="4.31363">
        <ele>296</ele>
        <time>2024-03-19T05:40:35Z</time>
      </trkpt>
      <trkpt lat="50.01684" lon="4.31361">
        <ele>296.2</ele>
        <time>2024-03-19T05:40:36Z</time>
      </trkpt>
      <trkpt lat="50.01679" lon="4.31358">
        <ele>296.4</ele>
        <time>2024-03-19T05:40:37Z</time>
      </trkpt>
      <trkpt lat="50.01674" lon="4.31356">
        <ele>296.6</ele>
        <time>2024-03-19T05:40:38Z</time>
      </trkpt>
      <trkpt lat="50.0167" lon="4.31354">
        <ele>296.8</ele>
        <time>2024-03-19T05:40:39Z</time>
      </trkpt>
      <trkpt lat="50.01665" lon="4.31351">
        <ele>296.8</ele>
        <time>2024-03-19T05:40:40Z</time>
      </trkpt>
      <trkpt lat="50.0166" lon="4.31348">
        <ele>297</ele>
        <time>2024-03-19T05:40:41Z</time>
      </trkpt>
      <trkpt lat="50.01656" lon="4.31345">
        <ele>297</ele>
        <time>2024-03-19T05:40:42Z</time>
      </trkpt>
      <trkpt lat="50.01651" lon="4.31342">
        <ele>297</ele>
        <time>2024-03-19T05:40:43Z</time>
      </trkpt>
      <trkpt lat="50.01646" lon="4.31339">
        <ele>297</ele>
        <time>2024-03-19T05:40:44Z</time>
      </trkpt>
      <trkpt lat="50.01642" lon="4.31335">
        <ele>297</ele>
        <time>2024-03-19T05:40:45Z</time>
      </trkpt>
      <trkpt lat="50.01638" lon="4.31331">
        <ele>297.2</ele>
        <time>2024-03-19T05:40:46Z</time>
      </trkpt>
      <trkpt lat="50.01633" lon="4.31327">
        <ele>297.2</ele>
        <time>2024-03-19T05:40:47Z</time>
      </trkpt>
      <trkpt lat="50.01629" lon="4.31323">
        <ele>297.6</ele>
        <time>2024-03-19T05:40:48Z</time>
      </trkpt>
      <trkpt lat="50.01625" lon="4.31319">
        <ele>297.6</ele>
        <time>2024-03-19T05:40:49Z</time>
      </trkpt>
      <trkpt lat="50.01621" lon="4.31315">
        <ele>298</ele>
        <time>2024-03-19T05:40:50Z</time>
      </trkpt>
      <trkpt lat="50.01617" lon="4.31311">
        <ele>298</ele>
        <time>2024-03-19T05:40:51Z</time>
      </trkpt>
      <trkpt lat="50.01613" lon="4.31307">
        <ele>298</ele>
        <time>2024-03-19T05:40:52Z</time>
      </trkpt>
      <trkpt lat="50.01609" lon="4.31303">
        <ele>298.2</ele>
        <time>2024-03-19T05:40:53Z</time>
      </trkpt>
      <trkpt lat="50.01605" lon="4.31299">
        <ele>298</ele>
        <time>2024-03-19T05:40:54Z</time>
      </trkpt>
      <trkpt lat="50.01601" lon="4.31295">
        <ele>298.2</ele>
        <time>2024-03-19T05:40:55Z</time>
      </trkpt>
      <trkpt lat="50.01597" lon="4.31291">
        <ele>298.4</ele>
        <time>2024-03-19T05:40:56Z</time>
      </trkpt>
      <trkpt lat="50.01593" lon="4.31287">
        <ele>298.6</ele>
        <time>2024-03-19T05:40:57Z</time>
      </trkpt>
      <trkpt lat="50.0159" lon="4.31283">
        <ele>298.6</ele>
        <time>2024-03-19T05:40:58Z</time>
      </trkpt>
      <trkpt lat="50.01588" lon="4.31277">
        <ele>298.8</ele>
        <time>2024-03-19T05:40:59Z</time>
      </trkpt>
      <trkpt lat="50.01586" lon="4.3127">
        <ele>299</ele>
        <time>2024-03-19T05:41:00Z</time>
      </trkpt>
      <trkpt lat="50.01586" lon="4.31263">
        <ele>299.4</ele>
        <time>2024-03-19T05:41:01Z</time>
      </trkpt>
      <trkpt lat="50.01586" lon="4.31254">
        <ele>299.4</ele>
        <time>2024-03-19T05:41:02Z</time>
      </trkpt>
      <trkpt lat="50.01587" lon="4.31246">
        <ele>299.6</ele>
        <time>2024-03-19T05:41:03Z</time>
      </trkpt>
      <trkpt lat="50.01587" lon="4.31237">
        <ele>300</ele>
        <time>2024-03-19T05:41:04Z</time>
      </trkpt>
      <trkpt lat="50.01588" lon="4.31229">
        <ele>300.2</ele>
        <time>2024-03-19T05:41:05Z</time>
      </trkpt>
      <trkpt lat="50.0159" lon="4.3122">
        <ele>300.4</ele>
        <time>2024-03-19T05:41:06Z</time>
      </trkpt>
      <trkpt lat="50.01591" lon="4.31212">
        <ele>300.6</ele>
        <time>2024-03-19T05:41:07Z</time>
      </trkpt>
      <trkpt lat="50.01593" lon="4.31203">
        <ele>300.6</ele>
        <time>2024-03-19T05:41:08Z</time>
      </trkpt>
      <trkpt lat="50.01595" lon="4.31195">
        <ele>300.8</ele>
        <time>2024-03-19T05:41:09Z</time>
      </trkpt>
      <trkpt lat="50.01597" lon="4.31187">
        <ele>300.8</ele>
        <time>2024-03-19T05:41:10Z</time>
      </trkpt>
      <trkpt lat="50.01599" lon="4.31178">
        <ele>300.8</ele>
        <time>2024-03-19T05:41:11Z</time>
      </trkpt>
      <trkpt lat="50.01601" lon="4.31169">
        <ele>300.8</ele>
        <time>2024-03-19T05:41:12Z</time>
      </trkpt>
      <trkpt lat="50.01603" lon="4.3116">
        <ele>301</ele>
        <time>2024-03-19T05:41:13Z</time>
      </trkpt>
      <trkpt lat="50.01605" lon="4.31151">
        <ele>300.8</ele>
        <time>2024-03-19T05:41:14Z</time>
      </trkpt>
      <trkpt lat="50.01607" lon="4.31141">
        <ele>301</ele>
        <time>2024-03-19T05:41:15Z</time>
      </trkpt>
      <trkpt lat="50.0161" lon="4.31131">
        <ele>300.8</ele>
        <time>2024-03-19T05:41:16Z</time>
      </trkpt>
      <trkpt lat="50.01612" lon="4.31121">
        <ele>300.8</ele>
        <time>2024-03-19T05:41:17Z</time>
      </trkpt>
      <trkpt lat="50.01614" lon="4.31111">
        <ele>300.8</ele>
        <time>2024-03-19T05:41:18Z</time>
      </trkpt>
      <trkpt lat="50.01616" lon="4.311">
        <ele>301</ele>
        <time>2024-03-19T05:41:19Z</time>
      </trkpt>
      <trkpt lat="50.01619" lon="4.31089">
        <ele>300.8</ele>
        <time>2024-03-19T05:41:20Z</time>
      </trkpt>
      <trkpt lat="50.01621" lon="4.31078">
        <ele>300.8</ele>
        <time>2024-03-19T05:41:21Z</time>
      </trkpt>
      <trkpt lat="50.01623" lon="4.31067">
        <ele>300.8</ele>
        <time>2024-03-19T05:41:22Z</time>
      </trkpt>
      <trkpt lat="50.01625" lon="4.31056">
        <ele>300.6</ele>
        <time>2024-03-19T05:41:23Z</time>
      </trkpt>
      <trkpt lat="50.01628" lon="4.31045">
        <ele>300</ele>
        <time>2024-03-19T05:41:24Z</time>
      </trkpt>
      <trkpt lat="50.0163" lon="4.31034">
        <ele>299.4</ele>
        <time>2024-03-19T05:41:25Z</time>
      </trkpt>
      <trkpt lat="50.01632" lon="4.31022">
        <ele>299.2</ele>
        <time>2024-03-19T05:41:26Z</time>
      </trkpt>
      <trkpt lat="50.01635" lon="4.31011">
        <ele>299.2</ele>
        <time>2024-03-19T05:41:27Z</time>
      </trkpt>
      <trkpt lat="50.01637" lon="4.30999">
        <ele>298.8</ele>
        <time>2024-03-19T05:41:28Z</time>
      </trkpt>
      <trkpt lat="50.0164" lon="4.30988">
        <ele>298.8</ele>
        <time>2024-03-19T05:41:29Z</time>
      </trkpt>
      <trkpt lat="50.01642" lon="4.30976">
        <ele>298.6</ele>
        <time>2024-03-19T05:41:30Z</time>
      </trkpt>
      <trkpt lat="50.01644" lon="4.30964">
        <ele>298.4</ele>
        <time>2024-03-19T05:41:31Z</time>
      </trkpt>
      <trkpt lat="50.01647" lon="4.30952">
        <ele>298.4</ele>
        <time>2024-03-19T05:41:32Z</time>
      </trkpt>
      <trkpt lat="50.0165" lon="4.3094">
        <ele>298.2</ele>
        <time>2024-03-19T05:41:33Z</time>
      </trkpt>
      <trkpt lat="50.01653" lon="4.30928">
        <ele>298.2</ele>
        <time>2024-03-19T05:41:34Z</time>
      </trkpt>
      <trkpt lat="50.01655" lon="4.30916">
        <ele>298</ele>
        <time>2024-03-19T05:41:35Z</time>
      </trkpt>
      <trkpt lat="50.01658" lon="4.30904">
        <ele>297.8</ele>
        <time>2024-03-19T05:41:36Z</time>
      </trkpt>
      <trkpt lat="50.01661" lon="4.30892">
        <ele>297.6</ele>
        <time>2024-03-19T05:41:37Z</time>
      </trkpt>
      <trkpt lat="50.01663" lon="4.3088">
        <ele>297.4</ele>
        <time>2024-03-19T05:41:38Z</time>
      </trkpt>
      <trkpt lat="50.01666" lon="4.30867">
        <ele>297.2</ele>
        <time>2024-03-19T05:41:39Z</time>
      </trkpt>
      <trkpt lat="50.01669" lon="4.30855">
        <ele>297</ele>
        <time>2024-03-19T05:41:40Z</time>
      </trkpt>
      <trkpt lat="50.01671" lon="4.30843">
        <ele>296.8</ele>
        <time>2024-03-19T05:41:41Z</time>
      </trkpt>
      <trkpt lat="50.01674" lon="4.30831">
        <ele>296.4</ele>
        <time>2024-03-19T05:41:42Z</time>
      </trkpt>
      <trkpt lat="50.01676" lon="4.30819">
        <ele>296.2</ele>
        <time>2024-03-19T05:41:43Z</time>
      </trkpt>
      <trkpt lat="50.01679" lon="4.30807">
        <ele>296</ele>
        <time>2024-03-19T05:41:44Z</time>
      </trkpt>
      <trkpt lat="50.01681" lon="4.30795">
        <ele>295.8</ele>
        <time>2024-03-19T05:41:45Z</time>
      </trkpt>
      <trkpt lat="50.01684" lon="4.30784">
        <ele>295.4</ele>
        <time>2024-03-19T05:41:46Z</time>
      </trkpt>
      <trkpt lat="50.01686" lon="4.30772">
        <ele>295.2</ele>
        <time>2024-03-19T05:41:47Z</time>
      </trkpt>
      <trkpt lat="50.01689" lon="4.30761">
        <ele>295</ele>
        <time>2024-03-19T05:41:48Z</time>
      </trkpt>
      <trkpt lat="50.01691" lon="4.3075">
        <ele>295</ele>
        <time>2024-03-19T05:41:49Z</time>
      </trkpt>
      <trkpt lat="50.01693" lon="4.3074">
        <ele>294.8</ele>
        <time>2024-03-19T05:41:50Z</time>
      </trkpt>
      <trkpt lat="50.01696" lon="4.3073">
        <ele>294.8</ele>
        <time>2024-03-19T05:41:51Z</time>
      </trkpt>
      <trkpt lat="50.01698" lon="4.3072">
        <ele>294.6</ele>
        <time>2024-03-19T05:41:52Z</time>
      </trkpt>
      <trkpt lat="50.017" lon="4.3071">
        <ele>294.6</ele>
        <time>2024-03-19T05:41:53Z</time>
      </trkpt>
      <trkpt lat="50.01702" lon="4.307">
        <ele>294.4</ele>
        <time>2024-03-19T05:41:54Z</time>
      </trkpt>
      <trkpt lat="50.01704" lon="4.3069">
        <ele>294.6</ele>
        <time>2024-03-19T05:41:55Z</time>
      </trkpt>
      <trkpt lat="50.01706" lon="4.3068">
        <ele>294.6</ele>
        <time>2024-03-19T05:41:56Z</time>
      </trkpt>
      <trkpt lat="50.01708" lon="4.30671">
        <ele>294.4</ele>
        <time>2024-03-19T05:41:57Z</time>
      </trkpt>
      <trkpt lat="50.0171" lon="4.30661">
        <ele>294.4</ele>
        <time>2024-03-19T05:41:58Z</time>
      </trkpt>
      <trkpt lat="50.01712" lon="4.30652">
        <ele>294.4</ele>
        <time>2024-03-19T05:41:59Z</time>
      </trkpt>
      <trkpt lat="50.01714" lon="4.30642">
        <ele>294.4</ele>
        <time>2024-03-19T05:42:00Z</time>
      </trkpt>
      <trkpt lat="50.01716" lon="4.30633">
        <ele>294.4</ele>
        <time>2024-03-19T05:42:01Z</time>
      </trkpt>
      <trkpt lat="50.01718" lon="4.30624">
        <ele>294.6</ele>
        <time>2024-03-19T05:42:02Z</time>
      </trkpt>
      <trkpt lat="50.0172" lon="4.30614">
        <ele>294.4</ele>
        <time>2024-03-19T05:42:03Z</time>
      </trkpt>
      <trkpt lat="50.01722" lon="4.30605">
        <ele>294.4</ele>
        <time>2024-03-19T05:42:04Z</time>
      </trkpt>
      <trkpt lat="50.01724" lon="4.30596">
        <ele>294.4</ele>
        <time>2024-03-19T05:42:05Z</time>
      </trkpt>
      <trkpt lat="50.01726" lon="4.30587">
        <ele>294.6</ele>
        <time>2024-03-19T05:42:06Z</time>
      </trkpt>
      <trkpt lat="50.01728" lon="4.30577">
        <ele>294.6</ele>
        <time>2024-03-19T05:42:07Z</time>
      </trkpt>
      <trkpt lat="50.0173" lon="4.30568">
        <ele>294.6</ele>
        <time>2024-03-19T05:42:08Z</time>
      </trkpt>
      <trkpt lat="50.01732" lon="4.30559">
        <ele>294.8</ele>
        <time>2024-03-19T05:42:09Z</time>
      </trkpt>
      <trkpt lat="50.01734" lon="4.3055">
        <ele>294.8</ele>
        <time>2024-03-19T05:42:10Z</time>
      </trkpt>
      <trkpt lat="50.01735" lon="4.30542">
        <ele>295.2</ele>
        <time>2024-03-19T05:42:11Z</time>
      </trkpt>
      <trkpt lat="50.01737" lon="4.30533">
        <ele>295.2</ele>
        <time>2024-03-19T05:42:12Z</time>
      </trkpt>
      <trkpt lat="50.01739" lon="4.30524">
        <ele>295.2</ele>
        <time>2024-03-19T05:42:13Z</time>
      </trkpt>
      <trkpt lat="50.01741" lon="4.30515">
        <ele>295.2</ele>
        <time>2024-03-19T05:42:14Z</time>
      </trkpt>
      <trkpt lat="50.01743" lon="4.30506">
        <ele>295.2</ele>
        <time>2024-03-19T05:42:15Z</time>
      </trkpt>
      <trkpt lat="50.01745" lon="4.30497">
        <ele>295.6</ele>
        <time>2024-03-19T05:42:16Z</time>
      </trkpt>
      <trkpt lat="50.01747" lon="4.30489">
        <ele>295.6</ele>
        <time>2024-03-19T05:42:17Z</time>
      </trkpt>
      <trkpt lat="50.01749" lon="4.3048">
        <ele>295.6</ele>
        <time>2024-03-19T05:42:18Z</time>
      </trkpt>
      <trkpt lat="50.01751" lon="4.30471">
        <ele>295.8</ele>
        <time>2024-03-19T05:42:19Z</time>
      </trkpt>
      <trkpt lat="50.01752" lon="4.30462">
        <ele>295.8</ele>
        <time>2024-03-19T05:42:20Z</time>
      </trkpt>
      <trkpt lat="50.01754" lon="4.30453">
        <ele>295.8</ele>
        <time>2024-03-19T05:42:21Z</time>
      </trkpt>
      <trkpt lat="50.01756" lon="4.30445">
        <ele>296.2</ele>
        <time>2024-03-19T05:42:22Z</time>
      </trkpt>
      <trkpt lat="50.01758" lon="4.30436">
        <ele>296.2</ele>
        <time>2024-03-19T05:42:23Z</time>
      </trkpt>
      <trkpt lat="50.0176" lon="4.30427">
        <ele>296.4</ele>
        <time>2024-03-19T05:42:24Z</time>
      </trkpt>
      <trkpt lat="50.01762" lon="4.30418">
        <ele>296.6</ele>
        <time>2024-03-19T05:42:25Z</time>
      </trkpt>
      <trkpt lat="50.01763" lon="4.30409">
        <ele>296.6</ele>
        <time>2024-03-19T05:42:26Z</time>
      </trkpt>
      <trkpt lat="50.01763" lon="4.30399">
        <ele>296.8</ele>
        <time>2024-03-19T05:42:27Z</time>
      </trkpt>
      <trkpt lat="50.01762" lon="4.3039">
        <ele>296.8</ele>
        <time>2024-03-19T05:42:28Z</time>
      </trkpt>
      <trkpt lat="50.01761" lon="4.3038">
        <ele>296.8</ele>
        <time>2024-03-19T05:42:29Z</time>
      </trkpt>
      <trkpt lat="50.01759" lon="4.30371">
        <ele>297</ele>
        <time>2024-03-19T05:42:30Z</time>
      </trkpt>
      <trkpt lat="50.01757" lon="4.30362">
        <ele>297</ele>
        <time>2024-03-19T05:42:31Z</time>
      </trkpt>
      <trkpt lat="50.01755" lon="4.30352">
        <ele>297.4</ele>
        <time>2024-03-19T05:42:32Z</time>
      </trkpt>
      <trkpt lat="50.01753" lon="4.30343">
        <ele>298</ele>
        <time>2024-03-19T05:42:33Z</time>
      </trkpt>
      <trkpt lat="50.01751" lon="4.30334">
        <ele>298.4</ele>
        <time>2024-03-19T05:42:34Z</time>
      </trkpt>
      <trkpt lat="50.01749" lon="4.30324">
        <ele>298.6</ele>
        <time>2024-03-19T05:42:35Z</time>
      </trkpt>
      <trkpt lat="50.01747" lon="4.30314">
        <ele>298.8</ele>
        <time>2024-03-19T05:42:36Z</time>
      </trkpt>
      <trkpt lat="50.01745" lon="4.30305">
        <ele>298.8</ele>
        <time>2024-03-19T05:42:37Z</time>
      </trkpt>
      <trkpt lat="50.01743" lon="4.30295">
        <ele>298.8</ele>
        <time>2024-03-19T05:42:38Z</time>
      </trkpt>
      <trkpt lat="50.01741" lon="4.30286">
        <ele>299</ele>
        <time>2024-03-19T05:42:39Z</time>
      </trkpt>
      <trkpt lat="50.01739" lon="4.30277">
        <ele>299</ele>
        <time>2024-03-19T05:42:40Z</time>
      </trkpt>
      <trkpt lat="50.01737" lon="4.30267">
        <ele>299.2</ele>
        <time>2024-03-19T05:42:41Z</time>
      </trkpt>
      <trkpt lat="50.01735" lon="4.30258">
        <ele>299.4</ele>
        <time>2024-03-19T05:42:42Z</time>
      </trkpt>
      <trkpt lat="50.01733" lon="4.30249">
        <ele>299.4</ele>
        <time>2024-03-19T05:42:43Z</time>
      </trkpt>
      <trkpt lat="50.01731" lon="4.3024">
        <ele>299.6</ele>
        <time>2024-03-19T05:42:44Z</time>
      </trkpt>
      <trkpt lat="50.01729" lon="4.3023">
        <ele>299.6</ele>
        <time>2024-03-19T05:42:45Z</time>
      </trkpt>
      <trkpt lat="50.01727" lon="4.3022">
        <ele>299.6</ele>
        <time>2024-03-19T05:42:46Z</time>
      </trkpt>
      <trkpt lat="50.01725" lon="4.3021">
        <ele>299.8</ele>
        <time>2024-03-19T05:42:47Z</time>
      </trkpt>
      <trkpt lat="50.01723" lon="4.302">
        <ele>300</ele>
        <time>2024-03-19T05:42:48Z</time>
      </trkpt>
      <trkpt lat="50.01721" lon="4.3019">
        <ele>300</ele>
        <time>2024-03-19T05:42:49Z</time>
      </trkpt>
      <trkpt lat="50.01719" lon="4.3018">
        <ele>300</ele>
        <time>2024-03-19T05:42:50Z</time>
      </trkpt>
      <trkpt lat="50.01717" lon="4.3017">
        <ele>300</ele>
        <time>2024-03-19T05:42:51Z</time>
      </trkpt>
      <trkpt lat="50.01715" lon="4.3016">
        <ele>300.4</ele>
        <time>2024-03-19T05:42:52Z</time>
      </trkpt>
      <trkpt lat="50.01712" lon="4.3015">
        <ele>300.4</ele>
        <time>2024-03-19T05:42:53Z</time>
      </trkpt>
      <trkpt lat="50.0171" lon="4.3014">
        <ele>300.4</ele>
        <time>2024-03-19T05:42:54Z</time>
      </trkpt>
      <trkpt lat="50.01708" lon="4.3013">
        <ele>300.2</ele>
        <time>2024-03-19T05:42:55Z</time>
      </trkpt>
      <trkpt lat="50.01706" lon="4.3012">
        <ele>300.2</ele>
        <time>2024-03-19T05:42:56Z</time>
      </trkpt>
      <trkpt lat="50.01704" lon="4.3011">
        <ele>300.4</ele>
        <time>2024-03-19T05:42:57Z</time>
      </trkpt>
      <trkpt lat="50.01702" lon="4.301">
        <ele>300.4</ele>
        <time>2024-03-19T05:42:58Z</time>
      </trkpt>
      <trkpt lat="50.017" lon="4.3009">
        <ele>300.4</ele>
        <time>2024-03-19T05:42:59Z</time>
      </trkpt>
      <trkpt lat="50.01697" lon="4.3008">
        <ele>300.4</ele>
        <time>2024-03-19T05:43:00Z</time>
      </trkpt>
      <trkpt lat="50.01695" lon="4.3007">
        <ele>300.4</ele>
        <time>2024-03-19T05:43:01Z</time>
      </trkpt>
      <trkpt lat="50.01693" lon="4.30059">
        <ele>300.4</ele>
        <time>2024-03-19T05:43:02Z</time>
      </trkpt>
      <trkpt lat="50.01691" lon="4.30049">
        <ele>300.4</ele>
        <time>2024-03-19T05:43:03Z</time>
      </trkpt>
      <trkpt lat="50.01688" lon="4.30039">
        <ele>300.4</ele>
        <time>2024-03-19T05:43:04Z</time>
      </trkpt>
      <trkpt lat="50.01686" lon="4.30028">
        <ele>300</ele>
        <time>2024-03-19T05:43:05Z</time>
      </trkpt>
      <trkpt lat="50.01684" lon="4.30018">
        <ele>300</ele>
        <time>2024-03-19T05:43:06Z</time>
      </trkpt>
      <trkpt lat="50.01682" lon="4.30008">
        <ele>300</ele>
        <time>2024-03-19T05:43:07Z</time>
      </trkpt>
      <trkpt lat="50.0168" lon="4.29998">
        <ele>299.8</ele>
        <time>2024-03-19T05:43:08Z</time>
      </trkpt>
      <trkpt lat="50.01678" lon="4.29987">
        <ele>299.6</ele>
        <time>2024-03-19T05:43:09Z</time>
      </trkpt>
      <trkpt lat="50.01676" lon="4.29977">
        <ele>299.6</ele>
        <time>2024-03-19T05:43:10Z</time>
      </trkpt>
      <trkpt lat="50.01674" lon="4.29967">
        <ele>299.6</ele>
        <time>2024-03-19T05:43:11Z</time>
      </trkpt>
      <trkpt lat="50.01672" lon="4.29957">
        <ele>299.6</ele>
        <time>2024-03-19T05:43:12Z</time>
      </trkpt>
      <trkpt lat="50.0167" lon="4.29947">
        <ele>299.8</ele>
        <time>2024-03-19T05:43:13Z</time>
      </trkpt>
      <trkpt lat="50.01668" lon="4.29937">
        <ele>299.8</ele>
        <time>2024-03-19T05:43:14Z</time>
      </trkpt>
      <trkpt lat="50.01665" lon="4.29928">
        <ele>299.8</ele>
        <time>2024-03-19T05:43:15Z</time>
      </trkpt>
      <trkpt lat="50.01663" lon="4.29918">
        <ele>299.8</ele>
        <time>2024-03-19T05:43:16Z</time>
      </trkpt>
      <trkpt lat="50.01661" lon="4.29909">
        <ele>299.8</ele>
        <time>2024-03-19T05:43:17Z</time>
      </trkpt>
      <trkpt lat="50.01659" lon="4.29899">
        <ele>299.8</ele>
        <time>2024-03-19T05:43:18Z</time>
      </trkpt>
      <trkpt lat="50.01656" lon="4.29889">
        <ele>299.6</ele>
        <time>2024-03-19T05:43:19Z</time>
      </trkpt>
      <trkpt lat="50.01654" lon="4.29879">
        <ele>299.8</ele>
        <time>2024-03-19T05:43:20Z</time>
      </trkpt>
      <trkpt lat="50.01652" lon="4.29869">
        <ele>299.8</ele>
        <time>2024-03-19T05:43:21Z</time>
      </trkpt>
      <trkpt lat="50.0165" lon="4.29859">
        <ele>299.8</ele>
        <time>2024-03-19T05:43:22Z</time>
      </trkpt>
      <trkpt lat="50.01648" lon="4.29849">
        <ele>299.8</ele>
        <time>2024-03-19T05:43:23Z</time>
      </trkpt>
      <trkpt lat="50.01646" lon="4.29838">
        <ele>299.8</ele>
        <time>2024-03-19T05:43:24Z</time>
      </trkpt>
      <trkpt lat="50.01644" lon="4.29828">
        <ele>299.8</ele>
        <time>2024-03-19T05:43:25Z</time>
      </trkpt>
      <trkpt lat="50.01641" lon="4.29818">
        <ele>299.8</ele>
        <time>2024-03-19T05:43:26Z</time>
      </trkpt>
      <trkpt lat="50.01639" lon="4.29808">
        <ele>299.8</ele>
        <time>2024-03-19T05:43:27Z</time>
      </trkpt>
      <trkpt lat="50.01637" lon="4.29798">
        <ele>299.8</ele>
        <time>2024-03-19T05:43:28Z</time>
      </trkpt>
      <trkpt lat="50.01635" lon="4.29788">
        <ele>299.8</ele>
        <time>2024-03-19T05:43:29Z</time>
      </trkpt>
      <trkpt lat="50.01632" lon="4.29777">
        <ele>299.8</ele>
        <time>2024-03-19T05:43:30Z</time>
      </trkpt>
      <trkpt lat="50.0163" lon="4.29767">
        <ele>299.6</ele>
        <time>2024-03-19T05:43:31Z</time>
      </trkpt>
      <trkpt lat="50.01628" lon="4.29757">
        <ele>299.6</ele>
        <time>2024-03-19T05:43:32Z</time>
      </trkpt>
      <trkpt lat="50.01625" lon="4.29747">
        <ele>299.6</ele>
        <time>2024-03-19T05:43:33Z</time>
      </trkpt>
      <trkpt lat="50.01623" lon="4.29737">
        <ele>299.6</ele>
        <time>2024-03-19T05:43:34Z</time>
      </trkpt>
      <trkpt lat="50.01621" lon="4.29727">
        <ele>299.2</ele>
        <time>2024-03-19T05:43:35Z</time>
      </trkpt>
      <trkpt lat="50.01619" lon="4.29717">
        <ele>299</ele>
        <time>2024-03-19T05:43:36Z</time>
      </trkpt>
      <trkpt lat="50.01616" lon="4.29707">
        <ele>298.8</ele>
        <time>2024-03-19T05:43:37Z</time>
      </trkpt>
      <trkpt lat="50.01614" lon="4.29697">
        <ele>298.6</ele>
        <time>2024-03-19T05:43:38Z</time>
      </trkpt>
      <trkpt lat="50.01612" lon="4.29687">
        <ele>298.8</ele>
        <time>2024-03-19T05:43:39Z</time>
      </trkpt>
      <trkpt lat="50.01609" lon="4.29677">
        <ele>298.8</ele>
        <time>2024-03-19T05:43:40Z</time>
      </trkpt>
      <trkpt lat="50.01607" lon="4.29667">
        <ele>298.6</ele>
        <time>2024-03-19T05:43:41Z</time>
      </trkpt>
      <trkpt lat="50.01605" lon="4.29657">
        <ele>298.6</ele>
        <time>2024-03-19T05:43:42Z</time>
      </trkpt>
      <trkpt lat="50.01602" lon="4.29647">
        <ele>298.8</ele>
        <time>2024-03-19T05:43:43Z</time>
      </trkpt>
      <trkpt lat="50.016" lon="4.29636">
        <ele>298.6</ele>
        <time>2024-03-19T05:43:44Z</time>
      </trkpt>
      <trkpt lat="50.01598" lon="4.29626">
        <ele>298.6</ele>
        <time>2024-03-19T05:43:45Z</time>
      </trkpt>
      <trkpt lat="50.01595" lon="4.29616">
        <ele>298.6</ele>
        <time>2024-03-19T05:43:46Z</time>
      </trkpt>
      <trkpt lat="50.01593" lon="4.29605">
        <ele>298.6</ele>
        <time>2024-03-19T05:43:47Z</time>
      </trkpt>
      <trkpt lat="50.01591" lon="4.29595">
        <ele>298.6</ele>
        <time>2024-03-19T05:43:48Z</time>
      </trkpt>
      <trkpt lat="50.01589" lon="4.29584">
        <ele>298.4</ele>
        <time>2024-03-19T05:43:49Z</time>
      </trkpt>
      <trkpt lat="50.01587" lon="4.29574">
        <ele>298.4</ele>
        <time>2024-03-19T05:43:50Z</time>
      </trkpt>
      <trkpt lat="50.01584" lon="4.29563">
        <ele>298.6</ele>
        <time>2024-03-19T05:43:51Z</time>
      </trkpt>
      <trkpt lat="50.01582" lon="4.29553">
        <ele>298.4</ele>
        <time>2024-03-19T05:43:52Z</time>
      </trkpt>
      <trkpt lat="50.0158" lon="4.29543">
        <ele>298.6</ele>
        <time>2024-03-19T05:43:53Z</time>
      </trkpt>
      <trkpt lat="50.01578" lon="4.29532">
        <ele>298.6</ele>
        <time>2024-03-19T05:43:54Z</time>
      </trkpt>
      <trkpt lat="50.01575" lon="4.29522">
        <ele>298.6</ele>
        <time>2024-03-19T05:43:55Z</time>
      </trkpt>
      <trkpt lat="50.01573" lon="4.29512">
        <ele>298.6</ele>
        <time>2024-03-19T05:43:56Z</time>
      </trkpt>
      <trkpt lat="50.01571" lon="4.29501">
        <ele>298.4</ele>
        <time>2024-03-19T05:43:57Z</time>
      </trkpt>
      <trkpt lat="50.01569" lon="4.29491">
        <ele>298.4</ele>
        <time>2024-03-19T05:43:58Z</time>
      </trkpt>
      <trkpt lat="50.01566" lon="4.29481">
        <ele>298.4</ele>
        <time>2024-03-19T05:43:59Z</time>
      </trkpt>
      <trkpt lat="50.01564" lon="4.2947">
        <ele>298.2</ele>
        <time>2024-03-19T05:44:00Z</time>
      </trkpt>
      <trkpt lat="50.01562" lon="4.2946">
        <ele>298.4</ele>
        <time>2024-03-19T05:44:01Z</time>
      </trkpt>
      <trkpt lat="50.0156" lon="4.2945">
        <ele>298.2</ele>
        <time>2024-03-19T05:44:02Z</time>
      </trkpt>
      <trkpt lat="50.01557" lon="4.2944">
        <ele>298.2</ele>
        <time>2024-03-19T05:44:03Z</time>
      </trkpt>
      <trkpt lat="50.01555" lon="4.2943">
        <ele>298.2</ele>
        <time>2024-03-19T05:44:04Z</time>
      </trkpt>
      <trkpt lat="50.01553" lon="4.2942">
        <ele>298.2</ele>
        <time>2024-03-19T05:44:05Z</time>
      </trkpt>
      <trkpt lat="50.01551" lon="4.29409">
        <ele>298</ele>
        <time>2024-03-19T05:44:06Z</time>
      </trkpt>
      <trkpt lat="50.01549" lon="4.29399">
        <ele>298</ele>
        <time>2024-03-19T05:44:07Z</time>
      </trkpt>
      <trkpt lat="50.01547" lon="4.29389">
        <ele>298.2</ele>
        <time>2024-03-19T05:44:08Z</time>
      </trkpt>
      <trkpt lat="50.01545" lon="4.29379">
        <ele>297.8</ele>
        <time>2024-03-19T05:44:09Z</time>
      </trkpt>
      <trkpt lat="50.01543" lon="4.29368">
        <ele>297.8</ele>
        <time>2024-03-19T05:44:10Z</time>
      </trkpt>
      <trkpt lat="50.0154" lon="4.29358">
        <ele>297.6</ele>
        <time>2024-03-19T05:44:11Z</time>
      </trkpt>
      <trkpt lat="50.01538" lon="4.29348">
        <ele>297.6</ele>
        <time>2024-03-19T05:44:12Z</time>
      </trkpt>
      <trkpt lat="50.01536" lon="4.29338">
        <ele>297.4</ele>
        <time>2024-03-19T05:44:13Z</time>
      </trkpt>
      <trkpt lat="50.01534" lon="4.29327">
        <ele>297.4</ele>
        <time>2024-03-19T05:44:14Z</time>
      </trkpt>
      <trkpt lat="50.01532" lon="4.29317">
        <ele>297.4</ele>
        <time>2024-03-19T05:44:15Z</time>
      </trkpt>
      <trkpt lat="50.01529" lon="4.29307">
        <ele>297.2</ele>
        <time>2024-03-19T05:44:16Z</time>
      </trkpt>
      <trkpt lat="50.01527" lon="4.29296">
        <ele>297.2</ele>
        <time>2024-03-19T05:44:17Z</time>
      </trkpt>
      <trkpt lat="50.01525" lon="4.29286">
        <ele>297.2</ele>
        <time>2024-03-19T05:44:18Z</time>
      </trkpt>
      <trkpt lat="50.01523" lon="4.29276">
        <ele>297</ele>
        <time>2024-03-19T05:44:19Z</time>
      </trkpt>
      <trkpt lat="50.01521" lon="4.29266">
        <ele>296.8</ele>
        <time>2024-03-19T05:44:20Z</time>
      </trkpt>
      <trkpt lat="50.01518" lon="4.29255">
        <ele>296.8</ele>
        <time>2024-03-19T05:44:21Z</time>
      </trkpt>
      <trkpt lat="50.01516" lon="4.29245">
        <ele>296.6</ele>
        <time>2024-03-19T05:44:22Z</time>
      </trkpt>
      <trkpt lat="50.01514" lon="4.29235">
        <ele>296.8</ele>
        <time>2024-03-19T05:44:23Z</time>
      </trkpt>
      <trkpt lat="50.01512" lon="4.29224">
        <ele>296.8</ele>
        <time>2024-03-19T05:44:24Z</time>
      </trkpt>
      <trkpt lat="50.01509" lon="4.29214">
        <ele>296.6</ele>
        <time>2024-03-19T05:44:25Z</time>
      </trkpt>
      <trkpt lat="50.01507" lon="4.29204">
        <ele>296.4</ele>
        <time>2024-03-19T05:44:26Z</time>
      </trkpt>
      <trkpt lat="50.01504" lon="4.29194">
        <ele>296.6</ele>
        <time>2024-03-19T05:44:27Z</time>
      </trkpt>
      <trkpt lat="50.01502" lon="4.29183">
        <ele>296.4</ele>
        <time>2024-03-19T05:44:28Z</time>
      </trkpt>
      <trkpt lat="50.015" lon="4.29173">
        <ele>296.2</ele>
        <time>2024-03-19T05:44:29Z</time>
      </trkpt>
      <trkpt lat="50.01497" lon="4.29163">
        <ele>296.2</ele>
        <time>2024-03-19T05:44:30Z</time>
      </trkpt>
      <trkpt lat="50.01495" lon="4.29152">
        <ele>296.2</ele>
        <time>2024-03-19T05:44:31Z</time>
      </trkpt>
      <trkpt lat="50.01493" lon="4.29142">
        <ele>296.2</ele>
        <time>2024-03-19T05:44:32Z</time>
      </trkpt>
      <trkpt lat="50.01491" lon="4.29132">
        <ele>296.2</ele>
        <time>2024-03-19T05:44:33Z</time>
      </trkpt>
      <trkpt lat="50.01488" lon="4.29122">
        <ele>296</ele>
        <time>2024-03-19T05:44:34Z</time>
      </trkpt>
      <trkpt lat="50.01486" lon="4.29112">
        <ele>296.2</ele>
        <time>2024-03-19T05:44:35Z</time>
      </trkpt>
      <trkpt lat="50.01484" lon="4.29101">
        <ele>296</ele>
        <time>2024-03-19T05:44:36Z</time>
      </trkpt>
      <trkpt lat="50.01482" lon="4.29091">
        <ele>296</ele>
        <time>2024-03-19T05:44:37Z</time>
      </trkpt>
      <trkpt lat="50.0148" lon="4.29081">
        <ele>296</ele>
        <time>2024-03-19T05:44:38Z</time>
      </trkpt>
      <trkpt lat="50.01478" lon="4.29071">
        <ele>295.8</ele>
        <time>2024-03-19T05:44:39Z</time>
      </trkpt>
      <trkpt lat="50.01476" lon="4.29061">
        <ele>295.8</ele>
        <time>2024-03-19T05:44:40Z</time>
      </trkpt>
      <trkpt lat="50.01473" lon="4.2905">
        <ele>295.8</ele>
        <time>2024-03-19T05:44:41Z</time>
      </trkpt>
      <trkpt lat="50.01471" lon="4.2904">
        <ele>295.6</ele>
        <time>2024-03-19T05:44:42Z</time>
      </trkpt>
      <trkpt lat="50.01469" lon="4.2903">
        <ele>295.6</ele>
        <time>2024-03-19T05:44:43Z</time>
      </trkpt>
      <trkpt lat="50.01467" lon="4.2902">
        <ele>295.6</ele>
        <time>2024-03-19T05:44:44Z</time>
      </trkpt>
      <trkpt lat="50.01465" lon="4.29009">
        <ele>295.8</ele>
        <time>2024-03-19T05:44:45Z</time>
      </trkpt>
      <trkpt lat="50.01462" lon="4.28999">
        <ele>295.2</ele>
        <time>2024-03-19T05:44:46Z</time>
      </trkpt>
      <trkpt lat="50.0146" lon="4.28989">
        <ele>294.8</ele>
        <time>2024-03-19T05:44:47Z</time>
      </trkpt>
      <trkpt lat="50.01458" lon="4.28979">
        <ele>294.8</ele>
        <time>2024-03-19T05:44:48Z</time>
      </trkpt>
      <trkpt lat="50.01456" lon="4.28968">
        <ele>294.6</ele>
        <time>2024-03-19T05:44:49Z</time>
      </trkpt>
      <trkpt lat="50.01454" lon="4.28958">
        <ele>294.4</ele>
        <time>2024-03-19T05:44:50Z</time>
      </trkpt>
      <trkpt lat="50.01452" lon="4.28948">
        <ele>294.2</ele>
        <time>2024-03-19T05:44:51Z</time>
      </trkpt>
      <trkpt lat="50.0145" lon="4.28938">
        <ele>294</ele>
        <time>2024-03-19T05:44:52Z</time>
      </trkpt>
      <trkpt lat="50.01447" lon="4.28928">
        <ele>294</ele>
        <time>2024-03-19T05:44:53Z</time>
      </trkpt>
      <trkpt lat="50.01445" lon="4.28917">
        <ele>294</ele>
        <time>2024-03-19T05:44:54Z</time>
      </trkpt>
      <trkpt lat="50.01443" lon="4.28907">
        <ele>294</ele>
        <time>2024-03-19T05:44:55Z</time>
      </trkpt>
      <trkpt lat="50.01441" lon="4.28897">
        <ele>293.8</ele>
        <time>2024-03-19T05:44:56Z</time>
      </trkpt>
      <trkpt lat="50.01438" lon="4.28887">
        <ele>293.8</ele>
        <time>2024-03-19T05:44:57Z</time>
      </trkpt>
      <trkpt lat="50.01436" lon="4.28876">
        <ele>293.8</ele>
        <time>2024-03-19T05:44:58Z</time>
      </trkpt>
      <trkpt lat="50.01434" lon="4.28866">
        <ele>293.8</ele>
        <time>2024-03-19T05:44:59Z</time>
      </trkpt>
      <trkpt lat="50.01432" lon="4.28856">
        <ele>293.6</ele>
        <time>2024-03-19T05:45:00Z</time>
      </trkpt>
      <trkpt lat="50.0143" lon="4.28846">
        <ele>293.6</ele>
        <time>2024-03-19T05:45:01Z</time>
      </trkpt>
      <trkpt lat="50.01428" lon="4.28836">
        <ele>293.4</ele>
        <time>2024-03-19T05:45:02Z</time>
      </trkpt>
      <trkpt lat="50.01425" lon="4.28825">
        <ele>293.2</ele>
        <time>2024-03-19T05:45:03Z</time>
      </trkpt>
      <trkpt lat="50.01423" lon="4.28815">
        <ele>293.2</ele>
        <time>2024-03-19T05:45:04Z</time>
      </trkpt>
      <trkpt lat="50.01421" lon="4.28805">
        <ele>293.2</ele>
        <time>2024-03-19T05:45:05Z</time>
      </trkpt>
      <trkpt lat="50.01419" lon="4.28795">
        <ele>293.2</ele>
        <time>2024-03-19T05:45:06Z</time>
      </trkpt>
      <trkpt lat="50.01417" lon="4.28784">
        <ele>293.2</ele>
        <time>2024-03-19T05:45:07Z</time>
      </trkpt>
      <trkpt lat="50.01414" lon="4.28774">
        <ele>293</ele>
        <time>2024-03-19T05:45:08Z</time>
      </trkpt>
      <trkpt lat="50.01412" lon="4.28764">
        <ele>293</ele>
        <time>2024-03-19T05:45:09Z</time>
      </trkpt>
      <trkpt lat="50.0141" lon="4.28754">
        <ele>293</ele>
        <time>2024-03-19T05:45:10Z</time>
      </trkpt>
      <trkpt lat="50.01408" lon="4.28744">
        <ele>293</ele>
        <time>2024-03-19T05:45:11Z</time>
      </trkpt>
      <trkpt lat="50.01406" lon="4.28733">
        <ele>293</ele>
        <time>2024-03-19T05:45:12Z</time>
      </trkpt>
      <trkpt lat="50.01403" lon="4.28723">
        <ele>293</ele>
        <time>2024-03-19T05:45:13Z</time>
      </trkpt>
      <trkpt lat="50.01401" lon="4.28713">
        <ele>292.8</ele>
        <time>2024-03-19T05:45:14Z</time>
      </trkpt>
      <trkpt lat="50.01399" lon="4.28702">
        <ele>292.8</ele>
        <time>2024-03-19T05:45:15Z</time>
      </trkpt>
      <trkpt lat="50.01397" lon="4.28692">
        <ele>293</ele>
        <time>2024-03-19T05:45:16Z</time>
      </trkpt>
      <trkpt lat="50.01395" lon="4.28681">
        <ele>292.8</ele>
        <time>2024-03-19T05:45:17Z</time>
      </trkpt>
      <trkpt lat="50.01392" lon="4.28671">
        <ele>293</ele>
        <time>2024-03-19T05:45:18Z</time>
      </trkpt>
      <trkpt lat="50.0139" lon="4.2866">
        <ele>293</ele>
        <time>2024-03-19T05:45:19Z</time>
      </trkpt>
      <trkpt lat="50.01388" lon="4.28649">
        <ele>293</ele>
        <time>2024-03-19T05:45:20Z</time>
      </trkpt>
      <trkpt lat="50.01385" lon="4.28638">
        <ele>292.8</ele>
        <time>2024-03-19T05:45:21Z</time>
      </trkpt>
      <trkpt lat="50.01383" lon="4.28627">
        <ele>293</ele>
        <time>2024-03-19T05:45:22Z</time>
      </trkpt>
      <trkpt lat="50.01381" lon="4.28616">
        <ele>293</ele>
        <time>2024-03-19T05:45:23Z</time>
      </trkpt>
      <trkpt lat="50.01378" lon="4.28604">
        <ele>293</ele>
        <time>2024-03-19T05:45:24Z</time>
      </trkpt>
      <trkpt lat="50.01376" lon="4.28593">
        <ele>293</ele>
        <time>2024-03-19T05:45:25Z</time>
      </trkpt>
      <trkpt lat="50.01373" lon="4.28581">
        <ele>293</ele>
        <time>2024-03-19T05:45:26Z</time>
      </trkpt>
      <trkpt lat="50.01371" lon="4.28569">
        <ele>293</ele>
        <time>2024-03-19T05:45:27Z</time>
      </trkpt>
      <trkpt lat="50.01368" lon="4.28557">
        <ele>292.8</ele>
        <time>2024-03-19T05:45:28Z</time>
      </trkpt>
      <trkpt lat="50.01366" lon="4.28545">
        <ele>292.8</ele>
        <time>2024-03-19T05:45:29Z</time>
      </trkpt>
      <trkpt lat="50.01363" lon="4.28533">
        <ele>292.8</ele>
        <time>2024-03-19T05:45:30Z</time>
      </trkpt>
      <trkpt lat="50.0136" lon="4.2852">
        <ele>292.8</ele>
        <time>2024-03-19T05:45:31Z</time>
      </trkpt>
      <trkpt lat="50.01357" lon="4.28508">
        <ele>292.4</ele>
        <time>2024-03-19T05:45:32Z</time>
      </trkpt>
      <trkpt lat="50.01355" lon="4.28495">
        <ele>292</ele>
        <time>2024-03-19T05:45:33Z</time>
      </trkpt>
      <trkpt lat="50.01352" lon="4.28482">
        <ele>291.8</ele>
        <time>2024-03-19T05:45:34Z</time>
      </trkpt>
      <trkpt lat="50.01349" lon="4.2847">
        <ele>291.6</ele>
        <time>2024-03-19T05:45:35Z</time>
      </trkpt>
      <trkpt lat="50.01346" lon="4.28456">
        <ele>291.2</ele>
        <time>2024-03-19T05:45:36Z</time>
      </trkpt>
      <trkpt lat="50.01344" lon="4.28443">
        <ele>291</ele>
        <time>2024-03-19T05:45:37Z</time>
      </trkpt>
      <trkpt lat="50.01341" lon="4.2843">
        <ele>291</ele>
        <time>2024-03-19T05:45:38Z</time>
      </trkpt>
      <trkpt lat="50.01338" lon="4.28417">
        <ele>290.6</ele>
        <time>2024-03-19T05:45:39Z</time>
      </trkpt>
      <trkpt lat="50.01335" lon="4.28403">
        <ele>290.2</ele>
        <time>2024-03-19T05:45:40Z</time>
      </trkpt>
      <trkpt lat="50.01332" lon="4.2839">
        <ele>290</ele>
        <time>2024-03-19T05:45:41Z</time>
      </trkpt>
      <trkpt lat="50.01329" lon="4.28377">
        <ele>289.6</ele>
        <time>2024-03-19T05:45:42Z</time>
      </trkpt>
      <trkpt lat="50.01326" lon="4.28363">
        <ele>289</ele>
        <time>2024-03-19T05:45:43Z</time>
      </trkpt>
      <trkpt lat="50.01324" lon="4.2835">
        <ele>288.4</ele>
        <time>2024-03-19T05:45:44Z</time>
      </trkpt>
      <trkpt lat="50.01321" lon="4.28336">
        <ele>288.2</ele>
        <time>2024-03-19T05:45:45Z</time>
      </trkpt>
      <trkpt lat="50.01318" lon="4.28323">
        <ele>288</ele>
        <time>2024-03-19T05:45:46Z</time>
      </trkpt>
      <trkpt lat="50.01315" lon="4.28309">
        <ele>288</ele>
        <time>2024-03-19T05:45:47Z</time>
      </trkpt>
      <trkpt lat="50.01312" lon="4.28295">
        <ele>287.6</ele>
        <time>2024-03-19T05:45:48Z</time>
      </trkpt>
      <trkpt lat="50.01309" lon="4.28281">
        <ele>287.4</ele>
        <time>2024-03-19T05:45:49Z</time>
      </trkpt>
      <trkpt lat="50.01306" lon="4.28267">
        <ele>287.2</ele>
        <time>2024-03-19T05:45:50Z</time>
      </trkpt>
      <trkpt lat="50.01303" lon="4.28254">
        <ele>286.6</ele>
        <time>2024-03-19T05:45:51Z</time>
      </trkpt>
      <trkpt lat="50.013" lon="4.2824">
        <ele>286.2</ele>
        <time>2024-03-19T05:45:52Z</time>
      </trkpt>
      <trkpt lat="50.01297" lon="4.28226">
        <ele>285.4</ele>
        <time>2024-03-19T05:45:53Z</time>
      </trkpt>
      <trkpt lat="50.01293" lon="4.28212">
        <ele>284.8</ele>
        <time>2024-03-19T05:45:54Z</time>
      </trkpt>
      <trkpt lat="50.0129" lon="4.28198">
        <ele>284.4</ele>
        <time>2024-03-19T05:45:55Z</time>
      </trkpt>
      <trkpt lat="50.01287" lon="4.28184">
        <ele>284</ele>
        <time>2024-03-19T05:45:56Z</time>
      </trkpt>
      <trkpt lat="50.01285" lon="4.2817">
        <ele>283.6</ele>
        <time>2024-03-19T05:45:57Z</time>
      </trkpt>
      <trkpt lat="50.01282" lon="4.28157">
        <ele>283.4</ele>
        <time>2024-03-19T05:45:58Z</time>
      </trkpt>
      <trkpt lat="50.01279" lon="4.28143">
        <ele>282.8</ele>
        <time>2024-03-19T05:45:59Z</time>
      </trkpt>
      <trkpt lat="50.01276" lon="4.2813">
        <ele>282.4</ele>
        <time>2024-03-19T05:46:00Z</time>
      </trkpt>
      <trkpt lat="50.01274" lon="4.28117">
        <ele>282</ele>
        <time>2024-03-19T05:46:01Z</time>
      </trkpt>
      <trkpt lat="50.01271" lon="4.28104">
        <ele>282</ele>
        <time>2024-03-19T05:46:02Z</time>
      </trkpt>
      <trkpt lat="50.01268" lon="4.28091">
        <ele>281.8</ele>
        <time>2024-03-19T05:46:03Z</time>
      </trkpt>
      <trkpt lat="50.01266" lon="4.28079">
        <ele>281</ele>
        <time>2024-03-19T05:46:04Z</time>
      </trkpt>
      <trkpt lat="50.01264" lon="4.28067">
        <ele>281</ele>
        <time>2024-03-19T05:46:05Z</time>
      </trkpt>
      <trkpt lat="50.01261" lon="4.28055">
        <ele>280.8</ele>
        <time>2024-03-19T05:46:06Z</time>
      </trkpt>
      <trkpt lat="50.01259" lon="4.28044">
        <ele>280.8</ele>
        <time>2024-03-19T05:46:07Z</time>
      </trkpt>
      <trkpt lat="50.01256" lon="4.28032">
        <ele>280.8</ele>
        <time>2024-03-19T05:46:08Z</time>
      </trkpt>
      <trkpt lat="50.01253" lon="4.28021">
        <ele>280.8</ele>
        <time>2024-03-19T05:46:09Z</time>
      </trkpt>
      <trkpt lat="50.01251" lon="4.28009">
        <ele>280.6</ele>
        <time>2024-03-19T05:46:10Z</time>
      </trkpt>
      <trkpt lat="50.01249" lon="4.27998">
        <ele>280.8</ele>
        <time>2024-03-19T05:46:11Z</time>
      </trkpt>
      <trkpt lat="50.01246" lon="4.27986">
        <ele>280.8</ele>
        <time>2024-03-19T05:46:12Z</time>
      </trkpt>
      <trkpt lat="50.01244" lon="4.27975">
        <ele>280.6</ele>
        <time>2024-03-19T05:46:13Z</time>
      </trkpt>
      <trkpt lat="50.01242" lon="4.27964">
        <ele>280.8</ele>
        <time>2024-03-19T05:46:14Z</time>
      </trkpt>
      <trkpt lat="50.01239" lon="4.27953">
        <ele>280.8</ele>
        <time>2024-03-19T05:46:15Z</time>
      </trkpt>
      <trkpt lat="50.01237" lon="4.27942">
        <ele>280.8</ele>
        <time>2024-03-19T05:46:16Z</time>
      </trkpt>
      <trkpt lat="50.01234" lon="4.27931">
        <ele>281</ele>
        <time>2024-03-19T05:46:17Z</time>
      </trkpt>
      <trkpt lat="50.01232" lon="4.2792">
        <ele>281</ele>
        <time>2024-03-19T05:46:18Z</time>
      </trkpt>
      <trkpt lat="50.0123" lon="4.27909">
        <ele>281</ele>
        <time>2024-03-19T05:46:19Z</time>
      </trkpt>
      <trkpt lat="50.01227" lon="4.27898">
        <ele>281</ele>
        <time>2024-03-19T05:46:20Z</time>
      </trkpt>
      <trkpt lat="50.01225" lon="4.27888">
        <ele>281</ele>
        <time>2024-03-19T05:46:21Z</time>
      </trkpt>
      <trkpt lat="50.01223" lon="4.27877">
        <ele>281</ele>
        <time>2024-03-19T05:46:22Z</time>
      </trkpt>
      <trkpt lat="50.0122" lon="4.27867">
        <ele>281</ele>
        <time>2024-03-19T05:46:23Z</time>
      </trkpt>
      <trkpt lat="50.01218" lon="4.27856">
        <ele>281</ele>
        <time>2024-03-19T05:46:24Z</time>
      </trkpt>
      <trkpt lat="50.01216" lon="4.27845">
        <ele>281</ele>
        <time>2024-03-19T05:46:25Z</time>
      </trkpt>
      <trkpt lat="50.01213" lon="4.27835">
        <ele>281</ele>
        <time>2024-03-19T05:46:26Z</time>
      </trkpt>
      <trkpt lat="50.01211" lon="4.27824">
        <ele>281</ele>
        <time>2024-03-19T05:46:27Z</time>
      </trkpt>
      <trkpt lat="50.01209" lon="4.27813">
        <ele>281</ele>
        <time>2024-03-19T05:46:28Z</time>
      </trkpt>
      <trkpt lat="50.01207" lon="4.27803">
        <ele>281.2</ele>
        <time>2024-03-19T05:46:29Z</time>
      </trkpt>
      <trkpt lat="50.01204" lon="4.27792">
        <ele>281</ele>
        <time>2024-03-19T05:46:30Z</time>
      </trkpt>
      <trkpt lat="50.01202" lon="4.27782">
        <ele>281</ele>
        <time>2024-03-19T05:46:31Z</time>
      </trkpt>
      <trkpt lat="50.012" lon="4.27771">
        <ele>281</ele>
        <time>2024-03-19T05:46:32Z</time>
      </trkpt>
      <trkpt lat="50.01198" lon="4.2776">
        <ele>281</ele>
        <time>2024-03-19T05:46:33Z</time>
      </trkpt>
      <trkpt lat="50.01195" lon="4.2775">
        <ele>281</ele>
        <time>2024-03-19T05:46:34Z</time>
      </trkpt>
      <trkpt lat="50.01193" lon="4.27739">
        <ele>281</ele>
        <time>2024-03-19T05:46:35Z</time>
      </trkpt>
      <trkpt lat="50.01191" lon="4.27729">
        <ele>280.8</ele>
        <time>2024-03-19T05:46:36Z</time>
      </trkpt>
      <trkpt lat="50.01189" lon="4.27718">
        <ele>281</ele>
        <time>2024-03-19T05:46:37Z</time>
      </trkpt>
      <trkpt lat="50.01187" lon="4.27708">
        <ele>281</ele>
        <time>2024-03-19T05:46:38Z</time>
      </trkpt>
      <trkpt lat="50.01184" lon="4.27698">
        <ele>281</ele>
        <time>2024-03-19T05:46:39Z</time>
      </trkpt>
      <trkpt lat="50.01182" lon="4.27688">
        <ele>281</ele>
        <time>2024-03-19T05:46:40Z</time>
      </trkpt>
      <trkpt lat="50.0118" lon="4.27677">
        <ele>281</ele>
        <time>2024-03-19T05:46:41Z</time>
      </trkpt>
      <trkpt lat="50.01178" lon="4.27667">
        <ele>281</ele>
        <time>2024-03-19T05:46:42Z</time>
      </trkpt>
      <trkpt lat="50.01175" lon="4.27657">
        <ele>281.2</ele>
        <time>2024-03-19T05:46:43Z</time>
      </trkpt>
      <trkpt lat="50.01173" lon="4.27647">
        <ele>281.2</ele>
        <time>2024-03-19T05:46:44Z</time>
      </trkpt>
      <trkpt lat="50.01171" lon="4.27637">
        <ele>281.2</ele>
        <time>2024-03-19T05:46:45Z</time>
      </trkpt>
      <trkpt lat="50.01169" lon="4.27627">
        <ele>281.2</ele>
        <time>2024-03-19T05:46:46Z</time>
      </trkpt>
      <trkpt lat="50.01166" lon="4.27616">
        <ele>281</ele>
        <time>2024-03-19T05:46:47Z</time>
      </trkpt>
      <trkpt lat="50.01164" lon="4.27606">
        <ele>281</ele>
        <time>2024-03-19T05:46:48Z</time>
      </trkpt>
      <trkpt lat="50.01162" lon="4.27596">
        <ele>281</ele>
        <time>2024-03-19T05:46:49Z</time>
      </trkpt>
      <trkpt lat="50.0116" lon="4.27587">
        <ele>281</ele>
        <time>2024-03-19T05:46:50Z</time>
      </trkpt>
      <trkpt lat="50.01158" lon="4.27577">
        <ele>281.2</ele>
        <time>2024-03-19T05:46:51Z</time>
      </trkpt>
      <trkpt lat="50.01156" lon="4.27567">
        <ele>281.2</ele>
        <time>2024-03-19T05:46:52Z</time>
      </trkpt>
      <trkpt lat="50.01154" lon="4.27557">
        <ele>281.2</ele>
        <time>2024-03-19T05:46:53Z</time>
      </trkpt>
      <trkpt lat="50.01151" lon="4.27547">
        <ele>281.2</ele>
        <time>2024-03-19T05:46:54Z</time>
      </trkpt>
      <trkpt lat="50.01149" lon="4.27537">
        <ele>281.2</ele>
        <time>2024-03-19T05:46:55Z</time>
      </trkpt>
      <trkpt lat="50.01147" lon="4.27526">
        <ele>281.2</ele>
        <time>2024-03-19T05:46:56Z</time>
      </trkpt>
      <trkpt lat="50.01145" lon="4.27516">
        <ele>281.2</ele>
        <time>2024-03-19T05:46:57Z</time>
      </trkpt>
      <trkpt lat="50.01143" lon="4.27506">
        <ele>281.2</ele>
        <time>2024-03-19T05:46:58Z</time>
      </trkpt>
      <trkpt lat="50.01141" lon="4.27496">
        <ele>281.4</ele>
        <time>2024-03-19T05:46:59Z</time>
      </trkpt>
      <trkpt lat="50.01138" lon="4.27486">
        <ele>281.6</ele>
        <time>2024-03-19T05:47:00Z</time>
      </trkpt>
      <trkpt lat="50.01136" lon="4.27476">
        <ele>281.2</ele>
        <time>2024-03-19T05:47:01Z</time>
      </trkpt>
      <trkpt lat="50.01134" lon="4.27466">
        <ele>281.4</ele>
        <time>2024-03-19T05:47:02Z</time>
      </trkpt>
      <trkpt lat="50.01132" lon="4.27455">
        <ele>281.4</ele>
        <time>2024-03-19T05:47:03Z</time>
      </trkpt>
      <trkpt lat="50.0113" lon="4.27445">
        <ele>281.4</ele>
        <time>2024-03-19T05:47:04Z</time>
      </trkpt>
      <trkpt lat="50.01127" lon="4.27435">
        <ele>281.4</ele>
        <time>2024-03-19T05:47:05Z</time>
      </trkpt>
      <trkpt lat="50.01125" lon="4.27425">
        <ele>281.2</ele>
        <time>2024-03-19T05:47:06Z</time>
      </trkpt>
      <trkpt lat="50.01123" lon="4.27414">
        <ele>281.4</ele>
        <time>2024-03-19T05:47:07Z</time>
      </trkpt>
      <trkpt lat="50.0112" lon="4.27404">
        <ele>281.4</ele>
        <time>2024-03-19T05:47:08Z</time>
      </trkpt>
      <trkpt lat="50.01118" lon="4.27394">
        <ele>281.4</ele>
        <time>2024-03-19T05:47:09Z</time>
      </trkpt>
      <trkpt lat="50.01116" lon="4.27383">
        <ele>281.4</ele>
        <time>2024-03-19T05:47:10Z</time>
      </trkpt>
      <trkpt lat="50.01113" lon="4.27373">
        <ele>281.2</ele>
        <time>2024-03-19T05:47:11Z</time>
      </trkpt>
      <trkpt lat="50.01111" lon="4.27363">
        <ele>280.8</ele>
        <time>2024-03-19T05:47:12Z</time>
      </trkpt>
      <trkpt lat="50.01109" lon="4.27352">
        <ele>280.6</ele>
        <time>2024-03-19T05:47:13Z</time>
      </trkpt>
      <trkpt lat="50.01106" lon="4.27342">
        <ele>280.4</ele>
        <time>2024-03-19T05:47:14Z</time>
      </trkpt>
      <trkpt lat="50.01104" lon="4.27332">
        <ele>280.4</ele>
        <time>2024-03-19T05:47:15Z</time>
      </trkpt>
      <trkpt lat="50.01102" lon="4.27322">
        <ele>280.4</ele>
        <time>2024-03-19T05:47:16Z</time>
      </trkpt>
      <trkpt lat="50.011" lon="4.27312">
        <ele>280.4</ele>
        <time>2024-03-19T05:47:17Z</time>
      </trkpt>
      <trkpt lat="50.01098" lon="4.27303">
        <ele>280.4</ele>
        <time>2024-03-19T05:47:18Z</time>
      </trkpt>
      <trkpt lat="50.01096" lon="4.27294">
        <ele>280.4</ele>
        <time>2024-03-19T05:47:19Z</time>
      </trkpt>
      <trkpt lat="50.01094" lon="4.27285">
        <ele>280.4</ele>
        <time>2024-03-19T05:47:20Z</time>
      </trkpt>
      <trkpt lat="50.01092" lon="4.27276">
        <ele>280.4</ele>
        <time>2024-03-19T05:47:21Z</time>
      </trkpt>
      <trkpt lat="50.0109" lon="4.27267">
        <ele>280.8</ele>
        <time>2024-03-19T05:47:22Z</time>
      </trkpt>
      <trkpt lat="50.01088" lon="4.27259">
        <ele>281.2</ele>
        <time>2024-03-19T05:47:23Z</time>
      </trkpt>
      <trkpt lat="50.01086" lon="4.2725">
        <ele>281.2</ele>
        <time>2024-03-19T05:47:24Z</time>
      </trkpt>
      <trkpt lat="50.01085" lon="4.27242">
        <ele>281.2</ele>
        <time>2024-03-19T05:47:25Z</time>
      </trkpt>
      <trkpt lat="50.01083" lon="4.27234">
        <ele>281.2</ele>
        <time>2024-03-19T05:47:26Z</time>
      </trkpt>
      <trkpt lat="50.01082" lon="4.27226">
        <ele>281.6</ele>
        <time>2024-03-19T05:47:27Z</time>
      </trkpt>
      <trkpt lat="50.01081" lon="4.27217">
        <ele>281.6</ele>
        <time>2024-03-19T05:47:28Z</time>
      </trkpt>
      <trkpt lat="50.0108" lon="4.27209">
        <ele>282</ele>
        <time>2024-03-19T05:47:29Z</time>
      </trkpt>
      <trkpt lat="50.01079" lon="4.27201">
        <ele>282.4</ele>
        <time>2024-03-19T05:47:30Z</time>
      </trkpt>
      <trkpt lat="50.01078" lon="4.27193">
        <ele>282.8</ele>
        <time>2024-03-19T05:47:31Z</time>
      </trkpt>
      <trkpt lat="50.01078" lon="4.27184">
        <ele>283.2</ele>
        <time>2024-03-19T05:47:32Z</time>
      </trkpt>
      <trkpt lat="50.01077" lon="4.27176">
        <ele>283.6</ele>
        <time>2024-03-19T05:47:33Z</time>
      </trkpt>
      <trkpt lat="50.01077" lon="4.27167">
        <ele>283.4</ele>
        <time>2024-03-19T05:47:34Z</time>
      </trkpt>
      <trkpt lat="50.01077" lon="4.27159">
        <ele>283.8</ele>
        <time>2024-03-19T05:47:35Z</time>
      </trkpt>
      <trkpt lat="50.01077" lon="4.2715">
        <ele>284</ele>
        <time>2024-03-19T05:47:36Z</time>
      </trkpt>
      <trkpt lat="50.01076" lon="4.27142">
        <ele>284</ele>
        <time>2024-03-19T05:47:37Z</time>
      </trkpt>
      <trkpt lat="50.01077" lon="4.27134">
        <ele>284.4</ele>
        <time>2024-03-19T05:47:38Z</time>
      </trkpt>
      <trkpt lat="50.01077" lon="4.27126">
        <ele>284.4</ele>
        <time>2024-03-19T05:47:39Z</time>
      </trkpt>
      <trkpt lat="50.01077" lon="4.27118">
        <ele>284.8</ele>
        <time>2024-03-19T05:47:40Z</time>
      </trkpt>
      <trkpt lat="50.01078" lon="4.2711">
        <ele>285.2</ele>
        <time>2024-03-19T05:47:41Z</time>
      </trkpt>
      <trkpt lat="50.01078" lon="4.27103">
        <ele>285.4</ele>
        <time>2024-03-19T05:47:42Z</time>
      </trkpt>
      <trkpt lat="50.01079" lon="4.27095">
        <ele>285.8</ele>
        <time>2024-03-19T05:47:43Z</time>
      </trkpt>
      <trkpt lat="50.01081" lon="4.27087">
        <ele>286.2</ele>
        <time>2024-03-19T05:47:44Z</time>
      </trkpt>
      <trkpt lat="50.01082" lon="4.27078">
        <ele>286.6</ele>
        <time>2024-03-19T05:47:45Z</time>
      </trkpt>
      <trkpt lat="50.01083" lon="4.2707">
        <ele>286.8</ele>
        <time>2024-03-19T05:47:46Z</time>
      </trkpt>
      <trkpt lat="50.01085" lon="4.27062">
        <ele>287.2</ele>
        <time>2024-03-19T05:47:47Z</time>
      </trkpt>
      <trkpt lat="50.01086" lon="4.27054">
        <ele>287.6</ele>
        <time>2024-03-19T05:47:48Z</time>
      </trkpt>
      <trkpt lat="50.01088" lon="4.27046">
        <ele>288</ele>
        <time>2024-03-19T05:47:49Z</time>
      </trkpt>
      <trkpt lat="50.0109" lon="4.27037">
        <ele>288.2</ele>
        <time>2024-03-19T05:47:50Z</time>
      </trkpt>
      <trkpt lat="50.01093" lon="4.27029">
        <ele>288.4</ele>
        <time>2024-03-19T05:47:51Z</time>
      </trkpt>
      <trkpt lat="50.01095" lon="4.27021">
        <ele>288.4</ele>
        <time>2024-03-19T05:47:52Z</time>
      </trkpt>
      <trkpt lat="50.01098" lon="4.27012">
        <ele>288.6</ele>
        <time>2024-03-19T05:47:53Z</time>
      </trkpt>
      <trkpt lat="50.011" lon="4.27004">
        <ele>288.8</ele>
        <time>2024-03-19T05:47:54Z</time>
      </trkpt>
      <trkpt lat="50.01103" lon="4.26995">
        <ele>289</ele>
        <time>2024-03-19T05:47:55Z</time>
      </trkpt>
      <trkpt lat="50.01107" lon="4.26987">
        <ele>288.8</ele>
        <time>2024-03-19T05:47:56Z</time>
      </trkpt>
      <trkpt lat="50.0111" lon="4.26979">
        <ele>288.8</ele>
        <time>2024-03-19T05:47:57Z</time>
      </trkpt>
      <trkpt lat="50.01113" lon="4.2697">
        <ele>288.8</ele>
        <time>2024-03-19T05:47:58Z</time>
      </trkpt>
      <trkpt lat="50.01116" lon="4.26962">
        <ele>289</ele>
        <time>2024-03-19T05:47:59Z</time>
      </trkpt>
      <trkpt lat="50.01119" lon="4.26954">
        <ele>289</ele>
        <time>2024-03-19T05:48:00Z</time>
      </trkpt>
      <trkpt lat="50.01123" lon="4.26946">
        <ele>288.8</ele>
        <time>2024-03-19T05:48:01Z</time>
      </trkpt>
      <trkpt lat="50.01126" lon="4.26938">
        <ele>288.8</ele>
        <time>2024-03-19T05:48:02Z</time>
      </trkpt>
      <trkpt lat="50.01129" lon="4.2693">
        <ele>289</ele>
        <time>2024-03-19T05:48:03Z</time>
      </trkpt>
      <trkpt lat="50.01133" lon="4.26922">
        <ele>289</ele>
        <time>2024-03-19T05:48:04Z</time>
      </trkpt>
      <trkpt lat="50.01136" lon="4.26913">
        <ele>289</ele>
        <time>2024-03-19T05:48:05Z</time>
      </trkpt>
      <trkpt lat="50.01139" lon="4.26905">
        <ele>289</ele>
        <time>2024-03-19T05:48:06Z</time>
      </trkpt>
      <trkpt lat="50.01143" lon="4.26897">
        <ele>289</ele>
        <time>2024-03-19T05:48:07Z</time>
      </trkpt>
      <trkpt lat="50.01146" lon="4.26888">
        <ele>288.8</ele>
        <time>2024-03-19T05:48:08Z</time>
      </trkpt>
      <trkpt lat="50.0115" lon="4.26879">
        <ele>288.6</ele>
        <time>2024-03-19T05:48:09Z</time>
      </trkpt>
      <trkpt lat="50.01154" lon="4.2687">
        <ele>288.6</ele>
        <time>2024-03-19T05:48:10Z</time>
      </trkpt>
      <trkpt lat="50.01157" lon="4.26861">
        <ele>288.4</ele>
        <time>2024-03-19T05:48:11Z</time>
      </trkpt>
      <trkpt lat="50.01161" lon="4.26852">
        <ele>288.4</ele>
        <time>2024-03-19T05:48:12Z</time>
      </trkpt>
      <trkpt lat="50.01165" lon="4.26843">
        <ele>288</ele>
        <time>2024-03-19T05:48:13Z</time>
      </trkpt>
      <trkpt lat="50.01169" lon="4.26833">
        <ele>288.2</ele>
        <time>2024-03-19T05:48:14Z</time>
      </trkpt>
      <trkpt lat="50.01173" lon="4.26823">
        <ele>288</ele>
        <time>2024-03-19T05:48:15Z</time>
      </trkpt>
      <trkpt lat="50.01177" lon="4.26812">
        <ele>288</ele>
        <time>2024-03-19T05:48:16Z</time>
      </trkpt>
      <trkpt lat="50.01182" lon="4.26801">
        <ele>288</ele>
        <time>2024-03-19T05:48:17Z</time>
      </trkpt>
      <trkpt lat="50.01186" lon="4.2679">
        <ele>288</ele>
        <time>2024-03-19T05:48:18Z</time>
      </trkpt>
      <trkpt lat="50.0119" lon="4.26779">
        <ele>287.8</ele>
        <time>2024-03-19T05:48:19Z</time>
      </trkpt>
      <trkpt lat="50.01195" lon="4.26767">
        <ele>288</ele>
        <time>2024-03-19T05:48:20Z</time>
      </trkpt>
      <trkpt lat="50.012" lon="4.26755">
        <ele>287.8</ele>
        <time>2024-03-19T05:48:21Z</time>
      </trkpt>
      <trkpt lat="50.01205" lon="4.26743">
        <ele>287.8</ele>
        <time>2024-03-19T05:48:22Z</time>
      </trkpt>
      <trkpt lat="50.0121" lon="4.26731">
        <ele>287.8</ele>
        <time>2024-03-19T05:48:23Z</time>
      </trkpt>
      <trkpt lat="50.01216" lon="4.26718">
        <ele>287.6</ele>
        <time>2024-03-19T05:48:24Z</time>
      </trkpt>
      <trkpt lat="50.01221" lon="4.26706">
        <ele>287.4</ele>
        <time>2024-03-19T05:48:25Z</time>
      </trkpt>
      <trkpt lat="50.01226" lon="4.26692">
        <ele>286.6</ele>
        <time>2024-03-19T05:48:26Z</time>
      </trkpt>
      <trkpt lat="50.01232" lon="4.26679">
        <ele>286</ele>
        <time>2024-03-19T05:48:27Z</time>
      </trkpt>
      <trkpt lat="50.01237" lon="4.26666">
        <ele>286</ele>
        <time>2024-03-19T05:48:28Z</time>
      </trkpt>
      <trkpt lat="50.01242" lon="4.26652">
        <ele>285.6</ele>
        <time>2024-03-19T05:48:29Z</time>
      </trkpt>
      <trkpt lat="50.01248" lon="4.26638">
        <ele>285.2</ele>
        <time>2024-03-19T05:48:30Z</time>
      </trkpt>
      <trkpt lat="50.01254" lon="4.26625">
        <ele>285</ele>
        <time>2024-03-19T05:48:31Z</time>
      </trkpt>
      <trkpt lat="50.01259" lon="4.26611">
        <ele>284.8</ele>
        <time>2024-03-19T05:48:32Z</time>
      </trkpt>
      <trkpt lat="50.01265" lon="4.26596">
        <ele>284.6</ele>
        <time>2024-03-19T05:48:33Z</time>
      </trkpt>
      <trkpt lat="50.01271" lon="4.26582">
        <ele>283.6</ele>
        <time>2024-03-19T05:48:34Z</time>
      </trkpt>
      <trkpt lat="50.01276" lon="4.26566">
        <ele>282.4</ele>
        <time>2024-03-19T05:48:35Z</time>
      </trkpt>
      <trkpt lat="50.0128" lon="4.26551">
        <ele>281.2</ele>
        <time>2024-03-19T05:48:36Z</time>
      </trkpt>
      <trkpt lat="50.01285" lon="4.26534">
        <ele>280.8</ele>
        <time>2024-03-19T05:48:37Z</time>
      </trkpt>
      <trkpt lat="50.01288" lon="4.26518">
        <ele>280.2</ele>
        <time>2024-03-19T05:48:38Z</time>
      </trkpt>
      <trkpt lat="50.01292" lon="4.26501">
        <ele>279.6</ele>
        <time>2024-03-19T05:48:39Z</time>
      </trkpt>
      <trkpt lat="50.01294" lon="4.26483">
        <ele>279</ele>
        <time>2024-03-19T05:48:40Z</time>
      </trkpt>
      <trkpt lat="50.01297" lon="4.26465">
        <ele>278.2</ele>
        <time>2024-03-19T05:48:41Z</time>
      </trkpt>
      <trkpt lat="50.01299" lon="4.26448">
        <ele>277.8</ele>
        <time>2024-03-19T05:48:42Z</time>
      </trkpt>
      <trkpt lat="50.01301" lon="4.2643">
        <ele>277.4</ele>
        <time>2024-03-19T05:48:43Z</time>
      </trkpt>
      <trkpt lat="50.01303" lon="4.26413">
        <ele>277.4</ele>
        <time>2024-03-19T05:48:44Z</time>
      </trkpt>
      <trkpt lat="50.01306" lon="4.26396">
        <ele>276.8</ele>
        <time>2024-03-19T05:48:45Z</time>
      </trkpt>
      <trkpt lat="50.01308" lon="4.26379">
        <ele>276</ele>
        <time>2024-03-19T05:48:46Z</time>
      </trkpt>
      <trkpt lat="50.01311" lon="4.26363">
        <ele>275.6</ele>
        <time>2024-03-19T05:48:47Z</time>
      </trkpt>
      <trkpt lat="50.01314" lon="4.26348">
        <ele>275</ele>
        <time>2024-03-19T05:48:48Z</time>
      </trkpt>
      <trkpt lat="50.01317" lon="4.26334">
        <ele>274.6</ele>
        <time>2024-03-19T05:48:49Z</time>
      </trkpt>
      <trkpt lat="50.01321" lon="4.2632">
        <ele>273.6</ele>
        <time>2024-03-19T05:48:50Z</time>
      </trkpt>
      <trkpt lat="50.01324" lon="4.26306">
        <ele>273.2</ele>
        <time>2024-03-19T05:48:51Z</time>
      </trkpt>
      <trkpt lat="50.01328" lon="4.26293">
        <ele>273</ele>
        <time>2024-03-19T05:48:52Z</time>
      </trkpt>
      <trkpt lat="50.01333" lon="4.26281">
        <ele>272.8</ele>
        <time>2024-03-19T05:48:53Z</time>
      </trkpt>
      <trkpt lat="50.01337" lon="4.26269">
        <ele>272.6</ele>
        <time>2024-03-19T05:48:54Z</time>
      </trkpt>
      <trkpt lat="50.01341" lon="4.26258">
        <ele>272.8</ele>
        <time>2024-03-19T05:48:55Z</time>
      </trkpt>
      <trkpt lat="50.01345" lon="4.26246">
        <ele>272.6</ele>
        <time>2024-03-19T05:48:56Z</time>
      </trkpt>
      <trkpt lat="50.01349" lon="4.26235">
        <ele>272.6</ele>
        <time>2024-03-19T05:48:57Z</time>
      </trkpt>
      <trkpt lat="50.01354" lon="4.26225">
        <ele>272.6</ele>
        <time>2024-03-19T05:48:58Z</time>
      </trkpt>
      <trkpt lat="50.01357" lon="4.26215">
        <ele>272.6</ele>
        <time>2024-03-19T05:48:59Z</time>
      </trkpt>
      <trkpt lat="50.01361" lon="4.26205">
        <ele>272.8</ele>
        <time>2024-03-19T05:49:00Z</time>
      </trkpt>
      <trkpt lat="50.01365" lon="4.26195">
        <ele>272.6</ele>
        <time>2024-03-19T05:49:01Z</time>
      </trkpt>
      <trkpt lat="50.01369" lon="4.26185">
        <ele>272.6</ele>
        <time>2024-03-19T05:49:02Z</time>
      </trkpt>
      <trkpt lat="50.01372" lon="4.26176">
        <ele>272.8</ele>
        <time>2024-03-19T05:49:03Z</time>
      </trkpt>
      <trkpt lat="50.01376" lon="4.26166">
        <ele>273</ele>
        <time>2024-03-19T05:49:04Z</time>
      </trkpt>
      <trkpt lat="50.01379" lon="4.26157">
        <ele>273</ele>
        <time>2024-03-19T05:49:05Z</time>
      </trkpt>
      <trkpt lat="50.01383" lon="4.26147">
        <ele>273.2</ele>
        <time>2024-03-19T05:49:06Z</time>
      </trkpt>
      <trkpt lat="50.01386" lon="4.26138">
        <ele>273.2</ele>
        <time>2024-03-19T05:49:07Z</time>
      </trkpt>
      <trkpt lat="50.01389" lon="4.26129">
        <ele>273.6</ele>
        <time>2024-03-19T05:49:08Z</time>
      </trkpt>
      <trkpt lat="50.01393" lon="4.2612">
        <ele>273.8</ele>
        <time>2024-03-19T05:49:09Z</time>
      </trkpt>
      <trkpt lat="50.01396" lon="4.26111">
        <ele>274.2</ele>
        <time>2024-03-19T05:49:10Z</time>
      </trkpt>
      <trkpt lat="50.01399" lon="4.26102">
        <ele>274.8</ele>
        <time>2024-03-19T05:49:11Z</time>
      </trkpt>
      <trkpt lat="50.01403" lon="4.26092">
        <ele>275</ele>
        <time>2024-03-19T05:49:12Z</time>
      </trkpt>
      <trkpt lat="50.01406" lon="4.26083">
        <ele>275.2</ele>
        <time>2024-03-19T05:49:13Z</time>
      </trkpt>
      <trkpt lat="50.0141" lon="4.26074">
        <ele>275.6</ele>
        <time>2024-03-19T05:49:14Z</time>
      </trkpt>
      <trkpt lat="50.01414" lon="4.26064">
        <ele>275.8</ele>
        <time>2024-03-19T05:49:15Z</time>
      </trkpt>
      <trkpt lat="50.01417" lon="4.26055">
        <ele>275.6</ele>
        <time>2024-03-19T05:49:16Z</time>
      </trkpt>
      <trkpt lat="50.01421" lon="4.26045">
        <ele>275.8</ele>
        <time>2024-03-19T05:49:17Z</time>
      </trkpt>
      <trkpt lat="50.01425" lon="4.26035">
        <ele>275.8</ele>
        <time>2024-03-19T05:49:18Z</time>
      </trkpt>
      <trkpt lat="50.01428" lon="4.26025">
        <ele>275.8</ele>
        <time>2024-03-19T05:49:19Z</time>
      </trkpt>
      <trkpt lat="50.01432" lon="4.26014">
        <ele>275.8</ele>
        <time>2024-03-19T05:49:20Z</time>
      </trkpt>
      <trkpt lat="50.01436" lon="4.26004">
        <ele>275.8</ele>
        <time>2024-03-19T05:49:21Z</time>
      </trkpt>
      <trkpt lat="50.01439" lon="4.25993">
        <ele>275.8</ele>
        <time>2024-03-19T05:49:22Z</time>
      </trkpt>
      <trkpt lat="50.01442" lon="4.25981">
        <ele>275.8</ele>
        <time>2024-03-19T05:49:23Z</time>
      </trkpt>
      <trkpt lat="50.01444" lon="4.2597">
        <ele>275.8</ele>
        <time>2024-03-19T05:49:24Z</time>
      </trkpt>
      <trkpt lat="50.01447" lon="4.25958">
        <ele>275.8</ele>
        <time>2024-03-19T05:49:25Z</time>
      </trkpt>
      <trkpt lat="50.01448" lon="4.25945">
        <ele>275.6</ele>
        <time>2024-03-19T05:49:26Z</time>
      </trkpt>
      <trkpt lat="50.0145" lon="4.25933">
        <ele>275.4</ele>
        <time>2024-03-19T05:49:27Z</time>
      </trkpt>
      <trkpt lat="50.01451" lon="4.2592">
        <ele>275.2</ele>
        <time>2024-03-19T05:49:28Z</time>
      </trkpt>
      <trkpt lat="50.01452" lon="4.25907">
        <ele>275</ele>
        <time>2024-03-19T05:49:29Z</time>
      </trkpt>
      <trkpt lat="50.01452" lon="4.25894">
        <ele>274.8</ele>
        <time>2024-03-19T05:49:30Z</time>
      </trkpt>
      <trkpt lat="50.01453" lon="4.25881">
        <ele>274.8</ele>
        <time>2024-03-19T05:49:31Z</time>
      </trkpt>
      <trkpt lat="50.01453" lon="4.25868">
        <ele>274.4</ele>
        <time>2024-03-19T05:49:32Z</time>
      </trkpt>
      <trkpt lat="50.01454" lon="4.25855">
        <ele>274.4</ele>
        <time>2024-03-19T05:49:33Z</time>
      </trkpt>
      <trkpt lat="50.01454" lon="4.25841">
        <ele>274</ele>
        <time>2024-03-19T05:49:34Z</time>
      </trkpt>
      <trkpt lat="50.01455" lon="4.25828">
        <ele>273.8</ele>
        <time>2024-03-19T05:49:35Z</time>
      </trkpt>
      <trkpt lat="50.01456" lon="4.25815">
        <ele>273.4</ele>
        <time>2024-03-19T05:49:36Z</time>
      </trkpt>
      <trkpt lat="50.01458" lon="4.25802">
        <ele>273</ele>
        <time>2024-03-19T05:49:37Z</time>
      </trkpt>
      <trkpt lat="50.0146" lon="4.25788">
        <ele>272.6</ele>
        <time>2024-03-19T05:49:38Z</time>
      </trkpt>
      <trkpt lat="50.01463" lon="4.25775">
        <ele>272.4</ele>
        <time>2024-03-19T05:49:39Z</time>
      </trkpt>
      <trkpt lat="50.01466" lon="4.25762">
        <ele>272.2</ele>
        <time>2024-03-19T05:49:40Z</time>
      </trkpt>
      <trkpt lat="50.0147" lon="4.2575">
        <ele>272</ele>
        <time>2024-03-19T05:49:41Z</time>
      </trkpt>
      <trkpt lat="50.01474" lon="4.25738">
        <ele>272</ele>
        <time>2024-03-19T05:49:42Z</time>
      </trkpt>
      <trkpt lat="50.01479" lon="4.25727">
        <ele>271.6</ele>
        <time>2024-03-19T05:49:43Z</time>
      </trkpt>
      <trkpt lat="50.01484" lon="4.25716">
        <ele>271</ele>
        <time>2024-03-19T05:49:44Z</time>
      </trkpt>
      <trkpt lat="50.01488" lon="4.25706">
        <ele>270.8</ele>
        <time>2024-03-19T05:49:45Z</time>
      </trkpt>
      <trkpt lat="50.01493" lon="4.25697">
        <ele>270.8</ele>
        <time>2024-03-19T05:49:46Z</time>
      </trkpt>
      <trkpt lat="50.01497" lon="4.25688">
        <ele>270.6</ele>
        <time>2024-03-19T05:49:47Z</time>
      </trkpt>
      <trkpt lat="50.01501" lon="4.2568">
        <ele>270.4</ele>
        <time>2024-03-19T05:49:48Z</time>
      </trkpt>
      <trkpt lat="50.01505" lon="4.25672">
        <ele>270.4</ele>
        <time>2024-03-19T05:49:49Z</time>
      </trkpt>
      <trkpt lat="50.01509" lon="4.25665">
        <ele>270.6</ele>
        <time>2024-03-19T05:49:50Z</time>
      </trkpt>
      <trkpt lat="50.01512" lon="4.25658">
        <ele>270.6</ele>
        <time>2024-03-19T05:49:51Z</time>
      </trkpt>
      <trkpt lat="50.01515" lon="4.25651">
        <ele>270.6</ele>
        <time>2024-03-19T05:49:52Z</time>
      </trkpt>
      <trkpt lat="50.01518" lon="4.25645">
        <ele>270.6</ele>
        <time>2024-03-19T05:49:53Z</time>
      </trkpt>
      <trkpt lat="50.01521" lon="4.2564">
        <ele>270.6</ele>
        <time>2024-03-19T05:49:54Z</time>
      </trkpt>
      <trkpt lat="50.01524" lon="4.25634">
        <ele>270.6</ele>
        <time>2024-03-19T05:49:55Z</time>
      </trkpt>
      <trkpt lat="50.01527" lon="4.2563">
        <ele>270.6</ele>
        <time>2024-03-19T05:49:56Z</time>
      </trkpt>
      <trkpt lat="50.01531" lon="4.25627">
        <ele>271</ele>
        <time>2024-03-19T05:49:57Z</time>
      </trkpt>
      <trkpt lat="50.01535" lon="4.25625">
        <ele>271.2</ele>
        <time>2024-03-19T05:49:58Z</time>
      </trkpt>
      <trkpt lat="50.0154" lon="4.25622">
        <ele>272</ele>
        <time>2024-03-19T05:49:59Z</time>
      </trkpt>
      <trkpt lat="50.01544" lon="4.2562">
        <ele>272.6</ele>
        <time>2024-03-19T05:50:00Z</time>
      </trkpt>
      <trkpt lat="50.01549" lon="4.25617">
        <ele>273.2</ele>
        <time>2024-03-19T05:50:01Z</time>
      </trkpt>
      <trkpt lat="50.01553" lon="4.25613">
        <ele>273.8</ele>
        <time>2024-03-19T05:50:02Z</time>
      </trkpt>
      <trkpt lat="50.01556" lon="4.25608">
        <ele>274</ele>
        <time>2024-03-19T05:50:03Z</time>
      </trkpt>
      <trkpt lat="50.01559" lon="4.25602">
        <ele>274.6</ele>
        <time>2024-03-19T05:50:04Z</time>
      </trkpt>
      <trkpt lat="50.01562" lon="4.25596">
        <ele>274.6</ele>
        <time>2024-03-19T05:50:05Z</time>
      </trkpt>
      <trkpt lat="50.01564" lon="4.2559">
        <ele>275</ele>
        <time>2024-03-19T05:50:06Z</time>
      </trkpt>
      <trkpt lat="50.01566" lon="4.25583">
        <ele>275.4</ele>
        <time>2024-03-19T05:50:07Z</time>
      </trkpt>
      <trkpt lat="50.01568" lon="4.25577">
        <ele>275.6</ele>
        <time>2024-03-19T05:50:08Z</time>
      </trkpt>
      <trkpt lat="50.0157" lon="4.2557">
        <ele>276</ele>
        <time>2024-03-19T05:50:09Z</time>
      </trkpt>
      <trkpt lat="50.01571" lon="4.25564">
        <ele>276.2</ele>
        <time>2024-03-19T05:50:10Z</time>
      </trkpt>
      <trkpt lat="50.01573" lon="4.25557">
        <ele>276.8</ele>
        <time>2024-03-19T05:50:11Z</time>
      </trkpt>
      <trkpt lat="50.01575" lon="4.2555">
        <ele>277.6</ele>
        <time>2024-03-19T05:50:12Z</time>
      </trkpt>
      <trkpt lat="50.01576" lon="4.25543">
        <ele>278</ele>
        <time>2024-03-19T05:50:13Z</time>
      </trkpt>
      <trkpt lat="50.01578" lon="4.25537">
        <ele>278.4</ele>
        <time>2024-03-19T05:50:14Z</time>
      </trkpt>
      <trkpt lat="50.01579" lon="4.2553">
        <ele>278.6</ele>
        <time>2024-03-19T05:50:15Z</time>
      </trkpt>
      <trkpt lat="50.01581" lon="4.25523">
        <ele>278.8</ele>
        <time>2024-03-19T05:50:16Z</time>
      </trkpt>
      <trkpt lat="50.01582" lon="4.25516">
        <ele>279.2</ele>
        <time>2024-03-19T05:50:17Z</time>
      </trkpt>
      <trkpt lat="50.01584" lon="4.25509">
        <ele>279.6</ele>
        <time>2024-03-19T05:50:18Z</time>
      </trkpt>
      <trkpt lat="50.01585" lon="4.25502">
        <ele>279.6</ele>
        <time>2024-03-19T05:50:19Z</time>
      </trkpt>
      <trkpt lat="50.01586" lon="4.25495">
        <ele>280</ele>
        <time>2024-03-19T05:50:20Z</time>
      </trkpt>
      <trkpt lat="50.01586" lon="4.25488">
        <ele>280.2</ele>
        <time>2024-03-19T05:50:21Z</time>
      </trkpt>
      <trkpt lat="50.01586" lon="4.2548">
        <ele>280.2</ele>
        <time>2024-03-19T05:50:22Z</time>
      </trkpt>
      <trkpt lat="50.01584" lon="4.25473">
        <ele>280.4</ele>
        <time>2024-03-19T05:50:23Z</time>
      </trkpt>
      <trkpt lat="50.01582" lon="4.25465">
        <ele>280.4</ele>
        <time>2024-03-19T05:50:24Z</time>
      </trkpt>
      <trkpt lat="50.01579" lon="4.25459">
        <ele>280.8</ele>
        <time>2024-03-19T05:50:25Z</time>
      </trkpt>
      <trkpt lat="50.01575" lon="4.25453">
        <ele>280.8</ele>
        <time>2024-03-19T05:50:26Z</time>
      </trkpt>
      <trkpt lat="50.01571" lon="4.25447">
        <ele>281</ele>
        <time>2024-03-19T05:50:27Z</time>
      </trkpt>
      <trkpt lat="50.01568" lon="4.25442">
        <ele>281</ele>
        <time>2024-03-19T05:50:28Z</time>
      </trkpt>
      <trkpt lat="50.01564" lon="4.25436">
        <ele>281.2</ele>
        <time>2024-03-19T05:50:29Z</time>
      </trkpt>
      <trkpt lat="50.0156" lon="4.2543">
        <ele>281</ele>
        <time>2024-03-19T05:50:30Z</time>
      </trkpt>
      <trkpt lat="50.01558" lon="4.25423">
        <ele>281.2</ele>
        <time>2024-03-19T05:50:31Z</time>
      </trkpt>
      <trkpt lat="50.01557" lon="4.25415">
        <ele>281.4</ele>
        <time>2024-03-19T05:50:32Z</time>
      </trkpt>
      <trkpt lat="50.01557" lon="4.25406">
        <ele>281.4</ele>
        <time>2024-03-19T05:50:33Z</time>
      </trkpt>
      <trkpt lat="50.01559" lon="4.25398">
        <ele>281.4</ele>
        <time>2024-03-19T05:50:34Z</time>
      </trkpt>
      <trkpt lat="50.01561" lon="4.2539">
        <ele>281.6</ele>
        <time>2024-03-19T05:50:35Z</time>
      </trkpt>
      <trkpt lat="50.01563" lon="4.25382">
        <ele>281.6</ele>
        <time>2024-03-19T05:50:36Z</time>
      </trkpt>
      <trkpt lat="50.01564" lon="4.25373">
        <ele>281.8</ele>
        <time>2024-03-19T05:50:37Z</time>
      </trkpt>
      <trkpt lat="50.01566" lon="4.25365">
        <ele>282</ele>
        <time>2024-03-19T05:50:38Z</time>
      </trkpt>
      <trkpt lat="50.01568" lon="4.25357">
        <ele>282</ele>
        <time>2024-03-19T05:50:39Z</time>
      </trkpt>
      <trkpt lat="50.0157" lon="4.25349">
        <ele>282.2</ele>
        <time>2024-03-19T05:50:40Z</time>
      </trkpt>
      <trkpt lat="50.01571" lon="4.25341">
        <ele>282.2</ele>
        <time>2024-03-19T05:50:41Z</time>
      </trkpt>
      <trkpt lat="50.01573" lon="4.25333">
        <ele>282.2</ele>
        <time>2024-03-19T05:50:42Z</time>
      </trkpt>
      <trkpt lat="50.01575" lon="4.25325">
        <ele>282.4</ele>
        <time>2024-03-19T05:50:43Z</time>
      </trkpt>
      <trkpt lat="50.01577" lon="4.25318">
        <ele>282.4</ele>
        <time>2024-03-19T05:50:44Z</time>
      </trkpt>
      <trkpt lat="50.01579" lon="4.2531">
        <ele>282.6</ele>
        <time>2024-03-19T05:50:45Z</time>
      </trkpt>
      <trkpt lat="50.01581" lon="4.25302">
        <ele>282.8</ele>
        <time>2024-03-19T05:50:46Z</time>
      </trkpt>
      <trkpt lat="50.01583" lon="4.25295">
        <ele>283.2</ele>
        <time>2024-03-19T05:50:47Z</time>
      </trkpt>
      <trkpt lat="50.01585" lon="4.25287">
        <ele>283</ele>
        <time>2024-03-19T05:50:48Z</time>
      </trkpt>
      <trkpt lat="50.01586" lon="4.25279">
        <ele>283.2</ele>
        <time>2024-03-19T05:50:49Z</time>
      </trkpt>
      <trkpt lat="50.01588" lon="4.25271">
        <ele>283.4</ele>
        <time>2024-03-19T05:50:50Z</time>
      </trkpt>
      <trkpt lat="50.0159" lon="4.25264">
        <ele>283.4</ele>
        <time>2024-03-19T05:50:51Z</time>
      </trkpt>
      <trkpt lat="50.01591" lon="4.25256">
        <ele>283.6</ele>
        <time>2024-03-19T05:50:52Z</time>
      </trkpt>
      <trkpt lat="50.01593" lon="4.25248">
        <ele>284</ele>
        <time>2024-03-19T05:50:53Z</time>
      </trkpt>
      <trkpt lat="50.01595" lon="4.2524">
        <ele>284.6</ele>
        <time>2024-03-19T05:50:54Z</time>
      </trkpt>
      <trkpt lat="50.01596" lon="4.25233">
        <ele>285</ele>
        <time>2024-03-19T05:50:55Z</time>
      </trkpt>
      <trkpt lat="50.01598" lon="4.25225">
        <ele>285</ele>
        <time>2024-03-19T05:50:56Z</time>
      </trkpt>
      <trkpt lat="50.016" lon="4.25217">
        <ele>285.2</ele>
        <time>2024-03-19T05:50:57Z</time>
      </trkpt>
      <trkpt lat="50.01601" lon="4.2521">
        <ele>285.4</ele>
        <time>2024-03-19T05:50:58Z</time>
      </trkpt>
      <trkpt lat="50.01603" lon="4.25202">
        <ele>285.6</ele>
        <time>2024-03-19T05:50:59Z</time>
      </trkpt>
      <trkpt lat="50.01605" lon="4.25195">
        <ele>285.8</ele>
        <time>2024-03-19T05:51:00Z</time>
      </trkpt>
      <trkpt lat="50.01606" lon="4.25187">
        <ele>286.2</ele>
        <time>2024-03-19T05:51:01Z</time>
      </trkpt>
      <trkpt lat="50.01608" lon="4.25179">
        <ele>286.4</ele>
        <time>2024-03-19T05:51:02Z</time>
      </trkpt>
      <trkpt lat="50.0161" lon="4.25172">
        <ele>286.4</ele>
        <time>2024-03-19T05:51:03Z</time>
      </trkpt>
      <trkpt lat="50.01612" lon="4.25164">
        <ele>286.4</ele>
        <time>2024-03-19T05:51:04Z</time>
      </trkpt>
      <trkpt lat="50.01613" lon="4.25157">
        <ele>286.4</ele>
        <time>2024-03-19T05:51:05Z</time>
      </trkpt>
      <trkpt lat="50.01615" lon="4.25149">
        <ele>286.4</ele>
        <time>2024-03-19T05:51:06Z</time>
      </trkpt>
      <trkpt lat="50.01617" lon="4.25142">
        <ele>286.6</ele>
        <time>2024-03-19T05:51:07Z</time>
      </trkpt>
      <trkpt lat="50.01618" lon="4.25134">
        <ele>286.8</ele>
        <time>2024-03-19T05:51:08Z</time>
      </trkpt>
      <trkpt lat="50.0162" lon="4.25126">
        <ele>287</ele>
        <time>2024-03-19T05:51:09Z</time>
      </trkpt>
      <trkpt lat="50.01622" lon="4.25119">
        <ele>287</ele>
        <time>2024-03-19T05:51:10Z</time>
      </trkpt>
      <trkpt lat="50.01623" lon="4.25111">
        <ele>287.2</ele>
        <time>2024-03-19T05:51:11Z</time>
      </trkpt>
      <trkpt lat="50.01625" lon="4.25104">
        <ele>287.2</ele>
        <time>2024-03-19T05:51:12Z</time>
      </trkpt>
      <trkpt lat="50.01627" lon="4.25096">
        <ele>287.2</ele>
        <time>2024-03-19T05:51:13Z</time>
      </trkpt>
      <trkpt lat="50.01628" lon="4.25088">
        <ele>287.2</ele>
        <time>2024-03-19T05:51:14Z</time>
      </trkpt>
      <trkpt lat="50.0163" lon="4.2508">
        <ele>287.2</ele>
        <time>2024-03-19T05:51:15Z</time>
      </trkpt>
      <trkpt lat="50.01632" lon="4.25073">
        <ele>287.2</ele>
        <time>2024-03-19T05:51:16Z</time>
      </trkpt>
      <trkpt lat="50.01634" lon="4.25065">
        <ele>287.2</ele>
        <time>2024-03-19T05:51:17Z</time>
      </trkpt>
      <trkpt lat="50.01636" lon="4.25057">
        <ele>287.4</ele>
        <time>2024-03-19T05:51:18Z</time>
      </trkpt>
      <trkpt lat="50.01637" lon="4.25048">
        <ele>287.4</ele>
        <time>2024-03-19T05:51:19Z</time>
      </trkpt>
      <trkpt lat="50.01639" lon="4.2504">
        <ele>287.6</ele>
        <time>2024-03-19T05:51:20Z</time>
      </trkpt>
      <trkpt lat="50.01641" lon="4.25032">
        <ele>287.6</ele>
        <time>2024-03-19T05:51:21Z</time>
      </trkpt>
      <trkpt lat="50.01643" lon="4.25024">
        <ele>287.8</ele>
        <time>2024-03-19T05:51:22Z</time>
      </trkpt>
      <trkpt lat="50.01645" lon="4.25016">
        <ele>288</ele>
        <time>2024-03-19T05:51:23Z</time>
      </trkpt>
      <trkpt lat="50.01647" lon="4.25008">
        <ele>288</ele>
        <time>2024-03-19T05:51:24Z</time>
      </trkpt>
      <trkpt lat="50.01648" lon="4.25">
        <ele>288.2</ele>
        <time>2024-03-19T05:51:25Z</time>
      </trkpt>
      <trkpt lat="50.0165" lon="4.24992">
        <ele>288.2</ele>
        <time>2024-03-19T05:51:26Z</time>
      </trkpt>
      <trkpt lat="50.01652" lon="4.24984">
        <ele>288.2</ele>
        <time>2024-03-19T05:51:27Z</time>
      </trkpt>
      <trkpt lat="50.01654" lon="4.24976">
        <ele>288.2</ele>
        <time>2024-03-19T05:51:28Z</time>
      </trkpt>
      <trkpt lat="50.01657" lon="4.24969">
        <ele>288.4</ele>
        <time>2024-03-19T05:51:29Z</time>
      </trkpt>
      <trkpt lat="50.01659" lon="4.24961">
        <ele>288.6</ele>
        <time>2024-03-19T05:51:30Z</time>
      </trkpt>
      <trkpt lat="50.01662" lon="4.24954">
        <ele>288.8</ele>
        <time>2024-03-19T05:51:31Z</time>
      </trkpt>
      <trkpt lat="50.01664" lon="4.24946">
        <ele>289</ele>
        <time>2024-03-19T05:51:32Z</time>
      </trkpt>
      <trkpt lat="50.01667" lon="4.24939">
        <ele>289.2</ele>
        <time>2024-03-19T05:51:33Z</time>
      </trkpt>
      <trkpt lat="50.0167" lon="4.24932">
        <ele>289.2</ele>
        <time>2024-03-19T05:51:34Z</time>
      </trkpt>
      <trkpt lat="50.01674" lon="4.24925">
        <ele>289.4</ele>
        <time>2024-03-19T05:51:35Z</time>
      </trkpt>
      <trkpt lat="50.01677" lon="4.24918">
        <ele>289.4</ele>
        <time>2024-03-19T05:51:36Z</time>
      </trkpt>
      <trkpt lat="50.0168" lon="4.24912">
        <ele>289.4</ele>
        <time>2024-03-19T05:51:37Z</time>
      </trkpt>
      <trkpt lat="50.01684" lon="4.24906">
        <ele>289.6</ele>
        <time>2024-03-19T05:51:38Z</time>
      </trkpt>
      <trkpt lat="50.01688" lon="4.24899">
        <ele>289.6</ele>
        <time>2024-03-19T05:51:39Z</time>
      </trkpt>
      <trkpt lat="50.01692" lon="4.24893">
        <ele>289.8</ele>
        <time>2024-03-19T05:51:40Z</time>
      </trkpt>
      <trkpt lat="50.01696" lon="4.24887">
        <ele>290.2</ele>
        <time>2024-03-19T05:51:41Z</time>
      </trkpt>
      <trkpt lat="50.017" lon="4.24881">
        <ele>290.4</ele>
        <time>2024-03-19T05:51:42Z</time>
      </trkpt>
      <trkpt lat="50.01704" lon="4.24876">
        <ele>290.4</ele>
        <time>2024-03-19T05:51:43Z</time>
      </trkpt>
      <trkpt lat="50.01708" lon="4.2487">
        <ele>290.4</ele>
        <time>2024-03-19T05:51:44Z</time>
      </trkpt>
      <trkpt lat="50.01713" lon="4.24866">
        <ele>290.4</ele>
        <time>2024-03-19T05:51:45Z</time>
      </trkpt>
      <trkpt lat="50.01718" lon="4.24861">
        <ele>290.8</ele>
        <time>2024-03-19T05:51:46Z</time>
      </trkpt>
      <trkpt lat="50.01723" lon="4.24856">
        <ele>290.8</ele>
        <time>2024-03-19T05:51:47Z</time>
      </trkpt>
      <trkpt lat="50.01728" lon="4.24851">
        <ele>290.8</ele>
        <time>2024-03-19T05:51:48Z</time>
      </trkpt>
      <trkpt lat="50.01733" lon="4.24845">
        <ele>291</ele>
        <time>2024-03-19T05:51:49Z</time>
      </trkpt>
      <trkpt lat="50.01738" lon="4.2484">
        <ele>290.8</ele>
        <time>2024-03-19T05:51:50Z</time>
      </trkpt>
      <trkpt lat="50.01743" lon="4.24834">
        <ele>290.8</ele>
        <time>2024-03-19T05:51:51Z</time>
      </trkpt>
      <trkpt lat="50.01748" lon="4.24828">
        <ele>291</ele>
        <time>2024-03-19T05:51:52Z</time>
      </trkpt>
      <trkpt lat="50.01753" lon="4.24823">
        <ele>290.8</ele>
        <time>2024-03-19T05:51:53Z</time>
      </trkpt>
      <trkpt lat="50.01759" lon="4.24817">
        <ele>291</ele>
        <time>2024-03-19T05:51:54Z</time>
      </trkpt>
      <trkpt lat="50.01764" lon="4.24811">
        <ele>291.2</ele>
        <time>2024-03-19T05:51:55Z</time>
      </trkpt>
      <trkpt lat="50.01769" lon="4.24805">
        <ele>291.2</ele>
        <time>2024-03-19T05:51:56Z</time>
      </trkpt>
      <trkpt lat="50.01775" lon="4.24798">
        <ele>291</ele>
        <time>2024-03-19T05:51:57Z</time>
      </trkpt>
      <trkpt lat="50.0178" lon="4.24792">
        <ele>291.2</ele>
        <time>2024-03-19T05:51:58Z</time>
      </trkpt>
      <trkpt lat="50.01786" lon="4.24785">
        <ele>291.2</ele>
        <time>2024-03-19T05:51:59Z</time>
      </trkpt>
      <trkpt lat="50.01791" lon="4.24778">
        <ele>291.2</ele>
        <time>2024-03-19T05:52:00Z</time>
      </trkpt>
      <trkpt lat="50.01797" lon="4.2477">
        <ele>291</ele>
        <time>2024-03-19T05:52:01Z</time>
      </trkpt>
      <trkpt lat="50.01802" lon="4.24763">
        <ele>290.8</ele>
        <time>2024-03-19T05:52:02Z</time>
      </trkpt>
      <trkpt lat="50.01807" lon="4.24755">
        <ele>290.8</ele>
        <time>2024-03-19T05:52:03Z</time>
      </trkpt>
      <trkpt lat="50.01812" lon="4.24746">
        <ele>290.8</ele>
        <time>2024-03-19T05:52:04Z</time>
      </trkpt>
      <trkpt lat="50.01818" lon="4.24738">
        <ele>290.8</ele>
        <time>2024-03-19T05:52:05Z</time>
      </trkpt>
      <trkpt lat="50.01823" lon="4.24729">
        <ele>290.8</ele>
        <time>2024-03-19T05:52:06Z</time>
      </trkpt>
      <trkpt lat="50.01828" lon="4.2472">
        <ele>290.6</ele>
        <time>2024-03-19T05:52:07Z</time>
      </trkpt>
      <trkpt lat="50.01832" lon="4.24711">
        <ele>290.6</ele>
        <time>2024-03-19T05:52:08Z</time>
      </trkpt>
      <trkpt lat="50.01837" lon="4.24701">
        <ele>290.4</ele>
        <time>2024-03-19T05:52:09Z</time>
      </trkpt>
      <trkpt lat="50.01841" lon="4.2469">
        <ele>290.2</ele>
        <time>2024-03-19T05:52:10Z</time>
      </trkpt>
      <trkpt lat="50.01845" lon="4.24679">
        <ele>290</ele>
        <time>2024-03-19T05:52:11Z</time>
      </trkpt>
      <trkpt lat="50.01848" lon="4.24668">
        <ele>289.6</ele>
        <time>2024-03-19T05:52:12Z</time>
      </trkpt>
      <trkpt lat="50.01851" lon="4.24657">
        <ele>289.2</ele>
        <time>2024-03-19T05:52:13Z</time>
      </trkpt>
      <trkpt lat="50.01853" lon="4.24645">
        <ele>289.2</ele>
        <time>2024-03-19T05:52:14Z</time>
      </trkpt>
      <trkpt lat="50.01855" lon="4.24633">
        <ele>288.8</ele>
        <time>2024-03-19T05:52:15Z</time>
      </trkpt>
      <trkpt lat="50.01857" lon="4.2462">
        <ele>288.8</ele>
        <time>2024-03-19T05:52:16Z</time>
      </trkpt>
      <trkpt lat="50.01858" lon="4.24608">
        <ele>288.6</ele>
        <time>2024-03-19T05:52:17Z</time>
      </trkpt>
      <trkpt lat="50.01859" lon="4.24596">
        <ele>287.6</ele>
        <time>2024-03-19T05:52:18Z</time>
      </trkpt>
      <trkpt lat="50.01859" lon="4.24584">
        <ele>287</ele>
        <time>2024-03-19T05:52:19Z</time>
      </trkpt>
      <trkpt lat="50.01859" lon="4.24572">
        <ele>287</ele>
        <time>2024-03-19T05:52:20Z</time>
      </trkpt>
      <trkpt lat="50.01859" lon="4.24559">
        <ele>286.6</ele>
        <time>2024-03-19T05:52:21Z</time>
      </trkpt>
      <trkpt lat="50.01859" lon="4.24547">
        <ele>286.2</ele>
        <time>2024-03-19T05:52:22Z</time>
      </trkpt>
      <trkpt lat="50.01859" lon="4.24535">
        <ele>286</ele>
        <time>2024-03-19T05:52:23Z</time>
      </trkpt>
      <trkpt lat="50.01859" lon="4.24523">
        <ele>285.8</ele>
        <time>2024-03-19T05:52:24Z</time>
      </trkpt>
      <trkpt lat="50.01858" lon="4.2451">
        <ele>285.4</ele>
        <time>2024-03-19T05:52:25Z</time>
      </trkpt>
      <trkpt lat="50.01857" lon="4.24498">
        <ele>285.2</ele>
        <time>2024-03-19T05:52:26Z</time>
      </trkpt>
      <trkpt lat="50.01856" lon="4.24486">
        <ele>285</ele>
        <time>2024-03-19T05:52:27Z</time>
      </trkpt>
      <trkpt lat="50.01854" lon="4.24474">
        <ele>285</ele>
        <time>2024-03-19T05:52:28Z</time>
      </trkpt>
      <trkpt lat="50.01853" lon="4.24462">
        <ele>284.8</ele>
        <time>2024-03-19T05:52:29Z</time>
      </trkpt>
      <trkpt lat="50.01851" lon="4.24451">
        <ele>285</ele>
        <time>2024-03-19T05:52:30Z</time>
      </trkpt>
      <trkpt lat="50.01848" lon="4.24439">
        <ele>284.8</ele>
        <time>2024-03-19T05:52:31Z</time>
      </trkpt>
      <trkpt lat="50.01845" lon="4.24428">
        <ele>284.8</ele>
        <time>2024-03-19T05:52:32Z</time>
      </trkpt>
      <trkpt lat="50.01842" lon="4.24416">
        <ele>285</ele>
        <time>2024-03-19T05:52:33Z</time>
      </trkpt>
      <trkpt lat="50.01839" lon="4.24405">
        <ele>284.6</ele>
        <time>2024-03-19T05:52:34Z</time>
      </trkpt>
      <trkpt lat="50.01837" lon="4.24394">
        <ele>284.6</ele>
        <time>2024-03-19T05:52:35Z</time>
      </trkpt>
      <trkpt lat="50.01833" lon="4.24383">
        <ele>284.6</ele>
        <time>2024-03-19T05:52:36Z</time>
      </trkpt>
      <trkpt lat="50.0183" lon="4.24372">
        <ele>284.6</ele>
        <time>2024-03-19T05:52:37Z</time>
      </trkpt>
      <trkpt lat="50.01827" lon="4.24361">
        <ele>284.6</ele>
        <time>2024-03-19T05:52:38Z</time>
      </trkpt>
      <trkpt lat="50.01824" lon="4.2435">
        <ele>284.4</ele>
        <time>2024-03-19T05:52:39Z</time>
      </trkpt>
      <trkpt lat="50.01821" lon="4.24339">
        <ele>284.4</ele>
        <time>2024-03-19T05:52:40Z</time>
      </trkpt>
      <trkpt lat="50.01818" lon="4.24328">
        <ele>284.4</ele>
        <time>2024-03-19T05:52:41Z</time>
      </trkpt>
      <trkpt lat="50.01815" lon="4.24317">
        <ele>284.2</ele>
        <time>2024-03-19T05:52:42Z</time>
      </trkpt>
      <trkpt lat="50.01812" lon="4.24306">
        <ele>284.2</ele>
        <time>2024-03-19T05:52:43Z</time>
      </trkpt>
      <trkpt lat="50.01809" lon="4.24295">
        <ele>284.2</ele>
        <time>2024-03-19T05:52:44Z</time>
      </trkpt>
      <trkpt lat="50.01806" lon="4.24284">
        <ele>284.2</ele>
        <time>2024-03-19T05:52:45Z</time>
      </trkpt>
      <trkpt lat="50.01802" lon="4.24273">
        <ele>284</ele>
        <time>2024-03-19T05:52:46Z</time>
      </trkpt>
      <trkpt lat="50.01799" lon="4.24262">
        <ele>283.8</ele>
        <time>2024-03-19T05:52:47Z</time>
      </trkpt>
      <trkpt lat="50.01796" lon="4.24251">
        <ele>283.6</ele>
        <time>2024-03-19T05:52:48Z</time>
      </trkpt>
      <trkpt lat="50.01793" lon="4.24239">
        <ele>283.4</ele>
        <time>2024-03-19T05:52:49Z</time>
      </trkpt>
      <trkpt lat="50.0179" lon="4.24228">
        <ele>283.2</ele>
        <time>2024-03-19T05:52:50Z</time>
      </trkpt>
      <trkpt lat="50.01787" lon="4.24216">
        <ele>283.2</ele>
        <time>2024-03-19T05:52:51Z</time>
      </trkpt>
      <trkpt lat="50.01783" lon="4.24204">
        <ele>282.8</ele>
        <time>2024-03-19T05:52:52Z</time>
      </trkpt>
      <trkpt lat="50.0178" lon="4.24193">
        <ele>282.8</ele>
        <time>2024-03-19T05:52:53Z</time>
      </trkpt>
      <trkpt lat="50.01777" lon="4.24181">
        <ele>283</ele>
        <time>2024-03-19T05:52:54Z</time>
      </trkpt>
      <trkpt lat="50.01773" lon="4.24168">
        <ele>282.6</ele>
        <time>2024-03-19T05:52:55Z</time>
      </trkpt>
      <trkpt lat="50.0177" lon="4.24156">
        <ele>282.6</ele>
        <time>2024-03-19T05:52:56Z</time>
      </trkpt>
      <trkpt lat="50.01766" lon="4.24143">
        <ele>282.4</ele>
        <time>2024-03-19T05:52:57Z</time>
      </trkpt>
      <trkpt lat="50.01762" lon="4.2413">
        <ele>282.4</ele>
        <time>2024-03-19T05:52:58Z</time>
      </trkpt>
      <trkpt lat="50.01757" lon="4.24118">
        <ele>282.2</ele>
        <time>2024-03-19T05:52:59Z</time>
      </trkpt>
      <trkpt lat="50.01753" lon="4.24106">
        <ele>282</ele>
        <time>2024-03-19T05:53:00Z</time>
      </trkpt>
      <trkpt lat="50.01747" lon="4.24094">
        <ele>281.6</ele>
        <time>2024-03-19T05:53:01Z</time>
      </trkpt>
      <trkpt lat="50.01741" lon="4.24082">
        <ele>281.4</ele>
        <time>2024-03-19T05:53:02Z</time>
      </trkpt>
      <trkpt lat="50.01736" lon="4.24069">
        <ele>280.8</ele>
        <time>2024-03-19T05:53:03Z</time>
      </trkpt>
      <trkpt lat="50.01729" lon="4.24057">
        <ele>280.4</ele>
        <time>2024-03-19T05:53:04Z</time>
      </trkpt>
      <trkpt lat="50.01723" lon="4.24045">
        <ele>279.8</ele>
        <time>2024-03-19T05:53:05Z</time>
      </trkpt>
      <trkpt lat="50.01717" lon="4.24033">
        <ele>278.8</ele>
        <time>2024-03-19T05:53:06Z</time>
      </trkpt>
      <trkpt lat="50.0171" lon="4.24021">
        <ele>278</ele>
        <time>2024-03-19T05:53:07Z</time>
      </trkpt>
      <trkpt lat="50.01703" lon="4.24009">
        <ele>277</ele>
        <time>2024-03-19T05:53:08Z</time>
      </trkpt>
      <trkpt lat="50.01697" lon="4.23996">
        <ele>276</ele>
        <time>2024-03-19T05:53:09Z</time>
      </trkpt>
      <trkpt lat="50.01691" lon="4.23982">
        <ele>275.2</ele>
        <time>2024-03-19T05:53:10Z</time>
      </trkpt>
      <trkpt lat="50.01687" lon="4.23967">
        <ele>274.2</ele>
        <time>2024-03-19T05:53:11Z</time>
      </trkpt>
      <trkpt lat="50.01684" lon="4.23951">
        <ele>274.2</ele>
        <time>2024-03-19T05:53:12Z</time>
      </trkpt>
      <trkpt lat="50.01681" lon="4.23935">
        <ele>273.4</ele>
        <time>2024-03-19T05:53:13Z</time>
      </trkpt>
      <trkpt lat="50.01679" lon="4.23919">
        <ele>273</ele>
        <time>2024-03-19T05:53:14Z</time>
      </trkpt>
      <trkpt lat="50.01677" lon="4.23903">
        <ele>272.2</ele>
        <time>2024-03-19T05:53:15Z</time>
      </trkpt>
      <trkpt lat="50.01675" lon="4.23888">
        <ele>271.4</ele>
        <time>2024-03-19T05:53:16Z</time>
      </trkpt>
      <trkpt lat="50.01674" lon="4.23873">
        <ele>271</ele>
        <time>2024-03-19T05:53:17Z</time>
      </trkpt>
      <trkpt lat="50.01675" lon="4.2386">
        <ele>270.8</ele>
        <time>2024-03-19T05:53:18Z</time>
      </trkpt>
      <trkpt lat="50.01677" lon="4.23848">
        <ele>270.4</ele>
        <time>2024-03-19T05:53:19Z</time>
      </trkpt>
      <trkpt lat="50.0168" lon="4.23837">
        <ele>270.2</ele>
        <time>2024-03-19T05:53:20Z</time>
      </trkpt>
      <trkpt lat="50.01684" lon="4.23827">
        <ele>270.2</ele>
        <time>2024-03-19T05:53:21Z</time>
      </trkpt>
      <trkpt lat="50.01687" lon="4.23817">
        <ele>270.2</ele>
        <time>2024-03-19T05:53:22Z</time>
      </trkpt>
      <trkpt lat="50.01691" lon="4.23807">
        <ele>270.2</ele>
        <time>2024-03-19T05:53:23Z</time>
      </trkpt>
      <trkpt lat="50.01694" lon="4.23798">
        <ele>270</ele>
        <time>2024-03-19T05:53:24Z</time>
      </trkpt>
      <trkpt lat="50.01697" lon="4.23789">
        <ele>270</ele>
        <time>2024-03-19T05:53:25Z</time>
      </trkpt>
      <trkpt lat="50.017" lon="4.2378">
        <ele>270.2</ele>
        <time>2024-03-19T05:53:26Z</time>
      </trkpt>
      <trkpt lat="50.01703" lon="4.23771">
        <ele>270.4</ele>
        <time>2024-03-19T05:53:27Z</time>
      </trkpt>
      <trkpt lat="50.01707" lon="4.23762">
        <ele>270.4</ele>
        <time>2024-03-19T05:53:28Z</time>
      </trkpt>
      <trkpt lat="50.0171" lon="4.23754">
        <ele>270.4</ele>
        <time>2024-03-19T05:53:29Z</time>
      </trkpt>
      <trkpt lat="50.01713" lon="4.23745">
        <ele>270.6</ele>
        <time>2024-03-19T05:53:30Z</time>
      </trkpt>
      <trkpt lat="50.01716" lon="4.23736">
        <ele>271</ele>
        <time>2024-03-19T05:53:31Z</time>
      </trkpt>
      <trkpt lat="50.01719" lon="4.23727">
        <ele>271.2</ele>
        <time>2024-03-19T05:53:32Z</time>
      </trkpt>
      <trkpt lat="50.01722" lon="4.23718">
        <ele>271.4</ele>
        <time>2024-03-19T05:53:33Z</time>
      </trkpt>
      <trkpt lat="50.01726" lon="4.2371">
        <ele>271.6</ele>
        <time>2024-03-19T05:53:34Z</time>
      </trkpt>
      <trkpt lat="50.01729" lon="4.23701">
        <ele>271.8</ele>
        <time>2024-03-19T05:53:35Z</time>
      </trkpt>
      <trkpt lat="50.01732" lon="4.23691">
        <ele>272</ele>
        <time>2024-03-19T05:53:36Z</time>
      </trkpt>
      <trkpt lat="50.01735" lon="4.23682">
        <ele>272.2</ele>
        <time>2024-03-19T05:53:37Z</time>
      </trkpt>
      <trkpt lat="50.01739" lon="4.23673">
        <ele>272.4</ele>
        <time>2024-03-19T05:53:38Z</time>
      </trkpt>
      <trkpt lat="50.01742" lon="4.23663">
        <ele>272.6</ele>
        <time>2024-03-19T05:53:39Z</time>
      </trkpt>
      <trkpt lat="50.01745" lon="4.23654">
        <ele>272.8</ele>
        <time>2024-03-19T05:53:40Z</time>
      </trkpt>
      <trkpt lat="50.01748" lon="4.23644">
        <ele>272.8</ele>
        <time>2024-03-19T05:53:41Z</time>
      </trkpt>
      <trkpt lat="50.01751" lon="4.23634">
        <ele>273</ele>
        <time>2024-03-19T05:53:42Z</time>
      </trkpt>
      <trkpt lat="50.01753" lon="4.23624">
        <ele>273</ele>
        <time>2024-03-19T05:53:43Z</time>
      </trkpt>
      <trkpt lat="50.01756" lon="4.23614">
        <ele>273</ele>
        <time>2024-03-19T05:53:44Z</time>
      </trkpt>
      <trkpt lat="50.01759" lon="4.23603">
        <ele>273</ele>
        <time>2024-03-19T05:53:45Z</time>
      </trkpt>
      <trkpt lat="50.01761" lon="4.23593">
        <ele>273.2</ele>
        <time>2024-03-19T05:53:46Z</time>
      </trkpt>
      <trkpt lat="50.01764" lon="4.23583">
        <ele>273.2</ele>
        <time>2024-03-19T05:53:47Z</time>
      </trkpt>
      <trkpt lat="50.01766" lon="4.23573">
        <ele>273.6</ele>
        <time>2024-03-19T05:53:48Z</time>
      </trkpt>
      <trkpt lat="50.01768" lon="4.23563">
        <ele>273.6</ele>
        <time>2024-03-19T05:53:49Z</time>
      </trkpt>
      <trkpt lat="50.0177" lon="4.23553">
        <ele>274</ele>
        <time>2024-03-19T05:53:50Z</time>
      </trkpt>
      <trkpt lat="50.01773" lon="4.23543">
        <ele>274</ele>
        <time>2024-03-19T05:53:51Z</time>
      </trkpt>
      <trkpt lat="50.01775" lon="4.23534">
        <ele>274.2</ele>
        <time>2024-03-19T05:53:52Z</time>
      </trkpt>
      <trkpt lat="50.01777" lon="4.23525">
        <ele>274.4</ele>
        <time>2024-03-19T05:53:53Z</time>
      </trkpt>
      <trkpt lat="50.01779" lon="4.23515">
        <ele>274.4</ele>
        <time>2024-03-19T05:53:54Z</time>
      </trkpt>
      <trkpt lat="50.01781" lon="4.23507">
        <ele>274.4</ele>
        <time>2024-03-19T05:53:55Z</time>
      </trkpt>
      <trkpt lat="50.01783" lon="4.23498">
        <ele>274.4</ele>
        <time>2024-03-19T05:53:56Z</time>
      </trkpt>
      <trkpt lat="50.01785" lon="4.2349">
        <ele>274.4</ele>
        <time>2024-03-19T05:53:57Z</time>
      </trkpt>
      <trkpt lat="50.01788" lon="4.23481">
        <ele>274.4</ele>
        <time>2024-03-19T05:53:58Z</time>
      </trkpt>
      <trkpt lat="50.0179" lon="4.23473">
        <ele>274.6</ele>
        <time>2024-03-19T05:53:59Z</time>
      </trkpt>
      <trkpt lat="50.01791" lon="4.23465">
        <ele>274.6</ele>
        <time>2024-03-19T05:54:00Z</time>
      </trkpt>
      <trkpt lat="50.01793" lon="4.23458">
        <ele>274.8</ele>
        <time>2024-03-19T05:54:01Z</time>
      </trkpt>
      <trkpt lat="50.01795" lon="4.2345">
        <ele>275.2</ele>
        <time>2024-03-19T05:54:02Z</time>
      </trkpt>
      <trkpt lat="50.01797" lon="4.23442">
        <ele>275.8</ele>
        <time>2024-03-19T05:54:03Z</time>
      </trkpt>
      <trkpt lat="50.01798" lon="4.23434">
        <ele>276</ele>
        <time>2024-03-19T05:54:04Z</time>
      </trkpt>
      <trkpt lat="50.018" lon="4.23426">
        <ele>276.4</ele>
        <time>2024-03-19T05:54:05Z</time>
      </trkpt>
      <trkpt lat="50.01802" lon="4.23418">
        <ele>276.8</ele>
        <time>2024-03-19T05:54:06Z</time>
      </trkpt>
      <trkpt lat="50.01804" lon="4.2341">
        <ele>277</ele>
        <time>2024-03-19T05:54:07Z</time>
      </trkpt>
      <trkpt lat="50.01805" lon="4.23402">
        <ele>277.4</ele>
        <time>2024-03-19T05:54:08Z</time>
      </trkpt>
      <trkpt lat="50.01807" lon="4.23395">
        <ele>277.8</ele>
        <time>2024-03-19T05:54:09Z</time>
      </trkpt>
      <trkpt lat="50.01809" lon="4.23387">
        <ele>278</ele>
        <time>2024-03-19T05:54:10Z</time>
      </trkpt>
      <trkpt lat="50.01811" lon="4.23379">
        <ele>278.2</ele>
        <time>2024-03-19T05:54:11Z</time>
      </trkpt>
      <trkpt lat="50.01813" lon="4.23371">
        <ele>278.2</ele>
        <time>2024-03-19T05:54:12Z</time>
      </trkpt>
      <trkpt lat="50.01815" lon="4.23363">
        <ele>278.2</ele>
        <time>2024-03-19T05:54:13Z</time>
      </trkpt>
      <trkpt lat="50.01816" lon="4.23356">
        <ele>278.2</ele>
        <time>2024-03-19T05:54:14Z</time>
      </trkpt>
      <trkpt lat="50.01818" lon="4.23348">
        <ele>278.4</ele>
        <time>2024-03-19T05:54:15Z</time>
      </trkpt>
      <trkpt lat="50.01819" lon="4.2334">
        <ele>278.4</ele>
        <time>2024-03-19T05:54:16Z</time>
      </trkpt>
      <trkpt lat="50.01821" lon="4.23332">
        <ele>279</ele>
        <time>2024-03-19T05:54:17Z</time>
      </trkpt>
      <trkpt lat="50.01823" lon="4.23324">
        <ele>279.6</ele>
        <time>2024-03-19T05:54:18Z</time>
      </trkpt>
      <trkpt lat="50.01825" lon="4.23317">
        <ele>279.8</ele>
        <time>2024-03-19T05:54:19Z</time>
      </trkpt>
      <trkpt lat="50.01827" lon="4.2331">
        <ele>279.8</ele>
        <time>2024-03-19T05:54:20Z</time>
      </trkpt>
      <trkpt lat="50.01829" lon="4.23303">
        <ele>280</ele>
        <time>2024-03-19T05:54:21Z</time>
      </trkpt>
      <trkpt lat="50.01831" lon="4.23296">
        <ele>280.2</ele>
        <time>2024-03-19T05:54:22Z</time>
      </trkpt>
      <trkpt lat="50.01833" lon="4.23288">
        <ele>280.4</ele>
        <time>2024-03-19T05:54:23Z</time>
      </trkpt>
      <trkpt lat="50.01835" lon="4.23281">
        <ele>280.6</ele>
        <time>2024-03-19T05:54:24Z</time>
      </trkpt>
      <trkpt lat="50.01836" lon="4.23274">
        <ele>280.8</ele>
        <time>2024-03-19T05:54:25Z</time>
      </trkpt>
      <trkpt lat="50.01839" lon="4.23267">
        <ele>281</ele>
        <time>2024-03-19T05:54:26Z</time>
      </trkpt>
      <trkpt lat="50.01841" lon="4.2326">
        <ele>281</ele>
        <time>2024-03-19T05:54:27Z</time>
      </trkpt>
      <trkpt lat="50.01843" lon="4.23254">
        <ele>281.4</ele>
        <time>2024-03-19T05:54:28Z</time>
      </trkpt>
      <trkpt lat="50.01846" lon="4.23248">
        <ele>281.6</ele>
        <time>2024-03-19T05:54:29Z</time>
      </trkpt>
      <trkpt lat="50.01848" lon="4.23242">
        <ele>282</ele>
        <time>2024-03-19T05:54:30Z</time>
      </trkpt>
      <trkpt lat="50.01851" lon="4.23235">
        <ele>282.2</ele>
        <time>2024-03-19T05:54:31Z</time>
      </trkpt>
      <trkpt lat="50.01854" lon="4.23229">
        <ele>282.2</ele>
        <time>2024-03-19T05:54:32Z</time>
      </trkpt>
      <trkpt lat="50.01857" lon="4.23222">
        <ele>283</ele>
        <time>2024-03-19T05:54:33Z</time>
      </trkpt>
      <trkpt lat="50.0186" lon="4.23215">
        <ele>283.8</ele>
        <time>2024-03-19T05:54:34Z</time>
      </trkpt>
      <trkpt lat="50.01864" lon="4.23209">
        <ele>284</ele>
        <time>2024-03-19T05:54:35Z</time>
      </trkpt>
      <trkpt lat="50.01868" lon="4.23203">
        <ele>284.2</ele>
        <time>2024-03-19T05:54:36Z</time>
      </trkpt>
      <trkpt lat="50.01872" lon="4.23198">
        <ele>284.4</ele>
        <time>2024-03-19T05:54:37Z</time>
      </trkpt>
      <trkpt lat="50.01876" lon="4.23193">
        <ele>284.8</ele>
        <time>2024-03-19T05:54:38Z</time>
      </trkpt>
      <trkpt lat="50.01881" lon="4.23189">
        <ele>285</ele>
        <time>2024-03-19T05:54:39Z</time>
      </trkpt>
      <trkpt lat="50.01885" lon="4.23185">
        <ele>285</ele>
        <time>2024-03-19T05:54:40Z</time>
      </trkpt>
      <trkpt lat="50.0189" lon="4.23181">
        <ele>285</ele>
        <time>2024-03-19T05:54:41Z</time>
      </trkpt>
      <trkpt lat="50.01894" lon="4.23178">
        <ele>285.2</ele>
        <time>2024-03-19T05:54:42Z</time>
      </trkpt>
      <trkpt lat="50.01899" lon="4.23175">
        <ele>285.4</ele>
        <time>2024-03-19T05:54:43Z</time>
      </trkpt>
      <trkpt lat="50.01904" lon="4.23172">
        <ele>285.4</ele>
        <time>2024-03-19T05:54:44Z</time>
      </trkpt>
      <trkpt lat="50.01908" lon="4.23169">
        <ele>285.6</ele>
        <time>2024-03-19T05:54:45Z</time>
      </trkpt>
      <trkpt lat="50.01912" lon="4.23166">
        <ele>285.6</ele>
        <time>2024-03-19T05:54:46Z</time>
      </trkpt>
      <trkpt lat="50.01917" lon="4.23164">
        <ele>285.8</ele>
        <time>2024-03-19T05:54:47Z</time>
      </trkpt>
      <trkpt lat="50.01922" lon="4.23161">
        <ele>285.8</ele>
        <time>2024-03-19T05:54:48Z</time>
      </trkpt>
      <trkpt lat="50.01927" lon="4.23159">
        <ele>285.8</ele>
        <time>2024-03-19T05:54:49Z</time>
      </trkpt>
      <trkpt lat="50.01933" lon="4.23156">
        <ele>286</ele>
        <time>2024-03-19T05:54:50Z</time>
      </trkpt>
      <trkpt lat="50.01938" lon="4.23154">
        <ele>286</ele>
        <time>2024-03-19T05:54:51Z</time>
      </trkpt>
      <trkpt lat="50.01943" lon="4.23152">
        <ele>286.4</ele>
        <time>2024-03-19T05:54:52Z</time>
      </trkpt>
      <trkpt lat="50.01949" lon="4.23149">
        <ele>286.4</ele>
        <time>2024-03-19T05:54:53Z</time>
      </trkpt>
      <trkpt lat="50.01955" lon="4.23147">
        <ele>286.6</ele>
        <time>2024-03-19T05:54:54Z</time>
      </trkpt>
      <trkpt lat="50.0196" lon="4.23146">
        <ele>287</ele>
        <time>2024-03-19T05:54:55Z</time>
      </trkpt>
      <trkpt lat="50.01966" lon="4.23144">
        <ele>287</ele>
        <time>2024-03-19T05:54:56Z</time>
      </trkpt>
      <trkpt lat="50.01971" lon="4.23141">
        <ele>287</ele>
        <time>2024-03-19T05:54:57Z</time>
      </trkpt>
      <trkpt lat="50.01977" lon="4.23139">
        <ele>287</ele>
        <time>2024-03-19T05:54:58Z</time>
      </trkpt>
      <trkpt lat="50.01982" lon="4.23137">
        <ele>287.2</ele>
        <time>2024-03-19T05:54:59Z</time>
      </trkpt>
      <trkpt lat="50.01988" lon="4.23135">
        <ele>287.4</ele>
        <time>2024-03-19T05:55:00Z</time>
      </trkpt>
      <trkpt lat="50.01994" lon="4.23133">
        <ele>287.4</ele>
        <time>2024-03-19T05:55:01Z</time>
      </trkpt>
      <trkpt lat="50.02" lon="4.23131">
        <ele>287.4</ele>
        <time>2024-03-19T05:55:02Z</time>
      </trkpt>
      <trkpt lat="50.02006" lon="4.23128">
        <ele>287.2</ele>
        <time>2024-03-19T05:55:03Z</time>
      </trkpt>
      <trkpt lat="50.02012" lon="4.23126">
        <ele>287.6</ele>
        <time>2024-03-19T05:55:04Z</time>
      </trkpt>
      <trkpt lat="50.02017" lon="4.23124">
        <ele>287.6</ele>
        <time>2024-03-19T05:55:05Z</time>
      </trkpt>
      <trkpt lat="50.02023" lon="4.23122">
        <ele>287.6</ele>
        <time>2024-03-19T05:55:06Z</time>
      </trkpt>
      <trkpt lat="50.02029" lon="4.23119">
        <ele>287.4</ele>
        <time>2024-03-19T05:55:07Z</time>
      </trkpt>
      <trkpt lat="50.02034" lon="4.23117">
        <ele>287.4</ele>
        <time>2024-03-19T05:55:08Z</time>
      </trkpt>
      <trkpt lat="50.0204" lon="4.23114">
        <ele>287.4</ele>
        <time>2024-03-19T05:55:09Z</time>
      </trkpt>
      <trkpt lat="50.02046" lon="4.23112">
        <ele>287.6</ele>
        <time>2024-03-19T05:55:10Z</time>
      </trkpt>
      <trkpt lat="50.02051" lon="4.2311">
        <ele>287.8</ele>
        <time>2024-03-19T05:55:11Z</time>
      </trkpt>
      <trkpt lat="50.02057" lon="4.23107">
        <ele>287.6</ele>
        <time>2024-03-19T05:55:12Z</time>
      </trkpt>
      <trkpt lat="50.02064" lon="4.23105">
        <ele>287.8</ele>
        <time>2024-03-19T05:55:13Z</time>
      </trkpt>
      <trkpt lat="50.0207" lon="4.23103">
        <ele>287.8</ele>
        <time>2024-03-19T05:55:14Z</time>
      </trkpt>
      <trkpt lat="50.02076" lon="4.231">
        <ele>288</ele>
        <time>2024-03-19T05:55:15Z</time>
      </trkpt>
      <trkpt lat="50.02082" lon="4.23098">
        <ele>287.8</ele>
        <time>2024-03-19T05:55:16Z</time>
      </trkpt>
      <trkpt lat="50.02088" lon="4.23096">
        <ele>288</ele>
        <time>2024-03-19T05:55:17Z</time>
      </trkpt>
      <trkpt lat="50.02094" lon="4.23093">
        <ele>288</ele>
        <time>2024-03-19T05:55:18Z</time>
      </trkpt>
      <trkpt lat="50.021" lon="4.23091">
        <ele>288</ele>
        <time>2024-03-19T05:55:19Z</time>
      </trkpt>
      <trkpt lat="50.02105" lon="4.23088">
        <ele>288</ele>
        <time>2024-03-19T05:55:20Z</time>
      </trkpt>
      <trkpt lat="50.02112" lon="4.23086">
        <ele>288</ele>
        <time>2024-03-19T05:55:21Z</time>
      </trkpt>
      <trkpt lat="50.02118" lon="4.23084">
        <ele>288</ele>
        <time>2024-03-19T05:55:22Z</time>
      </trkpt>
      <trkpt lat="50.02124" lon="4.23082">
        <ele>288</ele>
        <time>2024-03-19T05:55:23Z</time>
      </trkpt>
      <trkpt lat="50.02131" lon="4.23079">
        <ele>288</ele>
        <time>2024-03-19T05:55:24Z</time>
      </trkpt>
      <trkpt lat="50.02137" lon="4.23077">
        <ele>288</ele>
        <time>2024-03-19T05:55:25Z</time>
      </trkpt>
      <trkpt lat="50.02144" lon="4.23075">
        <ele>288</ele>
        <time>2024-03-19T05:55:26Z</time>
      </trkpt>
      <trkpt lat="50.0215" lon="4.23072">
        <ele>287.8</ele>
        <time>2024-03-19T05:55:27Z</time>
      </trkpt>
      <trkpt lat="50.02156" lon="4.23069">
        <ele>288</ele>
        <time>2024-03-19T05:55:28Z</time>
      </trkpt>
      <trkpt lat="50.02162" lon="4.23067">
        <ele>287.8</ele>
        <time>2024-03-19T05:55:29Z</time>
      </trkpt>
      <trkpt lat="50.02168" lon="4.23065">
        <ele>287.8</ele>
        <time>2024-03-19T05:55:30Z</time>
      </trkpt>
      <trkpt lat="50.02175" lon="4.23063">
        <ele>288</ele>
        <time>2024-03-19T05:55:31Z</time>
      </trkpt>
      <trkpt lat="50.02181" lon="4.2306">
        <ele>287.6</ele>
        <time>2024-03-19T05:55:32Z</time>
      </trkpt>
      <trkpt lat="50.02188" lon="4.23058">
        <ele>287.8</ele>
        <time>2024-03-19T05:55:33Z</time>
      </trkpt>
      <trkpt lat="50.02194" lon="4.23055">
        <ele>287.8</ele>
        <time>2024-03-19T05:55:34Z</time>
      </trkpt>
      <trkpt lat="50.02201" lon="4.23052">
        <ele>287.6</ele>
        <time>2024-03-19T05:55:35Z</time>
      </trkpt>
      <trkpt lat="50.02207" lon="4.23049">
        <ele>287.6</ele>
        <time>2024-03-19T05:55:36Z</time>
      </trkpt>
      <trkpt lat="50.02213" lon="4.23047">
        <ele>287.6</ele>
        <time>2024-03-19T05:55:37Z</time>
      </trkpt>
      <trkpt lat="50.02219" lon="4.23044">
        <ele>287.6</ele>
        <time>2024-03-19T05:55:38Z</time>
      </trkpt>
      <trkpt lat="50.02225" lon="4.23042">
        <ele>287.6</ele>
        <time>2024-03-19T05:55:39Z</time>
      </trkpt>
      <trkpt lat="50.02232" lon="4.23039">
        <ele>287.6</ele>
        <time>2024-03-19T05:55:40Z</time>
      </trkpt>
      <trkpt lat="50.02239" lon="4.23037">
        <ele>287.6</ele>
        <time>2024-03-19T05:55:41Z</time>
      </trkpt>
      <trkpt lat="50.02245" lon="4.23034">
        <ele>287.6</ele>
        <time>2024-03-19T05:55:42Z</time>
      </trkpt>
      <trkpt lat="50.02252" lon="4.23032">
        <ele>287.6</ele>
        <time>2024-03-19T05:55:43Z</time>
      </trkpt>
      <trkpt lat="50.02259" lon="4.23029">
        <ele>287.6</ele>
        <time>2024-03-19T05:55:44Z</time>
      </trkpt>
      <trkpt lat="50.02265" lon="4.23027">
        <ele>287.6</ele>
        <time>2024-03-19T05:55:45Z</time>
      </trkpt>
      <trkpt lat="50.02271" lon="4.23024">
        <ele>287.6</ele>
        <time>2024-03-19T05:55:46Z</time>
      </trkpt>
      <trkpt lat="50.02278" lon="4.23022">
        <ele>287.6</ele>
        <time>2024-03-19T05:55:47Z</time>
      </trkpt>
      <trkpt lat="50.02285" lon="4.2302">
        <ele>287.6</ele>
        <time>2024-03-19T05:55:48Z</time>
      </trkpt>
      <trkpt lat="50.02292" lon="4.23017">
        <ele>288.2</ele>
        <time>2024-03-19T05:55:49Z</time>
      </trkpt>
      <trkpt lat="50.02299" lon="4.23014">
        <ele>288.2</ele>
        <time>2024-03-19T05:55:50Z</time>
      </trkpt>
      <trkpt lat="50.02305" lon="4.23011">
        <ele>288.2</ele>
        <time>2024-03-19T05:55:51Z</time>
      </trkpt>
      <trkpt lat="50.02311" lon="4.23009">
        <ele>288.4</ele>
        <time>2024-03-19T05:55:52Z</time>
      </trkpt>
      <trkpt lat="50.02318" lon="4.23006">
        <ele>288.4</ele>
        <time>2024-03-19T05:55:53Z</time>
      </trkpt>
      <trkpt lat="50.02325" lon="4.23003">
        <ele>288.2</ele>
        <time>2024-03-19T05:55:54Z</time>
      </trkpt>
      <trkpt lat="50.02331" lon="4.23001">
        <ele>288.2</ele>
        <time>2024-03-19T05:55:55Z</time>
      </trkpt>
      <trkpt lat="50.02338" lon="4.22998">
        <ele>288.4</ele>
        <time>2024-03-19T05:55:56Z</time>
      </trkpt>
      <trkpt lat="50.02345" lon="4.22995">
        <ele>288.4</ele>
        <time>2024-03-19T05:55:57Z</time>
      </trkpt>
      <trkpt lat="50.02351" lon="4.22992">
        <ele>288.4</ele>
        <time>2024-03-19T05:55:58Z</time>
      </trkpt>
      <trkpt lat="50.02358" lon="4.2299">
        <ele>288.4</ele>
        <time>2024-03-19T05:55:59Z</time>
      </trkpt>
      <trkpt lat="50.02365" lon="4.22987">
        <ele>288.4</ele>
        <time>2024-03-19T05:56:00Z</time>
      </trkpt>
      <trkpt lat="50.02372" lon="4.22985">
        <ele>288.4</ele>
        <time>2024-03-19T05:56:01Z</time>
      </trkpt>
      <trkpt lat="50.0238" lon="4.22982">
        <ele>288.2</ele>
        <time>2024-03-19T05:56:02Z</time>
      </trkpt>
      <trkpt lat="50.02387" lon="4.22979">
        <ele>288.2</ele>
        <time>2024-03-19T05:56:03Z</time>
      </trkpt>
      <trkpt lat="50.02394" lon="4.22977">
        <ele>288.2</ele>
        <time>2024-03-19T05:56:04Z</time>
      </trkpt>
      <trkpt lat="50.02401" lon="4.22974">
        <ele>288</ele>
        <time>2024-03-19T05:56:05Z</time>
      </trkpt>
      <trkpt lat="50.02408" lon="4.22971">
        <ele>288</ele>
        <time>2024-03-19T05:56:06Z</time>
      </trkpt>
      <trkpt lat="50.02416" lon="4.22968">
        <ele>287</ele>
        <time>2024-03-19T05:56:07Z</time>
      </trkpt>
      <trkpt lat="50.02423" lon="4.22965">
        <ele>286.2</ele>
        <time>2024-03-19T05:56:08Z</time>
      </trkpt>
      <trkpt lat="50.02431" lon="4.22962">
        <ele>286.2</ele>
        <time>2024-03-19T05:56:09Z</time>
      </trkpt>
      <trkpt lat="50.02439" lon="4.22959">
        <ele>286</ele>
        <time>2024-03-19T05:56:10Z</time>
      </trkpt>
      <trkpt lat="50.02446" lon="4.22956">
        <ele>285.8</ele>
        <time>2024-03-19T05:56:11Z</time>
      </trkpt>
      <trkpt lat="50.02454" lon="4.22953">
        <ele>285.6</ele>
        <time>2024-03-19T05:56:12Z</time>
      </trkpt>
      <trkpt lat="50.02462" lon="4.2295">
        <ele>285.4</ele>
        <time>2024-03-19T05:56:13Z</time>
      </trkpt>
      <trkpt lat="50.0247" lon="4.22947">
        <ele>285.2</ele>
        <time>2024-03-19T05:56:14Z</time>
      </trkpt>
      <trkpt lat="50.02478" lon="4.22944">
        <ele>285.4</ele>
        <time>2024-03-19T05:56:15Z</time>
      </trkpt>
      <trkpt lat="50.02486" lon="4.22942">
        <ele>285.2</ele>
        <time>2024-03-19T05:56:16Z</time>
      </trkpt>
      <trkpt lat="50.02494" lon="4.22939">
        <ele>285.2</ele>
        <time>2024-03-19T05:56:17Z</time>
      </trkpt>
      <trkpt lat="50.02502" lon="4.22936">
        <ele>285</ele>
        <time>2024-03-19T05:56:18Z</time>
      </trkpt>
      <trkpt lat="50.0251" lon="4.22933">
        <ele>284.8</ele>
        <time>2024-03-19T05:56:19Z</time>
      </trkpt>
      <trkpt lat="50.02518" lon="4.2293">
        <ele>284.6</ele>
        <time>2024-03-19T05:56:20Z</time>
      </trkpt>
      <trkpt lat="50.02526" lon="4.22927">
        <ele>284.6</ele>
        <time>2024-03-19T05:56:21Z</time>
      </trkpt>
      <trkpt lat="50.02535" lon="4.22923">
        <ele>284.6</ele>
        <time>2024-03-19T05:56:22Z</time>
      </trkpt>
      <trkpt lat="50.02543" lon="4.2292">
        <ele>284.6</ele>
        <time>2024-03-19T05:56:23Z</time>
      </trkpt>
      <trkpt lat="50.02552" lon="4.22917">
        <ele>284.4</ele>
        <time>2024-03-19T05:56:24Z</time>
      </trkpt>
      <trkpt lat="50.0256" lon="4.22914">
        <ele>284.4</ele>
        <time>2024-03-19T05:56:25Z</time>
      </trkpt>
      <trkpt lat="50.02568" lon="4.22911">
        <ele>284.4</ele>
        <time>2024-03-19T05:56:26Z</time>
      </trkpt>
      <trkpt lat="50.02575" lon="4.22908">
        <ele>284.4</ele>
        <time>2024-03-19T05:56:27Z</time>
      </trkpt>
      <trkpt lat="50.02583" lon="4.22905">
        <ele>284</ele>
        <time>2024-03-19T05:56:28Z</time>
      </trkpt>
      <trkpt lat="50.02591" lon="4.22902">
        <ele>284</ele>
        <time>2024-03-19T05:56:29Z</time>
      </trkpt>
      <trkpt lat="50.02599" lon="4.22898">
        <ele>284</ele>
        <time>2024-03-19T05:56:30Z</time>
      </trkpt>
      <trkpt lat="50.02608" lon="4.22895">
        <ele>283.6</ele>
        <time>2024-03-19T05:56:31Z</time>
      </trkpt>
      <trkpt lat="50.02616" lon="4.22891">
        <ele>283.4</ele>
        <time>2024-03-19T05:56:32Z</time>
      </trkpt>
      <trkpt lat="50.02625" lon="4.22887">
        <ele>283.2</ele>
        <time>2024-03-19T05:56:33Z</time>
      </trkpt>
      <trkpt lat="50.02633" lon="4.22884">
        <ele>283</ele>
        <time>2024-03-19T05:56:34Z</time>
      </trkpt>
      <trkpt lat="50.02642" lon="4.2288">
        <ele>282.6</ele>
        <time>2024-03-19T05:56:35Z</time>
      </trkpt>
      <trkpt lat="50.0265" lon="4.22877">
        <ele>282.6</ele>
        <time>2024-03-19T05:56:36Z</time>
      </trkpt>
      <trkpt lat="50.02659" lon="4.22874">
        <ele>282.6</ele>
        <time>2024-03-19T05:56:37Z</time>
      </trkpt>
      <trkpt lat="50.02668" lon="4.22871">
        <ele>282.2</ele>
        <time>2024-03-19T05:56:38Z</time>
      </trkpt>
      <trkpt lat="50.02678" lon="4.22868">
        <ele>281.8</ele>
        <time>2024-03-19T05:56:39Z</time>
      </trkpt>
      <trkpt lat="50.02687" lon="4.22864">
        <ele>281.4</ele>
        <time>2024-03-19T05:56:40Z</time>
      </trkpt>
      <trkpt lat="50.02696" lon="4.2286">
        <ele>281.4</ele>
        <time>2024-03-19T05:56:41Z</time>
      </trkpt>
      <trkpt lat="50.02705" lon="4.22857">
        <ele>281.2</ele>
        <time>2024-03-19T05:56:42Z</time>
      </trkpt>
      <trkpt lat="50.02714" lon="4.22854">
        <ele>281</ele>
        <time>2024-03-19T05:56:43Z</time>
      </trkpt>
      <trkpt lat="50.02723" lon="4.22849">
        <ele>280.8</ele>
        <time>2024-03-19T05:56:44Z</time>
      </trkpt>
      <trkpt lat="50.02732" lon="4.22846">
        <ele>280.8</ele>
        <time>2024-03-19T05:56:45Z</time>
      </trkpt>
      <trkpt lat="50.02742" lon="4.22842">
        <ele>280.2</ele>
        <time>2024-03-19T05:56:46Z</time>
      </trkpt>
      <trkpt lat="50.02751" lon="4.22838">
        <ele>279.6</ele>
        <time>2024-03-19T05:56:47Z</time>
      </trkpt>
      <trkpt lat="50.0276" lon="4.22833">
        <ele>279.2</ele>
        <time>2024-03-19T05:56:48Z</time>
      </trkpt>
      <trkpt lat="50.0277" lon="4.2283">
        <ele>279</ele>
        <time>2024-03-19T05:56:49Z</time>
      </trkpt>
      <trkpt lat="50.0278" lon="4.22826">
        <ele>278.4</ele>
        <time>2024-03-19T05:56:50Z</time>
      </trkpt>
      <trkpt lat="50.0279" lon="4.22823">
        <ele>278.2</ele>
        <time>2024-03-19T05:56:51Z</time>
      </trkpt>
      <trkpt lat="50.02799" lon="4.2282">
        <ele>277.8</ele>
        <time>2024-03-19T05:56:52Z</time>
      </trkpt>
      <trkpt lat="50.02808" lon="4.22816">
        <ele>277.4</ele>
        <time>2024-03-19T05:56:53Z</time>
      </trkpt>
      <trkpt lat="50.02817" lon="4.22812">
        <ele>277.4</ele>
        <time>2024-03-19T05:56:54Z</time>
      </trkpt>
      <trkpt lat="50.02827" lon="4.22808">
        <ele>276.8</ele>
        <time>2024-03-19T05:56:55Z</time>
      </trkpt>
      <trkpt lat="50.02836" lon="4.22805">
        <ele>276.2</ele>
        <time>2024-03-19T05:56:56Z</time>
      </trkpt>
      <trkpt lat="50.02845" lon="4.22802">
        <ele>276.2</ele>
        <time>2024-03-19T05:56:57Z</time>
      </trkpt>
      <trkpt lat="50.02854" lon="4.22799">
        <ele>276</ele>
        <time>2024-03-19T05:56:58Z</time>
      </trkpt>
      <trkpt lat="50.02862" lon="4.22795">
        <ele>275.4</ele>
        <time>2024-03-19T05:56:59Z</time>
      </trkpt>
      <trkpt lat="50.0287" lon="4.22793">
        <ele>274.8</ele>
        <time>2024-03-19T05:57:00Z</time>
      </trkpt>
      <trkpt lat="50.02878" lon="4.2279">
        <ele>274.4</ele>
        <time>2024-03-19T05:57:01Z</time>
      </trkpt>
      <trkpt lat="50.02886" lon="4.22786">
        <ele>274.4</ele>
        <time>2024-03-19T05:57:02Z</time>
      </trkpt>
      <trkpt lat="50.02893" lon="4.22783">
        <ele>274.2</ele>
        <time>2024-03-19T05:57:03Z</time>
      </trkpt>
      <trkpt lat="50.029" lon="4.2278">
        <ele>274.2</ele>
        <time>2024-03-19T05:57:04Z</time>
      </trkpt>
      <trkpt lat="50.02907" lon="4.22778">
        <ele>274.2</ele>
        <time>2024-03-19T05:57:05Z</time>
      </trkpt>
      <trkpt lat="50.02914" lon="4.22775">
        <ele>274</ele>
        <time>2024-03-19T05:57:06Z</time>
      </trkpt>
      <trkpt lat="50.02921" lon="4.22772">
        <ele>274.2</ele>
        <time>2024-03-19T05:57:07Z</time>
      </trkpt>
      <trkpt lat="50.02927" lon="4.22769">
        <ele>274</ele>
        <time>2024-03-19T05:57:08Z</time>
      </trkpt>
      <trkpt lat="50.02933" lon="4.22767">
        <ele>274.2</ele>
        <time>2024-03-19T05:57:09Z</time>
      </trkpt>
      <trkpt lat="50.02939" lon="4.22764">
        <ele>274</ele>
        <time>2024-03-19T05:57:10Z</time>
      </trkpt>
      <trkpt lat="50.02945" lon="4.22762">
        <ele>274</ele>
        <time>2024-03-19T05:57:11Z</time>
      </trkpt>
      <trkpt lat="50.02952" lon="4.2276">
        <ele>274.2</ele>
        <time>2024-03-19T05:57:12Z</time>
      </trkpt>
      <trkpt lat="50.02958" lon="4.22758">
        <ele>274.2</ele>
        <time>2024-03-19T05:57:13Z</time>
      </trkpt>
      <trkpt lat="50.02963" lon="4.22756">
        <ele>274.4</ele>
        <time>2024-03-19T05:57:14Z</time>
      </trkpt>
      <trkpt lat="50.02968" lon="4.22754">
        <ele>274.2</ele>
        <time>2024-03-19T05:57:15Z</time>
      </trkpt>
      <trkpt lat="50.02974" lon="4.22752">
        <ele>274.6</ele>
        <time>2024-03-19T05:57:16Z</time>
      </trkpt>
      <trkpt lat="50.0298" lon="4.2275">
        <ele>275</ele>
        <time>2024-03-19T05:57:17Z</time>
      </trkpt>
      <trkpt lat="50.02986" lon="4.22748">
        <ele>275.4</ele>
        <time>2024-03-19T05:57:18Z</time>
      </trkpt>
      <trkpt lat="50.02992" lon="4.22745">
        <ele>275.4</ele>
        <time>2024-03-19T05:57:19Z</time>
      </trkpt>
      <trkpt lat="50.02998" lon="4.22743">
        <ele>275.8</ele>
        <time>2024-03-19T05:57:20Z</time>
      </trkpt>
      <trkpt lat="50.03005" lon="4.2274">
        <ele>276.2</ele>
        <time>2024-03-19T05:57:21Z</time>
      </trkpt>
      <trkpt lat="50.03012" lon="4.22737">
        <ele>276.4</ele>
        <time>2024-03-19T05:57:22Z</time>
      </trkpt>
      <trkpt lat="50.03018" lon="4.22735">
        <ele>276.8</ele>
        <time>2024-03-19T05:57:23Z</time>
      </trkpt>
      <trkpt lat="50.03025" lon="4.22732">
        <ele>276.8</ele>
        <time>2024-03-19T05:57:24Z</time>
      </trkpt>
      <trkpt lat="50.03032" lon="4.2273">
        <ele>277</ele>
        <time>2024-03-19T05:57:25Z</time>
      </trkpt>
      <trkpt lat="50.03038" lon="4.22727">
        <ele>277</ele>
        <time>2024-03-19T05:57:26Z</time>
      </trkpt>
      <trkpt lat="50.03044" lon="4.22725">
        <ele>277.2</ele>
        <time>2024-03-19T05:57:27Z</time>
      </trkpt>
      <trkpt lat="50.0305" lon="4.22723">
        <ele>277.2</ele>
        <time>2024-03-19T05:57:28Z</time>
      </trkpt>
      <trkpt lat="50.03056" lon="4.22721">
        <ele>277.4</ele>
        <time>2024-03-19T05:57:29Z</time>
      </trkpt>
      <trkpt lat="50.03062" lon="4.22719">
        <ele>277.4</ele>
        <time>2024-03-19T05:57:30Z</time>
      </trkpt>
      <trkpt lat="50.03068" lon="4.22716">
        <ele>277.4</ele>
        <time>2024-03-19T05:57:31Z</time>
      </trkpt>
      <trkpt lat="50.03075" lon="4.22714">
        <ele>277.8</ele>
        <time>2024-03-19T05:57:32Z</time>
      </trkpt>
      <trkpt lat="50.03081" lon="4.22711">
        <ele>278.6</ele>
        <time>2024-03-19T05:57:33Z</time>
      </trkpt>
      <trkpt lat="50.03087" lon="4.22709">
        <ele>279</ele>
        <time>2024-03-19T05:57:34Z</time>
      </trkpt>
      <trkpt lat="50.03094" lon="4.22707">
        <ele>279.2</ele>
        <time>2024-03-19T05:57:35Z</time>
      </trkpt>
      <trkpt lat="50.03101" lon="4.22705">
        <ele>279.2</ele>
        <time>2024-03-19T05:57:36Z</time>
      </trkpt>
      <trkpt lat="50.03107" lon="4.22702">
        <ele>279.2</ele>
        <time>2024-03-19T05:57:37Z</time>
      </trkpt>
      <trkpt lat="50.03114" lon="4.227">
        <ele>279.2</ele>
        <time>2024-03-19T05:57:38Z</time>
      </trkpt>
      <trkpt lat="50.03121" lon="4.22696">
        <ele>279.4</ele>
        <time>2024-03-19T05:57:39Z</time>
      </trkpt>
      <trkpt lat="50.03129" lon="4.22692">
        <ele>279.2</ele>
        <time>2024-03-19T05:57:40Z</time>
      </trkpt>
      <trkpt lat="50.03136" lon="4.22688">
        <ele>279.4</ele>
        <time>2024-03-19T05:57:41Z</time>
      </trkpt>
      <trkpt lat="50.03144" lon="4.22683">
        <ele>279.4</ele>
        <time>2024-03-19T05:57:42Z</time>
      </trkpt>
      <trkpt lat="50.03151" lon="4.22677">
        <ele>279.4</ele>
        <time>2024-03-19T05:57:43Z</time>
      </trkpt>
      <trkpt lat="50.03158" lon="4.2267">
        <ele>279.2</ele>
        <time>2024-03-19T05:57:44Z</time>
      </trkpt>
      <trkpt lat="50.03165" lon="4.22662">
        <ele>279.2</ele>
        <time>2024-03-19T05:57:45Z</time>
      </trkpt>
      <trkpt lat="50.03172" lon="4.22655">
        <ele>279</ele>
        <time>2024-03-19T05:57:46Z</time>
      </trkpt>
      <trkpt lat="50.03179" lon="4.22646">
        <ele>279</ele>
        <time>2024-03-19T05:57:47Z</time>
      </trkpt>
      <trkpt lat="50.03186" lon="4.22638">
        <ele>279</ele>
        <time>2024-03-19T05:57:48Z</time>
      </trkpt>
      <trkpt lat="50.03193" lon="4.2263">
        <ele>279</ele>
        <time>2024-03-19T05:57:49Z</time>
      </trkpt>
      <trkpt lat="50.032" lon="4.22621">
        <ele>278.8</ele>
        <time>2024-03-19T05:57:50Z</time>
      </trkpt>
      <trkpt lat="50.03208" lon="4.22613">
        <ele>278.8</ele>
        <time>2024-03-19T05:57:51Z</time>
      </trkpt>
      <trkpt lat="50.03215" lon="4.22605">
        <ele>278.6</ele>
        <time>2024-03-19T05:57:52Z</time>
      </trkpt>
      <trkpt lat="50.03222" lon="4.22597">
        <ele>278.2</ele>
        <time>2024-03-19T05:57:53Z</time>
      </trkpt>
      <trkpt lat="50.03229" lon="4.22588">
        <ele>277.8</ele>
        <time>2024-03-19T05:57:54Z</time>
      </trkpt>
      <trkpt lat="50.03236" lon="4.2258">
        <ele>277.4</ele>
        <time>2024-03-19T05:57:55Z</time>
      </trkpt>
      <trkpt lat="50.03244" lon="4.22572">
        <ele>277.2</ele>
        <time>2024-03-19T05:57:56Z</time>
      </trkpt>
      <trkpt lat="50.03251" lon="4.22563">
        <ele>277</ele>
        <time>2024-03-19T05:57:57Z</time>
      </trkpt>
      <trkpt lat="50.03258" lon="4.22555">
        <ele>276.2</ele>
        <time>2024-03-19T05:57:58Z</time>
      </trkpt>
      <trkpt lat="50.03266" lon="4.22546">
        <ele>275.8</ele>
        <time>2024-03-19T05:57:59Z</time>
      </trkpt>
      <trkpt lat="50.03274" lon="4.22537">
        <ele>275.4</ele>
        <time>2024-03-19T05:58:00Z</time>
      </trkpt>
      <trkpt lat="50.03281" lon="4.22529">
        <ele>275.4</ele>
        <time>2024-03-19T05:58:01Z</time>
      </trkpt>
      <trkpt lat="50.03289" lon="4.2252">
        <ele>275.2</ele>
        <time>2024-03-19T05:58:02Z</time>
      </trkpt>
      <trkpt lat="50.03297" lon="4.2251">
        <ele>275</ele>
        <time>2024-03-19T05:58:03Z</time>
      </trkpt>
      <trkpt lat="50.03305" lon="4.22501">
        <ele>275</ele>
        <time>2024-03-19T05:58:04Z</time>
      </trkpt>
      <trkpt lat="50.03314" lon="4.22494">
        <ele>274.6</ele>
        <time>2024-03-19T05:58:05Z</time>
      </trkpt>
      <trkpt lat="50.03324" lon="4.22489">
        <ele>274.6</ele>
        <time>2024-03-19T05:58:06Z</time>
      </trkpt>
      <trkpt lat="50.03334" lon="4.22486">
        <ele>274.2</ele>
        <time>2024-03-19T05:58:07Z</time>
      </trkpt>
      <trkpt lat="50.03345" lon="4.22485">
        <ele>273.6</ele>
        <time>2024-03-19T05:58:08Z</time>
      </trkpt>
      <trkpt lat="50.03356" lon="4.22485">
        <ele>273</ele>
        <time>2024-03-19T05:58:09Z</time>
      </trkpt>
      <trkpt lat="50.03367" lon="4.22485">
        <ele>272.6</ele>
        <time>2024-03-19T05:58:10Z</time>
      </trkpt>
      <trkpt lat="50.03378" lon="4.22485">
        <ele>272</ele>
        <time>2024-03-19T05:58:11Z</time>
      </trkpt>
      <trkpt lat="50.03389" lon="4.22484">
        <ele>271.6</ele>
        <time>2024-03-19T05:58:12Z</time>
      </trkpt>
      <trkpt lat="50.034" lon="4.22484">
        <ele>270.4</ele>
        <time>2024-03-19T05:58:13Z</time>
      </trkpt>
      <trkpt lat="50.03411" lon="4.22484">
        <ele>269.6</ele>
        <time>2024-03-19T05:58:14Z</time>
      </trkpt>
      <trkpt lat="50.03421" lon="4.22484">
        <ele>269</ele>
        <time>2024-03-19T05:58:15Z</time>
      </trkpt>
      <trkpt lat="50.03432" lon="4.22485">
        <ele>268.8</ele>
        <time>2024-03-19T05:58:16Z</time>
      </trkpt>
      <trkpt lat="50.03443" lon="4.22484">
        <ele>268</ele>
        <time>2024-03-19T05:58:17Z</time>
      </trkpt>
      <trkpt lat="50.03454" lon="4.22483">
        <ele>267</ele>
        <time>2024-03-19T05:58:18Z</time>
      </trkpt>
      <trkpt lat="50.03465" lon="4.22481">
        <ele>266</ele>
        <time>2024-03-19T05:58:19Z</time>
      </trkpt>
      <trkpt lat="50.03477" lon="4.22478">
        <ele>266</ele>
        <time>2024-03-19T05:58:20Z</time>
      </trkpt>
      <trkpt lat="50.03488" lon="4.22473">
        <ele>265.6</ele>
        <time>2024-03-19T05:58:21Z</time>
      </trkpt>
      <trkpt lat="50.03498" lon="4.22465">
        <ele>265</ele>
        <time>2024-03-19T05:58:22Z</time>
      </trkpt>
      <trkpt lat="50.03508" lon="4.22456">
        <ele>264.6</ele>
        <time>2024-03-19T05:58:23Z</time>
      </trkpt>
      <trkpt lat="50.03517" lon="4.22444">
        <ele>264</ele>
        <time>2024-03-19T05:58:24Z</time>
      </trkpt>
      <trkpt lat="50.03524" lon="4.22431">
        <ele>263.6</ele>
        <time>2024-03-19T05:58:25Z</time>
      </trkpt>
      <trkpt lat="50.03532" lon="4.22418">
        <ele>263.2</ele>
        <time>2024-03-19T05:58:26Z</time>
      </trkpt>
      <trkpt lat="50.03539" lon="4.22406">
        <ele>263</ele>
        <time>2024-03-19T05:58:27Z</time>
      </trkpt>
      <trkpt lat="50.03546" lon="4.22396">
        <ele>262.8</ele>
        <time>2024-03-19T05:58:28Z</time>
      </trkpt>
      <trkpt lat="50.03555" lon="4.22388">
        <ele>261.8</ele>
        <time>2024-03-19T05:58:29Z</time>
      </trkpt>
      <trkpt lat="50.03564" lon="4.22384">
        <ele>261</ele>
        <time>2024-03-19T05:58:30Z</time>
      </trkpt>
      <trkpt lat="50.03573" lon="4.22384">
        <ele>260</ele>
        <time>2024-03-19T05:58:31Z</time>
      </trkpt>
      <trkpt lat="50.03582" lon="4.22388">
        <ele>259</ele>
        <time>2024-03-19T05:58:32Z</time>
      </trkpt>
      <trkpt lat="50.0359" lon="4.22395">
        <ele>258</ele>
        <time>2024-03-19T05:58:33Z</time>
      </trkpt>
      <trkpt lat="50.03598" lon="4.22404">
        <ele>257.6</ele>
        <time>2024-03-19T05:58:34Z</time>
      </trkpt>
      <trkpt lat="50.03607" lon="4.22411">
        <ele>256.6</ele>
        <time>2024-03-19T05:58:35Z</time>
      </trkpt>
      <trkpt lat="50.03615" lon="4.22418">
        <ele>256.6</ele>
        <time>2024-03-19T05:58:36Z</time>
      </trkpt>
      <trkpt lat="50.03623" lon="4.22422">
        <ele>255.8</ele>
        <time>2024-03-19T05:58:37Z</time>
      </trkpt>
      <trkpt lat="50.03632" lon="4.22423">
        <ele>255.2</ele>
        <time>2024-03-19T05:58:38Z</time>
      </trkpt>
      <trkpt lat="50.0364" lon="4.22419">
        <ele>255</ele>
        <time>2024-03-19T05:58:39Z</time>
      </trkpt>
      <trkpt lat="50.03648" lon="4.22412">
        <ele>254.6</ele>
        <time>2024-03-19T05:58:40Z</time>
      </trkpt>
      <trkpt lat="50.03654" lon="4.22404">
        <ele>254.2</ele>
        <time>2024-03-19T05:58:41Z</time>
      </trkpt>
      <trkpt lat="50.03661" lon="4.22394">
        <ele>253.8</ele>
        <time>2024-03-19T05:58:42Z</time>
      </trkpt>
      <trkpt lat="50.03668" lon="4.22385">
        <ele>253.8</ele>
        <time>2024-03-19T05:58:43Z</time>
      </trkpt>
      <trkpt lat="50.03674" lon="4.22375">
        <ele>253.6</ele>
        <time>2024-03-19T05:58:44Z</time>
      </trkpt>
      <trkpt lat="50.03681" lon="4.22367">
        <ele>253.4</ele>
        <time>2024-03-19T05:58:45Z</time>
      </trkpt>
      <trkpt lat="50.03689" lon="4.22359">
        <ele>253.4</ele>
        <time>2024-03-19T05:58:46Z</time>
      </trkpt>
      <trkpt lat="50.03696" lon="4.22351">
        <ele>253</ele>
        <time>2024-03-19T05:58:47Z</time>
      </trkpt>
      <trkpt lat="50.03704" lon="4.22344">
        <ele>252.8</ele>
        <time>2024-03-19T05:58:48Z</time>
      </trkpt>
      <trkpt lat="50.03712" lon="4.22338">
        <ele>252.6</ele>
        <time>2024-03-19T05:58:49Z</time>
      </trkpt>
      <trkpt lat="50.0372" lon="4.22332">
        <ele>252.6</ele>
        <time>2024-03-19T05:58:50Z</time>
      </trkpt>
      <trkpt lat="50.03729" lon="4.22326">
        <ele>252.4</ele>
        <time>2024-03-19T05:58:51Z</time>
      </trkpt>
      <trkpt lat="50.03737" lon="4.22321">
        <ele>252.4</ele>
        <time>2024-03-19T05:58:52Z</time>
      </trkpt>
      <trkpt lat="50.03746" lon="4.22316">
        <ele>252.2</ele>
        <time>2024-03-19T05:58:53Z</time>
      </trkpt>
      <trkpt lat="50.03754" lon="4.22312">
        <ele>251.8</ele>
        <time>2024-03-19T05:58:54Z</time>
      </trkpt>
      <trkpt lat="50.03761" lon="4.22306">
        <ele>251.6</ele>
        <time>2024-03-19T05:58:55Z</time>
      </trkpt>
      <trkpt lat="50.03768" lon="4.223">
        <ele>251.4</ele>
        <time>2024-03-19T05:58:56Z</time>
      </trkpt>
      <trkpt lat="50.03775" lon="4.22292">
        <ele>251.6</ele>
        <time>2024-03-19T05:58:57Z</time>
      </trkpt>
      <trkpt lat="50.0378" lon="4.22283">
        <ele>251.2</ele>
        <time>2024-03-19T05:58:58Z</time>
      </trkpt>
      <trkpt lat="50.03783" lon="4.22273">
        <ele>251.4</ele>
        <time>2024-03-19T05:58:59Z</time>
      </trkpt>
      <trkpt lat="50.03786" lon="4.22263">
        <ele>251.4</ele>
        <time>2024-03-19T05:59:00Z</time>
      </trkpt>
      <trkpt lat="50.03788" lon="4.22253">
        <ele>251.2</ele>
        <time>2024-03-19T05:59:01Z</time>
      </trkpt>
      <trkpt lat="50.03789" lon="4.22243">
        <ele>251.4</ele>
        <time>2024-03-19T05:59:02Z</time>
      </trkpt>
      <trkpt lat="50.03791" lon="4.22233">
        <ele>251.4</ele>
        <time>2024-03-19T05:59:03Z</time>
      </trkpt>
      <trkpt lat="50.03792" lon="4.22223">
        <ele>251.4</ele>
        <time>2024-03-19T05:59:04Z</time>
      </trkpt>
      <trkpt lat="50.03793" lon="4.22214">
        <ele>251.4</ele>
        <time>2024-03-19T05:59:05Z</time>
      </trkpt>
      <trkpt lat="50.03795" lon="4.22205">
        <ele>251.4</ele>
        <time>2024-03-19T05:59:06Z</time>
      </trkpt>
      <trkpt lat="50.03796" lon="4.22195">
        <ele>251.6</ele>
        <time>2024-03-19T05:59:07Z</time>
      </trkpt>
      <trkpt lat="50.03798" lon="4.22187">
        <ele>251.6</ele>
        <time>2024-03-19T05:59:08Z</time>
      </trkpt>
      <trkpt lat="50.038" lon="4.22178">
        <ele>251.6</ele>
        <time>2024-03-19T05:59:09Z</time>
      </trkpt>
      <trkpt lat="50.03802" lon="4.2217">
        <ele>251.8</ele>
        <time>2024-03-19T05:59:10Z</time>
      </trkpt>
      <trkpt lat="50.03805" lon="4.22162">
        <ele>252</ele>
        <time>2024-03-19T05:59:11Z</time>
      </trkpt>
      <trkpt lat="50.03807" lon="4.22154">
        <ele>252.4</ele>
        <time>2024-03-19T05:59:12Z</time>
      </trkpt>
      <trkpt lat="50.0381" lon="4.22146">
        <ele>253</ele>
        <time>2024-03-19T05:59:13Z</time>
      </trkpt>
      <trkpt lat="50.03812" lon="4.22139">
        <ele>253.4</ele>
        <time>2024-03-19T05:59:14Z</time>
      </trkpt>
      <trkpt lat="50.03814" lon="4.22131">
        <ele>254.4</ele>
        <time>2024-03-19T05:59:15Z</time>
      </trkpt>
      <trkpt lat="50.03816" lon="4.22123">
        <ele>255</ele>
        <time>2024-03-19T05:59:16Z</time>
      </trkpt>
      <trkpt lat="50.03818" lon="4.22114">
        <ele>255.8</ele>
        <time>2024-03-19T05:59:17Z</time>
      </trkpt>
      <trkpt lat="50.0382" lon="4.22106">
        <ele>256.4</ele>
        <time>2024-03-19T05:59:18Z</time>
      </trkpt>
      <trkpt lat="50.03821" lon="4.22098">
        <ele>256.8</ele>
        <time>2024-03-19T05:59:19Z</time>
      </trkpt>
      <trkpt lat="50.03823" lon="4.22089">
        <ele>258.2</ele>
        <time>2024-03-19T05:59:20Z</time>
      </trkpt>
      <trkpt lat="50.03825" lon="4.22081">
        <ele>259.2</ele>
        <time>2024-03-19T05:59:21Z</time>
      </trkpt>
      <trkpt lat="50.03826" lon="4.22072">
        <ele>259.6</ele>
        <time>2024-03-19T05:59:22Z</time>
      </trkpt>
      <trkpt lat="50.03828" lon="4.22063">
        <ele>259.8</ele>
        <time>2024-03-19T05:59:23Z</time>
      </trkpt>
      <trkpt lat="50.03829" lon="4.22055">
        <ele>259.8</ele>
        <time>2024-03-19T05:59:24Z</time>
      </trkpt>
      <trkpt lat="50.03831" lon="4.22046">
        <ele>260.2</ele>
        <time>2024-03-19T05:59:25Z</time>
      </trkpt>
      <trkpt lat="50.03832" lon="4.22037">
        <ele>260.6</ele>
        <time>2024-03-19T05:59:26Z</time>
      </trkpt>
      <trkpt lat="50.03833" lon="4.22029">
        <ele>260.8</ele>
        <time>2024-03-19T05:59:27Z</time>
      </trkpt>
      <trkpt lat="50.03835" lon="4.2202">
        <ele>261</ele>
        <time>2024-03-19T05:59:28Z</time>
      </trkpt>
      <trkpt lat="50.03836" lon="4.22011">
        <ele>261.2</ele>
        <time>2024-03-19T05:59:29Z</time>
      </trkpt>
      <trkpt lat="50.03838" lon="4.22003">
        <ele>261.4</ele>
        <time>2024-03-19T05:59:30Z</time>
      </trkpt>
      <trkpt lat="50.03839" lon="4.21994">
        <ele>261.6</ele>
        <time>2024-03-19T05:59:31Z</time>
      </trkpt>
      <trkpt lat="50.03841" lon="4.21986">
        <ele>261.8</ele>
        <time>2024-03-19T05:59:32Z</time>
      </trkpt>
      <trkpt lat="50.03842" lon="4.21977">
        <ele>262.2</ele>
        <time>2024-03-19T05:59:33Z</time>
      </trkpt>
      <trkpt lat="50.03843" lon="4.21968">
        <ele>262.6</ele>
        <time>2024-03-19T05:59:34Z</time>
      </trkpt>
      <trkpt lat="50.03845" lon="4.2196">
        <ele>262.6</ele>
        <time>2024-03-19T05:59:35Z</time>
      </trkpt>
      <trkpt lat="50.03846" lon="4.21951">
        <ele>263.2</ele>
        <time>2024-03-19T05:59:36Z</time>
      </trkpt>
      <trkpt lat="50.03848" lon="4.21943">
        <ele>263.6</ele>
        <time>2024-03-19T05:59:37Z</time>
      </trkpt>
      <trkpt lat="50.03849" lon="4.21934">
        <ele>264</ele>
        <time>2024-03-19T05:59:38Z</time>
      </trkpt>
      <trkpt lat="50.03851" lon="4.21925">
        <ele>264.2</ele>
        <time>2024-03-19T05:59:39Z</time>
      </trkpt>
      <trkpt lat="50.03852" lon="4.21916">
        <ele>264.4</ele>
        <time>2024-03-19T05:59:40Z</time>
      </trkpt>
      <trkpt lat="50.03854" lon="4.21907">
        <ele>264.4</ele>
        <time>2024-03-19T05:59:41Z</time>
      </trkpt>
      <trkpt lat="50.03855" lon="4.21898">
        <ele>264.6</ele>
        <time>2024-03-19T05:59:42Z</time>
      </trkpt>
      <trkpt lat="50.03857" lon="4.21889">
        <ele>264.8</ele>
        <time>2024-03-19T05:59:43Z</time>
      </trkpt>
      <trkpt lat="50.03859" lon="4.21879">
        <ele>265.2</ele>
        <time>2024-03-19T05:59:44Z</time>
      </trkpt>
      <trkpt lat="50.0386" lon="4.2187">
        <ele>265.2</ele>
        <time>2024-03-19T05:59:45Z</time>
      </trkpt>
      <trkpt lat="50.03862" lon="4.2186">
        <ele>265.6</ele>
        <time>2024-03-19T05:59:46Z</time>
      </trkpt>
      <trkpt lat="50.03864" lon="4.2185">
        <ele>265.8</ele>
        <time>2024-03-19T05:59:47Z</time>
      </trkpt>
      <trkpt lat="50.03865" lon="4.2184">
        <ele>266</ele>
        <time>2024-03-19T05:59:48Z</time>
      </trkpt>
      <trkpt lat="50.03867" lon="4.2183">
        <ele>266</ele>
        <time>2024-03-19T05:59:49Z</time>
      </trkpt>
      <trkpt lat="50.03869" lon="4.21819">
        <ele>266.2</ele>
        <time>2024-03-19T05:59:50Z</time>
      </trkpt>
      <trkpt lat="50.03872" lon="4.21809">
        <ele>266</ele>
        <time>2024-03-19T05:59:51Z</time>
      </trkpt>
      <trkpt lat="50.03874" lon="4.21799">
        <ele>266.2</ele>
        <time>2024-03-19T05:59:52Z</time>
      </trkpt>
      <trkpt lat="50.03877" lon="4.21788">
        <ele>266.2</ele>
        <time>2024-03-19T05:59:53Z</time>
      </trkpt>
      <trkpt lat="50.03881" lon="4.21778">
        <ele>266.2</ele>
        <time>2024-03-19T05:59:54Z</time>
      </trkpt>
      <trkpt lat="50.03884" lon="4.21769">
        <ele>266</ele>
        <time>2024-03-19T05:59:55Z</time>
      </trkpt>
      <trkpt lat="50.03889" lon="4.21759">
        <ele>266.2</ele>
        <time>2024-03-19T05:59:56Z</time>
      </trkpt>
      <trkpt lat="50.03893" lon="4.2175">
        <ele>266.2</ele>
        <time>2024-03-19T05:59:57Z</time>
      </trkpt>
      <trkpt lat="50.03898" lon="4.21741">
        <ele>266</ele>
        <time>2024-03-19T05:59:58Z</time>
      </trkpt>
      <trkpt lat="50.03902" lon="4.21732">
        <ele>266</ele>
        <time>2024-03-19T05:59:59Z</time>
      </trkpt>
      <trkpt lat="50.03907" lon="4.21724">
        <ele>266.2</ele>
        <time>2024-03-19T06:00:00Z</time>
      </trkpt>
      <trkpt lat="50.03912" lon="4.21715">
        <ele>266.2</ele>
        <time>2024-03-19T06:00:01Z</time>
      </trkpt>
      <trkpt lat="50.03918" lon="4.21707">
        <ele>266</ele>
        <time>2024-03-19T06:00:02Z</time>
      </trkpt>
      <trkpt lat="50.03923" lon="4.21698">
        <ele>266</ele>
        <time>2024-03-19T06:00:03Z</time>
      </trkpt>
      <trkpt lat="50.03928" lon="4.2169">
        <ele>266</ele>
        <time>2024-03-19T06:00:04Z</time>
      </trkpt>
      <trkpt lat="50.03933" lon="4.21682">
        <ele>266.2</ele>
        <time>2024-03-19T06:00:05Z</time>
      </trkpt>
      <trkpt lat="50.03939" lon="4.21674">
        <ele>266</ele>
        <time>2024-03-19T06:00:06Z</time>
      </trkpt>
      <trkpt lat="50.03945" lon="4.21667">
        <ele>265.8</ele>
        <time>2024-03-19T06:00:07Z</time>
      </trkpt>
      <trkpt lat="50.03951" lon="4.2166">
        <ele>266</ele>
        <time>2024-03-19T06:00:08Z</time>
      </trkpt>
      <trkpt lat="50.03958" lon="4.21655">
        <ele>265.8</ele>
        <time>2024-03-19T06:00:09Z</time>
      </trkpt>
      <trkpt lat="50.03965" lon="4.21652">
        <ele>265.8</ele>
        <time>2024-03-19T06:00:10Z</time>
      </trkpt>
      <trkpt lat="50.03972" lon="4.2165">
        <ele>265.8</ele>
        <time>2024-03-19T06:00:11Z</time>
      </trkpt>
      <trkpt lat="50.0398" lon="4.21649">
        <ele>265.6</ele>
        <time>2024-03-19T06:00:12Z</time>
      </trkpt>
      <trkpt lat="50.03988" lon="4.21648">
        <ele>265.4</ele>
        <time>2024-03-19T06:00:13Z</time>
      </trkpt>
      <trkpt lat="50.03995" lon="4.21648">
        <ele>265.4</ele>
        <time>2024-03-19T06:00:14Z</time>
      </trkpt>
      <trkpt lat="50.04003" lon="4.21647">
        <ele>265.4</ele>
        <time>2024-03-19T06:00:15Z</time>
      </trkpt>
      <trkpt lat="50.04011" lon="4.21647">
        <ele>265.4</ele>
        <time>2024-03-19T06:00:16Z</time>
      </trkpt>
      <trkpt lat="50.04018" lon="4.21644">
        <ele>265.2</ele>
        <time>2024-03-19T06:00:17Z</time>
      </trkpt>
      <trkpt lat="50.04026" lon="4.21639">
        <ele>265</ele>
        <time>2024-03-19T06:00:18Z</time>
      </trkpt>
      <trkpt lat="50.04032" lon="4.21632">
        <ele>264.8</ele>
        <time>2024-03-19T06:00:19Z</time>
      </trkpt>
      <trkpt lat="50.04038" lon="4.21623">
        <ele>264.8</ele>
        <time>2024-03-19T06:00:20Z</time>
      </trkpt>
      <trkpt lat="50.04043" lon="4.21613">
        <ele>264.6</ele>
        <time>2024-03-19T06:00:21Z</time>
      </trkpt>
      <trkpt lat="50.04048" lon="4.21603">
        <ele>264.6</ele>
        <time>2024-03-19T06:00:22Z</time>
      </trkpt>
      <trkpt lat="50.04054" lon="4.21594">
        <ele>264.6</ele>
        <time>2024-03-19T06:00:23Z</time>
      </trkpt>
      <trkpt lat="50.0406" lon="4.21585">
        <ele>264.4</ele>
        <time>2024-03-19T06:00:24Z</time>
      </trkpt>
      <trkpt lat="50.04066" lon="4.21576">
        <ele>264.4</ele>
        <time>2024-03-19T06:00:25Z</time>
      </trkpt>
      <trkpt lat="50.04073" lon="4.21569">
        <ele>264.2</ele>
        <time>2024-03-19T06:00:26Z</time>
      </trkpt>
      <trkpt lat="50.04081" lon="4.21562">
        <ele>264</ele>
        <time>2024-03-19T06:00:27Z</time>
      </trkpt>
      <trkpt lat="50.04089" lon="4.21557">
        <ele>264</ele>
        <time>2024-03-19T06:00:28Z</time>
      </trkpt>
      <trkpt lat="50.04098" lon="4.21554">
        <ele>263.4</ele>
        <time>2024-03-19T06:00:29Z</time>
      </trkpt>
      <trkpt lat="50.04107" lon="4.21552">
        <ele>263.2</ele>
        <time>2024-03-19T06:00:30Z</time>
      </trkpt>
      <trkpt lat="50.04116" lon="4.21551">
        <ele>263</ele>
        <time>2024-03-19T06:00:31Z</time>
      </trkpt>
      <trkpt lat="50.04126" lon="4.21551">
        <ele>262.8</ele>
        <time>2024-03-19T06:00:32Z</time>
      </trkpt>
      <trkpt lat="50.04136" lon="4.21551">
        <ele>262.6</ele>
        <time>2024-03-19T06:00:33Z</time>
      </trkpt>
      <trkpt lat="50.04147" lon="4.21552">
        <ele>262.6</ele>
        <time>2024-03-19T06:00:34Z</time>
      </trkpt>
      <trkpt lat="50.04158" lon="4.21553">
        <ele>262</ele>
        <time>2024-03-19T06:00:35Z</time>
      </trkpt>
      <trkpt lat="50.04169" lon="4.21553">
        <ele>261.8</ele>
        <time>2024-03-19T06:00:36Z</time>
      </trkpt>
      <trkpt lat="50.04181" lon="4.21554">
        <ele>261.4</ele>
        <time>2024-03-19T06:00:37Z</time>
      </trkpt>
      <trkpt lat="50.04194" lon="4.21554">
        <ele>261</ele>
        <time>2024-03-19T06:00:38Z</time>
      </trkpt>
      <trkpt lat="50.04206" lon="4.21554">
        <ele>260.6</ele>
        <time>2024-03-19T06:00:39Z</time>
      </trkpt>
      <trkpt lat="50.04219" lon="4.21554">
        <ele>260.2</ele>
        <time>2024-03-19T06:00:40Z</time>
      </trkpt>
      <trkpt lat="50.04232" lon="4.21554">
        <ele>259.2</ele>
        <time>2024-03-19T06:00:41Z</time>
      </trkpt>
      <trkpt lat="50.04245" lon="4.21555">
        <ele>258.6</ele>
        <time>2024-03-19T06:00:42Z</time>
      </trkpt>
      <trkpt lat="50.04258" lon="4.21555">
        <ele>257.4</ele>
        <time>2024-03-19T06:00:43Z</time>
      </trkpt>
      <trkpt lat="50.04271" lon="4.21555">
        <ele>256.2</ele>
        <time>2024-03-19T06:00:44Z</time>
      </trkpt>
      <trkpt lat="50.04284" lon="4.21555">
        <ele>254.6</ele>
        <time>2024-03-19T06:00:45Z</time>
      </trkpt>
      <trkpt lat="50.04297" lon="4.21551">
        <ele>253.2</ele>
        <time>2024-03-19T06:00:46Z</time>
      </trkpt>
      <trkpt lat="50.0431" lon="4.21544">
        <ele>251.8</ele>
        <time>2024-03-19T06:00:47Z</time>
      </trkpt>
      <trkpt lat="50.04321" lon="4.21533">
        <ele>250.4</ele>
        <time>2024-03-19T06:00:48Z</time>
      </trkpt>
      <trkpt lat="50.04332" lon="4.21519">
        <ele>249.2</ele>
        <time>2024-03-19T06:00:49Z</time>
      </trkpt>
      <trkpt lat="50.04342" lon="4.21503">
        <ele>249.2</ele>
        <time>2024-03-19T06:00:50Z</time>
      </trkpt>
      <trkpt lat="50.04351" lon="4.21487">
        <ele>248.2</ele>
        <time>2024-03-19T06:00:51Z</time>
      </trkpt>
      <trkpt lat="50.04361" lon="4.2147">
        <ele>247</ele>
        <time>2024-03-19T06:00:52Z</time>
      </trkpt>
      <trkpt lat="50.0437" lon="4.21452">
        <ele>246.2</ele>
        <time>2024-03-19T06:00:53Z</time>
      </trkpt>
      <trkpt lat="50.04379" lon="4.21434">
        <ele>245.8</ele>
        <time>2024-03-19T06:00:54Z</time>
      </trkpt>
      <trkpt lat="50.04387" lon="4.21415">
        <ele>245.4</ele>
        <time>2024-03-19T06:00:55Z</time>
      </trkpt>
      <trkpt lat="50.04395" lon="4.21396">
        <ele>244.6</ele>
        <time>2024-03-19T06:00:56Z</time>
      </trkpt>
      <trkpt lat="50.04404" lon="4.21377">
        <ele>243.6</ele>
        <time>2024-03-19T06:00:57Z</time>
      </trkpt>
      <trkpt lat="50.04411" lon="4.21357">
        <ele>242.6</ele>
        <time>2024-03-19T06:00:58Z</time>
      </trkpt>
      <trkpt lat="50.04419" lon="4.21338">
        <ele>241.2</ele>
        <time>2024-03-19T06:00:59Z</time>
      </trkpt>
      <trkpt lat="50.04426" lon="4.21319">
        <ele>239.8</ele>
        <time>2024-03-19T06:01:00Z</time>
      </trkpt>
      <trkpt lat="50.04434" lon="4.21301">
        <ele>238.8</ele>
        <time>2024-03-19T06:01:01Z</time>
      </trkpt>
      <trkpt lat="50.04442" lon="4.21283">
        <ele>237</ele>
        <time>2024-03-19T06:01:02Z</time>
      </trkpt>
      <trkpt lat="50.04451" lon="4.21266">
        <ele>235.2</ele>
        <time>2024-03-19T06:01:03Z</time>
      </trkpt>
      <trkpt lat="50.04459" lon="4.2125">
        <ele>233.2</ele>
        <time>2024-03-19T06:01:04Z</time>
      </trkpt>
      <trkpt lat="50.04468" lon="4.21235">
        <ele>231.8</ele>
        <time>2024-03-19T06:01:05Z</time>
      </trkpt>
      <trkpt lat="50.04477" lon="4.2122">
        <ele>231</ele>
        <time>2024-03-19T06:01:06Z</time>
      </trkpt>
      <trkpt lat="50.04486" lon="4.21207">
        <ele>231</ele>
        <time>2024-03-19T06:01:07Z</time>
      </trkpt>
      <trkpt lat="50.04496" lon="4.21194">
        <ele>229.4</ele>
        <time>2024-03-19T06:01:08Z</time>
      </trkpt>
      <trkpt lat="50.04506" lon="4.21182">
        <ele>228.4</ele>
        <time>2024-03-19T06:01:09Z</time>
      </trkpt>
      <trkpt lat="50.04516" lon="4.21171">
        <ele>227.4</ele>
        <time>2024-03-19T06:01:10Z</time>
      </trkpt>
      <trkpt lat="50.04525" lon="4.21161">
        <ele>226.8</ele>
        <time>2024-03-19T06:01:11Z</time>
      </trkpt>
      <trkpt lat="50.04535" lon="4.21151">
        <ele>226.6</ele>
        <time>2024-03-19T06:01:12Z</time>
      </trkpt>
      <trkpt lat="50.04545" lon="4.21143">
        <ele>226.4</ele>
        <time>2024-03-19T06:01:13Z</time>
      </trkpt>
      <trkpt lat="50.04556" lon="4.21135">
        <ele>226.4</ele>
        <time>2024-03-19T06:01:14Z</time>
      </trkpt>
      <trkpt lat="50.04566" lon="4.21128">
        <ele>226.4</ele>
        <time>2024-03-19T06:01:15Z</time>
      </trkpt>
      <trkpt lat="50.04577" lon="4.21122">
        <ele>226.2</ele>
        <time>2024-03-19T06:01:16Z</time>
      </trkpt>
      <trkpt lat="50.04588" lon="4.21116">
        <ele>226.2</ele>
        <time>2024-03-19T06:01:17Z</time>
      </trkpt>
      <trkpt lat="50.04598" lon="4.21111">
        <ele>226</ele>
        <time>2024-03-19T06:01:18Z</time>
      </trkpt>
      <trkpt lat="50.04609" lon="4.21106">
        <ele>226</ele>
        <time>2024-03-19T06:01:19Z</time>
      </trkpt>
      <trkpt lat="50.0462" lon="4.21101">
        <ele>226</ele>
        <time>2024-03-19T06:01:20Z</time>
      </trkpt>
      <trkpt lat="50.0463" lon="4.21097">
        <ele>226.2</ele>
        <time>2024-03-19T06:01:21Z</time>
      </trkpt>
      <trkpt lat="50.04641" lon="4.21092">
        <ele>226</ele>
        <time>2024-03-19T06:01:22Z</time>
      </trkpt>
      <trkpt lat="50.04651" lon="4.21088">
        <ele>226.2</ele>
        <time>2024-03-19T06:01:23Z</time>
      </trkpt>
      <trkpt lat="50.04662" lon="4.21084">
        <ele>226.2</ele>
        <time>2024-03-19T06:01:24Z</time>
      </trkpt>
      <trkpt lat="50.04672" lon="4.2108">
        <ele>226.2</ele>
        <time>2024-03-19T06:01:25Z</time>
      </trkpt>
      <trkpt lat="50.04683" lon="4.21075">
        <ele>226.2</ele>
        <time>2024-03-19T06:01:26Z</time>
      </trkpt>
      <trkpt lat="50.04693" lon="4.21071">
        <ele>226</ele>
        <time>2024-03-19T06:01:27Z</time>
      </trkpt>
      <trkpt lat="50.04704" lon="4.21067">
        <ele>226</ele>
        <time>2024-03-19T06:01:28Z</time>
      </trkpt>
      <trkpt lat="50.04714" lon="4.21063">
        <ele>226.2</ele>
        <time>2024-03-19T06:01:29Z</time>
      </trkpt>
      <trkpt lat="50.04725" lon="4.21058">
        <ele>226</ele>
        <time>2024-03-19T06:01:30Z</time>
      </trkpt>
      <trkpt lat="50.04735" lon="4.21053">
        <ele>226</ele>
        <time>2024-03-19T06:01:31Z</time>
      </trkpt>
      <trkpt lat="50.04746" lon="4.21049">
        <ele>226</ele>
        <time>2024-03-19T06:01:32Z</time>
      </trkpt>
      <trkpt lat="50.04756" lon="4.21043">
        <ele>225.8</ele>
        <time>2024-03-19T06:01:33Z</time>
      </trkpt>
      <trkpt lat="50.04766" lon="4.21037">
        <ele>225.4</ele>
        <time>2024-03-19T06:01:34Z</time>
      </trkpt>
      <trkpt lat="50.04776" lon="4.21031">
        <ele>225.2</ele>
        <time>2024-03-19T06:01:35Z</time>
      </trkpt>
      <trkpt lat="50.04785" lon="4.21024">
        <ele>225</ele>
        <time>2024-03-19T06:01:36Z</time>
      </trkpt>
      <trkpt lat="50.04795" lon="4.21016">
        <ele>224.8</ele>
        <time>2024-03-19T06:01:37Z</time>
      </trkpt>
      <trkpt lat="50.04804" lon="4.21008">
        <ele>224.8</ele>
        <time>2024-03-19T06:01:38Z</time>
      </trkpt>
      <trkpt lat="50.04813" lon="4.20999">
        <ele>224.6</ele>
        <time>2024-03-19T06:01:39Z</time>
      </trkpt>
      <trkpt lat="50.04822" lon="4.20991">
        <ele>224.6</ele>
        <time>2024-03-19T06:01:40Z</time>
      </trkpt>
      <trkpt lat="50.04831" lon="4.20982">
        <ele>224.6</ele>
        <time>2024-03-19T06:01:41Z</time>
      </trkpt>
      <trkpt lat="50.04841" lon="4.20974">
        <ele>224.4</ele>
        <time>2024-03-19T06:01:42Z</time>
      </trkpt>
      <trkpt lat="50.0485" lon="4.20964">
        <ele>224.4</ele>
        <time>2024-03-19T06:01:43Z</time>
      </trkpt>
      <trkpt lat="50.04858" lon="4.20955">
        <ele>224</ele>
        <time>2024-03-19T06:01:44Z</time>
      </trkpt>
      <trkpt lat="50.04867" lon="4.20945">
        <ele>223.4</ele>
        <time>2024-03-19T06:01:45Z</time>
      </trkpt>
      <trkpt lat="50.04875" lon="4.20935">
        <ele>223.2</ele>
        <time>2024-03-19T06:01:46Z</time>
      </trkpt>
      <trkpt lat="50.04883" lon="4.20924">
        <ele>222.8</ele>
        <time>2024-03-19T06:01:47Z</time>
      </trkpt>
      <trkpt lat="50.04891" lon="4.20912">
        <ele>222.4</ele>
        <time>2024-03-19T06:01:48Z</time>
      </trkpt>
      <trkpt lat="50.04899" lon="4.209">
        <ele>222</ele>
        <time>2024-03-19T06:01:49Z</time>
      </trkpt>
      <trkpt lat="50.04907" lon="4.20887">
        <ele>222</ele>
        <time>2024-03-19T06:01:50Z</time>
      </trkpt>
      <trkpt lat="50.04915" lon="4.20874">
        <ele>221.6</ele>
        <time>2024-03-19T06:01:51Z</time>
      </trkpt>
      <trkpt lat="50.04925" lon="4.20863">
        <ele>221.6</ele>
        <time>2024-03-19T06:01:52Z</time>
      </trkpt>
      <trkpt lat="50.04936" lon="4.20855">
        <ele>221.4</ele>
        <time>2024-03-19T06:01:53Z</time>
      </trkpt>
      <trkpt lat="50.04948" lon="4.20849">
        <ele>221.4</ele>
        <time>2024-03-19T06:01:54Z</time>
      </trkpt>
      <trkpt lat="50.04961" lon="4.20845">
        <ele>221.2</ele>
        <time>2024-03-19T06:01:55Z</time>
      </trkpt>
      <trkpt lat="50.04974" lon="4.20844">
        <ele>220.8</ele>
        <time>2024-03-19T06:01:56Z</time>
      </trkpt>
      <trkpt lat="50.04987" lon="4.20848">
        <ele>220.8</ele>
        <time>2024-03-19T06:01:57Z</time>
      </trkpt>
      <trkpt lat="50.05" lon="4.20854">
        <ele>220.4</ele>
        <time>2024-03-19T06:01:58Z</time>
      </trkpt>
      <trkpt lat="50.05013" lon="4.20862">
        <ele>220</ele>
        <time>2024-03-19T06:01:59Z</time>
      </trkpt>
      <trkpt lat="50.05026" lon="4.20871">
        <ele>218.6</ele>
        <time>2024-03-19T06:02:00Z</time>
      </trkpt>
      <trkpt lat="50.05038" lon="4.2088">
        <ele>217</ele>
        <time>2024-03-19T06:02:01Z</time>
      </trkpt>
      <trkpt lat="50.05051" lon="4.2089">
        <ele>215.6</ele>
        <time>2024-03-19T06:02:02Z</time>
      </trkpt>
      <trkpt lat="50.05063" lon="4.209">
        <ele>214.6</ele>
        <time>2024-03-19T06:02:03Z</time>
      </trkpt>
      <trkpt lat="50.05074" lon="4.2091">
        <ele>212.2</ele>
        <time>2024-03-19T06:02:04Z</time>
      </trkpt>
      <trkpt lat="50.05086" lon="4.20921">
        <ele>210.6</ele>
        <time>2024-03-19T06:02:05Z</time>
      </trkpt>
      <trkpt lat="50.05096" lon="4.20932">
        <ele>209.4</ele>
        <time>2024-03-19T06:02:06Z</time>
      </trkpt>
      <trkpt lat="50.05106" lon="4.20944">
        <ele>208.4</ele>
        <time>2024-03-19T06:02:07Z</time>
      </trkpt>
      <trkpt lat="50.05116" lon="4.20956">
        <ele>207.8</ele>
        <time>2024-03-19T06:02:08Z</time>
      </trkpt>
      <trkpt lat="50.05126" lon="4.20967">
        <ele>207</ele>
        <time>2024-03-19T06:02:09Z</time>
      </trkpt>
      <trkpt lat="50.05136" lon="4.20977">
        <ele>206.8</ele>
        <time>2024-03-19T06:02:10Z</time>
      </trkpt>
      <trkpt lat="50.05145" lon="4.20987">
        <ele>206.6</ele>
        <time>2024-03-19T06:02:11Z</time>
      </trkpt>
      <trkpt lat="50.05154" lon="4.20996">
        <ele>206.4</ele>
        <time>2024-03-19T06:02:12Z</time>
      </trkpt>
      <trkpt lat="50.05164" lon="4.21002">
        <ele>206.4</ele>
        <time>2024-03-19T06:02:13Z</time>
      </trkpt>
      <trkpt lat="50.05173" lon="4.21007">
        <ele>206.4</ele>
        <time>2024-03-19T06:02:14Z</time>
      </trkpt>
      <trkpt lat="50.05181" lon="4.21009">
        <ele>206.4</ele>
        <time>2024-03-19T06:02:15Z</time>
      </trkpt>
      <trkpt lat="50.05189" lon="4.2101">
        <ele>206.4</ele>
        <time>2024-03-19T06:02:16Z</time>
      </trkpt>
      <trkpt lat="50.05196" lon="4.2101">
        <ele>206.4</ele>
        <time>2024-03-19T06:02:17Z</time>
      </trkpt>
      <trkpt lat="50.05202" lon="4.2101">
        <ele>206.2</ele>
        <time>2024-03-19T06:02:18Z</time>
      </trkpt>
      <trkpt lat="50.05207" lon="4.2101">
        <ele>206.4</ele>
        <time>2024-03-19T06:02:19Z</time>
      </trkpt>
      <trkpt lat="50.05209" lon="4.2101">
        <ele>206.4</ele>
        <time>2024-03-19T06:02:20Z</time>
      </trkpt>
      <trkpt lat="50.05211" lon="4.2101">
        <ele>206.6</ele>
        <time>2024-03-19T06:02:21Z</time>
      </trkpt>
      <trkpt lat="50.05213" lon="4.2101">
        <ele>207.2</ele>
        <time>2024-03-19T06:02:22Z</time>
      </trkpt>
      <trkpt lat="50.05214" lon="4.2101">
        <ele>208</ele>
        <time>2024-03-19T06:02:23Z</time>
      </trkpt>
      <trkpt lat="50.05217" lon="4.2101">
        <ele>209</ele>
        <time>2024-03-19T06:02:24Z</time>
      </trkpt>
      <trkpt lat="50.05219" lon="4.2101">
        <ele>210</ele>
        <time>2024-03-19T06:02:25Z</time>
      </trkpt>
      <trkpt lat="50.05223" lon="4.2101">
        <ele>211.2</ele>
        <time>2024-03-19T06:02:26Z</time>
      </trkpt>
      <trkpt lat="50.05226" lon="4.21009">
        <ele>212</ele>
        <time>2024-03-19T06:02:27Z</time>
      </trkpt>
      <trkpt lat="50.0523" lon="4.21008">
        <ele>212.8</ele>
        <time>2024-03-19T06:02:28Z</time>
      </trkpt>
      <trkpt lat="50.05235" lon="4.21007">
        <ele>213.4</ele>
        <time>2024-03-19T06:02:29Z</time>
      </trkpt>
      <trkpt lat="50.0524" lon="4.21005">
        <ele>213.4</ele>
        <time>2024-03-19T06:02:30Z</time>
      </trkpt>
      <trkpt lat="50.05245" lon="4.21004">
        <ele>213.8</ele>
        <time>2024-03-19T06:02:31Z</time>
      </trkpt>
      <trkpt lat="50.05252" lon="4.21003">
        <ele>213.8</ele>
        <time>2024-03-19T06:02:32Z</time>
      </trkpt>
      <trkpt lat="50.05258" lon="4.21003">
        <ele>213.8</ele>
        <time>2024-03-19T06:02:33Z</time>
      </trkpt>
      <trkpt lat="50.05265" lon="4.21002">
        <ele>214</ele>
        <time>2024-03-19T06:02:34Z</time>
      </trkpt>
      <trkpt lat="50.05272" lon="4.21002">
        <ele>214</ele>
        <time>2024-03-19T06:02:35Z</time>
      </trkpt>
      <trkpt lat="50.05279" lon="4.21001">
        <ele>213.8</ele>
        <time>2024-03-19T06:02:36Z</time>
      </trkpt>
      <trkpt lat="50.05287" lon="4.21001">
        <ele>214</ele>
        <time>2024-03-19T06:02:37Z</time>
      </trkpt>
      <trkpt lat="50.05294" lon="4.21">
        <ele>214</ele>
        <time>2024-03-19T06:02:38Z</time>
      </trkpt>
      <trkpt lat="50.05301" lon="4.20999">
        <ele>214</ele>
        <time>2024-03-19T06:02:39Z</time>
      </trkpt>
      <trkpt lat="50.05308" lon="4.20999">
        <ele>214</ele>
        <time>2024-03-19T06:02:40Z</time>
      </trkpt>
      <trkpt lat="50.05315" lon="4.20999">
        <ele>214</ele>
        <time>2024-03-19T06:02:41Z</time>
      </trkpt>
      <trkpt lat="50.05322" lon="4.20998">
        <ele>213.8</ele>
        <time>2024-03-19T06:02:42Z</time>
      </trkpt>
      <trkpt lat="50.05329" lon="4.20997">
        <ele>213.6</ele>
        <time>2024-03-19T06:02:43Z</time>
      </trkpt>
      <trkpt lat="50.05336" lon="4.20997">
        <ele>213.6</ele>
        <time>2024-03-19T06:02:44Z</time>
      </trkpt>
      <trkpt lat="50.05343" lon="4.20996">
        <ele>213.4</ele>
        <time>2024-03-19T06:02:45Z</time>
      </trkpt>
      <trkpt lat="50.05349" lon="4.20995">
        <ele>213.4</ele>
        <time>2024-03-19T06:02:46Z</time>
      </trkpt>
      <trkpt lat="50.05356" lon="4.20995">
        <ele>213.2</ele>
        <time>2024-03-19T06:02:47Z</time>
      </trkpt>
      <trkpt lat="50.05362" lon="4.20995">
        <ele>213.2</ele>
        <time>2024-03-19T06:02:48Z</time>
      </trkpt>
      <trkpt lat="50.05369" lon="4.20994">
        <ele>213</ele>
        <time>2024-03-19T06:02:49Z</time>
      </trkpt>
      <trkpt lat="50.05375" lon="4.20994">
        <ele>213</ele>
        <time>2024-03-19T06:02:50Z</time>
      </trkpt>
      <trkpt lat="50.05381" lon="4.20994">
        <ele>213</ele>
        <time>2024-03-19T06:02:51Z</time>
      </trkpt>
      <trkpt lat="50.05387" lon="4.20995">
        <ele>213</ele>
        <time>2024-03-19T06:02:52Z</time>
      </trkpt>
      <trkpt lat="50.05393" lon="4.20995">
        <ele>212.8</ele>
        <time>2024-03-19T06:02:53Z</time>
      </trkpt>
      <trkpt lat="50.05399" lon="4.20996">
        <ele>213</ele>
        <time>2024-03-19T06:02:54Z</time>
      </trkpt>
      <trkpt lat="50.05405" lon="4.20997">
        <ele>212.8</ele>
        <time>2024-03-19T06:02:55Z</time>
      </trkpt>
      <trkpt lat="50.05411" lon="4.20997">
        <ele>212.8</ele>
        <time>2024-03-19T06:02:56Z</time>
      </trkpt>
      <trkpt lat="50.05417" lon="4.20998">
        <ele>212.8</ele>
        <time>2024-03-19T06:02:57Z</time>
      </trkpt>
      <trkpt lat="50.05423" lon="4.20998">
        <ele>213</ele>
        <time>2024-03-19T06:02:58Z</time>
      </trkpt>
      <trkpt lat="50.05429" lon="4.20998">
        <ele>213</ele>
        <time>2024-03-19T06:02:59Z</time>
      </trkpt>
      <trkpt lat="50.05434" lon="4.20997">
        <ele>213.2</ele>
        <time>2024-03-19T06:03:00Z</time>
      </trkpt>
      <trkpt lat="50.0544" lon="4.20995">
        <ele>213.2</ele>
        <time>2024-03-19T06:03:01Z</time>
      </trkpt>
      <trkpt lat="50.05445" lon="4.20993">
        <ele>213.4</ele>
        <time>2024-03-19T06:03:02Z</time>
      </trkpt>
      <trkpt lat="50.0545" lon="4.20989">
        <ele>213.4</ele>
        <time>2024-03-19T06:03:03Z</time>
      </trkpt>
      <trkpt lat="50.05456" lon="4.20986">
        <ele>213.8</ele>
        <time>2024-03-19T06:03:04Z</time>
      </trkpt>
      <trkpt lat="50.05461" lon="4.20982">
        <ele>214.2</ele>
        <time>2024-03-19T06:03:05Z</time>
      </trkpt>
      <trkpt lat="50.05466" lon="4.20978">
        <ele>214.4</ele>
        <time>2024-03-19T06:03:06Z</time>
      </trkpt>
      <trkpt lat="50.05472" lon="4.20975">
        <ele>214.6</ele>
        <time>2024-03-19T06:03:07Z</time>
      </trkpt>
      <trkpt lat="50.05477" lon="4.20971">
        <ele>214.8</ele>
        <time>2024-03-19T06:03:08Z</time>
      </trkpt>
      <trkpt lat="50.05482" lon="4.20967">
        <ele>215.4</ele>
        <time>2024-03-19T06:03:09Z</time>
      </trkpt>
      <trkpt lat="50.05488" lon="4.20963">
        <ele>215.8</ele>
        <time>2024-03-19T06:03:10Z</time>
      </trkpt>
      <trkpt lat="50.05493" lon="4.20959">
        <ele>216</ele>
        <time>2024-03-19T06:03:11Z</time>
      </trkpt>
      <trkpt lat="50.05499" lon="4.20954">
        <ele>216.4</ele>
        <time>2024-03-19T06:03:12Z</time>
      </trkpt>
      <trkpt lat="50.05505" lon="4.2095">
        <ele>216.6</ele>
        <time>2024-03-19T06:03:13Z</time>
      </trkpt>
      <trkpt lat="50.05511" lon="4.20945">
        <ele>217</ele>
        <time>2024-03-19T06:03:14Z</time>
      </trkpt>
      <trkpt lat="50.05517" lon="4.2094">
        <ele>217.4</ele>
        <time>2024-03-19T06:03:15Z</time>
      </trkpt>
      <trkpt lat="50.05523" lon="4.20935">
        <ele>217.6</ele>
        <time>2024-03-19T06:03:16Z</time>
      </trkpt>
      <trkpt lat="50.0553" lon="4.2093">
        <ele>217.8</ele>
        <time>2024-03-19T06:03:17Z</time>
      </trkpt>
      <trkpt lat="50.05537" lon="4.20925">
        <ele>217.8</ele>
        <time>2024-03-19T06:03:18Z</time>
      </trkpt>
      <trkpt lat="50.05544" lon="4.20919">
        <ele>217.8</ele>
        <time>2024-03-19T06:03:19Z</time>
      </trkpt>
      <trkpt lat="50.05551" lon="4.20913">
        <ele>218</ele>
        <time>2024-03-19T06:03:20Z</time>
      </trkpt>
      <trkpt lat="50.05558" lon="4.20907">
        <ele>218</ele>
        <time>2024-03-19T06:03:21Z</time>
      </trkpt>
      <trkpt lat="50.05565" lon="4.20902">
        <ele>217.8</ele>
        <time>2024-03-19T06:03:22Z</time>
      </trkpt>
      <trkpt lat="50.05573" lon="4.20896">
        <ele>218</ele>
        <time>2024-03-19T06:03:23Z</time>
      </trkpt>
      <trkpt lat="50.0558" lon="4.2089">
        <ele>218</ele>
        <time>2024-03-19T06:03:24Z</time>
      </trkpt>
      <trkpt lat="50.05588" lon="4.20883">
        <ele>217.8</ele>
        <time>2024-03-19T06:03:25Z</time>
      </trkpt>
      <trkpt lat="50.05595" lon="4.20877">
        <ele>218</ele>
        <time>2024-03-19T06:03:26Z</time>
      </trkpt>
      <trkpt lat="50.05603" lon="4.2087">
        <ele>217.8</ele>
        <time>2024-03-19T06:03:27Z</time>
      </trkpt>
      <trkpt lat="50.0561" lon="4.20864">
        <ele>217.2</ele>
        <time>2024-03-19T06:03:28Z</time>
      </trkpt>
      <trkpt lat="50.05618" lon="4.20857">
        <ele>217</ele>
        <time>2024-03-19T06:03:29Z</time>
      </trkpt>
      <trkpt lat="50.05626" lon="4.20851">
        <ele>216.6</ele>
        <time>2024-03-19T06:03:30Z</time>
      </trkpt>
      <trkpt lat="50.05634" lon="4.20845">
        <ele>216</ele>
        <time>2024-03-19T06:03:31Z</time>
      </trkpt>
      <trkpt lat="50.05642" lon="4.20839">
        <ele>215.4</ele>
        <time>2024-03-19T06:03:32Z</time>
      </trkpt>
      <trkpt lat="50.05651" lon="4.20832">
        <ele>215</ele>
        <time>2024-03-19T06:03:33Z</time>
      </trkpt>
      <trkpt lat="50.05659" lon="4.20825">
        <ele>214.8</ele>
        <time>2024-03-19T06:03:34Z</time>
      </trkpt>
      <trkpt lat="50.05667" lon="4.20818">
        <ele>214.4</ele>
        <time>2024-03-19T06:03:35Z</time>
      </trkpt>
      <trkpt lat="50.05676" lon="4.20811">
        <ele>214.4</ele>
        <time>2024-03-19T06:03:36Z</time>
      </trkpt>
      <trkpt lat="50.05684" lon="4.20804">
        <ele>214</ele>
        <time>2024-03-19T06:03:37Z</time>
      </trkpt>
      <trkpt lat="50.05692" lon="4.20798">
        <ele>213.4</ele>
        <time>2024-03-19T06:03:38Z</time>
      </trkpt>
      <trkpt lat="50.057" lon="4.20792">
        <ele>213.2</ele>
        <time>2024-03-19T06:03:39Z</time>
      </trkpt>
      <trkpt lat="50.05708" lon="4.20786">
        <ele>212.8</ele>
        <time>2024-03-19T06:03:40Z</time>
      </trkpt>
      <trkpt lat="50.05715" lon="4.2078">
        <ele>212.4</ele>
        <time>2024-03-19T06:03:41Z</time>
      </trkpt>
      <trkpt lat="50.05722" lon="4.20776">
        <ele>212.2</ele>
        <time>2024-03-19T06:03:42Z</time>
      </trkpt>
      <trkpt lat="50.05729" lon="4.20771">
        <ele>212.2</ele>
        <time>2024-03-19T06:03:43Z</time>
      </trkpt>
      <trkpt lat="50.05735" lon="4.20766">
        <ele>212</ele>
        <time>2024-03-19T06:03:44Z</time>
      </trkpt>
      <trkpt lat="50.0574" lon="4.20761">
        <ele>212</ele>
        <time>2024-03-19T06:03:45Z</time>
      </trkpt>
      <trkpt lat="50.05746" lon="4.20757">
        <ele>212</ele>
        <time>2024-03-19T06:03:46Z</time>
      </trkpt>
      <trkpt lat="50.05752" lon="4.20753">
        <ele>212</ele>
        <time>2024-03-19T06:03:47Z</time>
      </trkpt>
      <trkpt lat="50.05757" lon="4.20749">
        <ele>212</ele>
        <time>2024-03-19T06:03:48Z</time>
      </trkpt>
      <trkpt lat="50.05762" lon="4.20745">
        <ele>212</ele>
        <time>2024-03-19T06:03:49Z</time>
      </trkpt>
      <trkpt lat="50.05767" lon="4.20742">
        <ele>212</ele>
        <time>2024-03-19T06:03:50Z</time>
      </trkpt>
      <trkpt lat="50.05771" lon="4.20738">
        <ele>212</ele>
        <time>2024-03-19T06:03:51Z</time>
      </trkpt>
      <trkpt lat="50.05776" lon="4.20735">
        <ele>212.4</ele>
        <time>2024-03-19T06:03:52Z</time>
      </trkpt>
      <trkpt lat="50.05781" lon="4.20732">
        <ele>213</ele>
        <time>2024-03-19T06:03:53Z</time>
      </trkpt>
      <trkpt lat="50.05785" lon="4.20728">
        <ele>213.4</ele>
        <time>2024-03-19T06:03:54Z</time>
      </trkpt>
      <trkpt lat="50.05789" lon="4.20725">
        <ele>213.8</ele>
        <time>2024-03-19T06:03:55Z</time>
      </trkpt>
      <trkpt lat="50.05793" lon="4.20722">
        <ele>214.2</ele>
        <time>2024-03-19T06:03:56Z</time>
      </trkpt>
      <trkpt lat="50.05796" lon="4.20719">
        <ele>214.2</ele>
        <time>2024-03-19T06:03:57Z</time>
      </trkpt>
      <trkpt lat="50.058" lon="4.20716">
        <ele>214.6</ele>
        <time>2024-03-19T06:03:58Z</time>
      </trkpt>
      <trkpt lat="50.05802" lon="4.20714">
        <ele>215</ele>
        <time>2024-03-19T06:03:59Z</time>
      </trkpt>
      <trkpt lat="50.05805" lon="4.20712">
        <ele>215.2</ele>
        <time>2024-03-19T06:04:00Z</time>
      </trkpt>
      <trkpt lat="50.05807" lon="4.20711">
        <ele>216</ele>
        <time>2024-03-19T06:04:01Z</time>
      </trkpt>
      <trkpt lat="50.05807" lon="4.2071">
        <ele>216.6</ele>
        <time>2024-03-19T06:04:02Z</time>
      </trkpt>
      <trkpt lat="50.05807" lon="4.2071">
        <ele>217.2</ele>
        <time>2024-03-19T06:04:03Z</time>
      </trkpt>
      <trkpt lat="50.05808" lon="4.2071">
        <ele>217.6</ele>
        <time>2024-03-19T06:04:04Z</time>
      </trkpt>
      <trkpt lat="50.05808" lon="4.2071">
        <ele>218</ele>
        <time>2024-03-19T06:04:05Z</time>
      </trkpt>
      <trkpt lat="50.05808" lon="4.2071">
        <ele>218.4</ele>
        <time>2024-03-19T06:04:06Z</time>
      </trkpt>
      <trkpt lat="50.05808" lon="4.2071">
        <ele>218.8</ele>
        <time>2024-03-19T06:04:07Z</time>
      </trkpt>
      <trkpt lat="50.05808" lon="4.2071">
        <ele>219.2</ele>
        <time>2024-03-19T06:04:08Z</time>
      </trkpt>
      <trkpt lat="50.05811" lon="4.20706">
        <ele>220</ele>
        <time>2024-03-19T06:04:45Z</time>
      </trkpt>
      <trkpt lat="50.05813" lon="4.20704">
        <ele>219.8</ele>
        <time>2024-03-19T06:04:46Z</time>
      </trkpt>
      <trkpt lat="50.05816" lon="4.20702">
        <ele>220</ele>
        <time>2024-03-19T06:04:47Z</time>
      </trkpt>
      <trkpt lat="50.05819" lon="4.207">
        <ele>219.8</ele>
        <time>2024-03-19T06:04:48Z</time>
      </trkpt>
      <trkpt lat="50.05823" lon="4.20697">
        <ele>219.8</ele>
        <time>2024-03-19T06:04:49Z</time>
      </trkpt>
      <trkpt lat="50.05828" lon="4.20694">
        <ele>220</ele>
        <time>2024-03-19T06:04:50Z</time>
      </trkpt>
      <trkpt lat="50.05833" lon="4.2069">
        <ele>220</ele>
        <time>2024-03-19T06:04:51Z</time>
      </trkpt>
      <trkpt lat="50.05837" lon="4.20686">
        <ele>220</ele>
        <time>2024-03-19T06:04:52Z</time>
      </trkpt>
      <trkpt lat="50.05842" lon="4.20682">
        <ele>219.8</ele>
        <time>2024-03-19T06:04:53Z</time>
      </trkpt>
      <trkpt lat="50.05847" lon="4.20678">
        <ele>219.8</ele>
        <time>2024-03-19T06:04:54Z</time>
      </trkpt>
      <trkpt lat="50.05852" lon="4.20673">
        <ele>219.8</ele>
        <time>2024-03-19T06:04:55Z</time>
      </trkpt>
      <trkpt lat="50.05858" lon="4.20669">
        <ele>219.8</ele>
        <time>2024-03-19T06:04:56Z</time>
      </trkpt>
      <trkpt lat="50.05863" lon="4.20664">
        <ele>219.8</ele>
        <time>2024-03-19T06:04:57Z</time>
      </trkpt>
      <trkpt lat="50.0587" lon="4.20659">
        <ele>219.4</ele>
        <time>2024-03-19T06:04:58Z</time>
      </trkpt>
      <trkpt lat="50.05877" lon="4.20653">
        <ele>219.4</ele>
        <time>2024-03-19T06:04:59Z</time>
      </trkpt>
      <trkpt lat="50.05884" lon="4.20647">
        <ele>219.2</ele>
        <time>2024-03-19T06:05:00Z</time>
      </trkpt>
      <trkpt lat="50.05891" lon="4.20642">
        <ele>218.4</ele>
        <time>2024-03-19T06:05:01Z</time>
      </trkpt>
      <trkpt lat="50.05899" lon="4.20636">
        <ele>218</ele>
        <time>2024-03-19T06:05:02Z</time>
      </trkpt>
      <trkpt lat="50.05907" lon="4.20631">
        <ele>217.8</ele>
        <time>2024-03-19T06:05:03Z</time>
      </trkpt>
      <trkpt lat="50.05915" lon="4.20626">
        <ele>217.6</ele>
        <time>2024-03-19T06:05:04Z</time>
      </trkpt>
      <trkpt lat="50.05924" lon="4.20621">
        <ele>217.2</ele>
        <time>2024-03-19T06:05:05Z</time>
      </trkpt>
      <trkpt lat="50.05933" lon="4.20616">
        <ele>216.6</ele>
        <time>2024-03-19T06:05:06Z</time>
      </trkpt>
      <trkpt lat="50.05942" lon="4.20611">
        <ele>216</ele>
        <time>2024-03-19T06:05:07Z</time>
      </trkpt>
      <trkpt lat="50.05951" lon="4.20606">
        <ele>215</ele>
        <time>2024-03-19T06:05:08Z</time>
      </trkpt>
      <trkpt lat="50.0596" lon="4.20601">
        <ele>214.4</ele>
        <time>2024-03-19T06:05:09Z</time>
      </trkpt>
      <trkpt lat="50.0597" lon="4.20595">
        <ele>213.8</ele>
        <time>2024-03-19T06:05:10Z</time>
      </trkpt>
      <trkpt lat="50.0598" lon="4.20589">
        <ele>213.4</ele>
        <time>2024-03-19T06:05:11Z</time>
      </trkpt>
      <trkpt lat="50.0599" lon="4.20583">
        <ele>213.2</ele>
        <time>2024-03-19T06:05:12Z</time>
      </trkpt>
      <trkpt lat="50.06001" lon="4.20576">
        <ele>212.6</ele>
        <time>2024-03-19T06:05:13Z</time>
      </trkpt>
      <trkpt lat="50.06011" lon="4.2057">
        <ele>211.4</ele>
        <time>2024-03-19T06:05:14Z</time>
      </trkpt>
      <trkpt lat="50.06022" lon="4.20564">
        <ele>210.4</ele>
        <time>2024-03-19T06:05:15Z</time>
      </trkpt>
      <trkpt lat="50.06033" lon="4.20558">
        <ele>210.4</ele>
        <time>2024-03-19T06:05:16Z</time>
      </trkpt>
      <trkpt lat="50.06044" lon="4.20551">
        <ele>209.4</ele>
        <time>2024-03-19T06:05:17Z</time>
      </trkpt>
      <trkpt lat="50.06055" lon="4.20544">
        <ele>208.4</ele>
        <time>2024-03-19T06:05:18Z</time>
      </trkpt>
      <trkpt lat="50.06066" lon="4.20538">
        <ele>207.6</ele>
        <time>2024-03-19T06:05:19Z</time>
      </trkpt>
      <trkpt lat="50.06077" lon="4.20531">
        <ele>207</ele>
        <time>2024-03-19T06:05:20Z</time>
      </trkpt>
      <trkpt lat="50.06089" lon="4.20525">
        <ele>206.4</ele>
        <time>2024-03-19T06:05:21Z</time>
      </trkpt>
      <trkpt lat="50.061" lon="4.20518">
        <ele>206</ele>
        <time>2024-03-19T06:05:22Z</time>
      </trkpt>
      <trkpt lat="50.06111" lon="4.20512">
        <ele>205.4</ele>
        <time>2024-03-19T06:05:23Z</time>
      </trkpt>
      <trkpt lat="50.06122" lon="4.20505">
        <ele>204.8</ele>
        <time>2024-03-19T06:05:24Z</time>
      </trkpt>
      <trkpt lat="50.06132" lon="4.20499">
        <ele>203.8</ele>
        <time>2024-03-19T06:05:25Z</time>
      </trkpt>
      <trkpt lat="50.06143" lon="4.20493">
        <ele>202</ele>
        <time>2024-03-19T06:05:26Z</time>
      </trkpt>
      <trkpt lat="50.06153" lon="4.20487">
        <ele>200.6</ele>
        <time>2024-03-19T06:05:27Z</time>
      </trkpt>
      <trkpt lat="50.06162" lon="4.20481">
        <ele>199.4</ele>
        <time>2024-03-19T06:05:28Z</time>
      </trkpt>
      <trkpt lat="50.06172" lon="4.20476">
        <ele>198.6</ele>
        <time>2024-03-19T06:05:29Z</time>
      </trkpt>
      <trkpt lat="50.06181" lon="4.2047">
        <ele>198.2</ele>
        <time>2024-03-19T06:05:30Z</time>
      </trkpt>
      <trkpt lat="50.0619" lon="4.20465">
        <ele>197.6</ele>
        <time>2024-03-19T06:05:31Z</time>
      </trkpt>
      <trkpt lat="50.06199" lon="4.2046">
        <ele>197.6</ele>
        <time>2024-03-19T06:05:32Z</time>
      </trkpt>
      <trkpt lat="50.06207" lon="4.20455">
        <ele>197.2</ele>
        <time>2024-03-19T06:05:33Z</time>
      </trkpt>
      <trkpt lat="50.06215" lon="4.20451">
        <ele>197</ele>
        <time>2024-03-19T06:05:34Z</time>
      </trkpt>
      <trkpt lat="50.06223" lon="4.20447">
        <ele>197</ele>
        <time>2024-03-19T06:05:35Z</time>
      </trkpt>
      <trkpt lat="50.0623" lon="4.20443">
        <ele>196.8</ele>
        <time>2024-03-19T06:05:36Z</time>
      </trkpt>
      <trkpt lat="50.06237" lon="4.20439">
        <ele>197</ele>
        <time>2024-03-19T06:05:37Z</time>
      </trkpt>
      <trkpt lat="50.06244" lon="4.20435">
        <ele>196.8</ele>
        <time>2024-03-19T06:05:38Z</time>
      </trkpt>
      <trkpt lat="50.0625" lon="4.20431">
        <ele>196.8</ele>
        <time>2024-03-19T06:05:39Z</time>
      </trkpt>
      <trkpt lat="50.06257" lon="4.20428">
        <ele>196.8</ele>
        <time>2024-03-19T06:05:40Z</time>
      </trkpt>
      <trkpt lat="50.06263" lon="4.20425">
        <ele>196.8</ele>
        <time>2024-03-19T06:05:41Z</time>
      </trkpt>
      <trkpt lat="50.06269" lon="4.20422">
        <ele>197</ele>
        <time>2024-03-19T06:05:42Z</time>
      </trkpt>
      <trkpt lat="50.06274" lon="4.20419">
        <ele>197.2</ele>
        <time>2024-03-19T06:05:43Z</time>
      </trkpt>
      <trkpt lat="50.06279" lon="4.20415">
        <ele>197.6</ele>
        <time>2024-03-19T06:05:44Z</time>
      </trkpt>
      <trkpt lat="50.06284" lon="4.20412">
        <ele>198</ele>
        <time>2024-03-19T06:05:45Z</time>
      </trkpt>
      <trkpt lat="50.06288" lon="4.20406">
        <ele>198.4</ele>
        <time>2024-03-19T06:05:46Z</time>
      </trkpt>
      <trkpt lat="50.06292" lon="4.20398">
        <ele>198.4</ele>
        <time>2024-03-19T06:05:47Z</time>
      </trkpt>
      <trkpt lat="50.06293" lon="4.20389">
        <ele>198.8</ele>
        <time>2024-03-19T06:05:48Z</time>
      </trkpt>
      <trkpt lat="50.06293" lon="4.20378">
        <ele>199.2</ele>
        <time>2024-03-19T06:05:49Z</time>
      </trkpt>
      <trkpt lat="50.06293" lon="4.20368">
        <ele>199.6</ele>
        <time>2024-03-19T06:05:50Z</time>
      </trkpt>
      <trkpt lat="50.06294" lon="4.20357">
        <ele>200</ele>
        <time>2024-03-19T06:05:51Z</time>
      </trkpt>
      <trkpt lat="50.06294" lon="4.20346">
        <ele>200.4</ele>
        <time>2024-03-19T06:05:52Z</time>
      </trkpt>
      <trkpt lat="50.06294" lon="4.20335">
        <ele>200.6</ele>
        <time>2024-03-19T06:05:53Z</time>
      </trkpt>
      <trkpt lat="50.06294" lon="4.20324">
        <ele>200.6</ele>
        <time>2024-03-19T06:05:54Z</time>
      </trkpt>
      <trkpt lat="50.06295" lon="4.20313">
        <ele>200.8</ele>
        <time>2024-03-19T06:05:55Z</time>
      </trkpt>
      <trkpt lat="50.06295" lon="4.20302">
        <ele>200.8</ele>
        <time>2024-03-19T06:05:56Z</time>
      </trkpt>
      <trkpt lat="50.06295" lon="4.20291">
        <ele>200.8</ele>
        <time>2024-03-19T06:05:57Z</time>
      </trkpt>
      <trkpt lat="50.06295" lon="4.20279">
        <ele>200.8</ele>
        <time>2024-03-19T06:05:58Z</time>
      </trkpt>
      <trkpt lat="50.06295" lon="4.20268">
        <ele>200.6</ele>
        <time>2024-03-19T06:05:59Z</time>
      </trkpt>
      <trkpt lat="50.06296" lon="4.20257">
        <ele>200.8</ele>
        <time>2024-03-19T06:06:00Z</time>
      </trkpt>
      <trkpt lat="50.06296" lon="4.20245">
        <ele>200.8</ele>
        <time>2024-03-19T06:06:01Z</time>
      </trkpt>
      <trkpt lat="50.06297" lon="4.20234">
        <ele>200.8</ele>
        <time>2024-03-19T06:06:02Z</time>
      </trkpt>
      <trkpt lat="50.06298" lon="4.20222">
        <ele>200.6</ele>
        <time>2024-03-19T06:06:03Z</time>
      </trkpt>
      <trkpt lat="50.06298" lon="4.20211">
        <ele>200.6</ele>
        <time>2024-03-19T06:06:04Z</time>
      </trkpt>
      <trkpt lat="50.06299" lon="4.20199">
        <ele>200.6</ele>
        <time>2024-03-19T06:06:05Z</time>
      </trkpt>
      <trkpt lat="50.06299" lon="4.20187">
        <ele>200.6</ele>
        <time>2024-03-19T06:06:06Z</time>
      </trkpt>
      <trkpt lat="50.06299" lon="4.20175">
        <ele>200.4</ele>
        <time>2024-03-19T06:06:07Z</time>
      </trkpt>
      <trkpt lat="50.063" lon="4.20163">
        <ele>200.2</ele>
        <time>2024-03-19T06:06:08Z</time>
      </trkpt>
      <trkpt lat="50.063" lon="4.2015">
        <ele>200</ele>
        <time>2024-03-19T06:06:09Z</time>
      </trkpt>
      <trkpt lat="50.06301" lon="4.20138">
        <ele>200</ele>
        <time>2024-03-19T06:06:10Z</time>
      </trkpt>
      <trkpt lat="50.06301" lon="4.20125">
        <ele>200</ele>
        <time>2024-03-19T06:06:11Z</time>
      </trkpt>
      <trkpt lat="50.06302" lon="4.20112">
        <ele>200</ele>
        <time>2024-03-19T06:06:12Z</time>
      </trkpt>
      <trkpt lat="50.06303" lon="4.20099">
        <ele>199.8</ele>
        <time>2024-03-19T06:06:13Z</time>
      </trkpt>
      <trkpt lat="50.06305" lon="4.20086">
        <ele>199.8</ele>
        <time>2024-03-19T06:06:14Z</time>
      </trkpt>
      <trkpt lat="50.06307" lon="4.20074">
        <ele>199.6</ele>
        <time>2024-03-19T06:06:15Z</time>
      </trkpt>
      <trkpt lat="50.06311" lon="4.20062">
        <ele>199.2</ele>
        <time>2024-03-19T06:06:16Z</time>
      </trkpt>
      <trkpt lat="50.06314" lon="4.2005">
        <ele>199</ele>
        <time>2024-03-19T06:06:17Z</time>
      </trkpt>
      <trkpt lat="50.06316" lon="4.20038">
        <ele>198.8</ele>
        <time>2024-03-19T06:06:18Z</time>
      </trkpt>
      <trkpt lat="50.06318" lon="4.20026">
        <ele>198.6</ele>
        <time>2024-03-19T06:06:19Z</time>
      </trkpt>
      <trkpt lat="50.06318" lon="4.20013">
        <ele>198.6</ele>
        <time>2024-03-19T06:06:20Z</time>
      </trkpt>
      <trkpt lat="50.06318" lon="4.2">
        <ele>198.2</ele>
        <time>2024-03-19T06:06:21Z</time>
      </trkpt>
      <trkpt lat="50.06318" lon="4.19987">
        <ele>198</ele>
        <time>2024-03-19T06:06:22Z</time>
      </trkpt>
      <trkpt lat="50.06317" lon="4.19974">
        <ele>197.8</ele>
        <time>2024-03-19T06:06:23Z</time>
      </trkpt>
      <trkpt lat="50.06319" lon="4.19961">
        <ele>197.4</ele>
        <time>2024-03-19T06:06:24Z</time>
      </trkpt>
      <trkpt lat="50.06323" lon="4.19949">
        <ele>197.4</ele>
        <time>2024-03-19T06:06:25Z</time>
      </trkpt>
      <trkpt lat="50.06329" lon="4.19938">
        <ele>197</ele>
        <time>2024-03-19T06:06:26Z</time>
      </trkpt>
      <trkpt lat="50.06337" lon="4.19929">
        <ele>196.8</ele>
        <time>2024-03-19T06:06:27Z</time>
      </trkpt>
      <trkpt lat="50.06346" lon="4.19921">
        <ele>196.8</ele>
        <time>2024-03-19T06:06:28Z</time>
      </trkpt>
      <trkpt lat="50.06355" lon="4.19914">
        <ele>196.8</ele>
        <time>2024-03-19T06:06:29Z</time>
      </trkpt>
      <trkpt lat="50.06365" lon="4.19908">
        <ele>196.6</ele>
        <time>2024-03-19T06:06:30Z</time>
      </trkpt>
      <trkpt lat="50.06375" lon="4.19903">
        <ele>196.6</ele>
        <time>2024-03-19T06:06:31Z</time>
      </trkpt>
      <trkpt lat="50.06385" lon="4.19899">
        <ele>196.4</ele>
        <time>2024-03-19T06:06:32Z</time>
      </trkpt>
      <trkpt lat="50.06395" lon="4.19893">
        <ele>195.4</ele>
        <time>2024-03-19T06:06:33Z</time>
      </trkpt>
      <trkpt lat="50.06403" lon="4.19886">
        <ele>194.8</ele>
        <time>2024-03-19T06:06:34Z</time>
      </trkpt>
      <trkpt lat="50.06411" lon="4.19876">
        <ele>194.2</ele>
        <time>2024-03-19T06:06:35Z</time>
      </trkpt>
      <trkpt lat="50.06416" lon="4.19864">
        <ele>194.2</ele>
        <time>2024-03-19T06:06:36Z</time>
      </trkpt>
      <trkpt lat="50.0642" lon="4.19851">
        <ele>193.2</ele>
        <time>2024-03-19T06:06:37Z</time>
      </trkpt>
      <trkpt lat="50.06423" lon="4.19838">
        <ele>192.4</ele>
        <time>2024-03-19T06:06:38Z</time>
      </trkpt>
      <trkpt lat="50.06425" lon="4.19825">
        <ele>191.4</ele>
        <time>2024-03-19T06:06:39Z</time>
      </trkpt>
      <trkpt lat="50.06428" lon="4.19813">
        <ele>190.8</ele>
        <time>2024-03-19T06:06:40Z</time>
      </trkpt>
      <trkpt lat="50.0643" lon="4.198">
        <ele>190.4</ele>
        <time>2024-03-19T06:06:41Z</time>
      </trkpt>
      <trkpt lat="50.06433" lon="4.19788">
        <ele>190.2</ele>
        <time>2024-03-19T06:06:42Z</time>
      </trkpt>
      <trkpt lat="50.06435" lon="4.19775">
        <ele>190.2</ele>
        <time>2024-03-19T06:06:43Z</time>
      </trkpt>
      <trkpt lat="50.06438" lon="4.19763">
        <ele>190.2</ele>
        <time>2024-03-19T06:06:44Z</time>
      </trkpt>
      <trkpt lat="50.0644" lon="4.19751">
        <ele>189.8</ele>
        <time>2024-03-19T06:06:45Z</time>
      </trkpt>
      <trkpt lat="50.06442" lon="4.19739">
        <ele>189.8</ele>
        <time>2024-03-19T06:06:46Z</time>
      </trkpt>
      <trkpt lat="50.06444" lon="4.19727">
        <ele>189.6</ele>
        <time>2024-03-19T06:06:47Z</time>
      </trkpt>
      <trkpt lat="50.06445" lon="4.19716">
        <ele>189.6</ele>
        <time>2024-03-19T06:06:48Z</time>
      </trkpt>
      <trkpt lat="50.06446" lon="4.19704">
        <ele>189.8</ele>
        <time>2024-03-19T06:06:49Z</time>
      </trkpt>
      <trkpt lat="50.06447" lon="4.19693">
        <ele>189.6</ele>
        <time>2024-03-19T06:06:50Z</time>
      </trkpt>
      <trkpt lat="50.06448" lon="4.19682">
        <ele>189.8</ele>
        <time>2024-03-19T06:06:51Z</time>
      </trkpt>
      <trkpt lat="50.06449" lon="4.19671">
        <ele>189.6</ele>
        <time>2024-03-19T06:06:52Z</time>
      </trkpt>
      <trkpt lat="50.0645" lon="4.19661">
        <ele>189.6</ele>
        <time>2024-03-19T06:06:53Z</time>
      </trkpt>
      <trkpt lat="50.06451" lon="4.19651">
        <ele>189.6</ele>
        <time>2024-03-19T06:06:54Z</time>
      </trkpt>
      <trkpt lat="50.06453" lon="4.1964">
        <ele>189.8</ele>
        <time>2024-03-19T06:06:55Z</time>
      </trkpt>
      <trkpt lat="50.06455" lon="4.19631">
        <ele>189.8</ele>
        <time>2024-03-19T06:06:56Z</time>
      </trkpt>
      <trkpt lat="50.06458" lon="4.19622">
        <ele>190</ele>
        <time>2024-03-19T06:06:57Z</time>
      </trkpt>
      <trkpt lat="50.06461" lon="4.19613">
        <ele>190</ele>
        <time>2024-03-19T06:06:58Z</time>
      </trkpt>
      <trkpt lat="50.06464" lon="4.19605">
        <ele>190</ele>
        <time>2024-03-19T06:06:59Z</time>
      </trkpt>
      <trkpt lat="50.06468" lon="4.19598">
        <ele>190</ele>
        <time>2024-03-19T06:07:00Z</time>
      </trkpt>
      <trkpt lat="50.06472" lon="4.19591">
        <ele>190.4</ele>
        <time>2024-03-19T06:07:01Z</time>
      </trkpt>
      <trkpt lat="50.06477" lon="4.19584">
        <ele>190.6</ele>
        <time>2024-03-19T06:07:02Z</time>
      </trkpt>
      <trkpt lat="50.06481" lon="4.19577">
        <ele>191</ele>
        <time>2024-03-19T06:07:03Z</time>
      </trkpt>
      <trkpt lat="50.06486" lon="4.19571">
        <ele>191.2</ele>
        <time>2024-03-19T06:07:04Z</time>
      </trkpt>
      <trkpt lat="50.0649" lon="4.19564">
        <ele>191.2</ele>
        <time>2024-03-19T06:07:05Z</time>
      </trkpt>
      <trkpt lat="50.06496" lon="4.19558">
        <ele>191.8</ele>
        <time>2024-03-19T06:07:06Z</time>
      </trkpt>
      <trkpt lat="50.06501" lon="4.19554">
        <ele>192</ele>
        <time>2024-03-19T06:07:07Z</time>
      </trkpt>
      <trkpt lat="50.06508" lon="4.19551">
        <ele>192.2</ele>
        <time>2024-03-19T06:07:08Z</time>
      </trkpt>
      <trkpt lat="50.06514" lon="4.19549">
        <ele>192.2</ele>
        <time>2024-03-19T06:07:09Z</time>
      </trkpt>
      <trkpt lat="50.06521" lon="4.19549">
        <ele>192.8</ele>
        <time>2024-03-19T06:07:10Z</time>
      </trkpt>
      <trkpt lat="50.06528" lon="4.19549">
        <ele>193.2</ele>
        <time>2024-03-19T06:07:11Z</time>
      </trkpt>
      <trkpt lat="50.06535" lon="4.19549">
        <ele>193.4</ele>
        <time>2024-03-19T06:07:12Z</time>
      </trkpt>
      <trkpt lat="50.06542" lon="4.19548">
        <ele>193.6</ele>
        <time>2024-03-19T06:07:13Z</time>
      </trkpt>
      <trkpt lat="50.06549" lon="4.19548">
        <ele>193.4</ele>
        <time>2024-03-19T06:07:14Z</time>
      </trkpt>
      <trkpt lat="50.06557" lon="4.19548">
        <ele>193.4</ele>
        <time>2024-03-19T06:07:15Z</time>
      </trkpt>
      <trkpt lat="50.06564" lon="4.19548">
        <ele>193.4</ele>
        <time>2024-03-19T06:07:16Z</time>
      </trkpt>
      <trkpt lat="50.06571" lon="4.19548">
        <ele>193.6</ele>
        <time>2024-03-19T06:07:17Z</time>
      </trkpt>
      <trkpt lat="50.06578" lon="4.19547">
        <ele>193.6</ele>
        <time>2024-03-19T06:07:18Z</time>
      </trkpt>
      <trkpt lat="50.06586" lon="4.19547">
        <ele>193.6</ele>
        <time>2024-03-19T06:07:19Z</time>
      </trkpt>
      <trkpt lat="50.06593" lon="4.19547">
        <ele>193.6</ele>
        <time>2024-03-19T06:07:20Z</time>
      </trkpt>
      <trkpt lat="50.066" lon="4.19547">
        <ele>193.6</ele>
        <time>2024-03-19T06:07:21Z</time>
      </trkpt>
      <trkpt lat="50.06607" lon="4.19546">
        <ele>193.6</ele>
        <time>2024-03-19T06:07:22Z</time>
      </trkpt>
      <trkpt lat="50.06614" lon="4.19546">
        <ele>193.4</ele>
        <time>2024-03-19T06:07:23Z</time>
      </trkpt>
      <trkpt lat="50.06621" lon="4.19546">
        <ele>193.4</ele>
        <time>2024-03-19T06:07:24Z</time>
      </trkpt>
      <trkpt lat="50.06628" lon="4.19546">
        <ele>193.4</ele>
        <time>2024-03-19T06:07:25Z</time>
      </trkpt>
      <trkpt lat="50.06635" lon="4.19545">
        <ele>193.4</ele>
        <time>2024-03-19T06:07:26Z</time>
      </trkpt>
      <trkpt lat="50.06642" lon="4.19545">
        <ele>193.4</ele>
        <time>2024-03-19T06:07:27Z</time>
      </trkpt>
      <trkpt lat="50.06649" lon="4.19545">
        <ele>193.2</ele>
        <time>2024-03-19T06:07:28Z</time>
      </trkpt>
      <trkpt lat="50.06656" lon="4.19544">
        <ele>193.2</ele>
        <time>2024-03-19T06:07:29Z</time>
      </trkpt>
      <trkpt lat="50.06663" lon="4.19544">
        <ele>193</ele>
        <time>2024-03-19T06:07:30Z</time>
      </trkpt>
      <trkpt lat="50.0667" lon="4.19544">
        <ele>193</ele>
        <time>2024-03-19T06:07:31Z</time>
      </trkpt>
      <trkpt lat="50.06677" lon="4.19544">
        <ele>193</ele>
        <time>2024-03-19T06:07:32Z</time>
      </trkpt>
      <trkpt lat="50.06683" lon="4.19543">
        <ele>193</ele>
        <time>2024-03-19T06:07:33Z</time>
      </trkpt>
      <trkpt lat="50.0669" lon="4.19543">
        <ele>193</ele>
        <time>2024-03-19T06:07:34Z</time>
      </trkpt>
      <trkpt lat="50.06697" lon="4.19543">
        <ele>193</ele>
        <time>2024-03-19T06:07:35Z</time>
      </trkpt>
      <trkpt lat="50.06703" lon="4.19544">
        <ele>193</ele>
        <time>2024-03-19T06:07:36Z</time>
      </trkpt>
      <trkpt lat="50.0671" lon="4.19544">
        <ele>193</ele>
        <time>2024-03-19T06:07:37Z</time>
      </trkpt>
      <trkpt lat="50.06717" lon="4.19545">
        <ele>193</ele>
        <time>2024-03-19T06:07:38Z</time>
      </trkpt>
      <trkpt lat="50.06723" lon="4.19547">
        <ele>193</ele>
        <time>2024-03-19T06:07:39Z</time>
      </trkpt>
      <trkpt lat="50.0673" lon="4.19548">
        <ele>193.2</ele>
        <time>2024-03-19T06:07:40Z</time>
      </trkpt>
      <trkpt lat="50.06736" lon="4.19549">
        <ele>193.2</ele>
        <time>2024-03-19T06:07:41Z</time>
      </trkpt>
      <trkpt lat="50.06742" lon="4.19551">
        <ele>193.2</ele>
        <time>2024-03-19T06:07:42Z</time>
      </trkpt>
      <trkpt lat="50.06749" lon="4.19553">
        <ele>193.2</ele>
        <time>2024-03-19T06:07:43Z</time>
      </trkpt>
      <trkpt lat="50.06755" lon="4.19555">
        <ele>193.2</ele>
        <time>2024-03-19T06:07:44Z</time>
      </trkpt>
      <trkpt lat="50.06761" lon="4.19557">
        <ele>193.4</ele>
        <time>2024-03-19T06:07:45Z</time>
      </trkpt>
      <trkpt lat="50.06768" lon="4.19559">
        <ele>193.2</ele>
        <time>2024-03-19T06:07:46Z</time>
      </trkpt>
      <trkpt lat="50.06774" lon="4.19561">
        <ele>193.6</ele>
        <time>2024-03-19T06:07:47Z</time>
      </trkpt>
      <trkpt lat="50.0678" lon="4.19563">
        <ele>193.6</ele>
        <time>2024-03-19T06:07:48Z</time>
      </trkpt>
      <trkpt lat="50.06787" lon="4.19565">
        <ele>193.6</ele>
        <time>2024-03-19T06:07:49Z</time>
      </trkpt>
      <trkpt lat="50.06793" lon="4.19567">
        <ele>193.8</ele>
        <time>2024-03-19T06:07:50Z</time>
      </trkpt>
      <trkpt lat="50.06799" lon="4.1957">
        <ele>193.8</ele>
        <time>2024-03-19T06:07:51Z</time>
      </trkpt>
      <trkpt lat="50.06805" lon="4.19572">
        <ele>194</ele>
        <time>2024-03-19T06:07:52Z</time>
      </trkpt>
      <trkpt lat="50.06812" lon="4.19575">
        <ele>194.4</ele>
        <time>2024-03-19T06:07:53Z</time>
      </trkpt>
      <trkpt lat="50.06818" lon="4.19577">
        <ele>194.6</ele>
        <time>2024-03-19T06:07:54Z</time>
      </trkpt>
      <trkpt lat="50.06825" lon="4.1958">
        <ele>194.8</ele>
        <time>2024-03-19T06:07:55Z</time>
      </trkpt>
      <trkpt lat="50.06831" lon="4.19583">
        <ele>195</ele>
        <time>2024-03-19T06:07:56Z</time>
      </trkpt>
      <trkpt lat="50.06838" lon="4.19585">
        <ele>195</ele>
        <time>2024-03-19T06:07:57Z</time>
      </trkpt>
      <trkpt lat="50.06845" lon="4.19588">
        <ele>195.2</ele>
        <time>2024-03-19T06:07:58Z</time>
      </trkpt>
      <trkpt lat="50.06852" lon="4.1959">
        <ele>195.2</ele>
        <time>2024-03-19T06:07:59Z</time>
      </trkpt>
      <trkpt lat="50.06859" lon="4.19592">
        <ele>195.4</ele>
        <time>2024-03-19T06:08:00Z</time>
      </trkpt>
      <trkpt lat="50.06867" lon="4.19595">
        <ele>195.4</ele>
        <time>2024-03-19T06:08:01Z</time>
      </trkpt>
      <trkpt lat="50.06874" lon="4.19598">
        <ele>195.4</ele>
        <time>2024-03-19T06:08:02Z</time>
      </trkpt>
      <trkpt lat="50.06881" lon="4.196">
        <ele>195.4</ele>
        <time>2024-03-19T06:08:03Z</time>
      </trkpt>
      <trkpt lat="50.06889" lon="4.19602">
        <ele>195.2</ele>
        <time>2024-03-19T06:08:04Z</time>
      </trkpt>
      <trkpt lat="50.06897" lon="4.19604">
        <ele>195.4</ele>
        <time>2024-03-19T06:08:05Z</time>
      </trkpt>
      <trkpt lat="50.06905" lon="4.19606">
        <ele>195.4</ele>
        <time>2024-03-19T06:08:06Z</time>
      </trkpt>
      <trkpt lat="50.06912" lon="4.19607">
        <ele>195.4</ele>
        <time>2024-03-19T06:08:07Z</time>
      </trkpt>
      <trkpt lat="50.0692" lon="4.19608">
        <ele>195.4</ele>
        <time>2024-03-19T06:08:08Z</time>
      </trkpt>
      <trkpt lat="50.06928" lon="4.19609">
        <ele>195.2</ele>
        <time>2024-03-19T06:08:09Z</time>
      </trkpt>
      <trkpt lat="50.06936" lon="4.19609">
        <ele>195</ele>
        <time>2024-03-19T06:08:10Z</time>
      </trkpt>
      <trkpt lat="50.06943" lon="4.19609">
        <ele>194.8</ele>
        <time>2024-03-19T06:08:11Z</time>
      </trkpt>
      <trkpt lat="50.06951" lon="4.19608">
        <ele>194.8</ele>
        <time>2024-03-19T06:08:12Z</time>
      </trkpt>
      <trkpt lat="50.06958" lon="4.19607">
        <ele>195</ele>
        <time>2024-03-19T06:08:13Z</time>
      </trkpt>
      <trkpt lat="50.06966" lon="4.19606">
        <ele>194.8</ele>
        <time>2024-03-19T06:08:14Z</time>
      </trkpt>
      <trkpt lat="50.06973" lon="4.19605">
        <ele>194.8</ele>
        <time>2024-03-19T06:08:15Z</time>
      </trkpt>
      <trkpt lat="50.06981" lon="4.19604">
        <ele>194.6</ele>
        <time>2024-03-19T06:08:16Z</time>
      </trkpt>
      <trkpt lat="50.06988" lon="4.19603">
        <ele>194.2</ele>
        <time>2024-03-19T06:08:17Z</time>
      </trkpt>
      <trkpt lat="50.06996" lon="4.19601">
        <ele>193.8</ele>
        <time>2024-03-19T06:08:18Z</time>
      </trkpt>
      <trkpt lat="50.07003" lon="4.196">
        <ele>193.8</ele>
        <time>2024-03-19T06:08:19Z</time>
      </trkpt>
      <trkpt lat="50.0701" lon="4.19599">
        <ele>193.8</ele>
        <time>2024-03-19T06:08:20Z</time>
      </trkpt>
      <trkpt lat="50.07018" lon="4.19598">
        <ele>193.6</ele>
        <time>2024-03-19T06:08:21Z</time>
      </trkpt>
      <trkpt lat="50.07025" lon="4.19597">
        <ele>193.6</ele>
        <time>2024-03-19T06:08:22Z</time>
      </trkpt>
      <trkpt lat="50.07033" lon="4.19595">
        <ele>193.4</ele>
        <time>2024-03-19T06:08:23Z</time>
      </trkpt>
      <trkpt lat="50.0704" lon="4.19594">
        <ele>193.4</ele>
        <time>2024-03-19T06:08:24Z</time>
      </trkpt>
      <trkpt lat="50.07047" lon="4.19593">
        <ele>193.4</ele>
        <time>2024-03-19T06:08:25Z</time>
      </trkpt>
      <trkpt lat="50.07055" lon="4.19592">
        <ele>193.4</ele>
        <time>2024-03-19T06:08:26Z</time>
      </trkpt>
      <trkpt lat="50.07062" lon="4.19591">
        <ele>193.2</ele>
        <time>2024-03-19T06:08:27Z</time>
      </trkpt>
      <trkpt lat="50.07069" lon="4.19589">
        <ele>193.2</ele>
        <time>2024-03-19T06:08:28Z</time>
      </trkpt>
      <trkpt lat="50.07077" lon="4.19588">
        <ele>193.2</ele>
        <time>2024-03-19T06:08:29Z</time>
      </trkpt>
      <trkpt lat="50.07084" lon="4.19587">
        <ele>193.2</ele>
        <time>2024-03-19T06:08:30Z</time>
      </trkpt>
      <trkpt lat="50.07092" lon="4.19585">
        <ele>193.2</ele>
        <time>2024-03-19T06:08:31Z</time>
      </trkpt>
      <trkpt lat="50.07099" lon="4.19584">
        <ele>193</ele>
        <time>2024-03-19T06:08:32Z</time>
      </trkpt>
      <trkpt lat="50.07107" lon="4.19583">
        <ele>193.2</ele>
        <time>2024-03-19T06:08:33Z</time>
      </trkpt>
      <trkpt lat="50.07114" lon="4.19582">
        <ele>193.2</ele>
        <time>2024-03-19T06:08:34Z</time>
      </trkpt>
      <trkpt lat="50.07122" lon="4.19581">
        <ele>193.2</ele>
        <time>2024-03-19T06:08:35Z</time>
      </trkpt>
      <trkpt lat="50.0713" lon="4.1958">
        <ele>193</ele>
        <time>2024-03-19T06:08:36Z</time>
      </trkpt>
      <trkpt lat="50.07137" lon="4.19579">
        <ele>193</ele>
        <time>2024-03-19T06:08:37Z</time>
      </trkpt>
      <trkpt lat="50.07145" lon="4.19578">
        <ele>193</ele>
        <time>2024-03-19T06:08:38Z</time>
      </trkpt>
      <trkpt lat="50.07153" lon="4.19577">
        <ele>193</ele>
        <time>2024-03-19T06:08:39Z</time>
      </trkpt>
      <trkpt lat="50.07161" lon="4.19576">
        <ele>192.8</ele>
        <time>2024-03-19T06:08:40Z</time>
      </trkpt>
      <trkpt lat="50.07168" lon="4.19575">
        <ele>192.8</ele>
        <time>2024-03-19T06:08:41Z</time>
      </trkpt>
      <trkpt lat="50.07176" lon="4.19574">
        <ele>192.8</ele>
        <time>2024-03-19T06:08:42Z</time>
      </trkpt>
      <trkpt lat="50.07184" lon="4.19573">
        <ele>192.8</ele>
        <time>2024-03-19T06:08:43Z</time>
      </trkpt>
      <trkpt lat="50.07192" lon="4.19572">
        <ele>192.6</ele>
        <time>2024-03-19T06:08:44Z</time>
      </trkpt>
      <trkpt lat="50.07199" lon="4.19571">
        <ele>192.4</ele>
        <time>2024-03-19T06:08:45Z</time>
      </trkpt>
      <trkpt lat="50.07207" lon="4.19571">
        <ele>192.6</ele>
        <time>2024-03-19T06:08:46Z</time>
      </trkpt>
      <trkpt lat="50.07215" lon="4.1957">
        <ele>192.2</ele>
        <time>2024-03-19T06:08:47Z</time>
      </trkpt>
      <trkpt lat="50.07222" lon="4.19569">
        <ele>192.2</ele>
        <time>2024-03-19T06:08:48Z</time>
      </trkpt>
      <trkpt lat="50.0723" lon="4.19568">
        <ele>192</ele>
        <time>2024-03-19T06:08:49Z</time>
      </trkpt>
      <trkpt lat="50.07238" lon="4.19567">
        <ele>192</ele>
        <time>2024-03-19T06:08:50Z</time>
      </trkpt>
      <trkpt lat="50.07245" lon="4.19567">
        <ele>191.8</ele>
        <time>2024-03-19T06:08:51Z</time>
      </trkpt>
      <trkpt lat="50.07253" lon="4.19566">
        <ele>191.6</ele>
        <time>2024-03-19T06:08:52Z</time>
      </trkpt>
      <trkpt lat="50.07261" lon="4.19565">
        <ele>191.6</ele>
        <time>2024-03-19T06:08:53Z</time>
      </trkpt>
      <trkpt lat="50.07268" lon="4.19564">
        <ele>191.4</ele>
        <time>2024-03-19T06:08:54Z</time>
      </trkpt>
      <trkpt lat="50.07276" lon="4.19563">
        <ele>191.4</ele>
        <time>2024-03-19T06:08:55Z</time>
      </trkpt>
      <trkpt lat="50.07283" lon="4.19563">
        <ele>191.2</ele>
        <time>2024-03-19T06:08:56Z</time>
      </trkpt>
      <trkpt lat="50.07291" lon="4.19562">
        <ele>191.2</ele>
        <time>2024-03-19T06:08:57Z</time>
      </trkpt>
      <trkpt lat="50.07299" lon="4.19561">
        <ele>191.2</ele>
        <time>2024-03-19T06:08:58Z</time>
      </trkpt>
      <trkpt lat="50.07307" lon="4.1956">
        <ele>191</ele>
        <time>2024-03-19T06:08:59Z</time>
      </trkpt>
      <trkpt lat="50.07314" lon="4.1956">
        <ele>191</ele>
        <time>2024-03-19T06:09:00Z</time>
      </trkpt>
      <trkpt lat="50.07322" lon="4.19559">
        <ele>191</ele>
        <time>2024-03-19T06:09:01Z</time>
      </trkpt>
      <trkpt lat="50.0733" lon="4.19558">
        <ele>190.8</ele>
        <time>2024-03-19T06:09:02Z</time>
      </trkpt>
      <trkpt lat="50.07338" lon="4.19558">
        <ele>190.8</ele>
        <time>2024-03-19T06:09:03Z</time>
      </trkpt>
      <trkpt lat="50.07346" lon="4.19557">
        <ele>190.6</ele>
        <time>2024-03-19T06:09:04Z</time>
      </trkpt>
      <trkpt lat="50.07354" lon="4.19557">
        <ele>190.4</ele>
        <time>2024-03-19T06:09:05Z</time>
      </trkpt>
      <trkpt lat="50.07362" lon="4.19556">
        <ele>190.2</ele>
        <time>2024-03-19T06:09:06Z</time>
      </trkpt>
      <trkpt lat="50.0737" lon="4.19556">
        <ele>189.4</ele>
        <time>2024-03-19T06:09:07Z</time>
      </trkpt>
      <trkpt lat="50.07378" lon="4.19556">
        <ele>188.8</ele>
        <time>2024-03-19T06:09:08Z</time>
      </trkpt>
      <trkpt lat="50.07385" lon="4.19555">
        <ele>188.6</ele>
        <time>2024-03-19T06:09:09Z</time>
      </trkpt>
      <trkpt lat="50.07393" lon="4.19555">
        <ele>188.4</ele>
        <time>2024-03-19T06:09:10Z</time>
      </trkpt>
      <trkpt lat="50.07401" lon="4.19556">
        <ele>188.2</ele>
        <time>2024-03-19T06:09:11Z</time>
      </trkpt>
      <trkpt lat="50.07409" lon="4.19556">
        <ele>188.2</ele>
        <time>2024-03-19T06:09:12Z</time>
      </trkpt>
      <trkpt lat="50.07417" lon="4.19557">
        <ele>188</ele>
        <time>2024-03-19T06:09:13Z</time>
      </trkpt>
      <trkpt lat="50.07425" lon="4.19558">
        <ele>187.8</ele>
        <time>2024-03-19T06:09:14Z</time>
      </trkpt>
      <trkpt lat="50.07433" lon="4.19559">
        <ele>187.6</ele>
        <time>2024-03-19T06:09:15Z</time>
      </trkpt>
      <trkpt lat="50.07442" lon="4.1956">
        <ele>187.4</ele>
        <time>2024-03-19T06:09:16Z</time>
      </trkpt>
      <trkpt lat="50.0745" lon="4.19561">
        <ele>187.4</ele>
        <time>2024-03-19T06:09:17Z</time>
      </trkpt>
      <trkpt lat="50.07458" lon="4.19563">
        <ele>187.2</ele>
        <time>2024-03-19T06:09:18Z</time>
      </trkpt>
      <trkpt lat="50.07467" lon="4.19564">
        <ele>187.2</ele>
        <time>2024-03-19T06:09:19Z</time>
      </trkpt>
      <trkpt lat="50.07475" lon="4.19565">
        <ele>186.8</ele>
        <time>2024-03-19T06:09:20Z</time>
      </trkpt>
      <trkpt lat="50.07483" lon="4.19566">
        <ele>186.8</ele>
        <time>2024-03-19T06:09:21Z</time>
      </trkpt>
      <trkpt lat="50.07491" lon="4.19566">
        <ele>186.4</ele>
        <time>2024-03-19T06:09:22Z</time>
      </trkpt>
      <trkpt lat="50.07499" lon="4.19565">
        <ele>186.2</ele>
        <time>2024-03-19T06:09:23Z</time>
      </trkpt>
      <trkpt lat="50.07507" lon="4.19563">
        <ele>186</ele>
        <time>2024-03-19T06:09:24Z</time>
      </trkpt>
      <trkpt lat="50.07515" lon="4.19559">
        <ele>185.8</ele>
        <time>2024-03-19T06:09:25Z</time>
      </trkpt>
      <trkpt lat="50.07522" lon="4.19553">
        <ele>185.8</ele>
        <time>2024-03-19T06:09:26Z</time>
      </trkpt>
      <trkpt lat="50.07528" lon="4.19545">
        <ele>185.8</ele>
        <time>2024-03-19T06:09:27Z</time>
      </trkpt>
      <trkpt lat="50.07534" lon="4.19536">
        <ele>185.6</ele>
        <time>2024-03-19T06:09:28Z</time>
      </trkpt>
      <trkpt lat="50.07538" lon="4.19526">
        <ele>185.4</ele>
        <time>2024-03-19T06:09:29Z</time>
      </trkpt>
      <trkpt lat="50.07542" lon="4.19515">
        <ele>185</ele>
        <time>2024-03-19T06:09:30Z</time>
      </trkpt>
      <trkpt lat="50.07546" lon="4.19505">
        <ele>185</ele>
        <time>2024-03-19T06:09:31Z</time>
      </trkpt>
      <trkpt lat="50.0755" lon="4.19494">
        <ele>185</ele>
        <time>2024-03-19T06:09:32Z</time>
      </trkpt>
      <trkpt lat="50.07554" lon="4.19483">
        <ele>185</ele>
        <time>2024-03-19T06:09:33Z</time>
      </trkpt>
      <trkpt lat="50.07557" lon="4.19472">
        <ele>184.8</ele>
        <time>2024-03-19T06:09:34Z</time>
      </trkpt>
      <trkpt lat="50.07561" lon="4.19462">
        <ele>184.8</ele>
        <time>2024-03-19T06:09:35Z</time>
      </trkpt>
      <trkpt lat="50.07564" lon="4.19451">
        <ele>184.6</ele>
        <time>2024-03-19T06:09:36Z</time>
      </trkpt>
      <trkpt lat="50.07568" lon="4.19441">
        <ele>184.6</ele>
        <time>2024-03-19T06:09:37Z</time>
      </trkpt>
      <trkpt lat="50.07572" lon="4.19432">
        <ele>184.6</ele>
        <time>2024-03-19T06:09:38Z</time>
      </trkpt>
      <trkpt lat="50.07576" lon="4.19422">
        <ele>184.6</ele>
        <time>2024-03-19T06:09:39Z</time>
      </trkpt>
      <trkpt lat="50.07581" lon="4.19413">
        <ele>184.4</ele>
        <time>2024-03-19T06:09:40Z</time>
      </trkpt>
      <trkpt lat="50.07586" lon="4.19404">
        <ele>184.4</ele>
        <time>2024-03-19T06:09:41Z</time>
      </trkpt>
      <trkpt lat="50.07591" lon="4.19396">
        <ele>184.4</ele>
        <time>2024-03-19T06:09:42Z</time>
      </trkpt>
      <trkpt lat="50.07596" lon="4.19388">
        <ele>184.4</ele>
        <time>2024-03-19T06:09:43Z</time>
      </trkpt>
      <trkpt lat="50.07602" lon="4.19381">
        <ele>184.4</ele>
        <time>2024-03-19T06:09:44Z</time>
      </trkpt>
      <trkpt lat="50.07608" lon="4.19375">
        <ele>184.4</ele>
        <time>2024-03-19T06:09:45Z</time>
      </trkpt>
      <trkpt lat="50.07614" lon="4.19369">
        <ele>184.4</ele>
        <time>2024-03-19T06:09:46Z</time>
      </trkpt>
      <trkpt lat="50.0762" lon="4.19364">
        <ele>184.4</ele>
        <time>2024-03-19T06:09:47Z</time>
      </trkpt>
      <trkpt lat="50.07626" lon="4.1936">
        <ele>184.6</ele>
        <time>2024-03-19T06:09:48Z</time>
      </trkpt>
      <trkpt lat="50.07632" lon="4.19355">
        <ele>184.6</ele>
        <time>2024-03-19T06:09:49Z</time>
      </trkpt>
      <trkpt lat="50.07637" lon="4.19351">
        <ele>184.8</ele>
        <time>2024-03-19T06:09:50Z</time>
      </trkpt>
      <trkpt lat="50.07643" lon="4.19347">
        <ele>185</ele>
        <time>2024-03-19T06:09:51Z</time>
      </trkpt>
      <trkpt lat="50.07648" lon="4.19342">
        <ele>185</ele>
        <time>2024-03-19T06:09:52Z</time>
      </trkpt>
      <trkpt lat="50.07653" lon="4.19337">
        <ele>185.2</ele>
        <time>2024-03-19T06:09:53Z</time>
      </trkpt>
      <trkpt lat="50.07658" lon="4.19333">
        <ele>185.4</ele>
        <time>2024-03-19T06:09:54Z</time>
      </trkpt>
      <trkpt lat="50.07663" lon="4.19329">
        <ele>185.4</ele>
        <time>2024-03-19T06:09:55Z</time>
      </trkpt>
      <trkpt lat="50.07668" lon="4.19325">
        <ele>185.4</ele>
        <time>2024-03-19T06:09:56Z</time>
      </trkpt>
      <trkpt lat="50.07673" lon="4.1932">
        <ele>186</ele>
        <time>2024-03-19T06:09:57Z</time>
      </trkpt>
      <trkpt lat="50.07678" lon="4.19316">
        <ele>186.4</ele>
        <time>2024-03-19T06:09:58Z</time>
      </trkpt>
      <trkpt lat="50.07682" lon="4.19312">
        <ele>186.4</ele>
        <time>2024-03-19T06:09:59Z</time>
      </trkpt>
      <trkpt lat="50.07687" lon="4.19309">
        <ele>187</ele>
        <time>2024-03-19T06:10:00Z</time>
      </trkpt>
      <trkpt lat="50.07692" lon="4.19305">
        <ele>187.4</ele>
        <time>2024-03-19T06:10:01Z</time>
      </trkpt>
      <trkpt lat="50.07697" lon="4.19302">
        <ele>187.8</ele>
        <time>2024-03-19T06:10:02Z</time>
      </trkpt>
      <trkpt lat="50.07702" lon="4.19299">
        <ele>188</ele>
        <time>2024-03-19T06:10:03Z</time>
      </trkpt>
      <trkpt lat="50.07707" lon="4.19296">
        <ele>188.4</ele>
        <time>2024-03-19T06:10:04Z</time>
      </trkpt>
      <trkpt lat="50.07712" lon="4.19293">
        <ele>188.4</ele>
        <time>2024-03-19T06:10:05Z</time>
      </trkpt>
      <trkpt lat="50.07717" lon="4.1929">
        <ele>188.6</ele>
        <time>2024-03-19T06:10:06Z</time>
      </trkpt>
      <trkpt lat="50.07722" lon="4.19288">
        <ele>189</ele>
        <time>2024-03-19T06:10:07Z</time>
      </trkpt>
      <trkpt lat="50.07727" lon="4.19285">
        <ele>189.2</ele>
        <time>2024-03-19T06:10:08Z</time>
      </trkpt>
      <trkpt lat="50.07732" lon="4.19282">
        <ele>189.6</ele>
        <time>2024-03-19T06:10:09Z</time>
      </trkpt>
      <trkpt lat="50.07737" lon="4.19279">
        <ele>189.6</ele>
        <time>2024-03-19T06:10:10Z</time>
      </trkpt>
      <trkpt lat="50.07742" lon="4.19276">
        <ele>189.8</ele>
        <time>2024-03-19T06:10:11Z</time>
      </trkpt>
      <trkpt lat="50.07747" lon="4.19273">
        <ele>190</ele>
        <time>2024-03-19T06:10:12Z</time>
      </trkpt>
      <trkpt lat="50.07752" lon="4.19269">
        <ele>190.2</ele>
        <time>2024-03-19T06:10:13Z</time>
      </trkpt>
      <trkpt lat="50.07758" lon="4.19266">
        <ele>190.6</ele>
        <time>2024-03-19T06:10:14Z</time>
      </trkpt>
      <trkpt lat="50.07763" lon="4.19262">
        <ele>191</ele>
        <time>2024-03-19T06:10:15Z</time>
      </trkpt>
      <trkpt lat="50.07769" lon="4.19257">
        <ele>191.2</ele>
        <time>2024-03-19T06:10:16Z</time>
      </trkpt>
      <trkpt lat="50.07775" lon="4.19253">
        <ele>191.4</ele>
        <time>2024-03-19T06:10:17Z</time>
      </trkpt>
      <trkpt lat="50.07781" lon="4.19248">
        <ele>191.6</ele>
        <time>2024-03-19T06:10:18Z</time>
      </trkpt>
      <trkpt lat="50.07787" lon="4.19244">
        <ele>191.6</ele>
        <time>2024-03-19T06:10:19Z</time>
      </trkpt>
      <trkpt lat="50.07793" lon="4.19239">
        <ele>191.6</ele>
        <time>2024-03-19T06:10:20Z</time>
      </trkpt>
      <trkpt lat="50.07799" lon="4.19234">
        <ele>191.8</ele>
        <time>2024-03-19T06:10:21Z</time>
      </trkpt>
      <trkpt lat="50.07805" lon="4.19229">
        <ele>191.6</ele>
        <time>2024-03-19T06:10:22Z</time>
      </trkpt>
      <trkpt lat="50.07811" lon="4.19224">
        <ele>191.6</ele>
        <time>2024-03-19T06:10:23Z</time>
      </trkpt>
      <trkpt lat="50.07817" lon="4.19219">
        <ele>191.6</ele>
        <time>2024-03-19T06:10:24Z</time>
      </trkpt>
      <trkpt lat="50.07823" lon="4.19214">
        <ele>191.6</ele>
        <time>2024-03-19T06:10:25Z</time>
      </trkpt>
      <trkpt lat="50.07829" lon="4.1921">
        <ele>191.6</ele>
        <time>2024-03-19T06:10:26Z</time>
      </trkpt>
      <trkpt lat="50.07835" lon="4.19205">
        <ele>191.6</ele>
        <time>2024-03-19T06:10:27Z</time>
      </trkpt>
      <trkpt lat="50.07842" lon="4.192">
        <ele>191.6</ele>
        <time>2024-03-19T06:10:28Z</time>
      </trkpt>
      <trkpt lat="50.07848" lon="4.19195">
        <ele>191.4</ele>
        <time>2024-03-19T06:10:29Z</time>
      </trkpt>
      <trkpt lat="50.07854" lon="4.1919">
        <ele>190.8</ele>
        <time>2024-03-19T06:10:30Z</time>
      </trkpt>
      <trkpt lat="50.07861" lon="4.19186">
        <ele>190.6</ele>
        <time>2024-03-19T06:10:31Z</time>
      </trkpt>
      <trkpt lat="50.07867" lon="4.19182">
        <ele>190.4</ele>
        <time>2024-03-19T06:10:32Z</time>
      </trkpt>
      <trkpt lat="50.07874" lon="4.19178">
        <ele>190.2</ele>
        <time>2024-03-19T06:10:33Z</time>
      </trkpt>
      <trkpt lat="50.0788" lon="4.19173">
        <ele>190</ele>
        <time>2024-03-19T06:10:34Z</time>
      </trkpt>
      <trkpt lat="50.07887" lon="4.19169">
        <ele>189.8</ele>
        <time>2024-03-19T06:10:35Z</time>
      </trkpt>
      <trkpt lat="50.07894" lon="4.19165">
        <ele>189.6</ele>
        <time>2024-03-19T06:10:36Z</time>
      </trkpt>
      <trkpt lat="50.07901" lon="4.1916">
        <ele>189.6</ele>
        <time>2024-03-19T06:10:37Z</time>
      </trkpt>
      <trkpt lat="50.07908" lon="4.19156">
        <ele>189.6</ele>
        <time>2024-03-19T06:10:38Z</time>
      </trkpt>
      <trkpt lat="50.07915" lon="4.19151">
        <ele>189.4</ele>
        <time>2024-03-19T06:10:39Z</time>
      </trkpt>
      <trkpt lat="50.07922" lon="4.19146">
        <ele>189.4</ele>
        <time>2024-03-19T06:10:40Z</time>
      </trkpt>
      <trkpt lat="50.0793" lon="4.19141">
        <ele>189.6</ele>
        <time>2024-03-19T06:10:41Z</time>
      </trkpt>
      <trkpt lat="50.07937" lon="4.19136">
        <ele>189.6</ele>
        <time>2024-03-19T06:10:42Z</time>
      </trkpt>
      <trkpt lat="50.07944" lon="4.19132">
        <ele>189.4</ele>
        <time>2024-03-19T06:10:43Z</time>
      </trkpt>
      <trkpt lat="50.07952" lon="4.19127">
        <ele>189.2</ele>
        <time>2024-03-19T06:10:44Z</time>
      </trkpt>
      <trkpt lat="50.07959" lon="4.19123">
        <ele>189</ele>
        <time>2024-03-19T06:10:45Z</time>
      </trkpt>
      <trkpt lat="50.07967" lon="4.19119">
        <ele>188.8</ele>
        <time>2024-03-19T06:10:46Z</time>
      </trkpt>
      <trkpt lat="50.07974" lon="4.19115">
        <ele>188.4</ele>
        <time>2024-03-19T06:10:47Z</time>
      </trkpt>
      <trkpt lat="50.07982" lon="4.19112">
        <ele>188.2</ele>
        <time>2024-03-19T06:10:48Z</time>
      </trkpt>
      <trkpt lat="50.07989" lon="4.19108">
        <ele>188</ele>
        <time>2024-03-19T06:10:49Z</time>
      </trkpt>
      <trkpt lat="50.07997" lon="4.19106">
        <ele>188</ele>
        <time>2024-03-19T06:10:50Z</time>
      </trkpt>
      <trkpt lat="50.08004" lon="4.19103">
        <ele>188</ele>
        <time>2024-03-19T06:10:51Z</time>
      </trkpt>
      <trkpt lat="50.08011" lon="4.19101">
        <ele>187.8</ele>
        <time>2024-03-19T06:10:52Z</time>
      </trkpt>
      <trkpt lat="50.08018" lon="4.19099">
        <ele>187.8</ele>
        <time>2024-03-19T06:10:53Z</time>
      </trkpt>
      <trkpt lat="50.08025" lon="4.19097">
        <ele>187.8</ele>
        <time>2024-03-19T06:10:54Z</time>
      </trkpt>
      <trkpt lat="50.08032" lon="4.19095">
        <ele>187.8</ele>
        <time>2024-03-19T06:10:55Z</time>
      </trkpt>
      <trkpt lat="50.08039" lon="4.19094">
        <ele>187.8</ele>
        <time>2024-03-19T06:10:56Z</time>
      </trkpt>
      <trkpt lat="50.08046" lon="4.19093">
        <ele>187.8</ele>
        <time>2024-03-19T06:10:57Z</time>
      </trkpt>
      <trkpt lat="50.08054" lon="4.19092">
        <ele>187.6</ele>
        <time>2024-03-19T06:10:58Z</time>
      </trkpt>
      <trkpt lat="50.08061" lon="4.19091">
        <ele>187.6</ele>
        <time>2024-03-19T06:10:59Z</time>
      </trkpt>
      <trkpt lat="50.08068" lon="4.19091">
        <ele>187.8</ele>
        <time>2024-03-19T06:11:00Z</time>
      </trkpt>
      <trkpt lat="50.08075" lon="4.19091">
        <ele>187.8</ele>
        <time>2024-03-19T06:11:01Z</time>
      </trkpt>
      <trkpt lat="50.08082" lon="4.1909">
        <ele>187.6</ele>
        <time>2024-03-19T06:11:02Z</time>
      </trkpt>
      <trkpt lat="50.0809" lon="4.19089">
        <ele>187.8</ele>
        <time>2024-03-19T06:11:03Z</time>
      </trkpt>
      <trkpt lat="50.08097" lon="4.19089">
        <ele>187.8</ele>
        <time>2024-03-19T06:11:04Z</time>
      </trkpt>
      <trkpt lat="50.08104" lon="4.19088">
        <ele>187.8</ele>
        <time>2024-03-19T06:11:05Z</time>
      </trkpt>
      <trkpt lat="50.08111" lon="4.19087">
        <ele>187.6</ele>
        <time>2024-03-19T06:11:06Z</time>
      </trkpt>
      <trkpt lat="50.08118" lon="4.19087">
        <ele>187.6</ele>
        <time>2024-03-19T06:11:07Z</time>
      </trkpt>
      <trkpt lat="50.08125" lon="4.19086">
        <ele>187.6</ele>
        <time>2024-03-19T06:11:08Z</time>
      </trkpt>
      <trkpt lat="50.08132" lon="4.19085">
        <ele>187.4</ele>
        <time>2024-03-19T06:11:09Z</time>
      </trkpt>
      <trkpt lat="50.08139" lon="4.19085">
        <ele>187.4</ele>
        <time>2024-03-19T06:11:10Z</time>
      </trkpt>
      <trkpt lat="50.08146" lon="4.19084">
        <ele>187.4</ele>
        <time>2024-03-19T06:11:11Z</time>
      </trkpt>
      <trkpt lat="50.08153" lon="4.19084">
        <ele>187.2</ele>
        <time>2024-03-19T06:11:12Z</time>
      </trkpt>
      <trkpt lat="50.0816" lon="4.19084">
        <ele>187</ele>
        <time>2024-03-19T06:11:13Z</time>
      </trkpt>
      <trkpt lat="50.08166" lon="4.19085">
        <ele>187</ele>
        <time>2024-03-19T06:11:14Z</time>
      </trkpt>
      <trkpt lat="50.08173" lon="4.19086">
        <ele>187</ele>
        <time>2024-03-19T06:11:15Z</time>
      </trkpt>
      <trkpt lat="50.08179" lon="4.19087">
        <ele>187</ele>
        <time>2024-03-19T06:11:16Z</time>
      </trkpt>
      <trkpt lat="50.08186" lon="4.1909">
        <ele>187</ele>
        <time>2024-03-19T06:11:17Z</time>
      </trkpt>
      <trkpt lat="50.08192" lon="4.19092">
        <ele>187</ele>
        <time>2024-03-19T06:11:18Z</time>
      </trkpt>
      <trkpt lat="50.08198" lon="4.19095">
        <ele>187</ele>
        <time>2024-03-19T06:11:19Z</time>
      </trkpt>
      <trkpt lat="50.08203" lon="4.19098">
        <ele>187</ele>
        <time>2024-03-19T06:11:20Z</time>
      </trkpt>
      <trkpt lat="50.08209" lon="4.19101">
        <ele>187</ele>
        <time>2024-03-19T06:11:21Z</time>
      </trkpt>
      <trkpt lat="50.08215" lon="4.19104">
        <ele>187</ele>
        <time>2024-03-19T06:11:22Z</time>
      </trkpt>
      <trkpt lat="50.0822" lon="4.19107">
        <ele>187</ele>
        <time>2024-03-19T06:11:23Z</time>
      </trkpt>
      <trkpt lat="50.08226" lon="4.1911">
        <ele>187</ele>
        <time>2024-03-19T06:11:24Z</time>
      </trkpt>
      <trkpt lat="50.08231" lon="4.19113">
        <ele>187</ele>
        <time>2024-03-19T06:11:25Z</time>
      </trkpt>
      <trkpt lat="50.08237" lon="4.19116">
        <ele>187</ele>
        <time>2024-03-19T06:11:26Z</time>
      </trkpt>
      <trkpt lat="50.08242" lon="4.19119">
        <ele>187.2</ele>
        <time>2024-03-19T06:11:27Z</time>
      </trkpt>
      <trkpt lat="50.08248" lon="4.19123">
        <ele>188.2</ele>
        <time>2024-03-19T06:11:28Z</time>
      </trkpt>
      <trkpt lat="50.08253" lon="4.19127">
        <ele>188.8</ele>
        <time>2024-03-19T06:11:29Z</time>
      </trkpt>
      <trkpt lat="50.08259" lon="4.1913">
        <ele>189</ele>
        <time>2024-03-19T06:11:30Z</time>
      </trkpt>
      <trkpt lat="50.08265" lon="4.19134">
        <ele>189</ele>
        <time>2024-03-19T06:11:31Z</time>
      </trkpt>
      <trkpt lat="50.0827" lon="4.19137">
        <ele>189.4</ele>
        <time>2024-03-19T06:11:32Z</time>
      </trkpt>
      <trkpt lat="50.08276" lon="4.19141">
        <ele>189.8</ele>
        <time>2024-03-19T06:11:33Z</time>
      </trkpt>
      <trkpt lat="50.08281" lon="4.19145">
        <ele>189.8</ele>
        <time>2024-03-19T06:11:34Z</time>
      </trkpt>
      <trkpt lat="50.08286" lon="4.19149">
        <ele>190</ele>
        <time>2024-03-19T06:11:35Z</time>
      </trkpt>
      <trkpt lat="50.08292" lon="4.19153">
        <ele>190</ele>
        <time>2024-03-19T06:11:36Z</time>
      </trkpt>
      <trkpt lat="50.08297" lon="4.19157">
        <ele>190</ele>
        <time>2024-03-19T06:11:37Z</time>
      </trkpt>
      <trkpt lat="50.08302" lon="4.19161">
        <ele>190.2</ele>
        <time>2024-03-19T06:11:38Z</time>
      </trkpt>
      <trkpt lat="50.08307" lon="4.19165">
        <ele>190.4</ele>
        <time>2024-03-19T06:11:39Z</time>
      </trkpt>
      <trkpt lat="50.08313" lon="4.19169">
        <ele>190.4</ele>
        <time>2024-03-19T06:11:40Z</time>
      </trkpt>
      <trkpt lat="50.08318" lon="4.19172">
        <ele>190.6</ele>
        <time>2024-03-19T06:11:41Z</time>
      </trkpt>
      <trkpt lat="50.08323" lon="4.19175">
        <ele>190.6</ele>
        <time>2024-03-19T06:11:42Z</time>
      </trkpt>
      <trkpt lat="50.08329" lon="4.19179">
        <ele>190.6</ele>
        <time>2024-03-19T06:11:43Z</time>
      </trkpt>
      <trkpt lat="50.08334" lon="4.19182">
        <ele>190.8</ele>
        <time>2024-03-19T06:11:44Z</time>
      </trkpt>
      <trkpt lat="50.0834" lon="4.19184">
        <ele>191</ele>
        <time>2024-03-19T06:11:45Z</time>
      </trkpt>
      <trkpt lat="50.08345" lon="4.19187">
        <ele>191</ele>
        <time>2024-03-19T06:11:46Z</time>
      </trkpt>
      <trkpt lat="50.08351" lon="4.19189">
        <ele>191</ele>
        <time>2024-03-19T06:11:47Z</time>
      </trkpt>
      <trkpt lat="50.08356" lon="4.19191">
        <ele>191</ele>
        <time>2024-03-19T06:11:48Z</time>
      </trkpt>
      <trkpt lat="50.08361" lon="4.19193">
        <ele>191.2</ele>
        <time>2024-03-19T06:11:49Z</time>
      </trkpt>
      <trkpt lat="50.08367" lon="4.19194">
        <ele>191.2</ele>
        <time>2024-03-19T06:11:50Z</time>
      </trkpt>
      <trkpt lat="50.08372" lon="4.19195">
        <ele>191.2</ele>
        <time>2024-03-19T06:11:51Z</time>
      </trkpt>
      <trkpt lat="50.08377" lon="4.19197">
        <ele>191.4</ele>
        <time>2024-03-19T06:11:52Z</time>
      </trkpt>
      <trkpt lat="50.08383" lon="4.19198">
        <ele>191.4</ele>
        <time>2024-03-19T06:11:53Z</time>
      </trkpt>
      <trkpt lat="50.08389" lon="4.19199">
        <ele>191.4</ele>
        <time>2024-03-19T06:11:54Z</time>
      </trkpt>
      <trkpt lat="50.08394" lon="4.192">
        <ele>191.4</ele>
        <time>2024-03-19T06:11:55Z</time>
      </trkpt>
      <trkpt lat="50.084" lon="4.19202">
        <ele>191.8</ele>
        <time>2024-03-19T06:11:56Z</time>
      </trkpt>
      <trkpt lat="50.08406" lon="4.19203">
        <ele>191.8</ele>
        <time>2024-03-19T06:11:57Z</time>
      </trkpt>
      <trkpt lat="50.08412" lon="4.19204">
        <ele>191.8</ele>
        <time>2024-03-19T06:11:58Z</time>
      </trkpt>
      <trkpt lat="50.08417" lon="4.19206">
        <ele>192</ele>
        <time>2024-03-19T06:11:59Z</time>
      </trkpt>
      <trkpt lat="50.08423" lon="4.19208">
        <ele>192.2</ele>
        <time>2024-03-19T06:12:00Z</time>
      </trkpt>
      <trkpt lat="50.08429" lon="4.19209">
        <ele>192.4</ele>
        <time>2024-03-19T06:12:01Z</time>
      </trkpt>
      <trkpt lat="50.08435" lon="4.1921">
        <ele>192.4</ele>
        <time>2024-03-19T06:12:02Z</time>
      </trkpt>
      <trkpt lat="50.08441" lon="4.19212">
        <ele>192.8</ele>
        <time>2024-03-19T06:12:03Z</time>
      </trkpt>
      <trkpt lat="50.08447" lon="4.19213">
        <ele>192.8</ele>
        <time>2024-03-19T06:12:04Z</time>
      </trkpt>
      <trkpt lat="50.08453" lon="4.19215">
        <ele>193.4</ele>
        <time>2024-03-19T06:12:05Z</time>
      </trkpt>
      <trkpt lat="50.0846" lon="4.19217">
        <ele>193.6</ele>
        <time>2024-03-19T06:12:06Z</time>
      </trkpt>
      <trkpt lat="50.08466" lon="4.1922">
        <ele>193.8</ele>
        <time>2024-03-19T06:12:07Z</time>
      </trkpt>
      <trkpt lat="50.08473" lon="4.19223">
        <ele>193.8</ele>
        <time>2024-03-19T06:12:08Z</time>
      </trkpt>
      <trkpt lat="50.08479" lon="4.19226">
        <ele>193.6</ele>
        <time>2024-03-19T06:12:09Z</time>
      </trkpt>
      <trkpt lat="50.08486" lon="4.19229">
        <ele>193.8</ele>
        <time>2024-03-19T06:12:10Z</time>
      </trkpt>
      <trkpt lat="50.08493" lon="4.19233">
        <ele>193.6</ele>
        <time>2024-03-19T06:12:11Z</time>
      </trkpt>
      <trkpt lat="50.085" lon="4.19237">
        <ele>193.8</ele>
        <time>2024-03-19T06:12:12Z</time>
      </trkpt>
      <trkpt lat="50.08507" lon="4.19241">
        <ele>193.6</ele>
        <time>2024-03-19T06:12:13Z</time>
      </trkpt>
      <trkpt lat="50.08514" lon="4.19245">
        <ele>193.8</ele>
        <time>2024-03-19T06:12:14Z</time>
      </trkpt>
      <trkpt lat="50.08522" lon="4.19249">
        <ele>193.6</ele>
        <time>2024-03-19T06:12:15Z</time>
      </trkpt>
      <trkpt lat="50.08529" lon="4.19253">
        <ele>193.6</ele>
        <time>2024-03-19T06:12:16Z</time>
      </trkpt>
      <trkpt lat="50.08537" lon="4.19257">
        <ele>193.6</ele>
        <time>2024-03-19T06:12:17Z</time>
      </trkpt>
      <trkpt lat="50.08544" lon="4.19262">
        <ele>193.2</ele>
        <time>2024-03-19T06:12:18Z</time>
      </trkpt>
      <trkpt lat="50.08552" lon="4.19267">
        <ele>192.4</ele>
        <time>2024-03-19T06:12:19Z</time>
      </trkpt>
      <trkpt lat="50.0856" lon="4.19272">
        <ele>192.4</ele>
        <time>2024-03-19T06:12:20Z</time>
      </trkpt>
      <trkpt lat="50.08568" lon="4.19276">
        <ele>191.8</ele>
        <time>2024-03-19T06:12:21Z</time>
      </trkpt>
      <trkpt lat="50.08577" lon="4.19282">
        <ele>191.4</ele>
        <time>2024-03-19T06:12:22Z</time>
      </trkpt>
      <trkpt lat="50.08585" lon="4.19287">
        <ele>190.8</ele>
        <time>2024-03-19T06:12:23Z</time>
      </trkpt>
      <trkpt lat="50.08593" lon="4.19291">
        <ele>190.6</ele>
        <time>2024-03-19T06:12:24Z</time>
      </trkpt>
      <trkpt lat="50.08602" lon="4.19296">
        <ele>190</ele>
        <time>2024-03-19T06:12:25Z</time>
      </trkpt>
      <trkpt lat="50.08611" lon="4.193">
        <ele>189.6</ele>
        <time>2024-03-19T06:12:26Z</time>
      </trkpt>
      <trkpt lat="50.08619" lon="4.19304">
        <ele>189</ele>
        <time>2024-03-19T06:12:27Z</time>
      </trkpt>
      <trkpt lat="50.08628" lon="4.19308">
        <ele>188.8</ele>
        <time>2024-03-19T06:12:28Z</time>
      </trkpt>
      <trkpt lat="50.08637" lon="4.19312">
        <ele>188.4</ele>
        <time>2024-03-19T06:12:29Z</time>
      </trkpt>
      <trkpt lat="50.08646" lon="4.19316">
        <ele>188</ele>
        <time>2024-03-19T06:12:30Z</time>
      </trkpt>
      <trkpt lat="50.08655" lon="4.19319">
        <ele>187.6</ele>
        <time>2024-03-19T06:12:31Z</time>
      </trkpt>
      <trkpt lat="50.08664" lon="4.19322">
        <ele>187.4</ele>
        <time>2024-03-19T06:12:32Z</time>
      </trkpt>
      <trkpt lat="50.08672" lon="4.19325">
        <ele>187.2</ele>
        <time>2024-03-19T06:12:33Z</time>
      </trkpt>
      <trkpt lat="50.08681" lon="4.19328">
        <ele>187</ele>
        <time>2024-03-19T06:12:34Z</time>
      </trkpt>
      <trkpt lat="50.0869" lon="4.1933">
        <ele>186.8</ele>
        <time>2024-03-19T06:12:35Z</time>
      </trkpt>
      <trkpt lat="50.08698" lon="4.19332">
        <ele>186.6</ele>
        <time>2024-03-19T06:12:36Z</time>
      </trkpt>
      <trkpt lat="50.08707" lon="4.19334">
        <ele>186.6</ele>
        <time>2024-03-19T06:12:37Z</time>
      </trkpt>
      <trkpt lat="50.08716" lon="4.19335">
        <ele>186.4</ele>
        <time>2024-03-19T06:12:38Z</time>
      </trkpt>
      <trkpt lat="50.08724" lon="4.19336">
        <ele>186</ele>
        <time>2024-03-19T06:12:39Z</time>
      </trkpt>
      <trkpt lat="50.08733" lon="4.19335">
        <ele>186</ele>
        <time>2024-03-19T06:12:40Z</time>
      </trkpt>
      <trkpt lat="50.08741" lon="4.19335">
        <ele>185.6</ele>
        <time>2024-03-19T06:12:41Z</time>
      </trkpt>
      <trkpt lat="50.0875" lon="4.19334">
        <ele>185.4</ele>
        <time>2024-03-19T06:12:42Z</time>
      </trkpt>
      <trkpt lat="50.08758" lon="4.19333">
        <ele>185.2</ele>
        <time>2024-03-19T06:12:43Z</time>
      </trkpt>
      <trkpt lat="50.08766" lon="4.19332">
        <ele>185.2</ele>
        <time>2024-03-19T06:12:44Z</time>
      </trkpt>
      <trkpt lat="50.08774" lon="4.19332">
        <ele>185</ele>
        <time>2024-03-19T06:12:45Z</time>
      </trkpt>
      <trkpt lat="50.08782" lon="4.19331">
        <ele>184.8</ele>
        <time>2024-03-19T06:12:46Z</time>
      </trkpt>
      <trkpt lat="50.0879" lon="4.1933">
        <ele>184.8</ele>
        <time>2024-03-19T06:12:47Z</time>
      </trkpt>
      <trkpt lat="50.08798" lon="4.19329">
        <ele>184.6</ele>
        <time>2024-03-19T06:12:48Z</time>
      </trkpt>
      <trkpt lat="50.08806" lon="4.19328">
        <ele>184.2</ele>
        <time>2024-03-19T06:12:49Z</time>
      </trkpt>
      <trkpt lat="50.08813" lon="4.19327">
        <ele>184</ele>
        <time>2024-03-19T06:12:50Z</time>
      </trkpt>
      <trkpt lat="50.08821" lon="4.19326">
        <ele>184</ele>
        <time>2024-03-19T06:12:51Z</time>
      </trkpt>
      <trkpt lat="50.08828" lon="4.19325">
        <ele>184</ele>
        <time>2024-03-19T06:12:52Z</time>
      </trkpt>
      <trkpt lat="50.08835" lon="4.19324">
        <ele>184</ele>
        <time>2024-03-19T06:12:53Z</time>
      </trkpt>
      <trkpt lat="50.08843" lon="4.19323">
        <ele>184</ele>
        <time>2024-03-19T06:12:54Z</time>
      </trkpt>
      <trkpt lat="50.0885" lon="4.19322">
        <ele>184</ele>
        <time>2024-03-19T06:12:55Z</time>
      </trkpt>
      <trkpt lat="50.08857" lon="4.19321">
        <ele>184</ele>
        <time>2024-03-19T06:12:56Z</time>
      </trkpt>
      <trkpt lat="50.08864" lon="4.1932">
        <ele>184</ele>
        <time>2024-03-19T06:12:57Z</time>
      </trkpt>
      <trkpt lat="50.08871" lon="4.19319">
        <ele>184</ele>
        <time>2024-03-19T06:12:58Z</time>
      </trkpt>
      <trkpt lat="50.08878" lon="4.19318">
        <ele>184</ele>
        <time>2024-03-19T06:12:59Z</time>
      </trkpt>
      <trkpt lat="50.08885" lon="4.19317">
        <ele>184</ele>
        <time>2024-03-19T06:13:00Z</time>
      </trkpt>
      <trkpt lat="50.08892" lon="4.19317">
        <ele>184</ele>
        <time>2024-03-19T06:13:01Z</time>
      </trkpt>
      <trkpt lat="50.08899" lon="4.19318">
        <ele>184.2</ele>
        <time>2024-03-19T06:13:02Z</time>
      </trkpt>
      <trkpt lat="50.08906" lon="4.19319">
        <ele>184</ele>
        <time>2024-03-19T06:13:03Z</time>
      </trkpt>
      <trkpt lat="50.08913" lon="4.19321">
        <ele>184</ele>
        <time>2024-03-19T06:13:04Z</time>
      </trkpt>
      <trkpt lat="50.0892" lon="4.19323">
        <ele>184</ele>
        <time>2024-03-19T06:13:05Z</time>
      </trkpt>
      <trkpt lat="50.08926" lon="4.19325">
        <ele>184</ele>
        <time>2024-03-19T06:13:06Z</time>
      </trkpt>
      <trkpt lat="50.08933" lon="4.19328">
        <ele>184</ele>
        <time>2024-03-19T06:13:07Z</time>
      </trkpt>
      <trkpt lat="50.08939" lon="4.19331">
        <ele>184.2</ele>
        <time>2024-03-19T06:13:08Z</time>
      </trkpt>
      <trkpt lat="50.08946" lon="4.19334">
        <ele>184.2</ele>
        <time>2024-03-19T06:13:09Z</time>
      </trkpt>
      <trkpt lat="50.08952" lon="4.19336">
        <ele>184.2</ele>
        <time>2024-03-19T06:13:10Z</time>
      </trkpt>
      <trkpt lat="50.08958" lon="4.19339">
        <ele>184.2</ele>
        <time>2024-03-19T06:13:11Z</time>
      </trkpt>
      <trkpt lat="50.08964" lon="4.19342">
        <ele>184.2</ele>
        <time>2024-03-19T06:13:12Z</time>
      </trkpt>
      <trkpt lat="50.0897" lon="4.19344">
        <ele>184.4</ele>
        <time>2024-03-19T06:13:13Z</time>
      </trkpt>
      <trkpt lat="50.08976" lon="4.19347">
        <ele>184.4</ele>
        <time>2024-03-19T06:13:14Z</time>
      </trkpt>
      <trkpt lat="50.08983" lon="4.19349">
        <ele>184.4</ele>
        <time>2024-03-19T06:13:15Z</time>
      </trkpt>
      <trkpt lat="50.08988" lon="4.19352">
        <ele>184.6</ele>
        <time>2024-03-19T06:13:16Z</time>
      </trkpt>
      <trkpt lat="50.08994" lon="4.19354">
        <ele>184.6</ele>
        <time>2024-03-19T06:13:17Z</time>
      </trkpt>
      <trkpt lat="50.09" lon="4.19356">
        <ele>184.6</ele>
        <time>2024-03-19T06:13:18Z</time>
      </trkpt>
      <trkpt lat="50.09006" lon="4.19357">
        <ele>184.8</ele>
        <time>2024-03-19T06:13:19Z</time>
      </trkpt>
      <trkpt lat="50.09012" lon="4.19359">
        <ele>184.8</ele>
        <time>2024-03-19T06:13:20Z</time>
      </trkpt>
      <trkpt lat="50.09018" lon="4.19359">
        <ele>184.8</ele>
        <time>2024-03-19T06:13:21Z</time>
      </trkpt>
      <trkpt lat="50.09024" lon="4.1936">
        <ele>185</ele>
        <time>2024-03-19T06:13:22Z</time>
      </trkpt>
      <trkpt lat="50.0903" lon="4.19361">
        <ele>185.2</ele>
        <time>2024-03-19T06:13:23Z</time>
      </trkpt>
      <trkpt lat="50.09036" lon="4.19361">
        <ele>185.4</ele>
        <time>2024-03-19T06:13:24Z</time>
      </trkpt>
      <trkpt lat="50.09042" lon="4.19362">
        <ele>185.4</ele>
        <time>2024-03-19T06:13:25Z</time>
      </trkpt>
      <trkpt lat="50.09048" lon="4.19362">
        <ele>185.4</ele>
        <time>2024-03-19T06:13:26Z</time>
      </trkpt>
      <trkpt lat="50.09054" lon="4.19362">
        <ele>185.4</ele>
        <time>2024-03-19T06:13:27Z</time>
      </trkpt>
      <trkpt lat="50.09059" lon="4.19362">
        <ele>185.6</ele>
        <time>2024-03-19T06:13:28Z</time>
      </trkpt>
      <trkpt lat="50.09065" lon="4.19362">
        <ele>185.8</ele>
        <time>2024-03-19T06:13:29Z</time>
      </trkpt>
      <trkpt lat="50.09071" lon="4.19362">
        <ele>186.2</ele>
        <time>2024-03-19T06:13:30Z</time>
      </trkpt>
      <trkpt lat="50.09077" lon="4.19362">
        <ele>186.4</ele>
        <time>2024-03-19T06:13:31Z</time>
      </trkpt>
      <trkpt lat="50.09083" lon="4.19362">
        <ele>186.4</ele>
        <time>2024-03-19T06:13:32Z</time>
      </trkpt>
      <trkpt lat="50.09089" lon="4.19362">
        <ele>186.6</ele>
        <time>2024-03-19T06:13:33Z</time>
      </trkpt>
      <trkpt lat="50.09094" lon="4.19361">
        <ele>186.6</ele>
        <time>2024-03-19T06:13:34Z</time>
      </trkpt>
      <trkpt lat="50.091" lon="4.19361">
        <ele>186.6</ele>
        <time>2024-03-19T06:13:35Z</time>
      </trkpt>
      <trkpt lat="50.09106" lon="4.19361">
        <ele>186.8</ele>
        <time>2024-03-19T06:13:36Z</time>
      </trkpt>
      <trkpt lat="50.09112" lon="4.19362">
        <ele>187</ele>
        <time>2024-03-19T06:13:37Z</time>
      </trkpt>
      <trkpt lat="50.09118" lon="4.19362">
        <ele>187.2</ele>
        <time>2024-03-19T06:13:38Z</time>
      </trkpt>
      <trkpt lat="50.09124" lon="4.19362">
        <ele>187</ele>
        <time>2024-03-19T06:13:39Z</time>
      </trkpt>
      <trkpt lat="50.0913" lon="4.19362">
        <ele>187.2</ele>
        <time>2024-03-19T06:13:40Z</time>
      </trkpt>
      <trkpt lat="50.09136" lon="4.19363">
        <ele>187.2</ele>
        <time>2024-03-19T06:13:41Z</time>
      </trkpt>
      <trkpt lat="50.09142" lon="4.19363">
        <ele>187.2</ele>
        <time>2024-03-19T06:13:42Z</time>
      </trkpt>
      <trkpt lat="50.09148" lon="4.19363">
        <ele>187.2</ele>
        <time>2024-03-19T06:13:43Z</time>
      </trkpt>
      <trkpt lat="50.09154" lon="4.19363">
        <ele>187.2</ele>
        <time>2024-03-19T06:13:44Z</time>
      </trkpt>
      <trkpt lat="50.09161" lon="4.19363">
        <ele>187.4</ele>
        <time>2024-03-19T06:13:45Z</time>
      </trkpt>
      <trkpt lat="50.09168" lon="4.19363">
        <ele>187.2</ele>
        <time>2024-03-19T06:13:46Z</time>
      </trkpt>
      <trkpt lat="50.09175" lon="4.19362">
        <ele>187.2</ele>
        <time>2024-03-19T06:13:47Z</time>
      </trkpt>
      <trkpt lat="50.09182" lon="4.19362">
        <ele>187.4</ele>
        <time>2024-03-19T06:13:48Z</time>
      </trkpt>
      <trkpt lat="50.09189" lon="4.19361">
        <ele>187.4</ele>
        <time>2024-03-19T06:13:49Z</time>
      </trkpt>
      <trkpt lat="50.09196" lon="4.1936">
        <ele>187.2</ele>
        <time>2024-03-19T06:13:50Z</time>
      </trkpt>
      <trkpt lat="50.09204" lon="4.19358">
        <ele>187.4</ele>
        <time>2024-03-19T06:13:51Z</time>
      </trkpt>
      <trkpt lat="50.09211" lon="4.19356">
        <ele>187.4</ele>
        <time>2024-03-19T06:13:52Z</time>
      </trkpt>
      <trkpt lat="50.09218" lon="4.19353">
        <ele>187.4</ele>
        <time>2024-03-19T06:13:53Z</time>
      </trkpt>
      <trkpt lat="50.09225" lon="4.19351">
        <ele>187.2</ele>
        <time>2024-03-19T06:13:54Z</time>
      </trkpt>
      <trkpt lat="50.09232" lon="4.19348">
        <ele>187.2</ele>
        <time>2024-03-19T06:13:55Z</time>
      </trkpt>
      <trkpt lat="50.09239" lon="4.19346">
        <ele>187.2</ele>
        <time>2024-03-19T06:13:56Z</time>
      </trkpt>
      <trkpt lat="50.09246" lon="4.19343">
        <ele>187.2</ele>
        <time>2024-03-19T06:13:57Z</time>
      </trkpt>
      <trkpt lat="50.09253" lon="4.1934">
        <ele>187</ele>
        <time>2024-03-19T06:13:58Z</time>
      </trkpt>
      <trkpt lat="50.0926" lon="4.19338">
        <ele>187</ele>
        <time>2024-03-19T06:13:59Z</time>
      </trkpt>
      <trkpt lat="50.09267" lon="4.19335">
        <ele>187</ele>
        <time>2024-03-19T06:14:00Z</time>
      </trkpt>
      <trkpt lat="50.09274" lon="4.19333">
        <ele>186.6</ele>
        <time>2024-03-19T06:14:01Z</time>
      </trkpt>
      <trkpt lat="50.09281" lon="4.19332">
        <ele>186.8</ele>
        <time>2024-03-19T06:14:02Z</time>
      </trkpt>
      <trkpt lat="50.09288" lon="4.1933">
        <ele>186.6</ele>
        <time>2024-03-19T06:14:03Z</time>
      </trkpt>
      <trkpt lat="50.09295" lon="4.19329">
        <ele>186.6</ele>
        <time>2024-03-19T06:14:04Z</time>
      </trkpt>
      <trkpt lat="50.09302" lon="4.19328">
        <ele>186.4</ele>
        <time>2024-03-19T06:14:05Z</time>
      </trkpt>
      <trkpt lat="50.09309" lon="4.19328">
        <ele>186.4</ele>
        <time>2024-03-19T06:14:06Z</time>
      </trkpt>
      <trkpt lat="50.09316" lon="4.19329">
        <ele>186.4</ele>
        <time>2024-03-19T06:14:07Z</time>
      </trkpt>
      <trkpt lat="50.09323" lon="4.19329">
        <ele>186.2</ele>
        <time>2024-03-19T06:14:08Z</time>
      </trkpt>
      <trkpt lat="50.0933" lon="4.19329">
        <ele>186</ele>
        <time>2024-03-19T06:14:09Z</time>
      </trkpt>
      <trkpt lat="50.09337" lon="4.19329">
        <ele>186</ele>
        <time>2024-03-19T06:14:10Z</time>
      </trkpt>
      <trkpt lat="50.09343" lon="4.1933">
        <ele>185.8</ele>
        <time>2024-03-19T06:14:11Z</time>
      </trkpt>
      <trkpt lat="50.0935" lon="4.1933">
        <ele>185.8</ele>
        <time>2024-03-19T06:14:12Z</time>
      </trkpt>
      <trkpt lat="50.09356" lon="4.19332">
        <ele>185.6</ele>
        <time>2024-03-19T06:14:13Z</time>
      </trkpt>
      <trkpt lat="50.09362" lon="4.19335">
        <ele>185.6</ele>
        <time>2024-03-19T06:14:14Z</time>
      </trkpt>
      <trkpt lat="50.09369" lon="4.19338">
        <ele>185.6</ele>
        <time>2024-03-19T06:14:15Z</time>
      </trkpt>
      <trkpt lat="50.09375" lon="4.19343">
        <ele>185.4</ele>
        <time>2024-03-19T06:14:16Z</time>
      </trkpt>
      <trkpt lat="50.09382" lon="4.19348">
        <ele>185.4</ele>
        <time>2024-03-19T06:14:17Z</time>
      </trkpt>
      <trkpt lat="50.09388" lon="4.19354">
        <ele>185.6</ele>
        <time>2024-03-19T06:14:18Z</time>
      </trkpt>
      <trkpt lat="50.09393" lon="4.1936">
        <ele>185.4</ele>
        <time>2024-03-19T06:14:19Z</time>
      </trkpt>
      <trkpt lat="50.09399" lon="4.19367">
        <ele>185.2</ele>
        <time>2024-03-19T06:14:20Z</time>
      </trkpt>
      <trkpt lat="50.09404" lon="4.19374">
        <ele>185.4</ele>
        <time>2024-03-19T06:14:21Z</time>
      </trkpt>
      <trkpt lat="50.09408" lon="4.19381">
        <ele>185.2</ele>
        <time>2024-03-19T06:14:22Z</time>
      </trkpt>
      <trkpt lat="50.09413" lon="4.19388">
        <ele>185.2</ele>
        <time>2024-03-19T06:14:23Z</time>
      </trkpt>
      <trkpt lat="50.09417" lon="4.19396">
        <ele>185</ele>
        <time>2024-03-19T06:14:24Z</time>
      </trkpt>
      <trkpt lat="50.09422" lon="4.19403">
        <ele>185</ele>
        <time>2024-03-19T06:14:25Z</time>
      </trkpt>
      <trkpt lat="50.09426" lon="4.19411">
        <ele>184.8</ele>
        <time>2024-03-19T06:14:26Z</time>
      </trkpt>
      <trkpt lat="50.09431" lon="4.19418">
        <ele>184.4</ele>
        <time>2024-03-19T06:14:27Z</time>
      </trkpt>
      <trkpt lat="50.09435" lon="4.19425">
        <ele>184.2</ele>
        <time>2024-03-19T06:14:28Z</time>
      </trkpt>
      <trkpt lat="50.0944" lon="4.19432">
        <ele>184.4</ele>
        <time>2024-03-19T06:14:29Z</time>
      </trkpt>
      <trkpt lat="50.09444" lon="4.19439">
        <ele>184.2</ele>
        <time>2024-03-19T06:14:30Z</time>
      </trkpt>
      <trkpt lat="50.09448" lon="4.19446">
        <ele>184.2</ele>
        <time>2024-03-19T06:14:31Z</time>
      </trkpt>
      <trkpt lat="50.09453" lon="4.19453">
        <ele>184</ele>
        <time>2024-03-19T06:14:32Z</time>
      </trkpt>
      <trkpt lat="50.09457" lon="4.19461">
        <ele>184</ele>
        <time>2024-03-19T06:14:33Z</time>
      </trkpt>
      <trkpt lat="50.09461" lon="4.19468">
        <ele>184</ele>
        <time>2024-03-19T06:14:34Z</time>
      </trkpt>
      <trkpt lat="50.09466" lon="4.19475">
        <ele>183.8</ele>
        <time>2024-03-19T06:14:35Z</time>
      </trkpt>
      <trkpt lat="50.0947" lon="4.19483">
        <ele>183.8</ele>
        <time>2024-03-19T06:14:36Z</time>
      </trkpt>
      <trkpt lat="50.09474" lon="4.1949">
        <ele>183.8</ele>
        <time>2024-03-19T06:14:37Z</time>
      </trkpt>
      <trkpt lat="50.09478" lon="4.19498">
        <ele>183.8</ele>
        <time>2024-03-19T06:14:38Z</time>
      </trkpt>
      <trkpt lat="50.09482" lon="4.19505">
        <ele>183.8</ele>
        <time>2024-03-19T06:14:39Z</time>
      </trkpt>
      <trkpt lat="50.09486" lon="4.19513">
        <ele>183.8</ele>
        <time>2024-03-19T06:14:40Z</time>
      </trkpt>
      <trkpt lat="50.09491" lon="4.19521">
        <ele>183.6</ele>
        <time>2024-03-19T06:14:41Z</time>
      </trkpt>
      <trkpt lat="50.09496" lon="4.19528">
        <ele>183.6</ele>
        <time>2024-03-19T06:14:42Z</time>
      </trkpt>
      <trkpt lat="50.09501" lon="4.19534">
        <ele>183.4</ele>
        <time>2024-03-19T06:14:43Z</time>
      </trkpt>
      <trkpt lat="50.09507" lon="4.1954">
        <ele>183.4</ele>
        <time>2024-03-19T06:14:44Z</time>
      </trkpt>
      <trkpt lat="50.09512" lon="4.19545">
        <ele>183.4</ele>
        <time>2024-03-19T06:14:45Z</time>
      </trkpt>
      <trkpt lat="50.09519" lon="4.19549">
        <ele>183.4</ele>
        <time>2024-03-19T06:14:46Z</time>
      </trkpt>
      <trkpt lat="50.09526" lon="4.19552">
        <ele>183.4</ele>
        <time>2024-03-19T06:14:47Z</time>
      </trkpt>
      <trkpt lat="50.09533" lon="4.19553">
        <ele>183.4</ele>
        <time>2024-03-19T06:14:48Z</time>
      </trkpt>
      <trkpt lat="50.0954" lon="4.19554">
        <ele>183.4</ele>
        <time>2024-03-19T06:14:49Z</time>
      </trkpt>
      <trkpt lat="50.09548" lon="4.19554">
        <ele>183.2</ele>
        <time>2024-03-19T06:14:50Z</time>
      </trkpt>
      <trkpt lat="50.09556" lon="4.19554">
        <ele>182.8</ele>
        <time>2024-03-19T06:14:51Z</time>
      </trkpt>
      <trkpt lat="50.09564" lon="4.19553">
        <ele>182.4</ele>
        <time>2024-03-19T06:14:52Z</time>
      </trkpt>
      <trkpt lat="50.09572" lon="4.19553">
        <ele>182</ele>
        <time>2024-03-19T06:14:53Z</time>
      </trkpt>
      <trkpt lat="50.0958" lon="4.19552">
        <ele>182</ele>
        <time>2024-03-19T06:14:54Z</time>
      </trkpt>
      <trkpt lat="50.09587" lon="4.1955">
        <ele>181.8</ele>
        <time>2024-03-19T06:14:55Z</time>
      </trkpt>
      <trkpt lat="50.09595" lon="4.19548">
        <ele>181.4</ele>
        <time>2024-03-19T06:14:56Z</time>
      </trkpt>
      <trkpt lat="50.09602" lon="4.19544">
        <ele>181.4</ele>
        <time>2024-03-19T06:14:57Z</time>
      </trkpt>
      <trkpt lat="50.09608" lon="4.19539">
        <ele>181.2</ele>
        <time>2024-03-19T06:14:58Z</time>
      </trkpt>
      <trkpt lat="50.09614" lon="4.19532">
        <ele>181.2</ele>
        <time>2024-03-19T06:14:59Z</time>
      </trkpt>
      <trkpt lat="50.0962" lon="4.19524">
        <ele>181</ele>
        <time>2024-03-19T06:15:00Z</time>
      </trkpt>
      <trkpt lat="50.09626" lon="4.19516">
        <ele>180.8</ele>
        <time>2024-03-19T06:15:01Z</time>
      </trkpt>
      <trkpt lat="50.09631" lon="4.19508">
        <ele>180.8</ele>
        <time>2024-03-19T06:15:02Z</time>
      </trkpt>
      <trkpt lat="50.09637" lon="4.195">
        <ele>180.6</ele>
        <time>2024-03-19T06:15:03Z</time>
      </trkpt>
      <trkpt lat="50.09643" lon="4.19493">
        <ele>180.6</ele>
        <time>2024-03-19T06:15:04Z</time>
      </trkpt>
      <trkpt lat="50.09649" lon="4.19486">
        <ele>180.4</ele>
        <time>2024-03-19T06:15:05Z</time>
      </trkpt>
      <trkpt lat="50.09654" lon="4.1948">
        <ele>180.4</ele>
        <time>2024-03-19T06:15:06Z</time>
      </trkpt>
      <trkpt lat="50.0966" lon="4.19473">
        <ele>180.2</ele>
        <time>2024-03-19T06:15:07Z</time>
      </trkpt>
      <trkpt lat="50.09666" lon="4.19467">
        <ele>180.2</ele>
        <time>2024-03-19T06:15:08Z</time>
      </trkpt>
      <trkpt lat="50.09671" lon="4.19461">
        <ele>180.2</ele>
        <time>2024-03-19T06:15:09Z</time>
      </trkpt>
      <trkpt lat="50.09677" lon="4.19455">
        <ele>180.2</ele>
        <time>2024-03-19T06:15:10Z</time>
      </trkpt>
      <trkpt lat="50.09683" lon="4.19449">
        <ele>180</ele>
        <time>2024-03-19T06:15:11Z</time>
      </trkpt>
      <trkpt lat="50.09689" lon="4.19443">
        <ele>180</ele>
        <time>2024-03-19T06:15:12Z</time>
      </trkpt>
      <trkpt lat="50.09694" lon="4.19438">
        <ele>179.8</ele>
        <time>2024-03-19T06:15:13Z</time>
      </trkpt>
      <trkpt lat="50.097" lon="4.19432">
        <ele>179.6</ele>
        <time>2024-03-19T06:15:14Z</time>
      </trkpt>
      <trkpt lat="50.09706" lon="4.19426">
        <ele>179.4</ele>
        <time>2024-03-19T06:15:15Z</time>
      </trkpt>
      <trkpt lat="50.09712" lon="4.19421">
        <ele>179.2</ele>
        <time>2024-03-19T06:15:16Z</time>
      </trkpt>
      <trkpt lat="50.09718" lon="4.19416">
        <ele>179</ele>
        <time>2024-03-19T06:15:17Z</time>
      </trkpt>
      <trkpt lat="50.09725" lon="4.19412">
        <ele>179.2</ele>
        <time>2024-03-19T06:15:18Z</time>
      </trkpt>
      <trkpt lat="50.09732" lon="4.1941">
        <ele>179.2</ele>
        <time>2024-03-19T06:15:19Z</time>
      </trkpt>
      <trkpt lat="50.09738" lon="4.19408">
        <ele>179.2</ele>
        <time>2024-03-19T06:15:20Z</time>
      </trkpt>
      <trkpt lat="50.09745" lon="4.19407">
        <ele>179</ele>
        <time>2024-03-19T06:15:21Z</time>
      </trkpt>
      <trkpt lat="50.09751" lon="4.19407">
        <ele>179.2</ele>
        <time>2024-03-19T06:15:22Z</time>
      </trkpt>
      <trkpt lat="50.09758" lon="4.19407">
        <ele>179</ele>
        <time>2024-03-19T06:15:23Z</time>
      </trkpt>
      <trkpt lat="50.09764" lon="4.19407">
        <ele>179.2</ele>
        <time>2024-03-19T06:15:24Z</time>
      </trkpt>
      <trkpt lat="50.09771" lon="4.19407">
        <ele>179</ele>
        <time>2024-03-19T06:15:25Z</time>
      </trkpt>
      <trkpt lat="50.09777" lon="4.19407">
        <ele>179.2</ele>
        <time>2024-03-19T06:15:26Z</time>
      </trkpt>
      <trkpt lat="50.09784" lon="4.19407">
        <ele>179.4</ele>
        <time>2024-03-19T06:15:27Z</time>
      </trkpt>
      <trkpt lat="50.09791" lon="4.19407">
        <ele>179.4</ele>
        <time>2024-03-19T06:15:28Z</time>
      </trkpt>
      <trkpt lat="50.09797" lon="4.19407">
        <ele>179.4</ele>
        <time>2024-03-19T06:15:29Z</time>
      </trkpt>
      <trkpt lat="50.09804" lon="4.19407">
        <ele>179.4</ele>
        <time>2024-03-19T06:15:30Z</time>
      </trkpt>
      <trkpt lat="50.09811" lon="4.19407">
        <ele>179.4</ele>
        <time>2024-03-19T06:15:31Z</time>
      </trkpt>
      <trkpt lat="50.09818" lon="4.19407">
        <ele>179.4</ele>
        <time>2024-03-19T06:15:32Z</time>
      </trkpt>
      <trkpt lat="50.09824" lon="4.19407">
        <ele>179.6</ele>
        <time>2024-03-19T06:15:33Z</time>
      </trkpt>
      <trkpt lat="50.09831" lon="4.19407">
        <ele>179.6</ele>
        <time>2024-03-19T06:15:34Z</time>
      </trkpt>
      <trkpt lat="50.09838" lon="4.19407">
        <ele>179.6</ele>
        <time>2024-03-19T06:15:35Z</time>
      </trkpt>
      <trkpt lat="50.09844" lon="4.19407">
        <ele>179.4</ele>
        <time>2024-03-19T06:15:36Z</time>
      </trkpt>
      <trkpt lat="50.09851" lon="4.19408">
        <ele>179.6</ele>
        <time>2024-03-19T06:15:37Z</time>
      </trkpt>
      <trkpt lat="50.09857" lon="4.19408">
        <ele>179.6</ele>
        <time>2024-03-19T06:15:38Z</time>
      </trkpt>
      <trkpt lat="50.09863" lon="4.19409">
        <ele>179.4</ele>
        <time>2024-03-19T06:15:39Z</time>
      </trkpt>
      <trkpt lat="50.09869" lon="4.19409">
        <ele>179.6</ele>
        <time>2024-03-19T06:15:40Z</time>
      </trkpt>
      <trkpt lat="50.09875" lon="4.19409">
        <ele>179.6</ele>
        <time>2024-03-19T06:15:41Z</time>
      </trkpt>
      <trkpt lat="50.09881" lon="4.19409">
        <ele>179.8</ele>
        <time>2024-03-19T06:15:42Z</time>
      </trkpt>
      <trkpt lat="50.09886" lon="4.19409">
        <ele>179.6</ele>
        <time>2024-03-19T06:15:43Z</time>
      </trkpt>
      <trkpt lat="50.09891" lon="4.19409">
        <ele>179.8</ele>
        <time>2024-03-19T06:15:44Z</time>
      </trkpt>
      <trkpt lat="50.09897" lon="4.19409">
        <ele>179.8</ele>
        <time>2024-03-19T06:15:45Z</time>
      </trkpt>
      <trkpt lat="50.09902" lon="4.19409">
        <ele>180.2</ele>
        <time>2024-03-19T06:15:46Z</time>
      </trkpt>
      <trkpt lat="50.09907" lon="4.19409">
        <ele>180.6</ele>
        <time>2024-03-19T06:15:47Z</time>
      </trkpt>
      <trkpt lat="50.09912" lon="4.19408">
        <ele>181</ele>
        <time>2024-03-19T06:15:48Z</time>
      </trkpt>
      <trkpt lat="50.09917" lon="4.19407">
        <ele>181.2</ele>
        <time>2024-03-19T06:15:49Z</time>
      </trkpt>
      <trkpt lat="50.09922" lon="4.19407">
        <ele>181.6</ele>
        <time>2024-03-19T06:15:50Z</time>
      </trkpt>
      <trkpt lat="50.09927" lon="4.19406">
        <ele>181.8</ele>
        <time>2024-03-19T06:15:51Z</time>
      </trkpt>
      <trkpt lat="50.09933" lon="4.19406">
        <ele>182</ele>
        <time>2024-03-19T06:15:52Z</time>
      </trkpt>
      <trkpt lat="50.09938" lon="4.19405">
        <ele>182</ele>
        <time>2024-03-19T06:15:53Z</time>
      </trkpt>
      <trkpt lat="50.09943" lon="4.19405">
        <ele>182.4</ele>
        <time>2024-03-19T06:15:54Z</time>
      </trkpt>
      <trkpt lat="50.09948" lon="4.19404">
        <ele>182.4</ele>
        <time>2024-03-19T06:15:55Z</time>
      </trkpt>
      <trkpt lat="50.09953" lon="4.19403">
        <ele>182.6</ele>
        <time>2024-03-19T06:15:56Z</time>
      </trkpt>
      <trkpt lat="50.09959" lon="4.19403">
        <ele>182.8</ele>
        <time>2024-03-19T06:15:57Z</time>
      </trkpt>
      <trkpt lat="50.09964" lon="4.19402">
        <ele>182.8</ele>
        <time>2024-03-19T06:15:58Z</time>
      </trkpt>
      <trkpt lat="50.09969" lon="4.19401">
        <ele>183</ele>
        <time>2024-03-19T06:15:59Z</time>
      </trkpt>
      <trkpt lat="50.09974" lon="4.19401">
        <ele>183.2</ele>
        <time>2024-03-19T06:16:00Z</time>
      </trkpt>
      <trkpt lat="50.09979" lon="4.194">
        <ele>183.4</ele>
        <time>2024-03-19T06:16:01Z</time>
      </trkpt>
      <trkpt lat="50.09984" lon="4.194">
        <ele>183.6</ele>
        <time>2024-03-19T06:16:02Z</time>
      </trkpt>
      <trkpt lat="50.09989" lon="4.19399">
        <ele>184.6</ele>
        <time>2024-03-19T06:16:03Z</time>
      </trkpt>
      <trkpt lat="50.09994" lon="4.19399">
        <ele>185.4</ele>
        <time>2024-03-19T06:16:04Z</time>
      </trkpt>
      <trkpt lat="50.09999" lon="4.19398">
        <ele>186</ele>
        <time>2024-03-19T06:16:05Z</time>
      </trkpt>
      <trkpt lat="50.10004" lon="4.19398">
        <ele>186.2</ele>
        <time>2024-03-19T06:16:06Z</time>
      </trkpt>
      <trkpt lat="50.10009" lon="4.19397">
        <ele>186.4</ele>
        <time>2024-03-19T06:16:07Z</time>
      </trkpt>
      <trkpt lat="50.10014" lon="4.19396">
        <ele>186.6</ele>
        <time>2024-03-19T06:16:08Z</time>
      </trkpt>
      <trkpt lat="50.1002" lon="4.19394">
        <ele>186.6</ele>
        <time>2024-03-19T06:16:09Z</time>
      </trkpt>
      <trkpt lat="50.10025" lon="4.19392">
        <ele>187</ele>
        <time>2024-03-19T06:16:10Z</time>
      </trkpt>
      <trkpt lat="50.1003" lon="4.1939">
        <ele>187</ele>
        <time>2024-03-19T06:16:11Z</time>
      </trkpt>
      <trkpt lat="50.10035" lon="4.19388">
        <ele>187</ele>
        <time>2024-03-19T06:16:12Z</time>
      </trkpt>
      <trkpt lat="50.10041" lon="4.19386">
        <ele>187.2</ele>
        <time>2024-03-19T06:16:13Z</time>
      </trkpt>
      <trkpt lat="50.10046" lon="4.19383">
        <ele>187.2</ele>
        <time>2024-03-19T06:16:14Z</time>
      </trkpt>
      <trkpt lat="50.10051" lon="4.1938">
        <ele>187.4</ele>
        <time>2024-03-19T06:16:15Z</time>
      </trkpt>
      <trkpt lat="50.10057" lon="4.19377">
        <ele>187.6</ele>
        <time>2024-03-19T06:16:16Z</time>
      </trkpt>
      <trkpt lat="50.10062" lon="4.19373">
        <ele>187.4</ele>
        <time>2024-03-19T06:16:17Z</time>
      </trkpt>
      <trkpt lat="50.10067" lon="4.1937">
        <ele>187.6</ele>
        <time>2024-03-19T06:16:18Z</time>
      </trkpt>
      <trkpt lat="50.10072" lon="4.19366">
        <ele>187.6</ele>
        <time>2024-03-19T06:16:19Z</time>
      </trkpt>
      <trkpt lat="50.10077" lon="4.19362">
        <ele>187.6</ele>
        <time>2024-03-19T06:16:20Z</time>
      </trkpt>
      <trkpt lat="50.10083" lon="4.19357">
        <ele>187.8</ele>
        <time>2024-03-19T06:16:21Z</time>
      </trkpt>
      <trkpt lat="50.10088" lon="4.19353">
        <ele>188</ele>
        <time>2024-03-19T06:16:22Z</time>
      </trkpt>
      <trkpt lat="50.10094" lon="4.19348">
        <ele>188</ele>
        <time>2024-03-19T06:16:23Z</time>
      </trkpt>
      <trkpt lat="50.101" lon="4.19343">
        <ele>188.2</ele>
        <time>2024-03-19T06:16:24Z</time>
      </trkpt>
      <trkpt lat="50.10106" lon="4.19339">
        <ele>188.2</ele>
        <time>2024-03-19T06:16:25Z</time>
      </trkpt>
      <trkpt lat="50.10112" lon="4.19334">
        <ele>188.2</ele>
        <time>2024-03-19T06:16:26Z</time>
      </trkpt>
      <trkpt lat="50.10119" lon="4.19331">
        <ele>188.2</ele>
        <time>2024-03-19T06:16:27Z</time>
      </trkpt>
      <trkpt lat="50.10126" lon="4.19328">
        <ele>188.2</ele>
        <time>2024-03-19T06:16:28Z</time>
      </trkpt>
      <trkpt lat="50.10134" lon="4.19325">
        <ele>188.2</ele>
        <time>2024-03-19T06:16:29Z</time>
      </trkpt>
      <trkpt lat="50.10141" lon="4.19323">
        <ele>188.2</ele>
        <time>2024-03-19T06:16:30Z</time>
      </trkpt>
      <trkpt lat="50.10149" lon="4.19322">
        <ele>188.2</ele>
        <time>2024-03-19T06:16:31Z</time>
      </trkpt>
      <trkpt lat="50.10157" lon="4.19321">
        <ele>188.2</ele>
        <time>2024-03-19T06:16:32Z</time>
      </trkpt>
      <trkpt lat="50.10165" lon="4.19321">
        <ele>187.8</ele>
        <time>2024-03-19T06:16:33Z</time>
      </trkpt>
      <trkpt lat="50.10172" lon="4.19321">
        <ele>187.6</ele>
        <time>2024-03-19T06:16:34Z</time>
      </trkpt>
      <trkpt lat="50.1018" lon="4.19321">
        <ele>187.2</ele>
        <time>2024-03-19T06:16:35Z</time>
      </trkpt>
      <trkpt lat="50.10188" lon="4.19321">
        <ele>186.8</ele>
        <time>2024-03-19T06:16:36Z</time>
      </trkpt>
      <trkpt lat="50.10196" lon="4.19321">
        <ele>186</ele>
        <time>2024-03-19T06:16:37Z</time>
      </trkpt>
      <trkpt lat="50.10203" lon="4.19321">
        <ele>185.8</ele>
        <time>2024-03-19T06:16:38Z</time>
      </trkpt>
      <trkpt lat="50.10211" lon="4.19321">
        <ele>185.4</ele>
        <time>2024-03-19T06:16:39Z</time>
      </trkpt>
      <trkpt lat="50.10219" lon="4.19321">
        <ele>185.2</ele>
        <time>2024-03-19T06:16:40Z</time>
      </trkpt>
      <trkpt lat="50.10226" lon="4.19321">
        <ele>184.8</ele>
        <time>2024-03-19T06:16:41Z</time>
      </trkpt>
      <trkpt lat="50.10234" lon="4.19321">
        <ele>184.8</ele>
        <time>2024-03-19T06:16:42Z</time>
      </trkpt>
      <trkpt lat="50.10242" lon="4.19321">
        <ele>184.6</ele>
        <time>2024-03-19T06:16:43Z</time>
      </trkpt>
      <trkpt lat="50.10249" lon="4.19321">
        <ele>184.6</ele>
        <time>2024-03-19T06:16:44Z</time>
      </trkpt>
      <trkpt lat="50.10257" lon="4.19321">
        <ele>184.4</ele>
        <time>2024-03-19T06:16:45Z</time>
      </trkpt>
      <trkpt lat="50.10265" lon="4.19322">
        <ele>184.4</ele>
        <time>2024-03-19T06:16:46Z</time>
      </trkpt>
      <trkpt lat="50.10272" lon="4.19322">
        <ele>184.2</ele>
        <time>2024-03-19T06:16:47Z</time>
      </trkpt>
      <trkpt lat="50.1028" lon="4.19322">
        <ele>184</ele>
        <time>2024-03-19T06:16:48Z</time>
      </trkpt>
      <trkpt lat="50.10288" lon="4.19322">
        <ele>184</ele>
        <time>2024-03-19T06:16:49Z</time>
      </trkpt>
      <trkpt lat="50.10296" lon="4.19322">
        <ele>184</ele>
        <time>2024-03-19T06:16:50Z</time>
      </trkpt>
      <trkpt lat="50.10304" lon="4.19321">
        <ele>183.8</ele>
        <time>2024-03-19T06:16:51Z</time>
      </trkpt>
      <trkpt lat="50.10312" lon="4.19321">
        <ele>183.6</ele>
        <time>2024-03-19T06:16:52Z</time>
      </trkpt>
      <trkpt lat="50.1032" lon="4.19321">
        <ele>183.4</ele>
        <time>2024-03-19T06:16:53Z</time>
      </trkpt>
      <trkpt lat="50.10328" lon="4.19321">
        <ele>183</ele>
        <time>2024-03-19T06:16:54Z</time>
      </trkpt>
      <trkpt lat="50.10336" lon="4.19321">
        <ele>182.8</ele>
        <time>2024-03-19T06:16:55Z</time>
      </trkpt>
      <trkpt lat="50.10345" lon="4.19321">
        <ele>182.6</ele>
        <time>2024-03-19T06:16:56Z</time>
      </trkpt>
      <trkpt lat="50.10353" lon="4.19321">
        <ele>182.6</ele>
        <time>2024-03-19T06:16:57Z</time>
      </trkpt>
      <trkpt lat="50.10362" lon="4.19321">
        <ele>182.4</ele>
        <time>2024-03-19T06:16:58Z</time>
      </trkpt>
      <trkpt lat="50.1037" lon="4.19321">
        <ele>182.2</ele>
        <time>2024-03-19T06:16:59Z</time>
      </trkpt>
      <trkpt lat="50.10378" lon="4.19321">
        <ele>182</ele>
        <time>2024-03-19T06:17:00Z</time>
      </trkpt>
      <trkpt lat="50.10387" lon="4.19321">
        <ele>181.6</ele>
        <time>2024-03-19T06:17:01Z</time>
      </trkpt>
      <trkpt lat="50.10395" lon="4.19321">
        <ele>181.6</ele>
        <time>2024-03-19T06:17:02Z</time>
      </trkpt>
      <trkpt lat="50.10403" lon="4.19321">
        <ele>181.4</ele>
        <time>2024-03-19T06:17:03Z</time>
      </trkpt>
      <trkpt lat="50.10411" lon="4.19321">
        <ele>181.2</ele>
        <time>2024-03-19T06:17:04Z</time>
      </trkpt>
      <trkpt lat="50.10419" lon="4.19322">
        <ele>181</ele>
        <time>2024-03-19T06:17:05Z</time>
      </trkpt>
      <trkpt lat="50.10427" lon="4.19324">
        <ele>181.2</ele>
        <time>2024-03-19T06:17:06Z</time>
      </trkpt>
      <trkpt lat="50.10435" lon="4.19326">
        <ele>180.8</ele>
        <time>2024-03-19T06:17:07Z</time>
      </trkpt>
      <trkpt lat="50.10442" lon="4.19327">
        <ele>180.8</ele>
        <time>2024-03-19T06:17:08Z</time>
      </trkpt>
      <trkpt lat="50.10449" lon="4.19328">
        <ele>180.8</ele>
        <time>2024-03-19T06:17:09Z</time>
      </trkpt>
      <trkpt lat="50.10457" lon="4.19329">
        <ele>180.6</ele>
        <time>2024-03-19T06:17:10Z</time>
      </trkpt>
      <trkpt lat="50.10464" lon="4.19331">
        <ele>180.4</ele>
        <time>2024-03-19T06:17:11Z</time>
      </trkpt>
      <trkpt lat="50.1047" lon="4.19331">
        <ele>180.2</ele>
        <time>2024-03-19T06:17:12Z</time>
      </trkpt>
      <trkpt lat="50.10477" lon="4.19332">
        <ele>180.2</ele>
        <time>2024-03-19T06:17:13Z</time>
      </trkpt>
      <trkpt lat="50.10484" lon="4.19333">
        <ele>180.2</ele>
        <time>2024-03-19T06:17:14Z</time>
      </trkpt>
      <trkpt lat="50.1049" lon="4.19334">
        <ele>180</ele>
        <time>2024-03-19T06:17:15Z</time>
      </trkpt>
      <trkpt lat="50.10496" lon="4.19335">
        <ele>180</ele>
        <time>2024-03-19T06:17:16Z</time>
      </trkpt>
      <trkpt lat="50.10503" lon="4.19336">
        <ele>180</ele>
        <time>2024-03-19T06:17:17Z</time>
      </trkpt>
      <trkpt lat="50.10508" lon="4.19337">
        <ele>180</ele>
        <time>2024-03-19T06:17:18Z</time>
      </trkpt>
      <trkpt lat="50.10514" lon="4.19337">
        <ele>180</ele>
        <time>2024-03-19T06:17:19Z</time>
      </trkpt>
      <trkpt lat="50.1052" lon="4.19338">
        <ele>180</ele>
        <time>2024-03-19T06:17:20Z</time>
      </trkpt>
      <trkpt lat="50.10525" lon="4.19339">
        <ele>180</ele>
        <time>2024-03-19T06:17:21Z</time>
      </trkpt>
      <trkpt lat="50.10531" lon="4.1934">
        <ele>180</ele>
        <time>2024-03-19T06:17:22Z</time>
      </trkpt>
      <trkpt lat="50.10536" lon="4.19342">
        <ele>180</ele>
        <time>2024-03-19T06:17:23Z</time>
      </trkpt>
      <trkpt lat="50.10542" lon="4.19343">
        <ele>180</ele>
        <time>2024-03-19T06:17:24Z</time>
      </trkpt>
      <trkpt lat="50.10548" lon="4.19344">
        <ele>180</ele>
        <time>2024-03-19T06:17:25Z</time>
      </trkpt>
      <trkpt lat="50.10555" lon="4.19346">
        <ele>180.2</ele>
        <time>2024-03-19T06:17:26Z</time>
      </trkpt>
      <trkpt lat="50.10562" lon="4.19347">
        <ele>180.6</ele>
        <time>2024-03-19T06:17:27Z</time>
      </trkpt>
      <trkpt lat="50.10569" lon="4.19348">
        <ele>180.6</ele>
        <time>2024-03-19T06:17:28Z</time>
      </trkpt>
      <trkpt lat="50.10577" lon="4.19349">
        <ele>181</ele>
        <time>2024-03-19T06:17:29Z</time>
      </trkpt>
      <trkpt lat="50.10584" lon="4.19349">
        <ele>181.4</ele>
        <time>2024-03-19T06:17:30Z</time>
      </trkpt>
      <trkpt lat="50.10592" lon="4.19348">
        <ele>181.4</ele>
        <time>2024-03-19T06:17:31Z</time>
      </trkpt>
      <trkpt lat="50.10599" lon="4.19348">
        <ele>181.4</ele>
        <time>2024-03-19T06:17:32Z</time>
      </trkpt>
      <trkpt lat="50.10607" lon="4.19347">
        <ele>181.6</ele>
        <time>2024-03-19T06:17:33Z</time>
      </trkpt>
      <trkpt lat="50.10614" lon="4.19346">
        <ele>181.6</ele>
        <time>2024-03-19T06:17:34Z</time>
      </trkpt>
      <trkpt lat="50.10622" lon="4.19345">
        <ele>181.6</ele>
        <time>2024-03-19T06:17:35Z</time>
      </trkpt>
      <trkpt lat="50.10629" lon="4.19344">
        <ele>181.6</ele>
        <time>2024-03-19T06:17:36Z</time>
      </trkpt>
      <trkpt lat="50.10637" lon="4.19343">
        <ele>181.4</ele>
        <time>2024-03-19T06:17:37Z</time>
      </trkpt>
      <trkpt lat="50.10644" lon="4.1934">
        <ele>181</ele>
        <time>2024-03-19T06:17:38Z</time>
      </trkpt>
      <trkpt lat="50.10651" lon="4.19337">
        <ele>180.4</ele>
        <time>2024-03-19T06:17:39Z</time>
      </trkpt>
      <trkpt lat="50.10657" lon="4.19332">
        <ele>180</ele>
        <time>2024-03-19T06:17:40Z</time>
      </trkpt>
      <trkpt lat="50.10663" lon="4.19326">
        <ele>179.8</ele>
        <time>2024-03-19T06:17:41Z</time>
      </trkpt>
      <trkpt lat="50.10669" lon="4.1932">
        <ele>179.8</ele>
        <time>2024-03-19T06:17:42Z</time>
      </trkpt>
      <trkpt lat="50.10674" lon="4.19312">
        <ele>179.6</ele>
        <time>2024-03-19T06:17:43Z</time>
      </trkpt>
      <trkpt lat="50.10679" lon="4.19305">
        <ele>179.6</ele>
        <time>2024-03-19T06:17:44Z</time>
      </trkpt>
      <trkpt lat="50.10683" lon="4.19297">
        <ele>179.6</ele>
        <time>2024-03-19T06:17:45Z</time>
      </trkpt>
      <trkpt lat="50.10688" lon="4.19289">
        <ele>179.4</ele>
        <time>2024-03-19T06:17:46Z</time>
      </trkpt>
      <trkpt lat="50.10692" lon="4.19281">
        <ele>179.4</ele>
        <time>2024-03-19T06:17:47Z</time>
      </trkpt>
      <trkpt lat="50.10697" lon="4.19273">
        <ele>179.4</ele>
        <time>2024-03-19T06:17:48Z</time>
      </trkpt>
      <trkpt lat="50.10701" lon="4.19266">
        <ele>179.4</ele>
        <time>2024-03-19T06:17:49Z</time>
      </trkpt>
      <trkpt lat="50.10706" lon="4.19259">
        <ele>179.4</ele>
        <time>2024-03-19T06:17:50Z</time>
      </trkpt>
      <trkpt lat="50.1071" lon="4.19252">
        <ele>179.4</ele>
        <time>2024-03-19T06:17:51Z</time>
      </trkpt>
      <trkpt lat="50.10715" lon="4.19245">
        <ele>179.4</ele>
        <time>2024-03-19T06:17:52Z</time>
      </trkpt>
      <trkpt lat="50.10719" lon="4.19238">
        <ele>179.4</ele>
        <time>2024-03-19T06:17:53Z</time>
      </trkpt>
      <trkpt lat="50.10724" lon="4.19231">
        <ele>179.4</ele>
        <time>2024-03-19T06:17:54Z</time>
      </trkpt>
      <trkpt lat="50.10728" lon="4.19225">
        <ele>179.4</ele>
        <time>2024-03-19T06:17:55Z</time>
      </trkpt>
      <trkpt lat="50.10732" lon="4.19219">
        <ele>179.4</ele>
        <time>2024-03-19T06:17:56Z</time>
      </trkpt>
      <trkpt lat="50.10737" lon="4.19214">
        <ele>179.4</ele>
        <time>2024-03-19T06:17:57Z</time>
      </trkpt>
      <trkpt lat="50.10741" lon="4.19208">
        <ele>180</ele>
        <time>2024-03-19T06:17:58Z</time>
      </trkpt>
      <trkpt lat="50.10745" lon="4.19204">
        <ele>180.4</ele>
        <time>2024-03-19T06:17:59Z</time>
      </trkpt>
      <trkpt lat="50.10749" lon="4.19198">
        <ele>180.8</ele>
        <time>2024-03-19T06:18:00Z</time>
      </trkpt>
      <trkpt lat="50.10753" lon="4.19192">
        <ele>181.2</ele>
        <time>2024-03-19T06:18:01Z</time>
      </trkpt>
      <trkpt lat="50.10757" lon="4.19186">
        <ele>181.8</ele>
        <time>2024-03-19T06:18:02Z</time>
      </trkpt>
      <trkpt lat="50.1076" lon="4.1918">
        <ele>181.8</ele>
        <time>2024-03-19T06:18:03Z</time>
      </trkpt>
      <trkpt lat="50.10764" lon="4.19174">
        <ele>182</ele>
        <time>2024-03-19T06:18:04Z</time>
      </trkpt>
      <trkpt lat="50.10767" lon="4.19167">
        <ele>182.4</ele>
        <time>2024-03-19T06:18:05Z</time>
      </trkpt>
      <trkpt lat="50.10771" lon="4.1916">
        <ele>183</ele>
        <time>2024-03-19T06:18:06Z</time>
      </trkpt>
      <trkpt lat="50.10774" lon="4.19152">
        <ele>183.2</ele>
        <time>2024-03-19T06:18:07Z</time>
      </trkpt>
      <trkpt lat="50.10777" lon="4.19144">
        <ele>183.2</ele>
        <time>2024-03-19T06:18:08Z</time>
      </trkpt>
      <trkpt lat="50.1078" lon="4.19135">
        <ele>183.4</ele>
        <time>2024-03-19T06:18:09Z</time>
      </trkpt>
      <trkpt lat="50.10783" lon="4.19126">
        <ele>183.6</ele>
        <time>2024-03-19T06:18:10Z</time>
      </trkpt>
      <trkpt lat="50.10786" lon="4.19117">
        <ele>183.6</ele>
        <time>2024-03-19T06:18:11Z</time>
      </trkpt>
      <trkpt lat="50.1079" lon="4.19107">
        <ele>183.6</ele>
        <time>2024-03-19T06:18:12Z</time>
      </trkpt>
      <trkpt lat="50.10793" lon="4.19096">
        <ele>183.8</ele>
        <time>2024-03-19T06:18:13Z</time>
      </trkpt>
      <trkpt lat="50.10795" lon="4.19086">
        <ele>183.6</ele>
        <time>2024-03-19T06:18:14Z</time>
      </trkpt>
      <trkpt lat="50.10798" lon="4.19075">
        <ele>183.6</ele>
        <time>2024-03-19T06:18:15Z</time>
      </trkpt>
      <trkpt lat="50.10801" lon="4.19063">
        <ele>183.6</ele>
        <time>2024-03-19T06:18:16Z</time>
      </trkpt>
      <trkpt lat="50.10804" lon="4.19052">
        <ele>183.6</ele>
        <time>2024-03-19T06:18:17Z</time>
      </trkpt>
      <trkpt lat="50.10807" lon="4.1904">
        <ele>183.8</ele>
        <time>2024-03-19T06:18:18Z</time>
      </trkpt>
      <trkpt lat="50.10809" lon="4.19028">
        <ele>183.6</ele>
        <time>2024-03-19T06:18:19Z</time>
      </trkpt>
      <trkpt lat="50.10812" lon="4.19016">
        <ele>183</ele>
        <time>2024-03-19T06:18:20Z</time>
      </trkpt>
      <trkpt lat="50.10814" lon="4.19003">
        <ele>182.8</ele>
        <time>2024-03-19T06:18:21Z</time>
      </trkpt>
      <trkpt lat="50.10816" lon="4.18991">
        <ele>182.6</ele>
        <time>2024-03-19T06:18:22Z</time>
      </trkpt>
      <trkpt lat="50.10817" lon="4.18978">
        <ele>182.2</ele>
        <time>2024-03-19T06:18:23Z</time>
      </trkpt>
      <trkpt lat="50.10819" lon="4.18966">
        <ele>182.2</ele>
        <time>2024-03-19T06:18:24Z</time>
      </trkpt>
      <trkpt lat="50.1082" lon="4.18953">
        <ele>182</ele>
        <time>2024-03-19T06:18:25Z</time>
      </trkpt>
      <trkpt lat="50.10821" lon="4.1894">
        <ele>181.2</ele>
        <time>2024-03-19T06:18:26Z</time>
      </trkpt>
      <trkpt lat="50.10822" lon="4.18928">
        <ele>181</ele>
        <time>2024-03-19T06:18:27Z</time>
      </trkpt>
      <trkpt lat="50.10824" lon="4.18915">
        <ele>180.8</ele>
        <time>2024-03-19T06:18:28Z</time>
      </trkpt>
      <trkpt lat="50.10825" lon="4.18903">
        <ele>180.6</ele>
        <time>2024-03-19T06:18:29Z</time>
      </trkpt>
      <trkpt lat="50.10828" lon="4.18891">
        <ele>180.2</ele>
        <time>2024-03-19T06:18:30Z</time>
      </trkpt>
      <trkpt lat="50.10831" lon="4.1888">
        <ele>180</ele>
        <time>2024-03-19T06:18:31Z</time>
      </trkpt>
      <trkpt lat="50.10834" lon="4.18869">
        <ele>179.8</ele>
        <time>2024-03-19T06:18:32Z</time>
      </trkpt>
      <trkpt lat="50.10838" lon="4.18859">
        <ele>179.4</ele>
        <time>2024-03-19T06:18:33Z</time>
      </trkpt>
      <trkpt lat="50.10842" lon="4.1885">
        <ele>179.4</ele>
        <time>2024-03-19T06:18:34Z</time>
      </trkpt>
      <trkpt lat="50.10845" lon="4.1884">
        <ele>179.2</ele>
        <time>2024-03-19T06:18:35Z</time>
      </trkpt>
      <trkpt lat="50.10849" lon="4.18831">
        <ele>179</ele>
        <time>2024-03-19T06:18:36Z</time>
      </trkpt>
      <trkpt lat="50.10853" lon="4.18822">
        <ele>179</ele>
        <time>2024-03-19T06:18:37Z</time>
      </trkpt>
      <trkpt lat="50.10856" lon="4.18814">
        <ele>179</ele>
        <time>2024-03-19T06:18:38Z</time>
      </trkpt>
      <trkpt lat="50.1086" lon="4.18805">
        <ele>179</ele>
        <time>2024-03-19T06:18:39Z</time>
      </trkpt>
      <trkpt lat="50.10864" lon="4.18797">
        <ele>178.8</ele>
        <time>2024-03-19T06:18:40Z</time>
      </trkpt>
      <trkpt lat="50.10867" lon="4.18789">
        <ele>178.8</ele>
        <time>2024-03-19T06:18:41Z</time>
      </trkpt>
      <trkpt lat="50.10871" lon="4.18781">
        <ele>179</ele>
        <time>2024-03-19T06:18:42Z</time>
      </trkpt>
      <trkpt lat="50.10875" lon="4.18773">
        <ele>178.8</ele>
        <time>2024-03-19T06:18:43Z</time>
      </trkpt>
      <trkpt lat="50.10878" lon="4.18766">
        <ele>179</ele>
        <time>2024-03-19T06:18:44Z</time>
      </trkpt>
      <trkpt lat="50.10882" lon="4.18758">
        <ele>178.8</ele>
        <time>2024-03-19T06:18:45Z</time>
      </trkpt>
      <trkpt lat="50.10886" lon="4.18751">
        <ele>178.8</ele>
        <time>2024-03-19T06:18:46Z</time>
      </trkpt>
      <trkpt lat="50.10889" lon="4.18743">
        <ele>178.8</ele>
        <time>2024-03-19T06:18:47Z</time>
      </trkpt>
      <trkpt lat="50.10893" lon="4.18736">
        <ele>178.8</ele>
        <time>2024-03-19T06:18:48Z</time>
      </trkpt>
      <trkpt lat="50.10896" lon="4.18728">
        <ele>178.8</ele>
        <time>2024-03-19T06:18:49Z</time>
      </trkpt>
      <trkpt lat="50.109" lon="4.18721">
        <ele>179</ele>
        <time>2024-03-19T06:18:50Z</time>
      </trkpt>
      <trkpt lat="50.10903" lon="4.18713">
        <ele>179.2</ele>
        <time>2024-03-19T06:18:51Z</time>
      </trkpt>
      <trkpt lat="50.10907" lon="4.18706">
        <ele>179</ele>
        <time>2024-03-19T06:18:52Z</time>
      </trkpt>
      <trkpt lat="50.1091" lon="4.18698">
        <ele>179.4</ele>
        <time>2024-03-19T06:18:53Z</time>
      </trkpt>
      <trkpt lat="50.10913" lon="4.18691">
        <ele>179.6</ele>
        <time>2024-03-19T06:18:54Z</time>
      </trkpt>
      <trkpt lat="50.10916" lon="4.18684">
        <ele>180</ele>
        <time>2024-03-19T06:18:55Z</time>
      </trkpt>
      <trkpt lat="50.1092" lon="4.18677">
        <ele>180.2</ele>
        <time>2024-03-19T06:18:56Z</time>
      </trkpt>
      <trkpt lat="50.10923" lon="4.1867">
        <ele>180.2</ele>
        <time>2024-03-19T06:18:57Z</time>
      </trkpt>
      <trkpt lat="50.10926" lon="4.18662">
        <ele>180.6</ele>
        <time>2024-03-19T06:18:58Z</time>
      </trkpt>
      <trkpt lat="50.1093" lon="4.18655">
        <ele>180.8</ele>
        <time>2024-03-19T06:18:59Z</time>
      </trkpt>
      <trkpt lat="50.10933" lon="4.18648">
        <ele>180.8</ele>
        <time>2024-03-19T06:19:00Z</time>
      </trkpt>
      <trkpt lat="50.10936" lon="4.18641">
        <ele>181</ele>
        <time>2024-03-19T06:19:01Z</time>
      </trkpt>
      <trkpt lat="50.10939" lon="4.18634">
        <ele>181.2</ele>
        <time>2024-03-19T06:19:02Z</time>
      </trkpt>
      <trkpt lat="50.10943" lon="4.18628">
        <ele>181.4</ele>
        <time>2024-03-19T06:19:03Z</time>
      </trkpt>
      <trkpt lat="50.10946" lon="4.18621">
        <ele>181.6</ele>
        <time>2024-03-19T06:19:04Z</time>
      </trkpt>
      <trkpt lat="50.10949" lon="4.18614">
        <ele>181.8</ele>
        <time>2024-03-19T06:19:05Z</time>
      </trkpt>
      <trkpt lat="50.10953" lon="4.18608">
        <ele>182</ele>
        <time>2024-03-19T06:19:06Z</time>
      </trkpt>
      <trkpt lat="50.10956" lon="4.18602">
        <ele>182</ele>
        <time>2024-03-19T06:19:07Z</time>
      </trkpt>
      <trkpt lat="50.1096" lon="4.18596">
        <ele>182.2</ele>
        <time>2024-03-19T06:19:08Z</time>
      </trkpt>
      <trkpt lat="50.10964" lon="4.18591">
        <ele>182.4</ele>
        <time>2024-03-19T06:19:09Z</time>
      </trkpt>
      <trkpt lat="50.10968" lon="4.18585">
        <ele>182.4</ele>
        <time>2024-03-19T06:19:10Z</time>
      </trkpt>
      <trkpt lat="50.10972" lon="4.18579">
        <ele>182.6</ele>
        <time>2024-03-19T06:19:11Z</time>
      </trkpt>
      <trkpt lat="50.10976" lon="4.18574">
        <ele>182.8</ele>
        <time>2024-03-19T06:19:12Z</time>
      </trkpt>
      <trkpt lat="50.10979" lon="4.18568">
        <ele>182.8</ele>
        <time>2024-03-19T06:19:13Z</time>
      </trkpt>
      <trkpt lat="50.10983" lon="4.18563">
        <ele>182.8</ele>
        <time>2024-03-19T06:19:14Z</time>
      </trkpt>
      <trkpt lat="50.10987" lon="4.18557">
        <ele>183.2</ele>
        <time>2024-03-19T06:19:15Z</time>
      </trkpt>
      <trkpt lat="50.10991" lon="4.18552">
        <ele>183.8</ele>
        <time>2024-03-19T06:19:16Z</time>
      </trkpt>
      <trkpt lat="50.10995" lon="4.18546">
        <ele>184.2</ele>
        <time>2024-03-19T06:19:17Z</time>
      </trkpt>
      <trkpt lat="50.10998" lon="4.1854">
        <ele>184.6</ele>
        <time>2024-03-19T06:19:18Z</time>
      </trkpt>
      <trkpt lat="50.11002" lon="4.18535">
        <ele>185</ele>
        <time>2024-03-19T06:19:19Z</time>
      </trkpt>
      <trkpt lat="50.11006" lon="4.18529">
        <ele>185.4</ele>
        <time>2024-03-19T06:19:20Z</time>
      </trkpt>
      <trkpt lat="50.1101" lon="4.18524">
        <ele>185.6</ele>
        <time>2024-03-19T06:19:21Z</time>
      </trkpt>
      <trkpt lat="50.11014" lon="4.18518">
        <ele>185.8</ele>
        <time>2024-03-19T06:19:22Z</time>
      </trkpt>
      <trkpt lat="50.11018" lon="4.18512">
        <ele>186</ele>
        <time>2024-03-19T06:19:23Z</time>
      </trkpt>
      <trkpt lat="50.11021" lon="4.18506">
        <ele>186</ele>
        <time>2024-03-19T06:19:24Z</time>
      </trkpt>
      <trkpt lat="50.11025" lon="4.185">
        <ele>186.2</ele>
        <time>2024-03-19T06:19:25Z</time>
      </trkpt>
      <trkpt lat="50.11029" lon="4.18494">
        <ele>186.2</ele>
        <time>2024-03-19T06:19:26Z</time>
      </trkpt>
      <trkpt lat="50.11033" lon="4.18488">
        <ele>186.2</ele>
        <time>2024-03-19T06:19:27Z</time>
      </trkpt>
      <trkpt lat="50.11036" lon="4.18481">
        <ele>186.4</ele>
        <time>2024-03-19T06:19:28Z</time>
      </trkpt>
      <trkpt lat="50.1104" lon="4.18475">
        <ele>186.4</ele>
        <time>2024-03-19T06:19:29Z</time>
      </trkpt>
      <trkpt lat="50.11043" lon="4.18468">
        <ele>186.4</ele>
        <time>2024-03-19T06:19:30Z</time>
      </trkpt>
      <trkpt lat="50.11046" lon="4.18462">
        <ele>186.4</ele>
        <time>2024-03-19T06:19:31Z</time>
      </trkpt>
      <trkpt lat="50.1105" lon="4.18455">
        <ele>186.6</ele>
        <time>2024-03-19T06:19:32Z</time>
      </trkpt>
      <trkpt lat="50.11053" lon="4.18448">
        <ele>186.6</ele>
        <time>2024-03-19T06:19:33Z</time>
      </trkpt>
      <trkpt lat="50.11056" lon="4.18442">
        <ele>186.6</ele>
        <time>2024-03-19T06:19:34Z</time>
      </trkpt>
      <trkpt lat="50.1106" lon="4.18435">
        <ele>186.8</ele>
        <time>2024-03-19T06:19:35Z</time>
      </trkpt>
      <trkpt lat="50.11063" lon="4.18428">
        <ele>186.8</ele>
        <time>2024-03-19T06:19:36Z</time>
      </trkpt>
      <trkpt lat="50.11067" lon="4.18421">
        <ele>187</ele>
        <time>2024-03-19T06:19:37Z</time>
      </trkpt>
      <trkpt lat="50.11071" lon="4.18415">
        <ele>187.4</ele>
        <time>2024-03-19T06:19:38Z</time>
      </trkpt>
      <trkpt lat="50.11075" lon="4.18408">
        <ele>187.4</ele>
        <time>2024-03-19T06:19:39Z</time>
      </trkpt>
      <trkpt lat="50.1108" lon="4.18402">
        <ele>187.6</ele>
        <time>2024-03-19T06:19:40Z</time>
      </trkpt>
      <trkpt lat="50.11085" lon="4.18397">
        <ele>187.6</ele>
        <time>2024-03-19T06:19:41Z</time>
      </trkpt>
      <trkpt lat="50.11091" lon="4.18391">
        <ele>187.8</ele>
        <time>2024-03-19T06:19:42Z</time>
      </trkpt>
      <trkpt lat="50.11097" lon="4.18387">
        <ele>187.8</ele>
        <time>2024-03-19T06:19:43Z</time>
      </trkpt>
      <trkpt lat="50.11104" lon="4.18383">
        <ele>187.8</ele>
        <time>2024-03-19T06:19:44Z</time>
      </trkpt>
      <trkpt lat="50.1111" lon="4.18379">
        <ele>187.8</ele>
        <time>2024-03-19T06:19:45Z</time>
      </trkpt>
      <trkpt lat="50.11117" lon="4.18374">
        <ele>187.6</ele>
        <time>2024-03-19T06:19:46Z</time>
      </trkpt>
      <trkpt lat="50.11124" lon="4.1837">
        <ele>187.6</ele>
        <time>2024-03-19T06:19:47Z</time>
      </trkpt>
      <trkpt lat="50.11131" lon="4.18366">
        <ele>187.8</ele>
        <time>2024-03-19T06:19:48Z</time>
      </trkpt>
      <trkpt lat="50.11139" lon="4.18362">
        <ele>187.6</ele>
        <time>2024-03-19T06:19:49Z</time>
      </trkpt>
      <trkpt lat="50.11147" lon="4.18359">
        <ele>187.8</ele>
        <time>2024-03-19T06:19:50Z</time>
      </trkpt>
      <trkpt lat="50.11155" lon="4.18355">
        <ele>187.6</ele>
        <time>2024-03-19T06:19:51Z</time>
      </trkpt>
      <trkpt lat="50.11164" lon="4.18352">
        <ele>187.8</ele>
        <time>2024-03-19T06:19:52Z</time>
      </trkpt>
      <trkpt lat="50.11173" lon="4.1835">
        <ele>187.4</ele>
        <time>2024-03-19T06:19:53Z</time>
      </trkpt>
      <trkpt lat="50.11183" lon="4.18347">
        <ele>187.4</ele>
        <time>2024-03-19T06:19:54Z</time>
      </trkpt>
      <trkpt lat="50.11193" lon="4.18346">
        <ele>186.8</ele>
        <time>2024-03-19T06:19:55Z</time>
      </trkpt>
      <trkpt lat="50.11203" lon="4.18343">
        <ele>186.4</ele>
        <time>2024-03-19T06:19:56Z</time>
      </trkpt>
      <trkpt lat="50.11213" lon="4.18341">
        <ele>186</ele>
        <time>2024-03-19T06:19:57Z</time>
      </trkpt>
      <trkpt lat="50.11223" lon="4.18337">
        <ele>185.4</ele>
        <time>2024-03-19T06:19:58Z</time>
      </trkpt>
      <trkpt lat="50.11233" lon="4.18334">
        <ele>185</ele>
        <time>2024-03-19T06:19:59Z</time>
      </trkpt>
      <trkpt lat="50.11243" lon="4.1833">
        <ele>184.4</ele>
        <time>2024-03-19T06:20:00Z</time>
      </trkpt>
      <trkpt lat="50.11253" lon="4.18326">
        <ele>184.4</ele>
        <time>2024-03-19T06:20:01Z</time>
      </trkpt>
      <trkpt lat="50.11262" lon="4.18322">
        <ele>183.6</ele>
        <time>2024-03-19T06:20:02Z</time>
      </trkpt>
      <trkpt lat="50.1127" lon="4.18318">
        <ele>182.8</ele>
        <time>2024-03-19T06:20:03Z</time>
      </trkpt>
      <trkpt lat="50.11278" lon="4.18314">
        <ele>181.8</ele>
        <time>2024-03-19T06:20:04Z</time>
      </trkpt>
      <trkpt lat="50.11286" lon="4.18309">
        <ele>181</ele>
        <time>2024-03-19T06:20:05Z</time>
      </trkpt>
      <trkpt lat="50.11293" lon="4.18304">
        <ele>180.6</ele>
        <time>2024-03-19T06:20:06Z</time>
      </trkpt>
      <trkpt lat="50.11299" lon="4.18299">
        <ele>180.6</ele>
        <time>2024-03-19T06:20:07Z</time>
      </trkpt>
      <trkpt lat="50.11306" lon="4.18294">
        <ele>180.4</ele>
        <time>2024-03-19T06:20:08Z</time>
      </trkpt>
      <trkpt lat="50.11312" lon="4.18289">
        <ele>180.2</ele>
        <time>2024-03-19T06:20:09Z</time>
      </trkpt>
      <trkpt lat="50.11318" lon="4.18283">
        <ele>180.4</ele>
        <time>2024-03-19T06:20:10Z</time>
      </trkpt>
      <trkpt lat="50.11324" lon="4.18278">
        <ele>180.2</ele>
        <time>2024-03-19T06:20:11Z</time>
      </trkpt>
      <trkpt lat="50.1133" lon="4.18272">
        <ele>180.4</ele>
        <time>2024-03-19T06:20:12Z</time>
      </trkpt>
      <trkpt lat="50.11336" lon="4.18265">
        <ele>180.4</ele>
        <time>2024-03-19T06:20:13Z</time>
      </trkpt>
      <trkpt lat="50.11343" lon="4.18259">
        <ele>180</ele>
        <time>2024-03-19T06:20:14Z</time>
      </trkpt>
      <trkpt lat="50.11349" lon="4.18253">
        <ele>179.8</ele>
        <time>2024-03-19T06:20:15Z</time>
      </trkpt>
      <trkpt lat="50.11356" lon="4.18247">
        <ele>179.8</ele>
        <time>2024-03-19T06:20:16Z</time>
      </trkpt>
      <trkpt lat="50.11363" lon="4.1824">
        <ele>179.8</ele>
        <time>2024-03-19T06:20:17Z</time>
      </trkpt>
      <trkpt lat="50.1137" lon="4.18233">
        <ele>179.8</ele>
        <time>2024-03-19T06:20:18Z</time>
      </trkpt>
      <trkpt lat="50.11377" lon="4.18227">
        <ele>179.8</ele>
        <time>2024-03-19T06:20:19Z</time>
      </trkpt>
      <trkpt lat="50.11385" lon="4.18221">
        <ele>179.8</ele>
        <time>2024-03-19T06:20:20Z</time>
      </trkpt>
      <trkpt lat="50.11392" lon="4.18215">
        <ele>179.8</ele>
        <time>2024-03-19T06:20:21Z</time>
      </trkpt>
      <trkpt lat="50.11399" lon="4.18209">
        <ele>179.8</ele>
        <time>2024-03-19T06:20:22Z</time>
      </trkpt>
      <trkpt lat="50.11407" lon="4.18203">
        <ele>179.8</ele>
        <time>2024-03-19T06:20:23Z</time>
      </trkpt>
      <trkpt lat="50.11414" lon="4.18198">
        <ele>179.8</ele>
        <time>2024-03-19T06:20:24Z</time>
      </trkpt>
      <trkpt lat="50.11421" lon="4.18192">
        <ele>179.8</ele>
        <time>2024-03-19T06:20:25Z</time>
      </trkpt>
      <trkpt lat="50.11427" lon="4.18187">
        <ele>179.8</ele>
        <time>2024-03-19T06:20:26Z</time>
      </trkpt>
      <trkpt lat="50.11433" lon="4.18183">
        <ele>179.2</ele>
        <time>2024-03-19T06:20:27Z</time>
      </trkpt>
      <trkpt lat="50.11439" lon="4.18178">
        <ele>179.2</ele>
        <time>2024-03-19T06:20:28Z</time>
      </trkpt>
      <trkpt lat="50.11445" lon="4.18174">
        <ele>178.8</ele>
        <time>2024-03-19T06:20:29Z</time>
      </trkpt>
      <trkpt lat="50.1145" lon="4.1817">
        <ele>178.8</ele>
        <time>2024-03-19T06:20:30Z</time>
      </trkpt>
      <trkpt lat="50.11456" lon="4.18166">
        <ele>178.8</ele>
        <time>2024-03-19T06:20:31Z</time>
      </trkpt>
      <trkpt lat="50.11461" lon="4.18161">
        <ele>178.8</ele>
        <time>2024-03-19T06:20:32Z</time>
      </trkpt>
      <trkpt lat="50.11465" lon="4.18157">
        <ele>178.8</ele>
        <time>2024-03-19T06:20:33Z</time>
      </trkpt>
      <trkpt lat="50.1147" lon="4.18153">
        <ele>179</ele>
        <time>2024-03-19T06:20:34Z</time>
      </trkpt>
      <trkpt lat="50.11474" lon="4.18149">
        <ele>178.8</ele>
        <time>2024-03-19T06:20:35Z</time>
      </trkpt>
      <trkpt lat="50.11478" lon="4.18144">
        <ele>178.8</ele>
        <time>2024-03-19T06:20:36Z</time>
      </trkpt>
      <trkpt lat="50.11482" lon="4.1814">
        <ele>178.8</ele>
        <time>2024-03-19T06:20:37Z</time>
      </trkpt>
      <trkpt lat="50.11485" lon="4.18135">
        <ele>179</ele>
        <time>2024-03-19T06:20:38Z</time>
      </trkpt>
      <trkpt lat="50.11489" lon="4.1813">
        <ele>179.8</ele>
        <time>2024-03-19T06:20:39Z</time>
      </trkpt>
      <trkpt lat="50.11492" lon="4.18125">
        <ele>180.2</ele>
        <time>2024-03-19T06:20:40Z</time>
      </trkpt>
      <trkpt lat="50.11495" lon="4.1812">
        <ele>180.8</ele>
        <time>2024-03-19T06:20:41Z</time>
      </trkpt>
      <trkpt lat="50.11499" lon="4.18116">
        <ele>181.6</ele>
        <time>2024-03-19T06:20:42Z</time>
      </trkpt>
      <trkpt lat="50.11502" lon="4.18111">
        <ele>182</ele>
        <time>2024-03-19T06:20:43Z</time>
      </trkpt>
      <trkpt lat="50.11506" lon="4.18106">
        <ele>182.6</ele>
        <time>2024-03-19T06:20:44Z</time>
      </trkpt>
      <trkpt lat="50.11509" lon="4.18102">
        <ele>182.8</ele>
        <time>2024-03-19T06:20:45Z</time>
      </trkpt>
      <trkpt lat="50.11513" lon="4.18098">
        <ele>183.2</ele>
        <time>2024-03-19T06:20:46Z</time>
      </trkpt>
      <trkpt lat="50.11517" lon="4.18094">
        <ele>184</ele>
        <time>2024-03-19T06:20:47Z</time>
      </trkpt>
      <trkpt lat="50.11521" lon="4.18091">
        <ele>184.4</ele>
        <time>2024-03-19T06:20:48Z</time>
      </trkpt>
      <trkpt lat="50.11524" lon="4.18087">
        <ele>185</ele>
        <time>2024-03-19T06:20:49Z</time>
      </trkpt>
      <trkpt lat="50.11528" lon="4.18084">
        <ele>185</ele>
        <time>2024-03-19T06:20:50Z</time>
      </trkpt>
      <trkpt lat="50.11532" lon="4.18081">
        <ele>185.2</ele>
        <time>2024-03-19T06:20:51Z</time>
      </trkpt>
      <trkpt lat="50.11537" lon="4.18077">
        <ele>185.6</ele>
        <time>2024-03-19T06:20:52Z</time>
      </trkpt>
      <trkpt lat="50.11541" lon="4.18074">
        <ele>185.8</ele>
        <time>2024-03-19T06:20:53Z</time>
      </trkpt>
      <trkpt lat="50.11544" lon="4.1807">
        <ele>186</ele>
        <time>2024-03-19T06:20:54Z</time>
      </trkpt>
      <trkpt lat="50.11548" lon="4.18066">
        <ele>186</ele>
        <time>2024-03-19T06:20:55Z</time>
      </trkpt>
      <trkpt lat="50.11552" lon="4.18061">
        <ele>186.4</ele>
        <time>2024-03-19T06:20:56Z</time>
      </trkpt>
      <trkpt lat="50.11556" lon="4.18057">
        <ele>186.6</ele>
        <time>2024-03-19T06:20:57Z</time>
      </trkpt>
      <trkpt lat="50.1156" lon="4.18051">
        <ele>186.8</ele>
        <time>2024-03-19T06:20:58Z</time>
      </trkpt>
      <trkpt lat="50.11563" lon="4.18046">
        <ele>187.4</ele>
        <time>2024-03-19T06:20:59Z</time>
      </trkpt>
      <trkpt lat="50.11567" lon="4.1804">
        <ele>187.6</ele>
        <time>2024-03-19T06:21:00Z</time>
      </trkpt>
      <trkpt lat="50.11571" lon="4.18033">
        <ele>188.2</ele>
        <time>2024-03-19T06:21:01Z</time>
      </trkpt>
      <trkpt lat="50.11575" lon="4.18026">
        <ele>189</ele>
        <time>2024-03-19T06:21:02Z</time>
      </trkpt>
      <trkpt lat="50.1158" lon="4.18019">
        <ele>189.6</ele>
        <time>2024-03-19T06:21:03Z</time>
      </trkpt>
      <trkpt lat="50.11585" lon="4.18011">
        <ele>189.6</ele>
        <time>2024-03-19T06:21:04Z</time>
      </trkpt>
      <trkpt lat="50.1159" lon="4.18002">
        <ele>189.8</ele>
        <time>2024-03-19T06:21:05Z</time>
      </trkpt>
      <trkpt lat="50.11596" lon="4.17994">
        <ele>189.8</ele>
        <time>2024-03-19T06:21:06Z</time>
      </trkpt>
      <trkpt lat="50.11602" lon="4.17986">
        <ele>189.8</ele>
        <time>2024-03-19T06:21:07Z</time>
      </trkpt>
      <trkpt lat="50.11609" lon="4.17978">
        <ele>189.8</ele>
        <time>2024-03-19T06:21:08Z</time>
      </trkpt>
      <trkpt lat="50.11617" lon="4.1797">
        <ele>189.8</ele>
        <time>2024-03-19T06:21:09Z</time>
      </trkpt>
      <trkpt lat="50.11625" lon="4.17961">
        <ele>190</ele>
        <time>2024-03-19T06:21:10Z</time>
      </trkpt>
      <trkpt lat="50.11633" lon="4.17953">
        <ele>190</ele>
        <time>2024-03-19T06:21:11Z</time>
      </trkpt>
      <trkpt lat="50.11641" lon="4.17945">
        <ele>189.8</ele>
        <time>2024-03-19T06:21:12Z</time>
      </trkpt>
      <trkpt lat="50.1165" lon="4.17936">
        <ele>189.8</ele>
        <time>2024-03-19T06:21:13Z</time>
      </trkpt>
      <trkpt lat="50.1166" lon="4.17927">
        <ele>189.2</ele>
        <time>2024-03-19T06:21:14Z</time>
      </trkpt>
      <trkpt lat="50.1167" lon="4.17919">
        <ele>188.6</ele>
        <time>2024-03-19T06:21:15Z</time>
      </trkpt>
      <trkpt lat="50.1168" lon="4.1791">
        <ele>187.8</ele>
        <time>2024-03-19T06:21:16Z</time>
      </trkpt>
      <trkpt lat="50.1169" lon="4.17902">
        <ele>186.8</ele>
        <time>2024-03-19T06:21:17Z</time>
      </trkpt>
      <trkpt lat="50.11701" lon="4.17895">
        <ele>186.2</ele>
        <time>2024-03-19T06:21:18Z</time>
      </trkpt>
      <trkpt lat="50.11713" lon="4.17889">
        <ele>185.2</ele>
        <time>2024-03-19T06:21:19Z</time>
      </trkpt>
      <trkpt lat="50.11724" lon="4.17884">
        <ele>184.2</ele>
        <time>2024-03-19T06:21:20Z</time>
      </trkpt>
      <trkpt lat="50.11736" lon="4.1788">
        <ele>183.2</ele>
        <time>2024-03-19T06:21:21Z</time>
      </trkpt>
      <trkpt lat="50.11747" lon="4.17875">
        <ele>182.4</ele>
        <time>2024-03-19T06:21:22Z</time>
      </trkpt>
      <trkpt lat="50.11758" lon="4.17871">
        <ele>182.4</ele>
        <time>2024-03-19T06:21:23Z</time>
      </trkpt>
      <trkpt lat="50.11769" lon="4.17865">
        <ele>181.2</ele>
        <time>2024-03-19T06:21:24Z</time>
      </trkpt>
      <trkpt lat="50.11778" lon="4.17859">
        <ele>180</ele>
        <time>2024-03-19T06:21:25Z</time>
      </trkpt>
      <trkpt lat="50.11787" lon="4.17851">
        <ele>178.8</ele>
        <time>2024-03-19T06:21:26Z</time>
      </trkpt>
      <trkpt lat="50.11795" lon="4.17843">
        <ele>177.2</ele>
        <time>2024-03-19T06:21:27Z</time>
      </trkpt>
      <trkpt lat="50.11802" lon="4.17835">
        <ele>176.4</ele>
        <time>2024-03-19T06:21:28Z</time>
      </trkpt>
      <trkpt lat="50.11809" lon="4.17827">
        <ele>175.8</ele>
        <time>2024-03-19T06:21:29Z</time>
      </trkpt>
      <trkpt lat="50.11816" lon="4.17819">
        <ele>175.4</ele>
        <time>2024-03-19T06:21:30Z</time>
      </trkpt>
      <trkpt lat="50.11823" lon="4.17811">
        <ele>175.4</ele>
        <time>2024-03-19T06:21:31Z</time>
      </trkpt>
      <trkpt lat="50.1183" lon="4.17803">
        <ele>175</ele>
        <time>2024-03-19T06:21:32Z</time>
      </trkpt>
      <trkpt lat="50.11838" lon="4.17796">
        <ele>175</ele>
        <time>2024-03-19T06:21:33Z</time>
      </trkpt>
      <trkpt lat="50.11846" lon="4.17791">
        <ele>175</ele>
        <time>2024-03-19T06:21:34Z</time>
      </trkpt>
      <trkpt lat="50.11855" lon="4.17788">
        <ele>174.6</ele>
        <time>2024-03-19T06:21:35Z</time>
      </trkpt>
      <trkpt lat="50.11864" lon="4.17787">
        <ele>174.4</ele>
        <time>2024-03-19T06:21:36Z</time>
      </trkpt>
      <trkpt lat="50.11873" lon="4.17786">
        <ele>174.4</ele>
        <time>2024-03-19T06:21:37Z</time>
      </trkpt>
      <trkpt lat="50.11881" lon="4.17785">
        <ele>174.4</ele>
        <time>2024-03-19T06:21:38Z</time>
      </trkpt>
      <trkpt lat="50.1189" lon="4.17785">
        <ele>174.4</ele>
        <time>2024-03-19T06:21:39Z</time>
      </trkpt>
      <trkpt lat="50.11898" lon="4.17785">
        <ele>174.8</ele>
        <time>2024-03-19T06:21:40Z</time>
      </trkpt>
      <trkpt lat="50.11906" lon="4.17787">
        <ele>174.8</ele>
        <time>2024-03-19T06:21:41Z</time>
      </trkpt>
      <trkpt lat="50.11914" lon="4.17787">
        <ele>174.8</ele>
        <time>2024-03-19T06:21:42Z</time>
      </trkpt>
      <trkpt lat="50.11921" lon="4.17788">
        <ele>175</ele>
        <time>2024-03-19T06:21:43Z</time>
      </trkpt>
      <trkpt lat="50.11929" lon="4.17787">
        <ele>175</ele>
        <time>2024-03-19T06:21:44Z</time>
      </trkpt>
      <trkpt lat="50.11936" lon="4.17787">
        <ele>175</ele>
        <time>2024-03-19T06:21:45Z</time>
      </trkpt>
      <trkpt lat="50.11942" lon="4.17786">
        <ele>175</ele>
        <time>2024-03-19T06:21:46Z</time>
      </trkpt>
      <trkpt lat="50.11948" lon="4.17784">
        <ele>175.2</ele>
        <time>2024-03-19T06:21:47Z</time>
      </trkpt>
      <trkpt lat="50.11954" lon="4.17782">
        <ele>175.2</ele>
        <time>2024-03-19T06:21:48Z</time>
      </trkpt>
      <trkpt lat="50.11959" lon="4.17779">
        <ele>175.2</ele>
        <time>2024-03-19T06:21:49Z</time>
      </trkpt>
      <trkpt lat="50.11964" lon="4.17776">
        <ele>175.4</ele>
        <time>2024-03-19T06:21:50Z</time>
      </trkpt>
      <trkpt lat="50.11969" lon="4.17771">
        <ele>175.6</ele>
        <time>2024-03-19T06:21:51Z</time>
      </trkpt>
      <trkpt lat="50.11972" lon="4.17766">
        <ele>175.8</ele>
        <time>2024-03-19T06:21:52Z</time>
      </trkpt>
      <trkpt lat="50.11976" lon="4.17759">
        <ele>176.2</ele>
        <time>2024-03-19T06:21:53Z</time>
      </trkpt>
      <trkpt lat="50.11979" lon="4.17753">
        <ele>176.6</ele>
        <time>2024-03-19T06:21:54Z</time>
      </trkpt>
      <trkpt lat="50.11981" lon="4.17746">
        <ele>176.6</ele>
        <time>2024-03-19T06:21:55Z</time>
      </trkpt>
      <trkpt lat="50.11984" lon="4.17739">
        <ele>176.8</ele>
        <time>2024-03-19T06:21:56Z</time>
      </trkpt>
      <trkpt lat="50.11985" lon="4.17731">
        <ele>177.2</ele>
        <time>2024-03-19T06:21:57Z</time>
      </trkpt>
      <trkpt lat="50.11987" lon="4.17724">
        <ele>177.6</ele>
        <time>2024-03-19T06:21:58Z</time>
      </trkpt>
      <trkpt lat="50.11988" lon="4.17716">
        <ele>178</ele>
        <time>2024-03-19T06:21:59Z</time>
      </trkpt>
      <trkpt lat="50.11988" lon="4.17709">
        <ele>178.4</ele>
        <time>2024-03-19T06:22:00Z</time>
      </trkpt>
      <trkpt lat="50.11989" lon="4.17701">
        <ele>178.8</ele>
        <time>2024-03-19T06:22:01Z</time>
      </trkpt>
      <trkpt lat="50.1199" lon="4.17693">
        <ele>179.4</ele>
        <time>2024-03-19T06:22:02Z</time>
      </trkpt>
      <trkpt lat="50.11991" lon="4.17685">
        <ele>179.8</ele>
        <time>2024-03-19T06:22:03Z</time>
      </trkpt>
      <trkpt lat="50.11992" lon="4.17678">
        <ele>180.2</ele>
        <time>2024-03-19T06:22:04Z</time>
      </trkpt>
      <trkpt lat="50.11993" lon="4.1767">
        <ele>180.6</ele>
        <time>2024-03-19T06:22:05Z</time>
      </trkpt>
      <trkpt lat="50.11994" lon="4.17663">
        <ele>181</ele>
        <time>2024-03-19T06:22:06Z</time>
      </trkpt>
      <trkpt lat="50.11996" lon="4.17655">
        <ele>181.4</ele>
        <time>2024-03-19T06:22:07Z</time>
      </trkpt>
      <trkpt lat="50.11997" lon="4.17647">
        <ele>181.8</ele>
        <time>2024-03-19T06:22:08Z</time>
      </trkpt>
      <trkpt lat="50.11998" lon="4.17639">
        <ele>182</ele>
        <time>2024-03-19T06:22:09Z</time>
      </trkpt>
      <trkpt lat="50.11999" lon="4.1763">
        <ele>182.4</ele>
        <time>2024-03-19T06:22:10Z</time>
      </trkpt>
      <trkpt lat="50.12" lon="4.17621">
        <ele>182.6</ele>
        <time>2024-03-19T06:22:11Z</time>
      </trkpt>
      <trkpt lat="50.12001" lon="4.17613">
        <ele>182.6</ele>
        <time>2024-03-19T06:22:12Z</time>
      </trkpt>
      <trkpt lat="50.12002" lon="4.17604">
        <ele>182.8</ele>
        <time>2024-03-19T06:22:13Z</time>
      </trkpt>
      <trkpt lat="50.12004" lon="4.17595">
        <ele>183.2</ele>
        <time>2024-03-19T06:22:14Z</time>
      </trkpt>
      <trkpt lat="50.12006" lon="4.17586">
        <ele>183.4</ele>
        <time>2024-03-19T06:22:15Z</time>
      </trkpt>
      <trkpt lat="50.12007" lon="4.17576">
        <ele>183.4</ele>
        <time>2024-03-19T06:22:16Z</time>
      </trkpt>
      <trkpt lat="50.12009" lon="4.17567">
        <ele>183.4</ele>
        <time>2024-03-19T06:22:17Z</time>
      </trkpt>
      <trkpt lat="50.12011" lon="4.17557">
        <ele>183.4</ele>
        <time>2024-03-19T06:22:18Z</time>
      </trkpt>
      <trkpt lat="50.12013" lon="4.17548">
        <ele>183.4</ele>
        <time>2024-03-19T06:22:19Z</time>
      </trkpt>
      <trkpt lat="50.12015" lon="4.17538">
        <ele>183.6</ele>
        <time>2024-03-19T06:22:20Z</time>
      </trkpt>
      <trkpt lat="50.12017" lon="4.17528">
        <ele>183.4</ele>
        <time>2024-03-19T06:22:21Z</time>
      </trkpt>
      <trkpt lat="50.1202" lon="4.17518">
        <ele>183.6</ele>
        <time>2024-03-19T06:22:22Z</time>
      </trkpt>
      <trkpt lat="50.12022" lon="4.17508">
        <ele>183.4</ele>
        <time>2024-03-19T06:22:23Z</time>
      </trkpt>
      <trkpt lat="50.12024" lon="4.17498">
        <ele>183.4</ele>
        <time>2024-03-19T06:22:24Z</time>
      </trkpt>
      <trkpt lat="50.12027" lon="4.17488">
        <ele>183.4</ele>
        <time>2024-03-19T06:22:25Z</time>
      </trkpt>
      <trkpt lat="50.12029" lon="4.17477">
        <ele>183.4</ele>
        <time>2024-03-19T06:22:26Z</time>
      </trkpt>
      <trkpt lat="50.12032" lon="4.17467">
        <ele>183.2</ele>
        <time>2024-03-19T06:22:27Z</time>
      </trkpt>
      <trkpt lat="50.12034" lon="4.17457">
        <ele>183.2</ele>
        <time>2024-03-19T06:22:28Z</time>
      </trkpt>
      <trkpt lat="50.12037" lon="4.17447">
        <ele>183</ele>
        <time>2024-03-19T06:22:29Z</time>
      </trkpt>
      <trkpt lat="50.1204" lon="4.17437">
        <ele>182.8</ele>
        <time>2024-03-19T06:22:30Z</time>
      </trkpt>
      <trkpt lat="50.12042" lon="4.17426">
        <ele>182.6</ele>
        <time>2024-03-19T06:22:31Z</time>
      </trkpt>
      <trkpt lat="50.12045" lon="4.17416">
        <ele>182.4</ele>
        <time>2024-03-19T06:22:32Z</time>
      </trkpt>
      <trkpt lat="50.12047" lon="4.17405">
        <ele>182.2</ele>
        <time>2024-03-19T06:22:33Z</time>
      </trkpt>
      <trkpt lat="50.12049" lon="4.17394">
        <ele>182.4</ele>
        <time>2024-03-19T06:22:34Z</time>
      </trkpt>
      <trkpt lat="50.12051" lon="4.17384">
        <ele>182.2</ele>
        <time>2024-03-19T06:22:35Z</time>
      </trkpt>
      <trkpt lat="50.12053" lon="4.17373">
        <ele>182.2</ele>
        <time>2024-03-19T06:22:36Z</time>
      </trkpt>
      <trkpt lat="50.12055" lon="4.17363">
        <ele>182</ele>
        <time>2024-03-19T06:22:37Z</time>
      </trkpt>
      <trkpt lat="50.12057" lon="4.17352">
        <ele>182</ele>
        <time>2024-03-19T06:22:38Z</time>
      </trkpt>
      <trkpt lat="50.12058" lon="4.17342">
        <ele>182</ele>
        <time>2024-03-19T06:22:39Z</time>
      </trkpt>
      <trkpt lat="50.1206" lon="4.17332">
        <ele>181.8</ele>
        <time>2024-03-19T06:22:40Z</time>
      </trkpt>
      <trkpt lat="50.12062" lon="4.17322">
        <ele>181.8</ele>
        <time>2024-03-19T06:22:41Z</time>
      </trkpt>
      <trkpt lat="50.12063" lon="4.17312">
        <ele>181.8</ele>
        <time>2024-03-19T06:22:42Z</time>
      </trkpt>
      <trkpt lat="50.12065" lon="4.17302">
        <ele>181.8</ele>
        <time>2024-03-19T06:22:43Z</time>
      </trkpt>
      <trkpt lat="50.12067" lon="4.17292">
        <ele>181.8</ele>
        <time>2024-03-19T06:22:44Z</time>
      </trkpt>
      <trkpt lat="50.12068" lon="4.17282">
        <ele>181.6</ele>
        <time>2024-03-19T06:22:45Z</time>
      </trkpt>
      <trkpt lat="50.1207" lon="4.17272">
        <ele>181.4</ele>
        <time>2024-03-19T06:22:46Z</time>
      </trkpt>
      <trkpt lat="50.12071" lon="4.17262">
        <ele>181.4</ele>
        <time>2024-03-19T06:22:47Z</time>
      </trkpt>
      <trkpt lat="50.12073" lon="4.17252">
        <ele>181.2</ele>
        <time>2024-03-19T06:22:48Z</time>
      </trkpt>
      <trkpt lat="50.12074" lon="4.17241">
        <ele>181.2</ele>
        <time>2024-03-19T06:22:49Z</time>
      </trkpt>
      <trkpt lat="50.12076" lon="4.1723">
        <ele>181.4</ele>
        <time>2024-03-19T06:22:50Z</time>
      </trkpt>
      <trkpt lat="50.12078" lon="4.1722">
        <ele>181</ele>
        <time>2024-03-19T06:22:51Z</time>
      </trkpt>
      <trkpt lat="50.12079" lon="4.17209">
        <ele>181.2</ele>
        <time>2024-03-19T06:22:52Z</time>
      </trkpt>
      <trkpt lat="50.12081" lon="4.17197">
        <ele>181.2</ele>
        <time>2024-03-19T06:22:53Z</time>
      </trkpt>
      <trkpt lat="50.12082" lon="4.17186">
        <ele>181.2</ele>
        <time>2024-03-19T06:22:54Z</time>
      </trkpt>
      <trkpt lat="50.12083" lon="4.17174">
        <ele>181.2</ele>
        <time>2024-03-19T06:22:55Z</time>
      </trkpt>
      <trkpt lat="50.12084" lon="4.17163">
        <ele>181.2</ele>
        <time>2024-03-19T06:22:56Z</time>
      </trkpt>
      <trkpt lat="50.12085" lon="4.17151">
        <ele>181.2</ele>
        <time>2024-03-19T06:22:57Z</time>
      </trkpt>
      <trkpt lat="50.12086" lon="4.17139">
        <ele>181.2</ele>
        <time>2024-03-19T06:22:58Z</time>
      </trkpt>
      <trkpt lat="50.12087" lon="4.17128">
        <ele>181.4</ele>
        <time>2024-03-19T06:22:59Z</time>
      </trkpt>
      <trkpt lat="50.12088" lon="4.17117">
        <ele>181.4</ele>
        <time>2024-03-19T06:23:00Z</time>
      </trkpt>
      <trkpt lat="50.12089" lon="4.17106">
        <ele>181.2</ele>
        <time>2024-03-19T06:23:01Z</time>
      </trkpt>
      <trkpt lat="50.12091" lon="4.17095">
        <ele>181.2</ele>
        <time>2024-03-19T06:23:02Z</time>
      </trkpt>
      <trkpt lat="50.12093" lon="4.17084">
        <ele>181.2</ele>
        <time>2024-03-19T06:23:03Z</time>
      </trkpt>
      <trkpt lat="50.12095" lon="4.17074">
        <ele>181.2</ele>
        <time>2024-03-19T06:23:04Z</time>
      </trkpt>
      <trkpt lat="50.12097" lon="4.17064">
        <ele>181.2</ele>
        <time>2024-03-19T06:23:05Z</time>
      </trkpt>
      <trkpt lat="50.121" lon="4.17054">
        <ele>181.2</ele>
        <time>2024-03-19T06:23:06Z</time>
      </trkpt>
      <trkpt lat="50.12102" lon="4.17045">
        <ele>181.2</ele>
        <time>2024-03-19T06:23:07Z</time>
      </trkpt>
      <trkpt lat="50.12104" lon="4.17035">
        <ele>181.2</ele>
        <time>2024-03-19T06:23:08Z</time>
      </trkpt>
      <trkpt lat="50.12106" lon="4.17025">
        <ele>181.2</ele>
        <time>2024-03-19T06:23:09Z</time>
      </trkpt>
      <trkpt lat="50.12108" lon="4.17015">
        <ele>181.4</ele>
        <time>2024-03-19T06:23:10Z</time>
      </trkpt>
      <trkpt lat="50.1211" lon="4.17005">
        <ele>181.4</ele>
        <time>2024-03-19T06:23:11Z</time>
      </trkpt>
      <trkpt lat="50.12111" lon="4.16995">
        <ele>181.4</ele>
        <time>2024-03-19T06:23:12Z</time>
      </trkpt>
      <trkpt lat="50.12113" lon="4.16984">
        <ele>181.2</ele>
        <time>2024-03-19T06:23:13Z</time>
      </trkpt>
      <trkpt lat="50.12114" lon="4.16973">
        <ele>181.2</ele>
        <time>2024-03-19T06:23:14Z</time>
      </trkpt>
      <trkpt lat="50.12115" lon="4.16963">
        <ele>181.2</ele>
        <time>2024-03-19T06:23:15Z</time>
      </trkpt>
      <trkpt lat="50.12117" lon="4.16952">
        <ele>181.2</ele>
        <time>2024-03-19T06:23:16Z</time>
      </trkpt>
      <trkpt lat="50.12118" lon="4.1694">
        <ele>181.2</ele>
        <time>2024-03-19T06:23:17Z</time>
      </trkpt>
      <trkpt lat="50.1212" lon="4.16929">
        <ele>181.2</ele>
        <time>2024-03-19T06:23:18Z</time>
      </trkpt>
      <trkpt lat="50.12121" lon="4.16918">
        <ele>181.4</ele>
        <time>2024-03-19T06:23:19Z</time>
      </trkpt>
      <trkpt lat="50.12123" lon="4.16907">
        <ele>181.2</ele>
        <time>2024-03-19T06:23:20Z</time>
      </trkpt>
      <trkpt lat="50.12124" lon="4.16895">
        <ele>181.2</ele>
        <time>2024-03-19T06:23:21Z</time>
      </trkpt>
      <trkpt lat="50.12126" lon="4.16884">
        <ele>181.4</ele>
        <time>2024-03-19T06:23:22Z</time>
      </trkpt>
      <trkpt lat="50.12128" lon="4.16872">
        <ele>181.2</ele>
        <time>2024-03-19T06:23:23Z</time>
      </trkpt>
      <trkpt lat="50.1213" lon="4.16861">
        <ele>181.2</ele>
        <time>2024-03-19T06:23:24Z</time>
      </trkpt>
      <trkpt lat="50.12132" lon="4.16849">
        <ele>181</ele>
        <time>2024-03-19T06:23:25Z</time>
      </trkpt>
      <trkpt lat="50.12134" lon="4.16836">
        <ele>180.8</ele>
        <time>2024-03-19T06:23:26Z</time>
      </trkpt>
      <trkpt lat="50.12137" lon="4.16824">
        <ele>180.8</ele>
        <time>2024-03-19T06:23:27Z</time>
      </trkpt>
      <trkpt lat="50.12141" lon="4.16812">
        <ele>180.4</ele>
        <time>2024-03-19T06:23:28Z</time>
      </trkpt>
      <trkpt lat="50.12144" lon="4.168">
        <ele>180.4</ele>
        <time>2024-03-19T06:23:29Z</time>
      </trkpt>
      <trkpt lat="50.12148" lon="4.16788">
        <ele>180.2</ele>
        <time>2024-03-19T06:23:30Z</time>
      </trkpt>
      <trkpt lat="50.12152" lon="4.16776">
        <ele>180</ele>
        <time>2024-03-19T06:23:31Z</time>
      </trkpt>
      <trkpt lat="50.12157" lon="4.16764">
        <ele>180</ele>
        <time>2024-03-19T06:23:32Z</time>
      </trkpt>
      <trkpt lat="50.12161" lon="4.16752">
        <ele>179.6</ele>
        <time>2024-03-19T06:23:33Z</time>
      </trkpt>
      <trkpt lat="50.12165" lon="4.16741">
        <ele>179.4</ele>
        <time>2024-03-19T06:23:34Z</time>
      </trkpt>
      <trkpt lat="50.1217" lon="4.16729">
        <ele>179</ele>
        <time>2024-03-19T06:23:35Z</time>
      </trkpt>
      <trkpt lat="50.12174" lon="4.16719">
        <ele>177.8</ele>
        <time>2024-03-19T06:23:36Z</time>
      </trkpt>
      <trkpt lat="50.12179" lon="4.16708">
        <ele>177.2</ele>
        <time>2024-03-19T06:23:37Z</time>
      </trkpt>
      <trkpt lat="50.12183" lon="4.16698">
        <ele>176.8</ele>
        <time>2024-03-19T06:23:38Z</time>
      </trkpt>
      <trkpt lat="50.12187" lon="4.16689">
        <ele>176.8</ele>
        <time>2024-03-19T06:23:39Z</time>
      </trkpt>
      <trkpt lat="50.12191" lon="4.1668">
        <ele>176.6</ele>
        <time>2024-03-19T06:23:40Z</time>
      </trkpt>
      <trkpt lat="50.12195" lon="4.16672">
        <ele>176.6</ele>
        <time>2024-03-19T06:23:41Z</time>
      </trkpt>
      <trkpt lat="50.12199" lon="4.16664">
        <ele>176.8</ele>
        <time>2024-03-19T06:23:42Z</time>
      </trkpt>
      <trkpt lat="50.12204" lon="4.16656">
        <ele>176.6</ele>
        <time>2024-03-19T06:23:43Z</time>
      </trkpt>
      <trkpt lat="50.12207" lon="4.16649">
        <ele>176.6</ele>
        <time>2024-03-19T06:23:44Z</time>
      </trkpt>
      <trkpt lat="50.12211" lon="4.16642">
        <ele>176.6</ele>
        <time>2024-03-19T06:23:45Z</time>
      </trkpt>
      <trkpt lat="50.12215" lon="4.16635">
        <ele>176.6</ele>
        <time>2024-03-19T06:23:46Z</time>
      </trkpt>
      <trkpt lat="50.12218" lon="4.16629">
        <ele>176.8</ele>
        <time>2024-03-19T06:23:47Z</time>
      </trkpt>
      <trkpt lat="50.12222" lon="4.16623">
        <ele>176.8</ele>
        <time>2024-03-19T06:23:48Z</time>
      </trkpt>
      <trkpt lat="50.12225" lon="4.16616">
        <ele>176.8</ele>
        <time>2024-03-19T06:23:49Z</time>
      </trkpt>
      <trkpt lat="50.12229" lon="4.1661">
        <ele>177.2</ele>
        <time>2024-03-19T06:23:50Z</time>
      </trkpt>
      <trkpt lat="50.12232" lon="4.16604">
        <ele>177.2</ele>
        <time>2024-03-19T06:23:51Z</time>
      </trkpt>
      <trkpt lat="50.12235" lon="4.16598">
        <ele>177.8</ele>
        <time>2024-03-19T06:23:52Z</time>
      </trkpt>
      <trkpt lat="50.12238" lon="4.16592">
        <ele>178.2</ele>
        <time>2024-03-19T06:23:53Z</time>
      </trkpt>
      <trkpt lat="50.1224" lon="4.16586">
        <ele>178.8</ele>
        <time>2024-03-19T06:23:54Z</time>
      </trkpt>
      <trkpt lat="50.12243" lon="4.16579">
        <ele>179</ele>
        <time>2024-03-19T06:23:55Z</time>
      </trkpt>
      <trkpt lat="50.12245" lon="4.16573">
        <ele>179.4</ele>
        <time>2024-03-19T06:23:56Z</time>
      </trkpt>
      <trkpt lat="50.12247" lon="4.16566">
        <ele>180</ele>
        <time>2024-03-19T06:23:57Z</time>
      </trkpt>
      <trkpt lat="50.12249" lon="4.16559">
        <ele>180.4</ele>
        <time>2024-03-19T06:23:58Z</time>
      </trkpt>
      <trkpt lat="50.1225" lon="4.16552">
        <ele>180.4</ele>
        <time>2024-03-19T06:23:59Z</time>
      </trkpt>
      <trkpt lat="50.12252" lon="4.16545">
        <ele>180.6</ele>
        <time>2024-03-19T06:24:00Z</time>
      </trkpt>
      <trkpt lat="50.12253" lon="4.16537">
        <ele>180.6</ele>
        <time>2024-03-19T06:24:01Z</time>
      </trkpt>
      <trkpt lat="50.12254" lon="4.1653">
        <ele>180.8</ele>
        <time>2024-03-19T06:24:02Z</time>
      </trkpt>
      <trkpt lat="50.12255" lon="4.16522">
        <ele>181.2</ele>
        <time>2024-03-19T06:24:03Z</time>
      </trkpt>
      <trkpt lat="50.12256" lon="4.16515">
        <ele>181.2</ele>
        <time>2024-03-19T06:24:04Z</time>
      </trkpt>
      <trkpt lat="50.12257" lon="4.16507">
        <ele>181.6</ele>
        <time>2024-03-19T06:24:05Z</time>
      </trkpt>
      <trkpt lat="50.12258" lon="4.16499">
        <ele>181.8</ele>
        <time>2024-03-19T06:24:06Z</time>
      </trkpt>
      <trkpt lat="50.12259" lon="4.16491">
        <ele>182</ele>
        <time>2024-03-19T06:24:07Z</time>
      </trkpt>
      <trkpt lat="50.1226" lon="4.16483">
        <ele>182.8</ele>
        <time>2024-03-19T06:24:08Z</time>
      </trkpt>
      <trkpt lat="50.12262" lon="4.16476">
        <ele>183.6</ele>
        <time>2024-03-19T06:24:09Z</time>
      </trkpt>
      <trkpt lat="50.12264" lon="4.16469">
        <ele>184.2</ele>
        <time>2024-03-19T06:24:10Z</time>
      </trkpt>
      <trkpt lat="50.12266" lon="4.16461">
        <ele>184.6</ele>
        <time>2024-03-19T06:24:11Z</time>
      </trkpt>
      <trkpt lat="50.12269" lon="4.16454">
        <ele>184.6</ele>
        <time>2024-03-19T06:24:12Z</time>
      </trkpt>
      <trkpt lat="50.12271" lon="4.16447">
        <ele>184.8</ele>
        <time>2024-03-19T06:24:13Z</time>
      </trkpt>
      <trkpt lat="50.12274" lon="4.1644">
        <ele>185</ele>
        <time>2024-03-19T06:24:14Z</time>
      </trkpt>
      <trkpt lat="50.12277" lon="4.16433">
        <ele>185</ele>
        <time>2024-03-19T06:24:15Z</time>
      </trkpt>
      <trkpt lat="50.1228" lon="4.16426">
        <ele>185.4</ele>
        <time>2024-03-19T06:24:16Z</time>
      </trkpt>
      <trkpt lat="50.12283" lon="4.16419">
        <ele>185.4</ele>
        <time>2024-03-19T06:24:17Z</time>
      </trkpt>
      <trkpt lat="50.12286" lon="4.16412">
        <ele>185.6</ele>
        <time>2024-03-19T06:24:18Z</time>
      </trkpt>
      <trkpt lat="50.12289" lon="4.16405">
        <ele>185.6</ele>
        <time>2024-03-19T06:24:19Z</time>
      </trkpt>
      <trkpt lat="50.12292" lon="4.16398">
        <ele>185.6</ele>
        <time>2024-03-19T06:24:20Z</time>
      </trkpt>
      <trkpt lat="50.12295" lon="4.16392">
        <ele>185.6</ele>
        <time>2024-03-19T06:24:21Z</time>
      </trkpt>
      <trkpt lat="50.12298" lon="4.16385">
        <ele>185.6</ele>
        <time>2024-03-19T06:24:22Z</time>
      </trkpt>
      <trkpt lat="50.12301" lon="4.16378">
        <ele>185.6</ele>
        <time>2024-03-19T06:24:23Z</time>
      </trkpt>
      <trkpt lat="50.12304" lon="4.16372">
        <ele>185.6</ele>
        <time>2024-03-19T06:24:24Z</time>
      </trkpt>
      <trkpt lat="50.12306" lon="4.16365">
        <ele>186</ele>
        <time>2024-03-19T06:24:25Z</time>
      </trkpt>
      <trkpt lat="50.12309" lon="4.16358">
        <ele>185.8</ele>
        <time>2024-03-19T06:24:26Z</time>
      </trkpt>
      <trkpt lat="50.12311" lon="4.16351">
        <ele>186</ele>
        <time>2024-03-19T06:24:27Z</time>
      </trkpt>
      <trkpt lat="50.12313" lon="4.16344">
        <ele>186</ele>
        <time>2024-03-19T06:24:28Z</time>
      </trkpt>
      <trkpt lat="50.12315" lon="4.16337">
        <ele>186.2</ele>
        <time>2024-03-19T06:24:29Z</time>
      </trkpt>
      <trkpt lat="50.12317" lon="4.1633">
        <ele>186.4</ele>
        <time>2024-03-19T06:24:30Z</time>
      </trkpt>
      <trkpt lat="50.12318" lon="4.16323">
        <ele>186.4</ele>
        <time>2024-03-19T06:24:31Z</time>
      </trkpt>
      <trkpt lat="50.12319" lon="4.16315">
        <ele>186.4</ele>
        <time>2024-03-19T06:24:32Z</time>
      </trkpt>
      <trkpt lat="50.1232" lon="4.16308">
        <ele>186.6</ele>
        <time>2024-03-19T06:24:33Z</time>
      </trkpt>
      <trkpt lat="50.12321" lon="4.163">
        <ele>187</ele>
        <time>2024-03-19T06:24:34Z</time>
      </trkpt>
      <trkpt lat="50.12321" lon="4.16292">
        <ele>187.2</ele>
        <time>2024-03-19T06:24:35Z</time>
      </trkpt>
      <trkpt lat="50.12321" lon="4.16285">
        <ele>187.6</ele>
        <time>2024-03-19T06:24:36Z</time>
      </trkpt>
      <trkpt lat="50.12321" lon="4.16277">
        <ele>187.6</ele>
        <time>2024-03-19T06:24:37Z</time>
      </trkpt>
      <trkpt lat="50.1232" lon="4.1627">
        <ele>187.6</ele>
        <time>2024-03-19T06:24:38Z</time>
      </trkpt>
      <trkpt lat="50.12319" lon="4.16262">
        <ele>187.6</ele>
        <time>2024-03-19T06:24:39Z</time>
      </trkpt>
      <trkpt lat="50.12318" lon="4.16254">
        <ele>188.2</ele>
        <time>2024-03-19T06:24:40Z</time>
      </trkpt>
      <trkpt lat="50.12317" lon="4.16247">
        <ele>188.2</ele>
        <time>2024-03-19T06:24:41Z</time>
      </trkpt>
      <trkpt lat="50.12315" lon="4.16239">
        <ele>188.2</ele>
        <time>2024-03-19T06:24:42Z</time>
      </trkpt>
      <trkpt lat="50.12313" lon="4.16232">
        <ele>188.4</ele>
        <time>2024-03-19T06:24:43Z</time>
      </trkpt>
      <trkpt lat="50.12312" lon="4.16225">
        <ele>188.6</ele>
        <time>2024-03-19T06:24:44Z</time>
      </trkpt>
      <trkpt lat="50.12309" lon="4.16217">
        <ele>188.8</ele>
        <time>2024-03-19T06:24:45Z</time>
      </trkpt>
      <trkpt lat="50.12306" lon="4.16211">
        <ele>188.8</ele>
        <time>2024-03-19T06:24:46Z</time>
      </trkpt>
      <trkpt lat="50.12303" lon="4.16204">
        <ele>189</ele>
        <time>2024-03-19T06:24:47Z</time>
      </trkpt>
      <trkpt lat="50.123" lon="4.16198">
        <ele>189</ele>
        <time>2024-03-19T06:24:48Z</time>
      </trkpt>
      <trkpt lat="50.12297" lon="4.16192">
        <ele>189</ele>
        <time>2024-03-19T06:24:49Z</time>
      </trkpt>
      <trkpt lat="50.12293" lon="4.16186">
        <ele>189.2</ele>
        <time>2024-03-19T06:24:50Z</time>
      </trkpt>
      <trkpt lat="50.1229" lon="4.1618">
        <ele>189.4</ele>
        <time>2024-03-19T06:24:51Z</time>
      </trkpt>
      <trkpt lat="50.12286" lon="4.16175">
        <ele>189.8</ele>
        <time>2024-03-19T06:24:52Z</time>
      </trkpt>
      <trkpt lat="50.12283" lon="4.16169">
        <ele>190.2</ele>
        <time>2024-03-19T06:24:53Z</time>
      </trkpt>
      <trkpt lat="50.12279" lon="4.16164">
        <ele>190.2</ele>
        <time>2024-03-19T06:24:54Z</time>
      </trkpt>
      <trkpt lat="50.12276" lon="4.16159">
        <ele>190.2</ele>
        <time>2024-03-19T06:24:55Z</time>
      </trkpt>
      <trkpt lat="50.12272" lon="4.16153">
        <ele>190.6</ele>
        <time>2024-03-19T06:24:56Z</time>
      </trkpt>
      <trkpt lat="50.12269" lon="4.16148">
        <ele>190.8</ele>
        <time>2024-03-19T06:24:57Z</time>
      </trkpt>
      <trkpt lat="50.12265" lon="4.16143">
        <ele>191.2</ele>
        <time>2024-03-19T06:24:58Z</time>
      </trkpt>
      <trkpt lat="50.12262" lon="4.16137">
        <ele>191.8</ele>
        <time>2024-03-19T06:24:59Z</time>
      </trkpt>
      <trkpt lat="50.12258" lon="4.16132">
        <ele>192.2</ele>
        <time>2024-03-19T06:25:00Z</time>
      </trkpt>
      <trkpt lat="50.12255" lon="4.16126">
        <ele>192.4</ele>
        <time>2024-03-19T06:25:01Z</time>
      </trkpt>
      <trkpt lat="50.12251" lon="4.1612">
        <ele>192.6</ele>
        <time>2024-03-19T06:25:02Z</time>
      </trkpt>
      <trkpt lat="50.12247" lon="4.16115">
        <ele>193</ele>
        <time>2024-03-19T06:25:03Z</time>
      </trkpt>
      <trkpt lat="50.12244" lon="4.16109">
        <ele>193.8</ele>
        <time>2024-03-19T06:25:04Z</time>
      </trkpt>
      <trkpt lat="50.1224" lon="4.16103">
        <ele>194.2</ele>
        <time>2024-03-19T06:25:05Z</time>
      </trkpt>
      <trkpt lat="50.12236" lon="4.16098">
        <ele>194.4</ele>
        <time>2024-03-19T06:25:06Z</time>
      </trkpt>
      <trkpt lat="50.12232" lon="4.16092">
        <ele>194.6</ele>
        <time>2024-03-19T06:25:07Z</time>
      </trkpt>
      <trkpt lat="50.12229" lon="4.16086">
        <ele>195</ele>
        <time>2024-03-19T06:25:08Z</time>
      </trkpt>
      <trkpt lat="50.12225" lon="4.1608">
        <ele>195.2</ele>
        <time>2024-03-19T06:25:09Z</time>
      </trkpt>
      <trkpt lat="50.12221" lon="4.16073">
        <ele>195.4</ele>
        <time>2024-03-19T06:25:10Z</time>
      </trkpt>
      <trkpt lat="50.12217" lon="4.16067">
        <ele>195.4</ele>
        <time>2024-03-19T06:25:11Z</time>
      </trkpt>
      <trkpt lat="50.12213" lon="4.16061">
        <ele>195.6</ele>
        <time>2024-03-19T06:25:12Z</time>
      </trkpt>
      <trkpt lat="50.12209" lon="4.16055">
        <ele>195.6</ele>
        <time>2024-03-19T06:25:13Z</time>
      </trkpt>
      <trkpt lat="50.12205" lon="4.16048">
        <ele>195.6</ele>
        <time>2024-03-19T06:25:14Z</time>
      </trkpt>
      <trkpt lat="50.12201" lon="4.16042">
        <ele>195.8</ele>
        <time>2024-03-19T06:25:15Z</time>
      </trkpt>
      <trkpt lat="50.12197" lon="4.16036">
        <ele>195.6</ele>
        <time>2024-03-19T06:25:16Z</time>
      </trkpt>
      <trkpt lat="50.12193" lon="4.1603">
        <ele>196</ele>
        <time>2024-03-19T06:25:17Z</time>
      </trkpt>
      <trkpt lat="50.12189" lon="4.16023">
        <ele>196</ele>
        <time>2024-03-19T06:25:18Z</time>
      </trkpt>
      <trkpt lat="50.12185" lon="4.16016">
        <ele>196</ele>
        <time>2024-03-19T06:25:19Z</time>
      </trkpt>
      <trkpt lat="50.12181" lon="4.1601">
        <ele>196</ele>
        <time>2024-03-19T06:25:20Z</time>
      </trkpt>
      <trkpt lat="50.12177" lon="4.16003">
        <ele>196</ele>
        <time>2024-03-19T06:25:21Z</time>
      </trkpt>
      <trkpt lat="50.12173" lon="4.15996">
        <ele>196.2</ele>
        <time>2024-03-19T06:25:22Z</time>
      </trkpt>
      <trkpt lat="50.1217" lon="4.15989">
        <ele>196</ele>
        <time>2024-03-19T06:25:23Z</time>
      </trkpt>
      <trkpt lat="50.12168" lon="4.15982">
        <ele>196.2</ele>
        <time>2024-03-19T06:25:24Z</time>
      </trkpt>
      <trkpt lat="50.12165" lon="4.15974">
        <ele>196.2</ele>
        <time>2024-03-19T06:25:25Z</time>
      </trkpt>
      <trkpt lat="50.12163" lon="4.15967">
        <ele>196.2</ele>
        <time>2024-03-19T06:25:26Z</time>
      </trkpt>
      <trkpt lat="50.12161" lon="4.15959">
        <ele>196.2</ele>
        <time>2024-03-19T06:25:27Z</time>
      </trkpt>
      <trkpt lat="50.1216" lon="4.15952">
        <ele>196.4</ele>
        <time>2024-03-19T06:25:28Z</time>
      </trkpt>
      <trkpt lat="50.12159" lon="4.15945">
        <ele>196.2</ele>
        <time>2024-03-19T06:25:29Z</time>
      </trkpt>
      <trkpt lat="50.12159" lon="4.15937">
        <ele>196.2</ele>
        <time>2024-03-19T06:25:30Z</time>
      </trkpt>
      <trkpt lat="50.12159" lon="4.1593">
        <ele>196.4</ele>
        <time>2024-03-19T06:25:31Z</time>
      </trkpt>
      <trkpt lat="50.12159" lon="4.15923">
        <ele>196.8</ele>
        <time>2024-03-19T06:25:32Z</time>
      </trkpt>
      <trkpt lat="50.1216" lon="4.15916">
        <ele>197</ele>
        <time>2024-03-19T06:25:33Z</time>
      </trkpt>
      <trkpt lat="50.1216" lon="4.15908">
        <ele>197.2</ele>
        <time>2024-03-19T06:25:34Z</time>
      </trkpt>
      <trkpt lat="50.12161" lon="4.15901">
        <ele>197.4</ele>
        <time>2024-03-19T06:25:35Z</time>
      </trkpt>
      <trkpt lat="50.12163" lon="4.15894">
        <ele>197.6</ele>
        <time>2024-03-19T06:25:36Z</time>
      </trkpt>
      <trkpt lat="50.12164" lon="4.15887">
        <ele>197.6</ele>
        <time>2024-03-19T06:25:37Z</time>
      </trkpt>
      <trkpt lat="50.12166" lon="4.1588">
        <ele>198</ele>
        <time>2024-03-19T06:25:38Z</time>
      </trkpt>
      <trkpt lat="50.12168" lon="4.15873">
        <ele>198.4</ele>
        <time>2024-03-19T06:25:39Z</time>
      </trkpt>
      <trkpt lat="50.12169" lon="4.15866">
        <ele>198.6</ele>
        <time>2024-03-19T06:25:40Z</time>
      </trkpt>
      <trkpt lat="50.12171" lon="4.15859">
        <ele>198.6</ele>
        <time>2024-03-19T06:25:41Z</time>
      </trkpt>
      <trkpt lat="50.12173" lon="4.15852">
        <ele>199</ele>
        <time>2024-03-19T06:25:42Z</time>
      </trkpt>
      <trkpt lat="50.12175" lon="4.15845">
        <ele>199</ele>
        <time>2024-03-19T06:25:43Z</time>
      </trkpt>
      <trkpt lat="50.12178" lon="4.15837">
        <ele>199.2</ele>
        <time>2024-03-19T06:25:44Z</time>
      </trkpt>
      <trkpt lat="50.1218" lon="4.15829">
        <ele>199.2</ele>
        <time>2024-03-19T06:25:45Z</time>
      </trkpt>
      <trkpt lat="50.12182" lon="4.15821">
        <ele>199.4</ele>
        <time>2024-03-19T06:25:46Z</time>
      </trkpt>
      <trkpt lat="50.12185" lon="4.15812">
        <ele>199.4</ele>
        <time>2024-03-19T06:25:47Z</time>
      </trkpt>
      <trkpt lat="50.12187" lon="4.15803">
        <ele>199.4</ele>
        <time>2024-03-19T06:25:48Z</time>
      </trkpt>
      <trkpt lat="50.1219" lon="4.15793">
        <ele>199.6</ele>
        <time>2024-03-19T06:25:49Z</time>
      </trkpt>
      <trkpt lat="50.12193" lon="4.15783">
        <ele>199.4</ele>
        <time>2024-03-19T06:25:50Z</time>
      </trkpt>
      <trkpt lat="50.12196" lon="4.15772">
        <ele>199.6</ele>
        <time>2024-03-19T06:25:51Z</time>
      </trkpt>
      <trkpt lat="50.12199" lon="4.15761">
        <ele>199.4</ele>
        <time>2024-03-19T06:25:52Z</time>
      </trkpt>
      <trkpt lat="50.12202" lon="4.1575">
        <ele>199.6</ele>
        <time>2024-03-19T06:25:53Z</time>
      </trkpt>
      <trkpt lat="50.12206" lon="4.15738">
        <ele>199.6</ele>
        <time>2024-03-19T06:25:54Z</time>
      </trkpt>
      <trkpt lat="50.12209" lon="4.15725">
        <ele>199.6</ele>
        <time>2024-03-19T06:25:55Z</time>
      </trkpt>
      <trkpt lat="50.12212" lon="4.15712">
        <ele>199.4</ele>
        <time>2024-03-19T06:25:56Z</time>
      </trkpt>
      <trkpt lat="50.12216" lon="4.15698">
        <ele>199.2</ele>
        <time>2024-03-19T06:25:57Z</time>
      </trkpt>
      <trkpt lat="50.12219" lon="4.15684">
        <ele>199</ele>
        <time>2024-03-19T06:25:58Z</time>
      </trkpt>
      <trkpt lat="50.12222" lon="4.15669">
        <ele>198.2</ele>
        <time>2024-03-19T06:25:59Z</time>
      </trkpt>
      <trkpt lat="50.12225" lon="4.15653">
        <ele>198.2</ele>
        <time>2024-03-19T06:26:00Z</time>
      </trkpt>
      <trkpt lat="50.12228" lon="4.15637">
        <ele>197.8</ele>
        <time>2024-03-19T06:26:01Z</time>
      </trkpt>
      <trkpt lat="50.1223" lon="4.1562">
        <ele>197.2</ele>
        <time>2024-03-19T06:26:02Z</time>
      </trkpt>
      <trkpt lat="50.12233" lon="4.15602">
        <ele>196.6</ele>
        <time>2024-03-19T06:26:03Z</time>
      </trkpt>
      <trkpt lat="50.12236" lon="4.15585">
        <ele>195.8</ele>
        <time>2024-03-19T06:26:04Z</time>
      </trkpt>
      <trkpt lat="50.12239" lon="4.15567">
        <ele>195</ele>
        <time>2024-03-19T06:26:05Z</time>
      </trkpt>
      <trkpt lat="50.12243" lon="4.15549">
        <ele>194.2</ele>
        <time>2024-03-19T06:26:06Z</time>
      </trkpt>
      <trkpt lat="50.12247" lon="4.15531">
        <ele>193.4</ele>
        <time>2024-03-19T06:26:07Z</time>
      </trkpt>
      <trkpt lat="50.12253" lon="4.15514">
        <ele>192.6</ele>
        <time>2024-03-19T06:26:08Z</time>
      </trkpt>
      <trkpt lat="50.1226" lon="4.15497">
        <ele>191.8</ele>
        <time>2024-03-19T06:26:09Z</time>
      </trkpt>
      <trkpt lat="50.12267" lon="4.15481">
        <ele>190.4</ele>
        <time>2024-03-19T06:26:10Z</time>
      </trkpt>
      <trkpt lat="50.12275" lon="4.15464">
        <ele>189</ele>
        <time>2024-03-19T06:26:11Z</time>
      </trkpt>
      <trkpt lat="50.12283" lon="4.15448">
        <ele>188</ele>
        <time>2024-03-19T06:26:12Z</time>
      </trkpt>
      <trkpt lat="50.12291" lon="4.15432">
        <ele>187.2</ele>
        <time>2024-03-19T06:26:13Z</time>
      </trkpt>
      <trkpt lat="50.12299" lon="4.15416">
        <ele>186.4</ele>
        <time>2024-03-19T06:26:14Z</time>
      </trkpt>
      <trkpt lat="50.12308" lon="4.15401">
        <ele>185.4</ele>
        <time>2024-03-19T06:26:15Z</time>
      </trkpt>
      <trkpt lat="50.12316" lon="4.15387">
        <ele>185.4</ele>
        <time>2024-03-19T06:26:16Z</time>
      </trkpt>
      <trkpt lat="50.12325" lon="4.15373">
        <ele>184.6</ele>
        <time>2024-03-19T06:26:17Z</time>
      </trkpt>
      <trkpt lat="50.12333" lon="4.1536">
        <ele>183.4</ele>
        <time>2024-03-19T06:26:18Z</time>
      </trkpt>
      <trkpt lat="50.12342" lon="4.15348">
        <ele>182.2</ele>
        <time>2024-03-19T06:26:19Z</time>
      </trkpt>
      <trkpt lat="50.12351" lon="4.15337">
        <ele>180.8</ele>
        <time>2024-03-19T06:26:20Z</time>
      </trkpt>
      <trkpt lat="50.12359" lon="4.15327">
        <ele>180</ele>
        <time>2024-03-19T06:26:21Z</time>
      </trkpt>
      <trkpt lat="50.12367" lon="4.15317">
        <ele>179.2</ele>
        <time>2024-03-19T06:26:22Z</time>
      </trkpt>
      <trkpt lat="50.12375" lon="4.15308">
        <ele>178.8</ele>
        <time>2024-03-19T06:26:23Z</time>
      </trkpt>
      <trkpt lat="50.12383" lon="4.153">
        <ele>178.4</ele>
        <time>2024-03-19T06:26:24Z</time>
      </trkpt>
      <trkpt lat="50.12389" lon="4.15292">
        <ele>178.6</ele>
        <time>2024-03-19T06:26:25Z</time>
      </trkpt>
      <trkpt lat="50.12395" lon="4.15285">
        <ele>178.4</ele>
        <time>2024-03-19T06:26:26Z</time>
      </trkpt>
      <trkpt lat="50.12401" lon="4.15278">
        <ele>178.4</ele>
        <time>2024-03-19T06:26:27Z</time>
      </trkpt>
      <trkpt lat="50.12407" lon="4.15272">
        <ele>178.4</ele>
        <time>2024-03-19T06:26:28Z</time>
      </trkpt>
      <trkpt lat="50.12412" lon="4.15266">
        <ele>178.4</ele>
        <time>2024-03-19T06:26:29Z</time>
      </trkpt>
      <trkpt lat="50.12417" lon="4.1526">
        <ele>178.4</ele>
        <time>2024-03-19T06:26:30Z</time>
      </trkpt>
      <trkpt lat="50.12422" lon="4.15255">
        <ele>178.4</ele>
        <time>2024-03-19T06:26:31Z</time>
      </trkpt>
      <trkpt lat="50.12426" lon="4.1525">
        <ele>178.4</ele>
        <time>2024-03-19T06:26:32Z</time>
      </trkpt>
      <trkpt lat="50.12431" lon="4.15245">
        <ele>178.6</ele>
        <time>2024-03-19T06:26:33Z</time>
      </trkpt>
      <trkpt lat="50.12435" lon="4.1524">
        <ele>179</ele>
        <time>2024-03-19T06:26:34Z</time>
      </trkpt>
      <trkpt lat="50.12439" lon="4.15236">
        <ele>179.6</ele>
        <time>2024-03-19T06:26:35Z</time>
      </trkpt>
      <trkpt lat="50.12443" lon="4.15231">
        <ele>180.2</ele>
        <time>2024-03-19T06:26:36Z</time>
      </trkpt>
      <trkpt lat="50.12447" lon="4.15227">
        <ele>181</ele>
        <time>2024-03-19T06:26:37Z</time>
      </trkpt>
      <trkpt lat="50.1245" lon="4.15222">
        <ele>181.6</ele>
        <time>2024-03-19T06:26:38Z</time>
      </trkpt>
      <trkpt lat="50.12454" lon="4.15218">
        <ele>182.6</ele>
        <time>2024-03-19T06:26:39Z</time>
      </trkpt>
      <trkpt lat="50.12457" lon="4.15214">
        <ele>183</ele>
        <time>2024-03-19T06:26:40Z</time>
      </trkpt>
      <trkpt lat="50.12461" lon="4.1521">
        <ele>183.6</ele>
        <time>2024-03-19T06:26:41Z</time>
      </trkpt>
      <trkpt lat="50.12464" lon="4.15206">
        <ele>184.2</ele>
        <time>2024-03-19T06:26:42Z</time>
      </trkpt>
      <trkpt lat="50.12467" lon="4.15202">
        <ele>184.4</ele>
        <time>2024-03-19T06:26:43Z</time>
      </trkpt>
      <trkpt lat="50.1247" lon="4.15199">
        <ele>185.2</ele>
        <time>2024-03-19T06:26:44Z</time>
      </trkpt>
      <trkpt lat="50.12473" lon="4.15195">
        <ele>185.8</ele>
        <time>2024-03-19T06:26:45Z</time>
      </trkpt>
      <trkpt lat="50.12476" lon="4.15191">
        <ele>186.4</ele>
        <time>2024-03-19T06:26:46Z</time>
      </trkpt>
      <trkpt lat="50.12479" lon="4.15187">
        <ele>186.6</ele>
        <time>2024-03-19T06:26:47Z</time>
      </trkpt>
      <trkpt lat="50.12482" lon="4.15183">
        <ele>187</ele>
        <time>2024-03-19T06:26:48Z</time>
      </trkpt>
      <trkpt lat="50.12485" lon="4.15179">
        <ele>187.4</ele>
        <time>2024-03-19T06:26:49Z</time>
      </trkpt>
      <trkpt lat="50.12488" lon="4.15174">
        <ele>187.4</ele>
        <time>2024-03-19T06:26:50Z</time>
      </trkpt>
      <trkpt lat="50.1249" lon="4.1517">
        <ele>187.8</ele>
        <time>2024-03-19T06:26:51Z</time>
      </trkpt>
      <trkpt lat="50.12493" lon="4.15166">
        <ele>188.4</ele>
        <time>2024-03-19T06:26:52Z</time>
      </trkpt>
      <trkpt lat="50.12495" lon="4.15161">
        <ele>188.8</ele>
        <time>2024-03-19T06:26:53Z</time>
      </trkpt>
      <trkpt lat="50.12497" lon="4.15157">
        <ele>189</ele>
        <time>2024-03-19T06:26:54Z</time>
      </trkpt>
      <trkpt lat="50.125" lon="4.15152">
        <ele>189.6</ele>
        <time>2024-03-19T06:26:55Z</time>
      </trkpt>
      <trkpt lat="50.12502" lon="4.15148">
        <ele>189.8</ele>
        <time>2024-03-19T06:26:56Z</time>
      </trkpt>
      <trkpt lat="50.12504" lon="4.15144">
        <ele>190.2</ele>
        <time>2024-03-19T06:26:57Z</time>
      </trkpt>
      <trkpt lat="50.12506" lon="4.15139">
        <ele>190.2</ele>
        <time>2024-03-19T06:26:58Z</time>
      </trkpt>
      <trkpt lat="50.12508" lon="4.15135">
        <ele>190.6</ele>
        <time>2024-03-19T06:26:59Z</time>
      </trkpt>
      <trkpt lat="50.1251" lon="4.1513">
        <ele>190.6</ele>
        <time>2024-03-19T06:27:00Z</time>
      </trkpt>
      <trkpt lat="50.12512" lon="4.15126">
        <ele>190.8</ele>
        <time>2024-03-19T06:27:01Z</time>
      </trkpt>
      <trkpt lat="50.12514" lon="4.15121">
        <ele>190.8</ele>
        <time>2024-03-19T06:27:02Z</time>
      </trkpt>
      <trkpt lat="50.12516" lon="4.15117">
        <ele>191.2</ele>
        <time>2024-03-19T06:27:03Z</time>
      </trkpt>
      <trkpt lat="50.12518" lon="4.15113">
        <ele>192</ele>
        <time>2024-03-19T06:27:04Z</time>
      </trkpt>
      <trkpt lat="50.1252" lon="4.15108">
        <ele>192.8</ele>
        <time>2024-03-19T06:27:05Z</time>
      </trkpt>
      <trkpt lat="50.12522" lon="4.15104">
        <ele>192.8</ele>
        <time>2024-03-19T06:27:06Z</time>
      </trkpt>
      <trkpt lat="50.12523" lon="4.151">
        <ele>193.2</ele>
        <time>2024-03-19T06:27:07Z</time>
      </trkpt>
      <trkpt lat="50.12525" lon="4.15095">
        <ele>193.6</ele>
        <time>2024-03-19T06:27:08Z</time>
      </trkpt>
      <trkpt lat="50.12527" lon="4.15091">
        <ele>194.2</ele>
        <time>2024-03-19T06:27:09Z</time>
      </trkpt>
      <trkpt lat="50.12528" lon="4.15087">
        <ele>194.6</ele>
        <time>2024-03-19T06:27:10Z</time>
      </trkpt>
      <trkpt lat="50.1253" lon="4.15083">
        <ele>194.8</ele>
        <time>2024-03-19T06:27:11Z</time>
      </trkpt>
      <trkpt lat="50.12532" lon="4.15079">
        <ele>195.2</ele>
        <time>2024-03-19T06:27:12Z</time>
      </trkpt>
      <trkpt lat="50.12533" lon="4.15074">
        <ele>195.4</ele>
        <time>2024-03-19T06:27:13Z</time>
      </trkpt>
      <trkpt lat="50.12535" lon="4.1507">
        <ele>196</ele>
        <time>2024-03-19T06:27:14Z</time>
      </trkpt>
      <trkpt lat="50.12537" lon="4.15066">
        <ele>196.2</ele>
        <time>2024-03-19T06:27:15Z</time>
      </trkpt>
      <trkpt lat="50.12538" lon="4.15062">
        <ele>196.4</ele>
        <time>2024-03-19T06:27:16Z</time>
      </trkpt>
      <trkpt lat="50.12539" lon="4.15057">
        <ele>196.6</ele>
        <time>2024-03-19T06:27:17Z</time>
      </trkpt>
      <trkpt lat="50.12541" lon="4.15053">
        <ele>197</ele>
        <time>2024-03-19T06:27:18Z</time>
      </trkpt>
      <trkpt lat="50.12542" lon="4.15049">
        <ele>197.4</ele>
        <time>2024-03-19T06:27:19Z</time>
      </trkpt>
      <trkpt lat="50.12543" lon="4.15045">
        <ele>197.6</ele>
        <time>2024-03-19T06:27:20Z</time>
      </trkpt>
      <trkpt lat="50.12544" lon="4.1504">
        <ele>198</ele>
        <time>2024-03-19T06:27:21Z</time>
      </trkpt>
      <trkpt lat="50.12545" lon="4.15036">
        <ele>198</ele>
        <time>2024-03-19T06:27:22Z</time>
      </trkpt>
      <trkpt lat="50.12546" lon="4.15031">
        <ele>198</ele>
        <time>2024-03-19T06:27:23Z</time>
      </trkpt>
      <trkpt lat="50.12547" lon="4.15027">
        <ele>198.4</ele>
        <time>2024-03-19T06:27:24Z</time>
      </trkpt>
      <trkpt lat="50.12547" lon="4.15022">
        <ele>198.4</ele>
        <time>2024-03-19T06:27:25Z</time>
      </trkpt>
      <trkpt lat="50.12548" lon="4.15018">
        <ele>198.6</ele>
        <time>2024-03-19T06:27:26Z</time>
      </trkpt>
      <trkpt lat="50.12548" lon="4.15013">
        <ele>199</ele>
        <time>2024-03-19T06:27:27Z</time>
      </trkpt>
      <trkpt lat="50.12548" lon="4.15009">
        <ele>199.4</ele>
        <time>2024-03-19T06:27:28Z</time>
      </trkpt>
      <trkpt lat="50.12548" lon="4.15004">
        <ele>199.4</ele>
        <time>2024-03-19T06:27:29Z</time>
      </trkpt>
      <trkpt lat="50.12548" lon="4.14999">
        <ele>199.8</ele>
        <time>2024-03-19T06:27:30Z</time>
      </trkpt>
      <trkpt lat="50.12548" lon="4.14995">
        <ele>200</ele>
        <time>2024-03-19T06:27:31Z</time>
      </trkpt>
      <trkpt lat="50.12548" lon="4.1499">
        <ele>200.2</ele>
        <time>2024-03-19T06:27:32Z</time>
      </trkpt>
      <trkpt lat="50.12548" lon="4.14985">
        <ele>200.6</ele>
        <time>2024-03-19T06:27:33Z</time>
      </trkpt>
      <trkpt lat="50.12548" lon="4.1498">
        <ele>200.8</ele>
        <time>2024-03-19T06:27:34Z</time>
      </trkpt>
      <trkpt lat="50.12548" lon="4.14975">
        <ele>201</ele>
        <time>2024-03-19T06:27:35Z</time>
      </trkpt>
      <trkpt lat="50.12547" lon="4.14971">
        <ele>201.2</ele>
        <time>2024-03-19T06:27:36Z</time>
      </trkpt>
      <trkpt lat="50.12547" lon="4.14966">
        <ele>201.4</ele>
        <time>2024-03-19T06:27:37Z</time>
      </trkpt>
      <trkpt lat="50.12547" lon="4.14961">
        <ele>201.4</ele>
        <time>2024-03-19T06:27:38Z</time>
      </trkpt>
      <trkpt lat="50.12546" lon="4.14957">
        <ele>201.6</ele>
        <time>2024-03-19T06:27:39Z</time>
      </trkpt>
      <trkpt lat="50.12545" lon="4.14952">
        <ele>201.8</ele>
        <time>2024-03-19T06:27:40Z</time>
      </trkpt>
      <trkpt lat="50.12545" lon="4.14947">
        <ele>202.2</ele>
        <time>2024-03-19T06:27:41Z</time>
      </trkpt>
      <trkpt lat="50.12544" lon="4.14943">
        <ele>202.2</ele>
        <time>2024-03-19T06:27:42Z</time>
      </trkpt>
      <trkpt lat="50.12543" lon="4.14938">
        <ele>202.6</ele>
        <time>2024-03-19T06:27:43Z</time>
      </trkpt>
      <trkpt lat="50.12542" lon="4.14934">
        <ele>202.8</ele>
        <time>2024-03-19T06:27:44Z</time>
      </trkpt>
      <trkpt lat="50.12541" lon="4.14929">
        <ele>202.8</ele>
        <time>2024-03-19T06:27:45Z</time>
      </trkpt>
      <trkpt lat="50.1254" lon="4.14925">
        <ele>203</ele>
        <time>2024-03-19T06:27:46Z</time>
      </trkpt>
      <trkpt lat="50.1254" lon="4.1492">
        <ele>203.4</ele>
        <time>2024-03-19T06:27:47Z</time>
      </trkpt>
      <trkpt lat="50.12539" lon="4.14915">
        <ele>203.6</ele>
        <time>2024-03-19T06:27:48Z</time>
      </trkpt>
      <trkpt lat="50.12538" lon="4.1491">
        <ele>203.8</ele>
        <time>2024-03-19T06:27:49Z</time>
      </trkpt>
      <trkpt lat="50.12537" lon="4.14905">
        <ele>204.2</ele>
        <time>2024-03-19T06:27:50Z</time>
      </trkpt>
      <trkpt lat="50.12536" lon="4.14901">
        <ele>204.4</ele>
        <time>2024-03-19T06:27:51Z</time>
      </trkpt>
      <trkpt lat="50.12535" lon="4.14896">
        <ele>204.6</ele>
        <time>2024-03-19T06:27:52Z</time>
      </trkpt>
      <trkpt lat="50.12534" lon="4.14891">
        <ele>204.8</ele>
        <time>2024-03-19T06:27:53Z</time>
      </trkpt>
      <trkpt lat="50.12533" lon="4.14886">
        <ele>205</ele>
        <time>2024-03-19T06:27:54Z</time>
      </trkpt>
      <trkpt lat="50.12532" lon="4.14882">
        <ele>205</ele>
        <time>2024-03-19T06:27:55Z</time>
      </trkpt>
      <trkpt lat="50.12531" lon="4.14877">
        <ele>205.2</ele>
        <time>2024-03-19T06:27:56Z</time>
      </trkpt>
      <trkpt lat="50.1253" lon="4.14872">
        <ele>205.4</ele>
        <time>2024-03-19T06:27:57Z</time>
      </trkpt>
      <trkpt lat="50.12529" lon="4.14867">
        <ele>205.8</ele>
        <time>2024-03-19T06:27:58Z</time>
      </trkpt>
      <trkpt lat="50.12528" lon="4.14862">
        <ele>206.2</ele>
        <time>2024-03-19T06:27:59Z</time>
      </trkpt>
      <trkpt lat="50.12527" lon="4.14857">
        <ele>206.4</ele>
        <time>2024-03-19T06:28:00Z</time>
      </trkpt>
      <trkpt lat="50.12526" lon="4.14851">
        <ele>206.6</ele>
        <time>2024-03-19T06:28:01Z</time>
      </trkpt>
      <trkpt lat="50.12525" lon="4.14846">
        <ele>206.8</ele>
        <time>2024-03-19T06:28:02Z</time>
      </trkpt>
      <trkpt lat="50.12524" lon="4.14842">
        <ele>207</ele>
        <time>2024-03-19T06:28:03Z</time>
      </trkpt>
      <trkpt lat="50.12522" lon="4.14837">
        <ele>207.2</ele>
        <time>2024-03-19T06:28:04Z</time>
      </trkpt>
      <trkpt lat="50.12521" lon="4.14831">
        <ele>207.4</ele>
        <time>2024-03-19T06:28:05Z</time>
      </trkpt>
      <trkpt lat="50.12521" lon="4.14826">
        <ele>207.4</ele>
        <time>2024-03-19T06:28:06Z</time>
      </trkpt>
      <trkpt lat="50.1252" lon="4.14821">
        <ele>207.6</ele>
        <time>2024-03-19T06:28:07Z</time>
      </trkpt>
      <trkpt lat="50.12519" lon="4.14816">
        <ele>208</ele>
        <time>2024-03-19T06:28:08Z</time>
      </trkpt>
      <trkpt lat="50.12519" lon="4.1481">
        <ele>208.2</ele>
        <time>2024-03-19T06:28:09Z</time>
      </trkpt>
      <trkpt lat="50.12519" lon="4.14805">
        <ele>208.2</ele>
        <time>2024-03-19T06:28:10Z</time>
      </trkpt>
      <trkpt lat="50.12518" lon="4.148">
        <ele>208.2</ele>
        <time>2024-03-19T06:28:11Z</time>
      </trkpt>
      <trkpt lat="50.12518" lon="4.14794">
        <ele>208.4</ele>
        <time>2024-03-19T06:28:12Z</time>
      </trkpt>
      <trkpt lat="50.12518" lon="4.14789">
        <ele>208.8</ele>
        <time>2024-03-19T06:28:13Z</time>
      </trkpt>
      <trkpt lat="50.12518" lon="4.14783">
        <ele>208.8</ele>
        <time>2024-03-19T06:28:14Z</time>
      </trkpt>
      <trkpt lat="50.12518" lon="4.14778">
        <ele>209</ele>
        <time>2024-03-19T06:28:15Z</time>
      </trkpt>
      <trkpt lat="50.12517" lon="4.14773">
        <ele>209.2</ele>
        <time>2024-03-19T06:28:16Z</time>
      </trkpt>
      <trkpt lat="50.12517" lon="4.14768">
        <ele>209.4</ele>
        <time>2024-03-19T06:28:17Z</time>
      </trkpt>
      <trkpt lat="50.12516" lon="4.14763">
        <ele>209.6</ele>
        <time>2024-03-19T06:28:18Z</time>
      </trkpt>
      <trkpt lat="50.12514" lon="4.14759">
        <ele>209.8</ele>
        <time>2024-03-19T06:28:19Z</time>
      </trkpt>
      <trkpt lat="50.12512" lon="4.14755">
        <ele>210</ele>
        <time>2024-03-19T06:28:20Z</time>
      </trkpt>
      <trkpt lat="50.1251" lon="4.14752">
        <ele>210</ele>
        <time>2024-03-19T06:28:21Z</time>
      </trkpt>
      <trkpt lat="50.12507" lon="4.1475">
        <ele>210.2</ele>
        <time>2024-03-19T06:28:22Z</time>
      </trkpt>
      <trkpt lat="50.12503" lon="4.14748">
        <ele>210.4</ele>
        <time>2024-03-19T06:28:23Z</time>
      </trkpt>
      <trkpt lat="50.125" lon="4.14746">
        <ele>210.6</ele>
        <time>2024-03-19T06:28:24Z</time>
      </trkpt>
      <trkpt lat="50.12496" lon="4.14745">
        <ele>211</ele>
        <time>2024-03-19T06:28:25Z</time>
      </trkpt>
      <trkpt lat="50.12491" lon="4.14744">
        <ele>211.2</ele>
        <time>2024-03-19T06:28:26Z</time>
      </trkpt>
      <trkpt lat="50.12487" lon="4.14744">
        <ele>211.6</ele>
        <time>2024-03-19T06:28:27Z</time>
      </trkpt>
      <trkpt lat="50.12482" lon="4.14743">
        <ele>211.6</ele>
        <time>2024-03-19T06:28:28Z</time>
      </trkpt>
      <trkpt lat="50.12477" lon="4.14741">
        <ele>211.6</ele>
        <time>2024-03-19T06:28:29Z</time>
      </trkpt>
      <trkpt lat="50.12472" lon="4.1474">
        <ele>211.8</ele>
        <time>2024-03-19T06:28:30Z</time>
      </trkpt>
      <trkpt lat="50.12468" lon="4.14737">
        <ele>211.8</ele>
        <time>2024-03-19T06:28:31Z</time>
      </trkpt>
      <trkpt lat="50.12464" lon="4.14734">
        <ele>212</ele>
        <time>2024-03-19T06:28:32Z</time>
      </trkpt>
      <trkpt lat="50.12459" lon="4.14731">
        <ele>212.2</ele>
        <time>2024-03-19T06:28:33Z</time>
      </trkpt>
      <trkpt lat="50.12455" lon="4.14727">
        <ele>212.4</ele>
        <time>2024-03-19T06:28:34Z</time>
      </trkpt>
      <trkpt lat="50.12451" lon="4.14724">
        <ele>212.8</ele>
        <time>2024-03-19T06:28:35Z</time>
      </trkpt>
      <trkpt lat="50.12447" lon="4.1472">
        <ele>212.8</ele>
        <time>2024-03-19T06:28:36Z</time>
      </trkpt>
      <trkpt lat="50.12443" lon="4.14716">
        <ele>212.8</ele>
        <time>2024-03-19T06:28:37Z</time>
      </trkpt>
      <trkpt lat="50.12439" lon="4.14712">
        <ele>213</ele>
        <time>2024-03-19T06:28:38Z</time>
      </trkpt>
      <trkpt lat="50.12435" lon="4.14707">
        <ele>213</ele>
        <time>2024-03-19T06:28:39Z</time>
      </trkpt>
      <trkpt lat="50.12432" lon="4.14703">
        <ele>213</ele>
        <time>2024-03-19T06:28:40Z</time>
      </trkpt>
      <trkpt lat="50.12428" lon="4.14698">
        <ele>213.2</ele>
        <time>2024-03-19T06:28:41Z</time>
      </trkpt>
      <trkpt lat="50.12424" lon="4.14693">
        <ele>213.4</ele>
        <time>2024-03-19T06:28:42Z</time>
      </trkpt>
      <trkpt lat="50.12421" lon="4.14687">
        <ele>213.6</ele>
        <time>2024-03-19T06:28:43Z</time>
      </trkpt>
      <trkpt lat="50.12417" lon="4.14681">
        <ele>213.6</ele>
        <time>2024-03-19T06:28:44Z</time>
      </trkpt>
      <trkpt lat="50.12413" lon="4.14675">
        <ele>213.6</ele>
        <time>2024-03-19T06:28:45Z</time>
      </trkpt>
      <trkpt lat="50.1241" lon="4.14669">
        <ele>213.8</ele>
        <time>2024-03-19T06:28:46Z</time>
      </trkpt>
      <trkpt lat="50.12407" lon="4.14663">
        <ele>214</ele>
        <time>2024-03-19T06:28:47Z</time>
      </trkpt>
      <trkpt lat="50.12404" lon="4.14657">
        <ele>214</ele>
        <time>2024-03-19T06:28:48Z</time>
      </trkpt>
      <trkpt lat="50.12401" lon="4.14651">
        <ele>214</ele>
        <time>2024-03-19T06:28:49Z</time>
      </trkpt>
      <trkpt lat="50.12398" lon="4.14644">
        <ele>213.8</ele>
        <time>2024-03-19T06:28:50Z</time>
      </trkpt>
      <trkpt lat="50.12395" lon="4.14638">
        <ele>213.8</ele>
        <time>2024-03-19T06:28:51Z</time>
      </trkpt>
      <trkpt lat="50.12392" lon="4.14631">
        <ele>214</ele>
        <time>2024-03-19T06:28:52Z</time>
      </trkpt>
      <trkpt lat="50.12388" lon="4.14624">
        <ele>214</ele>
        <time>2024-03-19T06:28:53Z</time>
      </trkpt>
      <trkpt lat="50.12385" lon="4.14617">
        <ele>214</ele>
        <time>2024-03-19T06:28:54Z</time>
      </trkpt>
      <trkpt lat="50.12382" lon="4.1461">
        <ele>213.8</ele>
        <time>2024-03-19T06:28:55Z</time>
      </trkpt>
      <trkpt lat="50.12378" lon="4.14602">
        <ele>213.8</ele>
        <time>2024-03-19T06:28:56Z</time>
      </trkpt>
      <trkpt lat="50.12375" lon="4.14594">
        <ele>213.8</ele>
        <time>2024-03-19T06:28:57Z</time>
      </trkpt>
      <trkpt lat="50.12371" lon="4.14586">
        <ele>213.6</ele>
        <time>2024-03-19T06:28:58Z</time>
      </trkpt>
      <trkpt lat="50.12367" lon="4.14578">
        <ele>213.6</ele>
        <time>2024-03-19T06:28:59Z</time>
      </trkpt>
      <trkpt lat="50.12363" lon="4.1457">
        <ele>213.6</ele>
        <time>2024-03-19T06:29:00Z</time>
      </trkpt>
      <trkpt lat="50.12359" lon="4.14561">
        <ele>213.4</ele>
        <time>2024-03-19T06:29:01Z</time>
      </trkpt>
      <trkpt lat="50.12354" lon="4.14552">
        <ele>213.4</ele>
        <time>2024-03-19T06:29:02Z</time>
      </trkpt>
      <trkpt lat="50.1235" lon="4.14542">
        <ele>213.4</ele>
        <time>2024-03-19T06:29:03Z</time>
      </trkpt>
      <trkpt lat="50.12346" lon="4.14533">
        <ele>213.4</ele>
        <time>2024-03-19T06:29:04Z</time>
      </trkpt>
      <trkpt lat="50.12341" lon="4.14523">
        <ele>213.2</ele>
        <time>2024-03-19T06:29:05Z</time>
      </trkpt>
      <trkpt lat="50.12336" lon="4.14513">
        <ele>213.2</ele>
        <time>2024-03-19T06:29:06Z</time>
      </trkpt>
      <trkpt lat="50.12331" lon="4.14503">
        <ele>213.2</ele>
        <time>2024-03-19T06:29:07Z</time>
      </trkpt>
      <trkpt lat="50.12326" lon="4.14492">
        <ele>213</ele>
        <time>2024-03-19T06:29:08Z</time>
      </trkpt>
      <trkpt lat="50.12321" lon="4.14481">
        <ele>212.6</ele>
        <time>2024-03-19T06:29:09Z</time>
      </trkpt>
      <trkpt lat="50.12316" lon="4.1447">
        <ele>212.4</ele>
        <time>2024-03-19T06:29:10Z</time>
      </trkpt>
      <trkpt lat="50.12311" lon="4.14458">
        <ele>212.4</ele>
        <time>2024-03-19T06:29:11Z</time>
      </trkpt>
      <trkpt lat="50.12306" lon="4.14446">
        <ele>212</ele>
        <time>2024-03-19T06:29:12Z</time>
      </trkpt>
      <trkpt lat="50.123" lon="4.14434">
        <ele>211.4</ele>
        <time>2024-03-19T06:29:13Z</time>
      </trkpt>
      <trkpt lat="50.12295" lon="4.14423">
        <ele>211.2</ele>
        <time>2024-03-19T06:29:14Z</time>
      </trkpt>
      <trkpt lat="50.1229" lon="4.14411">
        <ele>210.6</ele>
        <time>2024-03-19T06:29:15Z</time>
      </trkpt>
      <trkpt lat="50.12284" lon="4.144">
        <ele>210.6</ele>
        <time>2024-03-19T06:29:16Z</time>
      </trkpt>
      <trkpt lat="50.12279" lon="4.14389">
        <ele>210</ele>
        <time>2024-03-19T06:29:17Z</time>
      </trkpt>
      <trkpt lat="50.12274" lon="4.14378">
        <ele>209.4</ele>
        <time>2024-03-19T06:29:18Z</time>
      </trkpt>
      <trkpt lat="50.12269" lon="4.14368">
        <ele>208.6</ele>
        <time>2024-03-19T06:29:19Z</time>
      </trkpt>
      <trkpt lat="50.12265" lon="4.14357">
        <ele>208.2</ele>
        <time>2024-03-19T06:29:20Z</time>
      </trkpt>
      <trkpt lat="50.1226" lon="4.14348">
        <ele>207.6</ele>
        <time>2024-03-19T06:29:21Z</time>
      </trkpt>
      <trkpt lat="50.12256" lon="4.14339">
        <ele>206.8</ele>
        <time>2024-03-19T06:29:22Z</time>
      </trkpt>
      <trkpt lat="50.12252" lon="4.1433">
        <ele>206.6</ele>
        <time>2024-03-19T06:29:23Z</time>
      </trkpt>
      <trkpt lat="50.12248" lon="4.14322">
        <ele>206.4</ele>
        <time>2024-03-19T06:29:24Z</time>
      </trkpt>
      <trkpt lat="50.12244" lon="4.14314">
        <ele>206.4</ele>
        <time>2024-03-19T06:29:25Z</time>
      </trkpt>
      <trkpt lat="50.12241" lon="4.14306">
        <ele>206.4</ele>
        <time>2024-03-19T06:29:26Z</time>
      </trkpt>
      <trkpt lat="50.12237" lon="4.14298">
        <ele>206.4</ele>
        <time>2024-03-19T06:29:27Z</time>
      </trkpt>
      <trkpt lat="50.12234" lon="4.14291">
        <ele>206.2</ele>
        <time>2024-03-19T06:29:28Z</time>
      </trkpt>
      <trkpt lat="50.1223" lon="4.14283">
        <ele>206.4</ele>
        <time>2024-03-19T06:29:29Z</time>
      </trkpt>
      <trkpt lat="50.12227" lon="4.14276">
        <ele>206.4</ele>
        <time>2024-03-19T06:29:30Z</time>
      </trkpt>
      <trkpt lat="50.12224" lon="4.14269">
        <ele>206.4</ele>
        <time>2024-03-19T06:29:31Z</time>
      </trkpt>
      <trkpt lat="50.12221" lon="4.14263">
        <ele>206.4</ele>
        <time>2024-03-19T06:29:32Z</time>
      </trkpt>
      <trkpt lat="50.12218" lon="4.14257">
        <ele>206.6</ele>
        <time>2024-03-19T06:29:33Z</time>
      </trkpt>
      <trkpt lat="50.12215" lon="4.14251">
        <ele>207</ele>
        <time>2024-03-19T06:29:34Z</time>
      </trkpt>
      <trkpt lat="50.12213" lon="4.14246">
        <ele>207.4</ele>
        <time>2024-03-19T06:29:35Z</time>
      </trkpt>
      <trkpt lat="50.1221" lon="4.1424">
        <ele>207.6</ele>
        <time>2024-03-19T06:29:36Z</time>
      </trkpt>
      <trkpt lat="50.12208" lon="4.14235">
        <ele>207.8</ele>
        <time>2024-03-19T06:29:37Z</time>
      </trkpt>
      <trkpt lat="50.12205" lon="4.1423">
        <ele>208</ele>
        <time>2024-03-19T06:29:38Z</time>
      </trkpt>
      <trkpt lat="50.12202" lon="4.14225">
        <ele>208</ele>
        <time>2024-03-19T06:29:39Z</time>
      </trkpt>
      <trkpt lat="50.122" lon="4.1422">
        <ele>208.6</ele>
        <time>2024-03-19T06:29:40Z</time>
      </trkpt>
      <trkpt lat="50.12197" lon="4.14215">
        <ele>209</ele>
        <time>2024-03-19T06:29:41Z</time>
      </trkpt>
      <trkpt lat="50.12195" lon="4.14209">
        <ele>209.4</ele>
        <time>2024-03-19T06:29:42Z</time>
      </trkpt>
      <trkpt lat="50.12192" lon="4.14204">
        <ele>209.8</ele>
        <time>2024-03-19T06:29:43Z</time>
      </trkpt>
      <trkpt lat="50.1219" lon="4.14198">
        <ele>210.2</ele>
        <time>2024-03-19T06:29:44Z</time>
      </trkpt>
      <trkpt lat="50.12187" lon="4.14191">
        <ele>210.8</ele>
        <time>2024-03-19T06:29:45Z</time>
      </trkpt>
      <trkpt lat="50.12184" lon="4.14186">
        <ele>211.6</ele>
        <time>2024-03-19T06:29:46Z</time>
      </trkpt>
      <trkpt lat="50.12182" lon="4.1418">
        <ele>212</ele>
        <time>2024-03-19T06:29:47Z</time>
      </trkpt>
      <trkpt lat="50.12179" lon="4.14174">
        <ele>212</ele>
        <time>2024-03-19T06:29:48Z</time>
      </trkpt>
      <trkpt lat="50.12177" lon="4.14168">
        <ele>212.4</ele>
        <time>2024-03-19T06:29:49Z</time>
      </trkpt>
      <trkpt lat="50.12174" lon="4.14162">
        <ele>212.6</ele>
        <time>2024-03-19T06:29:50Z</time>
      </trkpt>
      <trkpt lat="50.12172" lon="4.14156">
        <ele>213.4</ele>
        <time>2024-03-19T06:29:51Z</time>
      </trkpt>
      <trkpt lat="50.1217" lon="4.14149">
        <ele>214.2</ele>
        <time>2024-03-19T06:29:52Z</time>
      </trkpt>
      <trkpt lat="50.12167" lon="4.14142">
        <ele>214.6</ele>
        <time>2024-03-19T06:29:53Z</time>
      </trkpt>
      <trkpt lat="50.12165" lon="4.14136">
        <ele>215</ele>
        <time>2024-03-19T06:29:54Z</time>
      </trkpt>
      <trkpt lat="50.12163" lon="4.14129">
        <ele>215.2</ele>
        <time>2024-03-19T06:29:55Z</time>
      </trkpt>
      <trkpt lat="50.12161" lon="4.14122">
        <ele>215.4</ele>
        <time>2024-03-19T06:29:56Z</time>
      </trkpt>
      <trkpt lat="50.12159" lon="4.14116">
        <ele>215.6</ele>
        <time>2024-03-19T06:29:57Z</time>
      </trkpt>
      <trkpt lat="50.12157" lon="4.1411">
        <ele>215.8</ele>
        <time>2024-03-19T06:29:58Z</time>
      </trkpt>
      <trkpt lat="50.12156" lon="4.14104">
        <ele>216.2</ele>
        <time>2024-03-19T06:29:59Z</time>
      </trkpt>
      <trkpt lat="50.12154" lon="4.14098">
        <ele>216.6</ele>
        <time>2024-03-19T06:30:00Z</time>
      </trkpt>
      <trkpt lat="50.12153" lon="4.14091">
        <ele>216.8</ele>
        <time>2024-03-19T06:30:01Z</time>
      </trkpt>
      <trkpt lat="50.12152" lon="4.14085">
        <ele>217.2</ele>
        <time>2024-03-19T06:30:02Z</time>
      </trkpt>
      <trkpt lat="50.12151" lon="4.14078">
        <ele>217.4</ele>
        <time>2024-03-19T06:30:03Z</time>
      </trkpt>
      <trkpt lat="50.1215" lon="4.14071">
        <ele>217.4</ele>
        <time>2024-03-19T06:30:04Z</time>
      </trkpt>
      <trkpt lat="50.12149" lon="4.14064">
        <ele>217.4</ele>
        <time>2024-03-19T06:30:05Z</time>
      </trkpt>
      <trkpt lat="50.12148" lon="4.14056">
        <ele>217.4</ele>
        <time>2024-03-19T06:30:06Z</time>
      </trkpt>
      <trkpt lat="50.12147" lon="4.14048">
        <ele>217.4</ele>
        <time>2024-03-19T06:30:07Z</time>
      </trkpt>
      <trkpt lat="50.12146" lon="4.1404">
        <ele>217.6</ele>
        <time>2024-03-19T06:30:08Z</time>
      </trkpt>
      <trkpt lat="50.12145" lon="4.14031">
        <ele>217.4</ele>
        <time>2024-03-19T06:30:09Z</time>
      </trkpt>
      <trkpt lat="50.12144" lon="4.14022">
        <ele>217.4</ele>
        <time>2024-03-19T06:30:10Z</time>
      </trkpt>
      <trkpt lat="50.12144" lon="4.14012">
        <ele>217.4</ele>
        <time>2024-03-19T06:30:11Z</time>
      </trkpt>
      <trkpt lat="50.12143" lon="4.14002">
        <ele>217.4</ele>
        <time>2024-03-19T06:30:12Z</time>
      </trkpt>
      <trkpt lat="50.12142" lon="4.13991">
        <ele>217.4</ele>
        <time>2024-03-19T06:30:13Z</time>
      </trkpt>
      <trkpt lat="50.12142" lon="4.1398">
        <ele>217.4</ele>
        <time>2024-03-19T06:30:14Z</time>
      </trkpt>
      <trkpt lat="50.12142" lon="4.13969">
        <ele>217.4</ele>
        <time>2024-03-19T06:30:15Z</time>
      </trkpt>
      <trkpt lat="50.12143" lon="4.13957">
        <ele>217.2</ele>
        <time>2024-03-19T06:30:16Z</time>
      </trkpt>
      <trkpt lat="50.12144" lon="4.13945">
        <ele>217.2</ele>
        <time>2024-03-19T06:30:17Z</time>
      </trkpt>
      <trkpt lat="50.12145" lon="4.13932">
        <ele>217</ele>
        <time>2024-03-19T06:30:18Z</time>
      </trkpt>
      <trkpt lat="50.12146" lon="4.13919">
        <ele>216.8</ele>
        <time>2024-03-19T06:30:19Z</time>
      </trkpt>
      <trkpt lat="50.12149" lon="4.13905">
        <ele>216.4</ele>
        <time>2024-03-19T06:30:20Z</time>
      </trkpt>
      <trkpt lat="50.12152" lon="4.13891">
        <ele>216.4</ele>
        <time>2024-03-19T06:30:21Z</time>
      </trkpt>
      <trkpt lat="50.12155" lon="4.13875">
        <ele>215.8</ele>
        <time>2024-03-19T06:30:22Z</time>
      </trkpt>
      <trkpt lat="50.12159" lon="4.13859">
        <ele>215.6</ele>
        <time>2024-03-19T06:30:23Z</time>
      </trkpt>
      <trkpt lat="50.12163" lon="4.13843">
        <ele>215</ele>
        <time>2024-03-19T06:30:24Z</time>
      </trkpt>
      <trkpt lat="50.12168" lon="4.13826">
        <ele>214.4</ele>
        <time>2024-03-19T06:30:25Z</time>
      </trkpt>
      <trkpt lat="50.12174" lon="4.1381">
        <ele>213.4</ele>
        <time>2024-03-19T06:30:26Z</time>
      </trkpt>
      <trkpt lat="50.12181" lon="4.13793">
        <ele>213</ele>
        <time>2024-03-19T06:30:27Z</time>
      </trkpt>
      <trkpt lat="50.12189" lon="4.13777">
        <ele>212.4</ele>
        <time>2024-03-19T06:30:28Z</time>
      </trkpt>
      <trkpt lat="50.12197" lon="4.1376">
        <ele>211.4</ele>
        <time>2024-03-19T06:30:29Z</time>
      </trkpt>
      <trkpt lat="50.12205" lon="4.13743">
        <ele>210.4</ele>
        <time>2024-03-19T06:30:30Z</time>
      </trkpt>
      <trkpt lat="50.12213" lon="4.13725">
        <ele>208.8</ele>
        <time>2024-03-19T06:30:31Z</time>
      </trkpt>
      <trkpt lat="50.12221" lon="4.13707">
        <ele>207.4</ele>
        <time>2024-03-19T06:30:32Z</time>
      </trkpt>
      <trkpt lat="50.1223" lon="4.13689">
        <ele>206.2</ele>
        <time>2024-03-19T06:30:33Z</time>
      </trkpt>
      <trkpt lat="50.12238" lon="4.13671">
        <ele>205.2</ele>
        <time>2024-03-19T06:30:34Z</time>
      </trkpt>
      <trkpt lat="50.12246" lon="4.13654">
        <ele>203.6</ele>
        <time>2024-03-19T06:30:35Z</time>
      </trkpt>
      <trkpt lat="50.12253" lon="4.13637">
        <ele>201.6</ele>
        <time>2024-03-19T06:30:36Z</time>
      </trkpt>
      <trkpt lat="50.12261" lon="4.13621">
        <ele>201.6</ele>
        <time>2024-03-19T06:30:37Z</time>
      </trkpt>
      <trkpt lat="50.12268" lon="4.13606">
        <ele>199.8</ele>
        <time>2024-03-19T06:30:38Z</time>
      </trkpt>
      <trkpt lat="50.12275" lon="4.13592">
        <ele>198.4</ele>
        <time>2024-03-19T06:30:39Z</time>
      </trkpt>
      <trkpt lat="50.12282" lon="4.13578">
        <ele>197.2</ele>
        <time>2024-03-19T06:30:40Z</time>
      </trkpt>
      <trkpt lat="50.12288" lon="4.13565">
        <ele>196.2</ele>
        <time>2024-03-19T06:30:41Z</time>
      </trkpt>
      <trkpt lat="50.12294" lon="4.13553">
        <ele>195.6</ele>
        <time>2024-03-19T06:30:42Z</time>
      </trkpt>
      <trkpt lat="50.12299" lon="4.13542">
        <ele>195.2</ele>
        <time>2024-03-19T06:30:43Z</time>
      </trkpt>
      <trkpt lat="50.12304" lon="4.13532">
        <ele>195</ele>
        <time>2024-03-19T06:30:44Z</time>
      </trkpt>
      <trkpt lat="50.12309" lon="4.13522">
        <ele>194.8</ele>
        <time>2024-03-19T06:30:45Z</time>
      </trkpt>
      <trkpt lat="50.12313" lon="4.13513">
        <ele>194.8</ele>
        <time>2024-03-19T06:30:46Z</time>
      </trkpt>
      <trkpt lat="50.12317" lon="4.13504">
        <ele>194.8</ele>
        <time>2024-03-19T06:30:47Z</time>
      </trkpt>
      <trkpt lat="50.1232" lon="4.13496">
        <ele>194.8</ele>
        <time>2024-03-19T06:30:48Z</time>
      </trkpt>
      <trkpt lat="50.12323" lon="4.13488">
        <ele>194.8</ele>
        <time>2024-03-19T06:30:49Z</time>
      </trkpt>
      <trkpt lat="50.12326" lon="4.13481">
        <ele>194.8</ele>
        <time>2024-03-19T06:30:50Z</time>
      </trkpt>
      <trkpt lat="50.12329" lon="4.13475">
        <ele>194.8</ele>
        <time>2024-03-19T06:30:51Z</time>
      </trkpt>
      <trkpt lat="50.12332" lon="4.13469">
        <ele>195.4</ele>
        <time>2024-03-19T06:30:52Z</time>
      </trkpt>
      <trkpt lat="50.12334" lon="4.13463">
        <ele>195.4</ele>
        <time>2024-03-19T06:30:53Z</time>
      </trkpt>
      <trkpt lat="50.12336" lon="4.13458">
        <ele>196</ele>
        <time>2024-03-19T06:30:54Z</time>
      </trkpt>
      <trkpt lat="50.12338" lon="4.13453">
        <ele>196.6</ele>
        <time>2024-03-19T06:30:55Z</time>
      </trkpt>
      <trkpt lat="50.12341" lon="4.13448">
        <ele>197.4</ele>
        <time>2024-03-19T06:30:56Z</time>
      </trkpt>
      <trkpt lat="50.12343" lon="4.13444">
        <ele>198.2</ele>
        <time>2024-03-19T06:30:57Z</time>
      </trkpt>
      <trkpt lat="50.12345" lon="4.13439">
        <ele>198.8</ele>
        <time>2024-03-19T06:30:58Z</time>
      </trkpt>
      <trkpt lat="50.12347" lon="4.13435">
        <ele>199.6</ele>
        <time>2024-03-19T06:30:59Z</time>
      </trkpt>
      <trkpt lat="50.12349" lon="4.13431">
        <ele>200.6</ele>
        <time>2024-03-19T06:31:00Z</time>
      </trkpt>
      <trkpt lat="50.12351" lon="4.13427">
        <ele>201.8</ele>
        <time>2024-03-19T06:31:01Z</time>
      </trkpt>
      <trkpt lat="50.12353" lon="4.13422">
        <ele>202.6</ele>
        <time>2024-03-19T06:31:02Z</time>
      </trkpt>
      <trkpt lat="50.12355" lon="4.13417">
        <ele>203</ele>
        <time>2024-03-19T06:31:03Z</time>
      </trkpt>
      <trkpt lat="50.12357" lon="4.13413">
        <ele>203.6</ele>
        <time>2024-03-19T06:31:04Z</time>
      </trkpt>
      <trkpt lat="50.12358" lon="4.13407">
        <ele>204.2</ele>
        <time>2024-03-19T06:31:05Z</time>
      </trkpt>
      <trkpt lat="50.1236" lon="4.13402">
        <ele>204.6</ele>
        <time>2024-03-19T06:31:06Z</time>
      </trkpt>
      <trkpt lat="50.12361" lon="4.13396">
        <ele>205</ele>
        <time>2024-03-19T06:31:07Z</time>
      </trkpt>
      <trkpt lat="50.12363" lon="4.13391">
        <ele>205.6</ele>
        <time>2024-03-19T06:31:08Z</time>
      </trkpt>
      <trkpt lat="50.12365" lon="4.13385">
        <ele>205.6</ele>
        <time>2024-03-19T06:31:09Z</time>
      </trkpt>
      <trkpt lat="50.12366" lon="4.13379">
        <ele>206</ele>
        <time>2024-03-19T06:31:10Z</time>
      </trkpt>
      <trkpt lat="50.12368" lon="4.13374">
        <ele>206.4</ele>
        <time>2024-03-19T06:31:11Z</time>
      </trkpt>
      <trkpt lat="50.1237" lon="4.13368">
        <ele>206.8</ele>
        <time>2024-03-19T06:31:12Z</time>
      </trkpt>
      <trkpt lat="50.12372" lon="4.13363">
        <ele>207.2</ele>
        <time>2024-03-19T06:31:13Z</time>
      </trkpt>
      <trkpt lat="50.12374" lon="4.13357">
        <ele>207.6</ele>
        <time>2024-03-19T06:31:14Z</time>
      </trkpt>
      <trkpt lat="50.12375" lon="4.13351">
        <ele>208</ele>
        <time>2024-03-19T06:31:15Z</time>
      </trkpt>
      <trkpt lat="50.12377" lon="4.13345">
        <ele>208.4</ele>
        <time>2024-03-19T06:31:16Z</time>
      </trkpt>
      <trkpt lat="50.12378" lon="4.13339">
        <ele>208.8</ele>
        <time>2024-03-19T06:31:17Z</time>
      </trkpt>
      <trkpt lat="50.1238" lon="4.13332">
        <ele>209.2</ele>
        <time>2024-03-19T06:31:18Z</time>
      </trkpt>
      <trkpt lat="50.12382" lon="4.13326">
        <ele>209.4</ele>
        <time>2024-03-19T06:31:19Z</time>
      </trkpt>
      <trkpt lat="50.12384" lon="4.1332">
        <ele>209.8</ele>
        <time>2024-03-19T06:31:20Z</time>
      </trkpt>
      <trkpt lat="50.12386" lon="4.13313">
        <ele>210.2</ele>
        <time>2024-03-19T06:31:21Z</time>
      </trkpt>
      <trkpt lat="50.12387" lon="4.13307">
        <ele>210.6</ele>
        <time>2024-03-19T06:31:22Z</time>
      </trkpt>
      <trkpt lat="50.12389" lon="4.13301">
        <ele>210.6</ele>
        <time>2024-03-19T06:31:23Z</time>
      </trkpt>
      <trkpt lat="50.12391" lon="4.13295">
        <ele>211</ele>
        <time>2024-03-19T06:31:24Z</time>
      </trkpt>
      <trkpt lat="50.12393" lon="4.13288">
        <ele>211.2</ele>
        <time>2024-03-19T06:31:25Z</time>
      </trkpt>
      <trkpt lat="50.12395" lon="4.13281">
        <ele>211.2</ele>
        <time>2024-03-19T06:31:26Z</time>
      </trkpt>
      <trkpt lat="50.12396" lon="4.13275">
        <ele>211.2</ele>
        <time>2024-03-19T06:31:27Z</time>
      </trkpt>
      <trkpt lat="50.12398" lon="4.13269">
        <ele>211.4</ele>
        <time>2024-03-19T06:31:28Z</time>
      </trkpt>
      <trkpt lat="50.124" lon="4.13262">
        <ele>211.8</ele>
        <time>2024-03-19T06:31:29Z</time>
      </trkpt>
      <trkpt lat="50.12402" lon="4.13255">
        <ele>211.8</ele>
        <time>2024-03-19T06:31:30Z</time>
      </trkpt>
      <trkpt lat="50.12404" lon="4.13248">
        <ele>212.2</ele>
        <time>2024-03-19T06:31:31Z</time>
      </trkpt>
      <trkpt lat="50.12406" lon="4.13241">
        <ele>212.6</ele>
        <time>2024-03-19T06:31:32Z</time>
      </trkpt>
      <trkpt lat="50.12408" lon="4.13234">
        <ele>212.6</ele>
        <time>2024-03-19T06:31:33Z</time>
      </trkpt>
      <trkpt lat="50.12411" lon="4.13227">
        <ele>212.6</ele>
        <time>2024-03-19T06:31:34Z</time>
      </trkpt>
      <trkpt lat="50.12413" lon="4.13219">
        <ele>213</ele>
        <time>2024-03-19T06:31:35Z</time>
      </trkpt>
      <trkpt lat="50.12415" lon="4.13212">
        <ele>213</ele>
        <time>2024-03-19T06:31:36Z</time>
      </trkpt>
      <trkpt lat="50.12417" lon="4.13205">
        <ele>213.2</ele>
        <time>2024-03-19T06:31:37Z</time>
      </trkpt>
      <trkpt lat="50.1242" lon="4.13197">
        <ele>213.4</ele>
        <time>2024-03-19T06:31:38Z</time>
      </trkpt>
      <trkpt lat="50.12422" lon="4.13189">
        <ele>213.4</ele>
        <time>2024-03-19T06:31:39Z</time>
      </trkpt>
      <trkpt lat="50.12424" lon="4.13181">
        <ele>213.6</ele>
        <time>2024-03-19T06:31:40Z</time>
      </trkpt>
      <trkpt lat="50.12426" lon="4.13173">
        <ele>213.6</ele>
        <time>2024-03-19T06:31:41Z</time>
      </trkpt>
      <trkpt lat="50.12429" lon="4.13164">
        <ele>213.6</ele>
        <time>2024-03-19T06:31:42Z</time>
      </trkpt>
      <trkpt lat="50.12431" lon="4.13156">
        <ele>213.6</ele>
        <time>2024-03-19T06:31:43Z</time>
      </trkpt>
      <trkpt lat="50.12434" lon="4.13147">
        <ele>213.6</ele>
        <time>2024-03-19T06:31:44Z</time>
      </trkpt>
      <trkpt lat="50.12436" lon="4.13137">
        <ele>213.6</ele>
        <time>2024-03-19T06:31:45Z</time>
      </trkpt>
      <trkpt lat="50.12439" lon="4.13127">
        <ele>213.6</ele>
        <time>2024-03-19T06:31:46Z</time>
      </trkpt>
      <trkpt lat="50.12441" lon="4.13117">
        <ele>213.6</ele>
        <time>2024-03-19T06:31:47Z</time>
      </trkpt>
      <trkpt lat="50.12444" lon="4.13106">
        <ele>213.6</ele>
        <time>2024-03-19T06:31:48Z</time>
      </trkpt>
      <trkpt lat="50.12446" lon="4.13095">
        <ele>213.6</ele>
        <time>2024-03-19T06:31:49Z</time>
      </trkpt>
      <trkpt lat="50.12448" lon="4.13083">
        <ele>213.4</ele>
        <time>2024-03-19T06:31:50Z</time>
      </trkpt>
      <trkpt lat="50.1245" lon="4.13071">
        <ele>213.4</ele>
        <time>2024-03-19T06:31:51Z</time>
      </trkpt>
      <trkpt lat="50.12452" lon="4.13058">
        <ele>213.2</ele>
        <time>2024-03-19T06:31:52Z</time>
      </trkpt>
      <trkpt lat="50.12454" lon="4.13044">
        <ele>212.8</ele>
        <time>2024-03-19T06:31:53Z</time>
      </trkpt>
      <trkpt lat="50.12457" lon="4.1303">
        <ele>212.8</ele>
        <time>2024-03-19T06:31:54Z</time>
      </trkpt>
      <trkpt lat="50.12459" lon="4.13015">
        <ele>212.6</ele>
        <time>2024-03-19T06:31:55Z</time>
      </trkpt>
      <trkpt lat="50.12461" lon="4.13">
        <ele>212.4</ele>
        <time>2024-03-19T06:31:56Z</time>
      </trkpt>
      <trkpt lat="50.12464" lon="4.12983">
        <ele>211.8</ele>
        <time>2024-03-19T06:31:57Z</time>
      </trkpt>
      <trkpt lat="50.12466" lon="4.12966">
        <ele>211.4</ele>
        <time>2024-03-19T06:31:58Z</time>
      </trkpt>
      <trkpt lat="50.12469" lon="4.12948">
        <ele>211.4</ele>
        <time>2024-03-19T06:31:59Z</time>
      </trkpt>
      <trkpt lat="50.12471" lon="4.12929">
        <ele>210.8</ele>
        <time>2024-03-19T06:32:00Z</time>
      </trkpt>
      <trkpt lat="50.12474" lon="4.1291">
        <ele>210.4</ele>
        <time>2024-03-19T06:32:01Z</time>
      </trkpt>
      <trkpt lat="50.12476" lon="4.12891">
        <ele>209.4</ele>
        <time>2024-03-19T06:32:02Z</time>
      </trkpt>
      <trkpt lat="50.12479" lon="4.12871">
        <ele>208.6</ele>
        <time>2024-03-19T06:32:03Z</time>
      </trkpt>
      <trkpt lat="50.1248" lon="4.1285">
        <ele>207.8</ele>
        <time>2024-03-19T06:32:04Z</time>
      </trkpt>
      <trkpt lat="50.12481" lon="4.12828">
        <ele>206.8</ele>
        <time>2024-03-19T06:32:05Z</time>
      </trkpt>
      <trkpt lat="50.1248" lon="4.12807">
        <ele>205.6</ele>
        <time>2024-03-19T06:32:06Z</time>
      </trkpt>
      <trkpt lat="50.12479" lon="4.12786">
        <ele>204.4</ele>
        <time>2024-03-19T06:32:07Z</time>
      </trkpt>
      <trkpt lat="50.12476" lon="4.12765">
        <ele>203.4</ele>
        <time>2024-03-19T06:32:08Z</time>
      </trkpt>
      <trkpt lat="50.12472" lon="4.12745">
        <ele>201.6</ele>
        <time>2024-03-19T06:32:09Z</time>
      </trkpt>
      <trkpt lat="50.12468" lon="4.12726">
        <ele>199.8</ele>
        <time>2024-03-19T06:32:10Z</time>
      </trkpt>
      <trkpt lat="50.12463" lon="4.12708">
        <ele>197.6</ele>
        <time>2024-03-19T06:32:11Z</time>
      </trkpt>
      <trkpt lat="50.12457" lon="4.1269">
        <ele>196</ele>
        <time>2024-03-19T06:32:12Z</time>
      </trkpt>
      <trkpt lat="50.12451" lon="4.12674">
        <ele>194.4</ele>
        <time>2024-03-19T06:32:13Z</time>
      </trkpt>
      <trkpt lat="50.12445" lon="4.12659">
        <ele>193</ele>
        <time>2024-03-19T06:32:14Z</time>
      </trkpt>
      <trkpt lat="50.12438" lon="4.12645">
        <ele>191.6</ele>
        <time>2024-03-19T06:32:15Z</time>
      </trkpt>
      <trkpt lat="50.12431" lon="4.12633">
        <ele>191.6</ele>
        <time>2024-03-19T06:32:16Z</time>
      </trkpt>
      <trkpt lat="50.12424" lon="4.12622">
        <ele>191</ele>
        <time>2024-03-19T06:32:17Z</time>
      </trkpt>
      <trkpt lat="50.12418" lon="4.12612">
        <ele>190.8</ele>
        <time>2024-03-19T06:32:18Z</time>
      </trkpt>
      <trkpt lat="50.12412" lon="4.12601">
        <ele>190.4</ele>
        <time>2024-03-19T06:32:19Z</time>
      </trkpt>
      <trkpt lat="50.12408" lon="4.12589">
        <ele>190.6</ele>
        <time>2024-03-19T06:32:20Z</time>
      </trkpt>
      <trkpt lat="50.12404" lon="4.12577">
        <ele>190.6</ele>
        <time>2024-03-19T06:32:21Z</time>
      </trkpt>
      <trkpt lat="50.12401" lon="4.12566">
        <ele>190.6</ele>
        <time>2024-03-19T06:32:22Z</time>
      </trkpt>
      <trkpt lat="50.12398" lon="4.12555">
        <ele>190.4</ele>
        <time>2024-03-19T06:32:23Z</time>
      </trkpt>
      <trkpt lat="50.12395" lon="4.12544">
        <ele>190.6</ele>
        <time>2024-03-19T06:32:24Z</time>
      </trkpt>
      <trkpt lat="50.12391" lon="4.12535">
        <ele>190.4</ele>
        <time>2024-03-19T06:32:25Z</time>
      </trkpt>
      <trkpt lat="50.12386" lon="4.12528">
        <ele>190.4</ele>
        <time>2024-03-19T06:32:26Z</time>
      </trkpt>
      <trkpt lat="50.12379" lon="4.12523">
        <ele>190.8</ele>
        <time>2024-03-19T06:32:27Z</time>
      </trkpt>
      <trkpt lat="50.12371" lon="4.12518">
        <ele>191.2</ele>
        <time>2024-03-19T06:32:28Z</time>
      </trkpt>
      <trkpt lat="50.12363" lon="4.12514">
        <ele>191.4</ele>
        <time>2024-03-19T06:32:29Z</time>
      </trkpt>
      <trkpt lat="50.12355" lon="4.12509">
        <ele>191.6</ele>
        <time>2024-03-19T06:32:30Z</time>
      </trkpt>
      <trkpt lat="50.12346" lon="4.12503">
        <ele>191.4</ele>
        <time>2024-03-19T06:32:31Z</time>
      </trkpt>
      <trkpt lat="50.12338" lon="4.12496">
        <ele>191.6</ele>
        <time>2024-03-19T06:32:32Z</time>
      </trkpt>
      <trkpt lat="50.12331" lon="4.12487">
        <ele>191.6</ele>
        <time>2024-03-19T06:32:33Z</time>
      </trkpt>
      <trkpt lat="50.12324" lon="4.12476">
        <ele>191.6</ele>
        <time>2024-03-19T06:32:34Z</time>
      </trkpt>
      <trkpt lat="50.12317" lon="4.12465">
        <ele>191.6</ele>
        <time>2024-03-19T06:32:35Z</time>
      </trkpt>
      <trkpt lat="50.12311" lon="4.12452">
        <ele>191.6</ele>
        <time>2024-03-19T06:32:36Z</time>
      </trkpt>
      <trkpt lat="50.12306" lon="4.12438">
        <ele>191.6</ele>
        <time>2024-03-19T06:32:37Z</time>
      </trkpt>
      <trkpt lat="50.12301" lon="4.12424">
        <ele>191.6</ele>
        <time>2024-03-19T06:32:38Z</time>
      </trkpt>
      <trkpt lat="50.12296" lon="4.1241">
        <ele>191.4</ele>
        <time>2024-03-19T06:32:39Z</time>
      </trkpt>
      <trkpt lat="50.12292" lon="4.12395">
        <ele>191</ele>
        <time>2024-03-19T06:32:40Z</time>
      </trkpt>
      <trkpt lat="50.12287" lon="4.12381">
        <ele>190.8</ele>
        <time>2024-03-19T06:32:41Z</time>
      </trkpt>
      <trkpt lat="50.12283" lon="4.12366">
        <ele>190.4</ele>
        <time>2024-03-19T06:32:42Z</time>
      </trkpt>
      <trkpt lat="50.12278" lon="4.12352">
        <ele>190.2</ele>
        <time>2024-03-19T06:32:43Z</time>
      </trkpt>
      <trkpt lat="50.12274" lon="4.12338">
        <ele>189.6</ele>
        <time>2024-03-19T06:32:44Z</time>
      </trkpt>
      <trkpt lat="50.1227" lon="4.12324">
        <ele>189.2</ele>
        <time>2024-03-19T06:32:45Z</time>
      </trkpt>
      <trkpt lat="50.12266" lon="4.12311">
        <ele>188.6</ele>
        <time>2024-03-19T06:32:46Z</time>
      </trkpt>
      <trkpt lat="50.12263" lon="4.12297">
        <ele>188.2</ele>
        <time>2024-03-19T06:32:47Z</time>
      </trkpt>
      <trkpt lat="50.12259" lon="4.12284">
        <ele>187.8</ele>
        <time>2024-03-19T06:32:48Z</time>
      </trkpt>
      <trkpt lat="50.12256" lon="4.12271">
        <ele>187.8</ele>
        <time>2024-03-19T06:32:49Z</time>
      </trkpt>
      <trkpt lat="50.12253" lon="4.12257">
        <ele>187.2</ele>
        <time>2024-03-19T06:32:50Z</time>
      </trkpt>
      <trkpt lat="50.12251" lon="4.12243">
        <ele>186.8</ele>
        <time>2024-03-19T06:32:51Z</time>
      </trkpt>
      <trkpt lat="50.12248" lon="4.1223">
        <ele>186.6</ele>
        <time>2024-03-19T06:32:52Z</time>
      </trkpt>
      <trkpt lat="50.12246" lon="4.12217">
        <ele>186.4</ele>
        <time>2024-03-19T06:32:53Z</time>
      </trkpt>
      <trkpt lat="50.12244" lon="4.12203">
        <ele>186.4</ele>
        <time>2024-03-19T06:32:54Z</time>
      </trkpt>
      <trkpt lat="50.12243" lon="4.1219">
        <ele>186.4</ele>
        <time>2024-03-19T06:32:55Z</time>
      </trkpt>
      <trkpt lat="50.12241" lon="4.12177">
        <ele>186.4</ele>
        <time>2024-03-19T06:32:56Z</time>
      </trkpt>
      <trkpt lat="50.1224" lon="4.12164">
        <ele>186.2</ele>
        <time>2024-03-19T06:32:57Z</time>
      </trkpt>
      <trkpt lat="50.12239" lon="4.12151">
        <ele>186.2</ele>
        <time>2024-03-19T06:32:58Z</time>
      </trkpt>
      <trkpt lat="50.12237" lon="4.12139">
        <ele>186.2</ele>
        <time>2024-03-19T06:32:59Z</time>
      </trkpt>
      <trkpt lat="50.12236" lon="4.12126">
        <ele>186.2</ele>
        <time>2024-03-19T06:33:00Z</time>
      </trkpt>
      <trkpt lat="50.12235" lon="4.12113">
        <ele>186.2</ele>
        <time>2024-03-19T06:33:01Z</time>
      </trkpt>
      <trkpt lat="50.12234" lon="4.121">
        <ele>186</ele>
        <time>2024-03-19T06:33:02Z</time>
      </trkpt>
      <trkpt lat="50.12233" lon="4.12087">
        <ele>186</ele>
        <time>2024-03-19T06:33:03Z</time>
      </trkpt>
      <trkpt lat="50.12231" lon="4.12073">
        <ele>185.8</ele>
        <time>2024-03-19T06:33:04Z</time>
      </trkpt>
      <trkpt lat="50.1223" lon="4.1206">
        <ele>185.8</ele>
        <time>2024-03-19T06:33:05Z</time>
      </trkpt>
      <trkpt lat="50.12228" lon="4.12046">
        <ele>185.8</ele>
        <time>2024-03-19T06:33:06Z</time>
      </trkpt>
      <trkpt lat="50.12226" lon="4.12032">
        <ele>185.4</ele>
        <time>2024-03-19T06:33:07Z</time>
      </trkpt>
      <trkpt lat="50.12224" lon="4.12018">
        <ele>185.2</ele>
        <time>2024-03-19T06:33:08Z</time>
      </trkpt>
      <trkpt lat="50.12222" lon="4.12003">
        <ele>185</ele>
        <time>2024-03-19T06:33:09Z</time>
      </trkpt>
      <trkpt lat="50.1222" lon="4.11989">
        <ele>184.8</ele>
        <time>2024-03-19T06:33:10Z</time>
      </trkpt>
      <trkpt lat="50.12217" lon="4.11974">
        <ele>184.8</ele>
        <time>2024-03-19T06:33:11Z</time>
      </trkpt>
      <trkpt lat="50.12214" lon="4.11959">
        <ele>184.4</ele>
        <time>2024-03-19T06:33:12Z</time>
      </trkpt>
      <trkpt lat="50.12211" lon="4.11944">
        <ele>184.4</ele>
        <time>2024-03-19T06:33:13Z</time>
      </trkpt>
      <trkpt lat="50.12208" lon="4.11928">
        <ele>184</ele>
        <time>2024-03-19T06:33:14Z</time>
      </trkpt>
      <trkpt lat="50.12205" lon="4.11913">
        <ele>184</ele>
        <time>2024-03-19T06:33:15Z</time>
      </trkpt>
      <trkpt lat="50.12202" lon="4.11898">
        <ele>183.8</ele>
        <time>2024-03-19T06:33:16Z</time>
      </trkpt>
      <trkpt lat="50.12199" lon="4.11883">
        <ele>183.2</ele>
        <time>2024-03-19T06:33:17Z</time>
      </trkpt>
      <trkpt lat="50.12196" lon="4.11869">
        <ele>182.6</ele>
        <time>2024-03-19T06:33:18Z</time>
      </trkpt>
      <trkpt lat="50.12193" lon="4.11854">
        <ele>182</ele>
        <time>2024-03-19T06:33:19Z</time>
      </trkpt>
      <trkpt lat="50.1219" lon="4.1184">
        <ele>181.4</ele>
        <time>2024-03-19T06:33:20Z</time>
      </trkpt>
      <trkpt lat="50.12187" lon="4.11827">
        <ele>179.8</ele>
        <time>2024-03-19T06:33:21Z</time>
      </trkpt>
      <trkpt lat="50.12184" lon="4.11813">
        <ele>179.8</ele>
        <time>2024-03-19T06:33:22Z</time>
      </trkpt>
      <trkpt lat="50.12182" lon="4.118">
        <ele>179</ele>
        <time>2024-03-19T06:33:23Z</time>
      </trkpt>
      <trkpt lat="50.12179" lon="4.11787">
        <ele>178.4</ele>
        <time>2024-03-19T06:33:24Z</time>
      </trkpt>
      <trkpt lat="50.12176" lon="4.11773">
        <ele>178</ele>
        <time>2024-03-19T06:33:25Z</time>
      </trkpt>
      <trkpt lat="50.12174" lon="4.1176">
        <ele>178</ele>
        <time>2024-03-19T06:33:26Z</time>
      </trkpt>
      <trkpt lat="50.12171" lon="4.11747">
        <ele>177.8</ele>
        <time>2024-03-19T06:33:27Z</time>
      </trkpt>
      <trkpt lat="50.12168" lon="4.11735">
        <ele>177.8</ele>
        <time>2024-03-19T06:33:28Z</time>
      </trkpt>
      <trkpt lat="50.12166" lon="4.11722">
        <ele>177.8</ele>
        <time>2024-03-19T06:33:29Z</time>
      </trkpt>
      <trkpt lat="50.12163" lon="4.1171">
        <ele>177.8</ele>
        <time>2024-03-19T06:33:30Z</time>
      </trkpt>
      <trkpt lat="50.12161" lon="4.11697">
        <ele>177.8</ele>
        <time>2024-03-19T06:33:31Z</time>
      </trkpt>
      <trkpt lat="50.12159" lon="4.11685">
        <ele>177.8</ele>
        <time>2024-03-19T06:33:32Z</time>
      </trkpt>
      <trkpt lat="50.12156" lon="4.11673">
        <ele>177.8</ele>
        <time>2024-03-19T06:33:33Z</time>
      </trkpt>
      <trkpt lat="50.12154" lon="4.11661">
        <ele>178</ele>
        <time>2024-03-19T06:33:34Z</time>
      </trkpt>
      <trkpt lat="50.12152" lon="4.1165">
        <ele>178.2</ele>
        <time>2024-03-19T06:33:35Z</time>
      </trkpt>
      <trkpt lat="50.12149" lon="4.11639">
        <ele>178.4</ele>
        <time>2024-03-19T06:33:36Z</time>
      </trkpt>
      <trkpt lat="50.12147" lon="4.11629">
        <ele>178.6</ele>
        <time>2024-03-19T06:33:37Z</time>
      </trkpt>
      <trkpt lat="50.12145" lon="4.11619">
        <ele>178.6</ele>
        <time>2024-03-19T06:33:38Z</time>
      </trkpt>
      <trkpt lat="50.12143" lon="4.1161">
        <ele>178.6</ele>
        <time>2024-03-19T06:33:39Z</time>
      </trkpt>
      <trkpt lat="50.12141" lon="4.11601">
        <ele>178.8</ele>
        <time>2024-03-19T06:33:40Z</time>
      </trkpt>
      <trkpt lat="50.12139" lon="4.11592">
        <ele>178.8</ele>
        <time>2024-03-19T06:33:41Z</time>
      </trkpt>
      <trkpt lat="50.12136" lon="4.11583">
        <ele>179</ele>
        <time>2024-03-19T06:33:42Z</time>
      </trkpt>
      <trkpt lat="50.12134" lon="4.11574">
        <ele>179</ele>
        <time>2024-03-19T06:33:43Z</time>
      </trkpt>
      <trkpt lat="50.12132" lon="4.11566">
        <ele>179.2</ele>
        <time>2024-03-19T06:33:44Z</time>
      </trkpt>
      <trkpt lat="50.12129" lon="4.11558">
        <ele>179.4</ele>
        <time>2024-03-19T06:33:45Z</time>
      </trkpt>
      <trkpt lat="50.12127" lon="4.1155">
        <ele>180</ele>
        <time>2024-03-19T06:33:46Z</time>
      </trkpt>
      <trkpt lat="50.12125" lon="4.11542">
        <ele>180.4</ele>
        <time>2024-03-19T06:33:47Z</time>
      </trkpt>
      <trkpt lat="50.12122" lon="4.11534">
        <ele>180.6</ele>
        <time>2024-03-19T06:33:48Z</time>
      </trkpt>
      <trkpt lat="50.1212" lon="4.11527">
        <ele>180.8</ele>
        <time>2024-03-19T06:33:49Z</time>
      </trkpt>
      <trkpt lat="50.12117" lon="4.11519">
        <ele>181.2</ele>
        <time>2024-03-19T06:33:50Z</time>
      </trkpt>
      <trkpt lat="50.12115" lon="4.11512">
        <ele>181.4</ele>
        <time>2024-03-19T06:33:51Z</time>
      </trkpt>
      <trkpt lat="50.12112" lon="4.11504">
        <ele>181.6</ele>
        <time>2024-03-19T06:33:52Z</time>
      </trkpt>
      <trkpt lat="50.12109" lon="4.11497">
        <ele>182</ele>
        <time>2024-03-19T06:33:53Z</time>
      </trkpt>
      <trkpt lat="50.12107" lon="4.1149">
        <ele>182.4</ele>
        <time>2024-03-19T06:33:54Z</time>
      </trkpt>
      <trkpt lat="50.12104" lon="4.11482">
        <ele>182.4</ele>
        <time>2024-03-19T06:33:55Z</time>
      </trkpt>
      <trkpt lat="50.12101" lon="4.11475">
        <ele>182.8</ele>
        <time>2024-03-19T06:33:56Z</time>
      </trkpt>
      <trkpt lat="50.12099" lon="4.11467">
        <ele>183.2</ele>
        <time>2024-03-19T06:33:57Z</time>
      </trkpt>
      <trkpt lat="50.12096" lon="4.1146">
        <ele>183.4</ele>
        <time>2024-03-19T06:33:58Z</time>
      </trkpt>
      <trkpt lat="50.12093" lon="4.11452">
        <ele>183.6</ele>
        <time>2024-03-19T06:33:59Z</time>
      </trkpt>
      <trkpt lat="50.12091" lon="4.11444">
        <ele>183.6</ele>
        <time>2024-03-19T06:34:00Z</time>
      </trkpt>
      <trkpt lat="50.12088" lon="4.11437">
        <ele>183.8</ele>
        <time>2024-03-19T06:34:01Z</time>
      </trkpt>
      <trkpt lat="50.12085" lon="4.11429">
        <ele>183.8</ele>
        <time>2024-03-19T06:34:02Z</time>
      </trkpt>
      <trkpt lat="50.12082" lon="4.11421">
        <ele>184</ele>
        <time>2024-03-19T06:34:03Z</time>
      </trkpt>
      <trkpt lat="50.1208" lon="4.11413">
        <ele>184.2</ele>
        <time>2024-03-19T06:34:04Z</time>
      </trkpt>
      <trkpt lat="50.12077" lon="4.11406">
        <ele>184.2</ele>
        <time>2024-03-19T06:34:05Z</time>
      </trkpt>
      <trkpt lat="50.12074" lon="4.11398">
        <ele>184.4</ele>
        <time>2024-03-19T06:34:06Z</time>
      </trkpt>
      <trkpt lat="50.12072" lon="4.1139">
        <ele>184.4</ele>
        <time>2024-03-19T06:34:07Z</time>
      </trkpt>
      <trkpt lat="50.12069" lon="4.11382">
        <ele>184.6</ele>
        <time>2024-03-19T06:34:08Z</time>
      </trkpt>
      <trkpt lat="50.12067" lon="4.11374">
        <ele>184.8</ele>
        <time>2024-03-19T06:34:09Z</time>
      </trkpt>
      <trkpt lat="50.12064" lon="4.11366">
        <ele>184.8</ele>
        <time>2024-03-19T06:34:10Z</time>
      </trkpt>
      <trkpt lat="50.12062" lon="4.11358">
        <ele>184.8</ele>
        <time>2024-03-19T06:34:11Z</time>
      </trkpt>
      <trkpt lat="50.12059" lon="4.11349">
        <ele>185</ele>
        <time>2024-03-19T06:34:12Z</time>
      </trkpt>
      <trkpt lat="50.12057" lon="4.11341">
        <ele>185.2</ele>
        <time>2024-03-19T06:34:13Z</time>
      </trkpt>
      <trkpt lat="50.12055" lon="4.11331">
        <ele>185.4</ele>
        <time>2024-03-19T06:34:14Z</time>
      </trkpt>
      <trkpt lat="50.12052" lon="4.11322">
        <ele>185.6</ele>
        <time>2024-03-19T06:34:15Z</time>
      </trkpt>
      <trkpt lat="50.1205" lon="4.11312">
        <ele>185.4</ele>
        <time>2024-03-19T06:34:16Z</time>
      </trkpt>
      <trkpt lat="50.12048" lon="4.11302">
        <ele>185.4</ele>
        <time>2024-03-19T06:34:17Z</time>
      </trkpt>
      <trkpt lat="50.12046" lon="4.11292">
        <ele>185.4</ele>
        <time>2024-03-19T06:34:18Z</time>
      </trkpt>
      <trkpt lat="50.12044" lon="4.11282">
        <ele>185.4</ele>
        <time>2024-03-19T06:34:19Z</time>
      </trkpt>
      <trkpt lat="50.12042" lon="4.11271">
        <ele>185.4</ele>
        <time>2024-03-19T06:34:20Z</time>
      </trkpt>
      <trkpt lat="50.1204" lon="4.1126">
        <ele>185.4</ele>
        <time>2024-03-19T06:34:21Z</time>
      </trkpt>
      <trkpt lat="50.12038" lon="4.11248">
        <ele>185.6</ele>
        <time>2024-03-19T06:34:22Z</time>
      </trkpt>
      <trkpt lat="50.12037" lon="4.11236">
        <ele>185.4</ele>
        <time>2024-03-19T06:34:23Z</time>
      </trkpt>
      <trkpt lat="50.12035" lon="4.11223">
        <ele>185.6</ele>
        <time>2024-03-19T06:34:24Z</time>
      </trkpt>
      <trkpt lat="50.12034" lon="4.1121">
        <ele>185.6</ele>
        <time>2024-03-19T06:34:25Z</time>
      </trkpt>
      <trkpt lat="50.12033" lon="4.11196">
        <ele>185.4</ele>
        <time>2024-03-19T06:34:26Z</time>
      </trkpt>
      <trkpt lat="50.12032" lon="4.11182">
        <ele>185.4</ele>
        <time>2024-03-19T06:34:27Z</time>
      </trkpt>
      <trkpt lat="50.12031" lon="4.11168">
        <ele>185.2</ele>
        <time>2024-03-19T06:34:28Z</time>
      </trkpt>
      <trkpt lat="50.1203" lon="4.11153">
        <ele>185.2</ele>
        <time>2024-03-19T06:34:29Z</time>
      </trkpt>
      <trkpt lat="50.1203" lon="4.11137">
        <ele>185</ele>
        <time>2024-03-19T06:34:30Z</time>
      </trkpt>
      <trkpt lat="50.12029" lon="4.11121">
        <ele>184.6</ele>
        <time>2024-03-19T06:34:31Z</time>
      </trkpt>
      <trkpt lat="50.12029" lon="4.11105">
        <ele>184.4</ele>
        <time>2024-03-19T06:34:32Z</time>
      </trkpt>
      <trkpt lat="50.12028" lon="4.11089">
        <ele>183.6</ele>
        <time>2024-03-19T06:34:33Z</time>
      </trkpt>
      <trkpt lat="50.12027" lon="4.11072">
        <ele>182.8</ele>
        <time>2024-03-19T06:34:34Z</time>
      </trkpt>
      <trkpt lat="50.12027" lon="4.11056">
        <ele>182.4</ele>
        <time>2024-03-19T06:34:35Z</time>
      </trkpt>
      <trkpt lat="50.12026" lon="4.11039">
        <ele>182.2</ele>
        <time>2024-03-19T06:34:36Z</time>
      </trkpt>
      <trkpt lat="50.12025" lon="4.11023">
        <ele>181.4</ele>
        <time>2024-03-19T06:34:37Z</time>
      </trkpt>
      <trkpt lat="50.12025" lon="4.11008">
        <ele>180.8</ele>
        <time>2024-03-19T06:34:38Z</time>
      </trkpt>
      <trkpt lat="50.12024" lon="4.10993">
        <ele>179.8</ele>
        <time>2024-03-19T06:34:39Z</time>
      </trkpt>
      <trkpt lat="50.12024" lon="4.10979">
        <ele>178.8</ele>
        <time>2024-03-19T06:34:40Z</time>
      </trkpt>
      <trkpt lat="50.12024" lon="4.10965">
        <ele>178.2</ele>
        <time>2024-03-19T06:34:41Z</time>
      </trkpt>
      <trkpt lat="50.12023" lon="4.10952">
        <ele>178</ele>
        <time>2024-03-19T06:34:42Z</time>
      </trkpt>
      <trkpt lat="50.12023" lon="4.10939">
        <ele>178</ele>
        <time>2024-03-19T06:34:43Z</time>
      </trkpt>
      <trkpt lat="50.12022" lon="4.10926">
        <ele>178</ele>
        <time>2024-03-19T06:34:44Z</time>
      </trkpt>
      <trkpt lat="50.12021" lon="4.10914">
        <ele>177.8</ele>
        <time>2024-03-19T06:34:45Z</time>
      </trkpt>
      <trkpt lat="50.1202" lon="4.10901">
        <ele>177.8</ele>
        <time>2024-03-19T06:34:46Z</time>
      </trkpt>
      <trkpt lat="50.12019" lon="4.1089">
        <ele>178</ele>
        <time>2024-03-19T06:34:47Z</time>
      </trkpt>
      <trkpt lat="50.12018" lon="4.10878">
        <ele>177.8</ele>
        <time>2024-03-19T06:34:48Z</time>
      </trkpt>
      <trkpt lat="50.12016" lon="4.10866">
        <ele>177.8</ele>
        <time>2024-03-19T06:34:49Z</time>
      </trkpt>
      <trkpt lat="50.12015" lon="4.10854">
        <ele>177.8</ele>
        <time>2024-03-19T06:34:50Z</time>
      </trkpt>
      <trkpt lat="50.12013" lon="4.10843">
        <ele>178.2</ele>
        <time>2024-03-19T06:34:51Z</time>
      </trkpt>
      <trkpt lat="50.12012" lon="4.10831">
        <ele>178.4</ele>
        <time>2024-03-19T06:34:52Z</time>
      </trkpt>
      <trkpt lat="50.1201" lon="4.1082">
        <ele>178.4</ele>
        <time>2024-03-19T06:34:53Z</time>
      </trkpt>
      <trkpt lat="50.12008" lon="4.10808">
        <ele>178.6</ele>
        <time>2024-03-19T06:34:54Z</time>
      </trkpt>
      <trkpt lat="50.12007" lon="4.10797">
        <ele>178.6</ele>
        <time>2024-03-19T06:34:55Z</time>
      </trkpt>
      <trkpt lat="50.12005" lon="4.10786">
        <ele>178.8</ele>
        <time>2024-03-19T06:34:56Z</time>
      </trkpt>
      <trkpt lat="50.12003" lon="4.10775">
        <ele>178.8</ele>
        <time>2024-03-19T06:34:57Z</time>
      </trkpt>
      <trkpt lat="50.12001" lon="4.10764">
        <ele>179</ele>
        <time>2024-03-19T06:34:58Z</time>
      </trkpt>
      <trkpt lat="50.12" lon="4.10753">
        <ele>179</ele>
        <time>2024-03-19T06:34:59Z</time>
      </trkpt>
      <trkpt lat="50.11998" lon="4.10743">
        <ele>179.2</ele>
        <time>2024-03-19T06:35:00Z</time>
      </trkpt>
      <trkpt lat="50.11996" lon="4.10732">
        <ele>179.4</ele>
        <time>2024-03-19T06:35:01Z</time>
      </trkpt>
      <trkpt lat="50.11995" lon="4.10721">
        <ele>179.4</ele>
        <time>2024-03-19T06:35:02Z</time>
      </trkpt>
      <trkpt lat="50.11994" lon="4.1071">
        <ele>179.6</ele>
        <time>2024-03-19T06:35:03Z</time>
      </trkpt>
      <trkpt lat="50.11993" lon="4.107">
        <ele>179.6</ele>
        <time>2024-03-19T06:35:04Z</time>
      </trkpt>
      <trkpt lat="50.11993" lon="4.10689">
        <ele>179.6</ele>
        <time>2024-03-19T06:35:05Z</time>
      </trkpt>
      <trkpt lat="50.11994" lon="4.10678">
        <ele>179.6</ele>
        <time>2024-03-19T06:35:06Z</time>
      </trkpt>
      <trkpt lat="50.11995" lon="4.10668">
        <ele>179.8</ele>
        <time>2024-03-19T06:35:07Z</time>
      </trkpt>
      <trkpt lat="50.11996" lon="4.10657">
        <ele>179.8</ele>
        <time>2024-03-19T06:35:08Z</time>
      </trkpt>
      <trkpt lat="50.11998" lon="4.10646">
        <ele>180.2</ele>
        <time>2024-03-19T06:35:09Z</time>
      </trkpt>
      <trkpt lat="50.12" lon="4.10636">
        <ele>180.8</ele>
        <time>2024-03-19T06:35:10Z</time>
      </trkpt>
      <trkpt lat="50.12003" lon="4.10625">
        <ele>180.8</ele>
        <time>2024-03-19T06:35:11Z</time>
      </trkpt>
      <trkpt lat="50.12006" lon="4.10614">
        <ele>181</ele>
        <time>2024-03-19T06:35:12Z</time>
      </trkpt>
      <trkpt lat="50.12009" lon="4.10604">
        <ele>181</ele>
        <time>2024-03-19T06:35:13Z</time>
      </trkpt>
      <trkpt lat="50.12013" lon="4.10593">
        <ele>181</ele>
        <time>2024-03-19T06:35:14Z</time>
      </trkpt>
      <trkpt lat="50.12016" lon="4.10581">
        <ele>181</ele>
        <time>2024-03-19T06:35:15Z</time>
      </trkpt>
      <trkpt lat="50.1202" lon="4.10569">
        <ele>181</ele>
        <time>2024-03-19T06:35:16Z</time>
      </trkpt>
      <trkpt lat="50.12024" lon="4.10557">
        <ele>181</ele>
        <time>2024-03-19T06:35:17Z</time>
      </trkpt>
      <trkpt lat="50.12028" lon="4.10544">
        <ele>181.2</ele>
        <time>2024-03-19T06:35:18Z</time>
      </trkpt>
      <trkpt lat="50.12032" lon="4.1053">
        <ele>181</ele>
        <time>2024-03-19T06:35:19Z</time>
      </trkpt>
      <trkpt lat="50.12036" lon="4.10516">
        <ele>181.2</ele>
        <time>2024-03-19T06:35:20Z</time>
      </trkpt>
      <trkpt lat="50.1204" lon="4.10502">
        <ele>180.8</ele>
        <time>2024-03-19T06:35:21Z</time>
      </trkpt>
      <trkpt lat="50.12045" lon="4.10488">
        <ele>180.8</ele>
        <time>2024-03-19T06:35:22Z</time>
      </trkpt>
      <trkpt lat="50.12049" lon="4.10473">
        <ele>180.4</ele>
        <time>2024-03-19T06:35:23Z</time>
      </trkpt>
      <trkpt lat="50.12054" lon="4.10457">
        <ele>179.8</ele>
        <time>2024-03-19T06:35:24Z</time>
      </trkpt>
      <trkpt lat="50.12058" lon="4.10442">
        <ele>179.4</ele>
        <time>2024-03-19T06:35:25Z</time>
      </trkpt>
      <trkpt lat="50.12062" lon="4.10426">
        <ele>178.6</ele>
        <time>2024-03-19T06:35:26Z</time>
      </trkpt>
      <trkpt lat="50.12066" lon="4.10411">
        <ele>177</ele>
        <time>2024-03-19T06:35:27Z</time>
      </trkpt>
      <trkpt lat="50.12068" lon="4.10396">
        <ele>176.2</ele>
        <time>2024-03-19T06:35:28Z</time>
      </trkpt>
      <trkpt lat="50.12071" lon="4.1038">
        <ele>175.4</ele>
        <time>2024-03-19T06:35:29Z</time>
      </trkpt>
      <trkpt lat="50.12072" lon="4.10366">
        <ele>174.4</ele>
        <time>2024-03-19T06:35:30Z</time>
      </trkpt>
      <trkpt lat="50.12073" lon="4.10351">
        <ele>173.2</ele>
        <time>2024-03-19T06:35:31Z</time>
      </trkpt>
      <trkpt lat="50.12074" lon="4.10337">
        <ele>173.2</ele>
        <time>2024-03-19T06:35:32Z</time>
      </trkpt>
      <trkpt lat="50.12074" lon="4.10324">
        <ele>172.6</ele>
        <time>2024-03-19T06:35:33Z</time>
      </trkpt>
      <trkpt lat="50.12074" lon="4.10311">
        <ele>172.4</ele>
        <time>2024-03-19T06:35:34Z</time>
      </trkpt>
      <trkpt lat="50.12074" lon="4.10298">
        <ele>172.2</ele>
        <time>2024-03-19T06:35:35Z</time>
      </trkpt>
      <trkpt lat="50.12075" lon="4.10286">
        <ele>172</ele>
        <time>2024-03-19T06:35:36Z</time>
      </trkpt>
      <trkpt lat="50.12075" lon="4.10275">
        <ele>172.2</ele>
        <time>2024-03-19T06:35:37Z</time>
      </trkpt>
      <trkpt lat="50.12075" lon="4.10263">
        <ele>172.2</ele>
        <time>2024-03-19T06:35:38Z</time>
      </trkpt>
      <trkpt lat="50.12075" lon="4.10252">
        <ele>172</ele>
        <time>2024-03-19T06:35:39Z</time>
      </trkpt>
      <trkpt lat="50.12076" lon="4.10242">
        <ele>172</ele>
        <time>2024-03-19T06:35:40Z</time>
      </trkpt>
      <trkpt lat="50.12076" lon="4.10231">
        <ele>172.2</ele>
        <time>2024-03-19T06:35:41Z</time>
      </trkpt>
      <trkpt lat="50.12077" lon="4.10221">
        <ele>172</ele>
        <time>2024-03-19T06:35:42Z</time>
      </trkpt>
      <trkpt lat="50.12078" lon="4.10211">
        <ele>172.4</ele>
        <time>2024-03-19T06:35:43Z</time>
      </trkpt>
      <trkpt lat="50.12078" lon="4.10201">
        <ele>172.8</ele>
        <time>2024-03-19T06:35:44Z</time>
      </trkpt>
      <trkpt lat="50.12078" lon="4.10191">
        <ele>173</ele>
        <time>2024-03-19T06:35:45Z</time>
      </trkpt>
      <trkpt lat="50.12079" lon="4.10181">
        <ele>173</ele>
        <time>2024-03-19T06:35:46Z</time>
      </trkpt>
      <trkpt lat="50.1208" lon="4.10172">
        <ele>173.4</ele>
        <time>2024-03-19T06:35:47Z</time>
      </trkpt>
      <trkpt lat="50.12081" lon="4.10162">
        <ele>173.4</ele>
        <time>2024-03-19T06:35:48Z</time>
      </trkpt>
      <trkpt lat="50.12083" lon="4.10153">
        <ele>173.8</ele>
        <time>2024-03-19T06:35:49Z</time>
      </trkpt>
      <trkpt lat="50.12085" lon="4.10144">
        <ele>174.2</ele>
        <time>2024-03-19T06:35:50Z</time>
      </trkpt>
      <trkpt lat="50.12087" lon="4.10134">
        <ele>174.6</ele>
        <time>2024-03-19T06:35:51Z</time>
      </trkpt>
      <trkpt lat="50.12089" lon="4.10125">
        <ele>174.8</ele>
        <time>2024-03-19T06:35:52Z</time>
      </trkpt>
      <trkpt lat="50.12091" lon="4.10115">
        <ele>175.2</ele>
        <time>2024-03-19T06:35:53Z</time>
      </trkpt>
      <trkpt lat="50.12093" lon="4.10105">
        <ele>175.4</ele>
        <time>2024-03-19T06:35:54Z</time>
      </trkpt>
      <trkpt lat="50.12095" lon="4.10096">
        <ele>175.8</ele>
        <time>2024-03-19T06:35:55Z</time>
      </trkpt>
      <trkpt lat="50.12097" lon="4.10086">
        <ele>176</ele>
        <time>2024-03-19T06:35:56Z</time>
      </trkpt>
      <trkpt lat="50.12099" lon="4.10076">
        <ele>176</ele>
        <time>2024-03-19T06:35:57Z</time>
      </trkpt>
      <trkpt lat="50.12102" lon="4.10066">
        <ele>176.2</ele>
        <time>2024-03-19T06:35:58Z</time>
      </trkpt>
      <trkpt lat="50.12104" lon="4.10055">
        <ele>176.2</ele>
        <time>2024-03-19T06:35:59Z</time>
      </trkpt>
      <trkpt lat="50.12106" lon="4.10045">
        <ele>176.2</ele>
        <time>2024-03-19T06:36:00Z</time>
      </trkpt>
      <trkpt lat="50.12109" lon="4.10035">
        <ele>176.2</ele>
        <time>2024-03-19T06:36:01Z</time>
      </trkpt>
      <trkpt lat="50.12111" lon="4.10024">
        <ele>176.4</ele>
        <time>2024-03-19T06:36:02Z</time>
      </trkpt>
      <trkpt lat="50.12113" lon="4.10014">
        <ele>176.4</ele>
        <time>2024-03-19T06:36:03Z</time>
      </trkpt>
      <trkpt lat="50.12116" lon="4.10004">
        <ele>176.4</ele>
        <time>2024-03-19T06:36:04Z</time>
      </trkpt>
      <trkpt lat="50.12118" lon="4.09994">
        <ele>176.2</ele>
        <time>2024-03-19T06:36:05Z</time>
      </trkpt>
      <trkpt lat="50.1212" lon="4.09984">
        <ele>176.2</ele>
        <time>2024-03-19T06:36:06Z</time>
      </trkpt>
      <trkpt lat="50.12121" lon="4.09974">
        <ele>176.4</ele>
        <time>2024-03-19T06:36:07Z</time>
      </trkpt>
      <trkpt lat="50.12122" lon="4.09964">
        <ele>176.4</ele>
        <time>2024-03-19T06:36:08Z</time>
      </trkpt>
      <trkpt lat="50.12122" lon="4.09954">
        <ele>176.4</ele>
        <time>2024-03-19T06:36:09Z</time>
      </trkpt>
      <trkpt lat="50.12122" lon="4.09944">
        <ele>176.4</ele>
        <time>2024-03-19T06:36:10Z</time>
      </trkpt>
      <trkpt lat="50.12122" lon="4.09935">
        <ele>176.4</ele>
        <time>2024-03-19T06:36:11Z</time>
      </trkpt>
      <trkpt lat="50.12122" lon="4.09925">
        <ele>176.4</ele>
        <time>2024-03-19T06:36:12Z</time>
      </trkpt>
      <trkpt lat="50.1212" lon="4.09916">
        <ele>176.4</ele>
        <time>2024-03-19T06:36:13Z</time>
      </trkpt>
      <trkpt lat="50.12119" lon="4.09908">
        <ele>176.4</ele>
        <time>2024-03-19T06:36:14Z</time>
      </trkpt>
      <trkpt lat="50.12118" lon="4.09899">
        <ele>176.4</ele>
        <time>2024-03-19T06:36:15Z</time>
      </trkpt>
      <trkpt lat="50.12116" lon="4.0989">
        <ele>176.6</ele>
        <time>2024-03-19T06:36:16Z</time>
      </trkpt>
      <trkpt lat="50.12115" lon="4.09882">
        <ele>177</ele>
        <time>2024-03-19T06:36:17Z</time>
      </trkpt>
      <trkpt lat="50.12114" lon="4.09873">
        <ele>177.4</ele>
        <time>2024-03-19T06:36:18Z</time>
      </trkpt>
      <trkpt lat="50.12113" lon="4.09865">
        <ele>177.6</ele>
        <time>2024-03-19T06:36:19Z</time>
      </trkpt>
      <trkpt lat="50.12113" lon="4.09856">
        <ele>177.8</ele>
        <time>2024-03-19T06:36:20Z</time>
      </trkpt>
      <trkpt lat="50.12112" lon="4.09848">
        <ele>177.8</ele>
        <time>2024-03-19T06:36:21Z</time>
      </trkpt>
      <trkpt lat="50.12111" lon="4.09839">
        <ele>178</ele>
        <time>2024-03-19T06:36:22Z</time>
      </trkpt>
      <trkpt lat="50.1211" lon="4.09831">
        <ele>178.4</ele>
        <time>2024-03-19T06:36:23Z</time>
      </trkpt>
      <trkpt lat="50.1211" lon="4.09822">
        <ele>178.8</ele>
        <time>2024-03-19T06:36:24Z</time>
      </trkpt>
      <trkpt lat="50.12109" lon="4.09814">
        <ele>179</ele>
        <time>2024-03-19T06:36:25Z</time>
      </trkpt>
      <trkpt lat="50.12109" lon="4.09805">
        <ele>179.2</ele>
        <time>2024-03-19T06:36:26Z</time>
      </trkpt>
      <trkpt lat="50.12108" lon="4.09796">
        <ele>179.4</ele>
        <time>2024-03-19T06:36:27Z</time>
      </trkpt>
      <trkpt lat="50.12108" lon="4.09787">
        <ele>179.4</ele>
        <time>2024-03-19T06:36:28Z</time>
      </trkpt>
      <trkpt lat="50.12107" lon="4.09778">
        <ele>179.6</ele>
        <time>2024-03-19T06:36:29Z</time>
      </trkpt>
      <trkpt lat="50.12105" lon="4.09769">
        <ele>179.8</ele>
        <time>2024-03-19T06:36:30Z</time>
      </trkpt>
      <trkpt lat="50.12104" lon="4.0976">
        <ele>180</ele>
        <time>2024-03-19T06:36:31Z</time>
      </trkpt>
      <trkpt lat="50.12102" lon="4.09751">
        <ele>180</ele>
        <time>2024-03-19T06:36:32Z</time>
      </trkpt>
      <trkpt lat="50.121" lon="4.09742">
        <ele>180</ele>
        <time>2024-03-19T06:36:33Z</time>
      </trkpt>
      <trkpt lat="50.12098" lon="4.09732">
        <ele>180.4</ele>
        <time>2024-03-19T06:36:34Z</time>
      </trkpt>
      <trkpt lat="50.12095" lon="4.09723">
        <ele>180.6</ele>
        <time>2024-03-19T06:36:35Z</time>
      </trkpt>
      <trkpt lat="50.12093" lon="4.09713">
        <ele>180.8</ele>
        <time>2024-03-19T06:36:36Z</time>
      </trkpt>
      <trkpt lat="50.1209" lon="4.09703">
        <ele>180.8</ele>
        <time>2024-03-19T06:36:37Z</time>
      </trkpt>
      <trkpt lat="50.12087" lon="4.09694">
        <ele>181</ele>
        <time>2024-03-19T06:36:38Z</time>
      </trkpt>
      <trkpt lat="50.12085" lon="4.09684">
        <ele>181.6</ele>
        <time>2024-03-19T06:36:39Z</time>
      </trkpt>
      <trkpt lat="50.12082" lon="4.09674">
        <ele>181.8</ele>
        <time>2024-03-19T06:36:40Z</time>
      </trkpt>
      <trkpt lat="50.12079" lon="4.09663">
        <ele>181.8</ele>
        <time>2024-03-19T06:36:41Z</time>
      </trkpt>
      <trkpt lat="50.12076" lon="4.09653">
        <ele>181.8</ele>
        <time>2024-03-19T06:36:42Z</time>
      </trkpt>
      <trkpt lat="50.12074" lon="4.09642">
        <ele>181.8</ele>
        <time>2024-03-19T06:36:43Z</time>
      </trkpt>
      <trkpt lat="50.12072" lon="4.09632">
        <ele>182</ele>
        <time>2024-03-19T06:36:44Z</time>
      </trkpt>
      <trkpt lat="50.1207" lon="4.09621">
        <ele>182</ele>
        <time>2024-03-19T06:36:45Z</time>
      </trkpt>
      <trkpt lat="50.12069" lon="4.09611">
        <ele>182</ele>
        <time>2024-03-19T06:36:46Z</time>
      </trkpt>
      <trkpt lat="50.12068" lon="4.09601">
        <ele>182</ele>
        <time>2024-03-19T06:36:47Z</time>
      </trkpt>
      <trkpt lat="50.12068" lon="4.09591">
        <ele>182</ele>
        <time>2024-03-19T06:36:48Z</time>
      </trkpt>
      <trkpt lat="50.12069" lon="4.09581">
        <ele>182</ele>
        <time>2024-03-19T06:36:49Z</time>
      </trkpt>
      <trkpt lat="50.12069" lon="4.09571">
        <ele>181.8</ele>
        <time>2024-03-19T06:36:50Z</time>
      </trkpt>
      <trkpt lat="50.1207" lon="4.09561">
        <ele>181.8</ele>
        <time>2024-03-19T06:36:51Z</time>
      </trkpt>
      <trkpt lat="50.1207" lon="4.0955">
        <ele>181.8</ele>
        <time>2024-03-19T06:36:52Z</time>
      </trkpt>
      <trkpt lat="50.12071" lon="4.0954">
        <ele>181.8</ele>
        <time>2024-03-19T06:36:53Z</time>
      </trkpt>
      <trkpt lat="50.12073" lon="4.0953">
        <ele>182</ele>
        <time>2024-03-19T06:36:54Z</time>
      </trkpt>
      <trkpt lat="50.12074" lon="4.0952">
        <ele>181.8</ele>
        <time>2024-03-19T06:36:55Z</time>
      </trkpt>
      <trkpt lat="50.12076" lon="4.09509">
        <ele>181.8</ele>
        <time>2024-03-19T06:36:56Z</time>
      </trkpt>
      <trkpt lat="50.12077" lon="4.09499">
        <ele>182</ele>
        <time>2024-03-19T06:36:57Z</time>
      </trkpt>
      <trkpt lat="50.12079" lon="4.09488">
        <ele>181.8</ele>
        <time>2024-03-19T06:36:58Z</time>
      </trkpt>
      <trkpt lat="50.12082" lon="4.09477">
        <ele>182</ele>
        <time>2024-03-19T06:36:59Z</time>
      </trkpt>
      <trkpt lat="50.12085" lon="4.09466">
        <ele>181.8</ele>
        <time>2024-03-19T06:37:00Z</time>
      </trkpt>
      <trkpt lat="50.12088" lon="4.09455">
        <ele>181.8</ele>
        <time>2024-03-19T06:37:01Z</time>
      </trkpt>
      <trkpt lat="50.1209" lon="4.09443">
        <ele>181.8</ele>
        <time>2024-03-19T06:37:02Z</time>
      </trkpt>
      <trkpt lat="50.12093" lon="4.09432">
        <ele>181.8</ele>
        <time>2024-03-19T06:37:03Z</time>
      </trkpt>
      <trkpt lat="50.12096" lon="4.09419">
        <ele>181.8</ele>
        <time>2024-03-19T06:37:04Z</time>
      </trkpt>
      <trkpt lat="50.12099" lon="4.09407">
        <ele>182</ele>
        <time>2024-03-19T06:37:05Z</time>
      </trkpt>
      <trkpt lat="50.12103" lon="4.09395">
        <ele>181.8</ele>
        <time>2024-03-19T06:37:06Z</time>
      </trkpt>
      <trkpt lat="50.12106" lon="4.09382">
        <ele>181.8</ele>
        <time>2024-03-19T06:37:07Z</time>
      </trkpt>
      <trkpt lat="50.1211" lon="4.0937">
        <ele>181.6</ele>
        <time>2024-03-19T06:37:08Z</time>
      </trkpt>
      <trkpt lat="50.12113" lon="4.09356">
        <ele>181.6</ele>
        <time>2024-03-19T06:37:09Z</time>
      </trkpt>
      <trkpt lat="50.12116" lon="4.09343">
        <ele>181.2</ele>
        <time>2024-03-19T06:37:10Z</time>
      </trkpt>
      <trkpt lat="50.12119" lon="4.09329">
        <ele>181</ele>
        <time>2024-03-19T06:37:11Z</time>
      </trkpt>
      <trkpt lat="50.12121" lon="4.09315">
        <ele>180.8</ele>
        <time>2024-03-19T06:37:12Z</time>
      </trkpt>
      <trkpt lat="50.12124" lon="4.09301">
        <ele>180.6</ele>
        <time>2024-03-19T06:37:13Z</time>
      </trkpt>
      <trkpt lat="50.12127" lon="4.09287">
        <ele>180</ele>
        <time>2024-03-19T06:37:14Z</time>
      </trkpt>
      <trkpt lat="50.12129" lon="4.09273">
        <ele>179.4</ele>
        <time>2024-03-19T06:37:15Z</time>
      </trkpt>
      <trkpt lat="50.12132" lon="4.09258">
        <ele>179</ele>
        <time>2024-03-19T06:37:16Z</time>
      </trkpt>
      <trkpt lat="50.12135" lon="4.09244">
        <ele>178.6</ele>
        <time>2024-03-19T06:37:17Z</time>
      </trkpt>
      <trkpt lat="50.12138" lon="4.09229">
        <ele>178</ele>
        <time>2024-03-19T06:37:18Z</time>
      </trkpt>
      <trkpt lat="50.12143" lon="4.09216">
        <ele>177.2</ele>
        <time>2024-03-19T06:37:19Z</time>
      </trkpt>
      <trkpt lat="50.12148" lon="4.09203">
        <ele>176.8</ele>
        <time>2024-03-19T06:37:20Z</time>
      </trkpt>
      <trkpt lat="50.12153" lon="4.09191">
        <ele>176.2</ele>
        <time>2024-03-19T06:37:21Z</time>
      </trkpt>
      <trkpt lat="50.12159" lon="4.09179">
        <ele>175.8</ele>
        <time>2024-03-19T06:37:22Z</time>
      </trkpt>
      <trkpt lat="50.12165" lon="4.09168">
        <ele>175</ele>
        <time>2024-03-19T06:37:23Z</time>
      </trkpt>
      <trkpt lat="50.12171" lon="4.09156">
        <ele>174.4</ele>
        <time>2024-03-19T06:37:24Z</time>
      </trkpt>
      <trkpt lat="50.12176" lon="4.09143">
        <ele>174.4</ele>
        <time>2024-03-19T06:37:25Z</time>
      </trkpt>
      <trkpt lat="50.1218" lon="4.0913">
        <ele>174</ele>
        <time>2024-03-19T06:37:26Z</time>
      </trkpt>
      <trkpt lat="50.12183" lon="4.09116">
        <ele>173.6</ele>
        <time>2024-03-19T06:37:27Z</time>
      </trkpt>
      <trkpt lat="50.12186" lon="4.09102">
        <ele>173</ele>
        <time>2024-03-19T06:37:28Z</time>
      </trkpt>
      <trkpt lat="50.12187" lon="4.09087">
        <ele>172.6</ele>
        <time>2024-03-19T06:37:29Z</time>
      </trkpt>
      <trkpt lat="50.12188" lon="4.09072">
        <ele>172.4</ele>
        <time>2024-03-19T06:37:30Z</time>
      </trkpt>
      <trkpt lat="50.12189" lon="4.09057">
        <ele>172</ele>
        <time>2024-03-19T06:37:31Z</time>
      </trkpt>
      <trkpt lat="50.12189" lon="4.09042">
        <ele>171.4</ele>
        <time>2024-03-19T06:37:32Z</time>
      </trkpt>
      <trkpt lat="50.12189" lon="4.09027">
        <ele>171.2</ele>
        <time>2024-03-19T06:37:33Z</time>
      </trkpt>
      <trkpt lat="50.12189" lon="4.09012">
        <ele>171</ele>
        <time>2024-03-19T06:37:34Z</time>
      </trkpt>
      <trkpt lat="50.12189" lon="4.08997">
        <ele>170.8</ele>
        <time>2024-03-19T06:37:35Z</time>
      </trkpt>
      <trkpt lat="50.12189" lon="4.08983">
        <ele>170.6</ele>
        <time>2024-03-19T06:37:36Z</time>
      </trkpt>
      <trkpt lat="50.12189" lon="4.08968">
        <ele>170.2</ele>
        <time>2024-03-19T06:37:37Z</time>
      </trkpt>
      <trkpt lat="50.12189" lon="4.08953">
        <ele>170.2</ele>
        <time>2024-03-19T06:37:38Z</time>
      </trkpt>
      <trkpt lat="50.12189" lon="4.08939">
        <ele>170.2</ele>
        <time>2024-03-19T06:37:39Z</time>
      </trkpt>
      <trkpt lat="50.12189" lon="4.08924">
        <ele>170</ele>
        <time>2024-03-19T06:37:40Z</time>
      </trkpt>
      <trkpt lat="50.12189" lon="4.0891">
        <ele>170</ele>
        <time>2024-03-19T06:37:41Z</time>
      </trkpt>
      <trkpt lat="50.1219" lon="4.08896">
        <ele>170</ele>
        <time>2024-03-19T06:37:42Z</time>
      </trkpt>
      <trkpt lat="50.1219" lon="4.08882">
        <ele>169.8</ele>
        <time>2024-03-19T06:37:43Z</time>
      </trkpt>
      <trkpt lat="50.1219" lon="4.08868">
        <ele>169.6</ele>
        <time>2024-03-19T06:37:44Z</time>
      </trkpt>
      <trkpt lat="50.12191" lon="4.08854">
        <ele>169.6</ele>
        <time>2024-03-19T06:37:45Z</time>
      </trkpt>
      <trkpt lat="50.12191" lon="4.0884">
        <ele>169.6</ele>
        <time>2024-03-19T06:37:46Z</time>
      </trkpt>
      <trkpt lat="50.12193" lon="4.08826">
        <ele>169.6</ele>
        <time>2024-03-19T06:37:47Z</time>
      </trkpt>
      <trkpt lat="50.12194" lon="4.08813">
        <ele>169.6</ele>
        <time>2024-03-19T06:37:48Z</time>
      </trkpt>
      <trkpt lat="50.12196" lon="4.088">
        <ele>169.6</ele>
        <time>2024-03-19T06:37:49Z</time>
      </trkpt>
      <trkpt lat="50.12198" lon="4.08787">
        <ele>169.4</ele>
        <time>2024-03-19T06:37:50Z</time>
      </trkpt>
      <trkpt lat="50.12199" lon="4.08774">
        <ele>169.4</ele>
        <time>2024-03-19T06:37:51Z</time>
      </trkpt>
      <trkpt lat="50.12201" lon="4.08761">
        <ele>169.4</ele>
        <time>2024-03-19T06:37:52Z</time>
      </trkpt>
      <trkpt lat="50.12202" lon="4.08748">
        <ele>169.2</ele>
        <time>2024-03-19T06:37:53Z</time>
      </trkpt>
      <trkpt lat="50.12203" lon="4.08735">
        <ele>169.2</ele>
        <time>2024-03-19T06:37:54Z</time>
      </trkpt>
      <trkpt lat="50.12204" lon="4.08723">
        <ele>169.2</ele>
        <time>2024-03-19T06:37:55Z</time>
      </trkpt>
      <trkpt lat="50.12204" lon="4.0871">
        <ele>169.2</ele>
        <time>2024-03-19T06:37:56Z</time>
      </trkpt>
      <trkpt lat="50.12205" lon="4.08697">
        <ele>169.2</ele>
        <time>2024-03-19T06:37:57Z</time>
      </trkpt>
      <trkpt lat="50.12205" lon="4.08685">
        <ele>169.2</ele>
        <time>2024-03-19T06:37:58Z</time>
      </trkpt>
      <trkpt lat="50.12206" lon="4.08672">
        <ele>169.2</ele>
        <time>2024-03-19T06:37:59Z</time>
      </trkpt>
      <trkpt lat="50.12206" lon="4.0866">
        <ele>169.2</ele>
        <time>2024-03-19T06:38:00Z</time>
      </trkpt>
      <trkpt lat="50.12206" lon="4.08647">
        <ele>169</ele>
        <time>2024-03-19T06:38:01Z</time>
      </trkpt>
      <trkpt lat="50.12206" lon="4.08635">
        <ele>169</ele>
        <time>2024-03-19T06:38:02Z</time>
      </trkpt>
      <trkpt lat="50.12206" lon="4.08623">
        <ele>169.2</ele>
        <time>2024-03-19T06:38:03Z</time>
      </trkpt>
      <trkpt lat="50.12205" lon="4.0861">
        <ele>169</ele>
        <time>2024-03-19T06:38:04Z</time>
      </trkpt>
      <trkpt lat="50.12205" lon="4.08598">
        <ele>169</ele>
        <time>2024-03-19T06:38:05Z</time>
      </trkpt>
      <trkpt lat="50.12205" lon="4.08586">
        <ele>169</ele>
        <time>2024-03-19T06:38:06Z</time>
      </trkpt>
      <trkpt lat="50.12204" lon="4.08574">
        <ele>169</ele>
        <time>2024-03-19T06:38:07Z</time>
      </trkpt>
      <trkpt lat="50.12204" lon="4.08562">
        <ele>169.2</ele>
        <time>2024-03-19T06:38:08Z</time>
      </trkpt>
      <trkpt lat="50.12204" lon="4.0855">
        <ele>169</ele>
        <time>2024-03-19T06:38:09Z</time>
      </trkpt>
      <trkpt lat="50.12204" lon="4.08538">
        <ele>169.2</ele>
        <time>2024-03-19T06:38:10Z</time>
      </trkpt>
      <trkpt lat="50.12205" lon="4.08526">
        <ele>169.2</ele>
        <time>2024-03-19T06:38:11Z</time>
      </trkpt>
      <trkpt lat="50.12205" lon="4.08514">
        <ele>169.2</ele>
        <time>2024-03-19T06:38:12Z</time>
      </trkpt>
      <trkpt lat="50.12207" lon="4.08503">
        <ele>169.2</ele>
        <time>2024-03-19T06:38:13Z</time>
      </trkpt>
      <trkpt lat="50.12208" lon="4.08492">
        <ele>169.2</ele>
        <time>2024-03-19T06:38:14Z</time>
      </trkpt>
      <trkpt lat="50.1221" lon="4.08482">
        <ele>169.2</ele>
        <time>2024-03-19T06:38:15Z</time>
      </trkpt>
      <trkpt lat="50.12212" lon="4.08472">
        <ele>169</ele>
        <time>2024-03-19T06:38:16Z</time>
      </trkpt>
      <trkpt lat="50.12213" lon="4.08462">
        <ele>169.2</ele>
        <time>2024-03-19T06:38:17Z</time>
      </trkpt>
      <trkpt lat="50.12215" lon="4.08452">
        <ele>169.2</ele>
        <time>2024-03-19T06:38:18Z</time>
      </trkpt>
      <trkpt lat="50.12217" lon="4.08442">
        <ele>169</ele>
        <time>2024-03-19T06:38:19Z</time>
      </trkpt>
      <trkpt lat="50.12219" lon="4.08432">
        <ele>169.2</ele>
        <time>2024-03-19T06:38:20Z</time>
      </trkpt>
      <trkpt lat="50.12221" lon="4.08423">
        <ele>169.4</ele>
        <time>2024-03-19T06:38:21Z</time>
      </trkpt>
      <trkpt lat="50.12224" lon="4.08414">
        <ele>169.4</ele>
        <time>2024-03-19T06:38:22Z</time>
      </trkpt>
      <trkpt lat="50.12226" lon="4.08404">
        <ele>169.4</ele>
        <time>2024-03-19T06:38:23Z</time>
      </trkpt>
      <trkpt lat="50.12228" lon="4.08395">
        <ele>169.6</ele>
        <time>2024-03-19T06:38:24Z</time>
      </trkpt>
      <trkpt lat="50.12231" lon="4.08386">
        <ele>170.2</ele>
        <time>2024-03-19T06:38:25Z</time>
      </trkpt>
      <trkpt lat="50.12234" lon="4.08378">
        <ele>170.4</ele>
        <time>2024-03-19T06:38:26Z</time>
      </trkpt>
      <trkpt lat="50.12237" lon="4.08369">
        <ele>170.6</ele>
        <time>2024-03-19T06:38:27Z</time>
      </trkpt>
      <trkpt lat="50.12241" lon="4.08361">
        <ele>170.6</ele>
        <time>2024-03-19T06:38:28Z</time>
      </trkpt>
      <trkpt lat="50.12244" lon="4.08353">
        <ele>171.2</ele>
        <time>2024-03-19T06:38:29Z</time>
      </trkpt>
      <trkpt lat="50.12248" lon="4.08346">
        <ele>171.2</ele>
        <time>2024-03-19T06:38:30Z</time>
      </trkpt>
      <trkpt lat="50.12251" lon="4.08338">
        <ele>171.6</ele>
        <time>2024-03-19T06:38:31Z</time>
      </trkpt>
      <trkpt lat="50.12255" lon="4.0833">
        <ele>171.6</ele>
        <time>2024-03-19T06:38:32Z</time>
      </trkpt>
      <trkpt lat="50.12258" lon="4.08323">
        <ele>171.8</ele>
        <time>2024-03-19T06:38:33Z</time>
      </trkpt>
      <trkpt lat="50.12262" lon="4.08315">
        <ele>172</ele>
        <time>2024-03-19T06:38:34Z</time>
      </trkpt>
      <trkpt lat="50.12265" lon="4.08308">
        <ele>172.2</ele>
        <time>2024-03-19T06:38:35Z</time>
      </trkpt>
      <trkpt lat="50.12269" lon="4.083">
        <ele>172.6</ele>
        <time>2024-03-19T06:38:36Z</time>
      </trkpt>
      <trkpt lat="50.12272" lon="4.08293">
        <ele>172.6</ele>
        <time>2024-03-19T06:38:37Z</time>
      </trkpt>
      <trkpt lat="50.12276" lon="4.08286">
        <ele>172.8</ele>
        <time>2024-03-19T06:38:38Z</time>
      </trkpt>
      <trkpt lat="50.12279" lon="4.08278">
        <ele>173</ele>
        <time>2024-03-19T06:38:39Z</time>
      </trkpt>
      <trkpt lat="50.12283" lon="4.08271">
        <ele>173.2</ele>
        <time>2024-03-19T06:38:40Z</time>
      </trkpt>
      <trkpt lat="50.12286" lon="4.08264">
        <ele>173.2</ele>
        <time>2024-03-19T06:38:41Z</time>
      </trkpt>
      <trkpt lat="50.12289" lon="4.08256">
        <ele>173.4</ele>
        <time>2024-03-19T06:38:42Z</time>
      </trkpt>
      <trkpt lat="50.12293" lon="4.08249">
        <ele>173.4</ele>
        <time>2024-03-19T06:38:43Z</time>
      </trkpt>
      <trkpt lat="50.12296" lon="4.08242">
        <ele>173.6</ele>
        <time>2024-03-19T06:38:44Z</time>
      </trkpt>
      <trkpt lat="50.12299" lon="4.08234">
        <ele>174</ele>
        <time>2024-03-19T06:38:45Z</time>
      </trkpt>
      <trkpt lat="50.12303" lon="4.08227">
        <ele>174</ele>
        <time>2024-03-19T06:38:46Z</time>
      </trkpt>
      <trkpt lat="50.12306" lon="4.0822">
        <ele>174.6</ele>
        <time>2024-03-19T06:38:47Z</time>
      </trkpt>
      <trkpt lat="50.1231" lon="4.08213">
        <ele>175</ele>
        <time>2024-03-19T06:38:48Z</time>
      </trkpt>
      <trkpt lat="50.12313" lon="4.08205">
        <ele>175.4</ele>
        <time>2024-03-19T06:38:49Z</time>
      </trkpt>
      <trkpt lat="50.12317" lon="4.08198">
        <ele>175.4</ele>
        <time>2024-03-19T06:38:50Z</time>
      </trkpt>
      <trkpt lat="50.1232" lon="4.0819">
        <ele>175.8</ele>
        <time>2024-03-19T06:38:51Z</time>
      </trkpt>
      <trkpt lat="50.12323" lon="4.08183">
        <ele>176</ele>
        <time>2024-03-19T06:38:52Z</time>
      </trkpt>
      <trkpt lat="50.12327" lon="4.08176">
        <ele>176.4</ele>
        <time>2024-03-19T06:38:53Z</time>
      </trkpt>
      <trkpt lat="50.1233" lon="4.08168">
        <ele>176.6</ele>
        <time>2024-03-19T06:38:54Z</time>
      </trkpt>
      <trkpt lat="50.12334" lon="4.08161">
        <ele>176.8</ele>
        <time>2024-03-19T06:38:55Z</time>
      </trkpt>
      <trkpt lat="50.12338" lon="4.08153">
        <ele>177.2</ele>
        <time>2024-03-19T06:38:56Z</time>
      </trkpt>
      <trkpt lat="50.12342" lon="4.08146">
        <ele>177.4</ele>
        <time>2024-03-19T06:38:57Z</time>
      </trkpt>
      <trkpt lat="50.12345" lon="4.08138">
        <ele>177.4</ele>
        <time>2024-03-19T06:38:58Z</time>
      </trkpt>
      <trkpt lat="50.12349" lon="4.0813">
        <ele>177.8</ele>
        <time>2024-03-19T06:38:59Z</time>
      </trkpt>
      <trkpt lat="50.12352" lon="4.08122">
        <ele>178</ele>
        <time>2024-03-19T06:39:00Z</time>
      </trkpt>
      <trkpt lat="50.12356" lon="4.08115">
        <ele>178.2</ele>
        <time>2024-03-19T06:39:01Z</time>
      </trkpt>
      <trkpt lat="50.12359" lon="4.08107">
        <ele>178.2</ele>
        <time>2024-03-19T06:39:02Z</time>
      </trkpt>
      <trkpt lat="50.12362" lon="4.081">
        <ele>178.2</ele>
        <time>2024-03-19T06:39:03Z</time>
      </trkpt>
      <trkpt lat="50.12366" lon="4.08093">
        <ele>178.4</ele>
        <time>2024-03-19T06:39:04Z</time>
      </trkpt>
      <trkpt lat="50.12369" lon="4.08086">
        <ele>178.4</ele>
        <time>2024-03-19T06:39:05Z</time>
      </trkpt>
      <trkpt lat="50.12373" lon="4.08078">
        <ele>178.4</ele>
        <time>2024-03-19T06:39:06Z</time>
      </trkpt>
      <trkpt lat="50.12376" lon="4.08071">
        <ele>178.4</ele>
        <time>2024-03-19T06:39:07Z</time>
      </trkpt>
      <trkpt lat="50.1238" lon="4.08064">
        <ele>178.6</ele>
        <time>2024-03-19T06:39:08Z</time>
      </trkpt>
      <trkpt lat="50.12384" lon="4.08058">
        <ele>178.6</ele>
        <time>2024-03-19T06:39:09Z</time>
      </trkpt>
      <trkpt lat="50.12389" lon="4.08053">
        <ele>178.8</ele>
        <time>2024-03-19T06:39:10Z</time>
      </trkpt>
      <trkpt lat="50.12395" lon="4.08051">
        <ele>178.8</ele>
        <time>2024-03-19T06:39:11Z</time>
      </trkpt>
      <trkpt lat="50.12401" lon="4.08053">
        <ele>178.8</ele>
        <time>2024-03-19T06:39:12Z</time>
      </trkpt>
      <trkpt lat="50.12407" lon="4.08057">
        <ele>179</ele>
        <time>2024-03-19T06:39:13Z</time>
      </trkpt>
      <trkpt lat="50.12413" lon="4.08063">
        <ele>179</ele>
        <time>2024-03-19T06:39:14Z</time>
      </trkpt>
      <trkpt lat="50.12418" lon="4.08071">
        <ele>179</ele>
        <time>2024-03-19T06:39:15Z</time>
      </trkpt>
      <trkpt lat="50.12422" lon="4.08079">
        <ele>179</ele>
        <time>2024-03-19T06:39:16Z</time>
      </trkpt>
      <trkpt lat="50.12427" lon="4.08087">
        <ele>179</ele>
        <time>2024-03-19T06:39:17Z</time>
      </trkpt>
      <trkpt lat="50.12432" lon="4.08096">
        <ele>179</ele>
        <time>2024-03-19T06:39:18Z</time>
      </trkpt>
      <trkpt lat="50.12437" lon="4.08104">
        <ele>179</ele>
        <time>2024-03-19T06:39:19Z</time>
      </trkpt>
      <trkpt lat="50.12441" lon="4.08113">
        <ele>179</ele>
        <time>2024-03-19T06:39:20Z</time>
      </trkpt>
      <trkpt lat="50.12446" lon="4.08122">
        <ele>179</ele>
        <time>2024-03-19T06:39:21Z</time>
      </trkpt>
      <trkpt lat="50.12451" lon="4.08131">
        <ele>178.8</ele>
        <time>2024-03-19T06:39:22Z</time>
      </trkpt>
      <trkpt lat="50.12455" lon="4.0814">
        <ele>178.8</ele>
        <time>2024-03-19T06:39:23Z</time>
      </trkpt>
      <trkpt lat="50.1246" lon="4.0815">
        <ele>178.6</ele>
        <time>2024-03-19T06:39:24Z</time>
      </trkpt>
      <trkpt lat="50.12465" lon="4.08159">
        <ele>178.6</ele>
        <time>2024-03-19T06:39:25Z</time>
      </trkpt>
      <trkpt lat="50.12469" lon="4.08168">
        <ele>178.4</ele>
        <time>2024-03-19T06:39:26Z</time>
      </trkpt>
      <trkpt lat="50.12474" lon="4.08177">
        <ele>178.2</ele>
        <time>2024-03-19T06:39:27Z</time>
      </trkpt>
      <trkpt lat="50.12479" lon="4.08186">
        <ele>178.2</ele>
        <time>2024-03-19T06:39:28Z</time>
      </trkpt>
      <trkpt lat="50.12484" lon="4.08196">
        <ele>178.2</ele>
        <time>2024-03-19T06:39:29Z</time>
      </trkpt>
      <trkpt lat="50.12488" lon="4.08205">
        <ele>178</ele>
        <time>2024-03-19T06:39:30Z</time>
      </trkpt>
      <trkpt lat="50.12493" lon="4.08215">
        <ele>177.8</ele>
        <time>2024-03-19T06:39:31Z</time>
      </trkpt>
      <trkpt lat="50.12498" lon="4.08224">
        <ele>177.8</ele>
        <time>2024-03-19T06:39:32Z</time>
      </trkpt>
      <trkpt lat="50.12503" lon="4.08233">
        <ele>177.6</ele>
        <time>2024-03-19T06:39:33Z</time>
      </trkpt>
      <trkpt lat="50.12509" lon="4.08241">
        <ele>177.6</ele>
        <time>2024-03-19T06:39:34Z</time>
      </trkpt>
      <trkpt lat="50.12515" lon="4.08249">
        <ele>177.6</ele>
        <time>2024-03-19T06:39:35Z</time>
      </trkpt>
      <trkpt lat="50.12521" lon="4.08257">
        <ele>177.2</ele>
        <time>2024-03-19T06:39:36Z</time>
      </trkpt>
      <trkpt lat="50.12527" lon="4.08264">
        <ele>177.2</ele>
        <time>2024-03-19T06:39:37Z</time>
      </trkpt>
      <trkpt lat="50.12534" lon="4.0827">
        <ele>177</ele>
        <time>2024-03-19T06:39:38Z</time>
      </trkpt>
      <trkpt lat="50.12541" lon="4.08275">
        <ele>177</ele>
        <time>2024-03-19T06:39:39Z</time>
      </trkpt>
      <trkpt lat="50.12548" lon="4.0828">
        <ele>177</ele>
        <time>2024-03-19T06:39:40Z</time>
      </trkpt>
      <trkpt lat="50.12556" lon="4.08285">
        <ele>176.6</ele>
        <time>2024-03-19T06:39:41Z</time>
      </trkpt>
      <trkpt lat="50.12563" lon="4.08288">
        <ele>176.4</ele>
        <time>2024-03-19T06:39:42Z</time>
      </trkpt>
      <trkpt lat="50.12571" lon="4.08291">
        <ele>176.2</ele>
        <time>2024-03-19T06:39:43Z</time>
      </trkpt>
      <trkpt lat="50.12578" lon="4.08293">
        <ele>176.2</ele>
        <time>2024-03-19T06:39:44Z</time>
      </trkpt>
      <trkpt lat="50.12586" lon="4.08294">
        <ele>175.8</ele>
        <time>2024-03-19T06:39:45Z</time>
      </trkpt>
      <trkpt lat="50.12593" lon="4.08295">
        <ele>175.8</ele>
        <time>2024-03-19T06:39:46Z</time>
      </trkpt>
      <trkpt lat="50.126" lon="4.08295">
        <ele>175.6</ele>
        <time>2024-03-19T06:39:47Z</time>
      </trkpt>
      <trkpt lat="50.12608" lon="4.08295">
        <ele>175.8</ele>
        <time>2024-03-19T06:39:48Z</time>
      </trkpt>
      <trkpt lat="50.12615" lon="4.08295">
        <ele>175.6</ele>
        <time>2024-03-19T06:39:49Z</time>
      </trkpt>
      <trkpt lat="50.12622" lon="4.08295">
        <ele>175.6</ele>
        <time>2024-03-19T06:39:50Z</time>
      </trkpt>
      <trkpt lat="50.12628" lon="4.08295">
        <ele>175.6</ele>
        <time>2024-03-19T06:39:51Z</time>
      </trkpt>
      <trkpt lat="50.12635" lon="4.08294">
        <ele>175.6</ele>
        <time>2024-03-19T06:39:52Z</time>
      </trkpt>
      <trkpt lat="50.12641" lon="4.08294">
        <ele>175.6</ele>
        <time>2024-03-19T06:39:53Z</time>
      </trkpt>
      <trkpt lat="50.12648" lon="4.08294">
        <ele>175.6</ele>
        <time>2024-03-19T06:39:54Z</time>
      </trkpt>
      <trkpt lat="50.12654" lon="4.08293">
        <ele>175.6</ele>
        <time>2024-03-19T06:39:55Z</time>
      </trkpt>
      <trkpt lat="50.12661" lon="4.08293">
        <ele>175.8</ele>
        <time>2024-03-19T06:39:56Z</time>
      </trkpt>
      <trkpt lat="50.12667" lon="4.08293">
        <ele>175.6</ele>
        <time>2024-03-19T06:39:57Z</time>
      </trkpt>
      <trkpt lat="50.12673" lon="4.08293">
        <ele>175.6</ele>
        <time>2024-03-19T06:39:58Z</time>
      </trkpt>
      <trkpt lat="50.1268" lon="4.08293">
        <ele>175.8</ele>
        <time>2024-03-19T06:39:59Z</time>
      </trkpt>
      <trkpt lat="50.12686" lon="4.08293">
        <ele>175.8</ele>
        <time>2024-03-19T06:40:00Z</time>
      </trkpt>
      <trkpt lat="50.12692" lon="4.08293">
        <ele>176</ele>
        <time>2024-03-19T06:40:01Z</time>
      </trkpt>
      <trkpt lat="50.12698" lon="4.08292">
        <ele>176</ele>
        <time>2024-03-19T06:40:02Z</time>
      </trkpt>
      <trkpt lat="50.12704" lon="4.08292">
        <ele>176.2</ele>
        <time>2024-03-19T06:40:03Z</time>
      </trkpt>
      <trkpt lat="50.1271" lon="4.08292">
        <ele>176.6</ele>
        <time>2024-03-19T06:40:04Z</time>
      </trkpt>
      <trkpt lat="50.12716" lon="4.08292">
        <ele>176.6</ele>
        <time>2024-03-19T06:40:05Z</time>
      </trkpt>
      <trkpt lat="50.12722" lon="4.08292">
        <ele>176.8</ele>
        <time>2024-03-19T06:40:06Z</time>
      </trkpt>
      <trkpt lat="50.12728" lon="4.08292">
        <ele>177</ele>
        <time>2024-03-19T06:40:07Z</time>
      </trkpt>
      <trkpt lat="50.12734" lon="4.08292">
        <ele>177.6</ele>
        <time>2024-03-19T06:40:08Z</time>
      </trkpt>
      <trkpt lat="50.1274" lon="4.08291">
        <ele>177.6</ele>
        <time>2024-03-19T06:40:09Z</time>
      </trkpt>
      <trkpt lat="50.12746" lon="4.08291">
        <ele>178</ele>
        <time>2024-03-19T06:40:10Z</time>
      </trkpt>
      <trkpt lat="50.12752" lon="4.08291">
        <ele>178.4</ele>
        <time>2024-03-19T06:40:11Z</time>
      </trkpt>
      <trkpt lat="50.12757" lon="4.08291">
        <ele>179</ele>
        <time>2024-03-19T06:40:12Z</time>
      </trkpt>
      <trkpt lat="50.12763" lon="4.08291">
        <ele>179</ele>
        <time>2024-03-19T06:40:13Z</time>
      </trkpt>
      <trkpt lat="50.12769" lon="4.08291">
        <ele>179.4</ele>
        <time>2024-03-19T06:40:14Z</time>
      </trkpt>
      <trkpt lat="50.12775" lon="4.08291">
        <ele>180</ele>
        <time>2024-03-19T06:40:15Z</time>
      </trkpt>
      <trkpt lat="50.1278" lon="4.08291">
        <ele>180.2</ele>
        <time>2024-03-19T06:40:16Z</time>
      </trkpt>
      <trkpt lat="50.12786" lon="4.08292">
        <ele>180.6</ele>
        <time>2024-03-19T06:40:17Z</time>
      </trkpt>
      <trkpt lat="50.12792" lon="4.08292">
        <ele>181</ele>
        <time>2024-03-19T06:40:18Z</time>
      </trkpt>
      <trkpt lat="50.12797" lon="4.08293">
        <ele>181.4</ele>
        <time>2024-03-19T06:40:19Z</time>
      </trkpt>
      <trkpt lat="50.12803" lon="4.08295">
        <ele>181.8</ele>
        <time>2024-03-19T06:40:20Z</time>
      </trkpt>
      <trkpt lat="50.12808" lon="4.08296">
        <ele>182</ele>
        <time>2024-03-19T06:40:21Z</time>
      </trkpt>
      <trkpt lat="50.12813" lon="4.08298">
        <ele>182.4</ele>
        <time>2024-03-19T06:40:22Z</time>
      </trkpt>
      <trkpt lat="50.12818" lon="4.083">
        <ele>183</ele>
        <time>2024-03-19T06:40:23Z</time>
      </trkpt>
      <trkpt lat="50.12823" lon="4.08302">
        <ele>183.2</ele>
        <time>2024-03-19T06:40:24Z</time>
      </trkpt>
      <trkpt lat="50.12828" lon="4.08304">
        <ele>183.6</ele>
        <time>2024-03-19T06:40:25Z</time>
      </trkpt>
      <trkpt lat="50.12833" lon="4.08307">
        <ele>183.6</ele>
        <time>2024-03-19T06:40:26Z</time>
      </trkpt>
      <trkpt lat="50.12837" lon="4.0831">
        <ele>184</ele>
        <time>2024-03-19T06:40:27Z</time>
      </trkpt>
      <trkpt lat="50.12842" lon="4.08313">
        <ele>184.6</ele>
        <time>2024-03-19T06:40:28Z</time>
      </trkpt>
      <trkpt lat="50.12847" lon="4.08315">
        <ele>185.2</ele>
        <time>2024-03-19T06:40:29Z</time>
      </trkpt>
      <trkpt lat="50.12851" lon="4.08319">
        <ele>186</ele>
        <time>2024-03-19T06:40:30Z</time>
      </trkpt>
      <trkpt lat="50.12856" lon="4.08322">
        <ele>186.6</ele>
        <time>2024-03-19T06:40:31Z</time>
      </trkpt>
      <trkpt lat="50.1286" lon="4.08326">
        <ele>187.2</ele>
        <time>2024-03-19T06:40:32Z</time>
      </trkpt>
      <trkpt lat="50.12864" lon="4.0833">
        <ele>187.8</ele>
        <time>2024-03-19T06:40:33Z</time>
      </trkpt>
      <trkpt lat="50.12868" lon="4.08334">
        <ele>188.2</ele>
        <time>2024-03-19T06:40:34Z</time>
      </trkpt>
      <trkpt lat="50.12872" lon="4.08338">
        <ele>188.6</ele>
        <time>2024-03-19T06:40:35Z</time>
      </trkpt>
      <trkpt lat="50.12876" lon="4.08342">
        <ele>189</ele>
        <time>2024-03-19T06:40:36Z</time>
      </trkpt>
      <trkpt lat="50.1288" lon="4.08346">
        <ele>189.4</ele>
        <time>2024-03-19T06:40:37Z</time>
      </trkpt>
      <trkpt lat="50.12884" lon="4.0835">
        <ele>189.6</ele>
        <time>2024-03-19T06:40:38Z</time>
      </trkpt>
      <trkpt lat="50.12888" lon="4.08354">
        <ele>190</ele>
        <time>2024-03-19T06:40:39Z</time>
      </trkpt>
      <trkpt lat="50.12892" lon="4.08358">
        <ele>190.4</ele>
        <time>2024-03-19T06:40:40Z</time>
      </trkpt>
      <trkpt lat="50.12896" lon="4.08363">
        <ele>190.8</ele>
        <time>2024-03-19T06:40:41Z</time>
      </trkpt>
      <trkpt lat="50.12899" lon="4.08367">
        <ele>190.8</ele>
        <time>2024-03-19T06:40:42Z</time>
      </trkpt>
      <trkpt lat="50.12903" lon="4.08371">
        <ele>191.2</ele>
        <time>2024-03-19T06:40:43Z</time>
      </trkpt>
      <trkpt lat="50.12907" lon="4.08375">
        <ele>191.6</ele>
        <time>2024-03-19T06:40:44Z</time>
      </trkpt>
      <trkpt lat="50.12911" lon="4.0838">
        <ele>192</ele>
        <time>2024-03-19T06:40:45Z</time>
      </trkpt>
      <trkpt lat="50.12915" lon="4.08384">
        <ele>192.4</ele>
        <time>2024-03-19T06:40:46Z</time>
      </trkpt>
      <trkpt lat="50.12919" lon="4.08388">
        <ele>192.8</ele>
        <time>2024-03-19T06:40:47Z</time>
      </trkpt>
      <trkpt lat="50.12923" lon="4.08393">
        <ele>193.2</ele>
        <time>2024-03-19T06:40:48Z</time>
      </trkpt>
      <trkpt lat="50.12927" lon="4.08397">
        <ele>193.4</ele>
        <time>2024-03-19T06:40:49Z</time>
      </trkpt>
      <trkpt lat="50.12931" lon="4.08402">
        <ele>193.8</ele>
        <time>2024-03-19T06:40:50Z</time>
      </trkpt>
      <trkpt lat="50.12935" lon="4.08406">
        <ele>194</ele>
        <time>2024-03-19T06:40:51Z</time>
      </trkpt>
      <trkpt lat="50.12938" lon="4.0841">
        <ele>194.6</ele>
        <time>2024-03-19T06:40:52Z</time>
      </trkpt>
      <trkpt lat="50.12942" lon="4.08414">
        <ele>194.8</ele>
        <time>2024-03-19T06:40:53Z</time>
      </trkpt>
      <trkpt lat="50.12946" lon="4.08418">
        <ele>195.4</ele>
        <time>2024-03-19T06:40:54Z</time>
      </trkpt>
      <trkpt lat="50.12951" lon="4.08422">
        <ele>195.6</ele>
        <time>2024-03-19T06:40:55Z</time>
      </trkpt>
      <trkpt lat="50.12955" lon="4.08425">
        <ele>195.8</ele>
        <time>2024-03-19T06:40:56Z</time>
      </trkpt>
      <trkpt lat="50.12959" lon="4.08428">
        <ele>196</ele>
        <time>2024-03-19T06:40:57Z</time>
      </trkpt>
      <trkpt lat="50.12964" lon="4.0843">
        <ele>196.2</ele>
        <time>2024-03-19T06:40:58Z</time>
      </trkpt>
      <trkpt lat="50.12968" lon="4.08432">
        <ele>196.2</ele>
        <time>2024-03-19T06:40:59Z</time>
      </trkpt>
      <trkpt lat="50.12973" lon="4.08433">
        <ele>196.4</ele>
        <time>2024-03-19T06:41:00Z</time>
      </trkpt>
      <trkpt lat="50.12977" lon="4.08434">
        <ele>196.8</ele>
        <time>2024-03-19T06:41:01Z</time>
      </trkpt>
      <trkpt lat="50.12982" lon="4.08435">
        <ele>197.4</ele>
        <time>2024-03-19T06:41:02Z</time>
      </trkpt>
      <trkpt lat="50.12986" lon="4.08435">
        <ele>197.8</ele>
        <time>2024-03-19T06:41:03Z</time>
      </trkpt>
      <trkpt lat="50.12991" lon="4.08434">
        <ele>198.2</ele>
        <time>2024-03-19T06:41:04Z</time>
      </trkpt>
      <trkpt lat="50.12995" lon="4.08433">
        <ele>198.4</ele>
        <time>2024-03-19T06:41:05Z</time>
      </trkpt>
      <trkpt lat="50.13" lon="4.08431">
        <ele>198.8</ele>
        <time>2024-03-19T06:41:06Z</time>
      </trkpt>
      <trkpt lat="50.13004" lon="4.08429">
        <ele>199</ele>
        <time>2024-03-19T06:41:07Z</time>
      </trkpt>
      <trkpt lat="50.13008" lon="4.08427">
        <ele>199.6</ele>
        <time>2024-03-19T06:41:08Z</time>
      </trkpt>
      <trkpt lat="50.13012" lon="4.08424">
        <ele>199.8</ele>
        <time>2024-03-19T06:41:09Z</time>
      </trkpt>
      <trkpt lat="50.13016" lon="4.08421">
        <ele>200.2</ele>
        <time>2024-03-19T06:41:10Z</time>
      </trkpt>
      <trkpt lat="50.13021" lon="4.08418">
        <ele>200.8</ele>
        <time>2024-03-19T06:41:11Z</time>
      </trkpt>
      <trkpt lat="50.13025" lon="4.08415">
        <ele>201.2</ele>
        <time>2024-03-19T06:41:12Z</time>
      </trkpt>
      <trkpt lat="50.13029" lon="4.08412">
        <ele>201.6</ele>
        <time>2024-03-19T06:41:13Z</time>
      </trkpt>
      <trkpt lat="50.13033" lon="4.08408">
        <ele>202</ele>
        <time>2024-03-19T06:41:14Z</time>
      </trkpt>
      <trkpt lat="50.13038" lon="4.08405">
        <ele>202</ele>
        <time>2024-03-19T06:41:15Z</time>
      </trkpt>
      <trkpt lat="50.13042" lon="4.08402">
        <ele>202.4</ele>
        <time>2024-03-19T06:41:16Z</time>
      </trkpt>
      <trkpt lat="50.13046" lon="4.08398">
        <ele>202.8</ele>
        <time>2024-03-19T06:41:17Z</time>
      </trkpt>
      <trkpt lat="50.1305" lon="4.08395">
        <ele>203</ele>
        <time>2024-03-19T06:41:18Z</time>
      </trkpt>
      <trkpt lat="50.13054" lon="4.08392">
        <ele>203.4</ele>
        <time>2024-03-19T06:41:19Z</time>
      </trkpt>
      <trkpt lat="50.13058" lon="4.08388">
        <ele>203.8</ele>
        <time>2024-03-19T06:41:20Z</time>
      </trkpt>
      <trkpt lat="50.13062" lon="4.08385">
        <ele>204.2</ele>
        <time>2024-03-19T06:41:21Z</time>
      </trkpt>
      <trkpt lat="50.13066" lon="4.08382">
        <ele>204.6</ele>
        <time>2024-03-19T06:41:22Z</time>
      </trkpt>
      <trkpt lat="50.1307" lon="4.08378">
        <ele>204.8</ele>
        <time>2024-03-19T06:41:23Z</time>
      </trkpt>
      <trkpt lat="50.13074" lon="4.08374">
        <ele>205.2</ele>
        <time>2024-03-19T06:41:24Z</time>
      </trkpt>
      <trkpt lat="50.13078" lon="4.0837">
        <ele>205.4</ele>
        <time>2024-03-19T06:41:25Z</time>
      </trkpt>
      <trkpt lat="50.13082" lon="4.08366">
        <ele>205.8</ele>
        <time>2024-03-19T06:41:26Z</time>
      </trkpt>
      <trkpt lat="50.13086" lon="4.08363">
        <ele>205.8</ele>
        <time>2024-03-19T06:41:27Z</time>
      </trkpt>
      <trkpt lat="50.1309" lon="4.08359">
        <ele>206</ele>
        <time>2024-03-19T06:41:28Z</time>
      </trkpt>
      <trkpt lat="50.13094" lon="4.08356">
        <ele>206.2</ele>
        <time>2024-03-19T06:41:29Z</time>
      </trkpt>
      <trkpt lat="50.13099" lon="4.08353">
        <ele>206.6</ele>
        <time>2024-03-19T06:41:30Z</time>
      </trkpt>
      <trkpt lat="50.13103" lon="4.0835">
        <ele>206.8</ele>
        <time>2024-03-19T06:41:31Z</time>
      </trkpt>
      <trkpt lat="50.13107" lon="4.08347">
        <ele>206.8</ele>
        <time>2024-03-19T06:41:32Z</time>
      </trkpt>
      <trkpt lat="50.13111" lon="4.08344">
        <ele>207</ele>
        <time>2024-03-19T06:41:33Z</time>
      </trkpt>
      <trkpt lat="50.13115" lon="4.08342">
        <ele>207.2</ele>
        <time>2024-03-19T06:41:34Z</time>
      </trkpt>
      <trkpt lat="50.13119" lon="4.0834">
        <ele>207.6</ele>
        <time>2024-03-19T06:41:35Z</time>
      </trkpt>
      <trkpt lat="50.13124" lon="4.08338">
        <ele>207.8</ele>
        <time>2024-03-19T06:41:36Z</time>
      </trkpt>
      <trkpt lat="50.13128" lon="4.08335">
        <ele>208</ele>
        <time>2024-03-19T06:41:37Z</time>
      </trkpt>
      <trkpt lat="50.13133" lon="4.08334">
        <ele>208.4</ele>
        <time>2024-03-19T06:41:38Z</time>
      </trkpt>
      <trkpt lat="50.13137" lon="4.08333">
        <ele>208.6</ele>
        <time>2024-03-19T06:41:39Z</time>
      </trkpt>
      <trkpt lat="50.13142" lon="4.08332">
        <ele>208.6</ele>
        <time>2024-03-19T06:41:40Z</time>
      </trkpt>
      <trkpt lat="50.13146" lon="4.08331">
        <ele>208.6</ele>
        <time>2024-03-19T06:41:41Z</time>
      </trkpt>
      <trkpt lat="50.1315" lon="4.0833">
        <ele>208.8</ele>
        <time>2024-03-19T06:41:42Z</time>
      </trkpt>
      <trkpt lat="50.13155" lon="4.0833">
        <ele>209.2</ele>
        <time>2024-03-19T06:41:43Z</time>
      </trkpt>
      <trkpt lat="50.13159" lon="4.08331">
        <ele>209.2</ele>
        <time>2024-03-19T06:41:44Z</time>
      </trkpt>
      <trkpt lat="50.13164" lon="4.08332">
        <ele>209.8</ele>
        <time>2024-03-19T06:41:45Z</time>
      </trkpt>
      <trkpt lat="50.13168" lon="4.08333">
        <ele>210</ele>
        <time>2024-03-19T06:41:46Z</time>
      </trkpt>
      <trkpt lat="50.13173" lon="4.08334">
        <ele>210.4</ele>
        <time>2024-03-19T06:41:47Z</time>
      </trkpt>
      <trkpt lat="50.13177" lon="4.08335">
        <ele>210.4</ele>
        <time>2024-03-19T06:41:48Z</time>
      </trkpt>
      <trkpt lat="50.13182" lon="4.08336">
        <ele>210.8</ele>
        <time>2024-03-19T06:41:49Z</time>
      </trkpt>
      <trkpt lat="50.13187" lon="4.08337">
        <ele>211.2</ele>
        <time>2024-03-19T06:41:50Z</time>
      </trkpt>
      <trkpt lat="50.13192" lon="4.08338">
        <ele>211.6</ele>
        <time>2024-03-19T06:41:51Z</time>
      </trkpt>
      <trkpt lat="50.13197" lon="4.0834">
        <ele>212.6</ele>
        <time>2024-03-19T06:41:52Z</time>
      </trkpt>
      <trkpt lat="50.13202" lon="4.08341">
        <ele>213.2</ele>
        <time>2024-03-19T06:41:53Z</time>
      </trkpt>
      <trkpt lat="50.13207" lon="4.08342">
        <ele>214</ele>
        <time>2024-03-19T06:41:54Z</time>
      </trkpt>
      <trkpt lat="50.13212" lon="4.08343">
        <ele>214.2</ele>
        <time>2024-03-19T06:41:55Z</time>
      </trkpt>
      <trkpt lat="50.13217" lon="4.08344">
        <ele>214.4</ele>
        <time>2024-03-19T06:41:56Z</time>
      </trkpt>
      <trkpt lat="50.13223" lon="4.08346">
        <ele>214.6</ele>
        <time>2024-03-19T06:41:57Z</time>
      </trkpt>
      <trkpt lat="50.13228" lon="4.08347">
        <ele>215</ele>
        <time>2024-03-19T06:41:58Z</time>
      </trkpt>
      <trkpt lat="50.13233" lon="4.08348">
        <ele>215.2</ele>
        <time>2024-03-19T06:41:59Z</time>
      </trkpt>
      <trkpt lat="50.13239" lon="4.0835">
        <ele>215.6</ele>
        <time>2024-03-19T06:42:00Z</time>
      </trkpt>
      <trkpt lat="50.13244" lon="4.08351">
        <ele>215.8</ele>
        <time>2024-03-19T06:42:01Z</time>
      </trkpt>
      <trkpt lat="50.1325" lon="4.08353">
        <ele>216.4</ele>
        <time>2024-03-19T06:42:02Z</time>
      </trkpt>
      <trkpt lat="50.13256" lon="4.08354">
        <ele>216.8</ele>
        <time>2024-03-19T06:42:03Z</time>
      </trkpt>
      <trkpt lat="50.13261" lon="4.08356">
        <ele>216.8</ele>
        <time>2024-03-19T06:42:04Z</time>
      </trkpt>
      <trkpt lat="50.13267" lon="4.08357">
        <ele>216.8</ele>
        <time>2024-03-19T06:42:05Z</time>
      </trkpt>
      <trkpt lat="50.13273" lon="4.08359">
        <ele>216.8</ele>
        <time>2024-03-19T06:42:06Z</time>
      </trkpt>
      <trkpt lat="50.13278" lon="4.0836">
        <ele>217</ele>
        <time>2024-03-19T06:42:07Z</time>
      </trkpt>
      <trkpt lat="50.13283" lon="4.08361">
        <ele>217.2</ele>
        <time>2024-03-19T06:42:08Z</time>
      </trkpt>
      <trkpt lat="50.13289" lon="4.08363">
        <ele>217.4</ele>
        <time>2024-03-19T06:42:09Z</time>
      </trkpt>
      <trkpt lat="50.13294" lon="4.08364">
        <ele>217.6</ele>
        <time>2024-03-19T06:42:10Z</time>
      </trkpt>
      <trkpt lat="50.13299" lon="4.08366">
        <ele>217.8</ele>
        <time>2024-03-19T06:42:11Z</time>
      </trkpt>
      <trkpt lat="50.13304" lon="4.08367">
        <ele>218</ele>
        <time>2024-03-19T06:42:12Z</time>
      </trkpt>
      <trkpt lat="50.13309" lon="4.08368">
        <ele>218.4</ele>
        <time>2024-03-19T06:42:13Z</time>
      </trkpt>
      <trkpt lat="50.13315" lon="4.08369">
        <ele>218.6</ele>
        <time>2024-03-19T06:42:14Z</time>
      </trkpt>
      <trkpt lat="50.1332" lon="4.08371">
        <ele>218.8</ele>
        <time>2024-03-19T06:42:15Z</time>
      </trkpt>
      <trkpt lat="50.13325" lon="4.08372">
        <ele>219</ele>
        <time>2024-03-19T06:42:16Z</time>
      </trkpt>
      <trkpt lat="50.13331" lon="4.08372">
        <ele>219</ele>
        <time>2024-03-19T06:42:17Z</time>
      </trkpt>
      <trkpt lat="50.13336" lon="4.08373">
        <ele>219.2</ele>
        <time>2024-03-19T06:42:18Z</time>
      </trkpt>
      <trkpt lat="50.13342" lon="4.08373">
        <ele>219.4</ele>
        <time>2024-03-19T06:42:19Z</time>
      </trkpt>
      <trkpt lat="50.13347" lon="4.08373">
        <ele>219.4</ele>
        <time>2024-03-19T06:42:20Z</time>
      </trkpt>
      <trkpt lat="50.13353" lon="4.08373">
        <ele>219.8</ele>
        <time>2024-03-19T06:42:21Z</time>
      </trkpt>
      <trkpt lat="50.13358" lon="4.08372">
        <ele>220</ele>
        <time>2024-03-19T06:42:22Z</time>
      </trkpt>
      <trkpt lat="50.13363" lon="4.08372">
        <ele>220</ele>
        <time>2024-03-19T06:42:23Z</time>
      </trkpt>
      <trkpt lat="50.13368" lon="4.08371">
        <ele>220.2</ele>
        <time>2024-03-19T06:42:24Z</time>
      </trkpt>
      <trkpt lat="50.13374" lon="4.0837">
        <ele>220.6</ele>
        <time>2024-03-19T06:42:25Z</time>
      </trkpt>
      <trkpt lat="50.13379" lon="4.08368">
        <ele>220.4</ele>
        <time>2024-03-19T06:42:26Z</time>
      </trkpt>
      <trkpt lat="50.13385" lon="4.08366">
        <ele>220.6</ele>
        <time>2024-03-19T06:42:27Z</time>
      </trkpt>
      <trkpt lat="50.13391" lon="4.08364">
        <ele>220.6</ele>
        <time>2024-03-19T06:42:28Z</time>
      </trkpt>
      <trkpt lat="50.13397" lon="4.08362">
        <ele>220.4</ele>
        <time>2024-03-19T06:42:29Z</time>
      </trkpt>
      <trkpt lat="50.13403" lon="4.0836">
        <ele>220.4</ele>
        <time>2024-03-19T06:42:30Z</time>
      </trkpt>
      <trkpt lat="50.13409" lon="4.08357">
        <ele>220.6</ele>
        <time>2024-03-19T06:42:31Z</time>
      </trkpt>
      <trkpt lat="50.13415" lon="4.08355">
        <ele>220.6</ele>
        <time>2024-03-19T06:42:32Z</time>
      </trkpt>
      <trkpt lat="50.13422" lon="4.08353">
        <ele>220.6</ele>
        <time>2024-03-19T06:42:33Z</time>
      </trkpt>
      <trkpt lat="50.13428" lon="4.08351">
        <ele>220.6</ele>
        <time>2024-03-19T06:42:34Z</time>
      </trkpt>
      <trkpt lat="50.13434" lon="4.08348">
        <ele>220.4</ele>
        <time>2024-03-19T06:42:35Z</time>
      </trkpt>
      <trkpt lat="50.1344" lon="4.08346">
        <ele>220.2</ele>
        <time>2024-03-19T06:42:36Z</time>
      </trkpt>
      <trkpt lat="50.13446" lon="4.08344">
        <ele>220.4</ele>
        <time>2024-03-19T06:42:37Z</time>
      </trkpt>
      <trkpt lat="50.13453" lon="4.08342">
        <ele>220</ele>
        <time>2024-03-19T06:42:38Z</time>
      </trkpt>
      <trkpt lat="50.13459" lon="4.0834">
        <ele>220</ele>
        <time>2024-03-19T06:42:39Z</time>
      </trkpt>
      <trkpt lat="50.13465" lon="4.08338">
        <ele>220</ele>
        <time>2024-03-19T06:42:40Z</time>
      </trkpt>
      <trkpt lat="50.13471" lon="4.08336">
        <ele>220</ele>
        <time>2024-03-19T06:42:41Z</time>
      </trkpt>
      <trkpt lat="50.13477" lon="4.08334">
        <ele>220</ele>
        <time>2024-03-19T06:42:42Z</time>
      </trkpt>
      <trkpt lat="50.13483" lon="4.08332">
        <ele>219.8</ele>
        <time>2024-03-19T06:42:43Z</time>
      </trkpt>
      <trkpt lat="50.13489" lon="4.0833">
        <ele>219.8</ele>
        <time>2024-03-19T06:42:44Z</time>
      </trkpt>
      <trkpt lat="50.13494" lon="4.08328">
        <ele>220</ele>
        <time>2024-03-19T06:42:45Z</time>
      </trkpt>
      <trkpt lat="50.135" lon="4.08326">
        <ele>219.8</ele>
        <time>2024-03-19T06:42:46Z</time>
      </trkpt>
      <trkpt lat="50.13505" lon="4.08324">
        <ele>219.8</ele>
        <time>2024-03-19T06:42:47Z</time>
      </trkpt>
      <trkpt lat="50.1351" lon="4.08323">
        <ele>219.8</ele>
        <time>2024-03-19T06:42:48Z</time>
      </trkpt>
      <trkpt lat="50.13515" lon="4.08321">
        <ele>219.8</ele>
        <time>2024-03-19T06:42:49Z</time>
      </trkpt>
      <trkpt lat="50.1352" lon="4.0832">
        <ele>219.8</ele>
        <time>2024-03-19T06:42:50Z</time>
      </trkpt>
      <trkpt lat="50.13525" lon="4.08319">
        <ele>219.8</ele>
        <time>2024-03-19T06:42:51Z</time>
      </trkpt>
      <trkpt lat="50.1353" lon="4.08318">
        <ele>219.8</ele>
        <time>2024-03-19T06:42:52Z</time>
      </trkpt>
      <trkpt lat="50.13535" lon="4.08317">
        <ele>219.8</ele>
        <time>2024-03-19T06:42:53Z</time>
      </trkpt>
      <trkpt lat="50.1354" lon="4.08317">
        <ele>219.8</ele>
        <time>2024-03-19T06:42:54Z</time>
      </trkpt>
      <trkpt lat="50.13544" lon="4.08316">
        <ele>219.8</ele>
        <time>2024-03-19T06:42:55Z</time>
      </trkpt>
      <trkpt lat="50.13549" lon="4.08315">
        <ele>220</ele>
        <time>2024-03-19T06:42:56Z</time>
      </trkpt>
      <trkpt lat="50.13554" lon="4.08314">
        <ele>220.4</ele>
        <time>2024-03-19T06:42:57Z</time>
      </trkpt>
      <trkpt lat="50.13559" lon="4.08313">
        <ele>221</ele>
        <time>2024-03-19T06:42:58Z</time>
      </trkpt>
      <trkpt lat="50.13563" lon="4.08312">
        <ele>221.4</ele>
        <time>2024-03-19T06:42:59Z</time>
      </trkpt>
      <trkpt lat="50.13568" lon="4.08312">
        <ele>221.6</ele>
        <time>2024-03-19T06:43:00Z</time>
      </trkpt>
      <trkpt lat="50.13573" lon="4.08311">
        <ele>221.8</ele>
        <time>2024-03-19T06:43:01Z</time>
      </trkpt>
      <trkpt lat="50.13578" lon="4.0831">
        <ele>222</ele>
        <time>2024-03-19T06:43:02Z</time>
      </trkpt>
      <trkpt lat="50.13583" lon="4.08309">
        <ele>222.2</ele>
        <time>2024-03-19T06:43:03Z</time>
      </trkpt>
      <trkpt lat="50.13587" lon="4.08309">
        <ele>222</ele>
        <time>2024-03-19T06:43:04Z</time>
      </trkpt>
      <trkpt lat="50.13592" lon="4.08308">
        <ele>222.2</ele>
        <time>2024-03-19T06:43:05Z</time>
      </trkpt>
      <trkpt lat="50.13597" lon="4.08307">
        <ele>222.4</ele>
        <time>2024-03-19T06:43:06Z</time>
      </trkpt>
      <trkpt lat="50.13601" lon="4.08306">
        <ele>222.4</ele>
        <time>2024-03-19T06:43:07Z</time>
      </trkpt>
      <trkpt lat="50.13606" lon="4.08306">
        <ele>222.8</ele>
        <time>2024-03-19T06:43:08Z</time>
      </trkpt>
      <trkpt lat="50.1361" lon="4.08305">
        <ele>222.8</ele>
        <time>2024-03-19T06:43:09Z</time>
      </trkpt>
      <trkpt lat="50.13615" lon="4.08305">
        <ele>223</ele>
        <time>2024-03-19T06:43:10Z</time>
      </trkpt>
      <trkpt lat="50.13619" lon="4.08305">
        <ele>223</ele>
        <time>2024-03-19T06:43:11Z</time>
      </trkpt>
      <trkpt lat="50.13622" lon="4.08308">
        <ele>223.2</ele>
        <time>2024-03-19T06:43:12Z</time>
      </trkpt>
      <trkpt lat="50.13625" lon="4.08312">
        <ele>223.4</ele>
        <time>2024-03-19T06:43:13Z</time>
      </trkpt>
      <trkpt lat="50.13627" lon="4.08317">
        <ele>223.4</ele>
        <time>2024-03-19T06:43:14Z</time>
      </trkpt>
      <trkpt lat="50.13629" lon="4.08322">
        <ele>223.8</ele>
        <time>2024-03-19T06:43:15Z</time>
      </trkpt>
      <trkpt lat="50.13631" lon="4.08328">
        <ele>223.6</ele>
        <time>2024-03-19T06:43:16Z</time>
      </trkpt>
      <trkpt lat="50.13632" lon="4.08334">
        <ele>223.8</ele>
        <time>2024-03-19T06:43:17Z</time>
      </trkpt>
      <trkpt lat="50.13633" lon="4.08341">
        <ele>223.8</ele>
        <time>2024-03-19T06:43:18Z</time>
      </trkpt>
      <trkpt lat="50.13634" lon="4.08347">
        <ele>224.2</ele>
        <time>2024-03-19T06:43:19Z</time>
      </trkpt>
      <trkpt lat="50.13635" lon="4.08353">
        <ele>224.6</ele>
        <time>2024-03-19T06:43:20Z</time>
      </trkpt>
      <trkpt lat="50.13635" lon="4.0836">
        <ele>224.8</ele>
        <time>2024-03-19T06:43:21Z</time>
      </trkpt>
      <trkpt lat="50.13634" lon="4.08367">
        <ele>224.8</ele>
        <time>2024-03-19T06:43:22Z</time>
      </trkpt>
      <trkpt lat="50.13632" lon="4.08373">
        <ele>224.8</ele>
        <time>2024-03-19T06:43:23Z</time>
      </trkpt>
      <trkpt lat="50.1363" lon="4.0838">
        <ele>224.8</ele>
        <time>2024-03-19T06:43:24Z</time>
      </trkpt>
      <trkpt lat="50.13628" lon="4.08387">
        <ele>224.8</ele>
        <time>2024-03-19T06:43:25Z</time>
      </trkpt>
      <trkpt lat="50.13627" lon="4.08395">
        <ele>224.8</ele>
        <time>2024-03-19T06:43:26Z</time>
      </trkpt>
      <trkpt lat="50.13626" lon="4.08403">
        <ele>224.8</ele>
        <time>2024-03-19T06:43:27Z</time>
      </trkpt>
      <trkpt lat="50.13627" lon="4.08411">
        <ele>224.8</ele>
        <time>2024-03-19T06:43:28Z</time>
      </trkpt>
      <trkpt lat="50.13627" lon="4.0842">
        <ele>224.8</ele>
        <time>2024-03-19T06:43:29Z</time>
      </trkpt>
      <trkpt lat="50.13626" lon="4.08428">
        <ele>224.8</ele>
        <time>2024-03-19T06:43:30Z</time>
      </trkpt>
      <trkpt lat="50.13625" lon="4.08437">
        <ele>224.2</ele>
        <time>2024-03-19T06:43:31Z</time>
      </trkpt>
      <trkpt lat="50.13623" lon="4.08446">
        <ele>223.6</ele>
        <time>2024-03-19T06:43:32Z</time>
      </trkpt>
      <trkpt lat="50.1362" lon="4.08454">
        <ele>223.2</ele>
        <time>2024-03-19T06:43:33Z</time>
      </trkpt>
      <trkpt lat="50.13616" lon="4.08462">
        <ele>223</ele>
        <time>2024-03-19T06:43:34Z</time>
      </trkpt>
      <trkpt lat="50.13611" lon="4.0847">
        <ele>222.4</ele>
        <time>2024-03-19T06:43:35Z</time>
      </trkpt>
      <trkpt lat="50.13606" lon="4.08479">
        <ele>222</ele>
        <time>2024-03-19T06:43:36Z</time>
      </trkpt>
      <trkpt lat="50.13601" lon="4.08489">
        <ele>221.8</ele>
        <time>2024-03-19T06:43:37Z</time>
      </trkpt>
      <trkpt lat="50.13595" lon="4.08499">
        <ele>221.8</ele>
        <time>2024-03-19T06:43:38Z</time>
      </trkpt>
      <trkpt lat="50.1359" lon="4.0851">
        <ele>221.6</ele>
        <time>2024-03-19T06:43:39Z</time>
      </trkpt>
      <trkpt lat="50.13584" lon="4.08521">
        <ele>221</ele>
        <time>2024-03-19T06:43:40Z</time>
      </trkpt>
      <trkpt lat="50.13579" lon="4.08531">
        <ele>220.8</ele>
        <time>2024-03-19T06:43:41Z</time>
      </trkpt>
      <trkpt lat="50.13574" lon="4.0854">
        <ele>220.6</ele>
        <time>2024-03-19T06:43:42Z</time>
      </trkpt>
      <trkpt lat="50.13569" lon="4.08549">
        <ele>220.2</ele>
        <time>2024-03-19T06:43:43Z</time>
      </trkpt>
      <trkpt lat="50.13566" lon="4.08557">
        <ele>219.6</ele>
        <time>2024-03-19T06:43:44Z</time>
      </trkpt>
      <trkpt lat="50.13561" lon="4.08561">
        <ele>218.6</ele>
        <time>2024-03-19T06:43:45Z</time>
      </trkpt>
      <trkpt lat="50.13557" lon="4.08561">
        <ele>218.6</ele>
        <time>2024-03-19T06:43:46Z</time>
      </trkpt>
      <trkpt lat="50.13555" lon="4.08557">
        <ele>217.8</ele>
        <time>2024-03-19T06:43:47Z</time>
      </trkpt>
      <trkpt lat="50.13553" lon="4.0855">
        <ele>217.4</ele>
        <time>2024-03-19T06:43:48Z</time>
      </trkpt>
      <trkpt lat="50.13552" lon="4.08543">
        <ele>216.8</ele>
        <time>2024-03-19T06:43:49Z</time>
      </trkpt>
      <trkpt lat="50.13552" lon="4.08536">
        <ele>216</ele>
        <time>2024-03-19T06:43:50Z</time>
      </trkpt>
      <trkpt lat="50.13551" lon="4.08528">
        <ele>215.2</ele>
        <time>2024-03-19T06:43:51Z</time>
      </trkpt>
      <trkpt lat="50.1355" lon="4.08521">
        <ele>215</ele>
        <time>2024-03-19T06:43:52Z</time>
      </trkpt>
      <trkpt lat="50.13549" lon="4.08514">
        <ele>214.8</ele>
        <time>2024-03-19T06:43:53Z</time>
      </trkpt>
      <trkpt lat="50.13548" lon="4.08506">
        <ele>214.8</ele>
        <time>2024-03-19T06:43:54Z</time>
      </trkpt>
      <trkpt lat="50.13547" lon="4.08499">
        <ele>214.6</ele>
        <time>2024-03-19T06:43:55Z</time>
      </trkpt>
      <trkpt lat="50.13546" lon="4.08492">
        <ele>214.6</ele>
        <time>2024-03-19T06:43:56Z</time>
      </trkpt>
      <trkpt lat="50.13545" lon="4.08485">
        <ele>214.6</ele>
        <time>2024-03-19T06:43:57Z</time>
      </trkpt>
      <trkpt lat="50.13544" lon="4.08479">
        <ele>214.6</ele>
        <time>2024-03-19T06:43:58Z</time>
      </trkpt>
      <trkpt lat="50.13542" lon="4.08474">
        <ele>214.6</ele>
        <time>2024-03-19T06:43:59Z</time>
      </trkpt>
      <trkpt lat="50.1354" lon="4.0847">
        <ele>214.6</ele>
        <time>2024-03-19T06:44:00Z</time>
      </trkpt>
      <trkpt lat="50.13538" lon="4.08466">
        <ele>214.8</ele>
        <time>2024-03-19T06:44:01Z</time>
      </trkpt>
      <trkpt lat="50.13535" lon="4.08463">
        <ele>214.8</ele>
        <time>2024-03-19T06:44:02Z</time>
      </trkpt>
      <trkpt lat="50.13532" lon="4.08461">
        <ele>214.6</ele>
        <time>2024-03-19T06:44:03Z</time>
      </trkpt>
      <trkpt lat="50.13504" lon="4.08454">
        <ele>220.8</ele>
        <time>2024-03-19T14:29:41Z</time>
      </trkpt>
      <trkpt lat="50.13505" lon="4.08456">
        <ele>217.6</ele>
        <time>2024-03-19T14:29:42Z</time>
      </trkpt>
      <trkpt lat="50.13507" lon="4.08458">
        <ele>217.6</ele>
        <time>2024-03-19T14:29:43Z</time>
      </trkpt>
      <trkpt lat="50.13509" lon="4.08459">
        <ele>217.6</ele>
        <time>2024-03-19T14:29:44Z</time>
      </trkpt>
      <trkpt lat="50.13512" lon="4.08461">
        <ele>217.6</ele>
        <time>2024-03-19T14:29:45Z</time>
      </trkpt>
      <trkpt lat="50.13514" lon="4.08463">
        <ele>217.4</ele>
        <time>2024-03-19T14:29:46Z</time>
      </trkpt>
      <trkpt lat="50.13517" lon="4.08467">
        <ele>217.4</ele>
        <time>2024-03-19T14:29:47Z</time>
      </trkpt>
      <trkpt lat="50.1352" lon="4.08472">
        <ele>217.6</ele>
        <time>2024-03-19T14:29:48Z</time>
      </trkpt>
      <trkpt lat="50.13522" lon="4.08479">
        <ele>217.6</ele>
        <time>2024-03-19T14:29:49Z</time>
      </trkpt>
      <trkpt lat="50.13524" lon="4.08486">
        <ele>217.4</ele>
        <time>2024-03-19T14:29:50Z</time>
      </trkpt>
      <trkpt lat="50.13525" lon="4.08494">
        <ele>217.4</ele>
        <time>2024-03-19T14:29:51Z</time>
      </trkpt>
      <trkpt lat="50.13527" lon="4.08503">
        <ele>217.4</ele>
        <time>2024-03-19T14:29:52Z</time>
      </trkpt>
      <trkpt lat="50.13528" lon="4.08513">
        <ele>217.2</ele>
        <time>2024-03-19T14:29:53Z</time>
      </trkpt>
      <trkpt lat="50.1353" lon="4.08523">
        <ele>217</ele>
        <time>2024-03-19T14:29:54Z</time>
      </trkpt>
      <trkpt lat="50.13531" lon="4.08533">
        <ele>217</ele>
        <time>2024-03-19T14:29:55Z</time>
      </trkpt>
      <trkpt lat="50.13533" lon="4.08543">
        <ele>217</ele>
        <time>2024-03-19T14:29:56Z</time>
      </trkpt>
      <trkpt lat="50.13534" lon="4.08552">
        <ele>217</ele>
        <time>2024-03-19T14:29:57Z</time>
      </trkpt>
      <trkpt lat="50.13535" lon="4.08561">
        <ele>216.6</ele>
        <time>2024-03-19T14:29:58Z</time>
      </trkpt>
      <trkpt lat="50.13535" lon="4.08561">
        <ele>216</ele>
        <time>2024-03-19T14:29:59Z</time>
      </trkpt>
      <trkpt lat="50.13537" lon="4.08574">
        <ele>215.2</ele>
        <time>2024-03-19T14:30:00Z</time>
      </trkpt>
      <trkpt lat="50.1354" lon="4.08577">
        <ele>215</ele>
        <time>2024-03-19T14:30:01Z</time>
      </trkpt>
      <trkpt lat="50.1354" lon="4.08577">
        <ele>214.4</ele>
        <time>2024-03-19T14:30:02Z</time>
      </trkpt>
      <trkpt lat="50.13545" lon="4.08573">
        <ele>214</ele>
        <time>2024-03-19T14:30:03Z</time>
      </trkpt>
      <trkpt lat="50.13548" lon="4.08569">
        <ele>213.4</ele>
        <time>2024-03-19T14:30:04Z</time>
      </trkpt>
      <trkpt lat="50.13551" lon="4.08565">
        <ele>212.8</ele>
        <time>2024-03-19T14:30:05Z</time>
      </trkpt>
      <trkpt lat="50.13554" lon="4.08561">
        <ele>212.8</ele>
        <time>2024-03-19T14:30:06Z</time>
      </trkpt>
      <trkpt lat="50.13556" lon="4.08557">
        <ele>212.6</ele>
        <time>2024-03-19T14:30:07Z</time>
      </trkpt>
      <trkpt lat="50.13558" lon="4.08554">
        <ele>212.6</ele>
        <time>2024-03-19T14:30:08Z</time>
      </trkpt>
      <trkpt lat="50.1356" lon="4.0855">
        <ele>212.4</ele>
        <time>2024-03-19T14:30:09Z</time>
      </trkpt>
      <trkpt lat="50.1356" lon="4.0855">
        <ele>212.6</ele>
        <time>2024-03-19T14:30:10Z</time>
      </trkpt>
      <trkpt lat="50.13563" lon="4.08547">
        <ele>212.6</ele>
        <time>2024-03-19T14:30:11Z</time>
      </trkpt>
      <trkpt lat="50.13564" lon="4.08544">
        <ele>212.6</ele>
        <time>2024-03-19T14:30:12Z</time>
      </trkpt>
      <trkpt lat="50.13566" lon="4.08541">
        <ele>212.6</ele>
        <time>2024-03-19T14:30:13Z</time>
      </trkpt>
      <trkpt lat="50.13568" lon="4.08539">
        <ele>212.6</ele>
        <time>2024-03-19T14:30:14Z</time>
      </trkpt>
      <trkpt lat="50.13569" lon="4.08537">
        <ele>212.6</ele>
        <time>2024-03-19T14:30:15Z</time>
      </trkpt>
      <trkpt lat="50.1357" lon="4.08534">
        <ele>213</ele>
        <time>2024-03-19T14:30:16Z</time>
      </trkpt>
      <trkpt lat="50.13574" lon="4.08528">
        <ele>213.6</ele>
        <time>2024-03-19T14:30:17Z</time>
      </trkpt>
      <trkpt lat="50.13574" lon="4.08528">
        <ele>214</ele>
        <time>2024-03-19T14:30:18Z</time>
      </trkpt>
      <trkpt lat="50.13576" lon="4.08525">
        <ele>214.4</ele>
        <time>2024-03-19T14:30:19Z</time>
      </trkpt>
      <trkpt lat="50.1358" lon="4.08518">
        <ele>214.6</ele>
        <time>2024-03-19T14:30:20Z</time>
      </trkpt>
      <trkpt lat="50.1358" lon="4.08518">
        <ele>214.8</ele>
        <time>2024-03-19T14:30:21Z</time>
      </trkpt>
      <trkpt lat="50.13582" lon="4.08514">
        <ele>215</ele>
        <time>2024-03-19T14:30:22Z</time>
      </trkpt>
      <trkpt lat="50.13584" lon="4.0851">
        <ele>215.2</ele>
        <time>2024-03-19T14:30:23Z</time>
      </trkpt>
      <trkpt lat="50.13586" lon="4.08507">
        <ele>215.4</ele>
        <time>2024-03-19T14:30:24Z</time>
      </trkpt>
      <trkpt lat="50.13589" lon="4.08503">
        <ele>215.6</ele>
        <time>2024-03-19T14:30:25Z</time>
      </trkpt>
      <trkpt lat="50.13591" lon="4.085">
        <ele>215.8</ele>
        <time>2024-03-19T14:30:26Z</time>
      </trkpt>
      <trkpt lat="50.13593" lon="4.08496">
        <ele>215.8</ele>
        <time>2024-03-19T14:30:27Z</time>
      </trkpt>
      <trkpt lat="50.13595" lon="4.08492">
        <ele>216</ele>
        <time>2024-03-19T14:30:28Z</time>
      </trkpt>
      <trkpt lat="50.13597" lon="4.08488">
        <ele>216</ele>
        <time>2024-03-19T14:30:29Z</time>
      </trkpt>
      <trkpt lat="50.13599" lon="4.08485">
        <ele>216</ele>
        <time>2024-03-19T14:30:30Z</time>
      </trkpt>
      <trkpt lat="50.13601" lon="4.08481">
        <ele>216.2</ele>
        <time>2024-03-19T14:30:31Z</time>
      </trkpt>
      <trkpt lat="50.13603" lon="4.08477">
        <ele>216.4</ele>
        <time>2024-03-19T14:30:32Z</time>
      </trkpt>
      <trkpt lat="50.13606" lon="4.08474">
        <ele>217</ele>
        <time>2024-03-19T14:30:33Z</time>
      </trkpt>
      <trkpt lat="50.13608" lon="4.0847">
        <ele>217.6</ele>
        <time>2024-03-19T14:30:34Z</time>
      </trkpt>
      <trkpt lat="50.1361" lon="4.08466">
        <ele>217.8</ele>
        <time>2024-03-19T14:30:35Z</time>
      </trkpt>
      <trkpt lat="50.13612" lon="4.08462">
        <ele>218.2</ele>
        <time>2024-03-19T14:30:36Z</time>
      </trkpt>
      <trkpt lat="50.13615" lon="4.08458">
        <ele>218.4</ele>
        <time>2024-03-19T14:30:37Z</time>
      </trkpt>
      <trkpt lat="50.13617" lon="4.08453">
        <ele>218.6</ele>
        <time>2024-03-19T14:30:38Z</time>
      </trkpt>
      <trkpt lat="50.13619" lon="4.08448">
        <ele>218.8</ele>
        <time>2024-03-19T14:30:39Z</time>
      </trkpt>
      <trkpt lat="50.1362" lon="4.08442">
        <ele>219</ele>
        <time>2024-03-19T14:30:40Z</time>
      </trkpt>
      <trkpt lat="50.13621" lon="4.08437">
        <ele>219.6</ele>
        <time>2024-03-19T14:30:41Z</time>
      </trkpt>
      <trkpt lat="50.13622" lon="4.08431">
        <ele>219.8</ele>
        <time>2024-03-19T14:30:42Z</time>
      </trkpt>
      <trkpt lat="50.13624" lon="4.08426">
        <ele>219.8</ele>
        <time>2024-03-19T14:30:43Z</time>
      </trkpt>
      <trkpt lat="50.13626" lon="4.08422">
        <ele>220.4</ele>
        <time>2024-03-19T14:30:44Z</time>
      </trkpt>
      <trkpt lat="50.13628" lon="4.08419">
        <ele>221</ele>
        <time>2024-03-19T14:30:45Z</time>
      </trkpt>
      <trkpt lat="50.13631" lon="4.08416">
        <ele>221.4</ele>
        <time>2024-03-19T14:30:46Z</time>
      </trkpt>
      <trkpt lat="50.13635" lon="4.08413">
        <ele>221.4</ele>
        <time>2024-03-19T14:30:47Z</time>
      </trkpt>
      <trkpt lat="50.13639" lon="4.08411">
        <ele>221.4</ele>
        <time>2024-03-19T14:30:48Z</time>
      </trkpt>
      <trkpt lat="50.13643" lon="4.08407">
        <ele>221.8</ele>
        <time>2024-03-19T14:30:49Z</time>
      </trkpt>
      <trkpt lat="50.13646" lon="4.08402">
        <ele>221.8</ele>
        <time>2024-03-19T14:30:50Z</time>
      </trkpt>
      <trkpt lat="50.13648" lon="4.08396">
        <ele>222</ele>
        <time>2024-03-19T14:30:51Z</time>
      </trkpt>
      <trkpt lat="50.13649" lon="4.08389">
        <ele>222</ele>
        <time>2024-03-19T14:30:52Z</time>
      </trkpt>
      <trkpt lat="50.13648" lon="4.08382">
        <ele>222.2</ele>
        <time>2024-03-19T14:30:53Z</time>
      </trkpt>
      <trkpt lat="50.13644" lon="4.08377">
        <ele>222.2</ele>
        <time>2024-03-19T14:30:54Z</time>
      </trkpt>
      <trkpt lat="50.1364" lon="4.08373">
        <ele>222.4</ele>
        <time>2024-03-19T14:30:55Z</time>
      </trkpt>
      <trkpt lat="50.13636" lon="4.08369">
        <ele>222.4</ele>
        <time>2024-03-19T14:30:56Z</time>
      </trkpt>
      <trkpt lat="50.13633" lon="4.08364">
        <ele>222.4</ele>
        <time>2024-03-19T14:30:57Z</time>
      </trkpt>
      <trkpt lat="50.1363" lon="4.08357">
        <ele>222.6</ele>
        <time>2024-03-19T14:30:58Z</time>
      </trkpt>
      <trkpt lat="50.13629" lon="4.0835">
        <ele>222.6</ele>
        <time>2024-03-19T14:30:59Z</time>
      </trkpt>
      <trkpt lat="50.13628" lon="4.08343">
        <ele>222.8</ele>
        <time>2024-03-19T14:31:00Z</time>
      </trkpt>
      <trkpt lat="50.13627" lon="4.08336">
        <ele>222.8</ele>
        <time>2024-03-19T14:31:01Z</time>
      </trkpt>
      <trkpt lat="50.13629" lon="4.08328">
        <ele>222.8</ele>
        <time>2024-03-19T14:31:02Z</time>
      </trkpt>
      <trkpt lat="50.13631" lon="4.08319">
        <ele>222.8</ele>
        <time>2024-03-19T14:31:03Z</time>
      </trkpt>
      <trkpt lat="50.13631" lon="4.08314">
        <ele>223</ele>
        <time>2024-03-19T14:31:04Z</time>
      </trkpt>
      <trkpt lat="50.13631" lon="4.0831">
        <ele>223</ele>
        <time>2024-03-19T14:31:05Z</time>
      </trkpt>
      <trkpt lat="50.1363" lon="4.08306">
        <ele>223.2</ele>
        <time>2024-03-19T14:31:06Z</time>
      </trkpt>
      <trkpt lat="50.13627" lon="4.08302">
        <ele>223.4</ele>
        <time>2024-03-19T14:31:07Z</time>
      </trkpt>
      <trkpt lat="50.13623" lon="4.08299">
        <ele>223.4</ele>
        <time>2024-03-19T14:31:08Z</time>
      </trkpt>
      <trkpt lat="50.13617" lon="4.08297">
        <ele>223.4</ele>
        <time>2024-03-19T14:31:09Z</time>
      </trkpt>
      <trkpt lat="50.13612" lon="4.08296">
        <ele>223.6</ele>
        <time>2024-03-19T14:31:10Z</time>
      </trkpt>
      <trkpt lat="50.13606" lon="4.08296">
        <ele>223.8</ele>
        <time>2024-03-19T14:31:11Z</time>
      </trkpt>
      <trkpt lat="50.136" lon="4.08297">
        <ele>223.6</ele>
        <time>2024-03-19T14:31:12Z</time>
      </trkpt>
      <trkpt lat="50.13594" lon="4.08298">
        <ele>223.6</ele>
        <time>2024-03-19T14:31:13Z</time>
      </trkpt>
      <trkpt lat="50.13587" lon="4.08299">
        <ele>223.6</ele>
        <time>2024-03-19T14:31:14Z</time>
      </trkpt>
      <trkpt lat="50.13581" lon="4.083">
        <ele>223.8</ele>
        <time>2024-03-19T14:31:15Z</time>
      </trkpt>
      <trkpt lat="50.13574" lon="4.08301">
        <ele>223.6</ele>
        <time>2024-03-19T14:31:16Z</time>
      </trkpt>
      <trkpt lat="50.13567" lon="4.08302">
        <ele>223.6</ele>
        <time>2024-03-19T14:31:17Z</time>
      </trkpt>
      <trkpt lat="50.1356" lon="4.08304">
        <ele>223.6</ele>
        <time>2024-03-19T14:31:18Z</time>
      </trkpt>
      <trkpt lat="50.13553" lon="4.08306">
        <ele>223.6</ele>
        <time>2024-03-19T14:31:19Z</time>
      </trkpt>
      <trkpt lat="50.13546" lon="4.08308">
        <ele>223.6</ele>
        <time>2024-03-19T14:31:20Z</time>
      </trkpt>
      <trkpt lat="50.13539" lon="4.08311">
        <ele>223.4</ele>
        <time>2024-03-19T14:31:21Z</time>
      </trkpt>
      <trkpt lat="50.13531" lon="4.08313">
        <ele>223.2</ele>
        <time>2024-03-19T14:31:22Z</time>
      </trkpt>
      <trkpt lat="50.13524" lon="4.08315">
        <ele>223.2</ele>
        <time>2024-03-19T14:31:23Z</time>
      </trkpt>
      <trkpt lat="50.13516" lon="4.08317">
        <ele>223</ele>
        <time>2024-03-19T14:31:24Z</time>
      </trkpt>
      <trkpt lat="50.13508" lon="4.0832">
        <ele>223</ele>
        <time>2024-03-19T14:31:25Z</time>
      </trkpt>
      <trkpt lat="50.135" lon="4.08322">
        <ele>223</ele>
        <time>2024-03-19T14:31:26Z</time>
      </trkpt>
      <trkpt lat="50.13491" lon="4.08325">
        <ele>222.8</ele>
        <time>2024-03-19T14:31:27Z</time>
      </trkpt>
      <trkpt lat="50.13483" lon="4.08327">
        <ele>222.2</ele>
        <time>2024-03-19T14:31:28Z</time>
      </trkpt>
      <trkpt lat="50.13474" lon="4.0833">
        <ele>221.8</ele>
        <time>2024-03-19T14:31:29Z</time>
      </trkpt>
      <trkpt lat="50.13466" lon="4.08333">
        <ele>221.6</ele>
        <time>2024-03-19T14:31:30Z</time>
      </trkpt>
      <trkpt lat="50.13457" lon="4.08336">
        <ele>221</ele>
        <time>2024-03-19T14:31:31Z</time>
      </trkpt>
      <trkpt lat="50.13449" lon="4.08338">
        <ele>220.6</ele>
        <time>2024-03-19T14:31:32Z</time>
      </trkpt>
      <trkpt lat="50.13441" lon="4.08341">
        <ele>220</ele>
        <time>2024-03-19T14:31:33Z</time>
      </trkpt>
      <trkpt lat="50.13433" lon="4.08344">
        <ele>219</ele>
        <time>2024-03-19T14:31:34Z</time>
      </trkpt>
      <trkpt lat="50.13425" lon="4.08347">
        <ele>218.6</ele>
        <time>2024-03-19T14:31:35Z</time>
      </trkpt>
      <trkpt lat="50.13417" lon="4.08349">
        <ele>218</ele>
        <time>2024-03-19T14:31:36Z</time>
      </trkpt>
      <trkpt lat="50.13409" lon="4.08352">
        <ele>217.6</ele>
        <time>2024-03-19T14:31:37Z</time>
      </trkpt>
      <trkpt lat="50.13401" lon="4.08355">
        <ele>217.4</ele>
        <time>2024-03-19T14:31:38Z</time>
      </trkpt>
      <trkpt lat="50.13386" lon="4.0836">
        <ele>217.2</ele>
        <time>2024-03-19T14:31:39Z</time>
      </trkpt>
      <trkpt lat="50.13386" lon="4.0836">
        <ele>217</ele>
        <time>2024-03-19T14:31:40Z</time>
      </trkpt>
      <trkpt lat="50.13379" lon="4.08362">
        <ele>217</ele>
        <time>2024-03-19T14:31:41Z</time>
      </trkpt>
      <trkpt lat="50.13372" lon="4.08364">
        <ele>217</ele>
        <time>2024-03-19T14:31:42Z</time>
      </trkpt>
      <trkpt lat="50.13365" lon="4.08365">
        <ele>217</ele>
        <time>2024-03-19T14:31:43Z</time>
      </trkpt>
      <trkpt lat="50.13358" lon="4.08366">
        <ele>217.2</ele>
        <time>2024-03-19T14:31:44Z</time>
      </trkpt>
      <trkpt lat="50.13351" lon="4.08367">
        <ele>217</ele>
        <time>2024-03-19T14:31:45Z</time>
      </trkpt>
      <trkpt lat="50.13344" lon="4.08366">
        <ele>217</ele>
        <time>2024-03-19T14:31:46Z</time>
      </trkpt>
      <trkpt lat="50.13337" lon="4.08366">
        <ele>217</ele>
        <time>2024-03-19T14:31:47Z</time>
      </trkpt>
      <trkpt lat="50.1333" lon="4.08366">
        <ele>217.2</ele>
        <time>2024-03-19T14:31:48Z</time>
      </trkpt>
      <trkpt lat="50.13323" lon="4.08365">
        <ele>217.4</ele>
        <time>2024-03-19T14:31:49Z</time>
      </trkpt>
      <trkpt lat="50.13316" lon="4.08363">
        <ele>217.4</ele>
        <time>2024-03-19T14:31:50Z</time>
      </trkpt>
      <trkpt lat="50.13308" lon="4.08361">
        <ele>217.8</ele>
        <time>2024-03-19T14:31:51Z</time>
      </trkpt>
      <trkpt lat="50.13301" lon="4.08359">
        <ele>217.8</ele>
        <time>2024-03-19T14:31:52Z</time>
      </trkpt>
      <trkpt lat="50.13293" lon="4.08357">
        <ele>218</ele>
        <time>2024-03-19T14:31:53Z</time>
      </trkpt>
      <trkpt lat="50.13286" lon="4.08355">
        <ele>218</ele>
        <time>2024-03-19T14:31:54Z</time>
      </trkpt>
      <trkpt lat="50.13278" lon="4.08353">
        <ele>218</ele>
        <time>2024-03-19T14:31:55Z</time>
      </trkpt>
      <trkpt lat="50.13271" lon="4.08351">
        <ele>218.2</ele>
        <time>2024-03-19T14:31:56Z</time>
      </trkpt>
      <trkpt lat="50.13263" lon="4.08349">
        <ele>218</ele>
        <time>2024-03-19T14:31:57Z</time>
      </trkpt>
      <trkpt lat="50.13255" lon="4.08346">
        <ele>218</ele>
        <time>2024-03-19T14:31:58Z</time>
      </trkpt>
      <trkpt lat="50.13247" lon="4.08344">
        <ele>218</ele>
        <time>2024-03-19T14:31:59Z</time>
      </trkpt>
      <trkpt lat="50.13239" lon="4.08342">
        <ele>218</ele>
        <time>2024-03-19T14:32:00Z</time>
      </trkpt>
      <trkpt lat="50.13231" lon="4.0834">
        <ele>218.2</ele>
        <time>2024-03-19T14:32:01Z</time>
      </trkpt>
      <trkpt lat="50.13222" lon="4.08337">
        <ele>218</ele>
        <time>2024-03-19T14:32:02Z</time>
      </trkpt>
      <trkpt lat="50.13214" lon="4.08335">
        <ele>217.6</ele>
        <time>2024-03-19T14:32:03Z</time>
      </trkpt>
      <trkpt lat="50.13205" lon="4.08333">
        <ele>217.4</ele>
        <time>2024-03-19T14:32:04Z</time>
      </trkpt>
      <trkpt lat="50.13196" lon="4.0833">
        <ele>217.4</ele>
        <time>2024-03-19T14:32:05Z</time>
      </trkpt>
      <trkpt lat="50.13187" lon="4.08328">
        <ele>216.8</ele>
        <time>2024-03-19T14:32:06Z</time>
      </trkpt>
      <trkpt lat="50.13178" lon="4.08325">
        <ele>216.2</ele>
        <time>2024-03-19T14:32:07Z</time>
      </trkpt>
      <trkpt lat="50.13169" lon="4.08323">
        <ele>216</ele>
        <time>2024-03-19T14:32:08Z</time>
      </trkpt>
      <trkpt lat="50.13159" lon="4.08322">
        <ele>215.6</ele>
        <time>2024-03-19T14:32:09Z</time>
      </trkpt>
      <trkpt lat="50.1315" lon="4.08321">
        <ele>215.2</ele>
        <time>2024-03-19T14:32:10Z</time>
      </trkpt>
      <trkpt lat="50.1314" lon="4.08322">
        <ele>215</ele>
        <time>2024-03-19T14:32:11Z</time>
      </trkpt>
      <trkpt lat="50.1313" lon="4.08324">
        <ele>215</ele>
        <time>2024-03-19T14:32:12Z</time>
      </trkpt>
      <trkpt lat="50.1312" lon="4.08328">
        <ele>214</ele>
        <time>2024-03-19T14:32:13Z</time>
      </trkpt>
      <trkpt lat="50.1311" lon="4.08334">
        <ele>213.6</ele>
        <time>2024-03-19T14:32:14Z</time>
      </trkpt>
      <trkpt lat="50.131" lon="4.0834">
        <ele>213</ele>
        <time>2024-03-19T14:32:15Z</time>
      </trkpt>
      <trkpt lat="50.1309" lon="4.08347">
        <ele>212.8</ele>
        <time>2024-03-19T14:32:16Z</time>
      </trkpt>
      <trkpt lat="50.13081" lon="4.08355">
        <ele>212.4</ele>
        <time>2024-03-19T14:32:17Z</time>
      </trkpt>
      <trkpt lat="50.13071" lon="4.08364">
        <ele>212.4</ele>
        <time>2024-03-19T14:32:18Z</time>
      </trkpt>
      <trkpt lat="50.13061" lon="4.08372">
        <ele>211.8</ele>
        <time>2024-03-19T14:32:19Z</time>
      </trkpt>
      <trkpt lat="50.13052" lon="4.08381">
        <ele>211</ele>
        <time>2024-03-19T14:32:20Z</time>
      </trkpt>
      <trkpt lat="50.13042" lon="4.0839">
        <ele>210</ele>
        <time>2024-03-19T14:32:21Z</time>
      </trkpt>
      <trkpt lat="50.13032" lon="4.08399">
        <ele>209</ele>
        <time>2024-03-19T14:32:22Z</time>
      </trkpt>
      <trkpt lat="50.13022" lon="4.08408">
        <ele>208</ele>
        <time>2024-03-19T14:32:23Z</time>
      </trkpt>
      <trkpt lat="50.13011" lon="4.08415">
        <ele>207.2</ele>
        <time>2024-03-19T14:32:24Z</time>
      </trkpt>
      <trkpt lat="50.13" lon="4.08421">
        <ele>206.4</ele>
        <time>2024-03-19T14:32:25Z</time>
      </trkpt>
      <trkpt lat="50.12988" lon="4.08424">
        <ele>205</ele>
        <time>2024-03-19T14:32:26Z</time>
      </trkpt>
      <trkpt lat="50.12976" lon="4.08424">
        <ele>204.4</ele>
        <time>2024-03-19T14:32:27Z</time>
      </trkpt>
      <trkpt lat="50.12965" lon="4.08421">
        <ele>203.4</ele>
        <time>2024-03-19T14:32:28Z</time>
      </trkpt>
      <trkpt lat="50.12954" lon="4.08415">
        <ele>202.8</ele>
        <time>2024-03-19T14:32:29Z</time>
      </trkpt>
      <trkpt lat="50.12943" lon="4.08406">
        <ele>201.6</ele>
        <time>2024-03-19T14:32:30Z</time>
      </trkpt>
      <trkpt lat="50.12933" lon="4.08395">
        <ele>201</ele>
        <time>2024-03-19T14:32:31Z</time>
      </trkpt>
      <trkpt lat="50.12923" lon="4.08384">
        <ele>200.6</ele>
        <time>2024-03-19T14:32:32Z</time>
      </trkpt>
      <trkpt lat="50.12913" lon="4.08374">
        <ele>199.8</ele>
        <time>2024-03-19T14:32:33Z</time>
      </trkpt>
      <trkpt lat="50.12903" lon="4.08363">
        <ele>198.4</ele>
        <time>2024-03-19T14:32:34Z</time>
      </trkpt>
      <trkpt lat="50.12892" lon="4.08352">
        <ele>196.6</ele>
        <time>2024-03-19T14:32:35Z</time>
      </trkpt>
      <trkpt lat="50.12882" lon="4.08341">
        <ele>195.6</ele>
        <time>2024-03-19T14:32:36Z</time>
      </trkpt>
      <trkpt lat="50.12872" lon="4.0833">
        <ele>195.6</ele>
        <time>2024-03-19T14:32:37Z</time>
      </trkpt>
      <trkpt lat="50.12861" lon="4.0832">
        <ele>194.8</ele>
        <time>2024-03-19T14:32:38Z</time>
      </trkpt>
      <trkpt lat="50.1285" lon="4.08311">
        <ele>194</ele>
        <time>2024-03-19T14:32:39Z</time>
      </trkpt>
      <trkpt lat="50.12839" lon="4.08303">
        <ele>193.2</ele>
        <time>2024-03-19T14:32:40Z</time>
      </trkpt>
      <trkpt lat="50.12827" lon="4.08297">
        <ele>192.8</ele>
        <time>2024-03-19T14:32:41Z</time>
      </trkpt>
      <trkpt lat="50.12815" lon="4.08291">
        <ele>192.2</ele>
        <time>2024-03-19T14:32:42Z</time>
      </trkpt>
      <trkpt lat="50.12802" lon="4.08287">
        <ele>191.4</ele>
        <time>2024-03-19T14:32:43Z</time>
      </trkpt>
      <trkpt lat="50.12789" lon="4.08285">
        <ele>190.2</ele>
        <time>2024-03-19T14:32:44Z</time>
      </trkpt>
      <trkpt lat="50.12776" lon="4.08283">
        <ele>189.2</ele>
        <time>2024-03-19T14:32:45Z</time>
      </trkpt>
      <trkpt lat="50.12763" lon="4.08283">
        <ele>188</ele>
        <time>2024-03-19T14:32:46Z</time>
      </trkpt>
      <trkpt lat="50.1275" lon="4.08283">
        <ele>187.2</ele>
        <time>2024-03-19T14:32:47Z</time>
      </trkpt>
      <trkpt lat="50.12737" lon="4.08284">
        <ele>185.8</ele>
        <time>2024-03-19T14:32:48Z</time>
      </trkpt>
      <trkpt lat="50.12724" lon="4.08284">
        <ele>184.2</ele>
        <time>2024-03-19T14:32:49Z</time>
      </trkpt>
      <trkpt lat="50.12711" lon="4.08284">
        <ele>183.4</ele>
        <time>2024-03-19T14:32:50Z</time>
      </trkpt>
      <trkpt lat="50.12698" lon="4.08285">
        <ele>182.8</ele>
        <time>2024-03-19T14:32:51Z</time>
      </trkpt>
      <trkpt lat="50.12685" lon="4.08285">
        <ele>182.8</ele>
        <time>2024-03-19T14:32:52Z</time>
      </trkpt>
      <trkpt lat="50.12671" lon="4.08285">
        <ele>182.6</ele>
        <time>2024-03-19T14:32:53Z</time>
      </trkpt>
      <trkpt lat="50.12658" lon="4.08286">
        <ele>182</ele>
        <time>2024-03-19T14:32:54Z</time>
      </trkpt>
      <trkpt lat="50.12645" lon="4.08286">
        <ele>181</ele>
        <time>2024-03-19T14:32:55Z</time>
      </trkpt>
      <trkpt lat="50.12632" lon="4.08286">
        <ele>180</ele>
        <time>2024-03-19T14:32:56Z</time>
      </trkpt>
      <trkpt lat="50.12619" lon="4.08286">
        <ele>179</ele>
        <time>2024-03-19T14:32:57Z</time>
      </trkpt>
      <trkpt lat="50.12606" lon="4.08286">
        <ele>178.4</ele>
        <time>2024-03-19T14:32:58Z</time>
      </trkpt>
      <trkpt lat="50.12593" lon="4.08286">
        <ele>177.2</ele>
        <time>2024-03-19T14:32:59Z</time>
      </trkpt>
      <trkpt lat="50.12581" lon="4.08285">
        <ele>176.6</ele>
        <time>2024-03-19T14:33:00Z</time>
      </trkpt>
      <trkpt lat="50.12569" lon="4.08281">
        <ele>175.4</ele>
        <time>2024-03-19T14:33:01Z</time>
      </trkpt>
      <trkpt lat="50.12558" lon="4.08277">
        <ele>174.8</ele>
        <time>2024-03-19T14:33:02Z</time>
      </trkpt>
      <trkpt lat="50.12547" lon="4.08271">
        <ele>173.8</ele>
        <time>2024-03-19T14:33:03Z</time>
      </trkpt>
      <trkpt lat="50.12537" lon="4.08263">
        <ele>172.8</ele>
        <time>2024-03-19T14:33:04Z</time>
      </trkpt>
      <trkpt lat="50.12528" lon="4.08255">
        <ele>172.4</ele>
        <time>2024-03-19T14:33:05Z</time>
      </trkpt>
      <trkpt lat="50.1252" lon="4.08246">
        <ele>172</ele>
        <time>2024-03-19T14:33:06Z</time>
      </trkpt>
      <trkpt lat="50.12512" lon="4.08236">
        <ele>171.8</ele>
        <time>2024-03-19T14:33:07Z</time>
      </trkpt>
      <trkpt lat="50.12506" lon="4.08227">
        <ele>172</ele>
        <time>2024-03-19T14:33:08Z</time>
      </trkpt>
      <trkpt lat="50.125" lon="4.08216">
        <ele>171.8</ele>
        <time>2024-03-19T14:33:09Z</time>
      </trkpt>
      <trkpt lat="50.12494" lon="4.08206">
        <ele>171.8</ele>
        <time>2024-03-19T14:33:10Z</time>
      </trkpt>
      <trkpt lat="50.12489" lon="4.08196">
        <ele>171.8</ele>
        <time>2024-03-19T14:33:11Z</time>
      </trkpt>
      <trkpt lat="50.12484" lon="4.08186">
        <ele>171.8</ele>
        <time>2024-03-19T14:33:12Z</time>
      </trkpt>
      <trkpt lat="50.12479" lon="4.08177">
        <ele>171.8</ele>
        <time>2024-03-19T14:33:13Z</time>
      </trkpt>
      <trkpt lat="50.12475" lon="4.08168">
        <ele>171.8</ele>
        <time>2024-03-19T14:33:14Z</time>
      </trkpt>
      <trkpt lat="50.1247" lon="4.08159">
        <ele>172</ele>
        <time>2024-03-19T14:33:15Z</time>
      </trkpt>
      <trkpt lat="50.12466" lon="4.0815">
        <ele>172.2</ele>
        <time>2024-03-19T14:33:16Z</time>
      </trkpt>
      <trkpt lat="50.12462" lon="4.08142">
        <ele>172.4</ele>
        <time>2024-03-19T14:33:17Z</time>
      </trkpt>
      <trkpt lat="50.12458" lon="4.08134">
        <ele>172.6</ele>
        <time>2024-03-19T14:33:18Z</time>
      </trkpt>
      <trkpt lat="50.12454" lon="4.08126">
        <ele>173</ele>
        <time>2024-03-19T14:33:19Z</time>
      </trkpt>
      <trkpt lat="50.12449" lon="4.08117">
        <ele>173.6</ele>
        <time>2024-03-19T14:33:20Z</time>
      </trkpt>
      <trkpt lat="50.12445" lon="4.08109">
        <ele>174</ele>
        <time>2024-03-19T14:33:21Z</time>
      </trkpt>
      <trkpt lat="50.12441" lon="4.08102">
        <ele>174.4</ele>
        <time>2024-03-19T14:33:22Z</time>
      </trkpt>
      <trkpt lat="50.12438" lon="4.08094">
        <ele>174.8</ele>
        <time>2024-03-19T14:33:23Z</time>
      </trkpt>
      <trkpt lat="50.12434" lon="4.08086">
        <ele>175.2</ele>
        <time>2024-03-19T14:33:24Z</time>
      </trkpt>
      <trkpt lat="50.1243" lon="4.08078">
        <ele>175.6</ele>
        <time>2024-03-19T14:33:25Z</time>
      </trkpt>
      <trkpt lat="50.12427" lon="4.0807">
        <ele>175.8</ele>
        <time>2024-03-19T14:33:26Z</time>
      </trkpt>
      <trkpt lat="50.12423" lon="4.08062">
        <ele>176.2</ele>
        <time>2024-03-19T14:33:27Z</time>
      </trkpt>
      <trkpt lat="50.1242" lon="4.08055">
        <ele>176.2</ele>
        <time>2024-03-19T14:33:28Z</time>
      </trkpt>
      <trkpt lat="50.12417" lon="4.08046">
        <ele>176.2</ele>
        <time>2024-03-19T14:33:29Z</time>
      </trkpt>
      <trkpt lat="50.12415" lon="4.08037">
        <ele>176.6</ele>
        <time>2024-03-19T14:33:30Z</time>
      </trkpt>
      <trkpt lat="50.12414" lon="4.08028">
        <ele>176.6</ele>
        <time>2024-03-19T14:33:31Z</time>
      </trkpt>
      <trkpt lat="50.12413" lon="4.08018">
        <ele>177</ele>
        <time>2024-03-19T14:33:32Z</time>
      </trkpt>
      <trkpt lat="50.12409" lon="4.0801">
        <ele>177.2</ele>
        <time>2024-03-19T14:33:33Z</time>
      </trkpt>
      <trkpt lat="50.12405" lon="4.08004">
        <ele>177.2</ele>
        <time>2024-03-19T14:33:34Z</time>
      </trkpt>
      <trkpt lat="50.12399" lon="4.08001">
        <ele>177.2</ele>
        <time>2024-03-19T14:33:35Z</time>
      </trkpt>
      <trkpt lat="50.12393" lon="4.08001">
        <ele>177.4</ele>
        <time>2024-03-19T14:33:36Z</time>
      </trkpt>
      <trkpt lat="50.12387" lon="4.08005">
        <ele>177.8</ele>
        <time>2024-03-19T14:33:37Z</time>
      </trkpt>
      <trkpt lat="50.12383" lon="4.08012">
        <ele>178</ele>
        <time>2024-03-19T14:33:38Z</time>
      </trkpt>
      <trkpt lat="50.12381" lon="4.08021">
        <ele>177.8</ele>
        <time>2024-03-19T14:33:39Z</time>
      </trkpt>
      <trkpt lat="50.12381" lon="4.08031">
        <ele>178</ele>
        <time>2024-03-19T14:33:40Z</time>
      </trkpt>
      <trkpt lat="50.12381" lon="4.08042">
        <ele>177.8</ele>
        <time>2024-03-19T14:33:41Z</time>
      </trkpt>
      <trkpt lat="50.1238" lon="4.08053">
        <ele>178</ele>
        <time>2024-03-19T14:33:42Z</time>
      </trkpt>
      <trkpt lat="50.12377" lon="4.08063">
        <ele>177.8</ele>
        <time>2024-03-19T14:33:43Z</time>
      </trkpt>
      <trkpt lat="50.12373" lon="4.08072">
        <ele>178</ele>
        <time>2024-03-19T14:33:44Z</time>
      </trkpt>
      <trkpt lat="50.12369" lon="4.08081">
        <ele>178</ele>
        <time>2024-03-19T14:33:45Z</time>
      </trkpt>
      <trkpt lat="50.12365" lon="4.0809">
        <ele>178</ele>
        <time>2024-03-19T14:33:46Z</time>
      </trkpt>
      <trkpt lat="50.1236" lon="4.081">
        <ele>178</ele>
        <time>2024-03-19T14:33:47Z</time>
      </trkpt>
      <trkpt lat="50.12356" lon="4.08109">
        <ele>178</ele>
        <time>2024-03-19T14:33:48Z</time>
      </trkpt>
      <trkpt lat="50.12352" lon="4.08118">
        <ele>177.8</ele>
        <time>2024-03-19T14:33:49Z</time>
      </trkpt>
      <trkpt lat="50.12347" lon="4.08127">
        <ele>177.6</ele>
        <time>2024-03-19T14:33:50Z</time>
      </trkpt>
      <trkpt lat="50.12343" lon="4.08137">
        <ele>177.6</ele>
        <time>2024-03-19T14:33:51Z</time>
      </trkpt>
      <trkpt lat="50.12338" lon="4.08146">
        <ele>177.6</ele>
        <time>2024-03-19T14:33:52Z</time>
      </trkpt>
      <trkpt lat="50.12334" lon="4.08156">
        <ele>177.4</ele>
        <time>2024-03-19T14:33:53Z</time>
      </trkpt>
      <trkpt lat="50.1233" lon="4.08165">
        <ele>177.2</ele>
        <time>2024-03-19T14:33:54Z</time>
      </trkpt>
      <trkpt lat="50.12325" lon="4.08175">
        <ele>177</ele>
        <time>2024-03-19T14:33:55Z</time>
      </trkpt>
      <trkpt lat="50.12321" lon="4.08184">
        <ele>176.8</ele>
        <time>2024-03-19T14:33:56Z</time>
      </trkpt>
      <trkpt lat="50.12316" lon="4.08194">
        <ele>176.6</ele>
        <time>2024-03-19T14:33:57Z</time>
      </trkpt>
      <trkpt lat="50.12312" lon="4.08204">
        <ele>176.6</ele>
        <time>2024-03-19T14:33:58Z</time>
      </trkpt>
      <trkpt lat="50.12307" lon="4.08214">
        <ele>176.4</ele>
        <time>2024-03-19T14:33:59Z</time>
      </trkpt>
      <trkpt lat="50.12303" lon="4.08224">
        <ele>176.4</ele>
        <time>2024-03-19T14:34:00Z</time>
      </trkpt>
      <trkpt lat="50.12298" lon="4.08235">
        <ele>176.4</ele>
        <time>2024-03-19T14:34:01Z</time>
      </trkpt>
      <trkpt lat="50.12293" lon="4.08245">
        <ele>176</ele>
        <time>2024-03-19T14:34:02Z</time>
      </trkpt>
      <trkpt lat="50.12289" lon="4.08255">
        <ele>176</ele>
        <time>2024-03-19T14:34:03Z</time>
      </trkpt>
      <trkpt lat="50.12284" lon="4.08266">
        <ele>176</ele>
        <time>2024-03-19T14:34:04Z</time>
      </trkpt>
      <trkpt lat="50.12279" lon="4.08276">
        <ele>175.8</ele>
        <time>2024-03-19T14:34:05Z</time>
      </trkpt>
      <trkpt lat="50.12274" lon="4.08287">
        <ele>175.8</ele>
        <time>2024-03-19T14:34:06Z</time>
      </trkpt>
      <trkpt lat="50.12269" lon="4.08298">
        <ele>175.4</ele>
        <time>2024-03-19T14:34:07Z</time>
      </trkpt>
      <trkpt lat="50.12264" lon="4.08309">
        <ele>175.2</ele>
        <time>2024-03-19T14:34:08Z</time>
      </trkpt>
      <trkpt lat="50.12259" lon="4.0832">
        <ele>175</ele>
        <time>2024-03-19T14:34:09Z</time>
      </trkpt>
      <trkpt lat="50.12253" lon="4.08331">
        <ele>174.8</ele>
        <time>2024-03-19T14:34:10Z</time>
      </trkpt>
      <trkpt lat="50.12248" lon="4.08342">
        <ele>174.6</ele>
        <time>2024-03-19T14:34:11Z</time>
      </trkpt>
      <trkpt lat="50.12243" lon="4.08353">
        <ele>174.2</ele>
        <time>2024-03-19T14:34:12Z</time>
      </trkpt>
      <trkpt lat="50.12239" lon="4.08365">
        <ele>174</ele>
        <time>2024-03-19T14:34:13Z</time>
      </trkpt>
      <trkpt lat="50.12234" lon="4.08377">
        <ele>173.6</ele>
        <time>2024-03-19T14:34:14Z</time>
      </trkpt>
      <trkpt lat="50.12229" lon="4.0839">
        <ele>173.2</ele>
        <time>2024-03-19T14:34:15Z</time>
      </trkpt>
      <trkpt lat="50.12225" lon="4.08403">
        <ele>172.8</ele>
        <time>2024-03-19T14:34:16Z</time>
      </trkpt>
      <trkpt lat="50.12222" lon="4.08416">
        <ele>172.4</ele>
        <time>2024-03-19T14:34:17Z</time>
      </trkpt>
      <trkpt lat="50.12219" lon="4.0843">
        <ele>172</ele>
        <time>2024-03-19T14:34:18Z</time>
      </trkpt>
      <trkpt lat="50.12216" lon="4.08444">
        <ele>171.4</ele>
        <time>2024-03-19T14:34:19Z</time>
      </trkpt>
      <trkpt lat="50.12213" lon="4.08458">
        <ele>170.8</ele>
        <time>2024-03-19T14:34:20Z</time>
      </trkpt>
      <trkpt lat="50.1221" lon="4.08473">
        <ele>170.6</ele>
        <time>2024-03-19T14:34:21Z</time>
      </trkpt>
      <trkpt lat="50.12208" lon="4.08487">
        <ele>170.6</ele>
        <time>2024-03-19T14:34:22Z</time>
      </trkpt>
      <trkpt lat="50.12206" lon="4.08502">
        <ele>170.2</ele>
        <time>2024-03-19T14:34:23Z</time>
      </trkpt>
      <trkpt lat="50.12204" lon="4.08517">
        <ele>170</ele>
        <time>2024-03-19T14:34:24Z</time>
      </trkpt>
      <trkpt lat="50.12202" lon="4.08532">
        <ele>169.2</ele>
        <time>2024-03-19T14:34:25Z</time>
      </trkpt>
      <trkpt lat="50.12202" lon="4.08547">
        <ele>168.8</ele>
        <time>2024-03-19T14:34:26Z</time>
      </trkpt>
      <trkpt lat="50.12201" lon="4.08562">
        <ele>168.2</ele>
        <time>2024-03-19T14:34:27Z</time>
      </trkpt>
      <trkpt lat="50.12202" lon="4.08577">
        <ele>168</ele>
        <time>2024-03-19T14:34:28Z</time>
      </trkpt>
      <trkpt lat="50.12202" lon="4.08591">
        <ele>167.8</ele>
        <time>2024-03-19T14:34:29Z</time>
      </trkpt>
      <trkpt lat="50.12203" lon="4.08606">
        <ele>167.4</ele>
        <time>2024-03-19T14:34:30Z</time>
      </trkpt>
      <trkpt lat="50.12203" lon="4.0862">
        <ele>167.4</ele>
        <time>2024-03-19T14:34:31Z</time>
      </trkpt>
      <trkpt lat="50.12204" lon="4.08634">
        <ele>167.2</ele>
        <time>2024-03-19T14:34:32Z</time>
      </trkpt>
      <trkpt lat="50.12204" lon="4.08647">
        <ele>167</ele>
        <time>2024-03-19T14:34:33Z</time>
      </trkpt>
      <trkpt lat="50.12204" lon="4.08661">
        <ele>167</ele>
        <time>2024-03-19T14:34:34Z</time>
      </trkpt>
      <trkpt lat="50.12204" lon="4.08674">
        <ele>167</ele>
        <time>2024-03-19T14:34:35Z</time>
      </trkpt>
      <trkpt lat="50.12203" lon="4.08687">
        <ele>167</ele>
        <time>2024-03-19T14:34:36Z</time>
      </trkpt>
      <trkpt lat="50.12203" lon="4.087">
        <ele>167</ele>
        <time>2024-03-19T14:34:37Z</time>
      </trkpt>
      <trkpt lat="50.12203" lon="4.08713">
        <ele>166.8</ele>
        <time>2024-03-19T14:34:38Z</time>
      </trkpt>
      <trkpt lat="50.12203" lon="4.08725">
        <ele>167</ele>
        <time>2024-03-19T14:34:39Z</time>
      </trkpt>
      <trkpt lat="50.12202" lon="4.08738">
        <ele>167</ele>
        <time>2024-03-19T14:34:40Z</time>
      </trkpt>
      <trkpt lat="50.12201" lon="4.0875">
        <ele>167</ele>
        <time>2024-03-19T14:34:41Z</time>
      </trkpt>
      <trkpt lat="50.122" lon="4.08762">
        <ele>167</ele>
        <time>2024-03-19T14:34:42Z</time>
      </trkpt>
      <trkpt lat="50.12199" lon="4.08774">
        <ele>167</ele>
        <time>2024-03-19T14:34:43Z</time>
      </trkpt>
      <trkpt lat="50.12197" lon="4.08786">
        <ele>167</ele>
        <time>2024-03-19T14:34:44Z</time>
      </trkpt>
      <trkpt lat="50.12196" lon="4.08797">
        <ele>167.4</ele>
        <time>2024-03-19T14:34:45Z</time>
      </trkpt>
      <trkpt lat="50.12194" lon="4.08809">
        <ele>167.6</ele>
        <time>2024-03-19T14:34:46Z</time>
      </trkpt>
      <trkpt lat="50.12193" lon="4.08821">
        <ele>167.8</ele>
        <time>2024-03-19T14:34:47Z</time>
      </trkpt>
      <trkpt lat="50.12191" lon="4.08832">
        <ele>167.8</ele>
        <time>2024-03-19T14:34:48Z</time>
      </trkpt>
      <trkpt lat="50.1219" lon="4.08843">
        <ele>167.8</ele>
        <time>2024-03-19T14:34:49Z</time>
      </trkpt>
      <trkpt lat="50.12189" lon="4.08855">
        <ele>167.8</ele>
        <time>2024-03-19T14:34:50Z</time>
      </trkpt>
      <trkpt lat="50.12189" lon="4.08866">
        <ele>167.8</ele>
        <time>2024-03-19T14:34:51Z</time>
      </trkpt>
      <trkpt lat="50.12189" lon="4.08878">
        <ele>168</ele>
        <time>2024-03-19T14:34:52Z</time>
      </trkpt>
      <trkpt lat="50.12188" lon="4.08889">
        <ele>168</ele>
        <time>2024-03-19T14:34:53Z</time>
      </trkpt>
      <trkpt lat="50.12188" lon="4.089">
        <ele>168.2</ele>
        <time>2024-03-19T14:34:54Z</time>
      </trkpt>
      <trkpt lat="50.12188" lon="4.08911">
        <ele>168.4</ele>
        <time>2024-03-19T14:34:55Z</time>
      </trkpt>
      <trkpt lat="50.12188" lon="4.08922">
        <ele>168.4</ele>
        <time>2024-03-19T14:34:56Z</time>
      </trkpt>
      <trkpt lat="50.12188" lon="4.08933">
        <ele>168.6</ele>
        <time>2024-03-19T14:34:57Z</time>
      </trkpt>
      <trkpt lat="50.12188" lon="4.08944">
        <ele>168.4</ele>
        <time>2024-03-19T14:34:58Z</time>
      </trkpt>
      <trkpt lat="50.12188" lon="4.08955">
        <ele>168.6</ele>
        <time>2024-03-19T14:34:59Z</time>
      </trkpt>
      <trkpt lat="50.12188" lon="4.08965">
        <ele>168.6</ele>
        <time>2024-03-19T14:35:00Z</time>
      </trkpt>
      <trkpt lat="50.12188" lon="4.08976">
        <ele>168.4</ele>
        <time>2024-03-19T14:35:01Z</time>
      </trkpt>
      <trkpt lat="50.12188" lon="4.08986">
        <ele>168.6</ele>
        <time>2024-03-19T14:35:02Z</time>
      </trkpt>
      <trkpt lat="50.12188" lon="4.08997">
        <ele>168.8</ele>
        <time>2024-03-19T14:35:03Z</time>
      </trkpt>
      <trkpt lat="50.12188" lon="4.09007">
        <ele>168.6</ele>
        <time>2024-03-19T14:35:04Z</time>
      </trkpt>
      <trkpt lat="50.12187" lon="4.09018">
        <ele>168.6</ele>
        <time>2024-03-19T14:35:05Z</time>
      </trkpt>
      <trkpt lat="50.12187" lon="4.09028">
        <ele>168.8</ele>
        <time>2024-03-19T14:35:06Z</time>
      </trkpt>
      <trkpt lat="50.12188" lon="4.09039">
        <ele>168.8</ele>
        <time>2024-03-19T14:35:07Z</time>
      </trkpt>
      <trkpt lat="50.12188" lon="4.09049">
        <ele>168.8</ele>
        <time>2024-03-19T14:35:08Z</time>
      </trkpt>
      <trkpt lat="50.12188" lon="4.0906">
        <ele>169</ele>
        <time>2024-03-19T14:35:09Z</time>
      </trkpt>
      <trkpt lat="50.12187" lon="4.09071">
        <ele>169</ele>
        <time>2024-03-19T14:35:10Z</time>
      </trkpt>
      <trkpt lat="50.12187" lon="4.09082">
        <ele>169</ele>
        <time>2024-03-19T14:35:11Z</time>
      </trkpt>
      <trkpt lat="50.12186" lon="4.09092">
        <ele>169</ele>
        <time>2024-03-19T14:35:12Z</time>
      </trkpt>
      <trkpt lat="50.12185" lon="4.09103">
        <ele>169.2</ele>
        <time>2024-03-19T14:35:13Z</time>
      </trkpt>
      <trkpt lat="50.12184" lon="4.09114">
        <ele>169.2</ele>
        <time>2024-03-19T14:35:14Z</time>
      </trkpt>
      <trkpt lat="50.12182" lon="4.09124">
        <ele>169.4</ele>
        <time>2024-03-19T14:35:15Z</time>
      </trkpt>
      <trkpt lat="50.1218" lon="4.09134">
        <ele>169.4</ele>
        <time>2024-03-19T14:35:16Z</time>
      </trkpt>
      <trkpt lat="50.12177" lon="4.09144">
        <ele>169.4</ele>
        <time>2024-03-19T14:35:17Z</time>
      </trkpt>
      <trkpt lat="50.12173" lon="4.09153">
        <ele>169.4</ele>
        <time>2024-03-19T14:35:18Z</time>
      </trkpt>
      <trkpt lat="50.12169" lon="4.09162">
        <ele>169.4</ele>
        <time>2024-03-19T14:35:19Z</time>
      </trkpt>
      <trkpt lat="50.12165" lon="4.09171">
        <ele>169.4</ele>
        <time>2024-03-19T14:35:20Z</time>
      </trkpt>
      <trkpt lat="50.12161" lon="4.0918">
        <ele>169.6</ele>
        <time>2024-03-19T14:35:21Z</time>
      </trkpt>
      <trkpt lat="50.12157" lon="4.09188">
        <ele>169.8</ele>
        <time>2024-03-19T14:35:22Z</time>
      </trkpt>
      <trkpt lat="50.12152" lon="4.09197">
        <ele>170</ele>
        <time>2024-03-19T14:35:23Z</time>
      </trkpt>
      <trkpt lat="50.12148" lon="4.09206">
        <ele>170</ele>
        <time>2024-03-19T14:35:24Z</time>
      </trkpt>
      <trkpt lat="50.12145" lon="4.09215">
        <ele>170.2</ele>
        <time>2024-03-19T14:35:25Z</time>
      </trkpt>
      <trkpt lat="50.12141" lon="4.09224">
        <ele>170.4</ele>
        <time>2024-03-19T14:35:26Z</time>
      </trkpt>
      <trkpt lat="50.12138" lon="4.09234">
        <ele>171.2</ele>
        <time>2024-03-19T14:35:27Z</time>
      </trkpt>
      <trkpt lat="50.12135" lon="4.09244">
        <ele>171.6</ele>
        <time>2024-03-19T14:35:28Z</time>
      </trkpt>
      <trkpt lat="50.12133" lon="4.09254">
        <ele>172</ele>
        <time>2024-03-19T14:35:29Z</time>
      </trkpt>
      <trkpt lat="50.12131" lon="4.09264">
        <ele>172</ele>
        <time>2024-03-19T14:35:30Z</time>
      </trkpt>
      <trkpt lat="50.12129" lon="4.09274">
        <ele>172.2</ele>
        <time>2024-03-19T14:35:31Z</time>
      </trkpt>
      <trkpt lat="50.12127" lon="4.09284">
        <ele>172.4</ele>
        <time>2024-03-19T14:35:32Z</time>
      </trkpt>
      <trkpt lat="50.12126" lon="4.09294">
        <ele>172.6</ele>
        <time>2024-03-19T14:35:33Z</time>
      </trkpt>
      <trkpt lat="50.12124" lon="4.09304">
        <ele>172.6</ele>
        <time>2024-03-19T14:35:34Z</time>
      </trkpt>
      <trkpt lat="50.12122" lon="4.09314">
        <ele>172.8</ele>
        <time>2024-03-19T14:35:35Z</time>
      </trkpt>
      <trkpt lat="50.1212" lon="4.09324">
        <ele>172.8</ele>
        <time>2024-03-19T14:35:36Z</time>
      </trkpt>
      <trkpt lat="50.12118" lon="4.09334">
        <ele>173</ele>
        <time>2024-03-19T14:35:37Z</time>
      </trkpt>
      <trkpt lat="50.12116" lon="4.09344">
        <ele>173.2</ele>
        <time>2024-03-19T14:35:38Z</time>
      </trkpt>
      <trkpt lat="50.12114" lon="4.09353">
        <ele>173.4</ele>
        <time>2024-03-19T14:35:39Z</time>
      </trkpt>
      <trkpt lat="50.12112" lon="4.09363">
        <ele>173.8</ele>
        <time>2024-03-19T14:35:40Z</time>
      </trkpt>
      <trkpt lat="50.12109" lon="4.09373">
        <ele>174</ele>
        <time>2024-03-19T14:35:41Z</time>
      </trkpt>
      <trkpt lat="50.12107" lon="4.09382">
        <ele>174.4</ele>
        <time>2024-03-19T14:35:42Z</time>
      </trkpt>
      <trkpt lat="50.12104" lon="4.09392">
        <ele>175</ele>
        <time>2024-03-19T14:35:43Z</time>
      </trkpt>
      <trkpt lat="50.12102" lon="4.09401">
        <ele>175.2</ele>
        <time>2024-03-19T14:35:44Z</time>
      </trkpt>
      <trkpt lat="50.12099" lon="4.0941">
        <ele>175.8</ele>
        <time>2024-03-19T14:35:45Z</time>
      </trkpt>
      <trkpt lat="50.12097" lon="4.09419">
        <ele>176</ele>
        <time>2024-03-19T14:35:46Z</time>
      </trkpt>
      <trkpt lat="50.12095" lon="4.09428">
        <ele>176.4</ele>
        <time>2024-03-19T14:35:47Z</time>
      </trkpt>
      <trkpt lat="50.12092" lon="4.09436">
        <ele>176.6</ele>
        <time>2024-03-19T14:35:48Z</time>
      </trkpt>
      <trkpt lat="50.12089" lon="4.09445">
        <ele>176.6</ele>
        <time>2024-03-19T14:35:49Z</time>
      </trkpt>
      <trkpt lat="50.12087" lon="4.09454">
        <ele>176.8</ele>
        <time>2024-03-19T14:35:50Z</time>
      </trkpt>
      <trkpt lat="50.12085" lon="4.09463">
        <ele>177.2</ele>
        <time>2024-03-19T14:35:51Z</time>
      </trkpt>
      <trkpt lat="50.12083" lon="4.09472">
        <ele>177.2</ele>
        <time>2024-03-19T14:35:52Z</time>
      </trkpt>
      <trkpt lat="50.12081" lon="4.09482">
        <ele>177.2</ele>
        <time>2024-03-19T14:35:53Z</time>
      </trkpt>
      <trkpt lat="50.1208" lon="4.09491">
        <ele>177.2</ele>
        <time>2024-03-19T14:35:54Z</time>
      </trkpt>
      <trkpt lat="50.12078" lon="4.09501">
        <ele>177.2</ele>
        <time>2024-03-19T14:35:55Z</time>
      </trkpt>
      <trkpt lat="50.12076" lon="4.09511">
        <ele>177.2</ele>
        <time>2024-03-19T14:35:56Z</time>
      </trkpt>
      <trkpt lat="50.12074" lon="4.09521">
        <ele>177.2</ele>
        <time>2024-03-19T14:35:57Z</time>
      </trkpt>
      <trkpt lat="50.12073" lon="4.09531">
        <ele>177.2</ele>
        <time>2024-03-19T14:35:58Z</time>
      </trkpt>
      <trkpt lat="50.12072" lon="4.09541">
        <ele>177.6</ele>
        <time>2024-03-19T14:35:59Z</time>
      </trkpt>
      <trkpt lat="50.1207" lon="4.09551">
        <ele>177.8</ele>
        <time>2024-03-19T14:36:00Z</time>
      </trkpt>
      <trkpt lat="50.12069" lon="4.09562">
        <ele>178</ele>
        <time>2024-03-19T14:36:01Z</time>
      </trkpt>
      <trkpt lat="50.12068" lon="4.09573">
        <ele>178.6</ele>
        <time>2024-03-19T14:36:02Z</time>
      </trkpt>
      <trkpt lat="50.12068" lon="4.09584">
        <ele>179.2</ele>
        <time>2024-03-19T14:36:03Z</time>
      </trkpt>
      <trkpt lat="50.12067" lon="4.09596">
        <ele>179.6</ele>
        <time>2024-03-19T14:36:04Z</time>
      </trkpt>
      <trkpt lat="50.12067" lon="4.09607">
        <ele>179.6</ele>
        <time>2024-03-19T14:36:05Z</time>
      </trkpt>
      <trkpt lat="50.12068" lon="4.09619">
        <ele>179.8</ele>
        <time>2024-03-19T14:36:06Z</time>
      </trkpt>
      <trkpt lat="50.12069" lon="4.0963">
        <ele>180</ele>
        <time>2024-03-19T14:36:07Z</time>
      </trkpt>
      <trkpt lat="50.12071" lon="4.09642">
        <ele>180</ele>
        <time>2024-03-19T14:36:08Z</time>
      </trkpt>
      <trkpt lat="50.12073" lon="4.09653">
        <ele>180</ele>
        <time>2024-03-19T14:36:09Z</time>
      </trkpt>
      <trkpt lat="50.12076" lon="4.09665">
        <ele>179.8</ele>
        <time>2024-03-19T14:36:10Z</time>
      </trkpt>
      <trkpt lat="50.12079" lon="4.09677">
        <ele>180</ele>
        <time>2024-03-19T14:36:11Z</time>
      </trkpt>
      <trkpt lat="50.12082" lon="4.09688">
        <ele>179.8</ele>
        <time>2024-03-19T14:36:12Z</time>
      </trkpt>
      <trkpt lat="50.12085" lon="4.09699">
        <ele>179.8</ele>
        <time>2024-03-19T14:36:13Z</time>
      </trkpt>
      <trkpt lat="50.12088" lon="4.0971">
        <ele>179.8</ele>
        <time>2024-03-19T14:36:14Z</time>
      </trkpt>
      <trkpt lat="50.1209" lon="4.0972">
        <ele>180</ele>
        <time>2024-03-19T14:36:15Z</time>
      </trkpt>
      <trkpt lat="50.12093" lon="4.09731">
        <ele>180</ele>
        <time>2024-03-19T14:36:16Z</time>
      </trkpt>
      <trkpt lat="50.12096" lon="4.09741">
        <ele>179.8</ele>
        <time>2024-03-19T14:36:17Z</time>
      </trkpt>
      <trkpt lat="50.12098" lon="4.09751">
        <ele>179.8</ele>
        <time>2024-03-19T14:36:18Z</time>
      </trkpt>
      <trkpt lat="50.12101" lon="4.09761">
        <ele>179.8</ele>
        <time>2024-03-19T14:36:19Z</time>
      </trkpt>
      <trkpt lat="50.12103" lon="4.09771">
        <ele>180</ele>
        <time>2024-03-19T14:36:20Z</time>
      </trkpt>
      <trkpt lat="50.12105" lon="4.09782">
        <ele>180.2</ele>
        <time>2024-03-19T14:36:21Z</time>
      </trkpt>
      <trkpt lat="50.12106" lon="4.09793">
        <ele>180.2</ele>
        <time>2024-03-19T14:36:22Z</time>
      </trkpt>
      <trkpt lat="50.12107" lon="4.09805">
        <ele>180</ele>
        <time>2024-03-19T14:36:23Z</time>
      </trkpt>
      <trkpt lat="50.12108" lon="4.09816">
        <ele>180</ele>
        <time>2024-03-19T14:36:24Z</time>
      </trkpt>
      <trkpt lat="50.12109" lon="4.09828">
        <ele>179.8</ele>
        <time>2024-03-19T14:36:25Z</time>
      </trkpt>
      <trkpt lat="50.1211" lon="4.0984">
        <ele>179.8</ele>
        <time>2024-03-19T14:36:26Z</time>
      </trkpt>
      <trkpt lat="50.12111" lon="4.09852">
        <ele>179.6</ele>
        <time>2024-03-19T14:36:27Z</time>
      </trkpt>
      <trkpt lat="50.12112" lon="4.09864">
        <ele>179.8</ele>
        <time>2024-03-19T14:36:28Z</time>
      </trkpt>
      <trkpt lat="50.12113" lon="4.09877">
        <ele>179.6</ele>
        <time>2024-03-19T14:36:29Z</time>
      </trkpt>
      <trkpt lat="50.12114" lon="4.09889">
        <ele>179.6</ele>
        <time>2024-03-19T14:36:30Z</time>
      </trkpt>
      <trkpt lat="50.12116" lon="4.09903">
        <ele>179.8</ele>
        <time>2024-03-19T14:36:31Z</time>
      </trkpt>
      <trkpt lat="50.12117" lon="4.09916">
        <ele>179.6</ele>
        <time>2024-03-19T14:36:32Z</time>
      </trkpt>
      <trkpt lat="50.12118" lon="4.0993">
        <ele>179.6</ele>
        <time>2024-03-19T14:36:33Z</time>
      </trkpt>
      <trkpt lat="50.12118" lon="4.09945">
        <ele>179.6</ele>
        <time>2024-03-19T14:36:34Z</time>
      </trkpt>
      <trkpt lat="50.12118" lon="4.0996">
        <ele>179.4</ele>
        <time>2024-03-19T14:36:35Z</time>
      </trkpt>
      <trkpt lat="50.12117" lon="4.09975">
        <ele>179</ele>
        <time>2024-03-19T14:36:36Z</time>
      </trkpt>
      <trkpt lat="50.12116" lon="4.0999">
        <ele>179</ele>
        <time>2024-03-19T14:36:37Z</time>
      </trkpt>
      <trkpt lat="50.12114" lon="4.10005">
        <ele>178.8</ele>
        <time>2024-03-19T14:36:38Z</time>
      </trkpt>
      <trkpt lat="50.12111" lon="4.1002">
        <ele>178.4</ele>
        <time>2024-03-19T14:36:39Z</time>
      </trkpt>
      <trkpt lat="50.12109" lon="4.10034">
        <ele>178</ele>
        <time>2024-03-19T14:36:40Z</time>
      </trkpt>
      <trkpt lat="50.12106" lon="4.10049">
        <ele>177.4</ele>
        <time>2024-03-19T14:36:41Z</time>
      </trkpt>
      <trkpt lat="50.12103" lon="4.10062">
        <ele>176.4</ele>
        <time>2024-03-19T14:36:42Z</time>
      </trkpt>
      <trkpt lat="50.121" lon="4.10076">
        <ele>176</ele>
        <time>2024-03-19T14:36:43Z</time>
      </trkpt>
      <trkpt lat="50.12097" lon="4.10089">
        <ele>175.4</ele>
        <time>2024-03-19T14:36:44Z</time>
      </trkpt>
      <trkpt lat="50.12095" lon="4.10102">
        <ele>175.2</ele>
        <time>2024-03-19T14:36:45Z</time>
      </trkpt>
      <trkpt lat="50.12092" lon="4.10115">
        <ele>175</ele>
        <time>2024-03-19T14:36:46Z</time>
      </trkpt>
      <trkpt lat="50.12089" lon="4.10127">
        <ele>175</ele>
        <time>2024-03-19T14:36:47Z</time>
      </trkpt>
      <trkpt lat="50.12087" lon="4.10139">
        <ele>175</ele>
        <time>2024-03-19T14:36:48Z</time>
      </trkpt>
      <trkpt lat="50.12084" lon="4.10152">
        <ele>175</ele>
        <time>2024-03-19T14:36:49Z</time>
      </trkpt>
      <trkpt lat="50.12082" lon="4.10164">
        <ele>174.6</ele>
        <time>2024-03-19T14:36:50Z</time>
      </trkpt>
      <trkpt lat="50.12079" lon="4.10176">
        <ele>174.4</ele>
        <time>2024-03-19T14:36:51Z</time>
      </trkpt>
      <trkpt lat="50.12078" lon="4.10189">
        <ele>174.4</ele>
        <time>2024-03-19T14:36:52Z</time>
      </trkpt>
      <trkpt lat="50.12076" lon="4.10202">
        <ele>174.2</ele>
        <time>2024-03-19T14:36:53Z</time>
      </trkpt>
      <trkpt lat="50.12074" lon="4.10216">
        <ele>174</ele>
        <time>2024-03-19T14:36:54Z</time>
      </trkpt>
      <trkpt lat="50.12074" lon="4.10229">
        <ele>174.2</ele>
        <time>2024-03-19T14:36:55Z</time>
      </trkpt>
      <trkpt lat="50.12073" lon="4.10243">
        <ele>174</ele>
        <time>2024-03-19T14:36:56Z</time>
      </trkpt>
      <trkpt lat="50.12073" lon="4.10257">
        <ele>174</ele>
        <time>2024-03-19T14:36:57Z</time>
      </trkpt>
      <trkpt lat="50.12073" lon="4.10272">
        <ele>173.8</ele>
        <time>2024-03-19T14:36:58Z</time>
      </trkpt>
      <trkpt lat="50.12073" lon="4.10286">
        <ele>174</ele>
        <time>2024-03-19T14:36:59Z</time>
      </trkpt>
      <trkpt lat="50.12073" lon="4.10301">
        <ele>173.8</ele>
        <time>2024-03-19T14:37:00Z</time>
      </trkpt>
      <trkpt lat="50.12073" lon="4.10315">
        <ele>174</ele>
        <time>2024-03-19T14:37:01Z</time>
      </trkpt>
      <trkpt lat="50.12072" lon="4.1033">
        <ele>174</ele>
        <time>2024-03-19T14:37:02Z</time>
      </trkpt>
      <trkpt lat="50.12072" lon="4.10344">
        <ele>173.4</ele>
        <time>2024-03-19T14:37:03Z</time>
      </trkpt>
      <trkpt lat="50.12071" lon="4.10359">
        <ele>173</ele>
        <time>2024-03-19T14:37:04Z</time>
      </trkpt>
      <trkpt lat="50.1207" lon="4.10374">
        <ele>172.2</ele>
        <time>2024-03-19T14:37:05Z</time>
      </trkpt>
      <trkpt lat="50.12069" lon="4.10389">
        <ele>172</ele>
        <time>2024-03-19T14:37:06Z</time>
      </trkpt>
      <trkpt lat="50.12067" lon="4.10403">
        <ele>172</ele>
        <time>2024-03-19T14:37:07Z</time>
      </trkpt>
      <trkpt lat="50.12065" lon="4.10417">
        <ele>171.6</ele>
        <time>2024-03-19T14:37:08Z</time>
      </trkpt>
      <trkpt lat="50.12062" lon="4.10431">
        <ele>171.6</ele>
        <time>2024-03-19T14:37:09Z</time>
      </trkpt>
      <trkpt lat="50.12059" lon="4.10444">
        <ele>171.4</ele>
        <time>2024-03-19T14:37:10Z</time>
      </trkpt>
      <trkpt lat="50.12055" lon="4.10457">
        <ele>171</ele>
        <time>2024-03-19T14:37:11Z</time>
      </trkpt>
      <trkpt lat="50.12052" lon="4.10469">
        <ele>171</ele>
        <time>2024-03-19T14:37:12Z</time>
      </trkpt>
      <trkpt lat="50.12049" lon="4.1048">
        <ele>171</ele>
        <time>2024-03-19T14:37:13Z</time>
      </trkpt>
      <trkpt lat="50.12045" lon="4.10491">
        <ele>171</ele>
        <time>2024-03-19T14:37:14Z</time>
      </trkpt>
      <trkpt lat="50.12042" lon="4.10501">
        <ele>170.8</ele>
        <time>2024-03-19T14:37:15Z</time>
      </trkpt>
      <trkpt lat="50.1204" lon="4.1051">
        <ele>170.8</ele>
        <time>2024-03-19T14:37:16Z</time>
      </trkpt>
      <trkpt lat="50.12037" lon="4.10519">
        <ele>171</ele>
        <time>2024-03-19T14:37:17Z</time>
      </trkpt>
      <trkpt lat="50.12034" lon="4.10528">
        <ele>170.8</ele>
        <time>2024-03-19T14:37:18Z</time>
      </trkpt>
      <trkpt lat="50.12032" lon="4.10537">
        <ele>171</ele>
        <time>2024-03-19T14:37:19Z</time>
      </trkpt>
      <trkpt lat="50.12029" lon="4.10545">
        <ele>170.8</ele>
        <time>2024-03-19T14:37:20Z</time>
      </trkpt>
      <trkpt lat="50.12026" lon="4.10553">
        <ele>170.8</ele>
        <time>2024-03-19T14:37:21Z</time>
      </trkpt>
      <trkpt lat="50.12024" lon="4.10562">
        <ele>171.4</ele>
        <time>2024-03-19T14:37:22Z</time>
      </trkpt>
      <trkpt lat="50.12021" lon="4.1057">
        <ele>171.4</ele>
        <time>2024-03-19T14:37:23Z</time>
      </trkpt>
      <trkpt lat="50.12019" lon="4.10578">
        <ele>171.8</ele>
        <time>2024-03-19T14:37:24Z</time>
      </trkpt>
      <trkpt lat="50.12016" lon="4.10587">
        <ele>172.4</ele>
        <time>2024-03-19T14:37:25Z</time>
      </trkpt>
      <trkpt lat="50.12014" lon="4.10595">
        <ele>173.2</ele>
        <time>2024-03-19T14:37:26Z</time>
      </trkpt>
      <trkpt lat="50.12011" lon="4.10603">
        <ele>174</ele>
        <time>2024-03-19T14:37:27Z</time>
      </trkpt>
      <trkpt lat="50.12009" lon="4.10611">
        <ele>174.6</ele>
        <time>2024-03-19T14:37:28Z</time>
      </trkpt>
      <trkpt lat="50.12007" lon="4.10619">
        <ele>175.4</ele>
        <time>2024-03-19T14:37:29Z</time>
      </trkpt>
      <trkpt lat="50.12004" lon="4.10628">
        <ele>175.8</ele>
        <time>2024-03-19T14:37:30Z</time>
      </trkpt>
      <trkpt lat="50.12002" lon="4.10637">
        <ele>176.6</ele>
        <time>2024-03-19T14:37:31Z</time>
      </trkpt>
      <trkpt lat="50.11999" lon="4.10646">
        <ele>176.8</ele>
        <time>2024-03-19T14:37:32Z</time>
      </trkpt>
      <trkpt lat="50.11997" lon="4.10655">
        <ele>177.8</ele>
        <time>2024-03-19T14:37:33Z</time>
      </trkpt>
      <trkpt lat="50.11996" lon="4.10665">
        <ele>178</ele>
        <time>2024-03-19T14:37:34Z</time>
      </trkpt>
      <trkpt lat="50.11994" lon="4.10675">
        <ele>178.6</ele>
        <time>2024-03-19T14:37:35Z</time>
      </trkpt>
      <trkpt lat="50.11993" lon="4.10686">
        <ele>179</ele>
        <time>2024-03-19T14:37:36Z</time>
      </trkpt>
      <trkpt lat="50.11993" lon="4.10697">
        <ele>179.4</ele>
        <time>2024-03-19T14:37:37Z</time>
      </trkpt>
      <trkpt lat="50.11993" lon="4.10708">
        <ele>179.6</ele>
        <time>2024-03-19T14:37:38Z</time>
      </trkpt>
      <trkpt lat="50.11993" lon="4.10719">
        <ele>179.6</ele>
        <time>2024-03-19T14:37:39Z</time>
      </trkpt>
      <trkpt lat="50.11994" lon="4.10731">
        <ele>179.6</ele>
        <time>2024-03-19T14:37:40Z</time>
      </trkpt>
      <trkpt lat="50.11996" lon="4.10742">
        <ele>179.6</ele>
        <time>2024-03-19T14:37:41Z</time>
      </trkpt>
      <trkpt lat="50.11998" lon="4.10754">
        <ele>179.6</ele>
        <time>2024-03-19T14:37:42Z</time>
      </trkpt>
      <trkpt lat="50.11999" lon="4.10766">
        <ele>179.8</ele>
        <time>2024-03-19T14:37:43Z</time>
      </trkpt>
      <trkpt lat="50.12001" lon="4.10778">
        <ele>179.8</ele>
        <time>2024-03-19T14:37:44Z</time>
      </trkpt>
      <trkpt lat="50.12003" lon="4.1079">
        <ele>180</ele>
        <time>2024-03-19T14:37:45Z</time>
      </trkpt>
      <trkpt lat="50.12005" lon="4.10802">
        <ele>180</ele>
        <time>2024-03-19T14:37:46Z</time>
      </trkpt>
      <trkpt lat="50.12007" lon="4.10814">
        <ele>180</ele>
        <time>2024-03-19T14:37:47Z</time>
      </trkpt>
      <trkpt lat="50.12009" lon="4.10827">
        <ele>180</ele>
        <time>2024-03-19T14:37:48Z</time>
      </trkpt>
      <trkpt lat="50.12011" lon="4.10839">
        <ele>179.8</ele>
        <time>2024-03-19T14:37:49Z</time>
      </trkpt>
      <trkpt lat="50.12013" lon="4.10852">
        <ele>179.6</ele>
        <time>2024-03-19T14:37:50Z</time>
      </trkpt>
      <trkpt lat="50.12015" lon="4.10864">
        <ele>179.8</ele>
        <time>2024-03-19T14:37:51Z</time>
      </trkpt>
      <trkpt lat="50.12017" lon="4.10877">
        <ele>179.6</ele>
        <time>2024-03-19T14:37:52Z</time>
      </trkpt>
      <trkpt lat="50.12018" lon="4.1089">
        <ele>179.4</ele>
        <time>2024-03-19T14:37:53Z</time>
      </trkpt>
      <trkpt lat="50.1202" lon="4.10903">
        <ele>179</ele>
        <time>2024-03-19T14:37:54Z</time>
      </trkpt>
      <trkpt lat="50.12021" lon="4.10916">
        <ele>179</ele>
        <time>2024-03-19T14:37:55Z</time>
      </trkpt>
      <trkpt lat="50.12021" lon="4.10929">
        <ele>178.6</ele>
        <time>2024-03-19T14:37:56Z</time>
      </trkpt>
      <trkpt lat="50.12022" lon="4.10941">
        <ele>178.6</ele>
        <time>2024-03-19T14:37:57Z</time>
      </trkpt>
      <trkpt lat="50.12023" lon="4.10954">
        <ele>178.4</ele>
        <time>2024-03-19T14:37:58Z</time>
      </trkpt>
      <trkpt lat="50.12023" lon="4.10967">
        <ele>178.2</ele>
        <time>2024-03-19T14:37:59Z</time>
      </trkpt>
      <trkpt lat="50.12024" lon="4.1098">
        <ele>178.2</ele>
        <time>2024-03-19T14:38:00Z</time>
      </trkpt>
      <trkpt lat="50.12025" lon="4.10992">
        <ele>178</ele>
        <time>2024-03-19T14:38:01Z</time>
      </trkpt>
      <trkpt lat="50.12025" lon="4.11005">
        <ele>178.2</ele>
        <time>2024-03-19T14:38:02Z</time>
      </trkpt>
      <trkpt lat="50.12026" lon="4.11018">
        <ele>178</ele>
        <time>2024-03-19T14:38:03Z</time>
      </trkpt>
      <trkpt lat="50.12026" lon="4.11031">
        <ele>177.8</ele>
        <time>2024-03-19T14:38:04Z</time>
      </trkpt>
      <trkpt lat="50.12027" lon="4.11044">
        <ele>177.6</ele>
        <time>2024-03-19T14:38:05Z</time>
      </trkpt>
      <trkpt lat="50.12027" lon="4.11056">
        <ele>177.4</ele>
        <time>2024-03-19T14:38:06Z</time>
      </trkpt>
      <trkpt lat="50.12028" lon="4.11069">
        <ele>177.2</ele>
        <time>2024-03-19T14:38:07Z</time>
      </trkpt>
      <trkpt lat="50.12028" lon="4.11082">
        <ele>177</ele>
        <time>2024-03-19T14:38:08Z</time>
      </trkpt>
      <trkpt lat="50.12029" lon="4.11094">
        <ele>176.8</ele>
        <time>2024-03-19T14:38:09Z</time>
      </trkpt>
      <trkpt lat="50.12029" lon="4.11106">
        <ele>176.8</ele>
        <time>2024-03-19T14:38:10Z</time>
      </trkpt>
      <trkpt lat="50.12029" lon="4.11117">
        <ele>176.8</ele>
        <time>2024-03-19T14:38:11Z</time>
      </trkpt>
      <trkpt lat="50.1203" lon="4.11128">
        <ele>176.6</ele>
        <time>2024-03-19T14:38:12Z</time>
      </trkpt>
      <trkpt lat="50.1203" lon="4.11138">
        <ele>176.6</ele>
        <time>2024-03-19T14:38:13Z</time>
      </trkpt>
      <trkpt lat="50.1203" lon="4.11148">
        <ele>176.8</ele>
        <time>2024-03-19T14:38:14Z</time>
      </trkpt>
      <trkpt lat="50.12031" lon="4.11158">
        <ele>176.8</ele>
        <time>2024-03-19T14:38:15Z</time>
      </trkpt>
      <trkpt lat="50.12031" lon="4.11168">
        <ele>176.8</ele>
        <time>2024-03-19T14:38:16Z</time>
      </trkpt>
      <trkpt lat="50.12032" lon="4.11178">
        <ele>176.6</ele>
        <time>2024-03-19T14:38:17Z</time>
      </trkpt>
      <trkpt lat="50.12032" lon="4.11187">
        <ele>176.8</ele>
        <time>2024-03-19T14:38:18Z</time>
      </trkpt>
      <trkpt lat="50.12032" lon="4.11196">
        <ele>176.8</ele>
        <time>2024-03-19T14:38:19Z</time>
      </trkpt>
      <trkpt lat="50.12033" lon="4.11205">
        <ele>177.2</ele>
        <time>2024-03-19T14:38:20Z</time>
      </trkpt>
      <trkpt lat="50.12034" lon="4.11214">
        <ele>178</ele>
        <time>2024-03-19T14:38:21Z</time>
      </trkpt>
      <trkpt lat="50.12034" lon="4.11223">
        <ele>178.4</ele>
        <time>2024-03-19T14:38:22Z</time>
      </trkpt>
      <trkpt lat="50.12035" lon="4.11232">
        <ele>179</ele>
        <time>2024-03-19T14:38:23Z</time>
      </trkpt>
      <trkpt lat="50.12036" lon="4.11241">
        <ele>179.8</ele>
        <time>2024-03-19T14:38:24Z</time>
      </trkpt>
      <trkpt lat="50.12037" lon="4.11249">
        <ele>180.2</ele>
        <time>2024-03-19T14:38:25Z</time>
      </trkpt>
      <trkpt lat="50.12038" lon="4.11258">
        <ele>181</ele>
        <time>2024-03-19T14:38:26Z</time>
      </trkpt>
      <trkpt lat="50.12039" lon="4.11266">
        <ele>181.2</ele>
        <time>2024-03-19T14:38:27Z</time>
      </trkpt>
      <trkpt lat="50.12041" lon="4.11274">
        <ele>181.6</ele>
        <time>2024-03-19T14:38:28Z</time>
      </trkpt>
      <trkpt lat="50.12042" lon="4.11283">
        <ele>182</ele>
        <time>2024-03-19T14:38:29Z</time>
      </trkpt>
      <trkpt lat="50.12044" lon="4.11291">
        <ele>182.2</ele>
        <time>2024-03-19T14:38:30Z</time>
      </trkpt>
      <trkpt lat="50.12045" lon="4.113">
        <ele>182.8</ele>
        <time>2024-03-19T14:38:31Z</time>
      </trkpt>
      <trkpt lat="50.12047" lon="4.11309">
        <ele>183.2</ele>
        <time>2024-03-19T14:38:32Z</time>
      </trkpt>
      <trkpt lat="50.12049" lon="4.11317">
        <ele>183.6</ele>
        <time>2024-03-19T14:38:33Z</time>
      </trkpt>
      <trkpt lat="50.12051" lon="4.11326">
        <ele>184</ele>
        <time>2024-03-19T14:38:34Z</time>
      </trkpt>
      <trkpt lat="50.12053" lon="4.11336">
        <ele>184</ele>
        <time>2024-03-19T14:38:35Z</time>
      </trkpt>
      <trkpt lat="50.12056" lon="4.11345">
        <ele>184.6</ele>
        <time>2024-03-19T14:38:36Z</time>
      </trkpt>
      <trkpt lat="50.12058" lon="4.11355">
        <ele>184.8</ele>
        <time>2024-03-19T14:38:37Z</time>
      </trkpt>
      <trkpt lat="50.12061" lon="4.11364">
        <ele>184.8</ele>
        <time>2024-03-19T14:38:38Z</time>
      </trkpt>
      <trkpt lat="50.12063" lon="4.11374">
        <ele>184.8</ele>
        <time>2024-03-19T14:38:39Z</time>
      </trkpt>
      <trkpt lat="50.12066" lon="4.11384">
        <ele>185</ele>
        <time>2024-03-19T14:38:40Z</time>
      </trkpt>
      <trkpt lat="50.12069" lon="4.11394">
        <ele>185.2</ele>
        <time>2024-03-19T14:38:41Z</time>
      </trkpt>
      <trkpt lat="50.12072" lon="4.11403">
        <ele>185</ele>
        <time>2024-03-19T14:38:42Z</time>
      </trkpt>
      <trkpt lat="50.12076" lon="4.11413">
        <ele>185.2</ele>
        <time>2024-03-19T14:38:43Z</time>
      </trkpt>
      <trkpt lat="50.12079" lon="4.11423">
        <ele>185.2</ele>
        <time>2024-03-19T14:38:44Z</time>
      </trkpt>
      <trkpt lat="50.12083" lon="4.11433">
        <ele>185.2</ele>
        <time>2024-03-19T14:38:45Z</time>
      </trkpt>
      <trkpt lat="50.12086" lon="4.11444">
        <ele>185.2</ele>
        <time>2024-03-19T14:38:46Z</time>
      </trkpt>
      <trkpt lat="50.1209" lon="4.11455">
        <ele>185.2</ele>
        <time>2024-03-19T14:38:47Z</time>
      </trkpt>
      <trkpt lat="50.12094" lon="4.11466">
        <ele>185.2</ele>
        <time>2024-03-19T14:38:48Z</time>
      </trkpt>
      <trkpt lat="50.12098" lon="4.11477">
        <ele>185.2</ele>
        <time>2024-03-19T14:38:49Z</time>
      </trkpt>
      <trkpt lat="50.12102" lon="4.11488">
        <ele>185</ele>
        <time>2024-03-19T14:38:50Z</time>
      </trkpt>
      <trkpt lat="50.12106" lon="4.11499">
        <ele>185</ele>
        <time>2024-03-19T14:38:51Z</time>
      </trkpt>
      <trkpt lat="50.1211" lon="4.11511">
        <ele>185</ele>
        <time>2024-03-19T14:38:52Z</time>
      </trkpt>
      <trkpt lat="50.12115" lon="4.11523">
        <ele>184.8</ele>
        <time>2024-03-19T14:38:53Z</time>
      </trkpt>
      <trkpt lat="50.12119" lon="4.11535">
        <ele>184.8</ele>
        <time>2024-03-19T14:38:54Z</time>
      </trkpt>
      <trkpt lat="50.12123" lon="4.11547">
        <ele>184.6</ele>
        <time>2024-03-19T14:38:55Z</time>
      </trkpt>
      <trkpt lat="50.12127" lon="4.1156">
        <ele>184.4</ele>
        <time>2024-03-19T14:38:56Z</time>
      </trkpt>
      <trkpt lat="50.12131" lon="4.11572">
        <ele>184.2</ele>
        <time>2024-03-19T14:38:57Z</time>
      </trkpt>
      <trkpt lat="50.12135" lon="4.11585">
        <ele>184</ele>
        <time>2024-03-19T14:38:58Z</time>
      </trkpt>
      <trkpt lat="50.12138" lon="4.11599">
        <ele>183.8</ele>
        <time>2024-03-19T14:38:59Z</time>
      </trkpt>
      <trkpt lat="50.12141" lon="4.11613">
        <ele>183.4</ele>
        <time>2024-03-19T14:39:00Z</time>
      </trkpt>
      <trkpt lat="50.12144" lon="4.11627">
        <ele>183</ele>
        <time>2024-03-19T14:39:01Z</time>
      </trkpt>
      <trkpt lat="50.12147" lon="4.11641">
        <ele>182.6</ele>
        <time>2024-03-19T14:39:02Z</time>
      </trkpt>
      <trkpt lat="50.1215" lon="4.11656">
        <ele>182</ele>
        <time>2024-03-19T14:39:03Z</time>
      </trkpt>
      <trkpt lat="50.12153" lon="4.11671">
        <ele>181.4</ele>
        <time>2024-03-19T14:39:04Z</time>
      </trkpt>
      <trkpt lat="50.12156" lon="4.11685">
        <ele>181.2</ele>
        <time>2024-03-19T14:39:05Z</time>
      </trkpt>
      <trkpt lat="50.12159" lon="4.117">
        <ele>181</ele>
        <time>2024-03-19T14:39:06Z</time>
      </trkpt>
      <trkpt lat="50.12162" lon="4.11715">
        <ele>180.2</ele>
        <time>2024-03-19T14:39:07Z</time>
      </trkpt>
      <trkpt lat="50.12165" lon="4.11729">
        <ele>179.6</ele>
        <time>2024-03-19T14:39:08Z</time>
      </trkpt>
      <trkpt lat="50.12168" lon="4.11743">
        <ele>179.6</ele>
        <time>2024-03-19T14:39:09Z</time>
      </trkpt>
      <trkpt lat="50.12171" lon="4.11757">
        <ele>179.2</ele>
        <time>2024-03-19T14:39:10Z</time>
      </trkpt>
      <trkpt lat="50.12173" lon="4.11771">
        <ele>178.8</ele>
        <time>2024-03-19T14:39:11Z</time>
      </trkpt>
      <trkpt lat="50.12176" lon="4.11784">
        <ele>178.4</ele>
        <time>2024-03-19T14:39:12Z</time>
      </trkpt>
      <trkpt lat="50.12179" lon="4.11797">
        <ele>178</ele>
        <time>2024-03-19T14:39:13Z</time>
      </trkpt>
      <trkpt lat="50.12181" lon="4.1181">
        <ele>177.6</ele>
        <time>2024-03-19T14:39:14Z</time>
      </trkpt>
      <trkpt lat="50.12184" lon="4.11823">
        <ele>177.6</ele>
        <time>2024-03-19T14:39:15Z</time>
      </trkpt>
      <trkpt lat="50.12186" lon="4.11835">
        <ele>177.4</ele>
        <time>2024-03-19T14:39:16Z</time>
      </trkpt>
      <trkpt lat="50.12189" lon="4.11847">
        <ele>177.4</ele>
        <time>2024-03-19T14:39:17Z</time>
      </trkpt>
      <trkpt lat="50.12191" lon="4.11859">
        <ele>177.2</ele>
        <time>2024-03-19T14:39:18Z</time>
      </trkpt>
      <trkpt lat="50.12193" lon="4.1187">
        <ele>177.2</ele>
        <time>2024-03-19T14:39:19Z</time>
      </trkpt>
      <trkpt lat="50.12196" lon="4.11882">
        <ele>177.2</ele>
        <time>2024-03-19T14:39:20Z</time>
      </trkpt>
      <trkpt lat="50.12198" lon="4.11893">
        <ele>177.2</ele>
        <time>2024-03-19T14:39:21Z</time>
      </trkpt>
      <trkpt lat="50.12201" lon="4.11905">
        <ele>177</ele>
        <time>2024-03-19T14:39:22Z</time>
      </trkpt>
      <trkpt lat="50.12203" lon="4.11916">
        <ele>177</ele>
        <time>2024-03-19T14:39:23Z</time>
      </trkpt>
      <trkpt lat="50.12205" lon="4.11927">
        <ele>177.2</ele>
        <time>2024-03-19T14:39:24Z</time>
      </trkpt>
      <trkpt lat="50.12207" lon="4.11938">
        <ele>177.2</ele>
        <time>2024-03-19T14:39:25Z</time>
      </trkpt>
      <trkpt lat="50.12209" lon="4.11949">
        <ele>177.2</ele>
        <time>2024-03-19T14:39:26Z</time>
      </trkpt>
      <trkpt lat="50.12212" lon="4.11959">
        <ele>177.2</ele>
        <time>2024-03-19T14:39:27Z</time>
      </trkpt>
      <trkpt lat="50.12214" lon="4.1197">
        <ele>177.2</ele>
        <time>2024-03-19T14:39:28Z</time>
      </trkpt>
      <trkpt lat="50.12216" lon="4.1198">
        <ele>177.4</ele>
        <time>2024-03-19T14:39:29Z</time>
      </trkpt>
      <trkpt lat="50.12217" lon="4.1199">
        <ele>177.4</ele>
        <time>2024-03-19T14:39:30Z</time>
      </trkpt>
      <trkpt lat="50.12219" lon="4.12">
        <ele>177.8</ele>
        <time>2024-03-19T14:39:31Z</time>
      </trkpt>
      <trkpt lat="50.12221" lon="4.12009">
        <ele>178</ele>
        <time>2024-03-19T14:39:32Z</time>
      </trkpt>
      <trkpt lat="50.12223" lon="4.12019">
        <ele>178.2</ele>
        <time>2024-03-19T14:39:33Z</time>
      </trkpt>
      <trkpt lat="50.12224" lon="4.12029">
        <ele>178.4</ele>
        <time>2024-03-19T14:39:34Z</time>
      </trkpt>
      <trkpt lat="50.12226" lon="4.12038">
        <ele>179.2</ele>
        <time>2024-03-19T14:39:35Z</time>
      </trkpt>
      <trkpt lat="50.12227" lon="4.12048">
        <ele>179.8</ele>
        <time>2024-03-19T14:39:36Z</time>
      </trkpt>
      <trkpt lat="50.12228" lon="4.12057">
        <ele>180.2</ele>
        <time>2024-03-19T14:39:37Z</time>
      </trkpt>
      <trkpt lat="50.12229" lon="4.12067">
        <ele>180.4</ele>
        <time>2024-03-19T14:39:38Z</time>
      </trkpt>
      <trkpt lat="50.1223" lon="4.12076">
        <ele>180.6</ele>
        <time>2024-03-19T14:39:39Z</time>
      </trkpt>
      <trkpt lat="50.12231" lon="4.12085">
        <ele>181</ele>
        <time>2024-03-19T14:39:40Z</time>
      </trkpt>
      <trkpt lat="50.12232" lon="4.12094">
        <ele>181.2</ele>
        <time>2024-03-19T14:39:41Z</time>
      </trkpt>
      <trkpt lat="50.12233" lon="4.12104">
        <ele>181.6</ele>
        <time>2024-03-19T14:39:42Z</time>
      </trkpt>
      <trkpt lat="50.12234" lon="4.12113">
        <ele>181.8</ele>
        <time>2024-03-19T14:39:43Z</time>
      </trkpt>
      <trkpt lat="50.12235" lon="4.12123">
        <ele>182</ele>
        <time>2024-03-19T14:39:44Z</time>
      </trkpt>
      <trkpt lat="50.12236" lon="4.12133">
        <ele>182</ele>
        <time>2024-03-19T14:39:45Z</time>
      </trkpt>
      <trkpt lat="50.12236" lon="4.12143">
        <ele>182.4</ele>
        <time>2024-03-19T14:39:46Z</time>
      </trkpt>
      <trkpt lat="50.12237" lon="4.12153">
        <ele>182.6</ele>
        <time>2024-03-19T14:39:47Z</time>
      </trkpt>
      <trkpt lat="50.12238" lon="4.12163">
        <ele>182.8</ele>
        <time>2024-03-19T14:39:48Z</time>
      </trkpt>
      <trkpt lat="50.12239" lon="4.12174">
        <ele>182.8</ele>
        <time>2024-03-19T14:39:49Z</time>
      </trkpt>
      <trkpt lat="50.1224" lon="4.12184">
        <ele>182.8</ele>
        <time>2024-03-19T14:39:50Z</time>
      </trkpt>
      <trkpt lat="50.12242" lon="4.12195">
        <ele>183.2</ele>
        <time>2024-03-19T14:39:51Z</time>
      </trkpt>
      <trkpt lat="50.12243" lon="4.12206">
        <ele>183.8</ele>
        <time>2024-03-19T14:39:52Z</time>
      </trkpt>
      <trkpt lat="50.12244" lon="4.12216">
        <ele>184</ele>
        <time>2024-03-19T14:39:53Z</time>
      </trkpt>
      <trkpt lat="50.12246" lon="4.12227">
        <ele>184.4</ele>
        <time>2024-03-19T14:39:54Z</time>
      </trkpt>
      <trkpt lat="50.12248" lon="4.12238">
        <ele>184.6</ele>
        <time>2024-03-19T14:39:55Z</time>
      </trkpt>
      <trkpt lat="50.12249" lon="4.12248">
        <ele>184.8</ele>
        <time>2024-03-19T14:39:56Z</time>
      </trkpt>
      <trkpt lat="50.12251" lon="4.12259">
        <ele>184.6</ele>
        <time>2024-03-19T14:39:57Z</time>
      </trkpt>
      <trkpt lat="50.12253" lon="4.1227">
        <ele>184.8</ele>
        <time>2024-03-19T14:39:58Z</time>
      </trkpt>
      <trkpt lat="50.12256" lon="4.1228">
        <ele>184.8</ele>
        <time>2024-03-19T14:39:59Z</time>
      </trkpt>
      <trkpt lat="50.12258" lon="4.12291">
        <ele>184.8</ele>
        <time>2024-03-19T14:40:00Z</time>
      </trkpt>
      <trkpt lat="50.1226" lon="4.12301">
        <ele>184.8</ele>
        <time>2024-03-19T14:40:01Z</time>
      </trkpt>
      <trkpt lat="50.12263" lon="4.12311">
        <ele>185</ele>
        <time>2024-03-19T14:40:02Z</time>
      </trkpt>
      <trkpt lat="50.12266" lon="4.12321">
        <ele>185.2</ele>
        <time>2024-03-19T14:40:03Z</time>
      </trkpt>
      <trkpt lat="50.12269" lon="4.12331">
        <ele>185</ele>
        <time>2024-03-19T14:40:04Z</time>
      </trkpt>
      <trkpt lat="50.12272" lon="4.12341">
        <ele>185.2</ele>
        <time>2024-03-19T14:40:05Z</time>
      </trkpt>
      <trkpt lat="50.12275" lon="4.12352">
        <ele>185.2</ele>
        <time>2024-03-19T14:40:06Z</time>
      </trkpt>
      <trkpt lat="50.12278" lon="4.12362">
        <ele>185.4</ele>
        <time>2024-03-19T14:40:07Z</time>
      </trkpt>
      <trkpt lat="50.12282" lon="4.12372">
        <ele>185.2</ele>
        <time>2024-03-19T14:40:08Z</time>
      </trkpt>
      <trkpt lat="50.12285" lon="4.12382">
        <ele>185.2</ele>
        <time>2024-03-19T14:40:09Z</time>
      </trkpt>
      <trkpt lat="50.12288" lon="4.12392">
        <ele>185.2</ele>
        <time>2024-03-19T14:40:10Z</time>
      </trkpt>
      <trkpt lat="50.12291" lon="4.12402">
        <ele>185.4</ele>
        <time>2024-03-19T14:40:11Z</time>
      </trkpt>
      <trkpt lat="50.12294" lon="4.12412">
        <ele>185.4</ele>
        <time>2024-03-19T14:40:12Z</time>
      </trkpt>
      <trkpt lat="50.12297" lon="4.12421">
        <ele>185.4</ele>
        <time>2024-03-19T14:40:13Z</time>
      </trkpt>
      <trkpt lat="50.123" lon="4.12431">
        <ele>185.6</ele>
        <time>2024-03-19T14:40:14Z</time>
      </trkpt>
      <trkpt lat="50.12303" lon="4.1244">
        <ele>185.8</ele>
        <time>2024-03-19T14:40:15Z</time>
      </trkpt>
      <trkpt lat="50.12306" lon="4.12449">
        <ele>186</ele>
        <time>2024-03-19T14:40:16Z</time>
      </trkpt>
      <trkpt lat="50.1231" lon="4.12458">
        <ele>186</ele>
        <time>2024-03-19T14:40:17Z</time>
      </trkpt>
      <trkpt lat="50.12313" lon="4.12467">
        <ele>186.2</ele>
        <time>2024-03-19T14:40:18Z</time>
      </trkpt>
      <trkpt lat="50.12317" lon="4.12476">
        <ele>186</ele>
        <time>2024-03-19T14:40:19Z</time>
      </trkpt>
      <trkpt lat="50.12321" lon="4.12484">
        <ele>186.2</ele>
        <time>2024-03-19T14:40:20Z</time>
      </trkpt>
      <trkpt lat="50.12326" lon="4.12491">
        <ele>186.4</ele>
        <time>2024-03-19T14:40:21Z</time>
      </trkpt>
      <trkpt lat="50.1233" lon="4.12498">
        <ele>186.4</ele>
        <time>2024-03-19T14:40:22Z</time>
      </trkpt>
      <trkpt lat="50.12335" lon="4.12505">
        <ele>186.6</ele>
        <time>2024-03-19T14:40:23Z</time>
      </trkpt>
      <trkpt lat="50.1234" lon="4.12511">
        <ele>186.8</ele>
        <time>2024-03-19T14:40:24Z</time>
      </trkpt>
      <trkpt lat="50.12344" lon="4.12518">
        <ele>186.8</ele>
        <time>2024-03-19T14:40:25Z</time>
      </trkpt>
      <trkpt lat="50.12349" lon="4.12524">
        <ele>187</ele>
        <time>2024-03-19T14:40:26Z</time>
      </trkpt>
      <trkpt lat="50.12353" lon="4.12531">
        <ele>187.4</ele>
        <time>2024-03-19T14:40:27Z</time>
      </trkpt>
      <trkpt lat="50.12358" lon="4.12537">
        <ele>187.6</ele>
        <time>2024-03-19T14:40:28Z</time>
      </trkpt>
      <trkpt lat="50.12363" lon="4.12544">
        <ele>188</ele>
        <time>2024-03-19T14:40:29Z</time>
      </trkpt>
      <trkpt lat="50.12368" lon="4.1255">
        <ele>188.4</ele>
        <time>2024-03-19T14:40:30Z</time>
      </trkpt>
      <trkpt lat="50.12372" lon="4.12556">
        <ele>188.6</ele>
        <time>2024-03-19T14:40:31Z</time>
      </trkpt>
      <trkpt lat="50.12377" lon="4.12563">
        <ele>189</ele>
        <time>2024-03-19T14:40:32Z</time>
      </trkpt>
      <trkpt lat="50.12382" lon="4.1257">
        <ele>190</ele>
        <time>2024-03-19T14:40:33Z</time>
      </trkpt>
      <trkpt lat="50.12387" lon="4.12576">
        <ele>190.6</ele>
        <time>2024-03-19T14:40:34Z</time>
      </trkpt>
      <trkpt lat="50.12392" lon="4.12583">
        <ele>191.2</ele>
        <time>2024-03-19T14:40:35Z</time>
      </trkpt>
      <trkpt lat="50.12397" lon="4.1259">
        <ele>191.2</ele>
        <time>2024-03-19T14:40:36Z</time>
      </trkpt>
      <trkpt lat="50.12402" lon="4.12597">
        <ele>191.4</ele>
        <time>2024-03-19T14:40:37Z</time>
      </trkpt>
      <trkpt lat="50.12407" lon="4.12605">
        <ele>191.6</ele>
        <time>2024-03-19T14:40:38Z</time>
      </trkpt>
      <trkpt lat="50.12412" lon="4.12612">
        <ele>191.8</ele>
        <time>2024-03-19T14:40:39Z</time>
      </trkpt>
      <trkpt lat="50.12418" lon="4.1262">
        <ele>191.6</ele>
        <time>2024-03-19T14:40:40Z</time>
      </trkpt>
      <trkpt lat="50.12424" lon="4.12628">
        <ele>191.6</ele>
        <time>2024-03-19T14:40:41Z</time>
      </trkpt>
      <trkpt lat="50.12429" lon="4.12636">
        <ele>191.8</ele>
        <time>2024-03-19T14:40:42Z</time>
      </trkpt>
      <trkpt lat="50.12435" lon="4.12645">
        <ele>191.8</ele>
        <time>2024-03-19T14:40:43Z</time>
      </trkpt>
      <trkpt lat="50.1244" lon="4.12655">
        <ele>191.8</ele>
        <time>2024-03-19T14:40:44Z</time>
      </trkpt>
      <trkpt lat="50.12445" lon="4.12665">
        <ele>191.8</ele>
        <time>2024-03-19T14:40:45Z</time>
      </trkpt>
      <trkpt lat="50.1245" lon="4.12675">
        <ele>191.8</ele>
        <time>2024-03-19T14:40:46Z</time>
      </trkpt>
      <trkpt lat="50.12455" lon="4.12686">
        <ele>191.8</ele>
        <time>2024-03-19T14:40:47Z</time>
      </trkpt>
      <trkpt lat="50.1246" lon="4.12697">
        <ele>191.8</ele>
        <time>2024-03-19T14:40:48Z</time>
      </trkpt>
      <trkpt lat="50.12463" lon="4.12709">
        <ele>191.8</ele>
        <time>2024-03-19T14:40:49Z</time>
      </trkpt>
      <trkpt lat="50.12467" lon="4.12721">
        <ele>191.8</ele>
        <time>2024-03-19T14:40:50Z</time>
      </trkpt>
      <trkpt lat="50.1247" lon="4.12733">
        <ele>191.6</ele>
        <time>2024-03-19T14:40:51Z</time>
      </trkpt>
      <trkpt lat="50.12473" lon="4.12744">
        <ele>191.6</ele>
        <time>2024-03-19T14:40:52Z</time>
      </trkpt>
      <trkpt lat="50.12475" lon="4.12756">
        <ele>191.6</ele>
        <time>2024-03-19T14:40:53Z</time>
      </trkpt>
      <trkpt lat="50.12477" lon="4.12767">
        <ele>191.4</ele>
        <time>2024-03-19T14:40:54Z</time>
      </trkpt>
      <trkpt lat="50.12479" lon="4.12777">
        <ele>191.4</ele>
        <time>2024-03-19T14:40:55Z</time>
      </trkpt>
      <trkpt lat="50.1248" lon="4.12788">
        <ele>191.4</ele>
        <time>2024-03-19T14:40:56Z</time>
      </trkpt>
      <trkpt lat="50.12481" lon="4.12798">
        <ele>191.6</ele>
        <time>2024-03-19T14:40:57Z</time>
      </trkpt>
      <trkpt lat="50.12482" lon="4.12808">
        <ele>191.4</ele>
        <time>2024-03-19T14:40:58Z</time>
      </trkpt>
      <trkpt lat="50.12483" lon="4.12818">
        <ele>191.6</ele>
        <time>2024-03-19T14:40:59Z</time>
      </trkpt>
      <trkpt lat="50.12483" lon="4.12827">
        <ele>191.6</ele>
        <time>2024-03-19T14:41:00Z</time>
      </trkpt>
      <trkpt lat="50.12483" lon="4.12837">
        <ele>191.6</ele>
        <time>2024-03-19T14:41:01Z</time>
      </trkpt>
      <trkpt lat="50.12483" lon="4.12846">
        <ele>191.8</ele>
        <time>2024-03-19T14:41:02Z</time>
      </trkpt>
      <trkpt lat="50.12482" lon="4.12855">
        <ele>192</ele>
        <time>2024-03-19T14:41:03Z</time>
      </trkpt>
      <trkpt lat="50.12481" lon="4.12864">
        <ele>192.4</ele>
        <time>2024-03-19T14:41:04Z</time>
      </trkpt>
      <trkpt lat="50.12481" lon="4.12872">
        <ele>192.6</ele>
        <time>2024-03-19T14:41:05Z</time>
      </trkpt>
      <trkpt lat="50.1248" lon="4.1288">
        <ele>192.8</ele>
        <time>2024-03-19T14:41:06Z</time>
      </trkpt>
      <trkpt lat="50.12479" lon="4.12888">
        <ele>193</ele>
        <time>2024-03-19T14:41:07Z</time>
      </trkpt>
      <trkpt lat="50.12478" lon="4.12895">
        <ele>193.4</ele>
        <time>2024-03-19T14:41:08Z</time>
      </trkpt>
      <trkpt lat="50.12477" lon="4.12903">
        <ele>193.8</ele>
        <time>2024-03-19T14:41:09Z</time>
      </trkpt>
      <trkpt lat="50.12476" lon="4.12909">
        <ele>193.8</ele>
        <time>2024-03-19T14:41:10Z</time>
      </trkpt>
      <trkpt lat="50.12475" lon="4.12916">
        <ele>194.2</ele>
        <time>2024-03-19T14:41:11Z</time>
      </trkpt>
      <trkpt lat="50.12474" lon="4.12922">
        <ele>195</ele>
        <time>2024-03-19T14:41:12Z</time>
      </trkpt>
      <trkpt lat="50.12473" lon="4.12928">
        <ele>195.6</ele>
        <time>2024-03-19T14:41:13Z</time>
      </trkpt>
      <trkpt lat="50.12472" lon="4.12934">
        <ele>196.2</ele>
        <time>2024-03-19T14:41:14Z</time>
      </trkpt>
      <trkpt lat="50.1247" lon="4.1294">
        <ele>196.4</ele>
        <time>2024-03-19T14:41:15Z</time>
      </trkpt>
      <trkpt lat="50.12469" lon="4.12946">
        <ele>197</ele>
        <time>2024-03-19T14:41:16Z</time>
      </trkpt>
      <trkpt lat="50.12468" lon="4.12953">
        <ele>197.8</ele>
        <time>2024-03-19T14:41:17Z</time>
      </trkpt>
      <trkpt lat="50.12466" lon="4.12959">
        <ele>198.2</ele>
        <time>2024-03-19T14:41:18Z</time>
      </trkpt>
      <trkpt lat="50.12465" lon="4.12965">
        <ele>198.8</ele>
        <time>2024-03-19T14:41:19Z</time>
      </trkpt>
      <trkpt lat="50.12464" lon="4.12971">
        <ele>199.2</ele>
        <time>2024-03-19T14:41:20Z</time>
      </trkpt>
      <trkpt lat="50.12463" lon="4.12977">
        <ele>199.8</ele>
        <time>2024-03-19T14:41:21Z</time>
      </trkpt>
      <trkpt lat="50.12462" lon="4.12984">
        <ele>200</ele>
        <time>2024-03-19T14:41:22Z</time>
      </trkpt>
      <trkpt lat="50.12461" lon="4.1299">
        <ele>200.4</ele>
        <time>2024-03-19T14:41:23Z</time>
      </trkpt>
      <trkpt lat="50.1246" lon="4.12996">
        <ele>201</ele>
        <time>2024-03-19T14:41:24Z</time>
      </trkpt>
      <trkpt lat="50.12459" lon="4.13002">
        <ele>201.2</ele>
        <time>2024-03-19T14:41:25Z</time>
      </trkpt>
      <trkpt lat="50.12458" lon="4.13009">
        <ele>201.6</ele>
        <time>2024-03-19T14:41:26Z</time>
      </trkpt>
      <trkpt lat="50.12457" lon="4.13015">
        <ele>201.6</ele>
        <time>2024-03-19T14:41:27Z</time>
      </trkpt>
      <trkpt lat="50.12457" lon="4.1302">
        <ele>202.2</ele>
        <time>2024-03-19T14:41:28Z</time>
      </trkpt>
      <trkpt lat="50.12456" lon="4.13026">
        <ele>202.6</ele>
        <time>2024-03-19T14:41:29Z</time>
      </trkpt>
      <trkpt lat="50.12455" lon="4.13032">
        <ele>203</ele>
        <time>2024-03-19T14:41:30Z</time>
      </trkpt>
      <trkpt lat="50.12454" lon="4.13038">
        <ele>203.8</ele>
        <time>2024-03-19T14:41:31Z</time>
      </trkpt>
      <trkpt lat="50.12453" lon="4.13043">
        <ele>204.2</ele>
        <time>2024-03-19T14:41:32Z</time>
      </trkpt>
      <trkpt lat="50.12452" lon="4.13049">
        <ele>204.6</ele>
        <time>2024-03-19T14:41:33Z</time>
      </trkpt>
      <trkpt lat="50.12451" lon="4.13055">
        <ele>205</ele>
        <time>2024-03-19T14:41:34Z</time>
      </trkpt>
      <trkpt lat="50.1245" lon="4.13061">
        <ele>205.4</ele>
        <time>2024-03-19T14:41:35Z</time>
      </trkpt>
      <trkpt lat="50.12449" lon="4.13067">
        <ele>205.8</ele>
        <time>2024-03-19T14:41:36Z</time>
      </trkpt>
      <trkpt lat="50.12448" lon="4.13073">
        <ele>206.2</ele>
        <time>2024-03-19T14:41:37Z</time>
      </trkpt>
      <trkpt lat="50.12447" lon="4.13079">
        <ele>206.6</ele>
        <time>2024-03-19T14:41:38Z</time>
      </trkpt>
      <trkpt lat="50.12445" lon="4.13086">
        <ele>207</ele>
        <time>2024-03-19T14:41:39Z</time>
      </trkpt>
      <trkpt lat="50.12444" lon="4.13092">
        <ele>207.4</ele>
        <time>2024-03-19T14:41:40Z</time>
      </trkpt>
      <trkpt lat="50.12443" lon="4.13098">
        <ele>207.8</ele>
        <time>2024-03-19T14:41:41Z</time>
      </trkpt>
      <trkpt lat="50.12441" lon="4.13105">
        <ele>207.8</ele>
        <time>2024-03-19T14:41:42Z</time>
      </trkpt>
      <trkpt lat="50.1244" lon="4.13111">
        <ele>208.2</ele>
        <time>2024-03-19T14:41:43Z</time>
      </trkpt>
      <trkpt lat="50.12438" lon="4.13118">
        <ele>208.2</ele>
        <time>2024-03-19T14:41:44Z</time>
      </trkpt>
      <trkpt lat="50.12436" lon="4.13125">
        <ele>208.8</ele>
        <time>2024-03-19T14:41:45Z</time>
      </trkpt>
      <trkpt lat="50.12435" lon="4.13132">
        <ele>209</ele>
        <time>2024-03-19T14:41:46Z</time>
      </trkpt>
      <trkpt lat="50.12433" lon="4.13139">
        <ele>209.4</ele>
        <time>2024-03-19T14:41:47Z</time>
      </trkpt>
      <trkpt lat="50.12431" lon="4.13146">
        <ele>209.4</ele>
        <time>2024-03-19T14:41:48Z</time>
      </trkpt>
      <trkpt lat="50.12429" lon="4.13154">
        <ele>209.8</ele>
        <time>2024-03-19T14:41:49Z</time>
      </trkpt>
      <trkpt lat="50.12427" lon="4.13161">
        <ele>210</ele>
        <time>2024-03-19T14:41:50Z</time>
      </trkpt>
      <trkpt lat="50.12424" lon="4.13169">
        <ele>210</ele>
        <time>2024-03-19T14:41:51Z</time>
      </trkpt>
      <trkpt lat="50.12422" lon="4.13176">
        <ele>210.4</ele>
        <time>2024-03-19T14:41:52Z</time>
      </trkpt>
      <trkpt lat="50.1242" lon="4.13184">
        <ele>210.4</ele>
        <time>2024-03-19T14:41:53Z</time>
      </trkpt>
      <trkpt lat="50.12418" lon="4.13192">
        <ele>210.8</ele>
        <time>2024-03-19T14:41:54Z</time>
      </trkpt>
      <trkpt lat="50.12415" lon="4.132">
        <ele>210.8</ele>
        <time>2024-03-19T14:41:55Z</time>
      </trkpt>
      <trkpt lat="50.12413" lon="4.13209">
        <ele>211</ele>
        <time>2024-03-19T14:41:56Z</time>
      </trkpt>
      <trkpt lat="50.1241" lon="4.13218">
        <ele>211.2</ele>
        <time>2024-03-19T14:41:57Z</time>
      </trkpt>
      <trkpt lat="50.12408" lon="4.13227">
        <ele>211.2</ele>
        <time>2024-03-19T14:41:58Z</time>
      </trkpt>
      <trkpt lat="50.12402" lon="4.13246">
        <ele>211.4</ele>
        <time>2024-03-19T14:41:59Z</time>
      </trkpt>
      <trkpt lat="50.12402" lon="4.13246">
        <ele>211.4</ele>
        <time>2024-03-19T14:42:00Z</time>
      </trkpt>
      <trkpt lat="50.12396" lon="4.13265">
        <ele>211.4</ele>
        <time>2024-03-19T14:42:01Z</time>
      </trkpt>
      <trkpt lat="50.12396" lon="4.13265">
        <ele>211.6</ele>
        <time>2024-03-19T14:42:02Z</time>
      </trkpt>
      <trkpt lat="50.12393" lon="4.13276">
        <ele>211.6</ele>
        <time>2024-03-19T14:42:03Z</time>
      </trkpt>
      <trkpt lat="50.1239" lon="4.13286">
        <ele>211.6</ele>
        <time>2024-03-19T14:42:04Z</time>
      </trkpt>
      <trkpt lat="50.12387" lon="4.13297">
        <ele>211.6</ele>
        <time>2024-03-19T14:42:05Z</time>
      </trkpt>
      <trkpt lat="50.12384" lon="4.13307">
        <ele>211.6</ele>
        <time>2024-03-19T14:42:06Z</time>
      </trkpt>
      <trkpt lat="50.1238" lon="4.13319">
        <ele>211.6</ele>
        <time>2024-03-19T14:42:07Z</time>
      </trkpt>
      <trkpt lat="50.12377" lon="4.1333">
        <ele>211.6</ele>
        <time>2024-03-19T14:42:08Z</time>
      </trkpt>
      <trkpt lat="50.12374" lon="4.13341">
        <ele>211.8</ele>
        <time>2024-03-19T14:42:09Z</time>
      </trkpt>
      <trkpt lat="50.1237" lon="4.13353">
        <ele>211.6</ele>
        <time>2024-03-19T14:42:10Z</time>
      </trkpt>
      <trkpt lat="50.12366" lon="4.13365">
        <ele>211.4</ele>
        <time>2024-03-19T14:42:11Z</time>
      </trkpt>
      <trkpt lat="50.12362" lon="4.13378">
        <ele>211.6</ele>
        <time>2024-03-19T14:42:12Z</time>
      </trkpt>
      <trkpt lat="50.12358" lon="4.13391">
        <ele>211.4</ele>
        <time>2024-03-19T14:42:13Z</time>
      </trkpt>
      <trkpt lat="50.12354" lon="4.13405">
        <ele>211.2</ele>
        <time>2024-03-19T14:42:14Z</time>
      </trkpt>
      <trkpt lat="50.12349" lon="4.13419">
        <ele>211</ele>
        <time>2024-03-19T14:42:15Z</time>
      </trkpt>
      <trkpt lat="50.12344" lon="4.13433">
        <ele>210.8</ele>
        <time>2024-03-19T14:42:16Z</time>
      </trkpt>
      <trkpt lat="50.12339" lon="4.13446">
        <ele>210.8</ele>
        <time>2024-03-19T14:42:17Z</time>
      </trkpt>
      <trkpt lat="50.12333" lon="4.13461">
        <ele>210.2</ele>
        <time>2024-03-19T14:42:18Z</time>
      </trkpt>
      <trkpt lat="50.12327" lon="4.13477">
        <ele>210.2</ele>
        <time>2024-03-19T14:42:19Z</time>
      </trkpt>
      <trkpt lat="50.12321" lon="4.13493">
        <ele>209.8</ele>
        <time>2024-03-19T14:42:20Z</time>
      </trkpt>
      <trkpt lat="50.12314" lon="4.13509">
        <ele>209.4</ele>
        <time>2024-03-19T14:42:21Z</time>
      </trkpt>
      <trkpt lat="50.12306" lon="4.13525">
        <ele>208.8</ele>
        <time>2024-03-19T14:42:22Z</time>
      </trkpt>
      <trkpt lat="50.12299" lon="4.13541">
        <ele>207.8</ele>
        <time>2024-03-19T14:42:23Z</time>
      </trkpt>
      <trkpt lat="50.12291" lon="4.13557">
        <ele>207</ele>
        <time>2024-03-19T14:42:24Z</time>
      </trkpt>
      <trkpt lat="50.12283" lon="4.13573">
        <ele>205.6</ele>
        <time>2024-03-19T14:42:25Z</time>
      </trkpt>
      <trkpt lat="50.12276" lon="4.13588">
        <ele>204.4</ele>
        <time>2024-03-19T14:42:26Z</time>
      </trkpt>
      <trkpt lat="50.12268" lon="4.13604">
        <ele>203.4</ele>
        <time>2024-03-19T14:42:27Z</time>
      </trkpt>
      <trkpt lat="50.12261" lon="4.13619">
        <ele>201.6</ele>
        <time>2024-03-19T14:42:28Z</time>
      </trkpt>
      <trkpt lat="50.12247" lon="4.13647">
        <ele>200.2</ele>
        <time>2024-03-19T14:42:29Z</time>
      </trkpt>
      <trkpt lat="50.12247" lon="4.13647">
        <ele>199</ele>
        <time>2024-03-19T14:42:30Z</time>
      </trkpt>
      <trkpt lat="50.1224" lon="4.13661">
        <ele>197.6</ele>
        <time>2024-03-19T14:42:31Z</time>
      </trkpt>
      <trkpt lat="50.12234" lon="4.13673">
        <ele>195.8</ele>
        <time>2024-03-19T14:42:32Z</time>
      </trkpt>
      <trkpt lat="50.12228" lon="4.13685">
        <ele>195</ele>
        <time>2024-03-19T14:42:33Z</time>
      </trkpt>
      <trkpt lat="50.12222" lon="4.13697">
        <ele>194.4</ele>
        <time>2024-03-19T14:42:34Z</time>
      </trkpt>
      <trkpt lat="50.12218" lon="4.13707">
        <ele>194.4</ele>
        <time>2024-03-19T14:42:35Z</time>
      </trkpt>
      <trkpt lat="50.12213" lon="4.13716">
        <ele>194.2</ele>
        <time>2024-03-19T14:42:36Z</time>
      </trkpt>
      <trkpt lat="50.12209" lon="4.13725">
        <ele>194.2</ele>
        <time>2024-03-19T14:42:37Z</time>
      </trkpt>
      <trkpt lat="50.12205" lon="4.13733">
        <ele>194.2</ele>
        <time>2024-03-19T14:42:38Z</time>
      </trkpt>
      <trkpt lat="50.12201" lon="4.13741">
        <ele>194.2</ele>
        <time>2024-03-19T14:42:39Z</time>
      </trkpt>
      <trkpt lat="50.12197" lon="4.1375">
        <ele>194.2</ele>
        <time>2024-03-19T14:42:40Z</time>
      </trkpt>
      <trkpt lat="50.12193" lon="4.13758">
        <ele>194</ele>
        <time>2024-03-19T14:42:41Z</time>
      </trkpt>
      <trkpt lat="50.1219" lon="4.13765">
        <ele>194</ele>
        <time>2024-03-19T14:42:42Z</time>
      </trkpt>
      <trkpt lat="50.12187" lon="4.13772">
        <ele>194.2</ele>
        <time>2024-03-19T14:42:43Z</time>
      </trkpt>
      <trkpt lat="50.12184" lon="4.13779">
        <ele>195.4</ele>
        <time>2024-03-19T14:42:44Z</time>
      </trkpt>
      <trkpt lat="50.12181" lon="4.13786">
        <ele>196</ele>
        <time>2024-03-19T14:42:45Z</time>
      </trkpt>
      <trkpt lat="50.12178" lon="4.13792">
        <ele>196.6</ele>
        <time>2024-03-19T14:42:46Z</time>
      </trkpt>
      <trkpt lat="50.12176" lon="4.13798">
        <ele>198</ele>
        <time>2024-03-19T14:42:47Z</time>
      </trkpt>
      <trkpt lat="50.12173" lon="4.13804">
        <ele>198.6</ele>
        <time>2024-03-19T14:42:48Z</time>
      </trkpt>
      <trkpt lat="50.12171" lon="4.1381">
        <ele>199.4</ele>
        <time>2024-03-19T14:42:49Z</time>
      </trkpt>
      <trkpt lat="50.12169" lon="4.13816">
        <ele>200</ele>
        <time>2024-03-19T14:42:50Z</time>
      </trkpt>
      <trkpt lat="50.12167" lon="4.13822">
        <ele>200.4</ele>
        <time>2024-03-19T14:42:51Z</time>
      </trkpt>
      <trkpt lat="50.12165" lon="4.13828">
        <ele>201.2</ele>
        <time>2024-03-19T14:42:52Z</time>
      </trkpt>
      <trkpt lat="50.12163" lon="4.13834">
        <ele>202</ele>
        <time>2024-03-19T14:42:53Z</time>
      </trkpt>
      <trkpt lat="50.12161" lon="4.1384">
        <ele>202.8</ele>
        <time>2024-03-19T14:42:54Z</time>
      </trkpt>
      <trkpt lat="50.12159" lon="4.13846">
        <ele>203.2</ele>
        <time>2024-03-19T14:42:55Z</time>
      </trkpt>
      <trkpt lat="50.12158" lon="4.13851">
        <ele>203.2</ele>
        <time>2024-03-19T14:42:56Z</time>
      </trkpt>
      <trkpt lat="50.12156" lon="4.13857">
        <ele>203.8</ele>
        <time>2024-03-19T14:42:57Z</time>
      </trkpt>
      <trkpt lat="50.12155" lon="4.13863">
        <ele>204.6</ele>
        <time>2024-03-19T14:42:58Z</time>
      </trkpt>
      <trkpt lat="50.12153" lon="4.13869">
        <ele>205.2</ele>
        <time>2024-03-19T14:42:59Z</time>
      </trkpt>
      <trkpt lat="50.12152" lon="4.13875">
        <ele>205.4</ele>
        <time>2024-03-19T14:43:00Z</time>
      </trkpt>
      <trkpt lat="50.1215" lon="4.13881">
        <ele>206</ele>
        <time>2024-03-19T14:43:01Z</time>
      </trkpt>
      <trkpt lat="50.12149" lon="4.13887">
        <ele>206.6</ele>
        <time>2024-03-19T14:43:02Z</time>
      </trkpt>
      <trkpt lat="50.12148" lon="4.13893">
        <ele>207.2</ele>
        <time>2024-03-19T14:43:03Z</time>
      </trkpt>
      <trkpt lat="50.12147" lon="4.13899">
        <ele>207.8</ele>
        <time>2024-03-19T14:43:04Z</time>
      </trkpt>
      <trkpt lat="50.12146" lon="4.13904">
        <ele>208</ele>
        <time>2024-03-19T14:43:05Z</time>
      </trkpt>
      <trkpt lat="50.12145" lon="4.1391">
        <ele>208.4</ele>
        <time>2024-03-19T14:43:06Z</time>
      </trkpt>
      <trkpt lat="50.12144" lon="4.13916">
        <ele>208.8</ele>
        <time>2024-03-19T14:43:07Z</time>
      </trkpt>
      <trkpt lat="50.12144" lon="4.13922">
        <ele>209.2</ele>
        <time>2024-03-19T14:43:08Z</time>
      </trkpt>
      <trkpt lat="50.12143" lon="4.13928">
        <ele>209.6</ele>
        <time>2024-03-19T14:43:09Z</time>
      </trkpt>
      <trkpt lat="50.12142" lon="4.13934">
        <ele>210.2</ele>
        <time>2024-03-19T14:43:10Z</time>
      </trkpt>
      <trkpt lat="50.12142" lon="4.1394">
        <ele>210.8</ele>
        <time>2024-03-19T14:43:11Z</time>
      </trkpt>
      <trkpt lat="50.12141" lon="4.13947">
        <ele>210.8</ele>
        <time>2024-03-19T14:43:12Z</time>
      </trkpt>
      <trkpt lat="50.12141" lon="4.13953">
        <ele>211</ele>
        <time>2024-03-19T14:43:13Z</time>
      </trkpt>
      <trkpt lat="50.1214" lon="4.1396">
        <ele>211.2</ele>
        <time>2024-03-19T14:43:14Z</time>
      </trkpt>
      <trkpt lat="50.1214" lon="4.13966">
        <ele>211.4</ele>
        <time>2024-03-19T14:43:15Z</time>
      </trkpt>
      <trkpt lat="50.1214" lon="4.13973">
        <ele>211.8</ele>
        <time>2024-03-19T14:43:16Z</time>
      </trkpt>
      <trkpt lat="50.1214" lon="4.13979">
        <ele>212</ele>
        <time>2024-03-19T14:43:17Z</time>
      </trkpt>
      <trkpt lat="50.1214" lon="4.13986">
        <ele>212.4</ele>
        <time>2024-03-19T14:43:18Z</time>
      </trkpt>
      <trkpt lat="50.1214" lon="4.13993">
        <ele>212.4</ele>
        <time>2024-03-19T14:43:19Z</time>
      </trkpt>
      <trkpt lat="50.1214" lon="4.14">
        <ele>212.6</ele>
        <time>2024-03-19T14:43:20Z</time>
      </trkpt>
      <trkpt lat="50.1214" lon="4.14007">
        <ele>212.8</ele>
        <time>2024-03-19T14:43:21Z</time>
      </trkpt>
      <trkpt lat="50.12141" lon="4.14014">
        <ele>213.6</ele>
        <time>2024-03-19T14:43:22Z</time>
      </trkpt>
      <trkpt lat="50.12141" lon="4.14022">
        <ele>214.2</ele>
        <time>2024-03-19T14:43:23Z</time>
      </trkpt>
      <trkpt lat="50.12142" lon="4.14029">
        <ele>214.6</ele>
        <time>2024-03-19T14:43:24Z</time>
      </trkpt>
      <trkpt lat="50.12143" lon="4.14037">
        <ele>214.8</ele>
        <time>2024-03-19T14:43:25Z</time>
      </trkpt>
      <trkpt lat="50.12144" lon="4.14045">
        <ele>215.2</ele>
        <time>2024-03-19T14:43:26Z</time>
      </trkpt>
      <trkpt lat="50.12145" lon="4.14053">
        <ele>215.4</ele>
        <time>2024-03-19T14:43:27Z</time>
      </trkpt>
      <trkpt lat="50.12146" lon="4.14061">
        <ele>215.6</ele>
        <time>2024-03-19T14:43:28Z</time>
      </trkpt>
      <trkpt lat="50.12148" lon="4.1407">
        <ele>215.8</ele>
        <time>2024-03-19T14:43:29Z</time>
      </trkpt>
      <trkpt lat="50.12149" lon="4.14078">
        <ele>215.8</ele>
        <time>2024-03-19T14:43:30Z</time>
      </trkpt>
      <trkpt lat="50.12151" lon="4.14087">
        <ele>216.2</ele>
        <time>2024-03-19T14:43:31Z</time>
      </trkpt>
      <trkpt lat="50.12153" lon="4.14096">
        <ele>216.4</ele>
        <time>2024-03-19T14:43:32Z</time>
      </trkpt>
      <trkpt lat="50.12155" lon="4.14105">
        <ele>216.8</ele>
        <time>2024-03-19T14:43:33Z</time>
      </trkpt>
      <trkpt lat="50.12157" lon="4.14115">
        <ele>216.8</ele>
        <time>2024-03-19T14:43:34Z</time>
      </trkpt>
      <trkpt lat="50.12159" lon="4.14125">
        <ele>216.8</ele>
        <time>2024-03-19T14:43:35Z</time>
      </trkpt>
      <trkpt lat="50.12161" lon="4.14135">
        <ele>216.8</ele>
        <time>2024-03-19T14:43:36Z</time>
      </trkpt>
      <trkpt lat="50.12164" lon="4.14145">
        <ele>216.8</ele>
        <time>2024-03-19T14:43:37Z</time>
      </trkpt>
      <trkpt lat="50.12168" lon="4.14155">
        <ele>216.8</ele>
        <time>2024-03-19T14:43:38Z</time>
      </trkpt>
      <trkpt lat="50.12171" lon="4.14165">
        <ele>216.8</ele>
        <time>2024-03-19T14:43:39Z</time>
      </trkpt>
      <trkpt lat="50.12175" lon="4.14175">
        <ele>216.8</ele>
        <time>2024-03-19T14:43:40Z</time>
      </trkpt>
      <trkpt lat="50.12179" lon="4.14185">
        <ele>217</ele>
        <time>2024-03-19T14:43:41Z</time>
      </trkpt>
      <trkpt lat="50.12184" lon="4.14195">
        <ele>217</ele>
        <time>2024-03-19T14:43:42Z</time>
      </trkpt>
      <trkpt lat="50.12189" lon="4.14205">
        <ele>216.8</ele>
        <time>2024-03-19T14:43:43Z</time>
      </trkpt>
      <trkpt lat="50.12194" lon="4.14216">
        <ele>216.8</ele>
        <time>2024-03-19T14:43:44Z</time>
      </trkpt>
      <trkpt lat="50.12199" lon="4.14228">
        <ele>216.8</ele>
        <time>2024-03-19T14:43:45Z</time>
      </trkpt>
      <trkpt lat="50.12205" lon="4.1424">
        <ele>216.8</ele>
        <time>2024-03-19T14:43:46Z</time>
      </trkpt>
      <trkpt lat="50.12211" lon="4.14252">
        <ele>216.8</ele>
        <time>2024-03-19T14:43:47Z</time>
      </trkpt>
      <trkpt lat="50.12217" lon="4.14265">
        <ele>216.8</ele>
        <time>2024-03-19T14:43:48Z</time>
      </trkpt>
      <trkpt lat="50.12223" lon="4.14279">
        <ele>216.6</ele>
        <time>2024-03-19T14:43:49Z</time>
      </trkpt>
      <trkpt lat="50.1223" lon="4.14293">
        <ele>216</ele>
        <time>2024-03-19T14:43:50Z</time>
      </trkpt>
      <trkpt lat="50.12237" lon="4.14308">
        <ele>215.8</ele>
        <time>2024-03-19T14:43:51Z</time>
      </trkpt>
      <trkpt lat="50.12244" lon="4.14323">
        <ele>215.6</ele>
        <time>2024-03-19T14:43:52Z</time>
      </trkpt>
      <trkpt lat="50.1225" lon="4.14337">
        <ele>215</ele>
        <time>2024-03-19T14:43:53Z</time>
      </trkpt>
      <trkpt lat="50.12257" lon="4.14352">
        <ele>214.2</ele>
        <time>2024-03-19T14:43:54Z</time>
      </trkpt>
      <trkpt lat="50.12264" lon="4.14367">
        <ele>213.4</ele>
        <time>2024-03-19T14:43:55Z</time>
      </trkpt>
      <trkpt lat="50.12271" lon="4.14382">
        <ele>212.4</ele>
        <time>2024-03-19T14:43:56Z</time>
      </trkpt>
      <trkpt lat="50.12278" lon="4.14396">
        <ele>211</ele>
        <time>2024-03-19T14:43:57Z</time>
      </trkpt>
      <trkpt lat="50.12284" lon="4.1441">
        <ele>210.2</ele>
        <time>2024-03-19T14:43:58Z</time>
      </trkpt>
      <trkpt lat="50.12291" lon="4.14423">
        <ele>209</ele>
        <time>2024-03-19T14:43:59Z</time>
      </trkpt>
      <trkpt lat="50.12297" lon="4.14436">
        <ele>207.8</ele>
        <time>2024-03-19T14:44:00Z</time>
      </trkpt>
      <trkpt lat="50.12303" lon="4.14448">
        <ele>207</ele>
        <time>2024-03-19T14:44:01Z</time>
      </trkpt>
      <trkpt lat="50.12308" lon="4.1446">
        <ele>206.4</ele>
        <time>2024-03-19T14:44:02Z</time>
      </trkpt>
      <trkpt lat="50.12313" lon="4.14471">
        <ele>206.4</ele>
        <time>2024-03-19T14:44:03Z</time>
      </trkpt>
      <trkpt lat="50.12318" lon="4.14482">
        <ele>206.2</ele>
        <time>2024-03-19T14:44:04Z</time>
      </trkpt>
      <trkpt lat="50.12323" lon="4.14492">
        <ele>206</ele>
        <time>2024-03-19T14:44:05Z</time>
      </trkpt>
      <trkpt lat="50.12327" lon="4.14501">
        <ele>205.8</ele>
        <time>2024-03-19T14:44:06Z</time>
      </trkpt>
      <trkpt lat="50.12331" lon="4.1451">
        <ele>205.8</ele>
        <time>2024-03-19T14:44:07Z</time>
      </trkpt>
      <trkpt lat="50.12335" lon="4.14518">
        <ele>205.8</ele>
        <time>2024-03-19T14:44:08Z</time>
      </trkpt>
      <trkpt lat="50.12339" lon="4.14526">
        <ele>206</ele>
        <time>2024-03-19T14:44:09Z</time>
      </trkpt>
      <trkpt lat="50.12343" lon="4.14535">
        <ele>205.8</ele>
        <time>2024-03-19T14:44:10Z</time>
      </trkpt>
      <trkpt lat="50.12347" lon="4.14543">
        <ele>205.8</ele>
        <time>2024-03-19T14:44:11Z</time>
      </trkpt>
      <trkpt lat="50.12351" lon="4.14551">
        <ele>205.8</ele>
        <time>2024-03-19T14:44:12Z</time>
      </trkpt>
      <trkpt lat="50.12354" lon="4.1456">
        <ele>206.2</ele>
        <time>2024-03-19T14:44:13Z</time>
      </trkpt>
      <trkpt lat="50.12358" lon="4.14568">
        <ele>206.8</ele>
        <time>2024-03-19T14:44:14Z</time>
      </trkpt>
      <trkpt lat="50.12362" lon="4.14576">
        <ele>207.4</ele>
        <time>2024-03-19T14:44:15Z</time>
      </trkpt>
      <trkpt lat="50.12366" lon="4.14584">
        <ele>208.2</ele>
        <time>2024-03-19T14:44:16Z</time>
      </trkpt>
      <trkpt lat="50.1237" lon="4.14592">
        <ele>209</ele>
        <time>2024-03-19T14:44:17Z</time>
      </trkpt>
      <trkpt lat="50.12373" lon="4.146">
        <ele>209.2</ele>
        <time>2024-03-19T14:44:18Z</time>
      </trkpt>
      <trkpt lat="50.12377" lon="4.14608">
        <ele>210.2</ele>
        <time>2024-03-19T14:44:19Z</time>
      </trkpt>
      <trkpt lat="50.12381" lon="4.14617">
        <ele>210.6</ele>
        <time>2024-03-19T14:44:20Z</time>
      </trkpt>
      <trkpt lat="50.12385" lon="4.14625">
        <ele>210.6</ele>
        <time>2024-03-19T14:44:21Z</time>
      </trkpt>
      <trkpt lat="50.12389" lon="4.14633">
        <ele>210.8</ele>
        <time>2024-03-19T14:44:22Z</time>
      </trkpt>
      <trkpt lat="50.12393" lon="4.14641">
        <ele>211.2</ele>
        <time>2024-03-19T14:44:23Z</time>
      </trkpt>
      <trkpt lat="50.12397" lon="4.1465">
        <ele>211.2</ele>
        <time>2024-03-19T14:44:24Z</time>
      </trkpt>
      <trkpt lat="50.124" lon="4.14658">
        <ele>211.6</ele>
        <time>2024-03-19T14:44:25Z</time>
      </trkpt>
      <trkpt lat="50.12404" lon="4.14667">
        <ele>211.8</ele>
        <time>2024-03-19T14:44:26Z</time>
      </trkpt>
      <trkpt lat="50.12409" lon="4.14675">
        <ele>212</ele>
        <time>2024-03-19T14:44:27Z</time>
      </trkpt>
      <trkpt lat="50.12413" lon="4.14684">
        <ele>212.6</ele>
        <time>2024-03-19T14:44:28Z</time>
      </trkpt>
      <trkpt lat="50.12418" lon="4.14692">
        <ele>213</ele>
        <time>2024-03-19T14:44:29Z</time>
      </trkpt>
      <trkpt lat="50.12423" lon="4.147">
        <ele>213.4</ele>
        <time>2024-03-19T14:44:30Z</time>
      </trkpt>
      <trkpt lat="50.12428" lon="4.14708">
        <ele>213.6</ele>
        <time>2024-03-19T14:44:31Z</time>
      </trkpt>
      <trkpt lat="50.12434" lon="4.14715">
        <ele>213.6</ele>
        <time>2024-03-19T14:44:32Z</time>
      </trkpt>
      <trkpt lat="50.12439" lon="4.14722">
        <ele>213.6</ele>
        <time>2024-03-19T14:44:33Z</time>
      </trkpt>
      <trkpt lat="50.12445" lon="4.14728">
        <ele>213.6</ele>
        <time>2024-03-19T14:44:34Z</time>
      </trkpt>
      <trkpt lat="50.12452" lon="4.14735">
        <ele>213.6</ele>
        <time>2024-03-19T14:44:35Z</time>
      </trkpt>
      <trkpt lat="50.12458" lon="4.14741">
        <ele>213.6</ele>
        <time>2024-03-19T14:44:36Z</time>
      </trkpt>
      <trkpt lat="50.12465" lon="4.14747">
        <ele>213.6</ele>
        <time>2024-03-19T14:44:37Z</time>
      </trkpt>
      <trkpt lat="50.12472" lon="4.14753">
        <ele>213.6</ele>
        <time>2024-03-19T14:44:38Z</time>
      </trkpt>
      <trkpt lat="50.12479" lon="4.14759">
        <ele>213.6</ele>
        <time>2024-03-19T14:44:39Z</time>
      </trkpt>
      <trkpt lat="50.12486" lon="4.14766">
        <ele>213.6</ele>
        <time>2024-03-19T14:44:40Z</time>
      </trkpt>
      <trkpt lat="50.12492" lon="4.14773">
        <ele>213.4</ele>
        <time>2024-03-19T14:44:41Z</time>
      </trkpt>
      <trkpt lat="50.12499" lon="4.14781">
        <ele>213.4</ele>
        <time>2024-03-19T14:44:42Z</time>
      </trkpt>
      <trkpt lat="50.12506" lon="4.1479">
        <ele>213.4</ele>
        <time>2024-03-19T14:44:43Z</time>
      </trkpt>
      <trkpt lat="50.12511" lon="4.148">
        <ele>213.2</ele>
        <time>2024-03-19T14:44:44Z</time>
      </trkpt>
      <trkpt lat="50.12516" lon="4.14812">
        <ele>213</ele>
        <time>2024-03-19T14:44:45Z</time>
      </trkpt>
      <trkpt lat="50.12519" lon="4.14826">
        <ele>212.6</ele>
        <time>2024-03-19T14:44:46Z</time>
      </trkpt>
      <trkpt lat="50.12522" lon="4.1484">
        <ele>212.8</ele>
        <time>2024-03-19T14:44:47Z</time>
      </trkpt>
      <trkpt lat="50.12524" lon="4.14854">
        <ele>212.2</ele>
        <time>2024-03-19T14:44:48Z</time>
      </trkpt>
      <trkpt lat="50.12527" lon="4.14869">
        <ele>211.8</ele>
        <time>2024-03-19T14:44:49Z</time>
      </trkpt>
      <trkpt lat="50.1253" lon="4.14884">
        <ele>211.4</ele>
        <time>2024-03-19T14:44:50Z</time>
      </trkpt>
      <trkpt lat="50.12533" lon="4.149">
        <ele>211</ele>
        <time>2024-03-19T14:44:51Z</time>
      </trkpt>
      <trkpt lat="50.12537" lon="4.14916">
        <ele>210.4</ele>
        <time>2024-03-19T14:44:52Z</time>
      </trkpt>
      <trkpt lat="50.1254" lon="4.14933">
        <ele>209.6</ele>
        <time>2024-03-19T14:44:53Z</time>
      </trkpt>
      <trkpt lat="50.12543" lon="4.14949">
        <ele>209.6</ele>
        <time>2024-03-19T14:44:54Z</time>
      </trkpt>
      <trkpt lat="50.12546" lon="4.14967">
        <ele>209.4</ele>
        <time>2024-03-19T14:44:55Z</time>
      </trkpt>
      <trkpt lat="50.12547" lon="4.14985">
        <ele>208.8</ele>
        <time>2024-03-19T14:44:56Z</time>
      </trkpt>
      <trkpt lat="50.12547" lon="4.15004">
        <ele>208</ele>
        <time>2024-03-19T14:44:57Z</time>
      </trkpt>
      <trkpt lat="50.12546" lon="4.15024">
        <ele>207.6</ele>
        <time>2024-03-19T14:44:58Z</time>
      </trkpt>
      <trkpt lat="50.12543" lon="4.15043">
        <ele>207.2</ele>
        <time>2024-03-19T14:44:59Z</time>
      </trkpt>
      <trkpt lat="50.12538" lon="4.15062">
        <ele>205.8</ele>
        <time>2024-03-19T14:45:00Z</time>
      </trkpt>
      <trkpt lat="50.12531" lon="4.1508">
        <ele>204.4</ele>
        <time>2024-03-19T14:45:01Z</time>
      </trkpt>
      <trkpt lat="50.12524" lon="4.15097">
        <ele>203.6</ele>
        <time>2024-03-19T14:45:02Z</time>
      </trkpt>
      <trkpt lat="50.12517" lon="4.15115">
        <ele>202.8</ele>
        <time>2024-03-19T14:45:03Z</time>
      </trkpt>
      <trkpt lat="50.12509" lon="4.15133">
        <ele>202.2</ele>
        <time>2024-03-19T14:45:04Z</time>
      </trkpt>
      <trkpt lat="50.12501" lon="4.1515">
        <ele>200.6</ele>
        <time>2024-03-19T14:45:05Z</time>
      </trkpt>
      <trkpt lat="50.12492" lon="4.15167">
        <ele>198.8</ele>
        <time>2024-03-19T14:45:06Z</time>
      </trkpt>
      <trkpt lat="50.12482" lon="4.15183">
        <ele>197</ele>
        <time>2024-03-19T14:45:07Z</time>
      </trkpt>
      <trkpt lat="50.12472" lon="4.15198">
        <ele>196.2</ele>
        <time>2024-03-19T14:45:08Z</time>
      </trkpt>
      <trkpt lat="50.12461" lon="4.15212">
        <ele>195.2</ele>
        <time>2024-03-19T14:45:09Z</time>
      </trkpt>
      <trkpt lat="50.12449" lon="4.15225">
        <ele>194</ele>
        <time>2024-03-19T14:45:10Z</time>
      </trkpt>
      <trkpt lat="50.12438" lon="4.15239">
        <ele>194</ele>
        <time>2024-03-19T14:45:11Z</time>
      </trkpt>
      <trkpt lat="50.12426" lon="4.15252">
        <ele>193</ele>
        <time>2024-03-19T14:45:12Z</time>
      </trkpt>
      <trkpt lat="50.12414" lon="4.15266">
        <ele>191.8</ele>
        <time>2024-03-19T14:45:13Z</time>
      </trkpt>
      <trkpt lat="50.12403" lon="4.15279">
        <ele>190.4</ele>
        <time>2024-03-19T14:45:14Z</time>
      </trkpt>
      <trkpt lat="50.12391" lon="4.15293">
        <ele>189</ele>
        <time>2024-03-19T14:45:15Z</time>
      </trkpt>
      <trkpt lat="50.12379" lon="4.15306">
        <ele>188.4</ele>
        <time>2024-03-19T14:45:16Z</time>
      </trkpt>
      <trkpt lat="50.12367" lon="4.1532">
        <ele>187.2</ele>
        <time>2024-03-19T14:45:17Z</time>
      </trkpt>
      <trkpt lat="50.12356" lon="4.15333">
        <ele>185.6</ele>
        <time>2024-03-19T14:45:18Z</time>
      </trkpt>
      <trkpt lat="50.12345" lon="4.15346">
        <ele>184</ele>
        <time>2024-03-19T14:45:19Z</time>
      </trkpt>
      <trkpt lat="50.12335" lon="4.1536">
        <ele>181.8</ele>
        <time>2024-03-19T14:45:20Z</time>
      </trkpt>
      <trkpt lat="50.12325" lon="4.15373">
        <ele>180</ele>
        <time>2024-03-19T14:45:21Z</time>
      </trkpt>
      <trkpt lat="50.12316" lon="4.15387">
        <ele>178.8</ele>
        <time>2024-03-19T14:45:22Z</time>
      </trkpt>
      <trkpt lat="50.12308" lon="4.15401">
        <ele>178</ele>
        <time>2024-03-19T14:45:23Z</time>
      </trkpt>
      <trkpt lat="50.123" lon="4.15415">
        <ele>177.4</ele>
        <time>2024-03-19T14:45:24Z</time>
      </trkpt>
      <trkpt lat="50.12293" lon="4.15428">
        <ele>177</ele>
        <time>2024-03-19T14:45:25Z</time>
      </trkpt>
      <trkpt lat="50.12287" lon="4.1544">
        <ele>177</ele>
        <time>2024-03-19T14:45:26Z</time>
      </trkpt>
      <trkpt lat="50.12281" lon="4.15452">
        <ele>176.8</ele>
        <time>2024-03-19T14:45:27Z</time>
      </trkpt>
      <trkpt lat="50.12275" lon="4.15464">
        <ele>176.8</ele>
        <time>2024-03-19T14:45:28Z</time>
      </trkpt>
      <trkpt lat="50.1227" lon="4.15474">
        <ele>177</ele>
        <time>2024-03-19T14:45:29Z</time>
      </trkpt>
      <trkpt lat="50.12266" lon="4.15484">
        <ele>176.8</ele>
        <time>2024-03-19T14:45:30Z</time>
      </trkpt>
      <trkpt lat="50.12261" lon="4.15494">
        <ele>176.8</ele>
        <time>2024-03-19T14:45:31Z</time>
      </trkpt>
      <trkpt lat="50.12258" lon="4.15503">
        <ele>176.8</ele>
        <time>2024-03-19T14:45:32Z</time>
      </trkpt>
      <trkpt lat="50.12254" lon="4.15511">
        <ele>176.8</ele>
        <time>2024-03-19T14:45:33Z</time>
      </trkpt>
      <trkpt lat="50.12251" lon="4.1552">
        <ele>176.8</ele>
        <time>2024-03-19T14:45:34Z</time>
      </trkpt>
      <trkpt lat="50.12248" lon="4.15528">
        <ele>177.4</ele>
        <time>2024-03-19T14:45:35Z</time>
      </trkpt>
      <trkpt lat="50.12245" lon="4.15536">
        <ele>178</ele>
        <time>2024-03-19T14:45:36Z</time>
      </trkpt>
      <trkpt lat="50.12242" lon="4.15545">
        <ele>179</ele>
        <time>2024-03-19T14:45:37Z</time>
      </trkpt>
      <trkpt lat="50.1224" lon="4.15553">
        <ele>179.8</ele>
        <time>2024-03-19T14:45:38Z</time>
      </trkpt>
      <trkpt lat="50.12238" lon="4.15562">
        <ele>180.8</ele>
        <time>2024-03-19T14:45:39Z</time>
      </trkpt>
      <trkpt lat="50.12236" lon="4.1557">
        <ele>182</ele>
        <time>2024-03-19T14:45:40Z</time>
      </trkpt>
      <trkpt lat="50.12235" lon="4.15578">
        <ele>183</ele>
        <time>2024-03-19T14:45:41Z</time>
      </trkpt>
      <trkpt lat="50.12234" lon="4.15587">
        <ele>184</ele>
        <time>2024-03-19T14:45:42Z</time>
      </trkpt>
      <trkpt lat="50.12232" lon="4.15595">
        <ele>184.6</ele>
        <time>2024-03-19T14:45:43Z</time>
      </trkpt>
      <trkpt lat="50.12231" lon="4.15603">
        <ele>185.4</ele>
        <time>2024-03-19T14:45:44Z</time>
      </trkpt>
      <trkpt lat="50.1223" lon="4.15611">
        <ele>185.8</ele>
        <time>2024-03-19T14:45:45Z</time>
      </trkpt>
      <trkpt lat="50.12229" lon="4.15619">
        <ele>185.8</ele>
        <time>2024-03-19T14:45:46Z</time>
      </trkpt>
      <trkpt lat="50.12228" lon="4.15627">
        <ele>186</ele>
        <time>2024-03-19T14:45:47Z</time>
      </trkpt>
      <trkpt lat="50.12227" lon="4.15635">
        <ele>186.4</ele>
        <time>2024-03-19T14:45:48Z</time>
      </trkpt>
      <trkpt lat="50.12225" lon="4.15643">
        <ele>186.8</ele>
        <time>2024-03-19T14:45:49Z</time>
      </trkpt>
      <trkpt lat="50.12224" lon="4.1565">
        <ele>187.2</ele>
        <time>2024-03-19T14:45:50Z</time>
      </trkpt>
      <trkpt lat="50.12223" lon="4.15658">
        <ele>187.2</ele>
        <time>2024-03-19T14:45:51Z</time>
      </trkpt>
      <trkpt lat="50.12221" lon="4.15666">
        <ele>187.6</ele>
        <time>2024-03-19T14:45:52Z</time>
      </trkpt>
      <trkpt lat="50.1222" lon="4.15673">
        <ele>188</ele>
        <time>2024-03-19T14:45:53Z</time>
      </trkpt>
      <trkpt lat="50.12219" lon="4.15681">
        <ele>188.6</ele>
        <time>2024-03-19T14:45:54Z</time>
      </trkpt>
      <trkpt lat="50.12217" lon="4.15688">
        <ele>189.6</ele>
        <time>2024-03-19T14:45:55Z</time>
      </trkpt>
      <trkpt lat="50.12215" lon="4.15696">
        <ele>190.4</ele>
        <time>2024-03-19T14:45:56Z</time>
      </trkpt>
      <trkpt lat="50.12214" lon="4.15703">
        <ele>190.8</ele>
        <time>2024-03-19T14:45:57Z</time>
      </trkpt>
      <trkpt lat="50.12212" lon="4.1571">
        <ele>191.2</ele>
        <time>2024-03-19T14:45:58Z</time>
      </trkpt>
      <trkpt lat="50.1221" lon="4.15718">
        <ele>191.8</ele>
        <time>2024-03-19T14:45:59Z</time>
      </trkpt>
      <trkpt lat="50.12208" lon="4.15725">
        <ele>192.4</ele>
        <time>2024-03-19T14:46:00Z</time>
      </trkpt>
      <trkpt lat="50.12206" lon="4.15732">
        <ele>192.6</ele>
        <time>2024-03-19T14:46:01Z</time>
      </trkpt>
      <trkpt lat="50.12204" lon="4.15739">
        <ele>193</ele>
        <time>2024-03-19T14:46:02Z</time>
      </trkpt>
      <trkpt lat="50.12203" lon="4.15746">
        <ele>193.4</ele>
        <time>2024-03-19T14:46:03Z</time>
      </trkpt>
      <trkpt lat="50.12201" lon="4.15754">
        <ele>193.8</ele>
        <time>2024-03-19T14:46:04Z</time>
      </trkpt>
      <trkpt lat="50.12199" lon="4.15761">
        <ele>193.8</ele>
        <time>2024-03-19T14:46:05Z</time>
      </trkpt>
      <trkpt lat="50.12197" lon="4.15768">
        <ele>194.4</ele>
        <time>2024-03-19T14:46:06Z</time>
      </trkpt>
      <trkpt lat="50.12195" lon="4.15775">
        <ele>194.8</ele>
        <time>2024-03-19T14:46:07Z</time>
      </trkpt>
      <trkpt lat="50.12193" lon="4.15782">
        <ele>195.2</ele>
        <time>2024-03-19T14:46:08Z</time>
      </trkpt>
      <trkpt lat="50.12191" lon="4.15789">
        <ele>195.6</ele>
        <time>2024-03-19T14:46:09Z</time>
      </trkpt>
      <trkpt lat="50.12189" lon="4.15796">
        <ele>196</ele>
        <time>2024-03-19T14:46:10Z</time>
      </trkpt>
      <trkpt lat="50.12187" lon="4.15803">
        <ele>196.4</ele>
        <time>2024-03-19T14:46:11Z</time>
      </trkpt>
      <trkpt lat="50.12185" lon="4.1581">
        <ele>196.8</ele>
        <time>2024-03-19T14:46:12Z</time>
      </trkpt>
      <trkpt lat="50.12183" lon="4.15817">
        <ele>197.2</ele>
        <time>2024-03-19T14:46:13Z</time>
      </trkpt>
      <trkpt lat="50.12181" lon="4.15824">
        <ele>197.6</ele>
        <time>2024-03-19T14:46:14Z</time>
      </trkpt>
      <trkpt lat="50.12179" lon="4.15831">
        <ele>198</ele>
        <time>2024-03-19T14:46:15Z</time>
      </trkpt>
      <trkpt lat="50.12177" lon="4.15839">
        <ele>198</ele>
        <time>2024-03-19T14:46:16Z</time>
      </trkpt>
      <trkpt lat="50.12174" lon="4.15847">
        <ele>198.6</ele>
        <time>2024-03-19T14:46:17Z</time>
      </trkpt>
      <trkpt lat="50.12172" lon="4.15855">
        <ele>199</ele>
        <time>2024-03-19T14:46:18Z</time>
      </trkpt>
      <trkpt lat="50.1217" lon="4.15863">
        <ele>199.4</ele>
        <time>2024-03-19T14:46:19Z</time>
      </trkpt>
      <trkpt lat="50.12167" lon="4.15872">
        <ele>199.6</ele>
        <time>2024-03-19T14:46:20Z</time>
      </trkpt>
      <trkpt lat="50.12165" lon="4.15881">
        <ele>200</ele>
        <time>2024-03-19T14:46:21Z</time>
      </trkpt>
      <trkpt lat="50.12163" lon="4.15889">
        <ele>200</ele>
        <time>2024-03-19T14:46:22Z</time>
      </trkpt>
      <trkpt lat="50.12161" lon="4.15898">
        <ele>200.2</ele>
        <time>2024-03-19T14:46:23Z</time>
      </trkpt>
      <trkpt lat="50.12159" lon="4.15907">
        <ele>200.4</ele>
        <time>2024-03-19T14:46:24Z</time>
      </trkpt>
      <trkpt lat="50.12158" lon="4.15916">
        <ele>200.4</ele>
        <time>2024-03-19T14:46:25Z</time>
      </trkpt>
      <trkpt lat="50.12157" lon="4.15926">
        <ele>200.4</ele>
        <time>2024-03-19T14:46:26Z</time>
      </trkpt>
      <trkpt lat="50.12157" lon="4.15937">
        <ele>200.4</ele>
        <time>2024-03-19T14:46:27Z</time>
      </trkpt>
      <trkpt lat="50.12158" lon="4.15948">
        <ele>200.6</ele>
        <time>2024-03-19T14:46:28Z</time>
      </trkpt>
      <trkpt lat="50.12159" lon="4.1596">
        <ele>200.6</ele>
        <time>2024-03-19T14:46:29Z</time>
      </trkpt>
      <trkpt lat="50.12161" lon="4.15972">
        <ele>200.6</ele>
        <time>2024-03-19T14:46:30Z</time>
      </trkpt>
      <trkpt lat="50.12164" lon="4.15985">
        <ele>200.6</ele>
        <time>2024-03-19T14:46:31Z</time>
      </trkpt>
      <trkpt lat="50.12169" lon="4.15997">
        <ele>200.4</ele>
        <time>2024-03-19T14:46:32Z</time>
      </trkpt>
      <trkpt lat="50.12174" lon="4.16009">
        <ele>200.2</ele>
        <time>2024-03-19T14:46:33Z</time>
      </trkpt>
      <trkpt lat="50.1218" lon="4.1602">
        <ele>200</ele>
        <time>2024-03-19T14:46:34Z</time>
      </trkpt>
      <trkpt lat="50.12186" lon="4.16031">
        <ele>200</ele>
        <time>2024-03-19T14:46:35Z</time>
      </trkpt>
      <trkpt lat="50.12193" lon="4.16041">
        <ele>199.8</ele>
        <time>2024-03-19T14:46:36Z</time>
      </trkpt>
      <trkpt lat="50.12199" lon="4.16052">
        <ele>199.2</ele>
        <time>2024-03-19T14:46:37Z</time>
      </trkpt>
      <trkpt lat="50.12206" lon="4.16062">
        <ele>198.4</ele>
        <time>2024-03-19T14:46:38Z</time>
      </trkpt>
      <trkpt lat="50.12212" lon="4.16072">
        <ele>197.8</ele>
        <time>2024-03-19T14:46:39Z</time>
      </trkpt>
      <trkpt lat="50.12219" lon="4.16082">
        <ele>197.8</ele>
        <time>2024-03-19T14:46:40Z</time>
      </trkpt>
      <trkpt lat="50.12225" lon="4.16092">
        <ele>197</ele>
        <time>2024-03-19T14:46:41Z</time>
      </trkpt>
      <trkpt lat="50.12231" lon="4.16102">
        <ele>196.8</ele>
        <time>2024-03-19T14:46:42Z</time>
      </trkpt>
      <trkpt lat="50.12238" lon="4.16112">
        <ele>196.2</ele>
        <time>2024-03-19T14:46:43Z</time>
      </trkpt>
      <trkpt lat="50.12244" lon="4.16122">
        <ele>195.8</ele>
        <time>2024-03-19T14:46:44Z</time>
      </trkpt>
      <trkpt lat="50.1225" lon="4.16131">
        <ele>195.6</ele>
        <time>2024-03-19T14:46:45Z</time>
      </trkpt>
      <trkpt lat="50.12256" lon="4.16141">
        <ele>195.4</ele>
        <time>2024-03-19T14:46:46Z</time>
      </trkpt>
      <trkpt lat="50.12262" lon="4.16151">
        <ele>195.2</ele>
        <time>2024-03-19T14:46:47Z</time>
      </trkpt>
      <trkpt lat="50.12269" lon="4.16161">
        <ele>195.2</ele>
        <time>2024-03-19T14:46:48Z</time>
      </trkpt>
      <trkpt lat="50.12275" lon="4.16171">
        <ele>195.2</ele>
        <time>2024-03-19T14:46:49Z</time>
      </trkpt>
      <trkpt lat="50.12281" lon="4.16181">
        <ele>195</ele>
        <time>2024-03-19T14:46:50Z</time>
      </trkpt>
      <trkpt lat="50.12288" lon="4.16191">
        <ele>195</ele>
        <time>2024-03-19T14:46:51Z</time>
      </trkpt>
      <trkpt lat="50.12294" lon="4.16202">
        <ele>195</ele>
        <time>2024-03-19T14:46:52Z</time>
      </trkpt>
      <trkpt lat="50.12301" lon="4.16214">
        <ele>195</ele>
        <time>2024-03-19T14:46:53Z</time>
      </trkpt>
      <trkpt lat="50.12307" lon="4.16226">
        <ele>194.8</ele>
        <time>2024-03-19T14:46:54Z</time>
      </trkpt>
      <trkpt lat="50.12312" lon="4.1624">
        <ele>194.6</ele>
        <time>2024-03-19T14:46:55Z</time>
      </trkpt>
      <trkpt lat="50.12315" lon="4.16255">
        <ele>194.4</ele>
        <time>2024-03-19T14:46:56Z</time>
      </trkpt>
      <trkpt lat="50.12318" lon="4.1627">
        <ele>194.2</ele>
        <time>2024-03-19T14:46:57Z</time>
      </trkpt>
      <trkpt lat="50.12319" lon="4.16287">
        <ele>194.2</ele>
        <time>2024-03-19T14:46:58Z</time>
      </trkpt>
      <trkpt lat="50.12319" lon="4.16303">
        <ele>193.8</ele>
        <time>2024-03-19T14:46:59Z</time>
      </trkpt>
      <trkpt lat="50.12318" lon="4.1632">
        <ele>193.6</ele>
        <time>2024-03-19T14:47:00Z</time>
      </trkpt>
      <trkpt lat="50.12316" lon="4.16336">
        <ele>192.8</ele>
        <time>2024-03-19T14:47:01Z</time>
      </trkpt>
      <trkpt lat="50.12312" lon="4.16352">
        <ele>191.8</ele>
        <time>2024-03-19T14:47:02Z</time>
      </trkpt>
      <trkpt lat="50.12307" lon="4.16367">
        <ele>191.2</ele>
        <time>2024-03-19T14:47:03Z</time>
      </trkpt>
      <trkpt lat="50.12301" lon="4.16381">
        <ele>190.8</ele>
        <time>2024-03-19T14:47:04Z</time>
      </trkpt>
      <trkpt lat="50.12296" lon="4.16395">
        <ele>190.2</ele>
        <time>2024-03-19T14:47:05Z</time>
      </trkpt>
      <trkpt lat="50.1229" lon="4.16409">
        <ele>189.4</ele>
        <time>2024-03-19T14:47:06Z</time>
      </trkpt>
      <trkpt lat="50.12284" lon="4.16422">
        <ele>188.6</ele>
        <time>2024-03-19T14:47:07Z</time>
      </trkpt>
      <trkpt lat="50.12278" lon="4.16435">
        <ele>188</ele>
        <time>2024-03-19T14:47:08Z</time>
      </trkpt>
      <trkpt lat="50.12273" lon="4.16448">
        <ele>187.2</ele>
        <time>2024-03-19T14:47:09Z</time>
      </trkpt>
      <trkpt lat="50.12268" lon="4.16461">
        <ele>186.4</ele>
        <time>2024-03-19T14:47:10Z</time>
      </trkpt>
      <trkpt lat="50.12263" lon="4.16475">
        <ele>185.4</ele>
        <time>2024-03-19T14:47:11Z</time>
      </trkpt>
      <trkpt lat="50.1226" lon="4.16489">
        <ele>185</ele>
        <time>2024-03-19T14:47:12Z</time>
      </trkpt>
      <trkpt lat="50.12257" lon="4.16503">
        <ele>184.6</ele>
        <time>2024-03-19T14:47:13Z</time>
      </trkpt>
      <trkpt lat="50.12255" lon="4.16518">
        <ele>184.6</ele>
        <time>2024-03-19T14:47:14Z</time>
      </trkpt>
      <trkpt lat="50.12253" lon="4.16532">
        <ele>184.4</ele>
        <time>2024-03-19T14:47:15Z</time>
      </trkpt>
      <trkpt lat="50.12251" lon="4.16547">
        <ele>184.2</ele>
        <time>2024-03-19T14:47:16Z</time>
      </trkpt>
      <trkpt lat="50.12248" lon="4.16562">
        <ele>184.2</ele>
        <time>2024-03-19T14:47:17Z</time>
      </trkpt>
      <trkpt lat="50.12245" lon="4.16577">
        <ele>184</ele>
        <time>2024-03-19T14:47:18Z</time>
      </trkpt>
      <trkpt lat="50.1224" lon="4.16591">
        <ele>183.6</ele>
        <time>2024-03-19T14:47:19Z</time>
      </trkpt>
      <trkpt lat="50.12234" lon="4.16604">
        <ele>183</ele>
        <time>2024-03-19T14:47:20Z</time>
      </trkpt>
      <trkpt lat="50.12228" lon="4.16617">
        <ele>182.8</ele>
        <time>2024-03-19T14:47:21Z</time>
      </trkpt>
      <trkpt lat="50.12221" lon="4.1663">
        <ele>182.4</ele>
        <time>2024-03-19T14:47:22Z</time>
      </trkpt>
      <trkpt lat="50.12213" lon="4.16643">
        <ele>182.4</ele>
        <time>2024-03-19T14:47:23Z</time>
      </trkpt>
      <trkpt lat="50.12206" lon="4.16656">
        <ele>182.2</ele>
        <time>2024-03-19T14:47:24Z</time>
      </trkpt>
      <trkpt lat="50.12199" lon="4.16669">
        <ele>181.8</ele>
        <time>2024-03-19T14:47:25Z</time>
      </trkpt>
      <trkpt lat="50.12192" lon="4.16683">
        <ele>181</ele>
        <time>2024-03-19T14:47:26Z</time>
      </trkpt>
      <trkpt lat="50.12186" lon="4.16697">
        <ele>180.4</ele>
        <time>2024-03-19T14:47:27Z</time>
      </trkpt>
      <trkpt lat="50.1218" lon="4.16711">
        <ele>179.8</ele>
        <time>2024-03-19T14:47:28Z</time>
      </trkpt>
      <trkpt lat="50.12174" lon="4.16725">
        <ele>179.4</ele>
        <time>2024-03-19T14:47:29Z</time>
      </trkpt>
      <trkpt lat="50.12168" lon="4.16738">
        <ele>178.6</ele>
        <time>2024-03-19T14:47:30Z</time>
      </trkpt>
      <trkpt lat="50.12162" lon="4.16752">
        <ele>177.6</ele>
        <time>2024-03-19T14:47:31Z</time>
      </trkpt>
      <trkpt lat="50.12157" lon="4.16766">
        <ele>177.6</ele>
        <time>2024-03-19T14:47:32Z</time>
      </trkpt>
      <trkpt lat="50.12152" lon="4.16779">
        <ele>176.8</ele>
        <time>2024-03-19T14:47:33Z</time>
      </trkpt>
      <trkpt lat="50.12147" lon="4.16792">
        <ele>176.4</ele>
        <time>2024-03-19T14:47:34Z</time>
      </trkpt>
      <trkpt lat="50.12142" lon="4.16804">
        <ele>176.2</ele>
        <time>2024-03-19T14:47:35Z</time>
      </trkpt>
      <trkpt lat="50.12139" lon="4.16817">
        <ele>176.2</ele>
        <time>2024-03-19T14:47:36Z</time>
      </trkpt>
      <trkpt lat="50.12135" lon="4.16828">
        <ele>176</ele>
        <time>2024-03-19T14:47:37Z</time>
      </trkpt>
      <trkpt lat="50.12133" lon="4.1684">
        <ele>176</ele>
        <time>2024-03-19T14:47:38Z</time>
      </trkpt>
      <trkpt lat="50.12131" lon="4.16851">
        <ele>176</ele>
        <time>2024-03-19T14:47:39Z</time>
      </trkpt>
      <trkpt lat="50.12128" lon="4.16861">
        <ele>176</ele>
        <time>2024-03-19T14:47:40Z</time>
      </trkpt>
      <trkpt lat="50.12127" lon="4.16871">
        <ele>176</ele>
        <time>2024-03-19T14:47:41Z</time>
      </trkpt>
      <trkpt lat="50.12125" lon="4.16881">
        <ele>175.8</ele>
        <time>2024-03-19T14:47:42Z</time>
      </trkpt>
      <trkpt lat="50.12123" lon="4.16891">
        <ele>176</ele>
        <time>2024-03-19T14:47:43Z</time>
      </trkpt>
      <trkpt lat="50.12122" lon="4.16901">
        <ele>176</ele>
        <time>2024-03-19T14:47:44Z</time>
      </trkpt>
      <trkpt lat="50.12121" lon="4.16911">
        <ele>176</ele>
        <time>2024-03-19T14:47:45Z</time>
      </trkpt>
      <trkpt lat="50.12119" lon="4.16921">
        <ele>176.2</ele>
        <time>2024-03-19T14:47:46Z</time>
      </trkpt>
      <trkpt lat="50.12118" lon="4.16931">
        <ele>176.6</ele>
        <time>2024-03-19T14:47:47Z</time>
      </trkpt>
      <trkpt lat="50.12116" lon="4.16942">
        <ele>177.4</ele>
        <time>2024-03-19T14:47:48Z</time>
      </trkpt>
      <trkpt lat="50.12115" lon="4.16952">
        <ele>177.8</ele>
        <time>2024-03-19T14:47:49Z</time>
      </trkpt>
      <trkpt lat="50.12114" lon="4.16962">
        <ele>178.6</ele>
        <time>2024-03-19T14:47:50Z</time>
      </trkpt>
      <trkpt lat="50.12112" lon="4.16973">
        <ele>178.6</ele>
        <time>2024-03-19T14:47:51Z</time>
      </trkpt>
      <trkpt lat="50.12111" lon="4.16983">
        <ele>179</ele>
        <time>2024-03-19T14:47:52Z</time>
      </trkpt>
      <trkpt lat="50.12108" lon="4.17004">
        <ele>179.2</ele>
        <time>2024-03-19T14:47:53Z</time>
      </trkpt>
      <trkpt lat="50.12107" lon="4.17014">
        <ele>179.4</ele>
        <time>2024-03-19T14:47:54Z</time>
      </trkpt>
      <trkpt lat="50.12107" lon="4.17014">
        <ele>179.8</ele>
        <time>2024-03-19T14:47:55Z</time>
      </trkpt>
      <trkpt lat="50.12105" lon="4.17024">
        <ele>180.6</ele>
        <time>2024-03-19T14:47:56Z</time>
      </trkpt>
      <trkpt lat="50.12103" lon="4.17035">
        <ele>181</ele>
        <time>2024-03-19T14:47:57Z</time>
      </trkpt>
      <trkpt lat="50.12101" lon="4.17045">
        <ele>181.4</ele>
        <time>2024-03-19T14:47:58Z</time>
      </trkpt>
      <trkpt lat="50.12096" lon="4.17066">
        <ele>181.6</ele>
        <time>2024-03-19T14:47:59Z</time>
      </trkpt>
      <trkpt lat="50.12096" lon="4.17066">
        <ele>181.6</ele>
        <time>2024-03-19T14:48:00Z</time>
      </trkpt>
      <trkpt lat="50.12093" lon="4.17076">
        <ele>181.8</ele>
        <time>2024-03-19T14:48:01Z</time>
      </trkpt>
      <trkpt lat="50.12089" lon="4.17098">
        <ele>181.8</ele>
        <time>2024-03-19T14:48:02Z</time>
      </trkpt>
      <trkpt lat="50.12087" lon="4.17109">
        <ele>182</ele>
        <time>2024-03-19T14:48:03Z</time>
      </trkpt>
      <trkpt lat="50.12086" lon="4.1712">
        <ele>182</ele>
        <time>2024-03-19T14:48:04Z</time>
      </trkpt>
      <trkpt lat="50.12085" lon="4.17131">
        <ele>181.8</ele>
        <time>2024-03-19T14:48:05Z</time>
      </trkpt>
      <trkpt lat="50.12084" lon="4.17143">
        <ele>182</ele>
        <time>2024-03-19T14:48:06Z</time>
      </trkpt>
      <trkpt lat="50.12083" lon="4.17154">
        <ele>181.8</ele>
        <time>2024-03-19T14:48:07Z</time>
      </trkpt>
      <trkpt lat="50.12083" lon="4.17154">
        <ele>182</ele>
        <time>2024-03-19T14:48:08Z</time>
      </trkpt>
      <trkpt lat="50.12081" lon="4.17177">
        <ele>182</ele>
        <time>2024-03-19T14:48:09Z</time>
      </trkpt>
      <trkpt lat="50.1208" lon="4.17188">
        <ele>182</ele>
        <time>2024-03-19T14:48:10Z</time>
      </trkpt>
      <trkpt lat="50.12079" lon="4.17199">
        <ele>181.8</ele>
        <time>2024-03-19T14:48:11Z</time>
      </trkpt>
      <trkpt lat="50.12078" lon="4.17209">
        <ele>181.8</ele>
        <time>2024-03-19T14:48:12Z</time>
      </trkpt>
      <trkpt lat="50.12077" lon="4.1722">
        <ele>182</ele>
        <time>2024-03-19T14:48:13Z</time>
      </trkpt>
      <trkpt lat="50.12075" lon="4.1723">
        <ele>182</ele>
        <time>2024-03-19T14:48:14Z</time>
      </trkpt>
      <trkpt lat="50.12074" lon="4.1724">
        <ele>181.8</ele>
        <time>2024-03-19T14:48:15Z</time>
      </trkpt>
      <trkpt lat="50.12072" lon="4.17251">
        <ele>181.8</ele>
        <time>2024-03-19T14:48:16Z</time>
      </trkpt>
      <trkpt lat="50.12071" lon="4.17261">
        <ele>182</ele>
        <time>2024-03-19T14:48:17Z</time>
      </trkpt>
      <trkpt lat="50.12069" lon="4.17271">
        <ele>181.8</ele>
        <time>2024-03-19T14:48:18Z</time>
      </trkpt>
      <trkpt lat="50.12069" lon="4.17271">
        <ele>182</ele>
        <time>2024-03-19T14:48:19Z</time>
      </trkpt>
      <trkpt lat="50.12067" lon="4.17281">
        <ele>182</ele>
        <time>2024-03-19T14:48:20Z</time>
      </trkpt>
      <trkpt lat="50.12066" lon="4.17292">
        <ele>182</ele>
        <time>2024-03-19T14:48:21Z</time>
      </trkpt>
      <trkpt lat="50.12064" lon="4.17302">
        <ele>182.2</ele>
        <time>2024-03-19T14:48:22Z</time>
      </trkpt>
      <trkpt lat="50.12062" lon="4.17313">
        <ele>182.2</ele>
        <time>2024-03-19T14:48:23Z</time>
      </trkpt>
      <trkpt lat="50.12061" lon="4.17324">
        <ele>182.4</ele>
        <time>2024-03-19T14:48:24Z</time>
      </trkpt>
      <trkpt lat="50.12059" lon="4.17334">
        <ele>182.6</ele>
        <time>2024-03-19T14:48:25Z</time>
      </trkpt>
      <trkpt lat="50.12057" lon="4.17346">
        <ele>182.6</ele>
        <time>2024-03-19T14:48:26Z</time>
      </trkpt>
      <trkpt lat="50.12053" lon="4.17368">
        <ele>182.6</ele>
        <time>2024-03-19T14:48:27Z</time>
      </trkpt>
      <trkpt lat="50.12053" lon="4.17368">
        <ele>182.6</ele>
        <time>2024-03-19T14:48:28Z</time>
      </trkpt>
      <trkpt lat="50.12051" lon="4.17379">
        <ele>182.6</ele>
        <time>2024-03-19T14:48:29Z</time>
      </trkpt>
      <trkpt lat="50.12049" lon="4.1739">
        <ele>182.8</ele>
        <time>2024-03-19T14:48:30Z</time>
      </trkpt>
      <trkpt lat="50.12047" lon="4.17401">
        <ele>182.8</ele>
        <time>2024-03-19T14:48:31Z</time>
      </trkpt>
      <trkpt lat="50.12044" lon="4.17412">
        <ele>183</ele>
        <time>2024-03-19T14:48:32Z</time>
      </trkpt>
      <trkpt lat="50.12042" lon="4.17422">
        <ele>183</ele>
        <time>2024-03-19T14:48:33Z</time>
      </trkpt>
      <trkpt lat="50.12039" lon="4.17432">
        <ele>183.2</ele>
        <time>2024-03-19T14:48:34Z</time>
      </trkpt>
      <trkpt lat="50.12036" lon="4.17442">
        <ele>183.2</ele>
        <time>2024-03-19T14:48:35Z</time>
      </trkpt>
      <trkpt lat="50.12033" lon="4.17452">
        <ele>183.2</ele>
        <time>2024-03-19T14:48:36Z</time>
      </trkpt>
      <trkpt lat="50.12031" lon="4.17462">
        <ele>183.2</ele>
        <time>2024-03-19T14:48:37Z</time>
      </trkpt>
      <trkpt lat="50.12029" lon="4.17472">
        <ele>183.2</ele>
        <time>2024-03-19T14:48:38Z</time>
      </trkpt>
      <trkpt lat="50.12026" lon="4.17482">
        <ele>183.4</ele>
        <time>2024-03-19T14:48:39Z</time>
      </trkpt>
      <trkpt lat="50.12024" lon="4.17492">
        <ele>183.2</ele>
        <time>2024-03-19T14:48:40Z</time>
      </trkpt>
      <trkpt lat="50.12022" lon="4.17502">
        <ele>183.4</ele>
        <time>2024-03-19T14:48:41Z</time>
      </trkpt>
      <trkpt lat="50.1202" lon="4.17512">
        <ele>183.4</ele>
        <time>2024-03-19T14:48:42Z</time>
      </trkpt>
      <trkpt lat="50.12017" lon="4.17523">
        <ele>183.4</ele>
        <time>2024-03-19T14:48:43Z</time>
      </trkpt>
      <trkpt lat="50.12015" lon="4.17533">
        <ele>183.4</ele>
        <time>2024-03-19T14:48:44Z</time>
      </trkpt>
      <trkpt lat="50.12013" lon="4.17543">
        <ele>183.4</ele>
        <time>2024-03-19T14:48:45Z</time>
      </trkpt>
      <trkpt lat="50.12011" lon="4.17554">
        <ele>183.2</ele>
        <time>2024-03-19T14:48:46Z</time>
      </trkpt>
      <trkpt lat="50.12009" lon="4.17564">
        <ele>183.4</ele>
        <time>2024-03-19T14:48:47Z</time>
      </trkpt>
      <trkpt lat="50.12007" lon="4.17574">
        <ele>183.4</ele>
        <time>2024-03-19T14:48:48Z</time>
      </trkpt>
      <trkpt lat="50.12005" lon="4.17585">
        <ele>183.6</ele>
        <time>2024-03-19T14:48:49Z</time>
      </trkpt>
      <trkpt lat="50.12003" lon="4.17595">
        <ele>183.6</ele>
        <time>2024-03-19T14:48:50Z</time>
      </trkpt>
      <trkpt lat="50.12001" lon="4.17606">
        <ele>183.6</ele>
        <time>2024-03-19T14:48:51Z</time>
      </trkpt>
      <trkpt lat="50.11999" lon="4.17617">
        <ele>183.8</ele>
        <time>2024-03-19T14:48:52Z</time>
      </trkpt>
      <trkpt lat="50.11998" lon="4.17628">
        <ele>184.2</ele>
        <time>2024-03-19T14:48:53Z</time>
      </trkpt>
      <trkpt lat="50.11996" lon="4.17639">
        <ele>184</ele>
        <time>2024-03-19T14:48:54Z</time>
      </trkpt>
      <trkpt lat="50.11995" lon="4.1765">
        <ele>184.4</ele>
        <time>2024-03-19T14:48:55Z</time>
      </trkpt>
      <trkpt lat="50.11993" lon="4.17661">
        <ele>184.2</ele>
        <time>2024-03-19T14:48:56Z</time>
      </trkpt>
      <trkpt lat="50.11992" lon="4.17673">
        <ele>184.4</ele>
        <time>2024-03-19T14:48:57Z</time>
      </trkpt>
      <trkpt lat="50.11991" lon="4.17684">
        <ele>184.4</ele>
        <time>2024-03-19T14:48:58Z</time>
      </trkpt>
      <trkpt lat="50.11989" lon="4.17696">
        <ele>184.6</ele>
        <time>2024-03-19T14:48:59Z</time>
      </trkpt>
      <trkpt lat="50.11988" lon="4.17708">
        <ele>184.6</ele>
        <time>2024-03-19T14:49:00Z</time>
      </trkpt>
      <trkpt lat="50.11986" lon="4.1772">
        <ele>184.6</ele>
        <time>2024-03-19T14:49:01Z</time>
      </trkpt>
      <trkpt lat="50.11984" lon="4.17733">
        <ele>184.6</ele>
        <time>2024-03-19T14:49:02Z</time>
      </trkpt>
      <trkpt lat="50.11981" lon="4.17746">
        <ele>184.4</ele>
        <time>2024-03-19T14:49:03Z</time>
      </trkpt>
      <trkpt lat="50.11978" lon="4.17758">
        <ele>184.4</ele>
        <time>2024-03-19T14:49:04Z</time>
      </trkpt>
      <trkpt lat="50.11972" lon="4.17769">
        <ele>184.4</ele>
        <time>2024-03-19T14:49:05Z</time>
      </trkpt>
      <trkpt lat="50.11965" lon="4.17779">
        <ele>184.2</ele>
        <time>2024-03-19T14:49:06Z</time>
      </trkpt>
      <trkpt lat="50.11957" lon="4.17787">
        <ele>184.4</ele>
        <time>2024-03-19T14:49:07Z</time>
      </trkpt>
      <trkpt lat="50.11948" lon="4.17791">
        <ele>184</ele>
        <time>2024-03-19T14:49:08Z</time>
      </trkpt>
      <trkpt lat="50.11937" lon="4.17794">
        <ele>184</ele>
        <time>2024-03-19T14:49:09Z</time>
      </trkpt>
      <trkpt lat="50.11927" lon="4.17794">
        <ele>183.8</ele>
        <time>2024-03-19T14:49:10Z</time>
      </trkpt>
      <trkpt lat="50.11907" lon="4.17793">
        <ele>183</ele>
        <time>2024-03-19T14:49:11Z</time>
      </trkpt>
      <trkpt lat="50.11897" lon="4.17792">
        <ele>182.2</ele>
        <time>2024-03-19T14:49:12Z</time>
      </trkpt>
      <trkpt lat="50.11887" lon="4.17791">
        <ele>181.2</ele>
        <time>2024-03-19T14:49:13Z</time>
      </trkpt>
      <trkpt lat="50.11887" lon="4.17791">
        <ele>180.4</ele>
        <time>2024-03-19T14:49:14Z</time>
      </trkpt>
      <trkpt lat="50.11877" lon="4.1779">
        <ele>179.4</ele>
        <time>2024-03-19T14:49:15Z</time>
      </trkpt>
      <trkpt lat="50.11867" lon="4.17792">
        <ele>178</ele>
        <time>2024-03-19T14:49:16Z</time>
      </trkpt>
      <trkpt lat="50.11858" lon="4.17793">
        <ele>177</ele>
        <time>2024-03-19T14:49:17Z</time>
      </trkpt>
      <trkpt lat="50.11849" lon="4.17795">
        <ele>176</ele>
        <time>2024-03-19T14:49:18Z</time>
      </trkpt>
      <trkpt lat="50.1184" lon="4.17799">
        <ele>175.8</ele>
        <time>2024-03-19T14:49:19Z</time>
      </trkpt>
      <trkpt lat="50.11832" lon="4.17803">
        <ele>175.8</ele>
        <time>2024-03-19T14:49:20Z</time>
      </trkpt>
      <trkpt lat="50.11824" lon="4.17809">
        <ele>175.6</ele>
        <time>2024-03-19T14:49:21Z</time>
      </trkpt>
      <trkpt lat="50.11817" lon="4.17815">
        <ele>175.4</ele>
        <time>2024-03-19T14:49:22Z</time>
      </trkpt>
      <trkpt lat="50.11811" lon="4.17822">
        <ele>175.4</ele>
        <time>2024-03-19T14:49:23Z</time>
      </trkpt>
      <trkpt lat="50.11804" lon="4.17829">
        <ele>175.4</ele>
        <time>2024-03-19T14:49:24Z</time>
      </trkpt>
      <trkpt lat="50.11798" lon="4.17835">
        <ele>175.4</ele>
        <time>2024-03-19T14:49:25Z</time>
      </trkpt>
      <trkpt lat="50.11792" lon="4.17842">
        <ele>175.4</ele>
        <time>2024-03-19T14:49:26Z</time>
      </trkpt>
      <trkpt lat="50.11786" lon="4.17849">
        <ele>175.4</ele>
        <time>2024-03-19T14:49:27Z</time>
      </trkpt>
      <trkpt lat="50.1178" lon="4.17856">
        <ele>175.4</ele>
        <time>2024-03-19T14:49:28Z</time>
      </trkpt>
      <trkpt lat="50.11773" lon="4.17862">
        <ele>175.4</ele>
        <time>2024-03-19T14:49:29Z</time>
      </trkpt>
      <trkpt lat="50.11766" lon="4.17868">
        <ele>175.8</ele>
        <time>2024-03-19T14:49:30Z</time>
      </trkpt>
      <trkpt lat="50.11759" lon="4.17873">
        <ele>176</ele>
        <time>2024-03-19T14:49:31Z</time>
      </trkpt>
      <trkpt lat="50.11751" lon="4.17877">
        <ele>176</ele>
        <time>2024-03-19T14:49:32Z</time>
      </trkpt>
      <trkpt lat="50.11744" lon="4.1788">
        <ele>176.2</ele>
        <time>2024-03-19T14:49:33Z</time>
      </trkpt>
      <trkpt lat="50.11736" lon="4.17882">
        <ele>176.2</ele>
        <time>2024-03-19T14:49:34Z</time>
      </trkpt>
      <trkpt lat="50.11728" lon="4.17884">
        <ele>176.2</ele>
        <time>2024-03-19T14:49:35Z</time>
      </trkpt>
      <trkpt lat="50.11721" lon="4.17887">
        <ele>176.2</ele>
        <time>2024-03-19T14:49:36Z</time>
      </trkpt>
      <trkpt lat="50.11714" lon="4.1789">
        <ele>176.4</ele>
        <time>2024-03-19T14:49:37Z</time>
      </trkpt>
      <trkpt lat="50.11708" lon="4.17893">
        <ele>176.4</ele>
        <time>2024-03-19T14:49:38Z</time>
      </trkpt>
      <trkpt lat="50.11701" lon="4.17897">
        <ele>176.4</ele>
        <time>2024-03-19T14:49:39Z</time>
      </trkpt>
      <trkpt lat="50.11695" lon="4.179">
        <ele>176.6</ele>
        <time>2024-03-19T14:49:40Z</time>
      </trkpt>
      <trkpt lat="50.11689" lon="4.17904">
        <ele>176.4</ele>
        <time>2024-03-19T14:49:41Z</time>
      </trkpt>
      <trkpt lat="50.11683" lon="4.17908">
        <ele>176.4</ele>
        <time>2024-03-19T14:49:42Z</time>
      </trkpt>
      <trkpt lat="50.11678" lon="4.17912">
        <ele>176.6</ele>
        <time>2024-03-19T14:49:43Z</time>
      </trkpt>
      <trkpt lat="50.11673" lon="4.17916">
        <ele>176.6</ele>
        <time>2024-03-19T14:49:44Z</time>
      </trkpt>
      <trkpt lat="50.11668" lon="4.1792">
        <ele>176.6</ele>
        <time>2024-03-19T14:49:45Z</time>
      </trkpt>
      <trkpt lat="50.11663" lon="4.17924">
        <ele>177</ele>
        <time>2024-03-19T14:49:46Z</time>
      </trkpt>
      <trkpt lat="50.11659" lon="4.17928">
        <ele>177.2</ele>
        <time>2024-03-19T14:49:47Z</time>
      </trkpt>
      <trkpt lat="50.11654" lon="4.17932">
        <ele>177.6</ele>
        <time>2024-03-19T14:49:48Z</time>
      </trkpt>
      <trkpt lat="50.1165" lon="4.17936">
        <ele>178.2</ele>
        <time>2024-03-19T14:49:49Z</time>
      </trkpt>
      <trkpt lat="50.11646" lon="4.1794">
        <ele>178.6</ele>
        <time>2024-03-19T14:49:50Z</time>
      </trkpt>
      <trkpt lat="50.11642" lon="4.17944">
        <ele>178.6</ele>
        <time>2024-03-19T14:49:51Z</time>
      </trkpt>
      <trkpt lat="50.11639" lon="4.17948">
        <ele>178.8</ele>
        <time>2024-03-19T14:49:52Z</time>
      </trkpt>
      <trkpt lat="50.11635" lon="4.17951">
        <ele>179</ele>
        <time>2024-03-19T14:49:53Z</time>
      </trkpt>
      <trkpt lat="50.11631" lon="4.17954">
        <ele>179.8</ele>
        <time>2024-03-19T14:49:54Z</time>
      </trkpt>
      <trkpt lat="50.11627" lon="4.17958">
        <ele>179.8</ele>
        <time>2024-03-19T14:49:55Z</time>
      </trkpt>
      <trkpt lat="50.11623" lon="4.17961">
        <ele>180.6</ele>
        <time>2024-03-19T14:49:56Z</time>
      </trkpt>
      <trkpt lat="50.1162" lon="4.17965">
        <ele>181.2</ele>
        <time>2024-03-19T14:49:57Z</time>
      </trkpt>
      <trkpt lat="50.11616" lon="4.17968">
        <ele>181.8</ele>
        <time>2024-03-19T14:49:58Z</time>
      </trkpt>
      <trkpt lat="50.11613" lon="4.17972">
        <ele>182.2</ele>
        <time>2024-03-19T14:49:59Z</time>
      </trkpt>
      <trkpt lat="50.11609" lon="4.17976">
        <ele>182.8</ele>
        <time>2024-03-19T14:50:00Z</time>
      </trkpt>
      <trkpt lat="50.11606" lon="4.17979">
        <ele>183.2</ele>
        <time>2024-03-19T14:50:01Z</time>
      </trkpt>
      <trkpt lat="50.11602" lon="4.17983">
        <ele>183.6</ele>
        <time>2024-03-19T14:50:02Z</time>
      </trkpt>
      <trkpt lat="50.11599" lon="4.17988">
        <ele>184.4</ele>
        <time>2024-03-19T14:50:03Z</time>
      </trkpt>
      <trkpt lat="50.11595" lon="4.17992">
        <ele>184.8</ele>
        <time>2024-03-19T14:50:04Z</time>
      </trkpt>
      <trkpt lat="50.11592" lon="4.17996">
        <ele>185.4</ele>
        <time>2024-03-19T14:50:05Z</time>
      </trkpt>
      <trkpt lat="50.11588" lon="4.18001">
        <ele>186</ele>
        <time>2024-03-19T14:50:06Z</time>
      </trkpt>
      <trkpt lat="50.11585" lon="4.18006">
        <ele>186.4</ele>
        <time>2024-03-19T14:50:07Z</time>
      </trkpt>
      <trkpt lat="50.11582" lon="4.18011">
        <ele>186.8</ele>
        <time>2024-03-19T14:50:08Z</time>
      </trkpt>
      <trkpt lat="50.11579" lon="4.18016">
        <ele>187.4</ele>
        <time>2024-03-19T14:50:09Z</time>
      </trkpt>
      <trkpt lat="50.11576" lon="4.18021">
        <ele>187.6</ele>
        <time>2024-03-19T14:50:10Z</time>
      </trkpt>
      <trkpt lat="50.11573" lon="4.18026">
        <ele>188</ele>
        <time>2024-03-19T14:50:11Z</time>
      </trkpt>
      <trkpt lat="50.1157" lon="4.18031">
        <ele>188</ele>
        <time>2024-03-19T14:50:12Z</time>
      </trkpt>
      <trkpt lat="50.11567" lon="4.18036">
        <ele>188.4</ele>
        <time>2024-03-19T14:50:13Z</time>
      </trkpt>
      <trkpt lat="50.11564" lon="4.18042">
        <ele>188.6</ele>
        <time>2024-03-19T14:50:14Z</time>
      </trkpt>
      <trkpt lat="50.11561" lon="4.18047">
        <ele>188.6</ele>
        <time>2024-03-19T14:50:15Z</time>
      </trkpt>
      <trkpt lat="50.11557" lon="4.18052">
        <ele>188.6</ele>
        <time>2024-03-19T14:50:16Z</time>
      </trkpt>
      <trkpt lat="50.11553" lon="4.18058">
        <ele>188.6</ele>
        <time>2024-03-19T14:50:17Z</time>
      </trkpt>
      <trkpt lat="50.11549" lon="4.18063">
        <ele>188.6</ele>
        <time>2024-03-19T14:50:18Z</time>
      </trkpt>
      <trkpt lat="50.11544" lon="4.18069">
        <ele>188.6</ele>
        <time>2024-03-19T14:50:19Z</time>
      </trkpt>
      <trkpt lat="50.11539" lon="4.18075">
        <ele>188.8</ele>
        <time>2024-03-19T14:50:20Z</time>
      </trkpt>
      <trkpt lat="50.11532" lon="4.18081">
        <ele>189.4</ele>
        <time>2024-03-19T14:50:21Z</time>
      </trkpt>
      <trkpt lat="50.11526" lon="4.18086">
        <ele>189.8</ele>
        <time>2024-03-19T14:50:22Z</time>
      </trkpt>
      <trkpt lat="50.11519" lon="4.18092">
        <ele>190</ele>
        <time>2024-03-19T14:50:23Z</time>
      </trkpt>
      <trkpt lat="50.11512" lon="4.18099">
        <ele>190.2</ele>
        <time>2024-03-19T14:50:24Z</time>
      </trkpt>
      <trkpt lat="50.11505" lon="4.18107">
        <ele>190</ele>
        <time>2024-03-19T14:50:25Z</time>
      </trkpt>
      <trkpt lat="50.11498" lon="4.18116">
        <ele>190.2</ele>
        <time>2024-03-19T14:50:26Z</time>
      </trkpt>
      <trkpt lat="50.11491" lon="4.18126">
        <ele>190.2</ele>
        <time>2024-03-19T14:50:27Z</time>
      </trkpt>
      <trkpt lat="50.11483" lon="4.18136">
        <ele>190.2</ele>
        <time>2024-03-19T14:50:28Z</time>
      </trkpt>
      <trkpt lat="50.11475" lon="4.18146">
        <ele>190</ele>
        <time>2024-03-19T14:50:29Z</time>
      </trkpt>
      <trkpt lat="50.11467" lon="4.18156">
        <ele>190</ele>
        <time>2024-03-19T14:50:30Z</time>
      </trkpt>
      <trkpt lat="50.11457" lon="4.18165">
        <ele>189.6</ele>
        <time>2024-03-19T14:50:31Z</time>
      </trkpt>
      <trkpt lat="50.11447" lon="4.18173">
        <ele>189.6</ele>
        <time>2024-03-19T14:50:32Z</time>
      </trkpt>
      <trkpt lat="50.11436" lon="4.18181">
        <ele>189.4</ele>
        <time>2024-03-19T14:50:33Z</time>
      </trkpt>
      <trkpt lat="50.11426" lon="4.18188">
        <ele>189.2</ele>
        <time>2024-03-19T14:50:34Z</time>
      </trkpt>
      <trkpt lat="50.11415" lon="4.18197">
        <ele>188.6</ele>
        <time>2024-03-19T14:50:35Z</time>
      </trkpt>
      <trkpt lat="50.11404" lon="4.18205">
        <ele>187.6</ele>
        <time>2024-03-19T14:50:36Z</time>
      </trkpt>
      <trkpt lat="50.11394" lon="4.18214">
        <ele>186.2</ele>
        <time>2024-03-19T14:50:37Z</time>
      </trkpt>
      <trkpt lat="50.11384" lon="4.18222">
        <ele>185.2</ele>
        <time>2024-03-19T14:50:38Z</time>
      </trkpt>
      <trkpt lat="50.11375" lon="4.1823">
        <ele>184</ele>
        <time>2024-03-19T14:50:39Z</time>
      </trkpt>
      <trkpt lat="50.11366" lon="4.18237">
        <ele>182</ele>
        <time>2024-03-19T14:50:40Z</time>
      </trkpt>
      <trkpt lat="50.11357" lon="4.18245">
        <ele>180.6</ele>
        <time>2024-03-19T14:50:41Z</time>
      </trkpt>
      <trkpt lat="50.1135" lon="4.18252">
        <ele>179.6</ele>
        <time>2024-03-19T14:50:42Z</time>
      </trkpt>
      <trkpt lat="50.11343" lon="4.18259">
        <ele>179.4</ele>
        <time>2024-03-19T14:50:43Z</time>
      </trkpt>
      <trkpt lat="50.11336" lon="4.18266">
        <ele>178.8</ele>
        <time>2024-03-19T14:50:44Z</time>
      </trkpt>
      <trkpt lat="50.1133" lon="4.18272">
        <ele>178.6</ele>
        <time>2024-03-19T14:50:45Z</time>
      </trkpt>
      <trkpt lat="50.11324" lon="4.18278">
        <ele>178.4</ele>
        <time>2024-03-19T14:50:46Z</time>
      </trkpt>
      <trkpt lat="50.11318" lon="4.18284">
        <ele>178.4</ele>
        <time>2024-03-19T14:50:47Z</time>
      </trkpt>
      <trkpt lat="50.11312" lon="4.1829">
        <ele>178.2</ele>
        <time>2024-03-19T14:50:48Z</time>
      </trkpt>
      <trkpt lat="50.11306" lon="4.18295">
        <ele>178.2</ele>
        <time>2024-03-19T14:50:49Z</time>
      </trkpt>
      <trkpt lat="50.11299" lon="4.183">
        <ele>178.2</ele>
        <time>2024-03-19T14:50:50Z</time>
      </trkpt>
      <trkpt lat="50.11293" lon="4.18305">
        <ele>178.2</ele>
        <time>2024-03-19T14:50:51Z</time>
      </trkpt>
      <trkpt lat="50.11286" lon="4.18309">
        <ele>178.2</ele>
        <time>2024-03-19T14:50:52Z</time>
      </trkpt>
      <trkpt lat="50.11278" lon="4.18313">
        <ele>178.4</ele>
        <time>2024-03-19T14:50:53Z</time>
      </trkpt>
      <trkpt lat="50.11271" lon="4.18317">
        <ele>178.8</ele>
        <time>2024-03-19T14:50:54Z</time>
      </trkpt>
      <trkpt lat="50.11263" lon="4.1832">
        <ele>179.2</ele>
        <time>2024-03-19T14:50:55Z</time>
      </trkpt>
      <trkpt lat="50.11255" lon="4.18324">
        <ele>179.4</ele>
        <time>2024-03-19T14:50:56Z</time>
      </trkpt>
      <trkpt lat="50.11247" lon="4.18326">
        <ele>179.6</ele>
        <time>2024-03-19T14:50:57Z</time>
      </trkpt>
      <trkpt lat="50.11239" lon="4.18329">
        <ele>179.6</ele>
        <time>2024-03-19T14:50:58Z</time>
      </trkpt>
      <trkpt lat="50.11232" lon="4.18331">
        <ele>179.8</ele>
        <time>2024-03-19T14:50:59Z</time>
      </trkpt>
      <trkpt lat="50.11224" lon="4.18333">
        <ele>179.8</ele>
        <time>2024-03-19T14:51:00Z</time>
      </trkpt>
      <trkpt lat="50.11217" lon="4.18336">
        <ele>180</ele>
        <time>2024-03-19T14:51:01Z</time>
      </trkpt>
      <trkpt lat="50.1121" lon="4.18338">
        <ele>180.2</ele>
        <time>2024-03-19T14:51:02Z</time>
      </trkpt>
      <trkpt lat="50.11203" lon="4.18339">
        <ele>180</ele>
        <time>2024-03-19T14:51:03Z</time>
      </trkpt>
      <trkpt lat="50.11197" lon="4.18341">
        <ele>180.2</ele>
        <time>2024-03-19T14:51:04Z</time>
      </trkpt>
      <trkpt lat="50.1119" lon="4.18342">
        <ele>180.4</ele>
        <time>2024-03-19T14:51:05Z</time>
      </trkpt>
      <trkpt lat="50.11184" lon="4.18343">
        <ele>180.4</ele>
        <time>2024-03-19T14:51:06Z</time>
      </trkpt>
      <trkpt lat="50.11179" lon="4.18344">
        <ele>180.4</ele>
        <time>2024-03-19T14:51:07Z</time>
      </trkpt>
      <trkpt lat="50.11173" lon="4.18345">
        <ele>180.4</ele>
        <time>2024-03-19T14:51:08Z</time>
      </trkpt>
      <trkpt lat="50.11168" lon="4.18347">
        <ele>180.6</ele>
        <time>2024-03-19T14:51:09Z</time>
      </trkpt>
      <trkpt lat="50.11162" lon="4.18348">
        <ele>180.6</ele>
        <time>2024-03-19T14:51:10Z</time>
      </trkpt>
      <trkpt lat="50.11157" lon="4.1835">
        <ele>180.6</ele>
        <time>2024-03-19T14:51:11Z</time>
      </trkpt>
      <trkpt lat="50.11152" lon="4.18352">
        <ele>180.6</ele>
        <time>2024-03-19T14:51:12Z</time>
      </trkpt>
      <trkpt lat="50.11147" lon="4.18354">
        <ele>180.6</ele>
        <time>2024-03-19T14:51:13Z</time>
      </trkpt>
      <trkpt lat="50.11143" lon="4.18356">
        <ele>180.8</ele>
        <time>2024-03-19T14:51:14Z</time>
      </trkpt>
      <trkpt lat="50.11138" lon="4.18358">
        <ele>181.6</ele>
        <time>2024-03-19T14:51:15Z</time>
      </trkpt>
      <trkpt lat="50.11134" lon="4.18361">
        <ele>182.6</ele>
        <time>2024-03-19T14:51:16Z</time>
      </trkpt>
      <trkpt lat="50.11129" lon="4.18363">
        <ele>183.4</ele>
        <time>2024-03-19T14:51:17Z</time>
      </trkpt>
      <trkpt lat="50.11124" lon="4.18365">
        <ele>183.8</ele>
        <time>2024-03-19T14:51:18Z</time>
      </trkpt>
      <trkpt lat="50.11119" lon="4.18368">
        <ele>184</ele>
        <time>2024-03-19T14:51:19Z</time>
      </trkpt>
      <trkpt lat="50.11114" lon="4.18371">
        <ele>184.4</ele>
        <time>2024-03-19T14:51:20Z</time>
      </trkpt>
      <trkpt lat="50.1111" lon="4.18374">
        <ele>184.8</ele>
        <time>2024-03-19T14:51:21Z</time>
      </trkpt>
      <trkpt lat="50.11105" lon="4.18378">
        <ele>185.4</ele>
        <time>2024-03-19T14:51:22Z</time>
      </trkpt>
      <trkpt lat="50.111" lon="4.18381">
        <ele>185.8</ele>
        <time>2024-03-19T14:51:23Z</time>
      </trkpt>
      <trkpt lat="50.11095" lon="4.18385">
        <ele>185.8</ele>
        <time>2024-03-19T14:51:24Z</time>
      </trkpt>
      <trkpt lat="50.1109" lon="4.18389">
        <ele>186.4</ele>
        <time>2024-03-19T14:51:25Z</time>
      </trkpt>
      <trkpt lat="50.11086" lon="4.18394">
        <ele>186.8</ele>
        <time>2024-03-19T14:51:26Z</time>
      </trkpt>
      <trkpt lat="50.11081" lon="4.184">
        <ele>187.2</ele>
        <time>2024-03-19T14:51:27Z</time>
      </trkpt>
      <trkpt lat="50.11077" lon="4.18406">
        <ele>187.6</ele>
        <time>2024-03-19T14:51:28Z</time>
      </trkpt>
      <trkpt lat="50.11072" lon="4.18413">
        <ele>187.8</ele>
        <time>2024-03-19T14:51:29Z</time>
      </trkpt>
      <trkpt lat="50.11068" lon="4.1842">
        <ele>188</ele>
        <time>2024-03-19T14:51:30Z</time>
      </trkpt>
      <trkpt lat="50.11064" lon="4.18427">
        <ele>188.2</ele>
        <time>2024-03-19T14:51:31Z</time>
      </trkpt>
      <trkpt lat="50.11056" lon="4.18442">
        <ele>188.4</ele>
        <time>2024-03-19T14:51:32Z</time>
      </trkpt>
      <trkpt lat="50.11052" lon="4.1845">
        <ele>188.4</ele>
        <time>2024-03-19T14:51:33Z</time>
      </trkpt>
      <trkpt lat="50.11052" lon="4.1845">
        <ele>188.6</ele>
        <time>2024-03-19T14:51:34Z</time>
      </trkpt>
      <trkpt lat="50.11043" lon="4.18467">
        <ele>188.6</ele>
        <time>2024-03-19T14:51:35Z</time>
      </trkpt>
      <trkpt lat="50.11039" lon="4.18476">
        <ele>188.6</ele>
        <time>2024-03-19T14:51:36Z</time>
      </trkpt>
      <trkpt lat="50.11039" lon="4.18476">
        <ele>188.8</ele>
        <time>2024-03-19T14:51:37Z</time>
      </trkpt>
      <trkpt lat="50.11028" lon="4.18493">
        <ele>189</ele>
        <time>2024-03-19T14:51:38Z</time>
      </trkpt>
      <trkpt lat="50.11023" lon="4.18501">
        <ele>189</ele>
        <time>2024-03-19T14:51:39Z</time>
      </trkpt>
      <trkpt lat="50.11018" lon="4.1851">
        <ele>189</ele>
        <time>2024-03-19T14:51:40Z</time>
      </trkpt>
      <trkpt lat="50.11013" lon="4.18518">
        <ele>189.2</ele>
        <time>2024-03-19T14:51:41Z</time>
      </trkpt>
      <trkpt lat="50.11013" lon="4.18518">
        <ele>189.2</ele>
        <time>2024-03-19T14:51:42Z</time>
      </trkpt>
      <trkpt lat="50.11007" lon="4.18527">
        <ele>189</ele>
        <time>2024-03-19T14:51:43Z</time>
      </trkpt>
      <trkpt lat="50.11002" lon="4.18535">
        <ele>189</ele>
        <time>2024-03-19T14:51:44Z</time>
      </trkpt>
      <trkpt lat="50.10991" lon="4.18552">
        <ele>189</ele>
        <time>2024-03-19T14:51:45Z</time>
      </trkpt>
      <trkpt lat="50.10985" lon="4.1856">
        <ele>189</ele>
        <time>2024-03-19T14:51:46Z</time>
      </trkpt>
      <trkpt lat="50.10979" lon="4.18568">
        <ele>189</ele>
        <time>2024-03-19T14:51:47Z</time>
      </trkpt>
      <trkpt lat="50.10979" lon="4.18568">
        <ele>188.8</ele>
        <time>2024-03-19T14:51:48Z</time>
      </trkpt>
      <trkpt lat="50.10973" lon="4.18577">
        <ele>188.8</ele>
        <time>2024-03-19T14:51:49Z</time>
      </trkpt>
      <trkpt lat="50.10967" lon="4.18585">
        <ele>188.4</ele>
        <time>2024-03-19T14:51:50Z</time>
      </trkpt>
      <trkpt lat="50.10961" lon="4.18594">
        <ele>188</ele>
        <time>2024-03-19T14:51:51Z</time>
      </trkpt>
      <trkpt lat="50.10956" lon="4.18603">
        <ele>187.8</ele>
        <time>2024-03-19T14:51:52Z</time>
      </trkpt>
      <trkpt lat="50.1095" lon="4.18613">
        <ele>187.6</ele>
        <time>2024-03-19T14:51:53Z</time>
      </trkpt>
      <trkpt lat="50.10945" lon="4.18623">
        <ele>186.8</ele>
        <time>2024-03-19T14:51:54Z</time>
      </trkpt>
      <trkpt lat="50.1094" lon="4.18634">
        <ele>185.8</ele>
        <time>2024-03-19T14:51:55Z</time>
      </trkpt>
      <trkpt lat="50.10934" lon="4.18645">
        <ele>185.8</ele>
        <time>2024-03-19T14:51:56Z</time>
      </trkpt>
      <trkpt lat="50.10929" lon="4.18657">
        <ele>185.2</ele>
        <time>2024-03-19T14:51:57Z</time>
      </trkpt>
      <trkpt lat="50.10924" lon="4.18669">
        <ele>184.8</ele>
        <time>2024-03-19T14:51:58Z</time>
      </trkpt>
      <trkpt lat="50.10918" lon="4.1868">
        <ele>184.8</ele>
        <time>2024-03-19T14:51:59Z</time>
      </trkpt>
      <trkpt lat="50.10913" lon="4.18692">
        <ele>184.8</ele>
        <time>2024-03-19T14:52:00Z</time>
      </trkpt>
      <trkpt lat="50.10907" lon="4.18704">
        <ele>184</ele>
        <time>2024-03-19T14:52:01Z</time>
      </trkpt>
      <trkpt lat="50.10902" lon="4.18716">
        <ele>183.6</ele>
        <time>2024-03-19T14:52:02Z</time>
      </trkpt>
      <trkpt lat="50.10897" lon="4.18728">
        <ele>183.4</ele>
        <time>2024-03-19T14:52:03Z</time>
      </trkpt>
      <trkpt lat="50.10891" lon="4.1874">
        <ele>183.2</ele>
        <time>2024-03-19T14:52:04Z</time>
      </trkpt>
      <trkpt lat="50.10886" lon="4.18752">
        <ele>183.2</ele>
        <time>2024-03-19T14:52:05Z</time>
      </trkpt>
      <trkpt lat="50.1088" lon="4.18763">
        <ele>182.8</ele>
        <time>2024-03-19T14:52:06Z</time>
      </trkpt>
      <trkpt lat="50.10875" lon="4.18775">
        <ele>182.8</ele>
        <time>2024-03-19T14:52:07Z</time>
      </trkpt>
      <trkpt lat="50.10869" lon="4.18786">
        <ele>182.2</ele>
        <time>2024-03-19T14:52:08Z</time>
      </trkpt>
      <trkpt lat="50.10864" lon="4.18798">
        <ele>181.8</ele>
        <time>2024-03-19T14:52:09Z</time>
      </trkpt>
      <trkpt lat="50.10859" lon="4.1881">
        <ele>181.4</ele>
        <time>2024-03-19T14:52:10Z</time>
      </trkpt>
      <trkpt lat="50.10854" lon="4.18821">
        <ele>181.2</ele>
        <time>2024-03-19T14:52:11Z</time>
      </trkpt>
      <trkpt lat="50.10849" lon="4.18833">
        <ele>181.2</ele>
        <time>2024-03-19T14:52:12Z</time>
      </trkpt>
      <trkpt lat="50.10844" lon="4.18845">
        <ele>180.8</ele>
        <time>2024-03-19T14:52:13Z</time>
      </trkpt>
      <trkpt lat="50.10839" lon="4.18857">
        <ele>180.4</ele>
        <time>2024-03-19T14:52:14Z</time>
      </trkpt>
      <trkpt lat="50.10835" lon="4.18868">
        <ele>180.2</ele>
        <time>2024-03-19T14:52:15Z</time>
      </trkpt>
      <trkpt lat="50.10831" lon="4.18881">
        <ele>179.6</ele>
        <time>2024-03-19T14:52:16Z</time>
      </trkpt>
      <trkpt lat="50.10827" lon="4.18893">
        <ele>179.2</ele>
        <time>2024-03-19T14:52:17Z</time>
      </trkpt>
      <trkpt lat="50.10825" lon="4.18906">
        <ele>179.2</ele>
        <time>2024-03-19T14:52:18Z</time>
      </trkpt>
      <trkpt lat="50.10822" lon="4.18919">
        <ele>178.8</ele>
        <time>2024-03-19T14:52:19Z</time>
      </trkpt>
      <trkpt lat="50.10821" lon="4.18931">
        <ele>178.8</ele>
        <time>2024-03-19T14:52:20Z</time>
      </trkpt>
      <trkpt lat="50.10819" lon="4.18943">
        <ele>178.6</ele>
        <time>2024-03-19T14:52:21Z</time>
      </trkpt>
      <trkpt lat="50.10818" lon="4.18956">
        <ele>178.6</ele>
        <time>2024-03-19T14:52:22Z</time>
      </trkpt>
      <trkpt lat="50.10817" lon="4.18967">
        <ele>178.6</ele>
        <time>2024-03-19T14:52:23Z</time>
      </trkpt>
      <trkpt lat="50.10816" lon="4.18979">
        <ele>178.6</ele>
        <time>2024-03-19T14:52:24Z</time>
      </trkpt>
      <trkpt lat="50.10814" lon="4.1899">
        <ele>178.6</ele>
        <time>2024-03-19T14:52:25Z</time>
      </trkpt>
      <trkpt lat="50.10813" lon="4.19">
        <ele>178.6</ele>
        <time>2024-03-19T14:52:26Z</time>
      </trkpt>
      <trkpt lat="50.10811" lon="4.19011">
        <ele>178.6</ele>
        <time>2024-03-19T14:52:27Z</time>
      </trkpt>
      <trkpt lat="50.10809" lon="4.19021">
        <ele>178.4</ele>
        <time>2024-03-19T14:52:28Z</time>
      </trkpt>
      <trkpt lat="50.10807" lon="4.19031">
        <ele>178.4</ele>
        <time>2024-03-19T14:52:29Z</time>
      </trkpt>
      <trkpt lat="50.10805" lon="4.19041">
        <ele>178.4</ele>
        <time>2024-03-19T14:52:30Z</time>
      </trkpt>
      <trkpt lat="50.10802" lon="4.19051">
        <ele>178.4</ele>
        <time>2024-03-19T14:52:31Z</time>
      </trkpt>
      <trkpt lat="50.108" lon="4.1906">
        <ele>178.8</ele>
        <time>2024-03-19T14:52:32Z</time>
      </trkpt>
      <trkpt lat="50.10797" lon="4.1907">
        <ele>179.2</ele>
        <time>2024-03-19T14:52:33Z</time>
      </trkpt>
      <trkpt lat="50.10795" lon="4.19079">
        <ele>179.4</ele>
        <time>2024-03-19T14:52:34Z</time>
      </trkpt>
      <trkpt lat="50.10792" lon="4.19088">
        <ele>179.8</ele>
        <time>2024-03-19T14:52:35Z</time>
      </trkpt>
      <trkpt lat="50.10789" lon="4.19097">
        <ele>179.8</ele>
        <time>2024-03-19T14:52:36Z</time>
      </trkpt>
      <trkpt lat="50.10786" lon="4.19106">
        <ele>180</ele>
        <time>2024-03-19T14:52:37Z</time>
      </trkpt>
      <trkpt lat="50.10783" lon="4.19114">
        <ele>180.2</ele>
        <time>2024-03-19T14:52:38Z</time>
      </trkpt>
      <trkpt lat="50.1078" lon="4.19122">
        <ele>180.6</ele>
        <time>2024-03-19T14:52:39Z</time>
      </trkpt>
      <trkpt lat="50.10774" lon="4.19139">
        <ele>180.8</ele>
        <time>2024-03-19T14:52:40Z</time>
      </trkpt>
      <trkpt lat="50.10774" lon="4.19139">
        <ele>181</ele>
        <time>2024-03-19T14:52:41Z</time>
      </trkpt>
      <trkpt lat="50.1077" lon="4.19147">
        <ele>181.4</ele>
        <time>2024-03-19T14:52:42Z</time>
      </trkpt>
      <trkpt lat="50.10767" lon="4.19155">
        <ele>181.4</ele>
        <time>2024-03-19T14:52:43Z</time>
      </trkpt>
      <trkpt lat="50.1076" lon="4.19171">
        <ele>181.8</ele>
        <time>2024-03-19T14:52:44Z</time>
      </trkpt>
      <trkpt lat="50.10756" lon="4.19179">
        <ele>182.6</ele>
        <time>2024-03-19T14:52:45Z</time>
      </trkpt>
      <trkpt lat="50.10756" lon="4.19179">
        <ele>182.8</ele>
        <time>2024-03-19T14:52:46Z</time>
      </trkpt>
      <trkpt lat="50.10751" lon="4.19188">
        <ele>183</ele>
        <time>2024-03-19T14:52:47Z</time>
      </trkpt>
      <trkpt lat="50.10747" lon="4.19196">
        <ele>183</ele>
        <time>2024-03-19T14:52:48Z</time>
      </trkpt>
      <trkpt lat="50.10742" lon="4.19204">
        <ele>183</ele>
        <time>2024-03-19T14:52:49Z</time>
      </trkpt>
      <trkpt lat="50.10736" lon="4.19211">
        <ele>183.2</ele>
        <time>2024-03-19T14:52:50Z</time>
      </trkpt>
      <trkpt lat="50.10725" lon="4.19227">
        <ele>183</ele>
        <time>2024-03-19T14:52:51Z</time>
      </trkpt>
      <trkpt lat="50.10725" lon="4.19227">
        <ele>183</ele>
        <time>2024-03-19T14:52:52Z</time>
      </trkpt>
      <trkpt lat="50.10719" lon="4.19235">
        <ele>183</ele>
        <time>2024-03-19T14:52:53Z</time>
      </trkpt>
      <trkpt lat="50.10714" lon="4.19243">
        <ele>183</ele>
        <time>2024-03-19T14:52:54Z</time>
      </trkpt>
      <trkpt lat="50.10708" lon="4.19252">
        <ele>183</ele>
        <time>2024-03-19T14:52:55Z</time>
      </trkpt>
      <trkpt lat="50.10703" lon="4.19261">
        <ele>182.4</ele>
        <time>2024-03-19T14:52:56Z</time>
      </trkpt>
      <trkpt lat="50.10697" lon="4.19271">
        <ele>182.2</ele>
        <time>2024-03-19T14:52:57Z</time>
      </trkpt>
      <trkpt lat="50.10692" lon="4.19281">
        <ele>181.8</ele>
        <time>2024-03-19T14:52:58Z</time>
      </trkpt>
      <trkpt lat="50.10681" lon="4.193">
        <ele>181.4</ele>
        <time>2024-03-19T14:52:59Z</time>
      </trkpt>
      <trkpt lat="50.10675" lon="4.1931">
        <ele>181.4</ele>
        <time>2024-03-19T14:53:00Z</time>
      </trkpt>
      <trkpt lat="50.1067" lon="4.1932">
        <ele>181.4</ele>
        <time>2024-03-19T14:53:01Z</time>
      </trkpt>
      <trkpt lat="50.1067" lon="4.1932">
        <ele>181.2</ele>
        <time>2024-03-19T14:53:02Z</time>
      </trkpt>
      <trkpt lat="50.10664" lon="4.19328">
        <ele>181.2</ele>
        <time>2024-03-19T14:53:03Z</time>
      </trkpt>
      <trkpt lat="50.10657" lon="4.19335">
        <ele>181</ele>
        <time>2024-03-19T14:53:04Z</time>
      </trkpt>
      <trkpt lat="50.10649" lon="4.1934">
        <ele>181</ele>
        <time>2024-03-19T14:53:05Z</time>
      </trkpt>
      <trkpt lat="50.10642" lon="4.19343">
        <ele>181</ele>
        <time>2024-03-19T14:53:06Z</time>
      </trkpt>
      <trkpt lat="50.10634" lon="4.19345">
        <ele>180.8</ele>
        <time>2024-03-19T14:53:07Z</time>
      </trkpt>
      <trkpt lat="50.10618" lon="4.19347">
        <ele>180.8</ele>
        <time>2024-03-19T14:53:08Z</time>
      </trkpt>
      <trkpt lat="50.10618" lon="4.19347">
        <ele>180.8</ele>
        <time>2024-03-19T14:53:09Z</time>
      </trkpt>
      <trkpt lat="50.10611" lon="4.19348">
        <ele>180.6</ele>
        <time>2024-03-19T14:53:10Z</time>
      </trkpt>
      <trkpt lat="50.10596" lon="4.19349">
        <ele>180.6</ele>
        <time>2024-03-19T14:53:11Z</time>
      </trkpt>
      <trkpt lat="50.10596" lon="4.19349">
        <ele>180.6</ele>
        <time>2024-03-19T14:53:12Z</time>
      </trkpt>
      <trkpt lat="50.10589" lon="4.19349">
        <ele>180.6</ele>
        <time>2024-03-19T14:53:13Z</time>
      </trkpt>
      <trkpt lat="50.10582" lon="4.1935">
        <ele>180.8</ele>
        <time>2024-03-19T14:53:14Z</time>
      </trkpt>
      <trkpt lat="50.10576" lon="4.19349">
        <ele>180.6</ele>
        <time>2024-03-19T14:53:15Z</time>
      </trkpt>
      <trkpt lat="50.10569" lon="4.19349">
        <ele>180.6</ele>
        <time>2024-03-19T14:53:16Z</time>
      </trkpt>
      <trkpt lat="50.10562" lon="4.19348">
        <ele>180.6</ele>
        <time>2024-03-19T14:53:17Z</time>
      </trkpt>
      <trkpt lat="50.1055" lon="4.19346">
        <ele>180.6</ele>
        <time>2024-03-19T14:53:18Z</time>
      </trkpt>
      <trkpt lat="50.1055" lon="4.19346">
        <ele>180.6</ele>
        <time>2024-03-19T14:53:19Z</time>
      </trkpt>
      <trkpt lat="50.10543" lon="4.19344">
        <ele>180.8</ele>
        <time>2024-03-19T14:53:20Z</time>
      </trkpt>
      <trkpt lat="50.10537" lon="4.19343">
        <ele>180.8</ele>
        <time>2024-03-19T14:53:21Z</time>
      </trkpt>
      <trkpt lat="50.10531" lon="4.19342">
        <ele>181.2</ele>
        <time>2024-03-19T14:53:22Z</time>
      </trkpt>
      <trkpt lat="50.10525" lon="4.1934">
        <ele>181.2</ele>
        <time>2024-03-19T14:53:23Z</time>
      </trkpt>
      <trkpt lat="50.10518" lon="4.19339">
        <ele>181.4</ele>
        <time>2024-03-19T14:53:24Z</time>
      </trkpt>
      <trkpt lat="50.10511" lon="4.19338">
        <ele>181.6</ele>
        <time>2024-03-19T14:53:25Z</time>
      </trkpt>
      <trkpt lat="50.10503" lon="4.19337">
        <ele>181.6</ele>
        <time>2024-03-19T14:53:26Z</time>
      </trkpt>
      <trkpt lat="50.10496" lon="4.19336">
        <ele>181.6</ele>
        <time>2024-03-19T14:53:27Z</time>
      </trkpt>
      <trkpt lat="50.10488" lon="4.19335">
        <ele>181.6</ele>
        <time>2024-03-19T14:53:28Z</time>
      </trkpt>
      <trkpt lat="50.1048" lon="4.19333">
        <ele>181.8</ele>
        <time>2024-03-19T14:53:29Z</time>
      </trkpt>
      <trkpt lat="50.10471" lon="4.19332">
        <ele>181.8</ele>
        <time>2024-03-19T14:53:30Z</time>
      </trkpt>
      <trkpt lat="50.10463" lon="4.19331">
        <ele>181.8</ele>
        <time>2024-03-19T14:53:31Z</time>
      </trkpt>
      <trkpt lat="50.10454" lon="4.19329">
        <ele>181.6</ele>
        <time>2024-03-19T14:53:32Z</time>
      </trkpt>
      <trkpt lat="50.10446" lon="4.19328">
        <ele>181.8</ele>
        <time>2024-03-19T14:53:33Z</time>
      </trkpt>
      <trkpt lat="50.10438" lon="4.19326">
        <ele>181.8</ele>
        <time>2024-03-19T14:53:34Z</time>
      </trkpt>
      <trkpt lat="50.10429" lon="4.19325">
        <ele>181.6</ele>
        <time>2024-03-19T14:53:35Z</time>
      </trkpt>
      <trkpt lat="50.10421" lon="4.19324">
        <ele>181.4</ele>
        <time>2024-03-19T14:53:36Z</time>
      </trkpt>
      <trkpt lat="50.10413" lon="4.19323">
        <ele>181.4</ele>
        <time>2024-03-19T14:53:37Z</time>
      </trkpt>
      <trkpt lat="50.10405" lon="4.19322">
        <ele>180.8</ele>
        <time>2024-03-19T14:53:38Z</time>
      </trkpt>
      <trkpt lat="50.10397" lon="4.19321">
        <ele>180.4</ele>
        <time>2024-03-19T14:53:39Z</time>
      </trkpt>
      <trkpt lat="50.1039" lon="4.19321">
        <ele>179.8</ele>
        <time>2024-03-19T14:53:40Z</time>
      </trkpt>
      <trkpt lat="50.10382" lon="4.19321">
        <ele>179.4</ele>
        <time>2024-03-19T14:53:41Z</time>
      </trkpt>
      <trkpt lat="50.10375" lon="4.19321">
        <ele>179.2</ele>
        <time>2024-03-19T14:53:42Z</time>
      </trkpt>
      <trkpt lat="50.10367" lon="4.19321">
        <ele>179.2</ele>
        <time>2024-03-19T14:53:43Z</time>
      </trkpt>
      <trkpt lat="50.1036" lon="4.19321">
        <ele>179.2</ele>
        <time>2024-03-19T14:53:44Z</time>
      </trkpt>
      <trkpt lat="50.10353" lon="4.19321">
        <ele>179.2</ele>
        <time>2024-03-19T14:53:45Z</time>
      </trkpt>
      <trkpt lat="50.10346" lon="4.19321">
        <ele>179.2</ele>
        <time>2024-03-19T14:53:46Z</time>
      </trkpt>
      <trkpt lat="50.1034" lon="4.19321">
        <ele>179.2</ele>
        <time>2024-03-19T14:53:47Z</time>
      </trkpt>
      <trkpt lat="50.10333" lon="4.19321">
        <ele>179</ele>
        <time>2024-03-19T14:53:48Z</time>
      </trkpt>
      <trkpt lat="50.10326" lon="4.19321">
        <ele>179</ele>
        <time>2024-03-19T14:53:49Z</time>
      </trkpt>
      <trkpt lat="50.1032" lon="4.19321">
        <ele>179.2</ele>
        <time>2024-03-19T14:53:50Z</time>
      </trkpt>
      <trkpt lat="50.10313" lon="4.19322">
        <ele>179.2</ele>
        <time>2024-03-19T14:53:51Z</time>
      </trkpt>
      <trkpt lat="50.10307" lon="4.19322">
        <ele>179.4</ele>
        <time>2024-03-19T14:53:52Z</time>
      </trkpt>
      <trkpt lat="50.103" lon="4.19321">
        <ele>179.6</ele>
        <time>2024-03-19T14:53:53Z</time>
      </trkpt>
      <trkpt lat="50.10294" lon="4.19321">
        <ele>179.6</ele>
        <time>2024-03-19T14:53:54Z</time>
      </trkpt>
      <trkpt lat="50.10287" lon="4.19321">
        <ele>179.8</ele>
        <time>2024-03-19T14:53:55Z</time>
      </trkpt>
      <trkpt lat="50.10281" lon="4.19321">
        <ele>180.2</ele>
        <time>2024-03-19T14:53:56Z</time>
      </trkpt>
      <trkpt lat="50.10274" lon="4.19321">
        <ele>180.4</ele>
        <time>2024-03-19T14:53:57Z</time>
      </trkpt>
      <trkpt lat="50.10268" lon="4.19321">
        <ele>180.8</ele>
        <time>2024-03-19T14:53:58Z</time>
      </trkpt>
      <trkpt lat="50.10261" lon="4.19321">
        <ele>181.2</ele>
        <time>2024-03-19T14:53:59Z</time>
      </trkpt>
      <trkpt lat="50.10254" lon="4.19321">
        <ele>181.8</ele>
        <time>2024-03-19T14:54:00Z</time>
      </trkpt>
      <trkpt lat="50.10248" lon="4.19321">
        <ele>181.8</ele>
        <time>2024-03-19T14:54:01Z</time>
      </trkpt>
      <trkpt lat="50.10241" lon="4.19321">
        <ele>182.2</ele>
        <time>2024-03-19T14:54:02Z</time>
      </trkpt>
      <trkpt lat="50.10234" lon="4.19321">
        <ele>182.4</ele>
        <time>2024-03-19T14:54:03Z</time>
      </trkpt>
      <trkpt lat="50.10227" lon="4.19321">
        <ele>182.4</ele>
        <time>2024-03-19T14:54:04Z</time>
      </trkpt>
      <trkpt lat="50.10221" lon="4.19321">
        <ele>182.4</ele>
        <time>2024-03-19T14:54:05Z</time>
      </trkpt>
      <trkpt lat="50.10214" lon="4.19321">
        <ele>182.6</ele>
        <time>2024-03-19T14:54:06Z</time>
      </trkpt>
      <trkpt lat="50.10207" lon="4.19321">
        <ele>182.8</ele>
        <time>2024-03-19T14:54:07Z</time>
      </trkpt>
      <trkpt lat="50.102" lon="4.19321">
        <ele>183.2</ele>
        <time>2024-03-19T14:54:08Z</time>
      </trkpt>
      <trkpt lat="50.10194" lon="4.19321">
        <ele>183</ele>
        <time>2024-03-19T14:54:09Z</time>
      </trkpt>
      <trkpt lat="50.10187" lon="4.1932">
        <ele>183.2</ele>
        <time>2024-03-19T14:54:10Z</time>
      </trkpt>
      <trkpt lat="50.1018" lon="4.1932">
        <ele>183.2</ele>
        <time>2024-03-19T14:54:11Z</time>
      </trkpt>
      <trkpt lat="50.10173" lon="4.1932">
        <ele>183.4</ele>
        <time>2024-03-19T14:54:12Z</time>
      </trkpt>
      <trkpt lat="50.10167" lon="4.1932">
        <ele>183.6</ele>
        <time>2024-03-19T14:54:13Z</time>
      </trkpt>
      <trkpt lat="50.1016" lon="4.19321">
        <ele>183.8</ele>
        <time>2024-03-19T14:54:14Z</time>
      </trkpt>
      <trkpt lat="50.10153" lon="4.19321">
        <ele>183.8</ele>
        <time>2024-03-19T14:54:15Z</time>
      </trkpt>
      <trkpt lat="50.10147" lon="4.19322">
        <ele>184</ele>
        <time>2024-03-19T14:54:16Z</time>
      </trkpt>
      <trkpt lat="50.1014" lon="4.19323">
        <ele>184</ele>
        <time>2024-03-19T14:54:17Z</time>
      </trkpt>
      <trkpt lat="50.10134" lon="4.19324">
        <ele>184</ele>
        <time>2024-03-19T14:54:18Z</time>
      </trkpt>
      <trkpt lat="50.10127" lon="4.19326">
        <ele>184</ele>
        <time>2024-03-19T14:54:19Z</time>
      </trkpt>
      <trkpt lat="50.10121" lon="4.19329">
        <ele>184.2</ele>
        <time>2024-03-19T14:54:20Z</time>
      </trkpt>
      <trkpt lat="50.10115" lon="4.19332">
        <ele>184.2</ele>
        <time>2024-03-19T14:54:21Z</time>
      </trkpt>
      <trkpt lat="50.10109" lon="4.19335">
        <ele>184.2</ele>
        <time>2024-03-19T14:54:22Z</time>
      </trkpt>
      <trkpt lat="50.10103" lon="4.19339">
        <ele>184.4</ele>
        <time>2024-03-19T14:54:23Z</time>
      </trkpt>
      <trkpt lat="50.10097" lon="4.19344">
        <ele>184.6</ele>
        <time>2024-03-19T14:54:24Z</time>
      </trkpt>
      <trkpt lat="50.10092" lon="4.19348">
        <ele>184.6</ele>
        <time>2024-03-19T14:54:25Z</time>
      </trkpt>
      <trkpt lat="50.10086" lon="4.19352">
        <ele>184.8</ele>
        <time>2024-03-19T14:54:26Z</time>
      </trkpt>
      <trkpt lat="50.1008" lon="4.19357">
        <ele>185.4</ele>
        <time>2024-03-19T14:54:27Z</time>
      </trkpt>
      <trkpt lat="50.10074" lon="4.19361">
        <ele>186.2</ele>
        <time>2024-03-19T14:54:28Z</time>
      </trkpt>
      <trkpt lat="50.10068" lon="4.19366">
        <ele>186.2</ele>
        <time>2024-03-19T14:54:29Z</time>
      </trkpt>
      <trkpt lat="50.10062" lon="4.1937">
        <ele>186.8</ele>
        <time>2024-03-19T14:54:30Z</time>
      </trkpt>
      <trkpt lat="50.10055" lon="4.19375">
        <ele>187.4</ele>
        <time>2024-03-19T14:54:31Z</time>
      </trkpt>
      <trkpt lat="50.10049" lon="4.19379">
        <ele>187.6</ele>
        <time>2024-03-19T14:54:32Z</time>
      </trkpt>
      <trkpt lat="50.10042" lon="4.19383">
        <ele>188</ele>
        <time>2024-03-19T14:54:33Z</time>
      </trkpt>
      <trkpt lat="50.10035" lon="4.19386">
        <ele>188</ele>
        <time>2024-03-19T14:54:34Z</time>
      </trkpt>
      <trkpt lat="50.10029" lon="4.1939">
        <ele>188.2</ele>
        <time>2024-03-19T14:54:35Z</time>
      </trkpt>
      <trkpt lat="50.10022" lon="4.19392">
        <ele>188.4</ele>
        <time>2024-03-19T14:54:36Z</time>
      </trkpt>
      <trkpt lat="50.10014" lon="4.19394">
        <ele>188.4</ele>
        <time>2024-03-19T14:54:37Z</time>
      </trkpt>
      <trkpt lat="50.10007" lon="4.19396">
        <ele>188.4</ele>
        <time>2024-03-19T14:54:38Z</time>
      </trkpt>
      <trkpt lat="50.1" lon="4.19397">
        <ele>188.4</ele>
        <time>2024-03-19T14:54:39Z</time>
      </trkpt>
      <trkpt lat="50.09993" lon="4.19398">
        <ele>188.6</ele>
        <time>2024-03-19T14:54:40Z</time>
      </trkpt>
      <trkpt lat="50.09985" lon="4.19399">
        <ele>188.4</ele>
        <time>2024-03-19T14:54:41Z</time>
      </trkpt>
      <trkpt lat="50.09978" lon="4.194">
        <ele>188.4</ele>
        <time>2024-03-19T14:54:42Z</time>
      </trkpt>
      <trkpt lat="50.0997" lon="4.19401">
        <ele>188.4</ele>
        <time>2024-03-19T14:54:43Z</time>
      </trkpt>
      <trkpt lat="50.09962" lon="4.19402">
        <ele>188.2</ele>
        <time>2024-03-19T14:54:44Z</time>
      </trkpt>
      <trkpt lat="50.09954" lon="4.19403">
        <ele>188.2</ele>
        <time>2024-03-19T14:54:45Z</time>
      </trkpt>
      <trkpt lat="50.09946" lon="4.19403">
        <ele>188</ele>
        <time>2024-03-19T14:54:46Z</time>
      </trkpt>
      <trkpt lat="50.09937" lon="4.19404">
        <ele>187.6</ele>
        <time>2024-03-19T14:54:47Z</time>
      </trkpt>
      <trkpt lat="50.09929" lon="4.19405">
        <ele>187.6</ele>
        <time>2024-03-19T14:54:48Z</time>
      </trkpt>
      <trkpt lat="50.0992" lon="4.19406">
        <ele>187.4</ele>
        <time>2024-03-19T14:54:49Z</time>
      </trkpt>
      <trkpt lat="50.09911" lon="4.19407">
        <ele>187</ele>
        <time>2024-03-19T14:54:50Z</time>
      </trkpt>
      <trkpt lat="50.09902" lon="4.19408">
        <ele>186.6</ele>
        <time>2024-03-19T14:54:51Z</time>
      </trkpt>
      <trkpt lat="50.09893" lon="4.19408">
        <ele>185.6</ele>
        <time>2024-03-19T14:54:52Z</time>
      </trkpt>
      <trkpt lat="50.09884" lon="4.19408">
        <ele>185</ele>
        <time>2024-03-19T14:54:53Z</time>
      </trkpt>
      <trkpt lat="50.09875" lon="4.19407">
        <ele>184.6</ele>
        <time>2024-03-19T14:54:54Z</time>
      </trkpt>
      <trkpt lat="50.09865" lon="4.19407">
        <ele>184.2</ele>
        <time>2024-03-19T14:54:55Z</time>
      </trkpt>
      <trkpt lat="50.09855" lon="4.19407">
        <ele>183.8</ele>
        <time>2024-03-19T14:54:56Z</time>
      </trkpt>
      <trkpt lat="50.09846" lon="4.19407">
        <ele>183.6</ele>
        <time>2024-03-19T14:54:57Z</time>
      </trkpt>
      <trkpt lat="50.09836" lon="4.19408">
        <ele>183.2</ele>
        <time>2024-03-19T14:54:58Z</time>
      </trkpt>
      <trkpt lat="50.09827" lon="4.19407">
        <ele>183</ele>
        <time>2024-03-19T14:54:59Z</time>
      </trkpt>
      <trkpt lat="50.09818" lon="4.19407">
        <ele>182.2</ele>
        <time>2024-03-19T14:55:00Z</time>
      </trkpt>
      <trkpt lat="50.09809" lon="4.19406">
        <ele>181.6</ele>
        <time>2024-03-19T14:55:01Z</time>
      </trkpt>
      <trkpt lat="50.098" lon="4.19406">
        <ele>180.2</ele>
        <time>2024-03-19T14:55:02Z</time>
      </trkpt>
      <trkpt lat="50.09791" lon="4.19406">
        <ele>180.2</ele>
        <time>2024-03-19T14:55:03Z</time>
      </trkpt>
      <trkpt lat="50.09782" lon="4.19406">
        <ele>179.6</ele>
        <time>2024-03-19T14:55:04Z</time>
      </trkpt>
      <trkpt lat="50.09774" lon="4.19406">
        <ele>179.4</ele>
        <time>2024-03-19T14:55:05Z</time>
      </trkpt>
      <trkpt lat="50.09766" lon="4.19406">
        <ele>179</ele>
        <time>2024-03-19T14:55:06Z</time>
      </trkpt>
      <trkpt lat="50.09758" lon="4.19406">
        <ele>179</ele>
        <time>2024-03-19T14:55:07Z</time>
      </trkpt>
      <trkpt lat="50.0975" lon="4.19406">
        <ele>179</ele>
        <time>2024-03-19T14:55:08Z</time>
      </trkpt>
      <trkpt lat="50.09742" lon="4.19406">
        <ele>179</ele>
        <time>2024-03-19T14:55:09Z</time>
      </trkpt>
      <trkpt lat="50.09734" lon="4.19407">
        <ele>179</ele>
        <time>2024-03-19T14:55:10Z</time>
      </trkpt>
      <trkpt lat="50.09726" lon="4.1941">
        <ele>178.8</ele>
        <time>2024-03-19T14:55:11Z</time>
      </trkpt>
      <trkpt lat="50.09719" lon="4.19413">
        <ele>178.8</ele>
        <time>2024-03-19T14:55:12Z</time>
      </trkpt>
      <trkpt lat="50.09711" lon="4.19418">
        <ele>178.8</ele>
        <time>2024-03-19T14:55:13Z</time>
      </trkpt>
      <trkpt lat="50.09698" lon="4.1943">
        <ele>179</ele>
        <time>2024-03-19T14:55:14Z</time>
      </trkpt>
      <trkpt lat="50.09698" lon="4.1943">
        <ele>179</ele>
        <time>2024-03-19T14:55:15Z</time>
      </trkpt>
      <trkpt lat="50.09685" lon="4.19443">
        <ele>179</ele>
        <time>2024-03-19T14:55:16Z</time>
      </trkpt>
      <trkpt lat="50.09685" lon="4.19443">
        <ele>179</ele>
        <time>2024-03-19T14:55:17Z</time>
      </trkpt>
      <trkpt lat="50.09678" lon="4.1945">
        <ele>179.2</ele>
        <time>2024-03-19T14:55:18Z</time>
      </trkpt>
      <trkpt lat="50.09672" lon="4.19456">
        <ele>179.4</ele>
        <time>2024-03-19T14:55:19Z</time>
      </trkpt>
      <trkpt lat="50.09666" lon="4.19462">
        <ele>179.4</ele>
        <time>2024-03-19T14:55:20Z</time>
      </trkpt>
      <trkpt lat="50.09659" lon="4.19469">
        <ele>179.4</ele>
        <time>2024-03-19T14:55:21Z</time>
      </trkpt>
      <trkpt lat="50.09653" lon="4.19475">
        <ele>179.4</ele>
        <time>2024-03-19T14:55:22Z</time>
      </trkpt>
      <trkpt lat="50.09647" lon="4.19482">
        <ele>179.4</ele>
        <time>2024-03-19T14:55:23Z</time>
      </trkpt>
      <trkpt lat="50.09642" lon="4.19489">
        <ele>179.4</ele>
        <time>2024-03-19T14:55:24Z</time>
      </trkpt>
      <trkpt lat="50.09636" lon="4.19496">
        <ele>179.4</ele>
        <time>2024-03-19T14:55:25Z</time>
      </trkpt>
      <trkpt lat="50.09631" lon="4.19503">
        <ele>179.4</ele>
        <time>2024-03-19T14:55:26Z</time>
      </trkpt>
      <trkpt lat="50.09625" lon="4.19511">
        <ele>179.4</ele>
        <time>2024-03-19T14:55:27Z</time>
      </trkpt>
      <trkpt lat="50.0962" lon="4.19518">
        <ele>179.4</ele>
        <time>2024-03-19T14:55:28Z</time>
      </trkpt>
      <trkpt lat="50.09615" lon="4.19526">
        <ele>179.4</ele>
        <time>2024-03-19T14:55:29Z</time>
      </trkpt>
      <trkpt lat="50.09609" lon="4.19532">
        <ele>179.4</ele>
        <time>2024-03-19T14:55:30Z</time>
      </trkpt>
      <trkpt lat="50.09603" lon="4.19538">
        <ele>179.4</ele>
        <time>2024-03-19T14:55:31Z</time>
      </trkpt>
      <trkpt lat="50.09597" lon="4.19543">
        <ele>179.4</ele>
        <time>2024-03-19T14:55:32Z</time>
      </trkpt>
      <trkpt lat="50.0959" lon="4.19546">
        <ele>179.6</ele>
        <time>2024-03-19T14:55:33Z</time>
      </trkpt>
      <trkpt lat="50.09576" lon="4.19549">
        <ele>179.6</ele>
        <time>2024-03-19T14:55:34Z</time>
      </trkpt>
      <trkpt lat="50.0957" lon="4.1955">
        <ele>179.6</ele>
        <time>2024-03-19T14:55:35Z</time>
      </trkpt>
      <trkpt lat="50.0957" lon="4.1955">
        <ele>179.6</ele>
        <time>2024-03-19T14:55:36Z</time>
      </trkpt>
      <trkpt lat="50.09563" lon="4.19551">
        <ele>179.6</ele>
        <time>2024-03-19T14:55:37Z</time>
      </trkpt>
      <trkpt lat="50.09556" lon="4.19551">
        <ele>180</ele>
        <time>2024-03-19T14:55:38Z</time>
      </trkpt>
      <trkpt lat="50.09549" lon="4.19551">
        <ele>179.8</ele>
        <time>2024-03-19T14:55:39Z</time>
      </trkpt>
      <trkpt lat="50.09543" lon="4.1955">
        <ele>180</ele>
        <time>2024-03-19T14:55:40Z</time>
      </trkpt>
      <trkpt lat="50.09536" lon="4.19549">
        <ele>180</ele>
        <time>2024-03-19T14:55:41Z</time>
      </trkpt>
      <trkpt lat="50.09529" lon="4.19549">
        <ele>180.2</ele>
        <time>2024-03-19T14:55:42Z</time>
      </trkpt>
      <trkpt lat="50.09523" lon="4.19547">
        <ele>180</ele>
        <time>2024-03-19T14:55:43Z</time>
      </trkpt>
      <trkpt lat="50.09517" lon="4.19545">
        <ele>180.2</ele>
        <time>2024-03-19T14:55:44Z</time>
      </trkpt>
      <trkpt lat="50.09505" lon="4.19536">
        <ele>180.4</ele>
        <time>2024-03-19T14:55:45Z</time>
      </trkpt>
      <trkpt lat="50.09505" lon="4.19536">
        <ele>180.6</ele>
        <time>2024-03-19T14:55:46Z</time>
      </trkpt>
      <trkpt lat="50.09499" lon="4.19531">
        <ele>180.6</ele>
        <time>2024-03-19T14:55:47Z</time>
      </trkpt>
      <trkpt lat="50.09489" lon="4.19516">
        <ele>180.6</ele>
        <time>2024-03-19T14:55:48Z</time>
      </trkpt>
      <trkpt lat="50.09485" lon="4.19509">
        <ele>181</ele>
        <time>2024-03-19T14:55:49Z</time>
      </trkpt>
      <trkpt lat="50.09485" lon="4.19509">
        <ele>181</ele>
        <time>2024-03-19T14:55:50Z</time>
      </trkpt>
      <trkpt lat="50.09476" lon="4.19492">
        <ele>181.2</ele>
        <time>2024-03-19T14:55:51Z</time>
      </trkpt>
      <trkpt lat="50.09476" lon="4.19492">
        <ele>181.2</ele>
        <time>2024-03-19T14:55:52Z</time>
      </trkpt>
      <trkpt lat="50.09467" lon="4.19476">
        <ele>181.6</ele>
        <time>2024-03-19T14:55:53Z</time>
      </trkpt>
      <trkpt lat="50.09462" lon="4.19468">
        <ele>181.6</ele>
        <time>2024-03-19T14:55:54Z</time>
      </trkpt>
      <trkpt lat="50.09457" lon="4.1946">
        <ele>181.6</ele>
        <time>2024-03-19T14:55:55Z</time>
      </trkpt>
      <trkpt lat="50.09457" lon="4.1946">
        <ele>181.6</ele>
        <time>2024-03-19T14:55:56Z</time>
      </trkpt>
      <trkpt lat="50.09448" lon="4.19444">
        <ele>181.6</ele>
        <time>2024-03-19T14:55:57Z</time>
      </trkpt>
      <trkpt lat="50.09443" lon="4.19436">
        <ele>181.6</ele>
        <time>2024-03-19T14:55:58Z</time>
      </trkpt>
      <trkpt lat="50.09443" lon="4.19436">
        <ele>181.6</ele>
        <time>2024-03-19T14:55:59Z</time>
      </trkpt>
      <trkpt lat="50.09438" lon="4.19428">
        <ele>181.6</ele>
        <time>2024-03-19T14:56:00Z</time>
      </trkpt>
      <trkpt lat="50.09433" lon="4.1942">
        <ele>181.6</ele>
        <time>2024-03-19T14:56:01Z</time>
      </trkpt>
      <trkpt lat="50.09424" lon="4.19404">
        <ele>181.6</ele>
        <time>2024-03-19T14:56:02Z</time>
      </trkpt>
      <trkpt lat="50.09419" lon="4.19397">
        <ele>181.6</ele>
        <time>2024-03-19T14:56:03Z</time>
      </trkpt>
      <trkpt lat="50.09415" lon="4.19389">
        <ele>181.8</ele>
        <time>2024-03-19T14:56:04Z</time>
      </trkpt>
      <trkpt lat="50.0941" lon="4.19381">
        <ele>181.6</ele>
        <time>2024-03-19T14:56:05Z</time>
      </trkpt>
      <trkpt lat="50.09405" lon="4.19374">
        <ele>181.6</ele>
        <time>2024-03-19T14:56:06Z</time>
      </trkpt>
      <trkpt lat="50.09405" lon="4.19374">
        <ele>181.6</ele>
        <time>2024-03-19T14:56:07Z</time>
      </trkpt>
      <trkpt lat="50.094" lon="4.19367">
        <ele>181.8</ele>
        <time>2024-03-19T14:56:08Z</time>
      </trkpt>
      <trkpt lat="50.09394" lon="4.1936">
        <ele>181.6</ele>
        <time>2024-03-19T14:56:09Z</time>
      </trkpt>
      <trkpt lat="50.09389" lon="4.19354">
        <ele>181.6</ele>
        <time>2024-03-19T14:56:10Z</time>
      </trkpt>
      <trkpt lat="50.09383" lon="4.19348">
        <ele>181.6</ele>
        <time>2024-03-19T14:56:11Z</time>
      </trkpt>
      <trkpt lat="50.09377" lon="4.19343">
        <ele>181.6</ele>
        <time>2024-03-19T14:56:12Z</time>
      </trkpt>
      <trkpt lat="50.09371" lon="4.19339">
        <ele>181.6</ele>
        <time>2024-03-19T14:56:13Z</time>
      </trkpt>
      <trkpt lat="50.09365" lon="4.19335">
        <ele>181.6</ele>
        <time>2024-03-19T14:56:14Z</time>
      </trkpt>
      <trkpt lat="50.09358" lon="4.19332">
        <ele>181.6</ele>
        <time>2024-03-19T14:56:15Z</time>
      </trkpt>
      <trkpt lat="50.09352" lon="4.1933">
        <ele>181.8</ele>
        <time>2024-03-19T14:56:16Z</time>
      </trkpt>
      <trkpt lat="50.09345" lon="4.19329">
        <ele>182.2</ele>
        <time>2024-03-19T14:56:17Z</time>
      </trkpt>
      <trkpt lat="50.09339" lon="4.19328">
        <ele>182.2</ele>
        <time>2024-03-19T14:56:18Z</time>
      </trkpt>
      <trkpt lat="50.09332" lon="4.19327">
        <ele>182.6</ele>
        <time>2024-03-19T14:56:19Z</time>
      </trkpt>
      <trkpt lat="50.09325" lon="4.19327">
        <ele>182.6</ele>
        <time>2024-03-19T14:56:20Z</time>
      </trkpt>
      <trkpt lat="50.09318" lon="4.19326">
        <ele>182.6</ele>
        <time>2024-03-19T14:56:21Z</time>
      </trkpt>
      <trkpt lat="50.09311" lon="4.19326">
        <ele>182.8</ele>
        <time>2024-03-19T14:56:22Z</time>
      </trkpt>
      <trkpt lat="50.09304" lon="4.19327">
        <ele>182.8</ele>
        <time>2024-03-19T14:56:23Z</time>
      </trkpt>
      <trkpt lat="50.09297" lon="4.19327">
        <ele>182.8</ele>
        <time>2024-03-19T14:56:24Z</time>
      </trkpt>
      <trkpt lat="50.0929" lon="4.19328">
        <ele>183.2</ele>
        <time>2024-03-19T14:56:25Z</time>
      </trkpt>
      <trkpt lat="50.09283" lon="4.19329">
        <ele>183.2</ele>
        <time>2024-03-19T14:56:26Z</time>
      </trkpt>
      <trkpt lat="50.09276" lon="4.1933">
        <ele>183.4</ele>
        <time>2024-03-19T14:56:27Z</time>
      </trkpt>
      <trkpt lat="50.0927" lon="4.19332">
        <ele>183.4</ele>
        <time>2024-03-19T14:56:28Z</time>
      </trkpt>
      <trkpt lat="50.09263" lon="4.19335">
        <ele>183.6</ele>
        <time>2024-03-19T14:56:29Z</time>
      </trkpt>
      <trkpt lat="50.09256" lon="4.19337">
        <ele>183.8</ele>
        <time>2024-03-19T14:56:30Z</time>
      </trkpt>
      <trkpt lat="50.09249" lon="4.19339">
        <ele>183.8</ele>
        <time>2024-03-19T14:56:31Z</time>
      </trkpt>
      <trkpt lat="50.09243" lon="4.19342">
        <ele>183.8</ele>
        <time>2024-03-19T14:56:32Z</time>
      </trkpt>
      <trkpt lat="50.09236" lon="4.19344">
        <ele>184</ele>
        <time>2024-03-19T14:56:33Z</time>
      </trkpt>
      <trkpt lat="50.09229" lon="4.19347">
        <ele>184.2</ele>
        <time>2024-03-19T14:56:34Z</time>
      </trkpt>
      <trkpt lat="50.09223" lon="4.19349">
        <ele>184.2</ele>
        <time>2024-03-19T14:56:35Z</time>
      </trkpt>
      <trkpt lat="50.09216" lon="4.19351">
        <ele>184.4</ele>
        <time>2024-03-19T14:56:36Z</time>
      </trkpt>
      <trkpt lat="50.09209" lon="4.19353">
        <ele>184.8</ele>
        <time>2024-03-19T14:56:37Z</time>
      </trkpt>
      <trkpt lat="50.09203" lon="4.19355">
        <ele>185</ele>
        <time>2024-03-19T14:56:38Z</time>
      </trkpt>
      <trkpt lat="50.09196" lon="4.19356">
        <ele>185</ele>
        <time>2024-03-19T14:56:39Z</time>
      </trkpt>
      <trkpt lat="50.09189" lon="4.19357">
        <ele>184.8</ele>
        <time>2024-03-19T14:56:40Z</time>
      </trkpt>
      <trkpt lat="50.09182" lon="4.19358">
        <ele>185</ele>
        <time>2024-03-19T14:56:41Z</time>
      </trkpt>
      <trkpt lat="50.09176" lon="4.19359">
        <ele>185.2</ele>
        <time>2024-03-19T14:56:42Z</time>
      </trkpt>
      <trkpt lat="50.09169" lon="4.19359">
        <ele>185.2</ele>
        <time>2024-03-19T14:56:43Z</time>
      </trkpt>
      <trkpt lat="50.09162" lon="4.1936">
        <ele>185.2</ele>
        <time>2024-03-19T14:56:44Z</time>
      </trkpt>
      <trkpt lat="50.09155" lon="4.1936">
        <ele>185.4</ele>
        <time>2024-03-19T14:56:45Z</time>
      </trkpt>
      <trkpt lat="50.09149" lon="4.1936">
        <ele>185.4</ele>
        <time>2024-03-19T14:56:46Z</time>
      </trkpt>
      <trkpt lat="50.09142" lon="4.1936">
        <ele>185.4</ele>
        <time>2024-03-19T14:56:47Z</time>
      </trkpt>
      <trkpt lat="50.09135" lon="4.1936">
        <ele>185.4</ele>
        <time>2024-03-19T14:56:48Z</time>
      </trkpt>
      <trkpt lat="50.09128" lon="4.19359">
        <ele>185.6</ele>
        <time>2024-03-19T14:56:49Z</time>
      </trkpt>
      <trkpt lat="50.09121" lon="4.19359">
        <ele>185.8</ele>
        <time>2024-03-19T14:56:50Z</time>
      </trkpt>
      <trkpt lat="50.09114" lon="4.19359">
        <ele>186</ele>
        <time>2024-03-19T14:56:51Z</time>
      </trkpt>
      <trkpt lat="50.09107" lon="4.19358">
        <ele>186.2</ele>
        <time>2024-03-19T14:56:52Z</time>
      </trkpt>
      <trkpt lat="50.091" lon="4.19358">
        <ele>186</ele>
        <time>2024-03-19T14:56:53Z</time>
      </trkpt>
      <trkpt lat="50.09093" lon="4.19358">
        <ele>186.2</ele>
        <time>2024-03-19T14:56:54Z</time>
      </trkpt>
      <trkpt lat="50.09086" lon="4.19358">
        <ele>186.2</ele>
        <time>2024-03-19T14:56:55Z</time>
      </trkpt>
      <trkpt lat="50.09079" lon="4.19358">
        <ele>186.2</ele>
        <time>2024-03-19T14:56:56Z</time>
      </trkpt>
      <trkpt lat="50.09072" lon="4.19358">
        <ele>186.2</ele>
        <time>2024-03-19T14:56:57Z</time>
      </trkpt>
      <trkpt lat="50.09064" lon="4.19359">
        <ele>186.2</ele>
        <time>2024-03-19T14:56:58Z</time>
      </trkpt>
      <trkpt lat="50.09057" lon="4.19359">
        <ele>186.2</ele>
        <time>2024-03-19T14:56:59Z</time>
      </trkpt>
      <trkpt lat="50.0905" lon="4.19359">
        <ele>186.2</ele>
        <time>2024-03-19T14:57:00Z</time>
      </trkpt>
      <trkpt lat="50.09043" lon="4.19359">
        <ele>186.2</ele>
        <time>2024-03-19T14:57:01Z</time>
      </trkpt>
      <trkpt lat="50.09036" lon="4.19358">
        <ele>186.2</ele>
        <time>2024-03-19T14:57:02Z</time>
      </trkpt>
      <trkpt lat="50.09028" lon="4.19358">
        <ele>186.2</ele>
        <time>2024-03-19T14:57:03Z</time>
      </trkpt>
      <trkpt lat="50.09021" lon="4.19358">
        <ele>186</ele>
        <time>2024-03-19T14:57:04Z</time>
      </trkpt>
      <trkpt lat="50.09014" lon="4.19357">
        <ele>186</ele>
        <time>2024-03-19T14:57:05Z</time>
      </trkpt>
      <trkpt lat="50.09007" lon="4.19356">
        <ele>186</ele>
        <time>2024-03-19T14:57:06Z</time>
      </trkpt>
      <trkpt lat="50.09" lon="4.19354">
        <ele>185.6</ele>
        <time>2024-03-19T14:57:07Z</time>
      </trkpt>
      <trkpt lat="50.08993" lon="4.19352">
        <ele>185.4</ele>
        <time>2024-03-19T14:57:08Z</time>
      </trkpt>
      <trkpt lat="50.08986" lon="4.19349">
        <ele>185.4</ele>
        <time>2024-03-19T14:57:09Z</time>
      </trkpt>
      <trkpt lat="50.08979" lon="4.19346">
        <ele>185.2</ele>
        <time>2024-03-19T14:57:10Z</time>
      </trkpt>
      <trkpt lat="50.08971" lon="4.19343">
        <ele>185</ele>
        <time>2024-03-19T14:57:11Z</time>
      </trkpt>
      <trkpt lat="50.08964" lon="4.1934">
        <ele>185</ele>
        <time>2024-03-19T14:57:12Z</time>
      </trkpt>
      <trkpt lat="50.08957" lon="4.19337">
        <ele>184.4</ele>
        <time>2024-03-19T14:57:13Z</time>
      </trkpt>
      <trkpt lat="50.0895" lon="4.19334">
        <ele>184.2</ele>
        <time>2024-03-19T14:57:14Z</time>
      </trkpt>
      <trkpt lat="50.08943" lon="4.1933">
        <ele>184.2</ele>
        <time>2024-03-19T14:57:15Z</time>
      </trkpt>
      <trkpt lat="50.08935" lon="4.19327">
        <ele>184</ele>
        <time>2024-03-19T14:57:16Z</time>
      </trkpt>
      <trkpt lat="50.08928" lon="4.19324">
        <ele>183.8</ele>
        <time>2024-03-19T14:57:17Z</time>
      </trkpt>
      <trkpt lat="50.08921" lon="4.19321">
        <ele>183.8</ele>
        <time>2024-03-19T14:57:18Z</time>
      </trkpt>
      <trkpt lat="50.08914" lon="4.19319">
        <ele>183.8</ele>
        <time>2024-03-19T14:57:19Z</time>
      </trkpt>
      <trkpt lat="50.08907" lon="4.19317">
        <ele>183.4</ele>
        <time>2024-03-19T14:57:20Z</time>
      </trkpt>
      <trkpt lat="50.089" lon="4.19315">
        <ele>183.4</ele>
        <time>2024-03-19T14:57:21Z</time>
      </trkpt>
      <trkpt lat="50.08892" lon="4.19314">
        <ele>183.2</ele>
        <time>2024-03-19T14:57:22Z</time>
      </trkpt>
      <trkpt lat="50.08885" lon="4.19314">
        <ele>183.2</ele>
        <time>2024-03-19T14:57:23Z</time>
      </trkpt>
      <trkpt lat="50.08878" lon="4.19315">
        <ele>183.2</ele>
        <time>2024-03-19T14:57:24Z</time>
      </trkpt>
      <trkpt lat="50.08871" lon="4.19315">
        <ele>183.2</ele>
        <time>2024-03-19T14:57:25Z</time>
      </trkpt>
      <trkpt lat="50.08864" lon="4.19317">
        <ele>183.2</ele>
        <time>2024-03-19T14:57:26Z</time>
      </trkpt>
      <trkpt lat="50.08857" lon="4.19318">
        <ele>183</ele>
        <time>2024-03-19T14:57:27Z</time>
      </trkpt>
      <trkpt lat="50.0885" lon="4.19319">
        <ele>182.8</ele>
        <time>2024-03-19T14:57:28Z</time>
      </trkpt>
      <trkpt lat="50.08843" lon="4.1932">
        <ele>182.6</ele>
        <time>2024-03-19T14:57:29Z</time>
      </trkpt>
      <trkpt lat="50.08836" lon="4.19321">
        <ele>182.6</ele>
        <time>2024-03-19T14:57:30Z</time>
      </trkpt>
      <trkpt lat="50.08829" lon="4.19322">
        <ele>182.6</ele>
        <time>2024-03-19T14:57:31Z</time>
      </trkpt>
      <trkpt lat="50.08822" lon="4.19323">
        <ele>182.6</ele>
        <time>2024-03-19T14:57:32Z</time>
      </trkpt>
      <trkpt lat="50.08815" lon="4.19324">
        <ele>182.6</ele>
        <time>2024-03-19T14:57:33Z</time>
      </trkpt>
      <trkpt lat="50.08808" lon="4.19325">
        <ele>182.6</ele>
        <time>2024-03-19T14:57:34Z</time>
      </trkpt>
      <trkpt lat="50.08801" lon="4.19325">
        <ele>182.6</ele>
        <time>2024-03-19T14:57:35Z</time>
      </trkpt>
      <trkpt lat="50.08794" lon="4.19326">
        <ele>182.8</ele>
        <time>2024-03-19T14:57:36Z</time>
      </trkpt>
      <trkpt lat="50.08787" lon="4.19327">
        <ele>182.8</ele>
        <time>2024-03-19T14:57:37Z</time>
      </trkpt>
      <trkpt lat="50.0878" lon="4.19328">
        <ele>182.8</ele>
        <time>2024-03-19T14:57:38Z</time>
      </trkpt>
      <trkpt lat="50.08773" lon="4.19328">
        <ele>182.8</ele>
        <time>2024-03-19T14:57:39Z</time>
      </trkpt>
      <trkpt lat="50.08766" lon="4.19329">
        <ele>182.8</ele>
        <time>2024-03-19T14:57:40Z</time>
      </trkpt>
      <trkpt lat="50.08759" lon="4.1933">
        <ele>182.8</ele>
        <time>2024-03-19T14:57:41Z</time>
      </trkpt>
      <trkpt lat="50.08752" lon="4.19331">
        <ele>183</ele>
        <time>2024-03-19T14:57:42Z</time>
      </trkpt>
      <trkpt lat="50.08745" lon="4.19331">
        <ele>183</ele>
        <time>2024-03-19T14:57:43Z</time>
      </trkpt>
      <trkpt lat="50.08738" lon="4.19331">
        <ele>183</ele>
        <time>2024-03-19T14:57:44Z</time>
      </trkpt>
      <trkpt lat="50.08731" lon="4.19332">
        <ele>183</ele>
        <time>2024-03-19T14:57:45Z</time>
      </trkpt>
      <trkpt lat="50.08724" lon="4.19332">
        <ele>183</ele>
        <time>2024-03-19T14:57:46Z</time>
      </trkpt>
      <trkpt lat="50.08717" lon="4.19332">
        <ele>183</ele>
        <time>2024-03-19T14:57:47Z</time>
      </trkpt>
      <trkpt lat="50.08711" lon="4.19331">
        <ele>183</ele>
        <time>2024-03-19T14:57:48Z</time>
      </trkpt>
      <trkpt lat="50.08704" lon="4.1933">
        <ele>183</ele>
        <time>2024-03-19T14:57:49Z</time>
      </trkpt>
      <trkpt lat="50.08697" lon="4.19329">
        <ele>183</ele>
        <time>2024-03-19T14:57:50Z</time>
      </trkpt>
      <trkpt lat="50.08691" lon="4.19327">
        <ele>183</ele>
        <time>2024-03-19T14:57:51Z</time>
      </trkpt>
      <trkpt lat="50.08684" lon="4.19325">
        <ele>183</ele>
        <time>2024-03-19T14:57:52Z</time>
      </trkpt>
      <trkpt lat="50.08677" lon="4.19323">
        <ele>183</ele>
        <time>2024-03-19T14:57:53Z</time>
      </trkpt>
      <trkpt lat="50.08671" lon="4.19321">
        <ele>183</ele>
        <time>2024-03-19T14:57:54Z</time>
      </trkpt>
      <trkpt lat="50.08664" lon="4.19319">
        <ele>183</ele>
        <time>2024-03-19T14:57:55Z</time>
      </trkpt>
      <trkpt lat="50.08658" lon="4.19317">
        <ele>183.2</ele>
        <time>2024-03-19T14:57:56Z</time>
      </trkpt>
      <trkpt lat="50.08651" lon="4.19314">
        <ele>183.2</ele>
        <time>2024-03-19T14:57:57Z</time>
      </trkpt>
      <trkpt lat="50.08645" lon="4.19312">
        <ele>183</ele>
        <time>2024-03-19T14:57:58Z</time>
      </trkpt>
      <trkpt lat="50.08638" lon="4.19309">
        <ele>183.2</ele>
        <time>2024-03-19T14:57:59Z</time>
      </trkpt>
      <trkpt lat="50.08632" lon="4.19307">
        <ele>183.2</ele>
        <time>2024-03-19T14:58:00Z</time>
      </trkpt>
      <trkpt lat="50.08625" lon="4.19304">
        <ele>183.4</ele>
        <time>2024-03-19T14:58:01Z</time>
      </trkpt>
      <trkpt lat="50.08619" lon="4.19301">
        <ele>183.4</ele>
        <time>2024-03-19T14:58:02Z</time>
      </trkpt>
      <trkpt lat="50.08613" lon="4.19298">
        <ele>183.4</ele>
        <time>2024-03-19T14:58:03Z</time>
      </trkpt>
      <trkpt lat="50.08606" lon="4.19295">
        <ele>183.4</ele>
        <time>2024-03-19T14:58:04Z</time>
      </trkpt>
      <trkpt lat="50.086" lon="4.19292">
        <ele>183.6</ele>
        <time>2024-03-19T14:58:05Z</time>
      </trkpt>
      <trkpt lat="50.08594" lon="4.19289">
        <ele>184</ele>
        <time>2024-03-19T14:58:06Z</time>
      </trkpt>
      <trkpt lat="50.08588" lon="4.19285">
        <ele>184.4</ele>
        <time>2024-03-19T14:58:07Z</time>
      </trkpt>
      <trkpt lat="50.08582" lon="4.19282">
        <ele>184.8</ele>
        <time>2024-03-19T14:58:08Z</time>
      </trkpt>
      <trkpt lat="50.08576" lon="4.19278">
        <ele>184.8</ele>
        <time>2024-03-19T14:58:09Z</time>
      </trkpt>
      <trkpt lat="50.0857" lon="4.19275">
        <ele>185</ele>
        <time>2024-03-19T14:58:10Z</time>
      </trkpt>
      <trkpt lat="50.08564" lon="4.19271">
        <ele>185</ele>
        <time>2024-03-19T14:58:11Z</time>
      </trkpt>
      <trkpt lat="50.08558" lon="4.19268">
        <ele>185.4</ele>
        <time>2024-03-19T14:58:12Z</time>
      </trkpt>
      <trkpt lat="50.08552" lon="4.19265">
        <ele>185.6</ele>
        <time>2024-03-19T14:58:13Z</time>
      </trkpt>
      <trkpt lat="50.08547" lon="4.19262">
        <ele>185.6</ele>
        <time>2024-03-19T14:58:14Z</time>
      </trkpt>
      <trkpt lat="50.08541" lon="4.19259">
        <ele>186</ele>
        <time>2024-03-19T14:58:15Z</time>
      </trkpt>
      <trkpt lat="50.08535" lon="4.19256">
        <ele>186.4</ele>
        <time>2024-03-19T14:58:16Z</time>
      </trkpt>
      <trkpt lat="50.0853" lon="4.19252">
        <ele>186.8</ele>
        <time>2024-03-19T14:58:17Z</time>
      </trkpt>
      <trkpt lat="50.08524" lon="4.19249">
        <ele>187</ele>
        <time>2024-03-19T14:58:18Z</time>
      </trkpt>
      <trkpt lat="50.08518" lon="4.19245">
        <ele>187.4</ele>
        <time>2024-03-19T14:58:19Z</time>
      </trkpt>
      <trkpt lat="50.08513" lon="4.19242">
        <ele>187.4</ele>
        <time>2024-03-19T14:58:20Z</time>
      </trkpt>
      <trkpt lat="50.08507" lon="4.19238">
        <ele>187.6</ele>
        <time>2024-03-19T14:58:21Z</time>
      </trkpt>
      <trkpt lat="50.08501" lon="4.19235">
        <ele>188.4</ele>
        <time>2024-03-19T14:58:22Z</time>
      </trkpt>
      <trkpt lat="50.08496" lon="4.19232">
        <ele>188.4</ele>
        <time>2024-03-19T14:58:23Z</time>
      </trkpt>
      <trkpt lat="50.0849" lon="4.19229">
        <ele>188.4</ele>
        <time>2024-03-19T14:58:24Z</time>
      </trkpt>
      <trkpt lat="50.08484" lon="4.19226">
        <ele>188.8</ele>
        <time>2024-03-19T14:58:25Z</time>
      </trkpt>
      <trkpt lat="50.08478" lon="4.19223">
        <ele>189.2</ele>
        <time>2024-03-19T14:58:26Z</time>
      </trkpt>
      <trkpt lat="50.08473" lon="4.1922">
        <ele>189.2</ele>
        <time>2024-03-19T14:58:27Z</time>
      </trkpt>
      <trkpt lat="50.08467" lon="4.19218">
        <ele>189.2</ele>
        <time>2024-03-19T14:58:28Z</time>
      </trkpt>
      <trkpt lat="50.08461" lon="4.19216">
        <ele>189.2</ele>
        <time>2024-03-19T14:58:29Z</time>
      </trkpt>
      <trkpt lat="50.08455" lon="4.19213">
        <ele>189.4</ele>
        <time>2024-03-19T14:58:30Z</time>
      </trkpt>
      <trkpt lat="50.08448" lon="4.19211">
        <ele>189.6</ele>
        <time>2024-03-19T14:58:31Z</time>
      </trkpt>
      <trkpt lat="50.08442" lon="4.19209">
        <ele>189.6</ele>
        <time>2024-03-19T14:58:32Z</time>
      </trkpt>
      <trkpt lat="50.08435" lon="4.19207">
        <ele>189.8</ele>
        <time>2024-03-19T14:58:33Z</time>
      </trkpt>
      <trkpt lat="50.08428" lon="4.19206">
        <ele>190</ele>
        <time>2024-03-19T14:58:34Z</time>
      </trkpt>
      <trkpt lat="50.08422" lon="4.19204">
        <ele>190.2</ele>
        <time>2024-03-19T14:58:35Z</time>
      </trkpt>
      <trkpt lat="50.08415" lon="4.19202">
        <ele>190.4</ele>
        <time>2024-03-19T14:58:36Z</time>
      </trkpt>
      <trkpt lat="50.08408" lon="4.19201">
        <ele>190.6</ele>
        <time>2024-03-19T14:58:37Z</time>
      </trkpt>
      <trkpt lat="50.08401" lon="4.19199">
        <ele>190.6</ele>
        <time>2024-03-19T14:58:38Z</time>
      </trkpt>
      <trkpt lat="50.08394" lon="4.19198">
        <ele>190.6</ele>
        <time>2024-03-19T14:58:39Z</time>
      </trkpt>
      <trkpt lat="50.08387" lon="4.19197">
        <ele>190.8</ele>
        <time>2024-03-19T14:58:40Z</time>
      </trkpt>
      <trkpt lat="50.0838" lon="4.19196">
        <ele>190.8</ele>
        <time>2024-03-19T14:58:41Z</time>
      </trkpt>
      <trkpt lat="50.08366" lon="4.19193">
        <ele>190.8</ele>
        <time>2024-03-19T14:58:42Z</time>
      </trkpt>
      <trkpt lat="50.08366" lon="4.19193">
        <ele>190.8</ele>
        <time>2024-03-19T14:58:43Z</time>
      </trkpt>
      <trkpt lat="50.08358" lon="4.19191">
        <ele>190.8</ele>
        <time>2024-03-19T14:58:44Z</time>
      </trkpt>
      <trkpt lat="50.08343" lon="4.19185">
        <ele>190.6</ele>
        <time>2024-03-19T14:58:45Z</time>
      </trkpt>
      <trkpt lat="50.08343" lon="4.19185">
        <ele>190.8</ele>
        <time>2024-03-19T14:58:46Z</time>
      </trkpt>
      <trkpt lat="50.08336" lon="4.19181">
        <ele>190.6</ele>
        <time>2024-03-19T14:58:47Z</time>
      </trkpt>
      <trkpt lat="50.08328" lon="4.19177">
        <ele>190.8</ele>
        <time>2024-03-19T14:58:48Z</time>
      </trkpt>
      <trkpt lat="50.08321" lon="4.19172">
        <ele>190.6</ele>
        <time>2024-03-19T14:58:49Z</time>
      </trkpt>
      <trkpt lat="50.08306" lon="4.19162">
        <ele>190.2</ele>
        <time>2024-03-19T14:58:50Z</time>
      </trkpt>
      <trkpt lat="50.08306" lon="4.19162">
        <ele>190.2</ele>
        <time>2024-03-19T14:58:51Z</time>
      </trkpt>
      <trkpt lat="50.08292" lon="4.1915">
        <ele>190</ele>
        <time>2024-03-19T14:58:52Z</time>
      </trkpt>
      <trkpt lat="50.08292" lon="4.1915">
        <ele>189.8</ele>
        <time>2024-03-19T14:58:53Z</time>
      </trkpt>
      <trkpt lat="50.08285" lon="4.19145">
        <ele>189.6</ele>
        <time>2024-03-19T14:58:54Z</time>
      </trkpt>
      <trkpt lat="50.08278" lon="4.1914">
        <ele>189.6</ele>
        <time>2024-03-19T14:58:55Z</time>
      </trkpt>
      <trkpt lat="50.0827" lon="4.19135">
        <ele>189.4</ele>
        <time>2024-03-19T14:58:56Z</time>
      </trkpt>
      <trkpt lat="50.08263" lon="4.1913">
        <ele>189</ele>
        <time>2024-03-19T14:58:57Z</time>
      </trkpt>
      <trkpt lat="50.08256" lon="4.19125">
        <ele>189</ele>
        <time>2024-03-19T14:58:58Z</time>
      </trkpt>
      <trkpt lat="50.0824" lon="4.19116">
        <ele>189</ele>
        <time>2024-03-19T14:58:59Z</time>
      </trkpt>
      <trkpt lat="50.0824" lon="4.19116">
        <ele>189</ele>
        <time>2024-03-19T14:59:00Z</time>
      </trkpt>
      <trkpt lat="50.08233" lon="4.19112">
        <ele>188.8</ele>
        <time>2024-03-19T14:59:01Z</time>
      </trkpt>
      <trkpt lat="50.08225" lon="4.19108">
        <ele>188.8</ele>
        <time>2024-03-19T14:59:02Z</time>
      </trkpt>
      <trkpt lat="50.08218" lon="4.19104">
        <ele>188.8</ele>
        <time>2024-03-19T14:59:03Z</time>
      </trkpt>
      <trkpt lat="50.0821" lon="4.191">
        <ele>188.6</ele>
        <time>2024-03-19T14:59:04Z</time>
      </trkpt>
      <trkpt lat="50.08195" lon="4.19092">
        <ele>188.6</ele>
        <time>2024-03-19T14:59:05Z</time>
      </trkpt>
      <trkpt lat="50.08187" lon="4.19088">
        <ele>188.6</ele>
        <time>2024-03-19T14:59:06Z</time>
      </trkpt>
      <trkpt lat="50.08187" lon="4.19088">
        <ele>188.4</ele>
        <time>2024-03-19T14:59:07Z</time>
      </trkpt>
      <trkpt lat="50.08179" lon="4.19086">
        <ele>188.4</ele>
        <time>2024-03-19T14:59:08Z</time>
      </trkpt>
      <trkpt lat="50.0817" lon="4.19084">
        <ele>188.2</ele>
        <time>2024-03-19T14:59:09Z</time>
      </trkpt>
      <trkpt lat="50.08162" lon="4.19084">
        <ele>188.2</ele>
        <time>2024-03-19T14:59:10Z</time>
      </trkpt>
      <trkpt lat="50.08153" lon="4.19084">
        <ele>187.8</ele>
        <time>2024-03-19T14:59:11Z</time>
      </trkpt>
      <trkpt lat="50.08145" lon="4.19084">
        <ele>187.8</ele>
        <time>2024-03-19T14:59:12Z</time>
      </trkpt>
      <trkpt lat="50.08137" lon="4.19085">
        <ele>187.8</ele>
        <time>2024-03-19T14:59:13Z</time>
      </trkpt>
      <trkpt lat="50.08129" lon="4.19086">
        <ele>187.6</ele>
        <time>2024-03-19T14:59:14Z</time>
      </trkpt>
      <trkpt lat="50.08121" lon="4.19087">
        <ele>186.6</ele>
        <time>2024-03-19T14:59:15Z</time>
      </trkpt>
      <trkpt lat="50.08113" lon="4.19088">
        <ele>186.2</ele>
        <time>2024-03-19T14:59:16Z</time>
      </trkpt>
      <trkpt lat="50.08105" lon="4.19089">
        <ele>185.8</ele>
        <time>2024-03-19T14:59:17Z</time>
      </trkpt>
      <trkpt lat="50.08097" lon="4.19089">
        <ele>185.6</ele>
        <time>2024-03-19T14:59:18Z</time>
      </trkpt>
      <trkpt lat="50.0809" lon="4.1909">
        <ele>185.6</ele>
        <time>2024-03-19T14:59:19Z</time>
      </trkpt>
      <trkpt lat="50.08082" lon="4.19091">
        <ele>185.6</ele>
        <time>2024-03-19T14:59:20Z</time>
      </trkpt>
      <trkpt lat="50.08075" lon="4.19092">
        <ele>185.4</ele>
        <time>2024-03-19T14:59:21Z</time>
      </trkpt>
      <trkpt lat="50.08068" lon="4.19093">
        <ele>185.4</ele>
        <time>2024-03-19T14:59:22Z</time>
      </trkpt>
      <trkpt lat="50.0806" lon="4.19094">
        <ele>185.6</ele>
        <time>2024-03-19T14:59:23Z</time>
      </trkpt>
      <trkpt lat="50.08053" lon="4.19094">
        <ele>185.6</ele>
        <time>2024-03-19T14:59:24Z</time>
      </trkpt>
      <trkpt lat="50.08046" lon="4.19095">
        <ele>185.4</ele>
        <time>2024-03-19T14:59:25Z</time>
      </trkpt>
      <trkpt lat="50.08039" lon="4.19097">
        <ele>185.4</ele>
        <time>2024-03-19T14:59:26Z</time>
      </trkpt>
      <trkpt lat="50.08032" lon="4.19098">
        <ele>185.4</ele>
        <time>2024-03-19T14:59:27Z</time>
      </trkpt>
      <trkpt lat="50.08026" lon="4.191">
        <ele>185.4</ele>
        <time>2024-03-19T14:59:28Z</time>
      </trkpt>
      <trkpt lat="50.08019" lon="4.19102">
        <ele>185.4</ele>
        <time>2024-03-19T14:59:29Z</time>
      </trkpt>
      <trkpt lat="50.08012" lon="4.19104">
        <ele>185.4</ele>
        <time>2024-03-19T14:59:30Z</time>
      </trkpt>
      <trkpt lat="50.08005" lon="4.19106">
        <ele>185.4</ele>
        <time>2024-03-19T14:59:31Z</time>
      </trkpt>
      <trkpt lat="50.07998" lon="4.19108">
        <ele>185.4</ele>
        <time>2024-03-19T14:59:32Z</time>
      </trkpt>
      <trkpt lat="50.07991" lon="4.19111">
        <ele>185.2</ele>
        <time>2024-03-19T14:59:33Z</time>
      </trkpt>
      <trkpt lat="50.07984" lon="4.19113">
        <ele>185.4</ele>
        <time>2024-03-19T14:59:34Z</time>
      </trkpt>
      <trkpt lat="50.07977" lon="4.19116">
        <ele>185.4</ele>
        <time>2024-03-19T14:59:35Z</time>
      </trkpt>
      <trkpt lat="50.0797" lon="4.19119">
        <ele>185.4</ele>
        <time>2024-03-19T14:59:36Z</time>
      </trkpt>
      <trkpt lat="50.07963" lon="4.19122">
        <ele>185.4</ele>
        <time>2024-03-19T14:59:37Z</time>
      </trkpt>
      <trkpt lat="50.07957" lon="4.19126">
        <ele>185.4</ele>
        <time>2024-03-19T14:59:38Z</time>
      </trkpt>
      <trkpt lat="50.0795" lon="4.1913">
        <ele>185.4</ele>
        <time>2024-03-19T14:59:39Z</time>
      </trkpt>
      <trkpt lat="50.07943" lon="4.19134">
        <ele>185.4</ele>
        <time>2024-03-19T14:59:40Z</time>
      </trkpt>
      <trkpt lat="50.07937" lon="4.19138">
        <ele>185.2</ele>
        <time>2024-03-19T14:59:41Z</time>
      </trkpt>
      <trkpt lat="50.07931" lon="4.19142">
        <ele>185.2</ele>
        <time>2024-03-19T14:59:42Z</time>
      </trkpt>
      <trkpt lat="50.07924" lon="4.19147">
        <ele>185.2</ele>
        <time>2024-03-19T14:59:43Z</time>
      </trkpt>
      <trkpt lat="50.07918" lon="4.19151">
        <ele>185</ele>
        <time>2024-03-19T14:59:44Z</time>
      </trkpt>
      <trkpt lat="50.07912" lon="4.19155">
        <ele>185.2</ele>
        <time>2024-03-19T14:59:45Z</time>
      </trkpt>
      <trkpt lat="50.07906" lon="4.19159">
        <ele>185.2</ele>
        <time>2024-03-19T14:59:46Z</time>
      </trkpt>
      <trkpt lat="50.079" lon="4.19163">
        <ele>185.2</ele>
        <time>2024-03-19T14:59:47Z</time>
      </trkpt>
      <trkpt lat="50.07894" lon="4.19167">
        <ele>185.4</ele>
        <time>2024-03-19T14:59:48Z</time>
      </trkpt>
      <trkpt lat="50.07888" lon="4.19171">
        <ele>185.2</ele>
        <time>2024-03-19T14:59:49Z</time>
      </trkpt>
      <trkpt lat="50.07882" lon="4.19175">
        <ele>185.2</ele>
        <time>2024-03-19T14:59:50Z</time>
      </trkpt>
      <trkpt lat="50.07876" lon="4.19178">
        <ele>185.4</ele>
        <time>2024-03-19T14:59:51Z</time>
      </trkpt>
      <trkpt lat="50.0787" lon="4.19182">
        <ele>185.4</ele>
        <time>2024-03-19T14:59:52Z</time>
      </trkpt>
      <trkpt lat="50.07864" lon="4.19186">
        <ele>186</ele>
        <time>2024-03-19T14:59:53Z</time>
      </trkpt>
      <trkpt lat="50.07858" lon="4.1919">
        <ele>186.6</ele>
        <time>2024-03-19T14:59:54Z</time>
      </trkpt>
      <trkpt lat="50.07851" lon="4.19194">
        <ele>186.6</ele>
        <time>2024-03-19T14:59:55Z</time>
      </trkpt>
      <trkpt lat="50.07845" lon="4.19199">
        <ele>187.2</ele>
        <time>2024-03-19T14:59:56Z</time>
      </trkpt>
      <trkpt lat="50.07839" lon="4.19203">
        <ele>187.6</ele>
        <time>2024-03-19T14:59:57Z</time>
      </trkpt>
      <trkpt lat="50.07833" lon="4.19208">
        <ele>188</ele>
        <time>2024-03-19T14:59:58Z</time>
      </trkpt>
      <trkpt lat="50.07827" lon="4.19213">
        <ele>188.4</ele>
        <time>2024-03-19T14:59:59Z</time>
      </trkpt>
      <trkpt lat="50.0782" lon="4.19218">
        <ele>188.6</ele>
        <time>2024-03-19T15:00:00Z</time>
      </trkpt>
      <trkpt lat="50.07814" lon="4.19223">
        <ele>188.8</ele>
        <time>2024-03-19T15:00:01Z</time>
      </trkpt>
      <trkpt lat="50.07808" lon="4.19228">
        <ele>189</ele>
        <time>2024-03-19T15:00:02Z</time>
      </trkpt>
      <trkpt lat="50.07802" lon="4.19233">
        <ele>189.2</ele>
        <time>2024-03-19T15:00:03Z</time>
      </trkpt>
      <trkpt lat="50.07796" lon="4.19238">
        <ele>189</ele>
        <time>2024-03-19T15:00:04Z</time>
      </trkpt>
      <trkpt lat="50.07789" lon="4.19243">
        <ele>189</ele>
        <time>2024-03-19T15:00:05Z</time>
      </trkpt>
      <trkpt lat="50.07783" lon="4.19248">
        <ele>189.2</ele>
        <time>2024-03-19T15:00:06Z</time>
      </trkpt>
      <trkpt lat="50.07777" lon="4.19253">
        <ele>189.2</ele>
        <time>2024-03-19T15:00:07Z</time>
      </trkpt>
      <trkpt lat="50.07771" lon="4.19257">
        <ele>189.2</ele>
        <time>2024-03-19T15:00:08Z</time>
      </trkpt>
      <trkpt lat="50.07765" lon="4.19262">
        <ele>189.4</ele>
        <time>2024-03-19T15:00:09Z</time>
      </trkpt>
      <trkpt lat="50.07758" lon="4.19267">
        <ele>189.4</ele>
        <time>2024-03-19T15:00:10Z</time>
      </trkpt>
      <trkpt lat="50.07752" lon="4.19271">
        <ele>189.6</ele>
        <time>2024-03-19T15:00:11Z</time>
      </trkpt>
      <trkpt lat="50.07746" lon="4.19276">
        <ele>189.6</ele>
        <time>2024-03-19T15:00:12Z</time>
      </trkpt>
      <trkpt lat="50.07739" lon="4.19279">
        <ele>189.4</ele>
        <time>2024-03-19T15:00:13Z</time>
      </trkpt>
      <trkpt lat="50.07732" lon="4.19283">
        <ele>189.6</ele>
        <time>2024-03-19T15:00:14Z</time>
      </trkpt>
      <trkpt lat="50.07726" lon="4.19287">
        <ele>189.8</ele>
        <time>2024-03-19T15:00:15Z</time>
      </trkpt>
      <trkpt lat="50.07719" lon="4.19291">
        <ele>189.6</ele>
        <time>2024-03-19T15:00:16Z</time>
      </trkpt>
      <trkpt lat="50.07711" lon="4.19295">
        <ele>189.6</ele>
        <time>2024-03-19T15:00:17Z</time>
      </trkpt>
      <trkpt lat="50.07704" lon="4.19299">
        <ele>189.8</ele>
        <time>2024-03-19T15:00:18Z</time>
      </trkpt>
      <trkpt lat="50.07696" lon="4.19304">
        <ele>189.6</ele>
        <time>2024-03-19T15:00:19Z</time>
      </trkpt>
      <trkpt lat="50.07689" lon="4.19309">
        <ele>189.8</ele>
        <time>2024-03-19T15:00:20Z</time>
      </trkpt>
      <trkpt lat="50.07681" lon="4.19314">
        <ele>189.6</ele>
        <time>2024-03-19T15:00:21Z</time>
      </trkpt>
      <trkpt lat="50.07673" lon="4.1932">
        <ele>189.6</ele>
        <time>2024-03-19T15:00:22Z</time>
      </trkpt>
      <trkpt lat="50.07666" lon="4.19327">
        <ele>189.4</ele>
        <time>2024-03-19T15:00:23Z</time>
      </trkpt>
      <trkpt lat="50.07658" lon="4.19334">
        <ele>189.2</ele>
        <time>2024-03-19T15:00:24Z</time>
      </trkpt>
      <trkpt lat="50.0765" lon="4.1934">
        <ele>189.2</ele>
        <time>2024-03-19T15:00:25Z</time>
      </trkpt>
      <trkpt lat="50.07642" lon="4.19347">
        <ele>189.2</ele>
        <time>2024-03-19T15:00:26Z</time>
      </trkpt>
      <trkpt lat="50.07634" lon="4.19354">
        <ele>188.6</ele>
        <time>2024-03-19T15:00:27Z</time>
      </trkpt>
      <trkpt lat="50.07626" lon="4.19361">
        <ele>188</ele>
        <time>2024-03-19T15:00:28Z</time>
      </trkpt>
      <trkpt lat="50.07617" lon="4.19367">
        <ele>188</ele>
        <time>2024-03-19T15:00:29Z</time>
      </trkpt>
      <trkpt lat="50.07609" lon="4.19374">
        <ele>187.4</ele>
        <time>2024-03-19T15:00:30Z</time>
      </trkpt>
      <trkpt lat="50.076" lon="4.19382">
        <ele>186.8</ele>
        <time>2024-03-19T15:00:31Z</time>
      </trkpt>
      <trkpt lat="50.07593" lon="4.19391">
        <ele>186.2</ele>
        <time>2024-03-19T15:00:32Z</time>
      </trkpt>
      <trkpt lat="50.07586" lon="4.194">
        <ele>186</ele>
        <time>2024-03-19T15:00:33Z</time>
      </trkpt>
      <trkpt lat="50.0758" lon="4.19411">
        <ele>185.4</ele>
        <time>2024-03-19T15:00:34Z</time>
      </trkpt>
      <trkpt lat="50.07575" lon="4.19421">
        <ele>185.2</ele>
        <time>2024-03-19T15:00:35Z</time>
      </trkpt>
      <trkpt lat="50.07569" lon="4.19432">
        <ele>184.6</ele>
        <time>2024-03-19T15:00:36Z</time>
      </trkpt>
      <trkpt lat="50.07565" lon="4.19444">
        <ele>184.2</ele>
        <time>2024-03-19T15:00:37Z</time>
      </trkpt>
      <trkpt lat="50.0756" lon="4.19455">
        <ele>184.2</ele>
        <time>2024-03-19T15:00:38Z</time>
      </trkpt>
      <trkpt lat="50.07556" lon="4.19466">
        <ele>183.8</ele>
        <time>2024-03-19T15:00:39Z</time>
      </trkpt>
      <trkpt lat="50.07552" lon="4.19477">
        <ele>183.6</ele>
        <time>2024-03-19T15:00:40Z</time>
      </trkpt>
      <trkpt lat="50.07548" lon="4.19488">
        <ele>183.4</ele>
        <time>2024-03-19T15:00:41Z</time>
      </trkpt>
      <trkpt lat="50.07545" lon="4.19499">
        <ele>183.4</ele>
        <time>2024-03-19T15:00:42Z</time>
      </trkpt>
      <trkpt lat="50.0754" lon="4.1951">
        <ele>183.2</ele>
        <time>2024-03-19T15:00:43Z</time>
      </trkpt>
      <trkpt lat="50.07536" lon="4.1952">
        <ele>183</ele>
        <time>2024-03-19T15:00:44Z</time>
      </trkpt>
      <trkpt lat="50.07532" lon="4.1953">
        <ele>183</ele>
        <time>2024-03-19T15:00:45Z</time>
      </trkpt>
      <trkpt lat="50.07527" lon="4.1954">
        <ele>183.2</ele>
        <time>2024-03-19T15:00:46Z</time>
      </trkpt>
      <trkpt lat="50.07521" lon="4.19548">
        <ele>183.2</ele>
        <time>2024-03-19T15:00:47Z</time>
      </trkpt>
      <trkpt lat="50.07515" lon="4.19555">
        <ele>183</ele>
        <time>2024-03-19T15:00:48Z</time>
      </trkpt>
      <trkpt lat="50.07508" lon="4.1956">
        <ele>183.2</ele>
        <time>2024-03-19T15:00:49Z</time>
      </trkpt>
      <trkpt lat="50.07501" lon="4.19564">
        <ele>183</ele>
        <time>2024-03-19T15:00:50Z</time>
      </trkpt>
      <trkpt lat="50.07487" lon="4.19566">
        <ele>183</ele>
        <time>2024-03-19T15:00:51Z</time>
      </trkpt>
      <trkpt lat="50.07487" lon="4.19566">
        <ele>183.2</ele>
        <time>2024-03-19T15:00:52Z</time>
      </trkpt>
      <trkpt lat="50.0748" lon="4.19567">
        <ele>183.2</ele>
        <time>2024-03-19T15:00:53Z</time>
      </trkpt>
      <trkpt lat="50.07473" lon="4.19566">
        <ele>183.2</ele>
        <time>2024-03-19T15:00:54Z</time>
      </trkpt>
      <trkpt lat="50.07466" lon="4.19566">
        <ele>183.2</ele>
        <time>2024-03-19T15:00:55Z</time>
      </trkpt>
      <trkpt lat="50.07459" lon="4.19565">
        <ele>183.2</ele>
        <time>2024-03-19T15:00:56Z</time>
      </trkpt>
      <trkpt lat="50.07453" lon="4.19564">
        <ele>183.2</ele>
        <time>2024-03-19T15:00:57Z</time>
      </trkpt>
      <trkpt lat="50.07446" lon="4.19563">
        <ele>183.6</ele>
        <time>2024-03-19T15:00:58Z</time>
      </trkpt>
      <trkpt lat="50.07439" lon="4.19562">
        <ele>183.6</ele>
        <time>2024-03-19T15:00:59Z</time>
      </trkpt>
      <trkpt lat="50.07432" lon="4.19561">
        <ele>183.6</ele>
        <time>2024-03-19T15:01:00Z</time>
      </trkpt>
      <trkpt lat="50.07426" lon="4.1956">
        <ele>183.8</ele>
        <time>2024-03-19T15:01:01Z</time>
      </trkpt>
      <trkpt lat="50.07419" lon="4.19559">
        <ele>183.8</ele>
        <time>2024-03-19T15:01:02Z</time>
      </trkpt>
      <trkpt lat="50.07413" lon="4.19558">
        <ele>183.8</ele>
        <time>2024-03-19T15:01:03Z</time>
      </trkpt>
      <trkpt lat="50.07406" lon="4.19558">
        <ele>183.8</ele>
        <time>2024-03-19T15:01:04Z</time>
      </trkpt>
      <trkpt lat="50.074" lon="4.19558">
        <ele>183.8</ele>
        <time>2024-03-19T15:01:05Z</time>
      </trkpt>
      <trkpt lat="50.07393" lon="4.19557">
        <ele>183.8</ele>
        <time>2024-03-19T15:01:06Z</time>
      </trkpt>
      <trkpt lat="50.07386" lon="4.19557">
        <ele>184.4</ele>
        <time>2024-03-19T15:01:07Z</time>
      </trkpt>
      <trkpt lat="50.0738" lon="4.19558">
        <ele>184.6</ele>
        <time>2024-03-19T15:01:08Z</time>
      </trkpt>
      <trkpt lat="50.07373" lon="4.19558">
        <ele>185</ele>
        <time>2024-03-19T15:01:09Z</time>
      </trkpt>
      <trkpt lat="50.07366" lon="4.19559">
        <ele>185.4</ele>
        <time>2024-03-19T15:01:10Z</time>
      </trkpt>
      <trkpt lat="50.0736" lon="4.19559">
        <ele>185.6</ele>
        <time>2024-03-19T15:01:11Z</time>
      </trkpt>
      <trkpt lat="50.07353" lon="4.1956">
        <ele>185.8</ele>
        <time>2024-03-19T15:01:12Z</time>
      </trkpt>
      <trkpt lat="50.07346" lon="4.1956">
        <ele>186</ele>
        <time>2024-03-19T15:01:13Z</time>
      </trkpt>
      <trkpt lat="50.07339" lon="4.19561">
        <ele>186.2</ele>
        <time>2024-03-19T15:01:14Z</time>
      </trkpt>
      <trkpt lat="50.07332" lon="4.19561">
        <ele>186.2</ele>
        <time>2024-03-19T15:01:15Z</time>
      </trkpt>
      <trkpt lat="50.07326" lon="4.19561">
        <ele>186.2</ele>
        <time>2024-03-19T15:01:16Z</time>
      </trkpt>
      <trkpt lat="50.07319" lon="4.19561">
        <ele>186.4</ele>
        <time>2024-03-19T15:01:17Z</time>
      </trkpt>
      <trkpt lat="50.07312" lon="4.19562">
        <ele>186.4</ele>
        <time>2024-03-19T15:01:18Z</time>
      </trkpt>
      <trkpt lat="50.07305" lon="4.19562">
        <ele>186.6</ele>
        <time>2024-03-19T15:01:19Z</time>
      </trkpt>
      <trkpt lat="50.07298" lon="4.19562">
        <ele>186.8</ele>
        <time>2024-03-19T15:01:20Z</time>
      </trkpt>
      <trkpt lat="50.07291" lon="4.19563">
        <ele>187.2</ele>
        <time>2024-03-19T15:01:21Z</time>
      </trkpt>
      <trkpt lat="50.07285" lon="4.19564">
        <ele>187.2</ele>
        <time>2024-03-19T15:01:22Z</time>
      </trkpt>
      <trkpt lat="50.07278" lon="4.19564">
        <ele>187.2</ele>
        <time>2024-03-19T15:01:23Z</time>
      </trkpt>
      <trkpt lat="50.07271" lon="4.19565">
        <ele>187.2</ele>
        <time>2024-03-19T15:01:24Z</time>
      </trkpt>
      <trkpt lat="50.07264" lon="4.19565">
        <ele>187.4</ele>
        <time>2024-03-19T15:01:25Z</time>
      </trkpt>
      <trkpt lat="50.07257" lon="4.19566">
        <ele>187.6</ele>
        <time>2024-03-19T15:01:26Z</time>
      </trkpt>
      <trkpt lat="50.0725" lon="4.19566">
        <ele>187.6</ele>
        <time>2024-03-19T15:01:27Z</time>
      </trkpt>
      <trkpt lat="50.07243" lon="4.19567">
        <ele>187.8</ele>
        <time>2024-03-19T15:01:28Z</time>
      </trkpt>
      <trkpt lat="50.07237" lon="4.19568">
        <ele>187.8</ele>
        <time>2024-03-19T15:01:29Z</time>
      </trkpt>
      <trkpt lat="50.0723" lon="4.19568">
        <ele>188</ele>
        <time>2024-03-19T15:01:30Z</time>
      </trkpt>
      <trkpt lat="50.07223" lon="4.19569">
        <ele>188.2</ele>
        <time>2024-03-19T15:01:31Z</time>
      </trkpt>
      <trkpt lat="50.07216" lon="4.1957">
        <ele>188</ele>
        <time>2024-03-19T15:01:32Z</time>
      </trkpt>
      <trkpt lat="50.07209" lon="4.1957">
        <ele>188</ele>
        <time>2024-03-19T15:01:33Z</time>
      </trkpt>
      <trkpt lat="50.07202" lon="4.19571">
        <ele>188</ele>
        <time>2024-03-19T15:01:34Z</time>
      </trkpt>
      <trkpt lat="50.07195" lon="4.19571">
        <ele>188.2</ele>
        <time>2024-03-19T15:01:35Z</time>
      </trkpt>
      <trkpt lat="50.07188" lon="4.19572">
        <ele>188.2</ele>
        <time>2024-03-19T15:01:36Z</time>
      </trkpt>
      <trkpt lat="50.07181" lon="4.19573">
        <ele>188</ele>
        <time>2024-03-19T15:01:37Z</time>
      </trkpt>
      <trkpt lat="50.07175" lon="4.19574">
        <ele>188.2</ele>
        <time>2024-03-19T15:01:38Z</time>
      </trkpt>
      <trkpt lat="50.07168" lon="4.19574">
        <ele>188.2</ele>
        <time>2024-03-19T15:01:39Z</time>
      </trkpt>
      <trkpt lat="50.07161" lon="4.19575">
        <ele>188.4</ele>
        <time>2024-03-19T15:01:40Z</time>
      </trkpt>
      <trkpt lat="50.07154" lon="4.19576">
        <ele>188.4</ele>
        <time>2024-03-19T15:01:41Z</time>
      </trkpt>
      <trkpt lat="50.07147" lon="4.19577">
        <ele>188.6</ele>
        <time>2024-03-19T15:01:42Z</time>
      </trkpt>
      <trkpt lat="50.0714" lon="4.19578">
        <ele>188.6</ele>
        <time>2024-03-19T15:01:43Z</time>
      </trkpt>
      <trkpt lat="50.07134" lon="4.19579">
        <ele>188.6</ele>
        <time>2024-03-19T15:01:44Z</time>
      </trkpt>
      <trkpt lat="50.07127" lon="4.1958">
        <ele>188.6</ele>
        <time>2024-03-19T15:01:45Z</time>
      </trkpt>
      <trkpt lat="50.0712" lon="4.1958">
        <ele>188.4</ele>
        <time>2024-03-19T15:01:46Z</time>
      </trkpt>
      <trkpt lat="50.07114" lon="4.19581">
        <ele>188.6</ele>
        <time>2024-03-19T15:01:47Z</time>
      </trkpt>
      <trkpt lat="50.07107" lon="4.19582">
        <ele>188.8</ele>
        <time>2024-03-19T15:01:48Z</time>
      </trkpt>
      <trkpt lat="50.071" lon="4.19584">
        <ele>189.4</ele>
        <time>2024-03-19T15:01:49Z</time>
      </trkpt>
      <trkpt lat="50.07093" lon="4.19585">
        <ele>189.8</ele>
        <time>2024-03-19T15:01:50Z</time>
      </trkpt>
      <trkpt lat="50.07086" lon="4.19586">
        <ele>190</ele>
        <time>2024-03-19T15:01:51Z</time>
      </trkpt>
      <trkpt lat="50.0708" lon="4.19587">
        <ele>190</ele>
        <time>2024-03-19T15:01:52Z</time>
      </trkpt>
      <trkpt lat="50.07073" lon="4.19588">
        <ele>190.2</ele>
        <time>2024-03-19T15:01:53Z</time>
      </trkpt>
      <trkpt lat="50.07066" lon="4.19589">
        <ele>190.4</ele>
        <time>2024-03-19T15:01:54Z</time>
      </trkpt>
      <trkpt lat="50.07059" lon="4.1959">
        <ele>190.6</ele>
        <time>2024-03-19T15:01:55Z</time>
      </trkpt>
      <trkpt lat="50.07053" lon="4.19592">
        <ele>190.6</ele>
        <time>2024-03-19T15:01:56Z</time>
      </trkpt>
      <trkpt lat="50.07046" lon="4.19593">
        <ele>190.8</ele>
        <time>2024-03-19T15:01:57Z</time>
      </trkpt>
      <trkpt lat="50.07039" lon="4.19593">
        <ele>191</ele>
        <time>2024-03-19T15:01:58Z</time>
      </trkpt>
      <trkpt lat="50.07032" lon="4.19595">
        <ele>191</ele>
        <time>2024-03-19T15:01:59Z</time>
      </trkpt>
      <trkpt lat="50.07025" lon="4.19596">
        <ele>191</ele>
        <time>2024-03-19T15:02:00Z</time>
      </trkpt>
      <trkpt lat="50.07018" lon="4.19597">
        <ele>191.2</ele>
        <time>2024-03-19T15:02:01Z</time>
      </trkpt>
      <trkpt lat="50.07011" lon="4.19598">
        <ele>191.4</ele>
        <time>2024-03-19T15:02:02Z</time>
      </trkpt>
      <trkpt lat="50.07004" lon="4.19599">
        <ele>191.4</ele>
        <time>2024-03-19T15:02:03Z</time>
      </trkpt>
      <trkpt lat="50.06997" lon="4.19601">
        <ele>191.4</ele>
        <time>2024-03-19T15:02:04Z</time>
      </trkpt>
      <trkpt lat="50.0699" lon="4.19602">
        <ele>191.4</ele>
        <time>2024-03-19T15:02:05Z</time>
      </trkpt>
      <trkpt lat="50.06983" lon="4.19603">
        <ele>191.6</ele>
        <time>2024-03-19T15:02:06Z</time>
      </trkpt>
      <trkpt lat="50.06976" lon="4.19604">
        <ele>191.6</ele>
        <time>2024-03-19T15:02:07Z</time>
      </trkpt>
      <trkpt lat="50.06968" lon="4.19605">
        <ele>191.6</ele>
        <time>2024-03-19T15:02:08Z</time>
      </trkpt>
      <trkpt lat="50.06961" lon="4.19606">
        <ele>191.6</ele>
        <time>2024-03-19T15:02:09Z</time>
      </trkpt>
      <trkpt lat="50.06954" lon="4.19607">
        <ele>191.8</ele>
        <time>2024-03-19T15:02:10Z</time>
      </trkpt>
      <trkpt lat="50.06947" lon="4.19607">
        <ele>191.8</ele>
        <time>2024-03-19T15:02:11Z</time>
      </trkpt>
      <trkpt lat="50.0694" lon="4.19607">
        <ele>191.8</ele>
        <time>2024-03-19T15:02:12Z</time>
      </trkpt>
      <trkpt lat="50.06933" lon="4.19607">
        <ele>191.8</ele>
        <time>2024-03-19T15:02:13Z</time>
      </trkpt>
      <trkpt lat="50.06926" lon="4.19607">
        <ele>191.8</ele>
        <time>2024-03-19T15:02:14Z</time>
      </trkpt>
      <trkpt lat="50.06919" lon="4.19607">
        <ele>191.8</ele>
        <time>2024-03-19T15:02:15Z</time>
      </trkpt>
      <trkpt lat="50.06912" lon="4.19607">
        <ele>192</ele>
        <time>2024-03-19T15:02:16Z</time>
      </trkpt>
      <trkpt lat="50.06905" lon="4.19606">
        <ele>191.8</ele>
        <time>2024-03-19T15:02:17Z</time>
      </trkpt>
      <trkpt lat="50.06898" lon="4.19604">
        <ele>192</ele>
        <time>2024-03-19T15:02:18Z</time>
      </trkpt>
      <trkpt lat="50.06892" lon="4.19603">
        <ele>192</ele>
        <time>2024-03-19T15:02:19Z</time>
      </trkpt>
      <trkpt lat="50.06885" lon="4.19601">
        <ele>192</ele>
        <time>2024-03-19T15:02:20Z</time>
      </trkpt>
      <trkpt lat="50.06878" lon="4.196">
        <ele>192.2</ele>
        <time>2024-03-19T15:02:21Z</time>
      </trkpt>
      <trkpt lat="50.06872" lon="4.19598">
        <ele>192.2</ele>
        <time>2024-03-19T15:02:22Z</time>
      </trkpt>
      <trkpt lat="50.06865" lon="4.19595">
        <ele>192.4</ele>
        <time>2024-03-19T15:02:23Z</time>
      </trkpt>
      <trkpt lat="50.06859" lon="4.19593">
        <ele>192.4</ele>
        <time>2024-03-19T15:02:24Z</time>
      </trkpt>
      <trkpt lat="50.06852" lon="4.19591">
        <ele>192.4</ele>
        <time>2024-03-19T15:02:25Z</time>
      </trkpt>
      <trkpt lat="50.06846" lon="4.19589">
        <ele>192.4</ele>
        <time>2024-03-19T15:02:26Z</time>
      </trkpt>
      <trkpt lat="50.0684" lon="4.19587">
        <ele>192.4</ele>
        <time>2024-03-19T15:02:27Z</time>
      </trkpt>
      <trkpt lat="50.06833" lon="4.19584">
        <ele>192.6</ele>
        <time>2024-03-19T15:02:28Z</time>
      </trkpt>
      <trkpt lat="50.06827" lon="4.19581">
        <ele>192.6</ele>
        <time>2024-03-19T15:02:29Z</time>
      </trkpt>
      <trkpt lat="50.0682" lon="4.19579">
        <ele>192.6</ele>
        <time>2024-03-19T15:02:30Z</time>
      </trkpt>
      <trkpt lat="50.06814" lon="4.19576">
        <ele>193</ele>
        <time>2024-03-19T15:02:31Z</time>
      </trkpt>
      <trkpt lat="50.06807" lon="4.19574">
        <ele>193.2</ele>
        <time>2024-03-19T15:02:32Z</time>
      </trkpt>
      <trkpt lat="50.068" lon="4.19571">
        <ele>193.2</ele>
        <time>2024-03-19T15:02:33Z</time>
      </trkpt>
      <trkpt lat="50.06794" lon="4.19569">
        <ele>193.4</ele>
        <time>2024-03-19T15:02:34Z</time>
      </trkpt>
      <trkpt lat="50.06787" lon="4.19566">
        <ele>193.4</ele>
        <time>2024-03-19T15:02:35Z</time>
      </trkpt>
      <trkpt lat="50.0678" lon="4.19564">
        <ele>193.4</ele>
        <time>2024-03-19T15:02:36Z</time>
      </trkpt>
      <trkpt lat="50.06773" lon="4.19561">
        <ele>193.4</ele>
        <time>2024-03-19T15:02:37Z</time>
      </trkpt>
      <trkpt lat="50.06766" lon="4.19559">
        <ele>193.6</ele>
        <time>2024-03-19T15:02:38Z</time>
      </trkpt>
      <trkpt lat="50.06759" lon="4.19557">
        <ele>193.6</ele>
        <time>2024-03-19T15:02:39Z</time>
      </trkpt>
      <trkpt lat="50.06751" lon="4.19555">
        <ele>193.6</ele>
        <time>2024-03-19T15:02:40Z</time>
      </trkpt>
      <trkpt lat="50.06744" lon="4.19552">
        <ele>193.6</ele>
        <time>2024-03-19T15:02:41Z</time>
      </trkpt>
      <trkpt lat="50.06736" lon="4.1955">
        <ele>193.6</ele>
        <time>2024-03-19T15:02:42Z</time>
      </trkpt>
      <trkpt lat="50.06729" lon="4.19548">
        <ele>193.6</ele>
        <time>2024-03-19T15:02:43Z</time>
      </trkpt>
      <trkpt lat="50.06721" lon="4.19547">
        <ele>193.6</ele>
        <time>2024-03-19T15:02:44Z</time>
      </trkpt>
      <trkpt lat="50.06713" lon="4.19546">
        <ele>193.6</ele>
        <time>2024-03-19T15:02:45Z</time>
      </trkpt>
      <trkpt lat="50.06706" lon="4.19545">
        <ele>193.4</ele>
        <time>2024-03-19T15:02:46Z</time>
      </trkpt>
      <trkpt lat="50.06698" lon="4.19544">
        <ele>193.2</ele>
        <time>2024-03-19T15:02:47Z</time>
      </trkpt>
      <trkpt lat="50.06691" lon="4.19544">
        <ele>193</ele>
        <time>2024-03-19T15:02:48Z</time>
      </trkpt>
      <trkpt lat="50.06683" lon="4.19544">
        <ele>192.6</ele>
        <time>2024-03-19T15:02:49Z</time>
      </trkpt>
      <trkpt lat="50.06676" lon="4.19544">
        <ele>192.4</ele>
        <time>2024-03-19T15:02:50Z</time>
      </trkpt>
      <trkpt lat="50.06668" lon="4.19544">
        <ele>192.2</ele>
        <time>2024-03-19T15:02:51Z</time>
      </trkpt>
      <trkpt lat="50.06661" lon="4.19545">
        <ele>192</ele>
        <time>2024-03-19T15:02:52Z</time>
      </trkpt>
      <trkpt lat="50.06654" lon="4.19545">
        <ele>191.8</ele>
        <time>2024-03-19T15:02:53Z</time>
      </trkpt>
      <trkpt lat="50.06646" lon="4.19546">
        <ele>192</ele>
        <time>2024-03-19T15:02:54Z</time>
      </trkpt>
      <trkpt lat="50.06639" lon="4.19546">
        <ele>192</ele>
        <time>2024-03-19T15:02:55Z</time>
      </trkpt>
      <trkpt lat="50.06631" lon="4.19546">
        <ele>191.8</ele>
        <time>2024-03-19T15:02:56Z</time>
      </trkpt>
      <trkpt lat="50.06624" lon="4.19547">
        <ele>191.8</ele>
        <time>2024-03-19T15:02:57Z</time>
      </trkpt>
      <trkpt lat="50.06617" lon="4.19547">
        <ele>191.6</ele>
        <time>2024-03-19T15:02:58Z</time>
      </trkpt>
      <trkpt lat="50.0661" lon="4.19547">
        <ele>191.8</ele>
        <time>2024-03-19T15:02:59Z</time>
      </trkpt>
      <trkpt lat="50.06603" lon="4.19547">
        <ele>191.8</ele>
        <time>2024-03-19T15:03:00Z</time>
      </trkpt>
      <trkpt lat="50.06596" lon="4.19548">
        <ele>192</ele>
        <time>2024-03-19T15:03:01Z</time>
      </trkpt>
      <trkpt lat="50.06589" lon="4.19548">
        <ele>191.6</ele>
        <time>2024-03-19T15:03:02Z</time>
      </trkpt>
      <trkpt lat="50.06582" lon="4.19548">
        <ele>191.6</ele>
        <time>2024-03-19T15:03:03Z</time>
      </trkpt>
      <trkpt lat="50.06574" lon="4.19549">
        <ele>191.6</ele>
        <time>2024-03-19T15:03:04Z</time>
      </trkpt>
      <trkpt lat="50.06567" lon="4.19549">
        <ele>191.6</ele>
        <time>2024-03-19T15:03:05Z</time>
      </trkpt>
      <trkpt lat="50.06553" lon="4.1955">
        <ele>191.6</ele>
        <time>2024-03-19T15:03:06Z</time>
      </trkpt>
      <trkpt lat="50.06553" lon="4.1955">
        <ele>191.6</ele>
        <time>2024-03-19T15:03:07Z</time>
      </trkpt>
      <trkpt lat="50.06547" lon="4.19551">
        <ele>191.6</ele>
        <time>2024-03-19T15:03:08Z</time>
      </trkpt>
      <trkpt lat="50.0654" lon="4.19551">
        <ele>191.6</ele>
        <time>2024-03-19T15:03:09Z</time>
      </trkpt>
      <trkpt lat="50.06533" lon="4.19552">
        <ele>191.8</ele>
        <time>2024-03-19T15:03:10Z</time>
      </trkpt>
      <trkpt lat="50.06527" lon="4.19551">
        <ele>191.8</ele>
        <time>2024-03-19T15:03:11Z</time>
      </trkpt>
      <trkpt lat="50.06521" lon="4.19551">
        <ele>191.8</ele>
        <time>2024-03-19T15:03:12Z</time>
      </trkpt>
      <trkpt lat="50.06515" lon="4.1955">
        <ele>192</ele>
        <time>2024-03-19T15:03:13Z</time>
      </trkpt>
      <trkpt lat="50.06509" lon="4.1955">
        <ele>192</ele>
        <time>2024-03-19T15:03:14Z</time>
      </trkpt>
      <trkpt lat="50.06504" lon="4.19551">
        <ele>192</ele>
        <time>2024-03-19T15:03:15Z</time>
      </trkpt>
      <trkpt lat="50.06498" lon="4.19554">
        <ele>192.2</ele>
        <time>2024-03-19T15:03:16Z</time>
      </trkpt>
      <trkpt lat="50.06492" lon="4.19558">
        <ele>192.2</ele>
        <time>2024-03-19T15:03:17Z</time>
      </trkpt>
      <trkpt lat="50.06487" lon="4.19564">
        <ele>192.4</ele>
        <time>2024-03-19T15:03:18Z</time>
      </trkpt>
      <trkpt lat="50.06482" lon="4.19571">
        <ele>192.4</ele>
        <time>2024-03-19T15:03:19Z</time>
      </trkpt>
      <trkpt lat="50.06477" lon="4.19578">
        <ele>192.6</ele>
        <time>2024-03-19T15:03:20Z</time>
      </trkpt>
      <trkpt lat="50.06472" lon="4.19586">
        <ele>192.6</ele>
        <time>2024-03-19T15:03:21Z</time>
      </trkpt>
      <trkpt lat="50.06467" lon="4.19594">
        <ele>192.8</ele>
        <time>2024-03-19T15:03:22Z</time>
      </trkpt>
      <trkpt lat="50.06463" lon="4.19603">
        <ele>192.6</ele>
        <time>2024-03-19T15:03:23Z</time>
      </trkpt>
      <trkpt lat="50.06458" lon="4.19613">
        <ele>192.8</ele>
        <time>2024-03-19T15:03:24Z</time>
      </trkpt>
      <trkpt lat="50.06455" lon="4.19624">
        <ele>192.8</ele>
        <time>2024-03-19T15:03:25Z</time>
      </trkpt>
      <trkpt lat="50.06451" lon="4.19635">
        <ele>192.8</ele>
        <time>2024-03-19T15:03:26Z</time>
      </trkpt>
      <trkpt lat="50.06449" lon="4.19647">
        <ele>192.6</ele>
        <time>2024-03-19T15:03:27Z</time>
      </trkpt>
      <trkpt lat="50.06446" lon="4.19673">
        <ele>192.4</ele>
        <time>2024-03-19T15:03:28Z</time>
      </trkpt>
      <trkpt lat="50.06445" lon="4.19687">
        <ele>192.4</ele>
        <time>2024-03-19T15:03:29Z</time>
      </trkpt>
      <trkpt lat="50.06445" lon="4.19687">
        <ele>192.4</ele>
        <time>2024-03-19T15:03:30Z</time>
      </trkpt>
      <trkpt lat="50.06444" lon="4.197">
        <ele>192.4</ele>
        <time>2024-03-19T15:03:31Z</time>
      </trkpt>
      <trkpt lat="50.06442" lon="4.19713">
        <ele>192.4</ele>
        <time>2024-03-19T15:03:32Z</time>
      </trkpt>
      <trkpt lat="50.06439" lon="4.1974">
        <ele>192.4</ele>
        <time>2024-03-19T15:03:33Z</time>
      </trkpt>
      <trkpt lat="50.06437" lon="4.19753">
        <ele>191.6</ele>
        <time>2024-03-19T15:03:34Z</time>
      </trkpt>
      <trkpt lat="50.06435" lon="4.19766">
        <ele>190.8</ele>
        <time>2024-03-19T15:03:35Z</time>
      </trkpt>
      <trkpt lat="50.06432" lon="4.19779">
        <ele>190.2</ele>
        <time>2024-03-19T15:03:36Z</time>
      </trkpt>
      <trkpt lat="50.0643" lon="4.19791">
        <ele>189.8</ele>
        <time>2024-03-19T15:03:37Z</time>
      </trkpt>
      <trkpt lat="50.0643" lon="4.19791">
        <ele>189.2</ele>
        <time>2024-03-19T15:03:38Z</time>
      </trkpt>
      <trkpt lat="50.06425" lon="4.19816">
        <ele>189</ele>
        <time>2024-03-19T15:03:39Z</time>
      </trkpt>
      <trkpt lat="50.06423" lon="4.19828">
        <ele>188.8</ele>
        <time>2024-03-19T15:03:40Z</time>
      </trkpt>
      <trkpt lat="50.0642" lon="4.1984">
        <ele>188.8</ele>
        <time>2024-03-19T15:03:41Z</time>
      </trkpt>
      <trkpt lat="50.0642" lon="4.1984">
        <ele>188.8</ele>
        <time>2024-03-19T15:03:42Z</time>
      </trkpt>
      <trkpt lat="50.06418" lon="4.19851">
        <ele>188.8</ele>
        <time>2024-03-19T15:03:43Z</time>
      </trkpt>
      <trkpt lat="50.06416" lon="4.19863">
        <ele>188.6</ele>
        <time>2024-03-19T15:03:44Z</time>
      </trkpt>
      <trkpt lat="50.06413" lon="4.19874">
        <ele>188.6</ele>
        <time>2024-03-19T15:03:45Z</time>
      </trkpt>
      <trkpt lat="50.06408" lon="4.19884">
        <ele>188.6</ele>
        <time>2024-03-19T15:03:46Z</time>
      </trkpt>
      <trkpt lat="50.06402" lon="4.19892">
        <ele>188.6</ele>
        <time>2024-03-19T15:03:47Z</time>
      </trkpt>
      <trkpt lat="50.06395" lon="4.19898">
        <ele>188.4</ele>
        <time>2024-03-19T15:03:48Z</time>
      </trkpt>
      <trkpt lat="50.06388" lon="4.19902">
        <ele>188.4</ele>
        <time>2024-03-19T15:03:49Z</time>
      </trkpt>
      <trkpt lat="50.06381" lon="4.19906">
        <ele>188.4</ele>
        <time>2024-03-19T15:03:50Z</time>
      </trkpt>
      <trkpt lat="50.06374" lon="4.1991">
        <ele>188.4</ele>
        <time>2024-03-19T15:03:51Z</time>
      </trkpt>
      <trkpt lat="50.06367" lon="4.19913">
        <ele>188.4</ele>
        <time>2024-03-19T15:03:52Z</time>
      </trkpt>
      <trkpt lat="50.0636" lon="4.19917">
        <ele>188.6</ele>
        <time>2024-03-19T15:03:53Z</time>
      </trkpt>
      <trkpt lat="50.06353" lon="4.1992">
        <ele>188.6</ele>
        <time>2024-03-19T15:03:54Z</time>
      </trkpt>
      <trkpt lat="50.06347" lon="4.19924">
        <ele>188.6</ele>
        <time>2024-03-19T15:03:55Z</time>
      </trkpt>
      <trkpt lat="50.06341" lon="4.19928">
        <ele>188.8</ele>
        <time>2024-03-19T15:03:56Z</time>
      </trkpt>
      <trkpt lat="50.06335" lon="4.19933">
        <ele>188.6</ele>
        <time>2024-03-19T15:03:57Z</time>
      </trkpt>
      <trkpt lat="50.0633" lon="4.19938">
        <ele>188.8</ele>
        <time>2024-03-19T15:03:58Z</time>
      </trkpt>
      <trkpt lat="50.06326" lon="4.19943">
        <ele>188.8</ele>
        <time>2024-03-19T15:03:59Z</time>
      </trkpt>
      <trkpt lat="50.06322" lon="4.19949">
        <ele>188.6</ele>
        <time>2024-03-19T15:04:00Z</time>
      </trkpt>
      <trkpt lat="50.06318" lon="4.19956">
        <ele>188.8</ele>
        <time>2024-03-19T15:04:01Z</time>
      </trkpt>
      <trkpt lat="50.06316" lon="4.19964">
        <ele>188.8</ele>
        <time>2024-03-19T15:04:02Z</time>
      </trkpt>
      <trkpt lat="50.06315" lon="4.19972">
        <ele>189</ele>
        <time>2024-03-19T15:04:03Z</time>
      </trkpt>
      <trkpt lat="50.06314" lon="4.1998">
        <ele>189.2</ele>
        <time>2024-03-19T15:04:04Z</time>
      </trkpt>
      <trkpt lat="50.06314" lon="4.19988">
        <ele>189.4</ele>
        <time>2024-03-19T15:04:05Z</time>
      </trkpt>
      <trkpt lat="50.06314" lon="4.20004">
        <ele>190</ele>
        <time>2024-03-19T15:04:06Z</time>
      </trkpt>
      <trkpt lat="50.06314" lon="4.20004">
        <ele>190.8</ele>
        <time>2024-03-19T15:04:07Z</time>
      </trkpt>
      <trkpt lat="50.06314" lon="4.20013">
        <ele>190.8</ele>
        <time>2024-03-19T15:04:08Z</time>
      </trkpt>
      <trkpt lat="50.06314" lon="4.20031">
        <ele>191.6</ele>
        <time>2024-03-19T15:04:09Z</time>
      </trkpt>
      <trkpt lat="50.06314" lon="4.20031">
        <ele>192.2</ele>
        <time>2024-03-19T15:04:10Z</time>
      </trkpt>
      <trkpt lat="50.06314" lon="4.20041">
        <ele>192.6</ele>
        <time>2024-03-19T15:04:11Z</time>
      </trkpt>
      <trkpt lat="50.06312" lon="4.2005">
        <ele>193</ele>
        <time>2024-03-19T15:04:12Z</time>
      </trkpt>
      <trkpt lat="50.0631" lon="4.20059">
        <ele>193.4</ele>
        <time>2024-03-19T15:04:13Z</time>
      </trkpt>
      <trkpt lat="50.06305" lon="4.20077">
        <ele>193.8</ele>
        <time>2024-03-19T15:04:14Z</time>
      </trkpt>
      <trkpt lat="50.06305" lon="4.20077">
        <ele>194.4</ele>
        <time>2024-03-19T15:04:15Z</time>
      </trkpt>
      <trkpt lat="50.06303" lon="4.20086">
        <ele>194.8</ele>
        <time>2024-03-19T15:04:16Z</time>
      </trkpt>
      <trkpt lat="50.06301" lon="4.20096">
        <ele>195.2</ele>
        <time>2024-03-19T15:04:17Z</time>
      </trkpt>
      <trkpt lat="50.06299" lon="4.20117">
        <ele>195.4</ele>
        <time>2024-03-19T15:04:18Z</time>
      </trkpt>
      <trkpt lat="50.06298" lon="4.20127">
        <ele>195.6</ele>
        <time>2024-03-19T15:04:19Z</time>
      </trkpt>
      <trkpt lat="50.06298" lon="4.20127">
        <ele>195.6</ele>
        <time>2024-03-19T15:04:20Z</time>
      </trkpt>
      <trkpt lat="50.06297" lon="4.20148">
        <ele>195.6</ele>
        <time>2024-03-19T15:04:21Z</time>
      </trkpt>
      <trkpt lat="50.06297" lon="4.20158">
        <ele>195.6</ele>
        <time>2024-03-19T15:04:22Z</time>
      </trkpt>
      <trkpt lat="50.06297" lon="4.20158">
        <ele>195.8</ele>
        <time>2024-03-19T15:04:23Z</time>
      </trkpt>
      <trkpt lat="50.06296" lon="4.20178">
        <ele>195.8</ele>
        <time>2024-03-19T15:04:24Z</time>
      </trkpt>
      <trkpt lat="50.06296" lon="4.20189">
        <ele>196.2</ele>
        <time>2024-03-19T15:04:25Z</time>
      </trkpt>
      <trkpt lat="50.06296" lon="4.20198">
        <ele>196.2</ele>
        <time>2024-03-19T15:04:26Z</time>
      </trkpt>
      <trkpt lat="50.06296" lon="4.20198">
        <ele>196.2</ele>
        <time>2024-03-19T15:04:27Z</time>
      </trkpt>
      <trkpt lat="50.06295" lon="4.20218">
        <ele>196.4</ele>
        <time>2024-03-19T15:04:28Z</time>
      </trkpt>
      <trkpt lat="50.06295" lon="4.20218">
        <ele>196.4</ele>
        <time>2024-03-19T15:04:29Z</time>
      </trkpt>
      <trkpt lat="50.06294" lon="4.20228">
        <ele>196.6</ele>
        <time>2024-03-19T15:04:30Z</time>
      </trkpt>
      <trkpt lat="50.06294" lon="4.20239">
        <ele>196.6</ele>
        <time>2024-03-19T15:04:31Z</time>
      </trkpt>
      <trkpt lat="50.06293" lon="4.20249">
        <ele>196.8</ele>
        <time>2024-03-19T15:04:32Z</time>
      </trkpt>
      <trkpt lat="50.06293" lon="4.20259">
        <ele>196.8</ele>
        <time>2024-03-19T15:04:33Z</time>
      </trkpt>
      <trkpt lat="50.06292" lon="4.20269">
        <ele>197</ele>
        <time>2024-03-19T15:04:34Z</time>
      </trkpt>
      <trkpt lat="50.06291" lon="4.20289">
        <ele>197.2</ele>
        <time>2024-03-19T15:04:35Z</time>
      </trkpt>
      <trkpt lat="50.06291" lon="4.20289">
        <ele>197.2</ele>
        <time>2024-03-19T15:04:36Z</time>
      </trkpt>
      <trkpt lat="50.06291" lon="4.203">
        <ele>197.4</ele>
        <time>2024-03-19T15:04:37Z</time>
      </trkpt>
      <trkpt lat="50.06291" lon="4.2031">
        <ele>197.4</ele>
        <time>2024-03-19T15:04:38Z</time>
      </trkpt>
      <trkpt lat="50.06291" lon="4.20321">
        <ele>197.4</ele>
        <time>2024-03-19T15:04:39Z</time>
      </trkpt>
      <trkpt lat="50.0629" lon="4.20332">
        <ele>197.8</ele>
        <time>2024-03-19T15:04:40Z</time>
      </trkpt>
      <trkpt lat="50.06289" lon="4.20353">
        <ele>197.8</ele>
        <time>2024-03-19T15:04:41Z</time>
      </trkpt>
      <trkpt lat="50.06289" lon="4.20363">
        <ele>197.8</ele>
        <time>2024-03-19T15:04:42Z</time>
      </trkpt>
      <trkpt lat="50.06289" lon="4.20363">
        <ele>197.8</ele>
        <time>2024-03-19T15:04:43Z</time>
      </trkpt>
      <trkpt lat="50.06289" lon="4.20374">
        <ele>197.8</ele>
        <time>2024-03-19T15:04:44Z</time>
      </trkpt>
      <trkpt lat="50.06289" lon="4.20384">
        <ele>197.8</ele>
        <time>2024-03-19T15:04:45Z</time>
      </trkpt>
      <trkpt lat="50.06288" lon="4.20394">
        <ele>198</ele>
        <time>2024-03-19T15:04:46Z</time>
      </trkpt>
      <trkpt lat="50.06286" lon="4.20404">
        <ele>198.4</ele>
        <time>2024-03-19T15:04:47Z</time>
      </trkpt>
      <trkpt lat="50.06281" lon="4.20412">
        <ele>198.8</ele>
        <time>2024-03-19T15:04:48Z</time>
      </trkpt>
      <trkpt lat="50.06276" lon="4.20418">
        <ele>199</ele>
        <time>2024-03-19T15:04:49Z</time>
      </trkpt>
      <trkpt lat="50.06262" lon="4.20427">
        <ele>199</ele>
        <time>2024-03-19T15:04:50Z</time>
      </trkpt>
      <trkpt lat="50.06262" lon="4.20427">
        <ele>199</ele>
        <time>2024-03-19T15:04:51Z</time>
      </trkpt>
      <trkpt lat="50.06255" lon="4.20431">
        <ele>199.2</ele>
        <time>2024-03-19T15:04:52Z</time>
      </trkpt>
      <trkpt lat="50.06248" lon="4.20435">
        <ele>199</ele>
        <time>2024-03-19T15:04:53Z</time>
      </trkpt>
      <trkpt lat="50.06233" lon="4.20444">
        <ele>199.2</ele>
        <time>2024-03-19T15:04:54Z</time>
      </trkpt>
      <trkpt lat="50.06233" lon="4.20444">
        <ele>199.2</ele>
        <time>2024-03-19T15:04:55Z</time>
      </trkpt>
      <trkpt lat="50.06225" lon="4.20448">
        <ele>199.2</ele>
        <time>2024-03-19T15:04:56Z</time>
      </trkpt>
      <trkpt lat="50.06217" lon="4.20452">
        <ele>199.2</ele>
        <time>2024-03-19T15:04:57Z</time>
      </trkpt>
      <trkpt lat="50.06209" lon="4.20456">
        <ele>199.2</ele>
        <time>2024-03-19T15:04:58Z</time>
      </trkpt>
      <trkpt lat="50.06193" lon="4.20464">
        <ele>199</ele>
        <time>2024-03-19T15:04:59Z</time>
      </trkpt>
      <trkpt lat="50.06193" lon="4.20464">
        <ele>198.8</ele>
        <time>2024-03-19T15:05:00Z</time>
      </trkpt>
      <trkpt lat="50.06177" lon="4.20473">
        <ele>198.6</ele>
        <time>2024-03-19T15:05:01Z</time>
      </trkpt>
      <trkpt lat="50.06177" lon="4.20473">
        <ele>198</ele>
        <time>2024-03-19T15:05:02Z</time>
      </trkpt>
      <trkpt lat="50.06162" lon="4.20481">
        <ele>197.6</ele>
        <time>2024-03-19T15:05:03Z</time>
      </trkpt>
      <trkpt lat="50.06155" lon="4.20485">
        <ele>197.6</ele>
        <time>2024-03-19T15:05:04Z</time>
      </trkpt>
      <trkpt lat="50.06148" lon="4.20489">
        <ele>197.2</ele>
        <time>2024-03-19T15:05:05Z</time>
      </trkpt>
      <trkpt lat="50.06141" lon="4.20493">
        <ele>197.2</ele>
        <time>2024-03-19T15:05:06Z</time>
      </trkpt>
      <trkpt lat="50.06135" lon="4.20497">
        <ele>197</ele>
        <time>2024-03-19T15:05:07Z</time>
      </trkpt>
      <trkpt lat="50.06135" lon="4.20497">
        <ele>196.6</ele>
        <time>2024-03-19T15:05:08Z</time>
      </trkpt>
      <trkpt lat="50.06128" lon="4.205">
        <ele>196.4</ele>
        <time>2024-03-19T15:05:09Z</time>
      </trkpt>
      <trkpt lat="50.06121" lon="4.20504">
        <ele>196.2</ele>
        <time>2024-03-19T15:05:10Z</time>
      </trkpt>
      <trkpt lat="50.06115" lon="4.20508">
        <ele>196.2</ele>
        <time>2024-03-19T15:05:11Z</time>
      </trkpt>
      <trkpt lat="50.06102" lon="4.20515">
        <ele>196</ele>
        <time>2024-03-19T15:05:12Z</time>
      </trkpt>
      <trkpt lat="50.06102" lon="4.20515">
        <ele>196</ele>
        <time>2024-03-19T15:05:13Z</time>
      </trkpt>
      <trkpt lat="50.06096" lon="4.20518">
        <ele>195.8</ele>
        <time>2024-03-19T15:05:14Z</time>
      </trkpt>
      <trkpt lat="50.06089" lon="4.20522">
        <ele>195.8</ele>
        <time>2024-03-19T15:05:15Z</time>
      </trkpt>
      <trkpt lat="50.06083" lon="4.20526">
        <ele>196</ele>
        <time>2024-03-19T15:05:16Z</time>
      </trkpt>
      <trkpt lat="50.06077" lon="4.20529">
        <ele>195.8</ele>
        <time>2024-03-19T15:05:17Z</time>
      </trkpt>
      <trkpt lat="50.06066" lon="4.20536">
        <ele>196.2</ele>
        <time>2024-03-19T15:05:18Z</time>
      </trkpt>
      <trkpt lat="50.06066" lon="4.20536">
        <ele>196.2</ele>
        <time>2024-03-19T15:05:19Z</time>
      </trkpt>
      <trkpt lat="50.06055" lon="4.20542">
        <ele>196.4</ele>
        <time>2024-03-19T15:05:20Z</time>
      </trkpt>
      <trkpt lat="50.06049" lon="4.20545">
        <ele>196.8</ele>
        <time>2024-03-19T15:05:21Z</time>
      </trkpt>
      <trkpt lat="50.06049" lon="4.20545">
        <ele>197.2</ele>
        <time>2024-03-19T15:05:22Z</time>
      </trkpt>
      <trkpt lat="50.06044" lon="4.20548">
        <ele>197.6</ele>
        <time>2024-03-19T15:05:23Z</time>
      </trkpt>
      <trkpt lat="50.06039" lon="4.20551">
        <ele>197.6</ele>
        <time>2024-03-19T15:05:24Z</time>
      </trkpt>
      <trkpt lat="50.06034" lon="4.20554">
        <ele>197.8</ele>
        <time>2024-03-19T15:05:25Z</time>
      </trkpt>
      <trkpt lat="50.06029" lon="4.20557">
        <ele>198.2</ele>
        <time>2024-03-19T15:05:26Z</time>
      </trkpt>
      <trkpt lat="50.06019" lon="4.20562">
        <ele>198.8</ele>
        <time>2024-03-19T15:05:27Z</time>
      </trkpt>
      <trkpt lat="50.06019" lon="4.20562">
        <ele>199.2</ele>
        <time>2024-03-19T15:05:28Z</time>
      </trkpt>
      <trkpt lat="50.0601" lon="4.20568">
        <ele>199.6</ele>
        <time>2024-03-19T15:05:29Z</time>
      </trkpt>
      <trkpt lat="50.0601" lon="4.20568">
        <ele>200</ele>
        <time>2024-03-19T15:05:30Z</time>
      </trkpt>
      <trkpt lat="50.06005" lon="4.20571">
        <ele>200.2</ele>
        <time>2024-03-19T15:05:31Z</time>
      </trkpt>
      <trkpt lat="50.06" lon="4.20573">
        <ele>200.6</ele>
        <time>2024-03-19T15:05:32Z</time>
      </trkpt>
      <trkpt lat="50.05995" lon="4.20576">
        <ele>200.8</ele>
        <time>2024-03-19T15:05:33Z</time>
      </trkpt>
      <trkpt lat="50.05991" lon="4.20579">
        <ele>201.2</ele>
        <time>2024-03-19T15:05:34Z</time>
      </trkpt>
      <trkpt lat="50.05986" lon="4.20581">
        <ele>201.8</ele>
        <time>2024-03-19T15:05:35Z</time>
      </trkpt>
      <trkpt lat="50.05982" lon="4.20584">
        <ele>202.2</ele>
        <time>2024-03-19T15:05:36Z</time>
      </trkpt>
      <trkpt lat="50.05977" lon="4.20586">
        <ele>202.8</ele>
        <time>2024-03-19T15:05:37Z</time>
      </trkpt>
      <trkpt lat="50.05973" lon="4.20589">
        <ele>203.2</ele>
        <time>2024-03-19T15:05:38Z</time>
      </trkpt>
      <trkpt lat="50.05968" lon="4.20592">
        <ele>203.6</ele>
        <time>2024-03-19T15:05:39Z</time>
      </trkpt>
      <trkpt lat="50.05964" lon="4.20594">
        <ele>204.2</ele>
        <time>2024-03-19T15:05:40Z</time>
      </trkpt>
      <trkpt lat="50.05959" lon="4.20597">
        <ele>204.2</ele>
        <time>2024-03-19T15:05:41Z</time>
      </trkpt>
      <trkpt lat="50.05955" lon="4.20599">
        <ele>204.6</ele>
        <time>2024-03-19T15:05:42Z</time>
      </trkpt>
      <trkpt lat="50.0595" lon="4.20602">
        <ele>205</ele>
        <time>2024-03-19T15:05:43Z</time>
      </trkpt>
      <trkpt lat="50.05946" lon="4.20604">
        <ele>205.4</ele>
        <time>2024-03-19T15:05:44Z</time>
      </trkpt>
      <trkpt lat="50.05941" lon="4.20607">
        <ele>205.8</ele>
        <time>2024-03-19T15:05:45Z</time>
      </trkpt>
      <trkpt lat="50.05937" lon="4.20609">
        <ele>206.2</ele>
        <time>2024-03-19T15:05:46Z</time>
      </trkpt>
      <trkpt lat="50.05933" lon="4.20611">
        <ele>206.4</ele>
        <time>2024-03-19T15:05:47Z</time>
      </trkpt>
      <trkpt lat="50.05928" lon="4.20614">
        <ele>206.8</ele>
        <time>2024-03-19T15:05:48Z</time>
      </trkpt>
      <trkpt lat="50.05924" lon="4.20616">
        <ele>207.2</ele>
        <time>2024-03-19T15:05:49Z</time>
      </trkpt>
      <trkpt lat="50.05916" lon="4.20621">
        <ele>207.6</ele>
        <time>2024-03-19T15:05:50Z</time>
      </trkpt>
      <trkpt lat="50.05911" lon="4.20624">
        <ele>207.8</ele>
        <time>2024-03-19T15:05:51Z</time>
      </trkpt>
      <trkpt lat="50.05907" lon="4.20627">
        <ele>208.2</ele>
        <time>2024-03-19T15:05:52Z</time>
      </trkpt>
      <trkpt lat="50.05907" lon="4.20627">
        <ele>208.4</ele>
        <time>2024-03-19T15:05:53Z</time>
      </trkpt>
      <trkpt lat="50.05899" lon="4.20632">
        <ele>209</ele>
        <time>2024-03-19T15:05:54Z</time>
      </trkpt>
      <trkpt lat="50.05899" lon="4.20632">
        <ele>209.2</ele>
        <time>2024-03-19T15:05:55Z</time>
      </trkpt>
      <trkpt lat="50.05895" lon="4.20635">
        <ele>209.8</ele>
        <time>2024-03-19T15:05:56Z</time>
      </trkpt>
      <trkpt lat="50.05891" lon="4.20639">
        <ele>210</ele>
        <time>2024-03-19T15:05:57Z</time>
      </trkpt>
      <trkpt lat="50.05883" lon="4.20645">
        <ele>210</ele>
        <time>2024-03-19T15:05:58Z</time>
      </trkpt>
      <trkpt lat="50.05878" lon="4.20648">
        <ele>210.4</ele>
        <time>2024-03-19T15:05:59Z</time>
      </trkpt>
      <trkpt lat="50.05874" lon="4.20651">
        <ele>210.8</ele>
        <time>2024-03-19T15:06:00Z</time>
      </trkpt>
      <trkpt lat="50.0587" lon="4.20654">
        <ele>211.2</ele>
        <time>2024-03-19T15:06:01Z</time>
      </trkpt>
      <trkpt lat="50.05866" lon="4.20658">
        <ele>211.6</ele>
        <time>2024-03-19T15:06:02Z</time>
      </trkpt>
      <trkpt lat="50.05862" lon="4.20661">
        <ele>212</ele>
        <time>2024-03-19T15:06:03Z</time>
      </trkpt>
      <trkpt lat="50.05858" lon="4.20664">
        <ele>212.2</ele>
        <time>2024-03-19T15:06:04Z</time>
      </trkpt>
      <trkpt lat="50.05854" lon="4.20668">
        <ele>212.4</ele>
        <time>2024-03-19T15:06:05Z</time>
      </trkpt>
      <trkpt lat="50.05854" lon="4.20668">
        <ele>213</ele>
        <time>2024-03-19T15:06:06Z</time>
      </trkpt>
      <trkpt lat="50.05846" lon="4.20674">
        <ele>213.4</ele>
        <time>2024-03-19T15:06:07Z</time>
      </trkpt>
      <trkpt lat="50.05842" lon="4.20678">
        <ele>213.8</ele>
        <time>2024-03-19T15:06:08Z</time>
      </trkpt>
      <trkpt lat="50.05838" lon="4.20682">
        <ele>214.2</ele>
        <time>2024-03-19T15:06:09Z</time>
      </trkpt>
      <trkpt lat="50.05833" lon="4.20685">
        <ele>214.2</ele>
        <time>2024-03-19T15:06:10Z</time>
      </trkpt>
      <trkpt lat="50.05828" lon="4.20689">
        <ele>214.4</ele>
        <time>2024-03-19T15:06:11Z</time>
      </trkpt>
      <trkpt lat="50.05824" lon="4.20693">
        <ele>214.8</ele>
        <time>2024-03-19T15:06:12Z</time>
      </trkpt>
      <trkpt lat="50.05819" lon="4.20697">
        <ele>215.2</ele>
        <time>2024-03-19T15:06:13Z</time>
      </trkpt>
      <trkpt lat="50.05813" lon="4.20701">
        <ele>215.6</ele>
        <time>2024-03-19T15:06:14Z</time>
      </trkpt>
      <trkpt lat="50.05808" lon="4.20705">
        <ele>215.6</ele>
        <time>2024-03-19T15:06:15Z</time>
      </trkpt>
      <trkpt lat="50.05802" lon="4.2071">
        <ele>215.8</ele>
        <time>2024-03-19T15:06:16Z</time>
      </trkpt>
      <trkpt lat="50.05802" lon="4.2071">
        <ele>216.2</ele>
        <time>2024-03-19T15:06:17Z</time>
      </trkpt>
      <trkpt lat="50.0579" lon="4.2072">
        <ele>216.2</ele>
        <time>2024-03-19T15:06:18Z</time>
      </trkpt>
      <trkpt lat="50.05783" lon="4.20726">
        <ele>216.2</ele>
        <time>2024-03-19T15:06:19Z</time>
      </trkpt>
      <trkpt lat="50.05783" lon="4.20726">
        <ele>216.2</ele>
        <time>2024-03-19T15:06:20Z</time>
      </trkpt>
      <trkpt lat="50.05776" lon="4.20731">
        <ele>216.2</ele>
        <time>2024-03-19T15:06:21Z</time>
      </trkpt>
      <trkpt lat="50.05769" lon="4.20737">
        <ele>216.2</ele>
        <time>2024-03-19T15:06:22Z</time>
      </trkpt>
      <trkpt lat="50.05762" lon="4.20743">
        <ele>216.4</ele>
        <time>2024-03-19T15:06:23Z</time>
      </trkpt>
      <trkpt lat="50.05747" lon="4.20755">
        <ele>216.2</ele>
        <time>2024-03-19T15:06:24Z</time>
      </trkpt>
      <trkpt lat="50.05739" lon="4.20762">
        <ele>216.2</ele>
        <time>2024-03-19T15:06:25Z</time>
      </trkpt>
      <trkpt lat="50.05731" lon="4.20769">
        <ele>216.2</ele>
        <time>2024-03-19T15:06:26Z</time>
      </trkpt>
      <trkpt lat="50.05731" lon="4.20769">
        <ele>215.8</ele>
        <time>2024-03-19T15:06:27Z</time>
      </trkpt>
      <trkpt lat="50.05723" lon="4.20775">
        <ele>215.2</ele>
        <time>2024-03-19T15:06:28Z</time>
      </trkpt>
      <trkpt lat="50.05706" lon="4.20789">
        <ele>214.8</ele>
        <time>2024-03-19T15:06:29Z</time>
      </trkpt>
      <trkpt lat="50.05697" lon="4.20795">
        <ele>214.4</ele>
        <time>2024-03-19T15:06:30Z</time>
      </trkpt>
      <trkpt lat="50.05688" lon="4.20802">
        <ele>213.8</ele>
        <time>2024-03-19T15:06:31Z</time>
      </trkpt>
      <trkpt lat="50.05688" lon="4.20802">
        <ele>213.4</ele>
        <time>2024-03-19T15:06:32Z</time>
      </trkpt>
      <trkpt lat="50.05671" lon="4.20815">
        <ele>212.8</ele>
        <time>2024-03-19T15:06:33Z</time>
      </trkpt>
      <trkpt lat="50.05671" lon="4.20815">
        <ele>212.4</ele>
        <time>2024-03-19T15:06:34Z</time>
      </trkpt>
      <trkpt lat="50.05656" lon="4.20828">
        <ele>212.4</ele>
        <time>2024-03-19T15:06:35Z</time>
      </trkpt>
      <trkpt lat="50.05656" lon="4.20828">
        <ele>211.6</ele>
        <time>2024-03-19T15:06:36Z</time>
      </trkpt>
      <trkpt lat="50.05642" lon="4.20839">
        <ele>211</ele>
        <time>2024-03-19T15:06:37Z</time>
      </trkpt>
      <trkpt lat="50.05636" lon="4.20845">
        <ele>210.2</ele>
        <time>2024-03-19T15:06:38Z</time>
      </trkpt>
      <trkpt lat="50.05636" lon="4.20845">
        <ele>209.8</ele>
        <time>2024-03-19T15:06:39Z</time>
      </trkpt>
      <trkpt lat="50.05623" lon="4.20854">
        <ele>209.8</ele>
        <time>2024-03-19T15:06:40Z</time>
      </trkpt>
      <trkpt lat="50.05617" lon="4.20859">
        <ele>209.6</ele>
        <time>2024-03-19T15:06:41Z</time>
      </trkpt>
      <trkpt lat="50.05612" lon="4.20864">
        <ele>209.6</ele>
        <time>2024-03-19T15:06:42Z</time>
      </trkpt>
      <trkpt lat="50.05606" lon="4.20868">
        <ele>209.6</ele>
        <time>2024-03-19T15:06:43Z</time>
      </trkpt>
      <trkpt lat="50.05606" lon="4.20868">
        <ele>209.4</ele>
        <time>2024-03-19T15:06:44Z</time>
      </trkpt>
      <trkpt lat="50.05594" lon="4.20877">
        <ele>209.6</ele>
        <time>2024-03-19T15:06:45Z</time>
      </trkpt>
      <trkpt lat="50.05589" lon="4.20882">
        <ele>209.6</ele>
        <time>2024-03-19T15:06:46Z</time>
      </trkpt>
      <trkpt lat="50.05583" lon="4.20886">
        <ele>209.6</ele>
        <time>2024-03-19T15:06:47Z</time>
      </trkpt>
      <trkpt lat="50.05578" lon="4.20891">
        <ele>209.6</ele>
        <time>2024-03-19T15:06:48Z</time>
      </trkpt>
      <trkpt lat="50.05572" lon="4.20895">
        <ele>210.2</ele>
        <time>2024-03-19T15:06:49Z</time>
      </trkpt>
      <trkpt lat="50.05572" lon="4.20895">
        <ele>210.6</ele>
        <time>2024-03-19T15:06:50Z</time>
      </trkpt>
      <trkpt lat="50.05567" lon="4.209">
        <ele>211</ele>
        <time>2024-03-19T15:06:51Z</time>
      </trkpt>
      <trkpt lat="50.05556" lon="4.20908">
        <ele>211</ele>
        <time>2024-03-19T15:06:52Z</time>
      </trkpt>
      <trkpt lat="50.0555" lon="4.20913">
        <ele>211.4</ele>
        <time>2024-03-19T15:06:53Z</time>
      </trkpt>
      <trkpt lat="50.05545" lon="4.20917">
        <ele>211.6</ele>
        <time>2024-03-19T15:06:54Z</time>
      </trkpt>
      <trkpt lat="50.0554" lon="4.20922">
        <ele>211.8</ele>
        <time>2024-03-19T15:06:55Z</time>
      </trkpt>
      <trkpt lat="50.05534" lon="4.20926">
        <ele>211.8</ele>
        <time>2024-03-19T15:06:56Z</time>
      </trkpt>
      <trkpt lat="50.05529" lon="4.2093">
        <ele>212.4</ele>
        <time>2024-03-19T15:06:57Z</time>
      </trkpt>
      <trkpt lat="50.05523" lon="4.20934">
        <ele>212.6</ele>
        <time>2024-03-19T15:06:58Z</time>
      </trkpt>
      <trkpt lat="50.05518" lon="4.20939">
        <ele>212.6</ele>
        <time>2024-03-19T15:06:59Z</time>
      </trkpt>
      <trkpt lat="50.05518" lon="4.20939">
        <ele>212.8</ele>
        <time>2024-03-19T15:07:00Z</time>
      </trkpt>
      <trkpt lat="50.05513" lon="4.20943">
        <ele>213</ele>
        <time>2024-03-19T15:07:01Z</time>
      </trkpt>
      <trkpt lat="50.05502" lon="4.20951">
        <ele>213.2</ele>
        <time>2024-03-19T15:07:02Z</time>
      </trkpt>
      <trkpt lat="50.05502" lon="4.20951">
        <ele>213.4</ele>
        <time>2024-03-19T15:07:03Z</time>
      </trkpt>
      <trkpt lat="50.05496" lon="4.20955">
        <ele>213.4</ele>
        <time>2024-03-19T15:07:04Z</time>
      </trkpt>
      <trkpt lat="50.05486" lon="4.20962">
        <ele>213.6</ele>
        <time>2024-03-19T15:07:05Z</time>
      </trkpt>
      <trkpt lat="50.05486" lon="4.20962">
        <ele>213.6</ele>
        <time>2024-03-19T15:07:06Z</time>
      </trkpt>
      <trkpt lat="50.05476" lon="4.20969">
        <ele>213.8</ele>
        <time>2024-03-19T15:07:07Z</time>
      </trkpt>
      <trkpt lat="50.05476" lon="4.20969">
        <ele>214</ele>
        <time>2024-03-19T15:07:08Z</time>
      </trkpt>
      <trkpt lat="50.05467" lon="4.20976">
        <ele>214.2</ele>
        <time>2024-03-19T15:07:09Z</time>
      </trkpt>
      <trkpt lat="50.05462" lon="4.2098">
        <ele>214.6</ele>
        <time>2024-03-19T15:07:10Z</time>
      </trkpt>
      <trkpt lat="50.05458" lon="4.20984">
        <ele>214.6</ele>
        <time>2024-03-19T15:07:11Z</time>
      </trkpt>
      <trkpt lat="50.05453" lon="4.20988">
        <ele>214.8</ele>
        <time>2024-03-19T15:07:12Z</time>
      </trkpt>
      <trkpt lat="50.05453" lon="4.20988">
        <ele>215</ele>
        <time>2024-03-19T15:07:13Z</time>
      </trkpt>
      <trkpt lat="50.05448" lon="4.20992">
        <ele>215.2</ele>
        <time>2024-03-19T15:07:14Z</time>
      </trkpt>
      <trkpt lat="50.05442" lon="4.20995">
        <ele>215.2</ele>
        <time>2024-03-19T15:07:15Z</time>
      </trkpt>
      <trkpt lat="50.05436" lon="4.20996">
        <ele>215.2</ele>
        <time>2024-03-19T15:07:16Z</time>
      </trkpt>
      <trkpt lat="50.05423" lon="4.20996">
        <ele>215.4</ele>
        <time>2024-03-19T15:07:17Z</time>
      </trkpt>
      <trkpt lat="50.05416" lon="4.20995">
        <ele>215.4</ele>
        <time>2024-03-19T15:07:18Z</time>
      </trkpt>
      <trkpt lat="50.05409" lon="4.20995">
        <ele>215.4</ele>
        <time>2024-03-19T15:07:19Z</time>
      </trkpt>
      <trkpt lat="50.05402" lon="4.20995">
        <ele>215.4</ele>
        <time>2024-03-19T15:07:20Z</time>
      </trkpt>
      <trkpt lat="50.05395" lon="4.20995">
        <ele>215.4</ele>
        <time>2024-03-19T15:07:21Z</time>
      </trkpt>
      <trkpt lat="50.05388" lon="4.20994">
        <ele>215.2</ele>
        <time>2024-03-19T15:07:22Z</time>
      </trkpt>
      <trkpt lat="50.05381" lon="4.20994">
        <ele>215</ele>
        <time>2024-03-19T15:07:23Z</time>
      </trkpt>
      <trkpt lat="50.05373" lon="4.20993">
        <ele>215</ele>
        <time>2024-03-19T15:07:24Z</time>
      </trkpt>
      <trkpt lat="50.05366" lon="4.20992">
        <ele>215</ele>
        <time>2024-03-19T15:07:25Z</time>
      </trkpt>
      <trkpt lat="50.05358" lon="4.20992">
        <ele>214.6</ele>
        <time>2024-03-19T15:07:26Z</time>
      </trkpt>
      <trkpt lat="50.0535" lon="4.20992">
        <ele>214.2</ele>
        <time>2024-03-19T15:07:27Z</time>
      </trkpt>
      <trkpt lat="50.05342" lon="4.20993">
        <ele>214.2</ele>
        <time>2024-03-19T15:07:28Z</time>
      </trkpt>
      <trkpt lat="50.05333" lon="4.20994">
        <ele>214</ele>
        <time>2024-03-19T15:07:29Z</time>
      </trkpt>
      <trkpt lat="50.05325" lon="4.20995">
        <ele>213.6</ele>
        <time>2024-03-19T15:07:30Z</time>
      </trkpt>
      <trkpt lat="50.05325" lon="4.20995">
        <ele>213</ele>
        <time>2024-03-19T15:07:31Z</time>
      </trkpt>
      <trkpt lat="50.05309" lon="4.20996">
        <ele>212.8</ele>
        <time>2024-03-19T15:07:32Z</time>
      </trkpt>
      <trkpt lat="50.05302" lon="4.20997">
        <ele>212.6</ele>
        <time>2024-03-19T15:07:33Z</time>
      </trkpt>
      <trkpt lat="50.05294" lon="4.20997">
        <ele>211.8</ele>
        <time>2024-03-19T15:07:34Z</time>
      </trkpt>
      <trkpt lat="50.05286" lon="4.20998">
        <ele>211.2</ele>
        <time>2024-03-19T15:07:35Z</time>
      </trkpt>
      <trkpt lat="50.05279" lon="4.20999">
        <ele>211</ele>
        <time>2024-03-19T15:07:36Z</time>
      </trkpt>
      <trkpt lat="50.05271" lon="4.20999">
        <ele>210.8</ele>
        <time>2024-03-19T15:07:37Z</time>
      </trkpt>
      <trkpt lat="50.05264" lon="4.21">
        <ele>210.6</ele>
        <time>2024-03-19T15:07:38Z</time>
      </trkpt>
      <trkpt lat="50.05257" lon="4.21">
        <ele>210.4</ele>
        <time>2024-03-19T15:07:39Z</time>
      </trkpt>
      <trkpt lat="50.05251" lon="4.21">
        <ele>210.2</ele>
        <time>2024-03-19T15:07:40Z</time>
      </trkpt>
      <trkpt lat="50.05245" lon="4.21001">
        <ele>210.2</ele>
        <time>2024-03-19T15:07:41Z</time>
      </trkpt>
      <trkpt lat="50.05239" lon="4.21003">
        <ele>210</ele>
        <time>2024-03-19T15:07:42Z</time>
      </trkpt>
      <trkpt lat="50.05234" lon="4.21004">
        <ele>210</ele>
        <time>2024-03-19T15:07:43Z</time>
      </trkpt>
      <trkpt lat="50.05228" lon="4.21005">
        <ele>210</ele>
        <time>2024-03-19T15:07:44Z</time>
      </trkpt>
      <trkpt lat="50.05223" lon="4.21006">
        <ele>210</ele>
        <time>2024-03-19T15:07:45Z</time>
      </trkpt>
      <trkpt lat="50.05217" lon="4.21006">
        <ele>210</ele>
        <time>2024-03-19T15:07:46Z</time>
      </trkpt>
      <trkpt lat="50.05211" lon="4.21006">
        <ele>210.2</ele>
        <time>2024-03-19T15:07:47Z</time>
      </trkpt>
      <trkpt lat="50.05211" lon="4.21006">
        <ele>210.2</ele>
        <time>2024-03-19T15:07:48Z</time>
      </trkpt>
      <trkpt lat="50.05197" lon="4.21007">
        <ele>210</ele>
        <time>2024-03-19T15:07:49Z</time>
      </trkpt>
      <trkpt lat="50.0519" lon="4.21007">
        <ele>210.2</ele>
        <time>2024-03-19T15:07:50Z</time>
      </trkpt>
      <trkpt lat="50.05182" lon="4.21007">
        <ele>210.2</ele>
        <time>2024-03-19T15:07:51Z</time>
      </trkpt>
      <trkpt lat="50.05174" lon="4.21006">
        <ele>210.2</ele>
        <time>2024-03-19T15:07:52Z</time>
      </trkpt>
      <trkpt lat="50.05165" lon="4.21003">
        <ele>210.2</ele>
        <time>2024-03-19T15:07:53Z</time>
      </trkpt>
      <trkpt lat="50.05157" lon="4.20998">
        <ele>210</ele>
        <time>2024-03-19T15:07:54Z</time>
      </trkpt>
      <trkpt lat="50.05148" lon="4.20992">
        <ele>210</ele>
        <time>2024-03-19T15:07:55Z</time>
      </trkpt>
      <trkpt lat="50.05148" lon="4.20992">
        <ele>210</ele>
        <time>2024-03-19T15:07:56Z</time>
      </trkpt>
      <trkpt lat="50.05132" lon="4.20977">
        <ele>210</ele>
        <time>2024-03-19T15:07:57Z</time>
      </trkpt>
      <trkpt lat="50.05124" lon="4.20969">
        <ele>210</ele>
        <time>2024-03-19T15:07:58Z</time>
      </trkpt>
      <trkpt lat="50.05116" lon="4.20961">
        <ele>209.8</ele>
        <time>2024-03-19T15:07:59Z</time>
      </trkpt>
      <trkpt lat="50.05109" lon="4.20952">
        <ele>209.2</ele>
        <time>2024-03-19T15:08:00Z</time>
      </trkpt>
      <trkpt lat="50.05101" lon="4.20943">
        <ele>208.6</ele>
        <time>2024-03-19T15:08:01Z</time>
      </trkpt>
      <trkpt lat="50.05095" lon="4.20934">
        <ele>207.8</ele>
        <time>2024-03-19T15:08:02Z</time>
      </trkpt>
      <trkpt lat="50.05089" lon="4.20923">
        <ele>206.6</ele>
        <time>2024-03-19T15:08:03Z</time>
      </trkpt>
      <trkpt lat="50.05082" lon="4.20914">
        <ele>205.8</ele>
        <time>2024-03-19T15:08:04Z</time>
      </trkpt>
      <trkpt lat="50.05075" lon="4.20907">
        <ele>205.8</ele>
        <time>2024-03-19T15:08:05Z</time>
      </trkpt>
      <trkpt lat="50.05068" lon="4.20903">
        <ele>205.4</ele>
        <time>2024-03-19T15:08:06Z</time>
      </trkpt>
      <trkpt lat="50.0506" lon="4.20901">
        <ele>205</ele>
        <time>2024-03-19T15:08:07Z</time>
      </trkpt>
      <trkpt lat="50.05053" lon="4.20898">
        <ele>205</ele>
        <time>2024-03-19T15:08:08Z</time>
      </trkpt>
      <trkpt lat="50.05046" lon="4.20893">
        <ele>204.8</ele>
        <time>2024-03-19T15:08:09Z</time>
      </trkpt>
      <trkpt lat="50.0504" lon="4.20888">
        <ele>204.8</ele>
        <time>2024-03-19T15:08:10Z</time>
      </trkpt>
      <trkpt lat="50.05034" lon="4.20884">
        <ele>204.8</ele>
        <time>2024-03-19T15:08:11Z</time>
      </trkpt>
      <trkpt lat="50.05029" lon="4.20879">
        <ele>204.8</ele>
        <time>2024-03-19T15:08:12Z</time>
      </trkpt>
      <trkpt lat="50.05023" lon="4.20875">
        <ele>204.8</ele>
        <time>2024-03-19T15:08:13Z</time>
      </trkpt>
      <trkpt lat="50.05017" lon="4.20871">
        <ele>204.8</ele>
        <time>2024-03-19T15:08:14Z</time>
      </trkpt>
      <trkpt lat="50.05012" lon="4.20867">
        <ele>205</ele>
        <time>2024-03-19T15:08:15Z</time>
      </trkpt>
      <trkpt lat="50.05007" lon="4.20864">
        <ele>205</ele>
        <time>2024-03-19T15:08:16Z</time>
      </trkpt>
      <trkpt lat="50.05001" lon="4.2086">
        <ele>205</ele>
        <time>2024-03-19T15:08:17Z</time>
      </trkpt>
      <trkpt lat="50.05001" lon="4.2086">
        <ele>205</ele>
        <time>2024-03-19T15:08:18Z</time>
      </trkpt>
      <trkpt lat="50.04991" lon="4.20853">
        <ele>205.4</ele>
        <time>2024-03-19T15:08:19Z</time>
      </trkpt>
      <trkpt lat="50.04986" lon="4.20851">
        <ele>205.6</ele>
        <time>2024-03-19T15:08:20Z</time>
      </trkpt>
      <trkpt lat="50.04981" lon="4.20848">
        <ele>206</ele>
        <time>2024-03-19T15:08:21Z</time>
      </trkpt>
      <trkpt lat="50.04975" lon="4.20846">
        <ele>206</ele>
        <time>2024-03-19T15:08:22Z</time>
      </trkpt>
      <trkpt lat="50.0497" lon="4.20845">
        <ele>206.4</ele>
        <time>2024-03-19T15:08:23Z</time>
      </trkpt>
      <trkpt lat="50.04965" lon="4.20845">
        <ele>206.8</ele>
        <time>2024-03-19T15:08:24Z</time>
      </trkpt>
      <trkpt lat="50.0496" lon="4.20845">
        <ele>207</ele>
        <time>2024-03-19T15:08:25Z</time>
      </trkpt>
      <trkpt lat="50.04955" lon="4.20846">
        <ele>207.6</ele>
        <time>2024-03-19T15:08:26Z</time>
      </trkpt>
      <trkpt lat="50.04951" lon="4.20847">
        <ele>208</ele>
        <time>2024-03-19T15:08:27Z</time>
      </trkpt>
      <trkpt lat="50.04946" lon="4.20848">
        <ele>208.2</ele>
        <time>2024-03-19T15:08:28Z</time>
      </trkpt>
      <trkpt lat="50.04941" lon="4.2085">
        <ele>208.6</ele>
        <time>2024-03-19T15:08:29Z</time>
      </trkpt>
      <trkpt lat="50.04937" lon="4.20853">
        <ele>209</ele>
        <time>2024-03-19T15:08:30Z</time>
      </trkpt>
      <trkpt lat="50.04933" lon="4.20856">
        <ele>209.2</ele>
        <time>2024-03-19T15:08:31Z</time>
      </trkpt>
      <trkpt lat="50.04929" lon="4.20859">
        <ele>209.8</ele>
        <time>2024-03-19T15:08:32Z</time>
      </trkpt>
      <trkpt lat="50.04926" lon="4.20862">
        <ele>210.6</ele>
        <time>2024-03-19T15:08:33Z</time>
      </trkpt>
      <trkpt lat="50.04922" lon="4.20866">
        <ele>211</ele>
        <time>2024-03-19T15:08:34Z</time>
      </trkpt>
      <trkpt lat="50.04918" lon="4.20869">
        <ele>211.6</ele>
        <time>2024-03-19T15:08:35Z</time>
      </trkpt>
      <trkpt lat="50.04914" lon="4.20873">
        <ele>212.2</ele>
        <time>2024-03-19T15:08:36Z</time>
      </trkpt>
      <trkpt lat="50.04914" lon="4.20873">
        <ele>212.6</ele>
        <time>2024-03-19T15:08:37Z</time>
      </trkpt>
      <trkpt lat="50.04908" lon="4.20882">
        <ele>213</ele>
        <time>2024-03-19T15:08:38Z</time>
      </trkpt>
      <trkpt lat="50.04905" lon="4.20886">
        <ele>213</ele>
        <time>2024-03-19T15:08:39Z</time>
      </trkpt>
      <trkpt lat="50.04905" lon="4.20886">
        <ele>213.2</ele>
        <time>2024-03-19T15:08:40Z</time>
      </trkpt>
      <trkpt lat="50.04898" lon="4.20895">
        <ele>213.8</ele>
        <time>2024-03-19T15:08:41Z</time>
      </trkpt>
      <trkpt lat="50.04895" lon="4.209">
        <ele>214</ele>
        <time>2024-03-19T15:08:42Z</time>
      </trkpt>
      <trkpt lat="50.04893" lon="4.20906">
        <ele>214.4</ele>
        <time>2024-03-19T15:08:43Z</time>
      </trkpt>
      <trkpt lat="50.0489" lon="4.20911">
        <ele>214.8</ele>
        <time>2024-03-19T15:08:44Z</time>
      </trkpt>
      <trkpt lat="50.0489" lon="4.20911">
        <ele>215</ele>
        <time>2024-03-19T15:08:45Z</time>
      </trkpt>
      <trkpt lat="50.04883" lon="4.20921">
        <ele>215.6</ele>
        <time>2024-03-19T15:08:46Z</time>
      </trkpt>
      <trkpt lat="50.04879" lon="4.20925">
        <ele>216.2</ele>
        <time>2024-03-19T15:08:47Z</time>
      </trkpt>
      <trkpt lat="50.04875" lon="4.2093">
        <ele>216.6</ele>
        <time>2024-03-19T15:08:48Z</time>
      </trkpt>
      <trkpt lat="50.04872" lon="4.20935">
        <ele>217</ele>
        <time>2024-03-19T15:08:49Z</time>
      </trkpt>
      <trkpt lat="50.04868" lon="4.2094">
        <ele>217</ele>
        <time>2024-03-19T15:08:50Z</time>
      </trkpt>
      <trkpt lat="50.04868" lon="4.2094">
        <ele>217.4</ele>
        <time>2024-03-19T15:08:51Z</time>
      </trkpt>
      <trkpt lat="50.0486" lon="4.20948">
        <ele>218</ele>
        <time>2024-03-19T15:08:52Z</time>
      </trkpt>
      <trkpt lat="50.04856" lon="4.20953">
        <ele>218.4</ele>
        <time>2024-03-19T15:08:53Z</time>
      </trkpt>
      <trkpt lat="50.04852" lon="4.20957">
        <ele>218.8</ele>
        <time>2024-03-19T15:08:54Z</time>
      </trkpt>
      <trkpt lat="50.04848" lon="4.20961">
        <ele>219</ele>
        <time>2024-03-19T15:08:55Z</time>
      </trkpt>
      <trkpt lat="50.04844" lon="4.20965">
        <ele>219.4</ele>
        <time>2024-03-19T15:08:56Z</time>
      </trkpt>
      <trkpt lat="50.0484" lon="4.2097">
        <ele>219.4</ele>
        <time>2024-03-19T15:08:57Z</time>
      </trkpt>
      <trkpt lat="50.04835" lon="4.20974">
        <ele>219.4</ele>
        <time>2024-03-19T15:08:58Z</time>
      </trkpt>
      <trkpt lat="50.04831" lon="4.20978">
        <ele>219.6</ele>
        <time>2024-03-19T15:08:59Z</time>
      </trkpt>
      <trkpt lat="50.04827" lon="4.20983">
        <ele>219.6</ele>
        <time>2024-03-19T15:09:00Z</time>
      </trkpt>
      <trkpt lat="50.04822" lon="4.20987">
        <ele>219.8</ele>
        <time>2024-03-19T15:09:01Z</time>
      </trkpt>
      <trkpt lat="50.04822" lon="4.20987">
        <ele>219.8</ele>
        <time>2024-03-19T15:09:02Z</time>
      </trkpt>
      <trkpt lat="50.04813" lon="4.20996">
        <ele>220</ele>
        <time>2024-03-19T15:09:03Z</time>
      </trkpt>
      <trkpt lat="50.04808" lon="4.21">
        <ele>220</ele>
        <time>2024-03-19T15:09:04Z</time>
      </trkpt>
      <trkpt lat="50.04804" lon="4.21005">
        <ele>220.2</ele>
        <time>2024-03-19T15:09:05Z</time>
      </trkpt>
      <trkpt lat="50.04799" lon="4.21009">
        <ele>220.4</ele>
        <time>2024-03-19T15:09:06Z</time>
      </trkpt>
      <trkpt lat="50.04799" lon="4.21009">
        <ele>220.8</ele>
        <time>2024-03-19T15:09:07Z</time>
      </trkpt>
      <trkpt lat="50.04788" lon="4.21018">
        <ele>221</ele>
        <time>2024-03-19T15:09:08Z</time>
      </trkpt>
      <trkpt lat="50.04783" lon="4.21022">
        <ele>221</ele>
        <time>2024-03-19T15:09:09Z</time>
      </trkpt>
      <trkpt lat="50.04783" lon="4.21022">
        <ele>221.2</ele>
        <time>2024-03-19T15:09:10Z</time>
      </trkpt>
      <trkpt lat="50.04777" lon="4.21026">
        <ele>221.4</ele>
        <time>2024-03-19T15:09:11Z</time>
      </trkpt>
      <trkpt lat="50.04765" lon="4.21035">
        <ele>221.8</ele>
        <time>2024-03-19T15:09:12Z</time>
      </trkpt>
      <trkpt lat="50.04765" lon="4.21035">
        <ele>221.8</ele>
        <time>2024-03-19T15:09:13Z</time>
      </trkpt>
      <trkpt lat="50.04759" lon="4.21039">
        <ele>222.2</ele>
        <time>2024-03-19T15:09:14Z</time>
      </trkpt>
      <trkpt lat="50.04753" lon="4.21042">
        <ele>222.4</ele>
        <time>2024-03-19T15:09:15Z</time>
      </trkpt>
      <trkpt lat="50.0474" lon="4.21049">
        <ele>222.6</ele>
        <time>2024-03-19T15:09:16Z</time>
      </trkpt>
      <trkpt lat="50.04734" lon="4.21052">
        <ele>222.6</ele>
        <time>2024-03-19T15:09:17Z</time>
      </trkpt>
      <trkpt lat="50.04727" lon="4.21055">
        <ele>222.8</ele>
        <time>2024-03-19T15:09:18Z</time>
      </trkpt>
      <trkpt lat="50.04727" lon="4.21055">
        <ele>223</ele>
        <time>2024-03-19T15:09:19Z</time>
      </trkpt>
      <trkpt lat="50.04715" lon="4.2106">
        <ele>223</ele>
        <time>2024-03-19T15:09:20Z</time>
      </trkpt>
      <trkpt lat="50.04708" lon="4.21063">
        <ele>223.2</ele>
        <time>2024-03-19T15:09:21Z</time>
      </trkpt>
      <trkpt lat="50.04702" lon="4.21066">
        <ele>223.2</ele>
        <time>2024-03-19T15:09:22Z</time>
      </trkpt>
      <trkpt lat="50.04696" lon="4.21068">
        <ele>223.4</ele>
        <time>2024-03-19T15:09:23Z</time>
      </trkpt>
      <trkpt lat="50.04696" lon="4.21068">
        <ele>223.4</ele>
        <time>2024-03-19T15:09:24Z</time>
      </trkpt>
      <trkpt lat="50.04689" lon="4.21071">
        <ele>223.6</ele>
        <time>2024-03-19T15:09:25Z</time>
      </trkpt>
      <trkpt lat="50.04677" lon="4.21076">
        <ele>223.6</ele>
        <time>2024-03-19T15:09:26Z</time>
      </trkpt>
      <trkpt lat="50.0467" lon="4.21079">
        <ele>223.8</ele>
        <time>2024-03-19T15:09:27Z</time>
      </trkpt>
      <trkpt lat="50.04664" lon="4.21082">
        <ele>223.8</ele>
        <time>2024-03-19T15:09:28Z</time>
      </trkpt>
      <trkpt lat="50.04658" lon="4.21085">
        <ele>223.8</ele>
        <time>2024-03-19T15:09:29Z</time>
      </trkpt>
      <trkpt lat="50.04658" lon="4.21085">
        <ele>224</ele>
        <time>2024-03-19T15:09:30Z</time>
      </trkpt>
      <trkpt lat="50.04645" lon="4.2109">
        <ele>224</ele>
        <time>2024-03-19T15:09:31Z</time>
      </trkpt>
      <trkpt lat="50.04639" lon="4.21093">
        <ele>223.8</ele>
        <time>2024-03-19T15:09:32Z</time>
      </trkpt>
      <trkpt lat="50.04632" lon="4.21096">
        <ele>224</ele>
        <time>2024-03-19T15:09:33Z</time>
      </trkpt>
      <trkpt lat="50.04626" lon="4.21099">
        <ele>224.2</ele>
        <time>2024-03-19T15:09:34Z</time>
      </trkpt>
      <trkpt lat="50.04619" lon="4.21102">
        <ele>224.4</ele>
        <time>2024-03-19T15:09:35Z</time>
      </trkpt>
      <trkpt lat="50.04613" lon="4.21105">
        <ele>225</ele>
        <time>2024-03-19T15:09:36Z</time>
      </trkpt>
      <trkpt lat="50.04613" lon="4.21105">
        <ele>225.2</ele>
        <time>2024-03-19T15:09:37Z</time>
      </trkpt>
      <trkpt lat="50.04606" lon="4.21108">
        <ele>225.2</ele>
        <time>2024-03-19T15:09:38Z</time>
      </trkpt>
      <trkpt lat="50.04592" lon="4.21114">
        <ele>225.4</ele>
        <time>2024-03-19T15:09:39Z</time>
      </trkpt>
      <trkpt lat="50.04586" lon="4.21117">
        <ele>225.4</ele>
        <time>2024-03-19T15:09:40Z</time>
      </trkpt>
      <trkpt lat="50.04579" lon="4.21121">
        <ele>225.4</ele>
        <time>2024-03-19T15:09:41Z</time>
      </trkpt>
      <trkpt lat="50.04572" lon="4.21124">
        <ele>225.6</ele>
        <time>2024-03-19T15:09:42Z</time>
      </trkpt>
      <trkpt lat="50.04572" lon="4.21124">
        <ele>225.4</ele>
        <time>2024-03-19T15:09:43Z</time>
      </trkpt>
      <trkpt lat="50.04566" lon="4.21128">
        <ele>225.4</ele>
        <time>2024-03-19T15:09:44Z</time>
      </trkpt>
      <trkpt lat="50.04559" lon="4.21133">
        <ele>225.4</ele>
        <time>2024-03-19T15:09:45Z</time>
      </trkpt>
      <trkpt lat="50.04553" lon="4.21137">
        <ele>225.4</ele>
        <time>2024-03-19T15:09:46Z</time>
      </trkpt>
      <trkpt lat="50.0454" lon="4.21147">
        <ele>225.6</ele>
        <time>2024-03-19T15:09:47Z</time>
      </trkpt>
      <trkpt lat="50.0454" lon="4.21147">
        <ele>225.4</ele>
        <time>2024-03-19T15:09:48Z</time>
      </trkpt>
      <trkpt lat="50.04534" lon="4.21152">
        <ele>225.6</ele>
        <time>2024-03-19T15:09:49Z</time>
      </trkpt>
      <trkpt lat="50.04523" lon="4.21164">
        <ele>225.6</ele>
        <time>2024-03-19T15:09:50Z</time>
      </trkpt>
      <trkpt lat="50.04523" lon="4.21164">
        <ele>225.6</ele>
        <time>2024-03-19T15:09:51Z</time>
      </trkpt>
      <trkpt lat="50.04517" lon="4.2117">
        <ele>225.6</ele>
        <time>2024-03-19T15:09:52Z</time>
      </trkpt>
      <trkpt lat="50.04511" lon="4.21177">
        <ele>225.6</ele>
        <time>2024-03-19T15:09:53Z</time>
      </trkpt>
      <trkpt lat="50.045" lon="4.2119">
        <ele>225.6</ele>
        <time>2024-03-19T15:09:54Z</time>
      </trkpt>
      <trkpt lat="50.04495" lon="4.21197">
        <ele>225.6</ele>
        <time>2024-03-19T15:09:55Z</time>
      </trkpt>
      <trkpt lat="50.0449" lon="4.21204">
        <ele>225.6</ele>
        <time>2024-03-19T15:09:56Z</time>
      </trkpt>
      <trkpt lat="50.0449" lon="4.21204">
        <ele>225.8</ele>
        <time>2024-03-19T15:09:57Z</time>
      </trkpt>
      <trkpt lat="50.04479" lon="4.21217">
        <ele>225.8</ele>
        <time>2024-03-19T15:09:58Z</time>
      </trkpt>
      <trkpt lat="50.04474" lon="4.21224">
        <ele>225.6</ele>
        <time>2024-03-19T15:09:59Z</time>
      </trkpt>
      <trkpt lat="50.04469" lon="4.21231">
        <ele>225.8</ele>
        <time>2024-03-19T15:10:00Z</time>
      </trkpt>
      <trkpt lat="50.04464" lon="4.21239">
        <ele>225.8</ele>
        <time>2024-03-19T15:10:01Z</time>
      </trkpt>
      <trkpt lat="50.04459" lon="4.21246">
        <ele>225.8</ele>
        <time>2024-03-19T15:10:02Z</time>
      </trkpt>
      <trkpt lat="50.04455" lon="4.21254">
        <ele>226</ele>
        <time>2024-03-19T15:10:03Z</time>
      </trkpt>
      <trkpt lat="50.04451" lon="4.21262">
        <ele>226</ele>
        <time>2024-03-19T15:10:04Z</time>
      </trkpt>
      <trkpt lat="50.04446" lon="4.21271">
        <ele>226</ele>
        <time>2024-03-19T15:10:05Z</time>
      </trkpt>
      <trkpt lat="50.04442" lon="4.21279">
        <ele>226</ele>
        <time>2024-03-19T15:10:06Z</time>
      </trkpt>
      <trkpt lat="50.04439" lon="4.21288">
        <ele>226.2</ele>
        <time>2024-03-19T15:10:07Z</time>
      </trkpt>
      <trkpt lat="50.04439" lon="4.21288">
        <ele>226.6</ele>
        <time>2024-03-19T15:10:08Z</time>
      </trkpt>
      <trkpt lat="50.04431" lon="4.21305">
        <ele>226.8</ele>
        <time>2024-03-19T15:10:09Z</time>
      </trkpt>
      <trkpt lat="50.04427" lon="4.21313">
        <ele>226.8</ele>
        <time>2024-03-19T15:10:10Z</time>
      </trkpt>
      <trkpt lat="50.04423" lon="4.21322">
        <ele>227.2</ele>
        <time>2024-03-19T15:10:11Z</time>
      </trkpt>
      <trkpt lat="50.04419" lon="4.21331">
        <ele>227.2</ele>
        <time>2024-03-19T15:10:12Z</time>
      </trkpt>
      <trkpt lat="50.04416" lon="4.2134">
        <ele>227.4</ele>
        <time>2024-03-19T15:10:13Z</time>
      </trkpt>
      <trkpt lat="50.04413" lon="4.21348">
        <ele>227.4</ele>
        <time>2024-03-19T15:10:14Z</time>
      </trkpt>
      <trkpt lat="50.04409" lon="4.21357">
        <ele>227.4</ele>
        <time>2024-03-19T15:10:15Z</time>
      </trkpt>
      <trkpt lat="50.04406" lon="4.21365">
        <ele>227.6</ele>
        <time>2024-03-19T15:10:16Z</time>
      </trkpt>
      <trkpt lat="50.04403" lon="4.21374">
        <ele>227.6</ele>
        <time>2024-03-19T15:10:17Z</time>
      </trkpt>
      <trkpt lat="50.044" lon="4.21382">
        <ele>227.8</ele>
        <time>2024-03-19T15:10:18Z</time>
      </trkpt>
      <trkpt lat="50.044" lon="4.21382">
        <ele>228.2</ele>
        <time>2024-03-19T15:10:19Z</time>
      </trkpt>
      <trkpt lat="50.04394" lon="4.21398">
        <ele>228.6</ele>
        <time>2024-03-19T15:10:20Z</time>
      </trkpt>
      <trkpt lat="50.04391" lon="4.21405">
        <ele>229.2</ele>
        <time>2024-03-19T15:10:21Z</time>
      </trkpt>
      <trkpt lat="50.04388" lon="4.21413">
        <ele>229.2</ele>
        <time>2024-03-19T15:10:22Z</time>
      </trkpt>
      <trkpt lat="50.04385" lon="4.2142">
        <ele>229.4</ele>
        <time>2024-03-19T15:10:23Z</time>
      </trkpt>
      <trkpt lat="50.04382" lon="4.21427">
        <ele>229.8</ele>
        <time>2024-03-19T15:10:24Z</time>
      </trkpt>
      <trkpt lat="50.04378" lon="4.21434">
        <ele>230.2</ele>
        <time>2024-03-19T15:10:25Z</time>
      </trkpt>
      <trkpt lat="50.04375" lon="4.2144">
        <ele>230.8</ele>
        <time>2024-03-19T15:10:26Z</time>
      </trkpt>
      <trkpt lat="50.04372" lon="4.21447">
        <ele>231.2</ele>
        <time>2024-03-19T15:10:27Z</time>
      </trkpt>
      <trkpt lat="50.04369" lon="4.21453">
        <ele>231.6</ele>
        <time>2024-03-19T15:10:28Z</time>
      </trkpt>
      <trkpt lat="50.04366" lon="4.21459">
        <ele>231.8</ele>
        <time>2024-03-19T15:10:29Z</time>
      </trkpt>
      <trkpt lat="50.04366" lon="4.21459">
        <ele>232</ele>
        <time>2024-03-19T15:10:30Z</time>
      </trkpt>
      <trkpt lat="50.04359" lon="4.2147">
        <ele>232.6</ele>
        <time>2024-03-19T15:10:31Z</time>
      </trkpt>
      <trkpt lat="50.04356" lon="4.21475">
        <ele>233.2</ele>
        <time>2024-03-19T15:10:32Z</time>
      </trkpt>
      <trkpt lat="50.04353" lon="4.2148">
        <ele>233.8</ele>
        <time>2024-03-19T15:10:33Z</time>
      </trkpt>
      <trkpt lat="50.0435" lon="4.21486">
        <ele>234.4</ele>
        <time>2024-03-19T15:10:34Z</time>
      </trkpt>
      <trkpt lat="50.04348" lon="4.2149">
        <ele>234.4</ele>
        <time>2024-03-19T15:10:35Z</time>
      </trkpt>
      <trkpt lat="50.04345" lon="4.21495">
        <ele>235</ele>
        <time>2024-03-19T15:10:36Z</time>
      </trkpt>
      <trkpt lat="50.04342" lon="4.215">
        <ele>235.4</ele>
        <time>2024-03-19T15:10:37Z</time>
      </trkpt>
      <trkpt lat="50.04339" lon="4.21505">
        <ele>235.4</ele>
        <time>2024-03-19T15:10:38Z</time>
      </trkpt>
      <trkpt lat="50.04336" lon="4.21509">
        <ele>235.6</ele>
        <time>2024-03-19T15:10:39Z</time>
      </trkpt>
      <trkpt lat="50.04333" lon="4.21514">
        <ele>236</ele>
        <time>2024-03-19T15:10:40Z</time>
      </trkpt>
      <trkpt lat="50.04333" lon="4.21514">
        <ele>236.2</ele>
        <time>2024-03-19T15:10:41Z</time>
      </trkpt>
      <trkpt lat="50.04327" lon="4.21523">
        <ele>236.8</ele>
        <time>2024-03-19T15:10:42Z</time>
      </trkpt>
      <trkpt lat="50.04324" lon="4.21527">
        <ele>237.6</ele>
        <time>2024-03-19T15:10:43Z</time>
      </trkpt>
      <trkpt lat="50.04321" lon="4.21532">
        <ele>238</ele>
        <time>2024-03-19T15:10:44Z</time>
      </trkpt>
      <trkpt lat="50.04318" lon="4.21536">
        <ele>238.2</ele>
        <time>2024-03-19T15:10:45Z</time>
      </trkpt>
      <trkpt lat="50.04314" lon="4.2154">
        <ele>239</ele>
        <time>2024-03-19T15:10:46Z</time>
      </trkpt>
      <trkpt lat="50.04311" lon="4.21543">
        <ele>239.2</ele>
        <time>2024-03-19T15:10:47Z</time>
      </trkpt>
      <trkpt lat="50.04307" lon="4.21547">
        <ele>239.6</ele>
        <time>2024-03-19T15:10:48Z</time>
      </trkpt>
      <trkpt lat="50.04303" lon="4.21549">
        <ele>240</ele>
        <time>2024-03-19T15:10:49Z</time>
      </trkpt>
      <trkpt lat="50.04299" lon="4.21551">
        <ele>240.6</ele>
        <time>2024-03-19T15:10:50Z</time>
      </trkpt>
      <trkpt lat="50.04295" lon="4.21553">
        <ele>240.6</ele>
        <time>2024-03-19T15:10:51Z</time>
      </trkpt>
      <trkpt lat="50.04295" lon="4.21553">
        <ele>241</ele>
        <time>2024-03-19T15:10:52Z</time>
      </trkpt>
      <trkpt lat="50.04286" lon="4.21555">
        <ele>241</ele>
        <time>2024-03-19T15:10:53Z</time>
      </trkpt>
      <trkpt lat="50.04282" lon="4.21556">
        <ele>241</ele>
        <time>2024-03-19T15:10:54Z</time>
      </trkpt>
      <trkpt lat="50.04277" lon="4.21556">
        <ele>241.2</ele>
        <time>2024-03-19T15:10:55Z</time>
      </trkpt>
      <trkpt lat="50.04273" lon="4.21557">
        <ele>241.4</ele>
        <time>2024-03-19T15:10:56Z</time>
      </trkpt>
      <trkpt lat="50.04269" lon="4.21557">
        <ele>241.4</ele>
        <time>2024-03-19T15:10:57Z</time>
      </trkpt>
      <trkpt lat="50.04264" lon="4.21557">
        <ele>242</ele>
        <time>2024-03-19T15:10:58Z</time>
      </trkpt>
      <trkpt lat="50.0426" lon="4.21556">
        <ele>242.4</ele>
        <time>2024-03-19T15:10:59Z</time>
      </trkpt>
      <trkpt lat="50.04255" lon="4.21556">
        <ele>243.4</ele>
        <time>2024-03-19T15:11:00Z</time>
      </trkpt>
      <trkpt lat="50.04251" lon="4.21556">
        <ele>243.6</ele>
        <time>2024-03-19T15:11:01Z</time>
      </trkpt>
      <trkpt lat="50.04246" lon="4.21556">
        <ele>244.2</ele>
        <time>2024-03-19T15:11:02Z</time>
      </trkpt>
      <trkpt lat="50.04246" lon="4.21556">
        <ele>244.4</ele>
        <time>2024-03-19T15:11:03Z</time>
      </trkpt>
      <trkpt lat="50.04237" lon="4.21556">
        <ele>244.6</ele>
        <time>2024-03-19T15:11:04Z</time>
      </trkpt>
      <trkpt lat="50.04233" lon="4.21556">
        <ele>244.8</ele>
        <time>2024-03-19T15:11:05Z</time>
      </trkpt>
      <trkpt lat="50.04228" lon="4.21556">
        <ele>244.8</ele>
        <time>2024-03-19T15:11:06Z</time>
      </trkpt>
      <trkpt lat="50.04224" lon="4.21556">
        <ele>245.2</ele>
        <time>2024-03-19T15:11:07Z</time>
      </trkpt>
      <trkpt lat="50.04219" lon="4.21556">
        <ele>245.4</ele>
        <time>2024-03-19T15:11:08Z</time>
      </trkpt>
      <trkpt lat="50.04215" lon="4.21556">
        <ele>245.6</ele>
        <time>2024-03-19T15:11:09Z</time>
      </trkpt>
      <trkpt lat="50.04211" lon="4.21556">
        <ele>246</ele>
        <time>2024-03-19T15:11:10Z</time>
      </trkpt>
      <trkpt lat="50.04206" lon="4.21555">
        <ele>246</ele>
        <time>2024-03-19T15:11:11Z</time>
      </trkpt>
      <trkpt lat="50.04202" lon="4.21555">
        <ele>246.2</ele>
        <time>2024-03-19T15:11:12Z</time>
      </trkpt>
      <trkpt lat="50.04197" lon="4.21555">
        <ele>246.4</ele>
        <time>2024-03-19T15:11:13Z</time>
      </trkpt>
      <trkpt lat="50.04197" lon="4.21555">
        <ele>246.6</ele>
        <time>2024-03-19T15:11:14Z</time>
      </trkpt>
      <trkpt lat="50.04188" lon="4.21554">
        <ele>246.8</ele>
        <time>2024-03-19T15:11:15Z</time>
      </trkpt>
      <trkpt lat="50.04184" lon="4.21554">
        <ele>246.8</ele>
        <time>2024-03-19T15:11:16Z</time>
      </trkpt>
      <trkpt lat="50.04179" lon="4.21554">
        <ele>247.2</ele>
        <time>2024-03-19T15:11:17Z</time>
      </trkpt>
      <trkpt lat="50.04175" lon="4.21553">
        <ele>247.8</ele>
        <time>2024-03-19T15:11:18Z</time>
      </trkpt>
      <trkpt lat="50.04175" lon="4.21553">
        <ele>248.2</ele>
        <time>2024-03-19T15:11:19Z</time>
      </trkpt>
      <trkpt lat="50.04166" lon="4.21553">
        <ele>248.6</ele>
        <time>2024-03-19T15:11:20Z</time>
      </trkpt>
      <trkpt lat="50.04162" lon="4.21553">
        <ele>248.8</ele>
        <time>2024-03-19T15:11:21Z</time>
      </trkpt>
      <trkpt lat="50.04158" lon="4.21553">
        <ele>249.4</ele>
        <time>2024-03-19T15:11:22Z</time>
      </trkpt>
      <trkpt lat="50.04154" lon="4.21553">
        <ele>249.8</ele>
        <time>2024-03-19T15:11:23Z</time>
      </trkpt>
      <trkpt lat="50.0415" lon="4.21553">
        <ele>250.2</ele>
        <time>2024-03-19T15:11:24Z</time>
      </trkpt>
      <trkpt lat="50.0415" lon="4.21553">
        <ele>250.4</ele>
        <time>2024-03-19T15:11:25Z</time>
      </trkpt>
      <trkpt lat="50.04142" lon="4.21553">
        <ele>250.8</ele>
        <time>2024-03-19T15:11:26Z</time>
      </trkpt>
      <trkpt lat="50.04138" lon="4.21553">
        <ele>251</ele>
        <time>2024-03-19T15:11:27Z</time>
      </trkpt>
      <trkpt lat="50.04134" lon="4.21552">
        <ele>251.4</ele>
        <time>2024-03-19T15:11:28Z</time>
      </trkpt>
      <trkpt lat="50.0413" lon="4.21552">
        <ele>251.8</ele>
        <time>2024-03-19T15:11:29Z</time>
      </trkpt>
      <trkpt lat="50.04126" lon="4.21552">
        <ele>251.8</ele>
        <time>2024-03-19T15:11:30Z</time>
      </trkpt>
      <trkpt lat="50.04121" lon="4.21552">
        <ele>252.4</ele>
        <time>2024-03-19T15:11:31Z</time>
      </trkpt>
      <trkpt lat="50.04117" lon="4.21552">
        <ele>252.8</ele>
        <time>2024-03-19T15:11:32Z</time>
      </trkpt>
      <trkpt lat="50.04113" lon="4.21552">
        <ele>253</ele>
        <time>2024-03-19T15:11:33Z</time>
      </trkpt>
      <trkpt lat="50.04109" lon="4.21552">
        <ele>253.6</ele>
        <time>2024-03-19T15:11:34Z</time>
      </trkpt>
      <trkpt lat="50.04105" lon="4.21552">
        <ele>254</ele>
        <time>2024-03-19T15:11:35Z</time>
      </trkpt>
      <trkpt lat="50.04105" lon="4.21552">
        <ele>254.6</ele>
        <time>2024-03-19T15:11:36Z</time>
      </trkpt>
      <trkpt lat="50.04101" lon="4.21553">
        <ele>255</ele>
        <time>2024-03-19T15:11:37Z</time>
      </trkpt>
      <trkpt lat="50.04092" lon="4.21555">
        <ele>255.6</ele>
        <time>2024-03-19T15:11:38Z</time>
      </trkpt>
      <trkpt lat="50.04088" lon="4.21557">
        <ele>256</ele>
        <time>2024-03-19T15:11:39Z</time>
      </trkpt>
      <trkpt lat="50.04084" lon="4.21559">
        <ele>256.2</ele>
        <time>2024-03-19T15:11:40Z</time>
      </trkpt>
      <trkpt lat="50.0408" lon="4.21562">
        <ele>256.6</ele>
        <time>2024-03-19T15:11:41Z</time>
      </trkpt>
      <trkpt lat="50.04075" lon="4.21565">
        <ele>256.6</ele>
        <time>2024-03-19T15:11:42Z</time>
      </trkpt>
      <trkpt lat="50.04071" lon="4.21569">
        <ele>257</ele>
        <time>2024-03-19T15:11:43Z</time>
      </trkpt>
      <trkpt lat="50.04067" lon="4.21574">
        <ele>257.6</ele>
        <time>2024-03-19T15:11:44Z</time>
      </trkpt>
      <trkpt lat="50.04063" lon="4.21579">
        <ele>258</ele>
        <time>2024-03-19T15:11:45Z</time>
      </trkpt>
      <trkpt lat="50.04059" lon="4.21584">
        <ele>258.2</ele>
        <time>2024-03-19T15:11:46Z</time>
      </trkpt>
      <trkpt lat="50.04059" lon="4.21584">
        <ele>258.4</ele>
        <time>2024-03-19T15:11:47Z</time>
      </trkpt>
      <trkpt lat="50.04051" lon="4.21596">
        <ele>258.6</ele>
        <time>2024-03-19T15:11:48Z</time>
      </trkpt>
      <trkpt lat="50.04051" lon="4.21596">
        <ele>258.6</ele>
        <time>2024-03-19T15:11:49Z</time>
      </trkpt>
      <trkpt lat="50.04047" lon="4.21603">
        <ele>258.8</ele>
        <time>2024-03-19T15:11:50Z</time>
      </trkpt>
      <trkpt lat="50.0404" lon="4.21616">
        <ele>258.8</ele>
        <time>2024-03-19T15:11:51Z</time>
      </trkpt>
      <trkpt lat="50.04036" lon="4.21622">
        <ele>259</ele>
        <time>2024-03-19T15:11:52Z</time>
      </trkpt>
      <trkpt lat="50.04036" lon="4.21622">
        <ele>259.2</ele>
        <time>2024-03-19T15:11:53Z</time>
      </trkpt>
      <trkpt lat="50.04028" lon="4.21636">
        <ele>259.4</ele>
        <time>2024-03-19T15:11:54Z</time>
      </trkpt>
      <trkpt lat="50.04028" lon="4.21636">
        <ele>259.6</ele>
        <time>2024-03-19T15:11:55Z</time>
      </trkpt>
      <trkpt lat="50.04018" lon="4.21645">
        <ele>259.8</ele>
        <time>2024-03-19T15:11:56Z</time>
      </trkpt>
      <trkpt lat="50.04018" lon="4.21645">
        <ele>259.8</ele>
        <time>2024-03-19T15:11:57Z</time>
      </trkpt>
      <trkpt lat="50.04007" lon="4.21649">
        <ele>259.8</ele>
        <time>2024-03-19T15:11:58Z</time>
      </trkpt>
      <trkpt lat="50.04001" lon="4.21649">
        <ele>260</ele>
        <time>2024-03-19T15:11:59Z</time>
      </trkpt>
      <trkpt lat="50.03995" lon="4.21649">
        <ele>260</ele>
        <time>2024-03-19T15:12:00Z</time>
      </trkpt>
      <trkpt lat="50.0399" lon="4.21648">
        <ele>260.2</ele>
        <time>2024-03-19T15:12:01Z</time>
      </trkpt>
      <trkpt lat="50.03983" lon="4.21648">
        <ele>260.2</ele>
        <time>2024-03-19T15:12:02Z</time>
      </trkpt>
      <trkpt lat="50.03977" lon="4.21649">
        <ele>260.2</ele>
        <time>2024-03-19T15:12:03Z</time>
      </trkpt>
      <trkpt lat="50.03971" lon="4.21649">
        <ele>260.2</ele>
        <time>2024-03-19T15:12:04Z</time>
      </trkpt>
      <trkpt lat="50.03971" lon="4.21649">
        <ele>260.2</ele>
        <time>2024-03-19T15:12:05Z</time>
      </trkpt>
      <trkpt lat="50.03965" lon="4.2165">
        <ele>260.2</ele>
        <time>2024-03-19T15:12:06Z</time>
      </trkpt>
      <trkpt lat="50.03959" lon="4.21653">
        <ele>260.4</ele>
        <time>2024-03-19T15:12:07Z</time>
      </trkpt>
      <trkpt lat="50.03953" lon="4.21656">
        <ele>260.6</ele>
        <time>2024-03-19T15:12:08Z</time>
      </trkpt>
      <trkpt lat="50.03948" lon="4.21661">
        <ele>261</ele>
        <time>2024-03-19T15:12:09Z</time>
      </trkpt>
      <trkpt lat="50.03943" lon="4.21667">
        <ele>261</ele>
        <time>2024-03-19T15:12:10Z</time>
      </trkpt>
      <trkpt lat="50.03934" lon="4.21681">
        <ele>261.2</ele>
        <time>2024-03-19T15:12:11Z</time>
      </trkpt>
      <trkpt lat="50.03929" lon="4.21689">
        <ele>261.4</ele>
        <time>2024-03-19T15:12:12Z</time>
      </trkpt>
      <trkpt lat="50.03929" lon="4.21689">
        <ele>261.4</ele>
        <time>2024-03-19T15:12:13Z</time>
      </trkpt>
      <trkpt lat="50.03924" lon="4.21696">
        <ele>261.6</ele>
        <time>2024-03-19T15:12:14Z</time>
      </trkpt>
      <trkpt lat="50.0392" lon="4.21704">
        <ele>261.8</ele>
        <time>2024-03-19T15:12:15Z</time>
      </trkpt>
      <trkpt lat="50.0391" lon="4.2172">
        <ele>262</ele>
        <time>2024-03-19T15:12:16Z</time>
      </trkpt>
      <trkpt lat="50.03906" lon="4.21727">
        <ele>262</ele>
        <time>2024-03-19T15:12:17Z</time>
      </trkpt>
      <trkpt lat="50.03901" lon="4.21735">
        <ele>262</ele>
        <time>2024-03-19T15:12:18Z</time>
      </trkpt>
      <trkpt lat="50.03896" lon="4.21743">
        <ele>262.2</ele>
        <time>2024-03-19T15:12:19Z</time>
      </trkpt>
      <trkpt lat="50.03892" lon="4.21751">
        <ele>262.4</ele>
        <time>2024-03-19T15:12:20Z</time>
      </trkpt>
      <trkpt lat="50.03888" lon="4.21759">
        <ele>262.4</ele>
        <time>2024-03-19T15:12:21Z</time>
      </trkpt>
      <trkpt lat="50.03884" lon="4.21768">
        <ele>262.6</ele>
        <time>2024-03-19T15:12:22Z</time>
      </trkpt>
      <trkpt lat="50.03881" lon="4.21777">
        <ele>262.6</ele>
        <time>2024-03-19T15:12:23Z</time>
      </trkpt>
      <trkpt lat="50.03878" lon="4.21786">
        <ele>262.6</ele>
        <time>2024-03-19T15:12:24Z</time>
      </trkpt>
      <trkpt lat="50.03875" lon="4.21795">
        <ele>263</ele>
        <time>2024-03-19T15:12:25Z</time>
      </trkpt>
      <trkpt lat="50.03872" lon="4.21805">
        <ele>263</ele>
        <time>2024-03-19T15:12:26Z</time>
      </trkpt>
      <trkpt lat="50.0387" lon="4.21815">
        <ele>263</ele>
        <time>2024-03-19T15:12:27Z</time>
      </trkpt>
      <trkpt lat="50.03868" lon="4.21825">
        <ele>263.2</ele>
        <time>2024-03-19T15:12:28Z</time>
      </trkpt>
      <trkpt lat="50.03866" lon="4.21835">
        <ele>263.2</ele>
        <time>2024-03-19T15:12:29Z</time>
      </trkpt>
      <trkpt lat="50.03864" lon="4.21846">
        <ele>263</ele>
        <time>2024-03-19T15:12:30Z</time>
      </trkpt>
      <trkpt lat="50.03864" lon="4.21846">
        <ele>263.2</ele>
        <time>2024-03-19T15:12:31Z</time>
      </trkpt>
      <trkpt lat="50.03861" lon="4.21866">
        <ele>263.4</ele>
        <time>2024-03-19T15:12:32Z</time>
      </trkpt>
      <trkpt lat="50.03859" lon="4.21877">
        <ele>263.6</ele>
        <time>2024-03-19T15:12:33Z</time>
      </trkpt>
      <trkpt lat="50.03857" lon="4.21888">
        <ele>263.8</ele>
        <time>2024-03-19T15:12:34Z</time>
      </trkpt>
      <trkpt lat="50.03855" lon="4.21899">
        <ele>264.2</ele>
        <time>2024-03-19T15:12:35Z</time>
      </trkpt>
      <trkpt lat="50.03853" lon="4.2191">
        <ele>264</ele>
        <time>2024-03-19T15:12:36Z</time>
      </trkpt>
      <trkpt lat="50.03851" lon="4.21921">
        <ele>264.2</ele>
        <time>2024-03-19T15:12:37Z</time>
      </trkpt>
      <trkpt lat="50.03849" lon="4.21932">
        <ele>264.2</ele>
        <time>2024-03-19T15:12:38Z</time>
      </trkpt>
      <trkpt lat="50.03847" lon="4.21943">
        <ele>264.2</ele>
        <time>2024-03-19T15:12:39Z</time>
      </trkpt>
      <trkpt lat="50.03845" lon="4.21954">
        <ele>264.4</ele>
        <time>2024-03-19T15:12:40Z</time>
      </trkpt>
      <trkpt lat="50.03843" lon="4.21965">
        <ele>264.4</ele>
        <time>2024-03-19T15:12:41Z</time>
      </trkpt>
      <trkpt lat="50.03843" lon="4.21965">
        <ele>264.2</ele>
        <time>2024-03-19T15:12:42Z</time>
      </trkpt>
      <trkpt lat="50.03838" lon="4.21989">
        <ele>264.4</ele>
        <time>2024-03-19T15:12:43Z</time>
      </trkpt>
      <trkpt lat="50.03836" lon="4.22001">
        <ele>264.4</ele>
        <time>2024-03-19T15:12:44Z</time>
      </trkpt>
      <trkpt lat="50.03834" lon="4.22013">
        <ele>264.2</ele>
        <time>2024-03-19T15:12:45Z</time>
      </trkpt>
      <trkpt lat="50.03832" lon="4.22026">
        <ele>264.2</ele>
        <time>2024-03-19T15:12:46Z</time>
      </trkpt>
      <trkpt lat="50.0383" lon="4.22038">
        <ele>264.2</ele>
        <time>2024-03-19T15:12:47Z</time>
      </trkpt>
      <trkpt lat="50.03828" lon="4.22051">
        <ele>264.2</ele>
        <time>2024-03-19T15:12:48Z</time>
      </trkpt>
      <trkpt lat="50.03825" lon="4.22064">
        <ele>264</ele>
        <time>2024-03-19T15:12:49Z</time>
      </trkpt>
      <trkpt lat="50.03823" lon="4.22078">
        <ele>264</ele>
        <time>2024-03-19T15:12:50Z</time>
      </trkpt>
      <trkpt lat="50.03821" lon="4.22091">
        <ele>263.6</ele>
        <time>2024-03-19T15:12:51Z</time>
      </trkpt>
      <trkpt lat="50.03821" lon="4.22091">
        <ele>263</ele>
        <time>2024-03-19T15:12:52Z</time>
      </trkpt>
      <trkpt lat="50.03818" lon="4.22105">
        <ele>262.6</ele>
        <time>2024-03-19T15:12:53Z</time>
      </trkpt>
      <trkpt lat="50.03815" lon="4.22118">
        <ele>262</ele>
        <time>2024-03-19T15:12:54Z</time>
      </trkpt>
      <trkpt lat="50.03807" lon="4.22144">
        <ele>261.6</ele>
        <time>2024-03-19T15:12:55Z</time>
      </trkpt>
      <trkpt lat="50.03802" lon="4.22157">
        <ele>261.2</ele>
        <time>2024-03-19T15:12:56Z</time>
      </trkpt>
      <trkpt lat="50.03798" lon="4.22171">
        <ele>261</ele>
        <time>2024-03-19T15:12:57Z</time>
      </trkpt>
      <trkpt lat="50.03794" lon="4.22186">
        <ele>261</ele>
        <time>2024-03-19T15:12:58Z</time>
      </trkpt>
      <trkpt lat="50.03791" lon="4.22202">
        <ele>260.6</ele>
        <time>2024-03-19T15:12:59Z</time>
      </trkpt>
      <trkpt lat="50.03789" lon="4.22219">
        <ele>260</ele>
        <time>2024-03-19T15:13:00Z</time>
      </trkpt>
      <trkpt lat="50.03787" lon="4.22236">
        <ele>259.4</ele>
        <time>2024-03-19T15:13:01Z</time>
      </trkpt>
      <trkpt lat="50.03785" lon="4.22253">
        <ele>259</ele>
        <time>2024-03-19T15:13:02Z</time>
      </trkpt>
      <trkpt lat="50.03781" lon="4.22271">
        <ele>258.6</ele>
        <time>2024-03-19T15:13:03Z</time>
      </trkpt>
      <trkpt lat="50.03781" lon="4.22271">
        <ele>258</ele>
        <time>2024-03-19T15:13:04Z</time>
      </trkpt>
      <trkpt lat="50.03775" lon="4.22287">
        <ele>257</ele>
        <time>2024-03-19T15:13:05Z</time>
      </trkpt>
      <trkpt lat="50.03756" lon="4.2231">
        <ele>256.4</ele>
        <time>2024-03-19T15:13:06Z</time>
      </trkpt>
      <trkpt lat="50.03756" lon="4.2231">
        <ele>255.8</ele>
        <time>2024-03-19T15:13:07Z</time>
      </trkpt>
      <trkpt lat="50.03734" lon="4.22324">
        <ele>255.6</ele>
        <time>2024-03-19T15:13:08Z</time>
      </trkpt>
      <trkpt lat="50.03724" lon="4.2233">
        <ele>255.2</ele>
        <time>2024-03-19T15:13:09Z</time>
      </trkpt>
      <trkpt lat="50.03714" lon="4.22336">
        <ele>254.6</ele>
        <time>2024-03-19T15:13:10Z</time>
      </trkpt>
      <trkpt lat="50.03705" lon="4.22342">
        <ele>253.2</ele>
        <time>2024-03-19T15:13:11Z</time>
      </trkpt>
      <trkpt lat="50.03697" lon="4.2235">
        <ele>251.6</ele>
        <time>2024-03-19T15:13:12Z</time>
      </trkpt>
      <trkpt lat="50.03689" lon="4.22357">
        <ele>250.2</ele>
        <time>2024-03-19T15:13:13Z</time>
      </trkpt>
      <trkpt lat="50.03682" lon="4.22365">
        <ele>249.2</ele>
        <time>2024-03-19T15:13:14Z</time>
      </trkpt>
      <trkpt lat="50.03675" lon="4.22373">
        <ele>248.8</ele>
        <time>2024-03-19T15:13:15Z</time>
      </trkpt>
      <trkpt lat="50.03669" lon="4.22381">
        <ele>248.8</ele>
        <time>2024-03-19T15:13:16Z</time>
      </trkpt>
      <trkpt lat="50.03663" lon="4.22389">
        <ele>248.8</ele>
        <time>2024-03-19T15:13:17Z</time>
      </trkpt>
      <trkpt lat="50.03657" lon="4.22396">
        <ele>248.6</ele>
        <time>2024-03-19T15:13:18Z</time>
      </trkpt>
      <trkpt lat="50.03651" lon="4.22404">
        <ele>248.6</ele>
        <time>2024-03-19T15:13:19Z</time>
      </trkpt>
      <trkpt lat="50.03645" lon="4.22411">
        <ele>248.6</ele>
        <time>2024-03-19T15:13:20Z</time>
      </trkpt>
      <trkpt lat="50.03639" lon="4.22417">
        <ele>248.4</ele>
        <time>2024-03-19T15:13:21Z</time>
      </trkpt>
      <trkpt lat="50.03639" lon="4.22417">
        <ele>248.6</ele>
        <time>2024-03-19T15:13:22Z</time>
      </trkpt>
      <trkpt lat="50.03626" lon="4.22424">
        <ele>248.6</ele>
        <time>2024-03-19T15:13:23Z</time>
      </trkpt>
      <trkpt lat="50.03619" lon="4.22424">
        <ele>248.6</ele>
        <time>2024-03-19T15:13:24Z</time>
      </trkpt>
      <trkpt lat="50.03612" lon="4.22422">
        <ele>248.6</ele>
        <time>2024-03-19T15:13:25Z</time>
      </trkpt>
      <trkpt lat="50.03612" lon="4.22422">
        <ele>249.2</ele>
        <time>2024-03-19T15:13:26Z</time>
      </trkpt>
      <trkpt lat="50.036" lon="4.22414">
        <ele>249.6</ele>
        <time>2024-03-19T15:13:27Z</time>
      </trkpt>
      <trkpt lat="50.03594" lon="4.22408">
        <ele>250.2</ele>
        <time>2024-03-19T15:13:28Z</time>
      </trkpt>
      <trkpt lat="50.03588" lon="4.22402">
        <ele>250.6</ele>
        <time>2024-03-19T15:13:29Z</time>
      </trkpt>
      <trkpt lat="50.03582" lon="4.22396">
        <ele>250.8</ele>
        <time>2024-03-19T15:13:30Z</time>
      </trkpt>
      <trkpt lat="50.03576" lon="4.22391">
        <ele>251.2</ele>
        <time>2024-03-19T15:13:31Z</time>
      </trkpt>
      <trkpt lat="50.0357" lon="4.22387">
        <ele>251.4</ele>
        <time>2024-03-19T15:13:32Z</time>
      </trkpt>
      <trkpt lat="50.03564" lon="4.22387">
        <ele>251.6</ele>
        <time>2024-03-19T15:13:33Z</time>
      </trkpt>
      <trkpt lat="50.03558" lon="4.22389">
        <ele>251.6</ele>
        <time>2024-03-19T15:13:34Z</time>
      </trkpt>
      <trkpt lat="50.03552" lon="4.22394">
        <ele>251.8</ele>
        <time>2024-03-19T15:13:35Z</time>
      </trkpt>
      <trkpt lat="50.03547" lon="4.22399">
        <ele>251.8</ele>
        <time>2024-03-19T15:13:36Z</time>
      </trkpt>
      <trkpt lat="50.03542" lon="4.22405">
        <ele>251.8</ele>
        <time>2024-03-19T15:13:37Z</time>
      </trkpt>
      <trkpt lat="50.03537" lon="4.2241">
        <ele>252</ele>
        <time>2024-03-19T15:13:38Z</time>
      </trkpt>
      <trkpt lat="50.03532" lon="4.22417">
        <ele>252</ele>
        <time>2024-03-19T15:13:39Z</time>
      </trkpt>
      <trkpt lat="50.03528" lon="4.22424">
        <ele>252.2</ele>
        <time>2024-03-19T15:13:40Z</time>
      </trkpt>
      <trkpt lat="50.03524" lon="4.22431">
        <ele>252.6</ele>
        <time>2024-03-19T15:13:41Z</time>
      </trkpt>
      <trkpt lat="50.0352" lon="4.22439">
        <ele>252.8</ele>
        <time>2024-03-19T15:13:42Z</time>
      </trkpt>
      <trkpt lat="50.03516" lon="4.22446">
        <ele>253.2</ele>
        <time>2024-03-19T15:13:43Z</time>
      </trkpt>
      <trkpt lat="50.03512" lon="4.22452">
        <ele>253.6</ele>
        <time>2024-03-19T15:13:44Z</time>
      </trkpt>
      <trkpt lat="50.03507" lon="4.22457">
        <ele>254</ele>
        <time>2024-03-19T15:13:45Z</time>
      </trkpt>
      <trkpt lat="50.03502" lon="4.22462">
        <ele>254.2</ele>
        <time>2024-03-19T15:13:46Z</time>
      </trkpt>
      <trkpt lat="50.03498" lon="4.22466">
        <ele>254.4</ele>
        <time>2024-03-19T15:13:47Z</time>
      </trkpt>
      <trkpt lat="50.03493" lon="4.2247">
        <ele>254.6</ele>
        <time>2024-03-19T15:13:48Z</time>
      </trkpt>
      <trkpt lat="50.03488" lon="4.22474">
        <ele>255</ele>
        <time>2024-03-19T15:13:49Z</time>
      </trkpt>
      <trkpt lat="50.03483" lon="4.22477">
        <ele>255.6</ele>
        <time>2024-03-19T15:13:50Z</time>
      </trkpt>
      <trkpt lat="50.03478" lon="4.22479">
        <ele>256.2</ele>
        <time>2024-03-19T15:13:51Z</time>
      </trkpt>
      <trkpt lat="50.03473" lon="4.22481">
        <ele>256.4</ele>
        <time>2024-03-19T15:13:52Z</time>
      </trkpt>
      <trkpt lat="50.03467" lon="4.22482">
        <ele>256.6</ele>
        <time>2024-03-19T15:13:53Z</time>
      </trkpt>
      <trkpt lat="50.03462" lon="4.22483">
        <ele>256.6</ele>
        <time>2024-03-19T15:13:54Z</time>
      </trkpt>
      <trkpt lat="50.03457" lon="4.22483">
        <ele>257.2</ele>
        <time>2024-03-19T15:13:55Z</time>
      </trkpt>
      <trkpt lat="50.03452" lon="4.22484">
        <ele>257.6</ele>
        <time>2024-03-19T15:13:56Z</time>
      </trkpt>
      <trkpt lat="50.03447" lon="4.22484">
        <ele>257.8</ele>
        <time>2024-03-19T15:13:57Z</time>
      </trkpt>
      <trkpt lat="50.03442" lon="4.22485">
        <ele>258</ele>
        <time>2024-03-19T15:13:58Z</time>
      </trkpt>
      <trkpt lat="50.03437" lon="4.22485">
        <ele>258.6</ele>
        <time>2024-03-19T15:13:59Z</time>
      </trkpt>
      <trkpt lat="50.03432" lon="4.22485">
        <ele>259</ele>
        <time>2024-03-19T15:14:00Z</time>
      </trkpt>
      <trkpt lat="50.03427" lon="4.22485">
        <ele>259.2</ele>
        <time>2024-03-19T15:14:01Z</time>
      </trkpt>
      <trkpt lat="50.03422" lon="4.22485">
        <ele>259.8</ele>
        <time>2024-03-19T15:14:02Z</time>
      </trkpt>
      <trkpt lat="50.03416" lon="4.22484">
        <ele>260.2</ele>
        <time>2024-03-19T15:14:03Z</time>
      </trkpt>
      <trkpt lat="50.03411" lon="4.22484">
        <ele>260.4</ele>
        <time>2024-03-19T15:14:04Z</time>
      </trkpt>
      <trkpt lat="50.03405" lon="4.22484">
        <ele>261.2</ele>
        <time>2024-03-19T15:14:05Z</time>
      </trkpt>
      <trkpt lat="50.034" lon="4.22484">
        <ele>261.6</ele>
        <time>2024-03-19T15:14:06Z</time>
      </trkpt>
      <trkpt lat="50.03394" lon="4.22484">
        <ele>261.8</ele>
        <time>2024-03-19T15:14:07Z</time>
      </trkpt>
      <trkpt lat="50.03389" lon="4.22484">
        <ele>262.2</ele>
        <time>2024-03-19T15:14:08Z</time>
      </trkpt>
      <trkpt lat="50.03383" lon="4.22484">
        <ele>262.2</ele>
        <time>2024-03-19T15:14:09Z</time>
      </trkpt>
      <trkpt lat="50.03378" lon="4.22484">
        <ele>262.4</ele>
        <time>2024-03-19T15:14:10Z</time>
      </trkpt>
      <trkpt lat="50.03372" lon="4.22484">
        <ele>262.8</ele>
        <time>2024-03-19T15:14:11Z</time>
      </trkpt>
      <trkpt lat="50.03367" lon="4.22484">
        <ele>263</ele>
        <time>2024-03-19T15:14:12Z</time>
      </trkpt>
      <trkpt lat="50.03362" lon="4.22484">
        <ele>263</ele>
        <time>2024-03-19T15:14:13Z</time>
      </trkpt>
      <trkpt lat="50.03356" lon="4.22484">
        <ele>263.4</ele>
        <time>2024-03-19T15:14:14Z</time>
      </trkpt>
      <trkpt lat="50.03351" lon="4.22484">
        <ele>263.6</ele>
        <time>2024-03-19T15:14:15Z</time>
      </trkpt>
      <trkpt lat="50.03345" lon="4.22484">
        <ele>263.8</ele>
        <time>2024-03-19T15:14:16Z</time>
      </trkpt>
      <trkpt lat="50.0334" lon="4.22484">
        <ele>264.2</ele>
        <time>2024-03-19T15:14:17Z</time>
      </trkpt>
      <trkpt lat="50.03334" lon="4.22485">
        <ele>264.4</ele>
        <time>2024-03-19T15:14:18Z</time>
      </trkpt>
      <trkpt lat="50.03329" lon="4.22486">
        <ele>264.8</ele>
        <time>2024-03-19T15:14:19Z</time>
      </trkpt>
      <trkpt lat="50.03324" lon="4.22488">
        <ele>265.2</ele>
        <time>2024-03-19T15:14:20Z</time>
      </trkpt>
      <trkpt lat="50.03319" lon="4.2249">
        <ele>265.4</ele>
        <time>2024-03-19T15:14:21Z</time>
      </trkpt>
      <trkpt lat="50.03314" lon="4.22493">
        <ele>265.6</ele>
        <time>2024-03-19T15:14:22Z</time>
      </trkpt>
      <trkpt lat="50.0331" lon="4.22497">
        <ele>266.2</ele>
        <time>2024-03-19T15:14:23Z</time>
      </trkpt>
      <trkpt lat="50.03305" lon="4.22501">
        <ele>266.6</ele>
        <time>2024-03-19T15:14:24Z</time>
      </trkpt>
      <trkpt lat="50.03301" lon="4.22505">
        <ele>266.8</ele>
        <time>2024-03-19T15:14:25Z</time>
      </trkpt>
      <trkpt lat="50.03297" lon="4.2251">
        <ele>266.8</ele>
        <time>2024-03-19T15:14:26Z</time>
      </trkpt>
      <trkpt lat="50.03293" lon="4.22515">
        <ele>267</ele>
        <time>2024-03-19T15:14:27Z</time>
      </trkpt>
      <trkpt lat="50.03289" lon="4.22519">
        <ele>267.2</ele>
        <time>2024-03-19T15:14:28Z</time>
      </trkpt>
      <trkpt lat="50.03285" lon="4.22524">
        <ele>267.4</ele>
        <time>2024-03-19T15:14:29Z</time>
      </trkpt>
      <trkpt lat="50.0328" lon="4.22528">
        <ele>267.8</ele>
        <time>2024-03-19T15:14:30Z</time>
      </trkpt>
      <trkpt lat="50.03276" lon="4.22533">
        <ele>268</ele>
        <time>2024-03-19T15:14:31Z</time>
      </trkpt>
      <trkpt lat="50.03272" lon="4.22537">
        <ele>268.4</ele>
        <time>2024-03-19T15:14:32Z</time>
      </trkpt>
      <trkpt lat="50.03268" lon="4.22542">
        <ele>268.6</ele>
        <time>2024-03-19T15:14:33Z</time>
      </trkpt>
      <trkpt lat="50.03264" lon="4.22547">
        <ele>269</ele>
        <time>2024-03-19T15:14:34Z</time>
      </trkpt>
      <trkpt lat="50.0326" lon="4.22552">
        <ele>269.4</ele>
        <time>2024-03-19T15:14:35Z</time>
      </trkpt>
      <trkpt lat="50.03256" lon="4.22556">
        <ele>269.6</ele>
        <time>2024-03-19T15:14:36Z</time>
      </trkpt>
      <trkpt lat="50.03252" lon="4.22561">
        <ele>270</ele>
        <time>2024-03-19T15:14:37Z</time>
      </trkpt>
      <trkpt lat="50.03248" lon="4.22566">
        <ele>270.2</ele>
        <time>2024-03-19T15:14:38Z</time>
      </trkpt>
      <trkpt lat="50.03243" lon="4.22571">
        <ele>270.8</ele>
        <time>2024-03-19T15:14:39Z</time>
      </trkpt>
      <trkpt lat="50.03239" lon="4.22576">
        <ele>270.8</ele>
        <time>2024-03-19T15:14:40Z</time>
      </trkpt>
      <trkpt lat="50.03235" lon="4.22581">
        <ele>271.2</ele>
        <time>2024-03-19T15:14:41Z</time>
      </trkpt>
      <trkpt lat="50.03231" lon="4.22586">
        <ele>271.2</ele>
        <time>2024-03-19T15:14:42Z</time>
      </trkpt>
      <trkpt lat="50.03226" lon="4.22591">
        <ele>271.2</ele>
        <time>2024-03-19T15:14:43Z</time>
      </trkpt>
      <trkpt lat="50.03222" lon="4.22597">
        <ele>271.8</ele>
        <time>2024-03-19T15:14:44Z</time>
      </trkpt>
      <trkpt lat="50.03217" lon="4.22602">
        <ele>272</ele>
        <time>2024-03-19T15:14:45Z</time>
      </trkpt>
      <trkpt lat="50.03213" lon="4.22607">
        <ele>272.6</ele>
        <time>2024-03-19T15:14:46Z</time>
      </trkpt>
      <trkpt lat="50.03208" lon="4.22612">
        <ele>272.6</ele>
        <time>2024-03-19T15:14:47Z</time>
      </trkpt>
      <trkpt lat="50.03204" lon="4.22618">
        <ele>272.8</ele>
        <time>2024-03-19T15:14:48Z</time>
      </trkpt>
      <trkpt lat="50.032" lon="4.22623">
        <ele>273</ele>
        <time>2024-03-19T15:14:49Z</time>
      </trkpt>
      <trkpt lat="50.03195" lon="4.22629">
        <ele>273</ele>
        <time>2024-03-19T15:14:50Z</time>
      </trkpt>
      <trkpt lat="50.03191" lon="4.22634">
        <ele>273</ele>
        <time>2024-03-19T15:14:51Z</time>
      </trkpt>
      <trkpt lat="50.03186" lon="4.22639">
        <ele>273.2</ele>
        <time>2024-03-19T15:14:52Z</time>
      </trkpt>
      <trkpt lat="50.03181" lon="4.22645">
        <ele>273.4</ele>
        <time>2024-03-19T15:14:53Z</time>
      </trkpt>
      <trkpt lat="50.03177" lon="4.22651">
        <ele>273.4</ele>
        <time>2024-03-19T15:14:54Z</time>
      </trkpt>
      <trkpt lat="50.03172" lon="4.22656">
        <ele>273.8</ele>
        <time>2024-03-19T15:14:55Z</time>
      </trkpt>
      <trkpt lat="50.03167" lon="4.22662">
        <ele>274</ele>
        <time>2024-03-19T15:14:56Z</time>
      </trkpt>
      <trkpt lat="50.03163" lon="4.22667">
        <ele>274.2</ele>
        <time>2024-03-19T15:14:57Z</time>
      </trkpt>
      <trkpt lat="50.03157" lon="4.22672">
        <ele>274.4</ele>
        <time>2024-03-19T15:14:58Z</time>
      </trkpt>
      <trkpt lat="50.03152" lon="4.22676">
        <ele>275</ele>
        <time>2024-03-19T15:14:59Z</time>
      </trkpt>
      <trkpt lat="50.03146" lon="4.22679">
        <ele>275</ele>
        <time>2024-03-19T15:15:00Z</time>
      </trkpt>
      <trkpt lat="50.03141" lon="4.22682">
        <ele>275.2</ele>
        <time>2024-03-19T15:15:01Z</time>
      </trkpt>
      <trkpt lat="50.03135" lon="4.22685">
        <ele>275.2</ele>
        <time>2024-03-19T15:15:02Z</time>
      </trkpt>
      <trkpt lat="50.03129" lon="4.22688">
        <ele>275.4</ele>
        <time>2024-03-19T15:15:03Z</time>
      </trkpt>
      <trkpt lat="50.03123" lon="4.22691">
        <ele>275.6</ele>
        <time>2024-03-19T15:15:04Z</time>
      </trkpt>
      <trkpt lat="50.03123" lon="4.22691">
        <ele>275.6</ele>
        <time>2024-03-19T15:15:05Z</time>
      </trkpt>
      <trkpt lat="50.03111" lon="4.22697">
        <ele>275.8</ele>
        <time>2024-03-19T15:15:06Z</time>
      </trkpt>
      <trkpt lat="50.03105" lon="4.227">
        <ele>275.8</ele>
        <time>2024-03-19T15:15:07Z</time>
      </trkpt>
      <trkpt lat="50.03099" lon="4.22703">
        <ele>276</ele>
        <time>2024-03-19T15:15:08Z</time>
      </trkpt>
      <trkpt lat="50.03093" lon="4.22706">
        <ele>276</ele>
        <time>2024-03-19T15:15:09Z</time>
      </trkpt>
      <trkpt lat="50.03086" lon="4.22708">
        <ele>276.2</ele>
        <time>2024-03-19T15:15:10Z</time>
      </trkpt>
      <trkpt lat="50.0308" lon="4.22711">
        <ele>276.6</ele>
        <time>2024-03-19T15:15:11Z</time>
      </trkpt>
      <trkpt lat="50.03074" lon="4.22713">
        <ele>276.8</ele>
        <time>2024-03-19T15:15:12Z</time>
      </trkpt>
      <trkpt lat="50.03067" lon="4.22716">
        <ele>277</ele>
        <time>2024-03-19T15:15:13Z</time>
      </trkpt>
      <trkpt lat="50.03061" lon="4.22719">
        <ele>277.2</ele>
        <time>2024-03-19T15:15:14Z</time>
      </trkpt>
      <trkpt lat="50.03054" lon="4.22722">
        <ele>277.2</ele>
        <time>2024-03-19T15:15:15Z</time>
      </trkpt>
      <trkpt lat="50.03048" lon="4.22725">
        <ele>277.2</ele>
        <time>2024-03-19T15:15:16Z</time>
      </trkpt>
      <trkpt lat="50.03041" lon="4.22727">
        <ele>277.4</ele>
        <time>2024-03-19T15:15:17Z</time>
      </trkpt>
      <trkpt lat="50.03034" lon="4.2273">
        <ele>277.4</ele>
        <time>2024-03-19T15:15:18Z</time>
      </trkpt>
      <trkpt lat="50.03027" lon="4.22733">
        <ele>277.4</ele>
        <time>2024-03-19T15:15:19Z</time>
      </trkpt>
      <trkpt lat="50.0302" lon="4.22735">
        <ele>277.2</ele>
        <time>2024-03-19T15:15:20Z</time>
      </trkpt>
      <trkpt lat="50.03013" lon="4.22738">
        <ele>277.2</ele>
        <time>2024-03-19T15:15:21Z</time>
      </trkpt>
      <trkpt lat="50.03006" lon="4.22742">
        <ele>277.4</ele>
        <time>2024-03-19T15:15:22Z</time>
      </trkpt>
      <trkpt lat="50.02999" lon="4.22745">
        <ele>277.4</ele>
        <time>2024-03-19T15:15:23Z</time>
      </trkpt>
      <trkpt lat="50.02992" lon="4.22748">
        <ele>277.4</ele>
        <time>2024-03-19T15:15:24Z</time>
      </trkpt>
      <trkpt lat="50.02985" lon="4.22751">
        <ele>277.4</ele>
        <time>2024-03-19T15:15:25Z</time>
      </trkpt>
      <trkpt lat="50.02978" lon="4.22753">
        <ele>277.4</ele>
        <time>2024-03-19T15:15:26Z</time>
      </trkpt>
      <trkpt lat="50.02971" lon="4.22756">
        <ele>277.4</ele>
        <time>2024-03-19T15:15:27Z</time>
      </trkpt>
      <trkpt lat="50.02964" lon="4.22759">
        <ele>277.2</ele>
        <time>2024-03-19T15:15:28Z</time>
      </trkpt>
      <trkpt lat="50.02957" lon="4.22763">
        <ele>277.4</ele>
        <time>2024-03-19T15:15:29Z</time>
      </trkpt>
      <trkpt lat="50.0295" lon="4.22765">
        <ele>277.4</ele>
        <time>2024-03-19T15:15:30Z</time>
      </trkpt>
      <trkpt lat="50.02943" lon="4.22767">
        <ele>277.2</ele>
        <time>2024-03-19T15:15:31Z</time>
      </trkpt>
      <trkpt lat="50.02936" lon="4.22769">
        <ele>277.2</ele>
        <time>2024-03-19T15:15:32Z</time>
      </trkpt>
      <trkpt lat="50.02928" lon="4.22772">
        <ele>277</ele>
        <time>2024-03-19T15:15:33Z</time>
      </trkpt>
      <trkpt lat="50.02921" lon="4.22774">
        <ele>277</ele>
        <time>2024-03-19T15:15:34Z</time>
      </trkpt>
      <trkpt lat="50.02914" lon="4.22777">
        <ele>277</ele>
        <time>2024-03-19T15:15:35Z</time>
      </trkpt>
      <trkpt lat="50.02906" lon="4.2278">
        <ele>276.8</ele>
        <time>2024-03-19T15:15:36Z</time>
      </trkpt>
      <trkpt lat="50.02898" lon="4.22783">
        <ele>276.6</ele>
        <time>2024-03-19T15:15:37Z</time>
      </trkpt>
      <trkpt lat="50.0289" lon="4.22786">
        <ele>276.4</ele>
        <time>2024-03-19T15:15:38Z</time>
      </trkpt>
      <trkpt lat="50.02883" lon="4.22788">
        <ele>276.2</ele>
        <time>2024-03-19T15:15:39Z</time>
      </trkpt>
      <trkpt lat="50.02875" lon="4.22792">
        <ele>275.8</ele>
        <time>2024-03-19T15:15:40Z</time>
      </trkpt>
      <trkpt lat="50.02867" lon="4.22795">
        <ele>275.6</ele>
        <time>2024-03-19T15:15:41Z</time>
      </trkpt>
      <trkpt lat="50.0286" lon="4.22797">
        <ele>275</ele>
        <time>2024-03-19T15:15:42Z</time>
      </trkpt>
      <trkpt lat="50.02852" lon="4.228">
        <ele>274.6</ele>
        <time>2024-03-19T15:15:43Z</time>
      </trkpt>
      <trkpt lat="50.02844" lon="4.22803">
        <ele>274.2</ele>
        <time>2024-03-19T15:15:44Z</time>
      </trkpt>
      <trkpt lat="50.02837" lon="4.22806">
        <ele>273.8</ele>
        <time>2024-03-19T15:15:45Z</time>
      </trkpt>
      <trkpt lat="50.02829" lon="4.22809">
        <ele>273.8</ele>
        <time>2024-03-19T15:15:46Z</time>
      </trkpt>
      <trkpt lat="50.02822" lon="4.22812">
        <ele>273.6</ele>
        <time>2024-03-19T15:15:47Z</time>
      </trkpt>
      <trkpt lat="50.02815" lon="4.22815">
        <ele>273.2</ele>
        <time>2024-03-19T15:15:48Z</time>
      </trkpt>
      <trkpt lat="50.02808" lon="4.22817">
        <ele>272.8</ele>
        <time>2024-03-19T15:15:49Z</time>
      </trkpt>
      <trkpt lat="50.02801" lon="4.2282">
        <ele>272.6</ele>
        <time>2024-03-19T15:15:50Z</time>
      </trkpt>
      <trkpt lat="50.02794" lon="4.22822">
        <ele>272.6</ele>
        <time>2024-03-19T15:15:51Z</time>
      </trkpt>
      <trkpt lat="50.02788" lon="4.22824">
        <ele>272.4</ele>
        <time>2024-03-19T15:15:52Z</time>
      </trkpt>
      <trkpt lat="50.02781" lon="4.22827">
        <ele>272.4</ele>
        <time>2024-03-19T15:15:53Z</time>
      </trkpt>
      <trkpt lat="50.02774" lon="4.22828">
        <ele>272.4</ele>
        <time>2024-03-19T15:15:54Z</time>
      </trkpt>
      <trkpt lat="50.02768" lon="4.2283">
        <ele>272.4</ele>
        <time>2024-03-19T15:15:55Z</time>
      </trkpt>
      <trkpt lat="50.02761" lon="4.22833">
        <ele>272.4</ele>
        <time>2024-03-19T15:15:56Z</time>
      </trkpt>
      <trkpt lat="50.02755" lon="4.22835">
        <ele>272.4</ele>
        <time>2024-03-19T15:15:57Z</time>
      </trkpt>
      <trkpt lat="50.02748" lon="4.22837">
        <ele>272.4</ele>
        <time>2024-03-19T15:15:58Z</time>
      </trkpt>
      <trkpt lat="50.02741" lon="4.22839">
        <ele>272.2</ele>
        <time>2024-03-19T15:15:59Z</time>
      </trkpt>
      <trkpt lat="50.02735" lon="4.2284">
        <ele>272.6</ele>
        <time>2024-03-19T15:16:00Z</time>
      </trkpt>
      <trkpt lat="50.02728" lon="4.22842">
        <ele>272.6</ele>
        <time>2024-03-19T15:16:01Z</time>
      </trkpt>
      <trkpt lat="50.02722" lon="4.22845">
        <ele>272.8</ele>
        <time>2024-03-19T15:16:02Z</time>
      </trkpt>
      <trkpt lat="50.02716" lon="4.22848">
        <ele>273</ele>
        <time>2024-03-19T15:16:03Z</time>
      </trkpt>
      <trkpt lat="50.0271" lon="4.2285">
        <ele>273.8</ele>
        <time>2024-03-19T15:16:04Z</time>
      </trkpt>
      <trkpt lat="50.02704" lon="4.22852">
        <ele>274.4</ele>
        <time>2024-03-19T15:16:05Z</time>
      </trkpt>
      <trkpt lat="50.02698" lon="4.22855">
        <ele>274.8</ele>
        <time>2024-03-19T15:16:06Z</time>
      </trkpt>
      <trkpt lat="50.02692" lon="4.22858">
        <ele>275.2</ele>
        <time>2024-03-19T15:16:07Z</time>
      </trkpt>
      <trkpt lat="50.02686" lon="4.2286">
        <ele>275.2</ele>
        <time>2024-03-19T15:16:08Z</time>
      </trkpt>
      <trkpt lat="50.0268" lon="4.22862">
        <ele>275.6</ele>
        <time>2024-03-19T15:16:09Z</time>
      </trkpt>
      <trkpt lat="50.02674" lon="4.22864">
        <ele>275.8</ele>
        <time>2024-03-19T15:16:10Z</time>
      </trkpt>
      <trkpt lat="50.02668" lon="4.22867">
        <ele>275.8</ele>
        <time>2024-03-19T15:16:11Z</time>
      </trkpt>
      <trkpt lat="50.02662" lon="4.22869">
        <ele>276</ele>
        <time>2024-03-19T15:16:12Z</time>
      </trkpt>
      <trkpt lat="50.02656" lon="4.22871">
        <ele>276.4</ele>
        <time>2024-03-19T15:16:13Z</time>
      </trkpt>
      <trkpt lat="50.0265" lon="4.22874">
        <ele>276.4</ele>
        <time>2024-03-19T15:16:14Z</time>
      </trkpt>
      <trkpt lat="50.02644" lon="4.22875">
        <ele>276.4</ele>
        <time>2024-03-19T15:16:15Z</time>
      </trkpt>
      <trkpt lat="50.02638" lon="4.22878">
        <ele>276.6</ele>
        <time>2024-03-19T15:16:16Z</time>
      </trkpt>
      <trkpt lat="50.02633" lon="4.2288">
        <ele>276.8</ele>
        <time>2024-03-19T15:16:17Z</time>
      </trkpt>
      <trkpt lat="50.02626" lon="4.22882">
        <ele>276.8</ele>
        <time>2024-03-19T15:16:18Z</time>
      </trkpt>
      <trkpt lat="50.0262" lon="4.22884">
        <ele>276.8</ele>
        <time>2024-03-19T15:16:19Z</time>
      </trkpt>
      <trkpt lat="50.02614" lon="4.22886">
        <ele>277.2</ele>
        <time>2024-03-19T15:16:20Z</time>
      </trkpt>
      <trkpt lat="50.02608" lon="4.22889">
        <ele>277.4</ele>
        <time>2024-03-19T15:16:21Z</time>
      </trkpt>
      <trkpt lat="50.02602" lon="4.22891">
        <ele>277.6</ele>
        <time>2024-03-19T15:16:22Z</time>
      </trkpt>
      <trkpt lat="50.02596" lon="4.22894">
        <ele>277.6</ele>
        <time>2024-03-19T15:16:23Z</time>
      </trkpt>
      <trkpt lat="50.0259" lon="4.22896">
        <ele>277.8</ele>
        <time>2024-03-19T15:16:24Z</time>
      </trkpt>
      <trkpt lat="50.02585" lon="4.22899">
        <ele>278</ele>
        <time>2024-03-19T15:16:25Z</time>
      </trkpt>
      <trkpt lat="50.02578" lon="4.22902">
        <ele>278.2</ele>
        <time>2024-03-19T15:16:26Z</time>
      </trkpt>
      <trkpt lat="50.02572" lon="4.22904">
        <ele>278.4</ele>
        <time>2024-03-19T15:16:27Z</time>
      </trkpt>
      <trkpt lat="50.02566" lon="4.22906">
        <ele>279</ele>
        <time>2024-03-19T15:16:28Z</time>
      </trkpt>
      <trkpt lat="50.02558" lon="4.2291">
        <ele>279.6</ele>
        <time>2024-03-19T15:16:29Z</time>
      </trkpt>
      <trkpt lat="50.02552" lon="4.22912">
        <ele>280</ele>
        <time>2024-03-19T15:16:30Z</time>
      </trkpt>
      <trkpt lat="50.02545" lon="4.22914">
        <ele>280</ele>
        <time>2024-03-19T15:16:31Z</time>
      </trkpt>
      <trkpt lat="50.02538" lon="4.22916">
        <ele>280</ele>
        <time>2024-03-19T15:16:32Z</time>
      </trkpt>
      <trkpt lat="50.02532" lon="4.22919">
        <ele>280.2</ele>
        <time>2024-03-19T15:16:33Z</time>
      </trkpt>
      <trkpt lat="50.02525" lon="4.22921">
        <ele>280.4</ele>
        <time>2024-03-19T15:16:34Z</time>
      </trkpt>
      <trkpt lat="50.02519" lon="4.22924">
        <ele>280.6</ele>
        <time>2024-03-19T15:16:35Z</time>
      </trkpt>
      <trkpt lat="50.02513" lon="4.22926">
        <ele>281</ele>
        <time>2024-03-19T15:16:36Z</time>
      </trkpt>
      <trkpt lat="50.02507" lon="4.22929">
        <ele>281</ele>
        <time>2024-03-19T15:16:37Z</time>
      </trkpt>
      <trkpt lat="50.025" lon="4.22932">
        <ele>281.2</ele>
        <time>2024-03-19T15:16:38Z</time>
      </trkpt>
      <trkpt lat="50.02494" lon="4.22935">
        <ele>281.2</ele>
        <time>2024-03-19T15:16:39Z</time>
      </trkpt>
      <trkpt lat="50.02488" lon="4.22937">
        <ele>281.6</ele>
        <time>2024-03-19T15:16:40Z</time>
      </trkpt>
      <trkpt lat="50.02481" lon="4.2294">
        <ele>281.6</ele>
        <time>2024-03-19T15:16:41Z</time>
      </trkpt>
      <trkpt lat="50.02474" lon="4.22942">
        <ele>281.6</ele>
        <time>2024-03-19T15:16:42Z</time>
      </trkpt>
      <trkpt lat="50.02468" lon="4.22946">
        <ele>281.8</ele>
        <time>2024-03-19T15:16:43Z</time>
      </trkpt>
      <trkpt lat="50.02468" lon="4.22946">
        <ele>281.8</ele>
        <time>2024-03-19T15:16:44Z</time>
      </trkpt>
      <trkpt lat="50.02455" lon="4.22952">
        <ele>282</ele>
        <time>2024-03-19T15:16:45Z</time>
      </trkpt>
      <trkpt lat="50.02449" lon="4.22954">
        <ele>282.2</ele>
        <time>2024-03-19T15:16:46Z</time>
      </trkpt>
      <trkpt lat="50.02443" lon="4.22957">
        <ele>282.4</ele>
        <time>2024-03-19T15:16:47Z</time>
      </trkpt>
      <trkpt lat="50.02437" lon="4.2296">
        <ele>282.4</ele>
        <time>2024-03-19T15:16:48Z</time>
      </trkpt>
      <trkpt lat="50.02431" lon="4.22963">
        <ele>282.6</ele>
        <time>2024-03-19T15:16:49Z</time>
      </trkpt>
      <trkpt lat="50.02425" lon="4.22965">
        <ele>282.8</ele>
        <time>2024-03-19T15:16:50Z</time>
      </trkpt>
      <trkpt lat="50.02419" lon="4.22968">
        <ele>282.8</ele>
        <time>2024-03-19T15:16:51Z</time>
      </trkpt>
      <trkpt lat="50.02412" lon="4.2297">
        <ele>283</ele>
        <time>2024-03-19T15:16:52Z</time>
      </trkpt>
      <trkpt lat="50.02406" lon="4.22972">
        <ele>283.2</ele>
        <time>2024-03-19T15:16:53Z</time>
      </trkpt>
      <trkpt lat="50.02399" lon="4.22974">
        <ele>283.2</ele>
        <time>2024-03-19T15:16:54Z</time>
      </trkpt>
      <trkpt lat="50.02393" lon="4.22977">
        <ele>283.2</ele>
        <time>2024-03-19T15:16:55Z</time>
      </trkpt>
      <trkpt lat="50.02387" lon="4.2298">
        <ele>283.4</ele>
        <time>2024-03-19T15:16:56Z</time>
      </trkpt>
      <trkpt lat="50.02381" lon="4.22983">
        <ele>283.8</ele>
        <time>2024-03-19T15:16:57Z</time>
      </trkpt>
      <trkpt lat="50.02375" lon="4.22986">
        <ele>284</ele>
        <time>2024-03-19T15:16:58Z</time>
      </trkpt>
      <trkpt lat="50.02369" lon="4.22988">
        <ele>284</ele>
        <time>2024-03-19T15:16:59Z</time>
      </trkpt>
      <trkpt lat="50.02363" lon="4.2299">
        <ele>284.2</ele>
        <time>2024-03-19T15:17:00Z</time>
      </trkpt>
      <trkpt lat="50.02356" lon="4.22993">
        <ele>284.2</ele>
        <time>2024-03-19T15:17:01Z</time>
      </trkpt>
      <trkpt lat="50.0235" lon="4.22995">
        <ele>284.2</ele>
        <time>2024-03-19T15:17:02Z</time>
      </trkpt>
      <trkpt lat="50.02344" lon="4.22997">
        <ele>284.4</ele>
        <time>2024-03-19T15:17:03Z</time>
      </trkpt>
      <trkpt lat="50.02337" lon="4.22999">
        <ele>284.4</ele>
        <time>2024-03-19T15:17:04Z</time>
      </trkpt>
      <trkpt lat="50.0233" lon="4.23001">
        <ele>284.6</ele>
        <time>2024-03-19T15:17:05Z</time>
      </trkpt>
      <trkpt lat="50.02324" lon="4.23004">
        <ele>284.6</ele>
        <time>2024-03-19T15:17:06Z</time>
      </trkpt>
      <trkpt lat="50.02317" lon="4.23006">
        <ele>284.6</ele>
        <time>2024-03-19T15:17:07Z</time>
      </trkpt>
      <trkpt lat="50.0231" lon="4.23008">
        <ele>284.8</ele>
        <time>2024-03-19T15:17:08Z</time>
      </trkpt>
      <trkpt lat="50.02304" lon="4.23011">
        <ele>285</ele>
        <time>2024-03-19T15:17:09Z</time>
      </trkpt>
      <trkpt lat="50.02296" lon="4.23013">
        <ele>285.2</ele>
        <time>2024-03-19T15:17:10Z</time>
      </trkpt>
      <trkpt lat="50.02289" lon="4.23015">
        <ele>285.4</ele>
        <time>2024-03-19T15:17:11Z</time>
      </trkpt>
      <trkpt lat="50.02282" lon="4.23017">
        <ele>285.4</ele>
        <time>2024-03-19T15:17:12Z</time>
      </trkpt>
      <trkpt lat="50.02275" lon="4.2302">
        <ele>285.6</ele>
        <time>2024-03-19T15:17:13Z</time>
      </trkpt>
      <trkpt lat="50.02269" lon="4.23024">
        <ele>285.8</ele>
        <time>2024-03-19T15:17:14Z</time>
      </trkpt>
      <trkpt lat="50.02262" lon="4.23027">
        <ele>285.8</ele>
        <time>2024-03-19T15:17:15Z</time>
      </trkpt>
      <trkpt lat="50.02255" lon="4.23029">
        <ele>285.8</ele>
        <time>2024-03-19T15:17:16Z</time>
      </trkpt>
      <trkpt lat="50.02248" lon="4.23031">
        <ele>285.8</ele>
        <time>2024-03-19T15:17:17Z</time>
      </trkpt>
      <trkpt lat="50.02241" lon="4.23034">
        <ele>286</ele>
        <time>2024-03-19T15:17:18Z</time>
      </trkpt>
      <trkpt lat="50.02234" lon="4.23036">
        <ele>286</ele>
        <time>2024-03-19T15:17:19Z</time>
      </trkpt>
      <trkpt lat="50.02227" lon="4.23039">
        <ele>286.2</ele>
        <time>2024-03-19T15:17:20Z</time>
      </trkpt>
      <trkpt lat="50.0222" lon="4.23042">
        <ele>286.2</ele>
        <time>2024-03-19T15:17:21Z</time>
      </trkpt>
      <trkpt lat="50.02213" lon="4.23044">
        <ele>286.2</ele>
        <time>2024-03-19T15:17:22Z</time>
      </trkpt>
      <trkpt lat="50.02206" lon="4.23047">
        <ele>286.4</ele>
        <time>2024-03-19T15:17:23Z</time>
      </trkpt>
      <trkpt lat="50.022" lon="4.23049">
        <ele>286.4</ele>
        <time>2024-03-19T15:17:24Z</time>
      </trkpt>
      <trkpt lat="50.02192" lon="4.23051">
        <ele>286.6</ele>
        <time>2024-03-19T15:17:25Z</time>
      </trkpt>
      <trkpt lat="50.02186" lon="4.23054">
        <ele>286.4</ele>
        <time>2024-03-19T15:17:26Z</time>
      </trkpt>
      <trkpt lat="50.02179" lon="4.23056">
        <ele>286.4</ele>
        <time>2024-03-19T15:17:27Z</time>
      </trkpt>
      <trkpt lat="50.02172" lon="4.23059">
        <ele>286.6</ele>
        <time>2024-03-19T15:17:28Z</time>
      </trkpt>
      <trkpt lat="50.02165" lon="4.23061">
        <ele>286.6</ele>
        <time>2024-03-19T15:17:29Z</time>
      </trkpt>
      <trkpt lat="50.02158" lon="4.23064">
        <ele>286.6</ele>
        <time>2024-03-19T15:17:30Z</time>
      </trkpt>
      <trkpt lat="50.02151" lon="4.23067">
        <ele>286.6</ele>
        <time>2024-03-19T15:17:31Z</time>
      </trkpt>
      <trkpt lat="50.02144" lon="4.2307">
        <ele>286.6</ele>
        <time>2024-03-19T15:17:32Z</time>
      </trkpt>
      <trkpt lat="50.02138" lon="4.23073">
        <ele>286.6</ele>
        <time>2024-03-19T15:17:33Z</time>
      </trkpt>
      <trkpt lat="50.02131" lon="4.23076">
        <ele>286.8</ele>
        <time>2024-03-19T15:17:34Z</time>
      </trkpt>
      <trkpt lat="50.02124" lon="4.23079">
        <ele>286.8</ele>
        <time>2024-03-19T15:17:35Z</time>
      </trkpt>
      <trkpt lat="50.02117" lon="4.23082">
        <ele>286.8</ele>
        <time>2024-03-19T15:17:36Z</time>
      </trkpt>
      <trkpt lat="50.0211" lon="4.23085">
        <ele>286.8</ele>
        <time>2024-03-19T15:17:37Z</time>
      </trkpt>
      <trkpt lat="50.02103" lon="4.23088">
        <ele>286.8</ele>
        <time>2024-03-19T15:17:38Z</time>
      </trkpt>
      <trkpt lat="50.02096" lon="4.2309">
        <ele>286.8</ele>
        <time>2024-03-19T15:17:39Z</time>
      </trkpt>
      <trkpt lat="50.02089" lon="4.23093">
        <ele>286.8</ele>
        <time>2024-03-19T15:17:40Z</time>
      </trkpt>
      <trkpt lat="50.02082" lon="4.23095">
        <ele>286.8</ele>
        <time>2024-03-19T15:17:41Z</time>
      </trkpt>
      <trkpt lat="50.02075" lon="4.23098">
        <ele>286.8</ele>
        <time>2024-03-19T15:17:42Z</time>
      </trkpt>
      <trkpt lat="50.02068" lon="4.231">
        <ele>287</ele>
        <time>2024-03-19T15:17:43Z</time>
      </trkpt>
      <trkpt lat="50.0206" lon="4.23103">
        <ele>286.8</ele>
        <time>2024-03-19T15:17:44Z</time>
      </trkpt>
      <trkpt lat="50.02053" lon="4.23106">
        <ele>287</ele>
        <time>2024-03-19T15:17:45Z</time>
      </trkpt>
      <trkpt lat="50.02046" lon="4.23109">
        <ele>287</ele>
        <time>2024-03-19T15:17:46Z</time>
      </trkpt>
      <trkpt lat="50.02039" lon="4.23111">
        <ele>287</ele>
        <time>2024-03-19T15:17:47Z</time>
      </trkpt>
      <trkpt lat="50.02032" lon="4.23114">
        <ele>287</ele>
        <time>2024-03-19T15:17:48Z</time>
      </trkpt>
      <trkpt lat="50.02025" lon="4.23117">
        <ele>287</ele>
        <time>2024-03-19T15:17:49Z</time>
      </trkpt>
      <trkpt lat="50.02018" lon="4.2312">
        <ele>287</ele>
        <time>2024-03-19T15:17:50Z</time>
      </trkpt>
      <trkpt lat="50.02011" lon="4.23123">
        <ele>287</ele>
        <time>2024-03-19T15:17:51Z</time>
      </trkpt>
      <trkpt lat="50.02004" lon="4.23126">
        <ele>287</ele>
        <time>2024-03-19T15:17:52Z</time>
      </trkpt>
      <trkpt lat="50.01997" lon="4.23129">
        <ele>287</ele>
        <time>2024-03-19T15:17:53Z</time>
      </trkpt>
      <trkpt lat="50.0199" lon="4.23131">
        <ele>287</ele>
        <time>2024-03-19T15:17:54Z</time>
      </trkpt>
      <trkpt lat="50.01983" lon="4.23133">
        <ele>287</ele>
        <time>2024-03-19T15:17:55Z</time>
      </trkpt>
      <trkpt lat="50.01976" lon="4.23136">
        <ele>287</ele>
        <time>2024-03-19T15:17:56Z</time>
      </trkpt>
      <trkpt lat="50.01969" lon="4.23139">
        <ele>286.8</ele>
        <time>2024-03-19T15:17:57Z</time>
      </trkpt>
      <trkpt lat="50.01962" lon="4.23142">
        <ele>287</ele>
        <time>2024-03-19T15:17:58Z</time>
      </trkpt>
      <trkpt lat="50.01955" lon="4.23144">
        <ele>287</ele>
        <time>2024-03-19T15:17:59Z</time>
      </trkpt>
      <trkpt lat="50.01948" lon="4.23147">
        <ele>286.8</ele>
        <time>2024-03-19T15:18:00Z</time>
      </trkpt>
      <trkpt lat="50.01948" lon="4.23147">
        <ele>287</ele>
        <time>2024-03-19T15:18:01Z</time>
      </trkpt>
      <trkpt lat="50.01933" lon="4.23152">
        <ele>287</ele>
        <time>2024-03-19T15:18:02Z</time>
      </trkpt>
      <trkpt lat="50.01926" lon="4.23155">
        <ele>286.8</ele>
        <time>2024-03-19T15:18:03Z</time>
      </trkpt>
      <trkpt lat="50.01919" lon="4.23159">
        <ele>286.6</ele>
        <time>2024-03-19T15:18:04Z</time>
      </trkpt>
      <trkpt lat="50.01912" lon="4.23162">
        <ele>286.8</ele>
        <time>2024-03-19T15:18:05Z</time>
      </trkpt>
      <trkpt lat="50.01905" lon="4.23166">
        <ele>286.6</ele>
        <time>2024-03-19T15:18:06Z</time>
      </trkpt>
      <trkpt lat="50.01898" lon="4.2317">
        <ele>286.6</ele>
        <time>2024-03-19T15:18:07Z</time>
      </trkpt>
      <trkpt lat="50.01891" lon="4.23175">
        <ele>286.6</ele>
        <time>2024-03-19T15:18:08Z</time>
      </trkpt>
      <trkpt lat="50.01884" lon="4.23181">
        <ele>286.4</ele>
        <time>2024-03-19T15:18:09Z</time>
      </trkpt>
      <trkpt lat="50.01878" lon="4.23188">
        <ele>286.4</ele>
        <time>2024-03-19T15:18:10Z</time>
      </trkpt>
      <trkpt lat="50.01872" lon="4.23195">
        <ele>286.2</ele>
        <time>2024-03-19T15:18:11Z</time>
      </trkpt>
      <trkpt lat="50.01866" lon="4.23203">
        <ele>286.2</ele>
        <time>2024-03-19T15:18:12Z</time>
      </trkpt>
      <trkpt lat="50.0186" lon="4.23213">
        <ele>286</ele>
        <time>2024-03-19T15:18:13Z</time>
      </trkpt>
      <trkpt lat="50.01855" lon="4.23222">
        <ele>286</ele>
        <time>2024-03-19T15:18:14Z</time>
      </trkpt>
      <trkpt lat="50.0185" lon="4.23233">
        <ele>286</ele>
        <time>2024-03-19T15:18:15Z</time>
      </trkpt>
      <trkpt lat="50.01846" lon="4.23244">
        <ele>285.8</ele>
        <time>2024-03-19T15:18:16Z</time>
      </trkpt>
      <trkpt lat="50.01842" lon="4.23256">
        <ele>285.8</ele>
        <time>2024-03-19T15:18:17Z</time>
      </trkpt>
      <trkpt lat="50.01838" lon="4.23269">
        <ele>285.6</ele>
        <time>2024-03-19T15:18:18Z</time>
      </trkpt>
      <trkpt lat="50.01835" lon="4.23282">
        <ele>285.4</ele>
        <time>2024-03-19T15:18:19Z</time>
      </trkpt>
      <trkpt lat="50.01832" lon="4.23295">
        <ele>285.2</ele>
        <time>2024-03-19T15:18:20Z</time>
      </trkpt>
      <trkpt lat="50.01828" lon="4.23308">
        <ele>285</ele>
        <time>2024-03-19T15:18:21Z</time>
      </trkpt>
      <trkpt lat="50.01825" lon="4.23321">
        <ele>284.8</ele>
        <time>2024-03-19T15:18:22Z</time>
      </trkpt>
      <trkpt lat="50.01821" lon="4.23334">
        <ele>284.4</ele>
        <time>2024-03-19T15:18:23Z</time>
      </trkpt>
      <trkpt lat="50.01818" lon="4.23348">
        <ele>284</ele>
        <time>2024-03-19T15:18:24Z</time>
      </trkpt>
      <trkpt lat="50.01815" lon="4.23361">
        <ele>283.8</ele>
        <time>2024-03-19T15:18:25Z</time>
      </trkpt>
      <trkpt lat="50.01812" lon="4.23375">
        <ele>283.8</ele>
        <time>2024-03-19T15:18:26Z</time>
      </trkpt>
      <trkpt lat="50.01809" lon="4.23388">
        <ele>283.4</ele>
        <time>2024-03-19T15:18:27Z</time>
      </trkpt>
      <trkpt lat="50.01806" lon="4.23402">
        <ele>283</ele>
        <time>2024-03-19T15:18:28Z</time>
      </trkpt>
      <trkpt lat="50.01803" lon="4.23416">
        <ele>282.6</ele>
        <time>2024-03-19T15:18:29Z</time>
      </trkpt>
      <trkpt lat="50.018" lon="4.23429">
        <ele>282.2</ele>
        <time>2024-03-19T15:18:30Z</time>
      </trkpt>
      <trkpt lat="50.01797" lon="4.23444">
        <ele>281.4</ele>
        <time>2024-03-19T15:18:31Z</time>
      </trkpt>
      <trkpt lat="50.01794" lon="4.23458">
        <ele>280.8</ele>
        <time>2024-03-19T15:18:32Z</time>
      </trkpt>
      <trkpt lat="50.0179" lon="4.23472">
        <ele>280.2</ele>
        <time>2024-03-19T15:18:33Z</time>
      </trkpt>
      <trkpt lat="50.01787" lon="4.23487">
        <ele>279.8</ele>
        <time>2024-03-19T15:18:34Z</time>
      </trkpt>
      <trkpt lat="50.01783" lon="4.23502">
        <ele>279.4</ele>
        <time>2024-03-19T15:18:35Z</time>
      </trkpt>
      <trkpt lat="50.0178" lon="4.23517">
        <ele>279.2</ele>
        <time>2024-03-19T15:18:36Z</time>
      </trkpt>
      <trkpt lat="50.01776" lon="4.23532">
        <ele>279</ele>
        <time>2024-03-19T15:18:37Z</time>
      </trkpt>
      <trkpt lat="50.01772" lon="4.23548">
        <ele>278.6</ele>
        <time>2024-03-19T15:18:38Z</time>
      </trkpt>
      <trkpt lat="50.01769" lon="4.23563">
        <ele>277.8</ele>
        <time>2024-03-19T15:18:39Z</time>
      </trkpt>
      <trkpt lat="50.01765" lon="4.23578">
        <ele>277.4</ele>
        <time>2024-03-19T15:18:40Z</time>
      </trkpt>
      <trkpt lat="50.01761" lon="4.23594">
        <ele>277</ele>
        <time>2024-03-19T15:18:41Z</time>
      </trkpt>
      <trkpt lat="50.01757" lon="4.23609">
        <ele>277</ele>
        <time>2024-03-19T15:18:42Z</time>
      </trkpt>
      <trkpt lat="50.01754" lon="4.23623">
        <ele>276.4</ele>
        <time>2024-03-19T15:18:43Z</time>
      </trkpt>
      <trkpt lat="50.0175" lon="4.23637">
        <ele>275.8</ele>
        <time>2024-03-19T15:18:44Z</time>
      </trkpt>
      <trkpt lat="50.01746" lon="4.2365">
        <ele>275.2</ele>
        <time>2024-03-19T15:18:45Z</time>
      </trkpt>
      <trkpt lat="50.01742" lon="4.23664">
        <ele>274.4</ele>
        <time>2024-03-19T15:18:46Z</time>
      </trkpt>
      <trkpt lat="50.01738" lon="4.23677">
        <ele>274.2</ele>
        <time>2024-03-19T15:18:47Z</time>
      </trkpt>
      <trkpt lat="50.01734" lon="4.23689">
        <ele>273.8</ele>
        <time>2024-03-19T15:18:48Z</time>
      </trkpt>
      <trkpt lat="50.0173" lon="4.23701">
        <ele>273.6</ele>
        <time>2024-03-19T15:18:49Z</time>
      </trkpt>
      <trkpt lat="50.01726" lon="4.23712">
        <ele>273.4</ele>
        <time>2024-03-19T15:18:50Z</time>
      </trkpt>
      <trkpt lat="50.01721" lon="4.23723">
        <ele>273.2</ele>
        <time>2024-03-19T15:18:51Z</time>
      </trkpt>
      <trkpt lat="50.01717" lon="4.23733">
        <ele>273.2</ele>
        <time>2024-03-19T15:18:52Z</time>
      </trkpt>
      <trkpt lat="50.01713" lon="4.23744">
        <ele>273.2</ele>
        <time>2024-03-19T15:18:53Z</time>
      </trkpt>
      <trkpt lat="50.01709" lon="4.23754">
        <ele>273</ele>
        <time>2024-03-19T15:18:54Z</time>
      </trkpt>
      <trkpt lat="50.01706" lon="4.23765">
        <ele>273</ele>
        <time>2024-03-19T15:18:55Z</time>
      </trkpt>
      <trkpt lat="50.01702" lon="4.23776">
        <ele>272.8</ele>
        <time>2024-03-19T15:18:56Z</time>
      </trkpt>
      <trkpt lat="50.01698" lon="4.23787">
        <ele>272.8</ele>
        <time>2024-03-19T15:18:57Z</time>
      </trkpt>
      <trkpt lat="50.01694" lon="4.23797">
        <ele>272.8</ele>
        <time>2024-03-19T15:18:58Z</time>
      </trkpt>
      <trkpt lat="50.0169" lon="4.23808">
        <ele>272.6</ele>
        <time>2024-03-19T15:18:59Z</time>
      </trkpt>
      <trkpt lat="50.01686" lon="4.23819">
        <ele>272.6</ele>
        <time>2024-03-19T15:19:00Z</time>
      </trkpt>
      <trkpt lat="50.01681" lon="4.23829">
        <ele>272.6</ele>
        <time>2024-03-19T15:19:01Z</time>
      </trkpt>
      <trkpt lat="50.01675" lon="4.23837">
        <ele>272.6</ele>
        <time>2024-03-19T15:19:02Z</time>
      </trkpt>
      <trkpt lat="50.0167" lon="4.23845">
        <ele>272.6</ele>
        <time>2024-03-19T15:19:03Z</time>
      </trkpt>
      <trkpt lat="50.01667" lon="4.23855">
        <ele>272.6</ele>
        <time>2024-03-19T15:19:04Z</time>
      </trkpt>
      <trkpt lat="50.01667" lon="4.23866">
        <ele>272.6</ele>
        <time>2024-03-19T15:19:05Z</time>
      </trkpt>
      <trkpt lat="50.01669" lon="4.23878">
        <ele>272.4</ele>
        <time>2024-03-19T15:19:06Z</time>
      </trkpt>
      <trkpt lat="50.01671" lon="4.23889">
        <ele>271.8</ele>
        <time>2024-03-19T15:19:07Z</time>
      </trkpt>
      <trkpt lat="50.01672" lon="4.23901">
        <ele>271.4</ele>
        <time>2024-03-19T15:19:08Z</time>
      </trkpt>
      <trkpt lat="50.01674" lon="4.23913">
        <ele>271.2</ele>
        <time>2024-03-19T15:19:09Z</time>
      </trkpt>
      <trkpt lat="50.01676" lon="4.23925">
        <ele>271.2</ele>
        <time>2024-03-19T15:19:10Z</time>
      </trkpt>
      <trkpt lat="50.01677" lon="4.23937">
        <ele>271</ele>
        <time>2024-03-19T15:19:11Z</time>
      </trkpt>
      <trkpt lat="50.01679" lon="4.23949">
        <ele>270.8</ele>
        <time>2024-03-19T15:19:12Z</time>
      </trkpt>
      <trkpt lat="50.01681" lon="4.23961">
        <ele>270.4</ele>
        <time>2024-03-19T15:19:13Z</time>
      </trkpt>
      <trkpt lat="50.01683" lon="4.23972">
        <ele>270.2</ele>
        <time>2024-03-19T15:19:14Z</time>
      </trkpt>
      <trkpt lat="50.01686" lon="4.23982">
        <ele>270.4</ele>
        <time>2024-03-19T15:19:15Z</time>
      </trkpt>
      <trkpt lat="50.01689" lon="4.23992">
        <ele>270.2</ele>
        <time>2024-03-19T15:19:16Z</time>
      </trkpt>
      <trkpt lat="50.01692" lon="4.24">
        <ele>270.2</ele>
        <time>2024-03-19T15:19:17Z</time>
      </trkpt>
      <trkpt lat="50.01696" lon="4.24009">
        <ele>270.2</ele>
        <time>2024-03-19T15:19:18Z</time>
      </trkpt>
      <trkpt lat="50.01699" lon="4.24017">
        <ele>270.2</ele>
        <time>2024-03-19T15:19:19Z</time>
      </trkpt>
      <trkpt lat="50.01703" lon="4.24025">
        <ele>270.2</ele>
        <time>2024-03-19T15:19:20Z</time>
      </trkpt>
      <trkpt lat="50.01707" lon="4.24032">
        <ele>270.2</ele>
        <time>2024-03-19T15:19:21Z</time>
      </trkpt>
      <trkpt lat="50.01711" lon="4.2404">
        <ele>270.2</ele>
        <time>2024-03-19T15:19:22Z</time>
      </trkpt>
      <trkpt lat="50.01715" lon="4.24047">
        <ele>270.2</ele>
        <time>2024-03-19T15:19:23Z</time>
      </trkpt>
      <trkpt lat="50.01718" lon="4.24054">
        <ele>270</ele>
        <time>2024-03-19T15:19:24Z</time>
      </trkpt>
      <trkpt lat="50.01722" lon="4.24062">
        <ele>270.2</ele>
        <time>2024-03-19T15:19:25Z</time>
      </trkpt>
      <trkpt lat="50.01726" lon="4.24069">
        <ele>270.6</ele>
        <time>2024-03-19T15:19:26Z</time>
      </trkpt>
      <trkpt lat="50.0173" lon="4.24076">
        <ele>270.8</ele>
        <time>2024-03-19T15:19:27Z</time>
      </trkpt>
      <trkpt lat="50.01733" lon="4.24083">
        <ele>271.2</ele>
        <time>2024-03-19T15:19:28Z</time>
      </trkpt>
      <trkpt lat="50.01737" lon="4.24089">
        <ele>271.6</ele>
        <time>2024-03-19T15:19:29Z</time>
      </trkpt>
      <trkpt lat="50.01741" lon="4.24096">
        <ele>272.4</ele>
        <time>2024-03-19T15:19:30Z</time>
      </trkpt>
      <trkpt lat="50.01744" lon="4.24103">
        <ele>272.6</ele>
        <time>2024-03-19T15:19:31Z</time>
      </trkpt>
      <trkpt lat="50.01748" lon="4.2411">
        <ele>273</ele>
        <time>2024-03-19T15:19:32Z</time>
      </trkpt>
      <trkpt lat="50.01751" lon="4.24118">
        <ele>273.2</ele>
        <time>2024-03-19T15:19:33Z</time>
      </trkpt>
      <trkpt lat="50.01754" lon="4.24125">
        <ele>273.2</ele>
        <time>2024-03-19T15:19:34Z</time>
      </trkpt>
      <trkpt lat="50.01757" lon="4.24133">
        <ele>273.6</ele>
        <time>2024-03-19T15:19:35Z</time>
      </trkpt>
      <trkpt lat="50.0176" lon="4.2414">
        <ele>273.6</ele>
        <time>2024-03-19T15:19:36Z</time>
      </trkpt>
      <trkpt lat="50.01762" lon="4.24148">
        <ele>273.8</ele>
        <time>2024-03-19T15:19:37Z</time>
      </trkpt>
      <trkpt lat="50.01765" lon="4.24156">
        <ele>273.8</ele>
        <time>2024-03-19T15:19:38Z</time>
      </trkpt>
      <trkpt lat="50.01767" lon="4.24164">
        <ele>274.4</ele>
        <time>2024-03-19T15:19:39Z</time>
      </trkpt>
      <trkpt lat="50.01769" lon="4.24172">
        <ele>275.4</ele>
        <time>2024-03-19T15:19:40Z</time>
      </trkpt>
      <trkpt lat="50.01772" lon="4.2418">
        <ele>275.8</ele>
        <time>2024-03-19T15:19:41Z</time>
      </trkpt>
      <trkpt lat="50.01774" lon="4.24188">
        <ele>276.4</ele>
        <time>2024-03-19T15:19:42Z</time>
      </trkpt>
      <trkpt lat="50.01776" lon="4.24196">
        <ele>276.6</ele>
        <time>2024-03-19T15:19:43Z</time>
      </trkpt>
      <trkpt lat="50.01778" lon="4.24204">
        <ele>276.8</ele>
        <time>2024-03-19T15:19:44Z</time>
      </trkpt>
      <trkpt lat="50.0178" lon="4.24212">
        <ele>277.2</ele>
        <time>2024-03-19T15:19:45Z</time>
      </trkpt>
      <trkpt lat="50.01783" lon="4.2422">
        <ele>277.4</ele>
        <time>2024-03-19T15:19:46Z</time>
      </trkpt>
      <trkpt lat="50.01785" lon="4.24228">
        <ele>277.6</ele>
        <time>2024-03-19T15:19:47Z</time>
      </trkpt>
      <trkpt lat="50.01787" lon="4.24237">
        <ele>277.6</ele>
        <time>2024-03-19T15:19:48Z</time>
      </trkpt>
      <trkpt lat="50.0179" lon="4.24245">
        <ele>277.8</ele>
        <time>2024-03-19T15:19:49Z</time>
      </trkpt>
      <trkpt lat="50.01792" lon="4.24254">
        <ele>278.2</ele>
        <time>2024-03-19T15:19:50Z</time>
      </trkpt>
      <trkpt lat="50.01795" lon="4.24263">
        <ele>279</ele>
        <time>2024-03-19T15:19:51Z</time>
      </trkpt>
      <trkpt lat="50.01797" lon="4.24272">
        <ele>279</ele>
        <time>2024-03-19T15:19:52Z</time>
      </trkpt>
      <trkpt lat="50.018" lon="4.24281">
        <ele>279.4</ele>
        <time>2024-03-19T15:19:53Z</time>
      </trkpt>
      <trkpt lat="50.01802" lon="4.2429">
        <ele>279.8</ele>
        <time>2024-03-19T15:19:54Z</time>
      </trkpt>
      <trkpt lat="50.01805" lon="4.24299">
        <ele>280</ele>
        <time>2024-03-19T15:19:55Z</time>
      </trkpt>
      <trkpt lat="50.01807" lon="4.24308">
        <ele>280.2</ele>
        <time>2024-03-19T15:19:56Z</time>
      </trkpt>
      <trkpt lat="50.0181" lon="4.24316">
        <ele>280.6</ele>
        <time>2024-03-19T15:19:57Z</time>
      </trkpt>
      <trkpt lat="50.01812" lon="4.24326">
        <ele>280.6</ele>
        <time>2024-03-19T15:19:58Z</time>
      </trkpt>
      <trkpt lat="50.01815" lon="4.24335">
        <ele>281</ele>
        <time>2024-03-19T15:19:59Z</time>
      </trkpt>
      <trkpt lat="50.01817" lon="4.24344">
        <ele>280.8</ele>
        <time>2024-03-19T15:20:00Z</time>
      </trkpt>
      <trkpt lat="50.0182" lon="4.24353">
        <ele>281</ele>
        <time>2024-03-19T15:20:01Z</time>
      </trkpt>
      <trkpt lat="50.01822" lon="4.24363">
        <ele>281.2</ele>
        <time>2024-03-19T15:20:02Z</time>
      </trkpt>
      <trkpt lat="50.01825" lon="4.24372">
        <ele>281.4</ele>
        <time>2024-03-19T15:20:03Z</time>
      </trkpt>
      <trkpt lat="50.01828" lon="4.24382">
        <ele>281.8</ele>
        <time>2024-03-19T15:20:04Z</time>
      </trkpt>
      <trkpt lat="50.0183" lon="4.24391">
        <ele>282</ele>
        <time>2024-03-19T15:20:05Z</time>
      </trkpt>
      <trkpt lat="50.01833" lon="4.24401">
        <ele>282.2</ele>
        <time>2024-03-19T15:20:06Z</time>
      </trkpt>
      <trkpt lat="50.01836" lon="4.24411">
        <ele>282.4</ele>
        <time>2024-03-19T15:20:07Z</time>
      </trkpt>
      <trkpt lat="50.01838" lon="4.2442">
        <ele>282.4</ele>
        <time>2024-03-19T15:20:08Z</time>
      </trkpt>
      <trkpt lat="50.01841" lon="4.2443">
        <ele>282.6</ele>
        <time>2024-03-19T15:20:09Z</time>
      </trkpt>
      <trkpt lat="50.01843" lon="4.2444">
        <ele>282.6</ele>
        <time>2024-03-19T15:20:10Z</time>
      </trkpt>
      <trkpt lat="50.01846" lon="4.2445">
        <ele>282.8</ele>
        <time>2024-03-19T15:20:11Z</time>
      </trkpt>
      <trkpt lat="50.01848" lon="4.2446">
        <ele>283</ele>
        <time>2024-03-19T15:20:12Z</time>
      </trkpt>
      <trkpt lat="50.0185" lon="4.2447">
        <ele>283</ele>
        <time>2024-03-19T15:20:13Z</time>
      </trkpt>
      <trkpt lat="50.01852" lon="4.2448">
        <ele>283.2</ele>
        <time>2024-03-19T15:20:14Z</time>
      </trkpt>
      <trkpt lat="50.01853" lon="4.2449">
        <ele>283.2</ele>
        <time>2024-03-19T15:20:15Z</time>
      </trkpt>
      <trkpt lat="50.01854" lon="4.24501">
        <ele>283.2</ele>
        <time>2024-03-19T15:20:16Z</time>
      </trkpt>
      <trkpt lat="50.01855" lon="4.24511">
        <ele>283.4</ele>
        <time>2024-03-19T15:20:17Z</time>
      </trkpt>
      <trkpt lat="50.01856" lon="4.24522">
        <ele>283.4</ele>
        <time>2024-03-19T15:20:18Z</time>
      </trkpt>
      <trkpt lat="50.01857" lon="4.24532">
        <ele>283.4</ele>
        <time>2024-03-19T15:20:19Z</time>
      </trkpt>
      <trkpt lat="50.01857" lon="4.24543">
        <ele>283.4</ele>
        <time>2024-03-19T15:20:20Z</time>
      </trkpt>
      <trkpt lat="50.01857" lon="4.24553">
        <ele>283.6</ele>
        <time>2024-03-19T15:20:21Z</time>
      </trkpt>
      <trkpt lat="50.01857" lon="4.24564">
        <ele>283.6</ele>
        <time>2024-03-19T15:20:22Z</time>
      </trkpt>
      <trkpt lat="50.01857" lon="4.24574">
        <ele>283.6</ele>
        <time>2024-03-19T15:20:23Z</time>
      </trkpt>
      <trkpt lat="50.01857" lon="4.24585">
        <ele>283.6</ele>
        <time>2024-03-19T15:20:24Z</time>
      </trkpt>
      <trkpt lat="50.01857" lon="4.24596">
        <ele>283.8</ele>
        <time>2024-03-19T15:20:25Z</time>
      </trkpt>
      <trkpt lat="50.01857" lon="4.24606">
        <ele>283.8</ele>
        <time>2024-03-19T15:20:26Z</time>
      </trkpt>
      <trkpt lat="50.01856" lon="4.24617">
        <ele>283.8</ele>
        <time>2024-03-19T15:20:27Z</time>
      </trkpt>
      <trkpt lat="50.01855" lon="4.24628">
        <ele>283.8</ele>
        <time>2024-03-19T15:20:28Z</time>
      </trkpt>
      <trkpt lat="50.01854" lon="4.24638">
        <ele>283.8</ele>
        <time>2024-03-19T15:20:29Z</time>
      </trkpt>
      <trkpt lat="50.01852" lon="4.24649">
        <ele>284</ele>
        <time>2024-03-19T15:20:30Z</time>
      </trkpt>
      <trkpt lat="50.0185" lon="4.24659">
        <ele>284.2</ele>
        <time>2024-03-19T15:20:31Z</time>
      </trkpt>
      <trkpt lat="50.01847" lon="4.24669">
        <ele>284.4</ele>
        <time>2024-03-19T15:20:32Z</time>
      </trkpt>
      <trkpt lat="50.01844" lon="4.24679">
        <ele>284.6</ele>
        <time>2024-03-19T15:20:33Z</time>
      </trkpt>
      <trkpt lat="50.01841" lon="4.24688">
        <ele>284.6</ele>
        <time>2024-03-19T15:20:34Z</time>
      </trkpt>
      <trkpt lat="50.01838" lon="4.24697">
        <ele>284.8</ele>
        <time>2024-03-19T15:20:35Z</time>
      </trkpt>
      <trkpt lat="50.01834" lon="4.24706">
        <ele>285</ele>
        <time>2024-03-19T15:20:36Z</time>
      </trkpt>
      <trkpt lat="50.0183" lon="4.24714">
        <ele>285.2</ele>
        <time>2024-03-19T15:20:37Z</time>
      </trkpt>
      <trkpt lat="50.01826" lon="4.24722">
        <ele>285.4</ele>
        <time>2024-03-19T15:20:38Z</time>
      </trkpt>
      <trkpt lat="50.01822" lon="4.2473">
        <ele>285.4</ele>
        <time>2024-03-19T15:20:39Z</time>
      </trkpt>
      <trkpt lat="50.01817" lon="4.24738">
        <ele>285.4</ele>
        <time>2024-03-19T15:20:40Z</time>
      </trkpt>
      <trkpt lat="50.01813" lon="4.24745">
        <ele>285.6</ele>
        <time>2024-03-19T15:20:41Z</time>
      </trkpt>
      <trkpt lat="50.01808" lon="4.24753">
        <ele>285.6</ele>
        <time>2024-03-19T15:20:42Z</time>
      </trkpt>
      <trkpt lat="50.01808" lon="4.24753">
        <ele>285.6</ele>
        <time>2024-03-19T15:20:43Z</time>
      </trkpt>
      <trkpt lat="50.01799" lon="4.24767">
        <ele>285.8</ele>
        <time>2024-03-19T15:20:44Z</time>
      </trkpt>
      <trkpt lat="50.01794" lon="4.24774">
        <ele>285.8</ele>
        <time>2024-03-19T15:20:45Z</time>
      </trkpt>
      <trkpt lat="50.01789" lon="4.24781">
        <ele>285.8</ele>
        <time>2024-03-19T15:20:46Z</time>
      </trkpt>
      <trkpt lat="50.01784" lon="4.24788">
        <ele>286.2</ele>
        <time>2024-03-19T15:20:47Z</time>
      </trkpt>
      <trkpt lat="50.01778" lon="4.24794">
        <ele>286.2</ele>
        <time>2024-03-19T15:20:48Z</time>
      </trkpt>
      <trkpt lat="50.01773" lon="4.248">
        <ele>286.6</ele>
        <time>2024-03-19T15:20:49Z</time>
      </trkpt>
      <trkpt lat="50.01767" lon="4.24806">
        <ele>286.6</ele>
        <time>2024-03-19T15:20:50Z</time>
      </trkpt>
      <trkpt lat="50.01762" lon="4.24812">
        <ele>286.8</ele>
        <time>2024-03-19T15:20:51Z</time>
      </trkpt>
      <trkpt lat="50.01756" lon="4.24818">
        <ele>286.8</ele>
        <time>2024-03-19T15:20:52Z</time>
      </trkpt>
      <trkpt lat="50.01751" lon="4.24824">
        <ele>287.2</ele>
        <time>2024-03-19T15:20:53Z</time>
      </trkpt>
      <trkpt lat="50.01745" lon="4.2483">
        <ele>287.2</ele>
        <time>2024-03-19T15:20:54Z</time>
      </trkpt>
      <trkpt lat="50.0174" lon="4.24836">
        <ele>287.4</ele>
        <time>2024-03-19T15:20:55Z</time>
      </trkpt>
      <trkpt lat="50.01734" lon="4.24842">
        <ele>287.4</ele>
        <time>2024-03-19T15:20:56Z</time>
      </trkpt>
      <trkpt lat="50.01728" lon="4.24847">
        <ele>287.4</ele>
        <time>2024-03-19T15:20:57Z</time>
      </trkpt>
      <trkpt lat="50.01723" lon="4.24853">
        <ele>287.8</ele>
        <time>2024-03-19T15:20:58Z</time>
      </trkpt>
      <trkpt lat="50.01717" lon="4.24859">
        <ele>288</ele>
        <time>2024-03-19T15:20:59Z</time>
      </trkpt>
      <trkpt lat="50.01712" lon="4.24866">
        <ele>288.4</ele>
        <time>2024-03-19T15:21:00Z</time>
      </trkpt>
      <trkpt lat="50.01706" lon="4.24872">
        <ele>288.4</ele>
        <time>2024-03-19T15:21:01Z</time>
      </trkpt>
      <trkpt lat="50.01701" lon="4.24878">
        <ele>288.8</ele>
        <time>2024-03-19T15:21:02Z</time>
      </trkpt>
      <trkpt lat="50.01695" lon="4.24885">
        <ele>288.8</ele>
        <time>2024-03-19T15:21:03Z</time>
      </trkpt>
      <trkpt lat="50.0169" lon="4.24892">
        <ele>288.8</ele>
        <time>2024-03-19T15:21:04Z</time>
      </trkpt>
      <trkpt lat="50.01685" lon="4.249">
        <ele>289</ele>
        <time>2024-03-19T15:21:05Z</time>
      </trkpt>
      <trkpt lat="50.0168" lon="4.24908">
        <ele>289.2</ele>
        <time>2024-03-19T15:21:06Z</time>
      </trkpt>
      <trkpt lat="50.01676" lon="4.24917">
        <ele>289.2</ele>
        <time>2024-03-19T15:21:07Z</time>
      </trkpt>
      <trkpt lat="50.01671" lon="4.24926">
        <ele>289.4</ele>
        <time>2024-03-19T15:21:08Z</time>
      </trkpt>
      <trkpt lat="50.01667" lon="4.24935">
        <ele>289.4</ele>
        <time>2024-03-19T15:21:09Z</time>
      </trkpt>
      <trkpt lat="50.01663" lon="4.24944">
        <ele>289.4</ele>
        <time>2024-03-19T15:21:10Z</time>
      </trkpt>
      <trkpt lat="50.01659" lon="4.24955">
        <ele>289.6</ele>
        <time>2024-03-19T15:21:11Z</time>
      </trkpt>
      <trkpt lat="50.01656" lon="4.24965">
        <ele>289.6</ele>
        <time>2024-03-19T15:21:12Z</time>
      </trkpt>
      <trkpt lat="50.01652" lon="4.24976">
        <ele>289.6</ele>
        <time>2024-03-19T15:21:13Z</time>
      </trkpt>
      <trkpt lat="50.01649" lon="4.24987">
        <ele>289.6</ele>
        <time>2024-03-19T15:21:14Z</time>
      </trkpt>
      <trkpt lat="50.01646" lon="4.24998">
        <ele>289.6</ele>
        <time>2024-03-19T15:21:15Z</time>
      </trkpt>
      <trkpt lat="50.01644" lon="4.25009">
        <ele>289.6</ele>
        <time>2024-03-19T15:21:16Z</time>
      </trkpt>
      <trkpt lat="50.01641" lon="4.25021">
        <ele>289.6</ele>
        <time>2024-03-19T15:21:17Z</time>
      </trkpt>
      <trkpt lat="50.01639" lon="4.25032">
        <ele>289.4</ele>
        <time>2024-03-19T15:21:18Z</time>
      </trkpt>
      <trkpt lat="50.01636" lon="4.25044">
        <ele>289.2</ele>
        <time>2024-03-19T15:21:19Z</time>
      </trkpt>
      <trkpt lat="50.01633" lon="4.25055">
        <ele>289.2</ele>
        <time>2024-03-19T15:21:20Z</time>
      </trkpt>
      <trkpt lat="50.01631" lon="4.25067">
        <ele>289.4</ele>
        <time>2024-03-19T15:21:21Z</time>
      </trkpt>
      <trkpt lat="50.01628" lon="4.25079">
        <ele>289.2</ele>
        <time>2024-03-19T15:21:22Z</time>
      </trkpt>
      <trkpt lat="50.01626" lon="4.25091">
        <ele>289.2</ele>
        <time>2024-03-19T15:21:23Z</time>
      </trkpt>
      <trkpt lat="50.01623" lon="4.25103">
        <ele>289.2</ele>
        <time>2024-03-19T15:21:24Z</time>
      </trkpt>
      <trkpt lat="50.0162" lon="4.25115">
        <ele>289</ele>
        <time>2024-03-19T15:21:25Z</time>
      </trkpt>
      <trkpt lat="50.01617" lon="4.25127">
        <ele>289</ele>
        <time>2024-03-19T15:21:26Z</time>
      </trkpt>
      <trkpt lat="50.01615" lon="4.25139">
        <ele>288.8</ele>
        <time>2024-03-19T15:21:27Z</time>
      </trkpt>
      <trkpt lat="50.01612" lon="4.25152">
        <ele>288.6</ele>
        <time>2024-03-19T15:21:28Z</time>
      </trkpt>
      <trkpt lat="50.0161" lon="4.25164">
        <ele>288.4</ele>
        <time>2024-03-19T15:21:29Z</time>
      </trkpt>
      <trkpt lat="50.01607" lon="4.25176">
        <ele>288.2</ele>
        <time>2024-03-19T15:21:30Z</time>
      </trkpt>
      <trkpt lat="50.01604" lon="4.25188">
        <ele>287.6</ele>
        <time>2024-03-19T15:21:31Z</time>
      </trkpt>
      <trkpt lat="50.01601" lon="4.25201">
        <ele>287.4</ele>
        <time>2024-03-19T15:21:32Z</time>
      </trkpt>
      <trkpt lat="50.01598" lon="4.25213">
        <ele>287</ele>
        <time>2024-03-19T15:21:33Z</time>
      </trkpt>
      <trkpt lat="50.01596" lon="4.25225">
        <ele>286.8</ele>
        <time>2024-03-19T15:21:34Z</time>
      </trkpt>
      <trkpt lat="50.01593" lon="4.25237">
        <ele>286.8</ele>
        <time>2024-03-19T15:21:35Z</time>
      </trkpt>
      <trkpt lat="50.0159" lon="4.2525">
        <ele>286.4</ele>
        <time>2024-03-19T15:21:36Z</time>
      </trkpt>
      <trkpt lat="50.01587" lon="4.25262">
        <ele>286.4</ele>
        <time>2024-03-19T15:21:37Z</time>
      </trkpt>
      <trkpt lat="50.01585" lon="4.25274">
        <ele>286</ele>
        <time>2024-03-19T15:21:38Z</time>
      </trkpt>
      <trkpt lat="50.01581" lon="4.25286">
        <ele>285.6</ele>
        <time>2024-03-19T15:21:39Z</time>
      </trkpt>
      <trkpt lat="50.01579" lon="4.25299">
        <ele>285.2</ele>
        <time>2024-03-19T15:21:40Z</time>
      </trkpt>
      <trkpt lat="50.01576" lon="4.25311">
        <ele>284.8</ele>
        <time>2024-03-19T15:21:41Z</time>
      </trkpt>
      <trkpt lat="50.01574" lon="4.25324">
        <ele>284.8</ele>
        <time>2024-03-19T15:21:42Z</time>
      </trkpt>
      <trkpt lat="50.01571" lon="4.25336">
        <ele>284.4</ele>
        <time>2024-03-19T15:21:43Z</time>
      </trkpt>
      <trkpt lat="50.01569" lon="4.25349">
        <ele>284.4</ele>
        <time>2024-03-19T15:21:44Z</time>
      </trkpt>
      <trkpt lat="50.01565" lon="4.25361">
        <ele>284.2</ele>
        <time>2024-03-19T15:21:45Z</time>
      </trkpt>
      <trkpt lat="50.01562" lon="4.25373">
        <ele>284</ele>
        <time>2024-03-19T15:21:46Z</time>
      </trkpt>
      <trkpt lat="50.01559" lon="4.25385">
        <ele>284</ele>
        <time>2024-03-19T15:21:47Z</time>
      </trkpt>
      <trkpt lat="50.01557" lon="4.25397">
        <ele>283.8</ele>
        <time>2024-03-19T15:21:48Z</time>
      </trkpt>
      <trkpt lat="50.01555" lon="4.25407">
        <ele>283.8</ele>
        <time>2024-03-19T15:21:49Z</time>
      </trkpt>
      <trkpt lat="50.01553" lon="4.25417">
        <ele>283.6</ele>
        <time>2024-03-19T15:21:50Z</time>
      </trkpt>
      <trkpt lat="50.01553" lon="4.25417">
        <ele>283.2</ele>
        <time>2024-03-19T15:21:51Z</time>
      </trkpt>
      <trkpt lat="50.01553" lon="4.25427">
        <ele>282.8</ele>
        <time>2024-03-19T15:21:52Z</time>
      </trkpt>
      <trkpt lat="50.01559" lon="4.25445">
        <ele>282.6</ele>
        <time>2024-03-19T15:21:53Z</time>
      </trkpt>
      <trkpt lat="50.01564" lon="4.25452">
        <ele>282.6</ele>
        <time>2024-03-19T15:21:54Z</time>
      </trkpt>
      <trkpt lat="50.0157" lon="4.25458">
        <ele>282.2</ele>
        <time>2024-03-19T15:21:55Z</time>
      </trkpt>
      <trkpt lat="50.01576" lon="4.25466">
        <ele>282</ele>
        <time>2024-03-19T15:21:56Z</time>
      </trkpt>
      <trkpt lat="50.01576" lon="4.25466">
        <ele>281.8</ele>
        <time>2024-03-19T15:21:57Z</time>
      </trkpt>
      <trkpt lat="50.01584" lon="4.25485">
        <ele>281.8</ele>
        <time>2024-03-19T15:21:58Z</time>
      </trkpt>
      <trkpt lat="50.01585" lon="4.25496">
        <ele>281.6</ele>
        <time>2024-03-19T15:21:59Z</time>
      </trkpt>
      <trkpt lat="50.01584" lon="4.25508">
        <ele>281.4</ele>
        <time>2024-03-19T15:22:00Z</time>
      </trkpt>
      <trkpt lat="50.01581" lon="4.25519">
        <ele>281.2</ele>
        <time>2024-03-19T15:22:01Z</time>
      </trkpt>
      <trkpt lat="50.01579" lon="4.2553">
        <ele>281.2</ele>
        <time>2024-03-19T15:22:02Z</time>
      </trkpt>
      <trkpt lat="50.01576" lon="4.25542">
        <ele>281</ele>
        <time>2024-03-19T15:22:03Z</time>
      </trkpt>
      <trkpt lat="50.01573" lon="4.25553">
        <ele>281</ele>
        <time>2024-03-19T15:22:04Z</time>
      </trkpt>
      <trkpt lat="50.01571" lon="4.25565">
        <ele>280.8</ele>
        <time>2024-03-19T15:22:05Z</time>
      </trkpt>
      <trkpt lat="50.01568" lon="4.25577">
        <ele>280.6</ele>
        <time>2024-03-19T15:22:06Z</time>
      </trkpt>
      <trkpt lat="50.01565" lon="4.25588">
        <ele>280.2</ele>
        <time>2024-03-19T15:22:07Z</time>
      </trkpt>
      <trkpt lat="50.01563" lon="4.256">
        <ele>279.8</ele>
        <time>2024-03-19T15:22:08Z</time>
      </trkpt>
      <trkpt lat="50.0156" lon="4.2561">
        <ele>279.8</ele>
        <time>2024-03-19T15:22:09Z</time>
      </trkpt>
      <trkpt lat="50.01556" lon="4.25618">
        <ele>279.2</ele>
        <time>2024-03-19T15:22:10Z</time>
      </trkpt>
      <trkpt lat="50.0155" lon="4.25623">
        <ele>278.8</ele>
        <time>2024-03-19T15:22:11Z</time>
      </trkpt>
      <trkpt lat="50.01543" lon="4.25625">
        <ele>278.6</ele>
        <time>2024-03-19T15:22:12Z</time>
      </trkpt>
      <trkpt lat="50.01536" lon="4.25626">
        <ele>278</ele>
        <time>2024-03-19T15:22:13Z</time>
      </trkpt>
      <trkpt lat="50.01529" lon="4.2563">
        <ele>278</ele>
        <time>2024-03-19T15:22:14Z</time>
      </trkpt>
      <trkpt lat="50.01523" lon="4.25636">
        <ele>277.2</ele>
        <time>2024-03-19T15:22:15Z</time>
      </trkpt>
      <trkpt lat="50.01518" lon="4.25645">
        <ele>277</ele>
        <time>2024-03-19T15:22:16Z</time>
      </trkpt>
      <trkpt lat="50.01513" lon="4.25655">
        <ele>276.4</ele>
        <time>2024-03-19T15:22:17Z</time>
      </trkpt>
      <trkpt lat="50.01509" lon="4.25666">
        <ele>276.4</ele>
        <time>2024-03-19T15:22:18Z</time>
      </trkpt>
      <trkpt lat="50.01504" lon="4.25677">
        <ele>276</ele>
        <time>2024-03-19T15:22:19Z</time>
      </trkpt>
      <trkpt lat="50.01498" lon="4.25688">
        <ele>275.4</ele>
        <time>2024-03-19T15:22:20Z</time>
      </trkpt>
      <trkpt lat="50.01493" lon="4.25699">
        <ele>274.6</ele>
        <time>2024-03-19T15:22:21Z</time>
      </trkpt>
      <trkpt lat="50.01487" lon="4.25711">
        <ele>274.2</ele>
        <time>2024-03-19T15:22:22Z</time>
      </trkpt>
      <trkpt lat="50.01482" lon="4.25723">
        <ele>273.8</ele>
        <time>2024-03-19T15:22:23Z</time>
      </trkpt>
      <trkpt lat="50.01476" lon="4.25735">
        <ele>273.8</ele>
        <time>2024-03-19T15:22:24Z</time>
      </trkpt>
      <trkpt lat="50.01471" lon="4.25747">
        <ele>273.4</ele>
        <time>2024-03-19T15:22:25Z</time>
      </trkpt>
      <trkpt lat="50.01467" lon="4.25759">
        <ele>273</ele>
        <time>2024-03-19T15:22:26Z</time>
      </trkpt>
      <trkpt lat="50.01464" lon="4.25772">
        <ele>272.6</ele>
        <time>2024-03-19T15:22:27Z</time>
      </trkpt>
      <trkpt lat="50.0146" lon="4.25784">
        <ele>272.4</ele>
        <time>2024-03-19T15:22:28Z</time>
      </trkpt>
      <trkpt lat="50.01458" lon="4.25796">
        <ele>271.8</ele>
        <time>2024-03-19T15:22:29Z</time>
      </trkpt>
      <trkpt lat="50.01455" lon="4.25808">
        <ele>271.2</ele>
        <time>2024-03-19T15:22:30Z</time>
      </trkpt>
      <trkpt lat="50.01455" lon="4.25808">
        <ele>270.8</ele>
        <time>2024-03-19T15:22:31Z</time>
      </trkpt>
      <trkpt lat="50.01454" lon="4.2582">
        <ele>270.4</ele>
        <time>2024-03-19T15:22:32Z</time>
      </trkpt>
      <trkpt lat="50.01451" lon="4.25842">
        <ele>270.4</ele>
        <time>2024-03-19T15:22:33Z</time>
      </trkpt>
      <trkpt lat="50.01451" lon="4.25853">
        <ele>270.4</ele>
        <time>2024-03-19T15:22:34Z</time>
      </trkpt>
      <trkpt lat="50.0145" lon="4.25863">
        <ele>270.4</ele>
        <time>2024-03-19T15:22:35Z</time>
      </trkpt>
      <trkpt lat="50.0145" lon="4.25874">
        <ele>270.4</ele>
        <time>2024-03-19T15:22:36Z</time>
      </trkpt>
      <trkpt lat="50.0145" lon="4.25884">
        <ele>270.2</ele>
        <time>2024-03-19T15:22:37Z</time>
      </trkpt>
      <trkpt lat="50.0145" lon="4.25895">
        <ele>270.2</ele>
        <time>2024-03-19T15:22:38Z</time>
      </trkpt>
      <trkpt lat="50.01449" lon="4.25905">
        <ele>270.4</ele>
        <time>2024-03-19T15:22:39Z</time>
      </trkpt>
      <trkpt lat="50.01449" lon="4.25916">
        <ele>270.2</ele>
        <time>2024-03-19T15:22:40Z</time>
      </trkpt>
      <trkpt lat="50.01448" lon="4.25926">
        <ele>270.4</ele>
        <time>2024-03-19T15:22:41Z</time>
      </trkpt>
      <trkpt lat="50.01447" lon="4.25936">
        <ele>270.6</ele>
        <time>2024-03-19T15:22:42Z</time>
      </trkpt>
      <trkpt lat="50.01446" lon="4.25947">
        <ele>270.8</ele>
        <time>2024-03-19T15:22:43Z</time>
      </trkpt>
      <trkpt lat="50.01445" lon="4.25957">
        <ele>270.8</ele>
        <time>2024-03-19T15:22:44Z</time>
      </trkpt>
      <trkpt lat="50.01444" lon="4.25967">
        <ele>271.2</ele>
        <time>2024-03-19T15:22:45Z</time>
      </trkpt>
      <trkpt lat="50.01442" lon="4.25977">
        <ele>271.2</ele>
        <time>2024-03-19T15:22:46Z</time>
      </trkpt>
      <trkpt lat="50.0144" lon="4.25986">
        <ele>271.6</ele>
        <time>2024-03-19T15:22:47Z</time>
      </trkpt>
      <trkpt lat="50.01437" lon="4.25996">
        <ele>271.6</ele>
        <time>2024-03-19T15:22:48Z</time>
      </trkpt>
      <trkpt lat="50.01435" lon="4.26005">
        <ele>272</ele>
        <time>2024-03-19T15:22:49Z</time>
      </trkpt>
      <trkpt lat="50.01432" lon="4.26014">
        <ele>272</ele>
        <time>2024-03-19T15:22:50Z</time>
      </trkpt>
      <trkpt lat="50.01429" lon="4.26023">
        <ele>272.2</ele>
        <time>2024-03-19T15:22:51Z</time>
      </trkpt>
      <trkpt lat="50.01426" lon="4.26032">
        <ele>272.2</ele>
        <time>2024-03-19T15:22:52Z</time>
      </trkpt>
      <trkpt lat="50.01422" lon="4.26041">
        <ele>272.4</ele>
        <time>2024-03-19T15:22:53Z</time>
      </trkpt>
      <trkpt lat="50.01419" lon="4.26049">
        <ele>272.8</ele>
        <time>2024-03-19T15:22:54Z</time>
      </trkpt>
      <trkpt lat="50.01416" lon="4.26057">
        <ele>273</ele>
        <time>2024-03-19T15:22:55Z</time>
      </trkpt>
      <trkpt lat="50.01412" lon="4.26066">
        <ele>273</ele>
        <time>2024-03-19T15:22:56Z</time>
      </trkpt>
      <trkpt lat="50.01409" lon="4.26075">
        <ele>273.4</ele>
        <time>2024-03-19T15:22:57Z</time>
      </trkpt>
      <trkpt lat="50.01406" lon="4.26083">
        <ele>273.6</ele>
        <time>2024-03-19T15:22:58Z</time>
      </trkpt>
      <trkpt lat="50.01402" lon="4.26092">
        <ele>273.6</ele>
        <time>2024-03-19T15:22:59Z</time>
      </trkpt>
      <trkpt lat="50.01399" lon="4.26101">
        <ele>274</ele>
        <time>2024-03-19T15:23:00Z</time>
      </trkpt>
      <trkpt lat="50.01396" lon="4.2611">
        <ele>274</ele>
        <time>2024-03-19T15:23:01Z</time>
      </trkpt>
      <trkpt lat="50.01392" lon="4.26119">
        <ele>274.4</ele>
        <time>2024-03-19T15:23:02Z</time>
      </trkpt>
      <trkpt lat="50.01389" lon="4.26128">
        <ele>274.6</ele>
        <time>2024-03-19T15:23:03Z</time>
      </trkpt>
      <trkpt lat="50.01385" lon="4.26138">
        <ele>274.8</ele>
        <time>2024-03-19T15:23:04Z</time>
      </trkpt>
      <trkpt lat="50.01382" lon="4.26147">
        <ele>275</ele>
        <time>2024-03-19T15:23:05Z</time>
      </trkpt>
      <trkpt lat="50.01378" lon="4.26157">
        <ele>275</ele>
        <time>2024-03-19T15:23:06Z</time>
      </trkpt>
      <trkpt lat="50.01374" lon="4.26166">
        <ele>275</ele>
        <time>2024-03-19T15:23:07Z</time>
      </trkpt>
      <trkpt lat="50.01371" lon="4.26176">
        <ele>275</ele>
        <time>2024-03-19T15:23:08Z</time>
      </trkpt>
      <trkpt lat="50.01367" lon="4.26186">
        <ele>275.2</ele>
        <time>2024-03-19T15:23:09Z</time>
      </trkpt>
      <trkpt lat="50.01363" lon="4.26197">
        <ele>275.2</ele>
        <time>2024-03-19T15:23:10Z</time>
      </trkpt>
      <trkpt lat="50.0136" lon="4.26207">
        <ele>275.2</ele>
        <time>2024-03-19T15:23:11Z</time>
      </trkpt>
      <trkpt lat="50.01356" lon="4.26217">
        <ele>275.2</ele>
        <time>2024-03-19T15:23:12Z</time>
      </trkpt>
      <trkpt lat="50.01352" lon="4.26227">
        <ele>275.2</ele>
        <time>2024-03-19T15:23:13Z</time>
      </trkpt>
      <trkpt lat="50.01348" lon="4.26238">
        <ele>275.2</ele>
        <time>2024-03-19T15:23:14Z</time>
      </trkpt>
      <trkpt lat="50.01344" lon="4.26248">
        <ele>275.2</ele>
        <time>2024-03-19T15:23:15Z</time>
      </trkpt>
      <trkpt lat="50.0134" lon="4.26259">
        <ele>275.2</ele>
        <time>2024-03-19T15:23:16Z</time>
      </trkpt>
      <trkpt lat="50.01336" lon="4.26269">
        <ele>275.2</ele>
        <time>2024-03-19T15:23:17Z</time>
      </trkpt>
      <trkpt lat="50.01332" lon="4.2628">
        <ele>274.8</ele>
        <time>2024-03-19T15:23:18Z</time>
      </trkpt>
      <trkpt lat="50.01328" lon="4.26291">
        <ele>274.6</ele>
        <time>2024-03-19T15:23:19Z</time>
      </trkpt>
      <trkpt lat="50.01325" lon="4.26302">
        <ele>274.4</ele>
        <time>2024-03-19T15:23:20Z</time>
      </trkpt>
      <trkpt lat="50.01321" lon="4.26313">
        <ele>274.4</ele>
        <time>2024-03-19T15:23:21Z</time>
      </trkpt>
      <trkpt lat="50.01318" lon="4.26324">
        <ele>274.2</ele>
        <time>2024-03-19T15:23:22Z</time>
      </trkpt>
      <trkpt lat="50.01315" lon="4.26336">
        <ele>274.2</ele>
        <time>2024-03-19T15:23:23Z</time>
      </trkpt>
      <trkpt lat="50.01312" lon="4.26348">
        <ele>274</ele>
        <time>2024-03-19T15:23:24Z</time>
      </trkpt>
      <trkpt lat="50.0131" lon="4.26359">
        <ele>273.6</ele>
        <time>2024-03-19T15:23:25Z</time>
      </trkpt>
      <trkpt lat="50.01308" lon="4.26372">
        <ele>273.4</ele>
        <time>2024-03-19T15:23:26Z</time>
      </trkpt>
      <trkpt lat="50.01306" lon="4.26384">
        <ele>273.4</ele>
        <time>2024-03-19T15:23:27Z</time>
      </trkpt>
      <trkpt lat="50.01304" lon="4.26396">
        <ele>273.2</ele>
        <time>2024-03-19T15:23:28Z</time>
      </trkpt>
      <trkpt lat="50.01302" lon="4.26408">
        <ele>273</ele>
        <time>2024-03-19T15:23:29Z</time>
      </trkpt>
      <trkpt lat="50.013" lon="4.2642">
        <ele>272.8</ele>
        <time>2024-03-19T15:23:30Z</time>
      </trkpt>
      <trkpt lat="50.01299" lon="4.26432">
        <ele>272.8</ele>
        <time>2024-03-19T15:23:31Z</time>
      </trkpt>
      <trkpt lat="50.01298" lon="4.26444">
        <ele>272.8</ele>
        <time>2024-03-19T15:23:32Z</time>
      </trkpt>
      <trkpt lat="50.01296" lon="4.26456">
        <ele>272.6</ele>
        <time>2024-03-19T15:23:33Z</time>
      </trkpt>
      <trkpt lat="50.01295" lon="4.26467">
        <ele>272.6</ele>
        <time>2024-03-19T15:23:34Z</time>
      </trkpt>
      <trkpt lat="50.01293" lon="4.26478">
        <ele>272.4</ele>
        <time>2024-03-19T15:23:35Z</time>
      </trkpt>
      <trkpt lat="50.01292" lon="4.26489">
        <ele>272.4</ele>
        <time>2024-03-19T15:23:36Z</time>
      </trkpt>
      <trkpt lat="50.0129" lon="4.26499">
        <ele>272.2</ele>
        <time>2024-03-19T15:23:37Z</time>
      </trkpt>
      <trkpt lat="50.01288" lon="4.26509">
        <ele>272.6</ele>
        <time>2024-03-19T15:23:38Z</time>
      </trkpt>
      <trkpt lat="50.01286" lon="4.26519">
        <ele>272.6</ele>
        <time>2024-03-19T15:23:39Z</time>
      </trkpt>
      <trkpt lat="50.01285" lon="4.26529">
        <ele>272.6</ele>
        <time>2024-03-19T15:23:40Z</time>
      </trkpt>
      <trkpt lat="50.01283" lon="4.26538">
        <ele>272.6</ele>
        <time>2024-03-19T15:23:41Z</time>
      </trkpt>
      <trkpt lat="50.0128" lon="4.26547">
        <ele>272.6</ele>
        <time>2024-03-19T15:23:42Z</time>
      </trkpt>
      <trkpt lat="50.01278" lon="4.26556">
        <ele>272.6</ele>
        <time>2024-03-19T15:23:43Z</time>
      </trkpt>
      <trkpt lat="50.01276" lon="4.26565">
        <ele>272.6</ele>
        <time>2024-03-19T15:23:44Z</time>
      </trkpt>
      <trkpt lat="50.01273" lon="4.26573">
        <ele>272.6</ele>
        <time>2024-03-19T15:23:45Z</time>
      </trkpt>
      <trkpt lat="50.0127" lon="4.26582">
        <ele>272.8</ele>
        <time>2024-03-19T15:23:46Z</time>
      </trkpt>
      <trkpt lat="50.01267" lon="4.2659">
        <ele>272.8</ele>
        <time>2024-03-19T15:23:47Z</time>
      </trkpt>
      <trkpt lat="50.01264" lon="4.26598">
        <ele>273</ele>
        <time>2024-03-19T15:23:48Z</time>
      </trkpt>
      <trkpt lat="50.01261" lon="4.26606">
        <ele>273.4</ele>
        <time>2024-03-19T15:23:49Z</time>
      </trkpt>
      <trkpt lat="50.01258" lon="4.26613">
        <ele>273.6</ele>
        <time>2024-03-19T15:23:50Z</time>
      </trkpt>
      <trkpt lat="50.01255" lon="4.26621">
        <ele>274</ele>
        <time>2024-03-19T15:23:51Z</time>
      </trkpt>
      <trkpt lat="50.01252" lon="4.26629">
        <ele>274.2</ele>
        <time>2024-03-19T15:23:52Z</time>
      </trkpt>
      <trkpt lat="50.01249" lon="4.26636">
        <ele>274.8</ele>
        <time>2024-03-19T15:23:53Z</time>
      </trkpt>
      <trkpt lat="50.01245" lon="4.26644">
        <ele>275.2</ele>
        <time>2024-03-19T15:23:54Z</time>
      </trkpt>
      <trkpt lat="50.01242" lon="4.26652">
        <ele>275.8</ele>
        <time>2024-03-19T15:23:55Z</time>
      </trkpt>
      <trkpt lat="50.01239" lon="4.26659">
        <ele>276</ele>
        <time>2024-03-19T15:23:56Z</time>
      </trkpt>
      <trkpt lat="50.01236" lon="4.26667">
        <ele>276.2</ele>
        <time>2024-03-19T15:23:57Z</time>
      </trkpt>
      <trkpt lat="50.01233" lon="4.26674">
        <ele>277</ele>
        <time>2024-03-19T15:23:58Z</time>
      </trkpt>
      <trkpt lat="50.0123" lon="4.26682">
        <ele>277.4</ele>
        <time>2024-03-19T15:23:59Z</time>
      </trkpt>
      <trkpt lat="50.01227" lon="4.2669">
        <ele>277.4</ele>
        <time>2024-03-19T15:24:00Z</time>
      </trkpt>
      <trkpt lat="50.01224" lon="4.26697">
        <ele>277.4</ele>
        <time>2024-03-19T15:24:01Z</time>
      </trkpt>
      <trkpt lat="50.0122" lon="4.26705">
        <ele>277.8</ele>
        <time>2024-03-19T15:24:02Z</time>
      </trkpt>
      <trkpt lat="50.01217" lon="4.26712">
        <ele>277.8</ele>
        <time>2024-03-19T15:24:03Z</time>
      </trkpt>
      <trkpt lat="50.01214" lon="4.2672">
        <ele>278.2</ele>
        <time>2024-03-19T15:24:04Z</time>
      </trkpt>
      <trkpt lat="50.01211" lon="4.26727">
        <ele>278.4</ele>
        <time>2024-03-19T15:24:05Z</time>
      </trkpt>
      <trkpt lat="50.01208" lon="4.26735">
        <ele>278.6</ele>
        <time>2024-03-19T15:24:06Z</time>
      </trkpt>
      <trkpt lat="50.01205" lon="4.26742">
        <ele>278.6</ele>
        <time>2024-03-19T15:24:07Z</time>
      </trkpt>
      <trkpt lat="50.01202" lon="4.2675">
        <ele>279</ele>
        <time>2024-03-19T15:24:08Z</time>
      </trkpt>
      <trkpt lat="50.01199" lon="4.26757">
        <ele>279.2</ele>
        <time>2024-03-19T15:24:09Z</time>
      </trkpt>
      <trkpt lat="50.01196" lon="4.26765">
        <ele>279.4</ele>
        <time>2024-03-19T15:24:10Z</time>
      </trkpt>
      <trkpt lat="50.01192" lon="4.26773">
        <ele>279.8</ele>
        <time>2024-03-19T15:24:11Z</time>
      </trkpt>
      <trkpt lat="50.01189" lon="4.2678">
        <ele>280.4</ele>
        <time>2024-03-19T15:24:12Z</time>
      </trkpt>
      <trkpt lat="50.01186" lon="4.26788">
        <ele>280.8</ele>
        <time>2024-03-19T15:24:13Z</time>
      </trkpt>
      <trkpt lat="50.01183" lon="4.26795">
        <ele>281.4</ele>
        <time>2024-03-19T15:24:14Z</time>
      </trkpt>
      <trkpt lat="50.0118" lon="4.26803">
        <ele>281.8</ele>
        <time>2024-03-19T15:24:15Z</time>
      </trkpt>
      <trkpt lat="50.01177" lon="4.2681">
        <ele>281.8</ele>
        <time>2024-03-19T15:24:16Z</time>
      </trkpt>
      <trkpt lat="50.01174" lon="4.26818">
        <ele>282.4</ele>
        <time>2024-03-19T15:24:17Z</time>
      </trkpt>
      <trkpt lat="50.01171" lon="4.26825">
        <ele>282.8</ele>
        <time>2024-03-19T15:24:18Z</time>
      </trkpt>
      <trkpt lat="50.01168" lon="4.26833">
        <ele>283</ele>
        <time>2024-03-19T15:24:19Z</time>
      </trkpt>
      <trkpt lat="50.01164" lon="4.26841">
        <ele>283.4</ele>
        <time>2024-03-19T15:24:20Z</time>
      </trkpt>
      <trkpt lat="50.01161" lon="4.26848">
        <ele>283.8</ele>
        <time>2024-03-19T15:24:21Z</time>
      </trkpt>
      <trkpt lat="50.01158" lon="4.26856">
        <ele>283.8</ele>
        <time>2024-03-19T15:24:22Z</time>
      </trkpt>
      <trkpt lat="50.01155" lon="4.26864">
        <ele>284.4</ele>
        <time>2024-03-19T15:24:23Z</time>
      </trkpt>
      <trkpt lat="50.01152" lon="4.26872">
        <ele>284.6</ele>
        <time>2024-03-19T15:24:24Z</time>
      </trkpt>
      <trkpt lat="50.01148" lon="4.2688">
        <ele>284.8</ele>
        <time>2024-03-19T15:24:25Z</time>
      </trkpt>
      <trkpt lat="50.01145" lon="4.26888">
        <ele>285.2</ele>
        <time>2024-03-19T15:24:26Z</time>
      </trkpt>
      <trkpt lat="50.01142" lon="4.26896">
        <ele>285.2</ele>
        <time>2024-03-19T15:24:27Z</time>
      </trkpt>
      <trkpt lat="50.01138" lon="4.26905">
        <ele>285.6</ele>
        <time>2024-03-19T15:24:28Z</time>
      </trkpt>
      <trkpt lat="50.01135" lon="4.26913">
        <ele>285.8</ele>
        <time>2024-03-19T15:24:29Z</time>
      </trkpt>
      <trkpt lat="50.01131" lon="4.26922">
        <ele>286</ele>
        <time>2024-03-19T15:24:30Z</time>
      </trkpt>
      <trkpt lat="50.01128" lon="4.26931">
        <ele>286.2</ele>
        <time>2024-03-19T15:24:31Z</time>
      </trkpt>
      <trkpt lat="50.01124" lon="4.2694">
        <ele>286.2</ele>
        <time>2024-03-19T15:24:32Z</time>
      </trkpt>
      <trkpt lat="50.0112" lon="4.26949">
        <ele>286.4</ele>
        <time>2024-03-19T15:24:33Z</time>
      </trkpt>
      <trkpt lat="50.01117" lon="4.26958">
        <ele>286.4</ele>
        <time>2024-03-19T15:24:34Z</time>
      </trkpt>
      <trkpt lat="50.01113" lon="4.26967">
        <ele>286.4</ele>
        <time>2024-03-19T15:24:35Z</time>
      </trkpt>
      <trkpt lat="50.01109" lon="4.26976">
        <ele>286.4</ele>
        <time>2024-03-19T15:24:36Z</time>
      </trkpt>
      <trkpt lat="50.01106" lon="4.26986">
        <ele>286.6</ele>
        <time>2024-03-19T15:24:37Z</time>
      </trkpt>
      <trkpt lat="50.01102" lon="4.26995">
        <ele>286.6</ele>
        <time>2024-03-19T15:24:38Z</time>
      </trkpt>
      <trkpt lat="50.01098" lon="4.27005">
        <ele>286.6</ele>
        <time>2024-03-19T15:24:39Z</time>
      </trkpt>
      <trkpt lat="50.01095" lon="4.27015">
        <ele>286.6</ele>
        <time>2024-03-19T15:24:40Z</time>
      </trkpt>
      <trkpt lat="50.01092" lon="4.27025">
        <ele>286.8</ele>
        <time>2024-03-19T15:24:41Z</time>
      </trkpt>
      <trkpt lat="50.01089" lon="4.27035">
        <ele>286.8</ele>
        <time>2024-03-19T15:24:42Z</time>
      </trkpt>
      <trkpt lat="50.01086" lon="4.27045">
        <ele>286.8</ele>
        <time>2024-03-19T15:24:43Z</time>
      </trkpt>
      <trkpt lat="50.01084" lon="4.27056">
        <ele>286.8</ele>
        <time>2024-03-19T15:24:44Z</time>
      </trkpt>
      <trkpt lat="50.01082" lon="4.27066">
        <ele>286.8</ele>
        <time>2024-03-19T15:24:45Z</time>
      </trkpt>
      <trkpt lat="50.0108" lon="4.27077">
        <ele>286.8</ele>
        <time>2024-03-19T15:24:46Z</time>
      </trkpt>
      <trkpt lat="50.01078" lon="4.27088">
        <ele>286.8</ele>
        <time>2024-03-19T15:24:47Z</time>
      </trkpt>
      <trkpt lat="50.01076" lon="4.27099">
        <ele>286.8</ele>
        <time>2024-03-19T15:24:48Z</time>
      </trkpt>
      <trkpt lat="50.01075" lon="4.27111">
        <ele>286.8</ele>
        <time>2024-03-19T15:24:49Z</time>
      </trkpt>
      <trkpt lat="50.01074" lon="4.27122">
        <ele>286.6</ele>
        <time>2024-03-19T15:24:50Z</time>
      </trkpt>
      <trkpt lat="50.01073" lon="4.27134">
        <ele>286.4</ele>
        <time>2024-03-19T15:24:51Z</time>
      </trkpt>
      <trkpt lat="50.01073" lon="4.27146">
        <ele>286.4</ele>
        <time>2024-03-19T15:24:52Z</time>
      </trkpt>
      <trkpt lat="50.01073" lon="4.27159">
        <ele>286.4</ele>
        <time>2024-03-19T15:24:53Z</time>
      </trkpt>
      <trkpt lat="50.01073" lon="4.27172">
        <ele>286.2</ele>
        <time>2024-03-19T15:24:54Z</time>
      </trkpt>
      <trkpt lat="50.01074" lon="4.27185">
        <ele>286.2</ele>
        <time>2024-03-19T15:24:55Z</time>
      </trkpt>
      <trkpt lat="50.01075" lon="4.27199">
        <ele>286.2</ele>
        <time>2024-03-19T15:24:56Z</time>
      </trkpt>
      <trkpt lat="50.01076" lon="4.27213">
        <ele>286</ele>
        <time>2024-03-19T15:24:57Z</time>
      </trkpt>
      <trkpt lat="50.01078" lon="4.27226">
        <ele>285.8</ele>
        <time>2024-03-19T15:24:58Z</time>
      </trkpt>
      <trkpt lat="50.0108" lon="4.27241">
        <ele>285.8</ele>
        <time>2024-03-19T15:24:59Z</time>
      </trkpt>
      <trkpt lat="50.01082" lon="4.27255">
        <ele>285.6</ele>
        <time>2024-03-19T15:25:00Z</time>
      </trkpt>
      <trkpt lat="50.01085" lon="4.27269">
        <ele>285.6</ele>
        <time>2024-03-19T15:25:01Z</time>
      </trkpt>
      <trkpt lat="50.01087" lon="4.27283">
        <ele>285.2</ele>
        <time>2024-03-19T15:25:02Z</time>
      </trkpt>
      <trkpt lat="50.0109" lon="4.27297">
        <ele>284.6</ele>
        <time>2024-03-19T15:25:03Z</time>
      </trkpt>
      <trkpt lat="50.01093" lon="4.27312">
        <ele>284.6</ele>
        <time>2024-03-19T15:25:04Z</time>
      </trkpt>
      <trkpt lat="50.01096" lon="4.27326">
        <ele>284.2</ele>
        <time>2024-03-19T15:25:05Z</time>
      </trkpt>
      <trkpt lat="50.01099" lon="4.27341">
        <ele>283.6</ele>
        <time>2024-03-19T15:25:06Z</time>
      </trkpt>
      <trkpt lat="50.01102" lon="4.27355">
        <ele>283</ele>
        <time>2024-03-19T15:25:07Z</time>
      </trkpt>
      <trkpt lat="50.01105" lon="4.2737">
        <ele>282.6</ele>
        <time>2024-03-19T15:25:08Z</time>
      </trkpt>
      <trkpt lat="50.01108" lon="4.27384">
        <ele>282</ele>
        <time>2024-03-19T15:25:09Z</time>
      </trkpt>
      <trkpt lat="50.01111" lon="4.27397">
        <ele>281.8</ele>
        <time>2024-03-19T15:25:10Z</time>
      </trkpt>
      <trkpt lat="50.01114" lon="4.27411">
        <ele>281.4</ele>
        <time>2024-03-19T15:25:11Z</time>
      </trkpt>
      <trkpt lat="50.01117" lon="4.27423">
        <ele>280.8</ele>
        <time>2024-03-19T15:25:12Z</time>
      </trkpt>
      <trkpt lat="50.0112" lon="4.27436">
        <ele>280.2</ele>
        <time>2024-03-19T15:25:13Z</time>
      </trkpt>
      <trkpt lat="50.01123" lon="4.27449">
        <ele>279.8</ele>
        <time>2024-03-19T15:25:14Z</time>
      </trkpt>
      <trkpt lat="50.01125" lon="4.27462">
        <ele>279.6</ele>
        <time>2024-03-19T15:25:15Z</time>
      </trkpt>
      <trkpt lat="50.01128" lon="4.27474">
        <ele>279.6</ele>
        <time>2024-03-19T15:25:16Z</time>
      </trkpt>
      <trkpt lat="50.01131" lon="4.27486">
        <ele>279.4</ele>
        <time>2024-03-19T15:25:17Z</time>
      </trkpt>
      <trkpt lat="50.01133" lon="4.27498">
        <ele>279.2</ele>
        <time>2024-03-19T15:25:18Z</time>
      </trkpt>
      <trkpt lat="50.01135" lon="4.2751">
        <ele>279.4</ele>
        <time>2024-03-19T15:25:19Z</time>
      </trkpt>
      <trkpt lat="50.01138" lon="4.27522">
        <ele>279.4</ele>
        <time>2024-03-19T15:25:20Z</time>
      </trkpt>
      <trkpt lat="50.0114" lon="4.27534">
        <ele>279.2</ele>
        <time>2024-03-19T15:25:21Z</time>
      </trkpt>
      <trkpt lat="50.01143" lon="4.27545">
        <ele>279.2</ele>
        <time>2024-03-19T15:25:22Z</time>
      </trkpt>
      <trkpt lat="50.01146" lon="4.27556">
        <ele>279.2</ele>
        <time>2024-03-19T15:25:23Z</time>
      </trkpt>
      <trkpt lat="50.01148" lon="4.27568">
        <ele>279.2</ele>
        <time>2024-03-19T15:25:24Z</time>
      </trkpt>
      <trkpt lat="50.01151" lon="4.27579">
        <ele>279.2</ele>
        <time>2024-03-19T15:25:25Z</time>
      </trkpt>
      <trkpt lat="50.01153" lon="4.2759">
        <ele>279.4</ele>
        <time>2024-03-19T15:25:26Z</time>
      </trkpt>
      <trkpt lat="50.01155" lon="4.27601">
        <ele>279.4</ele>
        <time>2024-03-19T15:25:27Z</time>
      </trkpt>
      <trkpt lat="50.01157" lon="4.27612">
        <ele>279.4</ele>
        <time>2024-03-19T15:25:28Z</time>
      </trkpt>
      <trkpt lat="50.01159" lon="4.27623">
        <ele>279.6</ele>
        <time>2024-03-19T15:25:29Z</time>
      </trkpt>
      <trkpt lat="50.01161" lon="4.27633">
        <ele>279.6</ele>
        <time>2024-03-19T15:25:30Z</time>
      </trkpt>
      <trkpt lat="50.01164" lon="4.27644">
        <ele>279.6</ele>
        <time>2024-03-19T15:25:31Z</time>
      </trkpt>
      <trkpt lat="50.01166" lon="4.27655">
        <ele>279.8</ele>
        <time>2024-03-19T15:25:32Z</time>
      </trkpt>
      <trkpt lat="50.01168" lon="4.27666">
        <ele>279.6</ele>
        <time>2024-03-19T15:25:33Z</time>
      </trkpt>
      <trkpt lat="50.01171" lon="4.27677">
        <ele>279.8</ele>
        <time>2024-03-19T15:25:34Z</time>
      </trkpt>
      <trkpt lat="50.01173" lon="4.27688">
        <ele>279.8</ele>
        <time>2024-03-19T15:25:35Z</time>
      </trkpt>
      <trkpt lat="50.01176" lon="4.27699">
        <ele>279.8</ele>
        <time>2024-03-19T15:25:36Z</time>
      </trkpt>
      <trkpt lat="50.01178" lon="4.2771">
        <ele>279.8</ele>
        <time>2024-03-19T15:25:37Z</time>
      </trkpt>
      <trkpt lat="50.0118" lon="4.27721">
        <ele>280</ele>
        <time>2024-03-19T15:25:38Z</time>
      </trkpt>
      <trkpt lat="50.01183" lon="4.27732">
        <ele>280</ele>
        <time>2024-03-19T15:25:39Z</time>
      </trkpt>
      <trkpt lat="50.01185" lon="4.27743">
        <ele>280</ele>
        <time>2024-03-19T15:25:40Z</time>
      </trkpt>
      <trkpt lat="50.01187" lon="4.27754">
        <ele>279.8</ele>
        <time>2024-03-19T15:25:41Z</time>
      </trkpt>
      <trkpt lat="50.01189" lon="4.27765">
        <ele>279.8</ele>
        <time>2024-03-19T15:25:42Z</time>
      </trkpt>
      <trkpt lat="50.01192" lon="4.27776">
        <ele>280</ele>
        <time>2024-03-19T15:25:43Z</time>
      </trkpt>
      <trkpt lat="50.01194" lon="4.27787">
        <ele>279.8</ele>
        <time>2024-03-19T15:25:44Z</time>
      </trkpt>
      <trkpt lat="50.01197" lon="4.27797">
        <ele>279.8</ele>
        <time>2024-03-19T15:25:45Z</time>
      </trkpt>
      <trkpt lat="50.01199" lon="4.27808">
        <ele>279.8</ele>
        <time>2024-03-19T15:25:46Z</time>
      </trkpt>
      <trkpt lat="50.01202" lon="4.27819">
        <ele>279.8</ele>
        <time>2024-03-19T15:25:47Z</time>
      </trkpt>
      <trkpt lat="50.01204" lon="4.27829">
        <ele>279.6</ele>
        <time>2024-03-19T15:25:48Z</time>
      </trkpt>
      <trkpt lat="50.01206" lon="4.2784">
        <ele>279.6</ele>
        <time>2024-03-19T15:25:49Z</time>
      </trkpt>
      <trkpt lat="50.01209" lon="4.2785">
        <ele>279.6</ele>
        <time>2024-03-19T15:25:50Z</time>
      </trkpt>
      <trkpt lat="50.01211" lon="4.27861">
        <ele>279.6</ele>
        <time>2024-03-19T15:25:51Z</time>
      </trkpt>
      <trkpt lat="50.01213" lon="4.27871">
        <ele>279.6</ele>
        <time>2024-03-19T15:25:52Z</time>
      </trkpt>
      <trkpt lat="50.01214" lon="4.27882">
        <ele>279.4</ele>
        <time>2024-03-19T15:25:53Z</time>
      </trkpt>
      <trkpt lat="50.01217" lon="4.27892">
        <ele>279.6</ele>
        <time>2024-03-19T15:25:54Z</time>
      </trkpt>
      <trkpt lat="50.01218" lon="4.27903">
        <ele>279.4</ele>
        <time>2024-03-19T15:25:55Z</time>
      </trkpt>
      <trkpt lat="50.0122" lon="4.27913">
        <ele>279.4</ele>
        <time>2024-03-19T15:25:56Z</time>
      </trkpt>
      <trkpt lat="50.01222" lon="4.27923">
        <ele>279.6</ele>
        <time>2024-03-19T15:25:57Z</time>
      </trkpt>
      <trkpt lat="50.01224" lon="4.27934">
        <ele>279.6</ele>
        <time>2024-03-19T15:25:58Z</time>
      </trkpt>
      <trkpt lat="50.01227" lon="4.27943">
        <ele>279.4</ele>
        <time>2024-03-19T15:25:59Z</time>
      </trkpt>
      <trkpt lat="50.01229" lon="4.27953">
        <ele>279.6</ele>
        <time>2024-03-19T15:26:00Z</time>
      </trkpt>
      <trkpt lat="50.01231" lon="4.27963">
        <ele>279.4</ele>
        <time>2024-03-19T15:26:01Z</time>
      </trkpt>
      <trkpt lat="50.01233" lon="4.27973">
        <ele>279.4</ele>
        <time>2024-03-19T15:26:02Z</time>
      </trkpt>
      <trkpt lat="50.01234" lon="4.27984">
        <ele>279.6</ele>
        <time>2024-03-19T15:26:03Z</time>
      </trkpt>
      <trkpt lat="50.01237" lon="4.27994">
        <ele>279.6</ele>
        <time>2024-03-19T15:26:04Z</time>
      </trkpt>
      <trkpt lat="50.01239" lon="4.28004">
        <ele>279.6</ele>
        <time>2024-03-19T15:26:05Z</time>
      </trkpt>
      <trkpt lat="50.01241" lon="4.28014">
        <ele>279.6</ele>
        <time>2024-03-19T15:26:06Z</time>
      </trkpt>
      <trkpt lat="50.01243" lon="4.28024">
        <ele>279.6</ele>
        <time>2024-03-19T15:26:07Z</time>
      </trkpt>
      <trkpt lat="50.01247" lon="4.28035">
        <ele>279.6</ele>
        <time>2024-03-19T15:26:08Z</time>
      </trkpt>
      <trkpt lat="50.01249" lon="4.28046">
        <ele>279.6</ele>
        <time>2024-03-19T15:26:09Z</time>
      </trkpt>
      <trkpt lat="50.01251" lon="4.28056">
        <ele>279.8</ele>
        <time>2024-03-19T15:26:10Z</time>
      </trkpt>
      <trkpt lat="50.01254" lon="4.28067">
        <ele>279.6</ele>
        <time>2024-03-19T15:26:11Z</time>
      </trkpt>
      <trkpt lat="50.01256" lon="4.28077">
        <ele>279.8</ele>
        <time>2024-03-19T15:26:12Z</time>
      </trkpt>
      <trkpt lat="50.01259" lon="4.28087">
        <ele>279.8</ele>
        <time>2024-03-19T15:26:13Z</time>
      </trkpt>
      <trkpt lat="50.01261" lon="4.28098">
        <ele>279.6</ele>
        <time>2024-03-19T15:26:14Z</time>
      </trkpt>
      <trkpt lat="50.01263" lon="4.28109">
        <ele>279.6</ele>
        <time>2024-03-19T15:26:15Z</time>
      </trkpt>
      <trkpt lat="50.01265" lon="4.28119">
        <ele>279.8</ele>
        <time>2024-03-19T15:26:16Z</time>
      </trkpt>
      <trkpt lat="50.01267" lon="4.28129">
        <ele>279.8</ele>
        <time>2024-03-19T15:26:17Z</time>
      </trkpt>
      <trkpt lat="50.01269" lon="4.2814">
        <ele>279.8</ele>
        <time>2024-03-19T15:26:18Z</time>
      </trkpt>
      <trkpt lat="50.01272" lon="4.28151">
        <ele>279.8</ele>
        <time>2024-03-19T15:26:19Z</time>
      </trkpt>
      <trkpt lat="50.01275" lon="4.28161">
        <ele>279.6</ele>
        <time>2024-03-19T15:26:20Z</time>
      </trkpt>
      <trkpt lat="50.01277" lon="4.28172">
        <ele>279.6</ele>
        <time>2024-03-19T15:26:21Z</time>
      </trkpt>
      <trkpt lat="50.0128" lon="4.28183">
        <ele>279.6</ele>
        <time>2024-03-19T15:26:22Z</time>
      </trkpt>
      <trkpt lat="50.01282" lon="4.28193">
        <ele>279.6</ele>
        <time>2024-03-19T15:26:23Z</time>
      </trkpt>
      <trkpt lat="50.01285" lon="4.28203">
        <ele>279.6</ele>
        <time>2024-03-19T15:26:24Z</time>
      </trkpt>
      <trkpt lat="50.01287" lon="4.28213">
        <ele>279.6</ele>
        <time>2024-03-19T15:26:25Z</time>
      </trkpt>
      <trkpt lat="50.01289" lon="4.28223">
        <ele>279.6</ele>
        <time>2024-03-19T15:26:26Z</time>
      </trkpt>
      <trkpt lat="50.01291" lon="4.28232">
        <ele>279.6</ele>
        <time>2024-03-19T15:26:27Z</time>
      </trkpt>
      <trkpt lat="50.01293" lon="4.28242">
        <ele>279.4</ele>
        <time>2024-03-19T15:26:28Z</time>
      </trkpt>
      <trkpt lat="50.01295" lon="4.28252">
        <ele>279.4</ele>
        <time>2024-03-19T15:26:29Z</time>
      </trkpt>
      <trkpt lat="50.01297" lon="4.28261">
        <ele>279.6</ele>
        <time>2024-03-19T15:26:30Z</time>
      </trkpt>
      <trkpt lat="50.013" lon="4.28272">
        <ele>279.6</ele>
        <time>2024-03-19T15:26:31Z</time>
      </trkpt>
      <trkpt lat="50.01302" lon="4.28282">
        <ele>279.4</ele>
        <time>2024-03-19T15:26:32Z</time>
      </trkpt>
      <trkpt lat="50.01304" lon="4.28291">
        <ele>279.4</ele>
        <time>2024-03-19T15:26:33Z</time>
      </trkpt>
      <trkpt lat="50.01306" lon="4.28301">
        <ele>279.4</ele>
        <time>2024-03-19T15:26:34Z</time>
      </trkpt>
      <trkpt lat="50.01309" lon="4.28311">
        <ele>279.4</ele>
        <time>2024-03-19T15:26:35Z</time>
      </trkpt>
      <trkpt lat="50.01311" lon="4.28321">
        <ele>279.6</ele>
        <time>2024-03-19T15:26:36Z</time>
      </trkpt>
      <trkpt lat="50.01314" lon="4.2833">
        <ele>279.8</ele>
        <time>2024-03-19T15:26:37Z</time>
      </trkpt>
      <trkpt lat="50.01316" lon="4.2834">
        <ele>280</ele>
        <time>2024-03-19T15:26:38Z</time>
      </trkpt>
      <trkpt lat="50.01318" lon="4.2835">
        <ele>280.4</ele>
        <time>2024-03-19T15:26:39Z</time>
      </trkpt>
      <trkpt lat="50.0132" lon="4.2836">
        <ele>281</ele>
        <time>2024-03-19T15:26:40Z</time>
      </trkpt>
      <trkpt lat="50.01322" lon="4.28369">
        <ele>281</ele>
        <time>2024-03-19T15:26:41Z</time>
      </trkpt>
      <trkpt lat="50.01325" lon="4.28379">
        <ele>281.4</ele>
        <time>2024-03-19T15:26:42Z</time>
      </trkpt>
      <trkpt lat="50.01327" lon="4.28389">
        <ele>281.6</ele>
        <time>2024-03-19T15:26:43Z</time>
      </trkpt>
      <trkpt lat="50.01329" lon="4.28398">
        <ele>281.8</ele>
        <time>2024-03-19T15:26:44Z</time>
      </trkpt>
      <trkpt lat="50.01331" lon="4.28408">
        <ele>281.8</ele>
        <time>2024-03-19T15:26:45Z</time>
      </trkpt>
      <trkpt lat="50.01333" lon="4.28418">
        <ele>282</ele>
        <time>2024-03-19T15:26:46Z</time>
      </trkpt>
      <trkpt lat="50.01335" lon="4.28428">
        <ele>282.6</ele>
        <time>2024-03-19T15:26:47Z</time>
      </trkpt>
      <trkpt lat="50.01337" lon="4.28437">
        <ele>283</ele>
        <time>2024-03-19T15:26:48Z</time>
      </trkpt>
      <trkpt lat="50.01337" lon="4.28437">
        <ele>283</ele>
        <time>2024-03-19T15:26:49Z</time>
      </trkpt>
      <trkpt lat="50.01341" lon="4.28457">
        <ele>283.4</ele>
        <time>2024-03-19T15:26:50Z</time>
      </trkpt>
      <trkpt lat="50.01344" lon="4.28466">
        <ele>283.8</ele>
        <time>2024-03-19T15:26:51Z</time>
      </trkpt>
      <trkpt lat="50.01344" lon="4.28466">
        <ele>284</ele>
        <time>2024-03-19T15:26:52Z</time>
      </trkpt>
      <trkpt lat="50.01348" lon="4.28486">
        <ele>284.2</ele>
        <time>2024-03-19T15:26:53Z</time>
      </trkpt>
      <trkpt lat="50.0135" lon="4.28496">
        <ele>284.2</ele>
        <time>2024-03-19T15:26:54Z</time>
      </trkpt>
      <trkpt lat="50.01352" lon="4.28505">
        <ele>284.6</ele>
        <time>2024-03-19T15:26:55Z</time>
      </trkpt>
      <trkpt lat="50.01354" lon="4.28515">
        <ele>284.8</ele>
        <time>2024-03-19T15:26:56Z</time>
      </trkpt>
      <trkpt lat="50.01356" lon="4.28525">
        <ele>285.2</ele>
        <time>2024-03-19T15:26:57Z</time>
      </trkpt>
      <trkpt lat="50.01358" lon="4.28534">
        <ele>285.8</ele>
        <time>2024-03-19T15:26:58Z</time>
      </trkpt>
      <trkpt lat="50.0136" lon="4.28544">
        <ele>286</ele>
        <time>2024-03-19T15:26:59Z</time>
      </trkpt>
      <trkpt lat="50.01362" lon="4.28553">
        <ele>286</ele>
        <time>2024-03-19T15:27:00Z</time>
      </trkpt>
      <trkpt lat="50.01364" lon="4.28563">
        <ele>286.4</ele>
        <time>2024-03-19T15:27:01Z</time>
      </trkpt>
      <trkpt lat="50.01366" lon="4.28573">
        <ele>286.4</ele>
        <time>2024-03-19T15:27:02Z</time>
      </trkpt>
      <trkpt lat="50.01368" lon="4.28583">
        <ele>286.6</ele>
        <time>2024-03-19T15:27:03Z</time>
      </trkpt>
      <trkpt lat="50.01371" lon="4.28592">
        <ele>286.6</ele>
        <time>2024-03-19T15:27:04Z</time>
      </trkpt>
      <trkpt lat="50.01373" lon="4.28602">
        <ele>287</ele>
        <time>2024-03-19T15:27:05Z</time>
      </trkpt>
      <trkpt lat="50.01375" lon="4.28612">
        <ele>287</ele>
        <time>2024-03-19T15:27:06Z</time>
      </trkpt>
      <trkpt lat="50.01377" lon="4.28622">
        <ele>287</ele>
        <time>2024-03-19T15:27:07Z</time>
      </trkpt>
      <trkpt lat="50.01379" lon="4.28632">
        <ele>287.4</ele>
        <time>2024-03-19T15:27:08Z</time>
      </trkpt>
      <trkpt lat="50.01381" lon="4.28641">
        <ele>287.6</ele>
        <time>2024-03-19T15:27:09Z</time>
      </trkpt>
      <trkpt lat="50.01383" lon="4.28651">
        <ele>288.2</ele>
        <time>2024-03-19T15:27:10Z</time>
      </trkpt>
      <trkpt lat="50.01385" lon="4.28661">
        <ele>288.8</ele>
        <time>2024-03-19T15:27:11Z</time>
      </trkpt>
      <trkpt lat="50.01387" lon="4.28671">
        <ele>289</ele>
        <time>2024-03-19T15:27:12Z</time>
      </trkpt>
      <trkpt lat="50.01389" lon="4.2868">
        <ele>289.2</ele>
        <time>2024-03-19T15:27:13Z</time>
      </trkpt>
      <trkpt lat="50.01391" lon="4.2869">
        <ele>289.4</ele>
        <time>2024-03-19T15:27:14Z</time>
      </trkpt>
      <trkpt lat="50.01394" lon="4.287">
        <ele>289.8</ele>
        <time>2024-03-19T15:27:15Z</time>
      </trkpt>
      <trkpt lat="50.01396" lon="4.2871">
        <ele>289.8</ele>
        <time>2024-03-19T15:27:16Z</time>
      </trkpt>
      <trkpt lat="50.01398" lon="4.2872">
        <ele>290</ele>
        <time>2024-03-19T15:27:17Z</time>
      </trkpt>
      <trkpt lat="50.014" lon="4.2873">
        <ele>290.2</ele>
        <time>2024-03-19T15:27:18Z</time>
      </trkpt>
      <trkpt lat="50.01402" lon="4.2874">
        <ele>290.2</ele>
        <time>2024-03-19T15:27:19Z</time>
      </trkpt>
      <trkpt lat="50.01404" lon="4.28749">
        <ele>290.4</ele>
        <time>2024-03-19T15:27:20Z</time>
      </trkpt>
      <trkpt lat="50.01407" lon="4.28759">
        <ele>290.8</ele>
        <time>2024-03-19T15:27:21Z</time>
      </trkpt>
      <trkpt lat="50.01409" lon="4.28769">
        <ele>290.6</ele>
        <time>2024-03-19T15:27:22Z</time>
      </trkpt>
      <trkpt lat="50.01411" lon="4.28779">
        <ele>290.6</ele>
        <time>2024-03-19T15:27:23Z</time>
      </trkpt>
      <trkpt lat="50.01413" lon="4.28789">
        <ele>291</ele>
        <time>2024-03-19T15:27:24Z</time>
      </trkpt>
      <trkpt lat="50.01415" lon="4.288">
        <ele>291</ele>
        <time>2024-03-19T15:27:25Z</time>
      </trkpt>
      <trkpt lat="50.01417" lon="4.2881">
        <ele>291</ele>
        <time>2024-03-19T15:27:26Z</time>
      </trkpt>
      <trkpt lat="50.01419" lon="4.2882">
        <ele>291.4</ele>
        <time>2024-03-19T15:27:27Z</time>
      </trkpt>
      <trkpt lat="50.01421" lon="4.2883">
        <ele>291.2</ele>
        <time>2024-03-19T15:27:28Z</time>
      </trkpt>
      <trkpt lat="50.01424" lon="4.28841">
        <ele>291.6</ele>
        <time>2024-03-19T15:27:29Z</time>
      </trkpt>
      <trkpt lat="50.01426" lon="4.28851">
        <ele>291.6</ele>
        <time>2024-03-19T15:27:30Z</time>
      </trkpt>
      <trkpt lat="50.01428" lon="4.28861">
        <ele>291.6</ele>
        <time>2024-03-19T15:27:31Z</time>
      </trkpt>
      <trkpt lat="50.0143" lon="4.28871">
        <ele>291.8</ele>
        <time>2024-03-19T15:27:32Z</time>
      </trkpt>
      <trkpt lat="50.0143" lon="4.28871">
        <ele>291.6</ele>
        <time>2024-03-19T15:27:33Z</time>
      </trkpt>
      <trkpt lat="50.01434" lon="4.28892">
        <ele>291.8</ele>
        <time>2024-03-19T15:27:34Z</time>
      </trkpt>
      <trkpt lat="50.01436" lon="4.28902">
        <ele>291.8</ele>
        <time>2024-03-19T15:27:35Z</time>
      </trkpt>
      <trkpt lat="50.01439" lon="4.28912">
        <ele>291.8</ele>
        <time>2024-03-19T15:27:36Z</time>
      </trkpt>
      <trkpt lat="50.01441" lon="4.28922">
        <ele>291.6</ele>
        <time>2024-03-19T15:27:37Z</time>
      </trkpt>
      <trkpt lat="50.01443" lon="4.28932">
        <ele>291.8</ele>
        <time>2024-03-19T15:27:38Z</time>
      </trkpt>
      <trkpt lat="50.01445" lon="4.28942">
        <ele>291.8</ele>
        <time>2024-03-19T15:27:39Z</time>
      </trkpt>
      <trkpt lat="50.01447" lon="4.28953">
        <ele>291.8</ele>
        <time>2024-03-19T15:27:40Z</time>
      </trkpt>
      <trkpt lat="50.0145" lon="4.28963">
        <ele>291.6</ele>
        <time>2024-03-19T15:27:41Z</time>
      </trkpt>
      <trkpt lat="50.01452" lon="4.28973">
        <ele>291.8</ele>
        <time>2024-03-19T15:27:42Z</time>
      </trkpt>
      <trkpt lat="50.01454" lon="4.28983">
        <ele>291.8</ele>
        <time>2024-03-19T15:27:43Z</time>
      </trkpt>
      <trkpt lat="50.01454" lon="4.28983">
        <ele>291.6</ele>
        <time>2024-03-19T15:27:44Z</time>
      </trkpt>
      <trkpt lat="50.01458" lon="4.29004">
        <ele>291.6</ele>
        <time>2024-03-19T15:27:45Z</time>
      </trkpt>
      <trkpt lat="50.01461" lon="4.29014">
        <ele>291.6</ele>
        <time>2024-03-19T15:27:46Z</time>
      </trkpt>
      <trkpt lat="50.01463" lon="4.29024">
        <ele>291.6</ele>
        <time>2024-03-19T15:27:47Z</time>
      </trkpt>
      <trkpt lat="50.01465" lon="4.29034">
        <ele>291.6</ele>
        <time>2024-03-19T15:27:48Z</time>
      </trkpt>
      <trkpt lat="50.01467" lon="4.29045">
        <ele>291.6</ele>
        <time>2024-03-19T15:27:49Z</time>
      </trkpt>
      <trkpt lat="50.01467" lon="4.29045">
        <ele>291.4</ele>
        <time>2024-03-19T15:27:50Z</time>
      </trkpt>
      <trkpt lat="50.01472" lon="4.29065">
        <ele>291.6</ele>
        <time>2024-03-19T15:27:51Z</time>
      </trkpt>
      <trkpt lat="50.01474" lon="4.29075">
        <ele>291.6</ele>
        <time>2024-03-19T15:27:52Z</time>
      </trkpt>
      <trkpt lat="50.01476" lon="4.29085">
        <ele>291.4</ele>
        <time>2024-03-19T15:27:53Z</time>
      </trkpt>
      <trkpt lat="50.01478" lon="4.29096">
        <ele>291.6</ele>
        <time>2024-03-19T15:27:54Z</time>
      </trkpt>
      <trkpt lat="50.01481" lon="4.29106">
        <ele>291.6</ele>
        <time>2024-03-19T15:27:55Z</time>
      </trkpt>
      <trkpt lat="50.01483" lon="4.29116">
        <ele>291.4</ele>
        <time>2024-03-19T15:27:56Z</time>
      </trkpt>
      <trkpt lat="50.01485" lon="4.29126">
        <ele>291.6</ele>
        <time>2024-03-19T15:27:57Z</time>
      </trkpt>
      <trkpt lat="50.01487" lon="4.29137">
        <ele>291.6</ele>
        <time>2024-03-19T15:27:58Z</time>
      </trkpt>
      <trkpt lat="50.01489" lon="4.29147">
        <ele>291.6</ele>
        <time>2024-03-19T15:27:59Z</time>
      </trkpt>
      <trkpt lat="50.01492" lon="4.29157">
        <ele>291.6</ele>
        <time>2024-03-19T15:28:00Z</time>
      </trkpt>
      <trkpt lat="50.01494" lon="4.29167">
        <ele>291.6</ele>
        <time>2024-03-19T15:28:01Z</time>
      </trkpt>
      <trkpt lat="50.01496" lon="4.29177">
        <ele>291.8</ele>
        <time>2024-03-19T15:28:02Z</time>
      </trkpt>
      <trkpt lat="50.01498" lon="4.29187">
        <ele>291.8</ele>
        <time>2024-03-19T15:28:03Z</time>
      </trkpt>
      <trkpt lat="50.015" lon="4.29197">
        <ele>291.8</ele>
        <time>2024-03-19T15:28:04Z</time>
      </trkpt>
      <trkpt lat="50.01502" lon="4.29207">
        <ele>292</ele>
        <time>2024-03-19T15:28:05Z</time>
      </trkpt>
      <trkpt lat="50.01504" lon="4.29218">
        <ele>291.8</ele>
        <time>2024-03-19T15:28:06Z</time>
      </trkpt>
      <trkpt lat="50.01507" lon="4.29228">
        <ele>292</ele>
        <time>2024-03-19T15:28:07Z</time>
      </trkpt>
      <trkpt lat="50.01509" lon="4.29239">
        <ele>292</ele>
        <time>2024-03-19T15:28:08Z</time>
      </trkpt>
      <trkpt lat="50.01511" lon="4.29249">
        <ele>292.4</ele>
        <time>2024-03-19T15:28:09Z</time>
      </trkpt>
      <trkpt lat="50.01514" lon="4.29259">
        <ele>293</ele>
        <time>2024-03-19T15:28:10Z</time>
      </trkpt>
      <trkpt lat="50.01515" lon="4.2927">
        <ele>293.2</ele>
        <time>2024-03-19T15:28:11Z</time>
      </trkpt>
      <trkpt lat="50.01517" lon="4.2928">
        <ele>293.6</ele>
        <time>2024-03-19T15:28:12Z</time>
      </trkpt>
      <trkpt lat="50.0152" lon="4.29291">
        <ele>293.6</ele>
        <time>2024-03-19T15:28:13Z</time>
      </trkpt>
      <trkpt lat="50.01522" lon="4.29301">
        <ele>293.6</ele>
        <time>2024-03-19T15:28:14Z</time>
      </trkpt>
      <trkpt lat="50.01524" lon="4.29311">
        <ele>293.6</ele>
        <time>2024-03-19T15:28:15Z</time>
      </trkpt>
      <trkpt lat="50.01526" lon="4.29322">
        <ele>293.6</ele>
        <time>2024-03-19T15:28:16Z</time>
      </trkpt>
      <trkpt lat="50.01528" lon="4.29332">
        <ele>293.6</ele>
        <time>2024-03-19T15:28:17Z</time>
      </trkpt>
      <trkpt lat="50.0153" lon="4.29342">
        <ele>293.6</ele>
        <time>2024-03-19T15:28:18Z</time>
      </trkpt>
      <trkpt lat="50.01532" lon="4.29352">
        <ele>293.8</ele>
        <time>2024-03-19T15:28:19Z</time>
      </trkpt>
      <trkpt lat="50.01534" lon="4.29362">
        <ele>293.8</ele>
        <time>2024-03-19T15:28:20Z</time>
      </trkpt>
      <trkpt lat="50.01537" lon="4.29372">
        <ele>293.8</ele>
        <time>2024-03-19T15:28:21Z</time>
      </trkpt>
      <trkpt lat="50.01539" lon="4.29382">
        <ele>293.8</ele>
        <time>2024-03-19T15:28:22Z</time>
      </trkpt>
      <trkpt lat="50.01541" lon="4.29392">
        <ele>294</ele>
        <time>2024-03-19T15:28:23Z</time>
      </trkpt>
      <trkpt lat="50.01543" lon="4.29402">
        <ele>294</ele>
        <time>2024-03-19T15:28:24Z</time>
      </trkpt>
      <trkpt lat="50.01545" lon="4.29412">
        <ele>294</ele>
        <time>2024-03-19T15:28:25Z</time>
      </trkpt>
      <trkpt lat="50.01547" lon="4.29422">
        <ele>294</ele>
        <time>2024-03-19T15:28:26Z</time>
      </trkpt>
      <trkpt lat="50.01549" lon="4.29432">
        <ele>294</ele>
        <time>2024-03-19T15:28:27Z</time>
      </trkpt>
      <trkpt lat="50.01552" lon="4.29442">
        <ele>294</ele>
        <time>2024-03-19T15:28:28Z</time>
      </trkpt>
      <trkpt lat="50.01554" lon="4.29452">
        <ele>294</ele>
        <time>2024-03-19T15:28:29Z</time>
      </trkpt>
      <trkpt lat="50.01556" lon="4.29462">
        <ele>294</ele>
        <time>2024-03-19T15:28:30Z</time>
      </trkpt>
      <trkpt lat="50.01558" lon="4.29472">
        <ele>294</ele>
        <time>2024-03-19T15:28:31Z</time>
      </trkpt>
      <trkpt lat="50.0156" lon="4.29483">
        <ele>294.2</ele>
        <time>2024-03-19T15:28:32Z</time>
      </trkpt>
      <trkpt lat="50.01562" lon="4.29493">
        <ele>294.4</ele>
        <time>2024-03-19T15:28:33Z</time>
      </trkpt>
      <trkpt lat="50.01565" lon="4.29503">
        <ele>294.4</ele>
        <time>2024-03-19T15:28:34Z</time>
      </trkpt>
      <trkpt lat="50.01567" lon="4.29514">
        <ele>294.4</ele>
        <time>2024-03-19T15:28:35Z</time>
      </trkpt>
      <trkpt lat="50.0157" lon="4.29524">
        <ele>294.6</ele>
        <time>2024-03-19T15:28:36Z</time>
      </trkpt>
      <trkpt lat="50.01572" lon="4.29535">
        <ele>294.6</ele>
        <time>2024-03-19T15:28:37Z</time>
      </trkpt>
      <trkpt lat="50.01574" lon="4.29545">
        <ele>294.4</ele>
        <time>2024-03-19T15:28:38Z</time>
      </trkpt>
      <trkpt lat="50.01577" lon="4.29555">
        <ele>294.6</ele>
        <time>2024-03-19T15:28:39Z</time>
      </trkpt>
      <trkpt lat="50.01579" lon="4.29565">
        <ele>294.6</ele>
        <time>2024-03-19T15:28:40Z</time>
      </trkpt>
      <trkpt lat="50.01581" lon="4.29575">
        <ele>294.6</ele>
        <time>2024-03-19T15:28:41Z</time>
      </trkpt>
      <trkpt lat="50.01583" lon="4.29586">
        <ele>294.8</ele>
        <time>2024-03-19T15:28:42Z</time>
      </trkpt>
      <trkpt lat="50.01585" lon="4.29596">
        <ele>294.8</ele>
        <time>2024-03-19T15:28:43Z</time>
      </trkpt>
      <trkpt lat="50.01588" lon="4.29607">
        <ele>295</ele>
        <time>2024-03-19T15:28:44Z</time>
      </trkpt>
      <trkpt lat="50.0159" lon="4.29617">
        <ele>294.8</ele>
        <time>2024-03-19T15:28:45Z</time>
      </trkpt>
      <trkpt lat="50.01592" lon="4.29627">
        <ele>295</ele>
        <time>2024-03-19T15:28:46Z</time>
      </trkpt>
      <trkpt lat="50.01595" lon="4.29637">
        <ele>295</ele>
        <time>2024-03-19T15:28:47Z</time>
      </trkpt>
      <trkpt lat="50.01597" lon="4.29648">
        <ele>295</ele>
        <time>2024-03-19T15:28:48Z</time>
      </trkpt>
      <trkpt lat="50.01599" lon="4.29658">
        <ele>295.2</ele>
        <time>2024-03-19T15:28:49Z</time>
      </trkpt>
      <trkpt lat="50.01601" lon="4.29668">
        <ele>295</ele>
        <time>2024-03-19T15:28:50Z</time>
      </trkpt>
      <trkpt lat="50.01603" lon="4.29678">
        <ele>295</ele>
        <time>2024-03-19T15:28:51Z</time>
      </trkpt>
      <trkpt lat="50.01606" lon="4.29688">
        <ele>295</ele>
        <time>2024-03-19T15:28:52Z</time>
      </trkpt>
      <trkpt lat="50.01608" lon="4.29699">
        <ele>295.2</ele>
        <time>2024-03-19T15:28:53Z</time>
      </trkpt>
      <trkpt lat="50.0161" lon="4.29709">
        <ele>295.2</ele>
        <time>2024-03-19T15:28:54Z</time>
      </trkpt>
      <trkpt lat="50.01612" lon="4.29719">
        <ele>295.2</ele>
        <time>2024-03-19T15:28:55Z</time>
      </trkpt>
      <trkpt lat="50.01614" lon="4.2973">
        <ele>295.2</ele>
        <time>2024-03-19T15:28:56Z</time>
      </trkpt>
      <trkpt lat="50.01616" lon="4.2974">
        <ele>295.2</ele>
        <time>2024-03-19T15:28:57Z</time>
      </trkpt>
      <trkpt lat="50.01619" lon="4.2975">
        <ele>295.4</ele>
        <time>2024-03-19T15:28:58Z</time>
      </trkpt>
      <trkpt lat="50.01621" lon="4.2976">
        <ele>295.4</ele>
        <time>2024-03-19T15:28:59Z</time>
      </trkpt>
      <trkpt lat="50.01623" lon="4.2977">
        <ele>295.4</ele>
        <time>2024-03-19T15:29:00Z</time>
      </trkpt>
      <trkpt lat="50.01625" lon="4.29781">
        <ele>295.6</ele>
        <time>2024-03-19T15:29:01Z</time>
      </trkpt>
      <trkpt lat="50.01627" lon="4.29791">
        <ele>295.8</ele>
        <time>2024-03-19T15:29:02Z</time>
      </trkpt>
      <trkpt lat="50.01629" lon="4.29801">
        <ele>296</ele>
        <time>2024-03-19T15:29:03Z</time>
      </trkpt>
      <trkpt lat="50.01631" lon="4.29812">
        <ele>296.2</ele>
        <time>2024-03-19T15:29:04Z</time>
      </trkpt>
      <trkpt lat="50.01634" lon="4.29822">
        <ele>296.2</ele>
        <time>2024-03-19T15:29:05Z</time>
      </trkpt>
      <trkpt lat="50.01636" lon="4.29832">
        <ele>296.4</ele>
        <time>2024-03-19T15:29:06Z</time>
      </trkpt>
      <trkpt lat="50.01638" lon="4.29842">
        <ele>296.4</ele>
        <time>2024-03-19T15:29:07Z</time>
      </trkpt>
      <trkpt lat="50.0164" lon="4.29852">
        <ele>296.4</ele>
        <time>2024-03-19T15:29:08Z</time>
      </trkpt>
      <trkpt lat="50.01642" lon="4.29862">
        <ele>296.4</ele>
        <time>2024-03-19T15:29:09Z</time>
      </trkpt>
      <trkpt lat="50.01644" lon="4.29872">
        <ele>296.4</ele>
        <time>2024-03-19T15:29:10Z</time>
      </trkpt>
      <trkpt lat="50.01647" lon="4.29882">
        <ele>296.6</ele>
        <time>2024-03-19T15:29:11Z</time>
      </trkpt>
      <trkpt lat="50.01649" lon="4.29892">
        <ele>296.6</ele>
        <time>2024-03-19T15:29:12Z</time>
      </trkpt>
      <trkpt lat="50.01651" lon="4.29903">
        <ele>296.6</ele>
        <time>2024-03-19T15:29:13Z</time>
      </trkpt>
      <trkpt lat="50.01653" lon="4.29913">
        <ele>296.8</ele>
        <time>2024-03-19T15:29:14Z</time>
      </trkpt>
      <trkpt lat="50.01655" lon="4.29923">
        <ele>296.6</ele>
        <time>2024-03-19T15:29:15Z</time>
      </trkpt>
      <trkpt lat="50.01657" lon="4.29933">
        <ele>296.8</ele>
        <time>2024-03-19T15:29:16Z</time>
      </trkpt>
      <trkpt lat="50.01659" lon="4.29943">
        <ele>296.6</ele>
        <time>2024-03-19T15:29:17Z</time>
      </trkpt>
      <trkpt lat="50.01661" lon="4.29953">
        <ele>296.6</ele>
        <time>2024-03-19T15:29:18Z</time>
      </trkpt>
      <trkpt lat="50.01664" lon="4.29964">
        <ele>296.8</ele>
        <time>2024-03-19T15:29:19Z</time>
      </trkpt>
      <trkpt lat="50.01666" lon="4.29974">
        <ele>297</ele>
        <time>2024-03-19T15:29:20Z</time>
      </trkpt>
      <trkpt lat="50.01669" lon="4.29984">
        <ele>297.2</ele>
        <time>2024-03-19T15:29:21Z</time>
      </trkpt>
      <trkpt lat="50.01671" lon="4.29995">
        <ele>297.2</ele>
        <time>2024-03-19T15:29:22Z</time>
      </trkpt>
      <trkpt lat="50.01673" lon="4.30005">
        <ele>297.2</ele>
        <time>2024-03-19T15:29:23Z</time>
      </trkpt>
      <trkpt lat="50.01675" lon="4.30015">
        <ele>297.2</ele>
        <time>2024-03-19T15:29:24Z</time>
      </trkpt>
      <trkpt lat="50.01677" lon="4.30024">
        <ele>297.4</ele>
        <time>2024-03-19T15:29:25Z</time>
      </trkpt>
      <trkpt lat="50.0168" lon="4.30034">
        <ele>297.2</ele>
        <time>2024-03-19T15:29:26Z</time>
      </trkpt>
      <trkpt lat="50.01682" lon="4.30044">
        <ele>297.2</ele>
        <time>2024-03-19T15:29:27Z</time>
      </trkpt>
      <trkpt lat="50.01684" lon="4.30053">
        <ele>297.2</ele>
        <time>2024-03-19T15:29:28Z</time>
      </trkpt>
      <trkpt lat="50.01687" lon="4.30063">
        <ele>297.4</ele>
        <time>2024-03-19T15:29:29Z</time>
      </trkpt>
      <trkpt lat="50.01689" lon="4.30074">
        <ele>297.4</ele>
        <time>2024-03-19T15:29:30Z</time>
      </trkpt>
      <trkpt lat="50.01691" lon="4.30084">
        <ele>297.4</ele>
        <time>2024-03-19T15:29:31Z</time>
      </trkpt>
      <trkpt lat="50.01693" lon="4.30095">
        <ele>297.2</ele>
        <time>2024-03-19T15:29:32Z</time>
      </trkpt>
      <trkpt lat="50.01695" lon="4.30105">
        <ele>297.4</ele>
        <time>2024-03-19T15:29:33Z</time>
      </trkpt>
      <trkpt lat="50.01698" lon="4.30115">
        <ele>297.4</ele>
        <time>2024-03-19T15:29:34Z</time>
      </trkpt>
      <trkpt lat="50.017" lon="4.30125">
        <ele>297.4</ele>
        <time>2024-03-19T15:29:35Z</time>
      </trkpt>
      <trkpt lat="50.01703" lon="4.30136">
        <ele>297.4</ele>
        <time>2024-03-19T15:29:36Z</time>
      </trkpt>
      <trkpt lat="50.01705" lon="4.30146">
        <ele>297.6</ele>
        <time>2024-03-19T15:29:37Z</time>
      </trkpt>
      <trkpt lat="50.01707" lon="4.30157">
        <ele>297.8</ele>
        <time>2024-03-19T15:29:38Z</time>
      </trkpt>
      <trkpt lat="50.0171" lon="4.30167">
        <ele>297.6</ele>
        <time>2024-03-19T15:29:39Z</time>
      </trkpt>
      <trkpt lat="50.01712" lon="4.30177">
        <ele>297.8</ele>
        <time>2024-03-19T15:29:40Z</time>
      </trkpt>
      <trkpt lat="50.01714" lon="4.30188">
        <ele>297.8</ele>
        <time>2024-03-19T15:29:41Z</time>
      </trkpt>
      <trkpt lat="50.01716" lon="4.30198">
        <ele>297.8</ele>
        <time>2024-03-19T15:29:42Z</time>
      </trkpt>
      <trkpt lat="50.01718" lon="4.30209">
        <ele>297.8</ele>
        <time>2024-03-19T15:29:43Z</time>
      </trkpt>
      <trkpt lat="50.0172" lon="4.30219">
        <ele>297.8</ele>
        <time>2024-03-19T15:29:44Z</time>
      </trkpt>
      <trkpt lat="50.01723" lon="4.30229">
        <ele>297.8</ele>
        <time>2024-03-19T15:29:45Z</time>
      </trkpt>
      <trkpt lat="50.01725" lon="4.30239">
        <ele>297.8</ele>
        <time>2024-03-19T15:29:46Z</time>
      </trkpt>
      <trkpt lat="50.01727" lon="4.3025">
        <ele>298</ele>
        <time>2024-03-19T15:29:47Z</time>
      </trkpt>
      <trkpt lat="50.01729" lon="4.3026">
        <ele>298</ele>
        <time>2024-03-19T15:29:48Z</time>
      </trkpt>
      <trkpt lat="50.01732" lon="4.30271">
        <ele>297.8</ele>
        <time>2024-03-19T15:29:49Z</time>
      </trkpt>
      <trkpt lat="50.01734" lon="4.30281">
        <ele>297.8</ele>
        <time>2024-03-19T15:29:50Z</time>
      </trkpt>
      <trkpt lat="50.01736" lon="4.30292">
        <ele>297.8</ele>
        <time>2024-03-19T15:29:51Z</time>
      </trkpt>
      <trkpt lat="50.01738" lon="4.30303">
        <ele>297.8</ele>
        <time>2024-03-19T15:29:52Z</time>
      </trkpt>
      <trkpt lat="50.0174" lon="4.30313">
        <ele>298</ele>
        <time>2024-03-19T15:29:53Z</time>
      </trkpt>
      <trkpt lat="50.01743" lon="4.30324">
        <ele>298</ele>
        <time>2024-03-19T15:29:54Z</time>
      </trkpt>
      <trkpt lat="50.01745" lon="4.30335">
        <ele>298</ele>
        <time>2024-03-19T15:29:55Z</time>
      </trkpt>
      <trkpt lat="50.01747" lon="4.30345">
        <ele>298.2</ele>
        <time>2024-03-19T15:29:56Z</time>
      </trkpt>
      <trkpt lat="50.0175" lon="4.30356">
        <ele>297.8</ele>
        <time>2024-03-19T15:29:57Z</time>
      </trkpt>
      <trkpt lat="50.01752" lon="4.30367">
        <ele>297.6</ele>
        <time>2024-03-19T15:29:58Z</time>
      </trkpt>
      <trkpt lat="50.01755" lon="4.30378">
        <ele>297.8</ele>
        <time>2024-03-19T15:29:59Z</time>
      </trkpt>
      <trkpt lat="50.01757" lon="4.30389">
        <ele>297.6</ele>
        <time>2024-03-19T15:30:00Z</time>
      </trkpt>
      <trkpt lat="50.01758" lon="4.30401">
        <ele>297.4</ele>
        <time>2024-03-19T15:30:01Z</time>
      </trkpt>
      <trkpt lat="50.01757" lon="4.30413">
        <ele>297.4</ele>
        <time>2024-03-19T15:30:02Z</time>
      </trkpt>
      <trkpt lat="50.01756" lon="4.30425">
        <ele>297.6</ele>
        <time>2024-03-19T15:30:03Z</time>
      </trkpt>
      <trkpt lat="50.01754" lon="4.30437">
        <ele>297.6</ele>
        <time>2024-03-19T15:30:04Z</time>
      </trkpt>
      <trkpt lat="50.01752" lon="4.30448">
        <ele>297.4</ele>
        <time>2024-03-19T15:30:05Z</time>
      </trkpt>
      <trkpt lat="50.01749" lon="4.3046">
        <ele>297.4</ele>
        <time>2024-03-19T15:30:06Z</time>
      </trkpt>
      <trkpt lat="50.01746" lon="4.30471">
        <ele>297.4</ele>
        <time>2024-03-19T15:30:07Z</time>
      </trkpt>
      <trkpt lat="50.01744" lon="4.30483">
        <ele>297</ele>
        <time>2024-03-19T15:30:08Z</time>
      </trkpt>
      <trkpt lat="50.01742" lon="4.30494">
        <ele>297</ele>
        <time>2024-03-19T15:30:09Z</time>
      </trkpt>
      <trkpt lat="50.0174" lon="4.30505">
        <ele>296.8</ele>
        <time>2024-03-19T15:30:10Z</time>
      </trkpt>
      <trkpt lat="50.01738" lon="4.30516">
        <ele>296.8</ele>
        <time>2024-03-19T15:30:11Z</time>
      </trkpt>
      <trkpt lat="50.01736" lon="4.30526">
        <ele>296.6</ele>
        <time>2024-03-19T15:30:12Z</time>
      </trkpt>
      <trkpt lat="50.01733" lon="4.30537">
        <ele>296.4</ele>
        <time>2024-03-19T15:30:13Z</time>
      </trkpt>
      <trkpt lat="50.01731" lon="4.30548">
        <ele>296.2</ele>
        <time>2024-03-19T15:30:14Z</time>
      </trkpt>
      <trkpt lat="50.01729" lon="4.30559">
        <ele>295.8</ele>
        <time>2024-03-19T15:30:15Z</time>
      </trkpt>
      <trkpt lat="50.01727" lon="4.30569">
        <ele>295.6</ele>
        <time>2024-03-19T15:30:16Z</time>
      </trkpt>
      <trkpt lat="50.01725" lon="4.30578">
        <ele>295.6</ele>
        <time>2024-03-19T15:30:17Z</time>
      </trkpt>
      <trkpt lat="50.01723" lon="4.30584">
        <ele>295.4</ele>
        <time>2024-03-19T15:30:18Z</time>
      </trkpt>
      <trkpt lat="50.01722" lon="4.30588">
        <ele>295.4</ele>
        <time>2024-03-19T15:30:19Z</time>
      </trkpt>
      <trkpt lat="50.01722" lon="4.3059">
        <ele>295.2</ele>
        <time>2024-03-19T15:30:20Z</time>
      </trkpt>
      <trkpt lat="50.01722" lon="4.30591">
        <ele>295.2</ele>
        <time>2024-03-19T15:30:21Z</time>
      </trkpt>
      <trkpt lat="50.01722" lon="4.30591">
        <ele>295.2</ele>
        <time>2024-03-19T15:30:22Z</time>
      </trkpt>
      <trkpt lat="50.01722" lon="4.30591">
        <ele>295.2</ele>
        <time>2024-03-19T15:30:23Z</time>
      </trkpt>
      <trkpt lat="50.01722" lon="4.30591">
        <ele>295.2</ele>
        <time>2024-03-19T15:30:24Z</time>
      </trkpt>
      <trkpt lat="50.01722" lon="4.30591">
        <ele>295.4</ele>
        <time>2024-03-19T15:30:25Z</time>
      </trkpt>
      <trkpt lat="50.01722" lon="4.30591">
        <ele>295.4</ele>
        <time>2024-03-19T15:30:26Z</time>
      </trkpt>
      <trkpt lat="50.01721" lon="4.30598">
        <ele>295.8</ele>
        <time>2024-03-19T15:30:52Z</time>
      </trkpt>
      <trkpt lat="50.0172" lon="4.30602">
        <ele>295.8</ele>
        <time>2024-03-19T15:30:53Z</time>
      </trkpt>
      <trkpt lat="50.01719" lon="4.30605">
        <ele>295.8</ele>
        <time>2024-03-19T15:30:54Z</time>
      </trkpt>
      <trkpt lat="50.01719" lon="4.30609">
        <ele>295.8</ele>
        <time>2024-03-19T15:30:55Z</time>
      </trkpt>
      <trkpt lat="50.01718" lon="4.30614">
        <ele>295.8</ele>
        <time>2024-03-19T15:30:56Z</time>
      </trkpt>
      <trkpt lat="50.01717" lon="4.3062">
        <ele>295.8</ele>
        <time>2024-03-19T15:30:57Z</time>
      </trkpt>
      <trkpt lat="50.01716" lon="4.30626">
        <ele>295.8</ele>
        <time>2024-03-19T15:30:58Z</time>
      </trkpt>
      <trkpt lat="50.01714" lon="4.30633">
        <ele>295.8</ele>
        <time>2024-03-19T15:30:59Z</time>
      </trkpt>
      <trkpt lat="50.01712" lon="4.30641">
        <ele>295.8</ele>
        <time>2024-03-19T15:31:00Z</time>
      </trkpt>
      <trkpt lat="50.0171" lon="4.30649">
        <ele>295.6</ele>
        <time>2024-03-19T15:31:01Z</time>
      </trkpt>
      <trkpt lat="50.01708" lon="4.30658">
        <ele>295.8</ele>
        <time>2024-03-19T15:31:02Z</time>
      </trkpt>
      <trkpt lat="50.01706" lon="4.30667">
        <ele>295.4</ele>
        <time>2024-03-19T15:31:03Z</time>
      </trkpt>
      <trkpt lat="50.01704" lon="4.30677">
        <ele>295.4</ele>
        <time>2024-03-19T15:31:04Z</time>
      </trkpt>
      <trkpt lat="50.01702" lon="4.30688">
        <ele>295.2</ele>
        <time>2024-03-19T15:31:05Z</time>
      </trkpt>
      <trkpt lat="50.017" lon="4.30698">
        <ele>295</ele>
        <time>2024-03-19T15:31:06Z</time>
      </trkpt>
      <trkpt lat="50.01697" lon="4.30709">
        <ele>294.8</ele>
        <time>2024-03-19T15:31:07Z</time>
      </trkpt>
      <trkpt lat="50.01695" lon="4.30719">
        <ele>294.6</ele>
        <time>2024-03-19T15:31:08Z</time>
      </trkpt>
      <trkpt lat="50.01693" lon="4.3073">
        <ele>294.4</ele>
        <time>2024-03-19T15:31:09Z</time>
      </trkpt>
      <trkpt lat="50.0169" lon="4.30741">
        <ele>294</ele>
        <time>2024-03-19T15:31:10Z</time>
      </trkpt>
      <trkpt lat="50.01688" lon="4.30752">
        <ele>293.6</ele>
        <time>2024-03-19T15:31:11Z</time>
      </trkpt>
      <trkpt lat="50.01686" lon="4.30763">
        <ele>293.4</ele>
        <time>2024-03-19T15:31:12Z</time>
      </trkpt>
      <trkpt lat="50.01683" lon="4.30774">
        <ele>293</ele>
        <time>2024-03-19T15:31:13Z</time>
      </trkpt>
      <trkpt lat="50.01681" lon="4.30785">
        <ele>292.2</ele>
        <time>2024-03-19T15:31:14Z</time>
      </trkpt>
      <trkpt lat="50.01679" lon="4.30796">
        <ele>291.8</ele>
        <time>2024-03-19T15:31:15Z</time>
      </trkpt>
      <trkpt lat="50.01677" lon="4.30806">
        <ele>291.8</ele>
        <time>2024-03-19T15:31:16Z</time>
      </trkpt>
      <trkpt lat="50.01674" lon="4.30817">
        <ele>291.6</ele>
        <time>2024-03-19T15:31:17Z</time>
      </trkpt>
      <trkpt lat="50.01672" lon="4.30828">
        <ele>291.4</ele>
        <time>2024-03-19T15:31:18Z</time>
      </trkpt>
      <trkpt lat="50.0167" lon="4.30838">
        <ele>291.4</ele>
        <time>2024-03-19T15:31:19Z</time>
      </trkpt>
      <trkpt lat="50.01668" lon="4.30849">
        <ele>291.4</ele>
        <time>2024-03-19T15:31:20Z</time>
      </trkpt>
      <trkpt lat="50.01665" lon="4.30859">
        <ele>291.4</ele>
        <time>2024-03-19T15:31:21Z</time>
      </trkpt>
      <trkpt lat="50.01663" lon="4.3087">
        <ele>291.4</ele>
        <time>2024-03-19T15:31:22Z</time>
      </trkpt>
      <trkpt lat="50.01661" lon="4.3088">
        <ele>291.4</ele>
        <time>2024-03-19T15:31:23Z</time>
      </trkpt>
      <trkpt lat="50.01659" lon="4.3089">
        <ele>291.4</ele>
        <time>2024-03-19T15:31:24Z</time>
      </trkpt>
      <trkpt lat="50.01657" lon="4.30899">
        <ele>291.4</ele>
        <time>2024-03-19T15:31:25Z</time>
      </trkpt>
      <trkpt lat="50.01655" lon="4.30909">
        <ele>291.8</ele>
        <time>2024-03-19T15:31:26Z</time>
      </trkpt>
      <trkpt lat="50.01653" lon="4.30919">
        <ele>292</ele>
        <time>2024-03-19T15:31:27Z</time>
      </trkpt>
      <trkpt lat="50.0165" lon="4.30928">
        <ele>292</ele>
        <time>2024-03-19T15:31:28Z</time>
      </trkpt>
      <trkpt lat="50.01648" lon="4.30938">
        <ele>292</ele>
        <time>2024-03-19T15:31:29Z</time>
      </trkpt>
      <trkpt lat="50.01646" lon="4.30948">
        <ele>292.2</ele>
        <time>2024-03-19T15:31:30Z</time>
      </trkpt>
      <trkpt lat="50.01644" lon="4.30957">
        <ele>292.4</ele>
        <time>2024-03-19T15:31:31Z</time>
      </trkpt>
      <trkpt lat="50.01642" lon="4.30967">
        <ele>292.4</ele>
        <time>2024-03-19T15:31:32Z</time>
      </trkpt>
      <trkpt lat="50.0164" lon="4.30976">
        <ele>292.4</ele>
        <time>2024-03-19T15:31:33Z</time>
      </trkpt>
      <trkpt lat="50.01637" lon="4.30986">
        <ele>292.4</ele>
        <time>2024-03-19T15:31:34Z</time>
      </trkpt>
      <trkpt lat="50.01635" lon="4.30995">
        <ele>292.6</ele>
        <time>2024-03-19T15:31:35Z</time>
      </trkpt>
      <trkpt lat="50.01634" lon="4.31005">
        <ele>292.8</ele>
        <time>2024-03-19T15:31:36Z</time>
      </trkpt>
      <trkpt lat="50.01631" lon="4.31014">
        <ele>293.2</ele>
        <time>2024-03-19T15:31:37Z</time>
      </trkpt>
      <trkpt lat="50.0163" lon="4.31024">
        <ele>293.4</ele>
        <time>2024-03-19T15:31:38Z</time>
      </trkpt>
      <trkpt lat="50.01628" lon="4.31034">
        <ele>293.8</ele>
        <time>2024-03-19T15:31:39Z</time>
      </trkpt>
      <trkpt lat="50.01625" lon="4.31043">
        <ele>294.2</ele>
        <time>2024-03-19T15:31:40Z</time>
      </trkpt>
      <trkpt lat="50.01623" lon="4.31053">
        <ele>294.4</ele>
        <time>2024-03-19T15:31:41Z</time>
      </trkpt>
      <trkpt lat="50.01621" lon="4.31063">
        <ele>294.6</ele>
        <time>2024-03-19T15:31:42Z</time>
      </trkpt>
      <trkpt lat="50.01619" lon="4.31072">
        <ele>294.8</ele>
        <time>2024-03-19T15:31:43Z</time>
      </trkpt>
      <trkpt lat="50.01617" lon="4.31082">
        <ele>295</ele>
        <time>2024-03-19T15:31:44Z</time>
      </trkpt>
      <trkpt lat="50.01615" lon="4.31092">
        <ele>295</ele>
        <time>2024-03-19T15:31:45Z</time>
      </trkpt>
      <trkpt lat="50.01613" lon="4.31102">
        <ele>295.4</ele>
        <time>2024-03-19T15:31:46Z</time>
      </trkpt>
      <trkpt lat="50.01611" lon="4.31112">
        <ele>295.6</ele>
        <time>2024-03-19T15:31:47Z</time>
      </trkpt>
      <trkpt lat="50.01609" lon="4.31121">
        <ele>295.8</ele>
        <time>2024-03-19T15:31:48Z</time>
      </trkpt>
      <trkpt lat="50.01607" lon="4.31131">
        <ele>295.8</ele>
        <time>2024-03-19T15:31:49Z</time>
      </trkpt>
      <trkpt lat="50.01605" lon="4.31141">
        <ele>296</ele>
        <time>2024-03-19T15:31:50Z</time>
      </trkpt>
      <trkpt lat="50.01603" lon="4.3115">
        <ele>296.2</ele>
        <time>2024-03-19T15:31:51Z</time>
      </trkpt>
      <trkpt lat="50.016" lon="4.3116">
        <ele>296.4</ele>
        <time>2024-03-19T15:31:52Z</time>
      </trkpt>
      <trkpt lat="50.01598" lon="4.31169">
        <ele>296.6</ele>
        <time>2024-03-19T15:31:53Z</time>
      </trkpt>
      <trkpt lat="50.01596" lon="4.31179">
        <ele>296.8</ele>
        <time>2024-03-19T15:31:54Z</time>
      </trkpt>
      <trkpt lat="50.01595" lon="4.31189">
        <ele>296.8</ele>
        <time>2024-03-19T15:31:55Z</time>
      </trkpt>
      <trkpt lat="50.01592" lon="4.31198">
        <ele>297</ele>
        <time>2024-03-19T15:31:56Z</time>
      </trkpt>
      <trkpt lat="50.0159" lon="4.31208">
        <ele>297.4</ele>
        <time>2024-03-19T15:31:57Z</time>
      </trkpt>
      <trkpt lat="50.01589" lon="4.31218">
        <ele>297.4</ele>
        <time>2024-03-19T15:31:58Z</time>
      </trkpt>
      <trkpt lat="50.01587" lon="4.31228">
        <ele>297.8</ele>
        <time>2024-03-19T15:31:59Z</time>
      </trkpt>
      <trkpt lat="50.01585" lon="4.31238">
        <ele>297.8</ele>
        <time>2024-03-19T15:32:00Z</time>
      </trkpt>
      <trkpt lat="50.01584" lon="4.31248">
        <ele>298</ele>
        <time>2024-03-19T15:32:01Z</time>
      </trkpt>
      <trkpt lat="50.01583" lon="4.31258">
        <ele>298.2</ele>
        <time>2024-03-19T15:32:02Z</time>
      </trkpt>
      <trkpt lat="50.01583" lon="4.31268">
        <ele>298</ele>
        <time>2024-03-19T15:32:03Z</time>
      </trkpt>
      <trkpt lat="50.01584" lon="4.31277">
        <ele>298</ele>
        <time>2024-03-19T15:32:04Z</time>
      </trkpt>
      <trkpt lat="50.01586" lon="4.31286">
        <ele>298</ele>
        <time>2024-03-19T15:32:05Z</time>
      </trkpt>
      <trkpt lat="50.0159" lon="4.31292">
        <ele>298.2</ele>
        <time>2024-03-19T15:32:06Z</time>
      </trkpt>
      <trkpt lat="50.01595" lon="4.31298">
        <ele>298.4</ele>
        <time>2024-03-19T15:32:07Z</time>
      </trkpt>
      <trkpt lat="50.016" lon="4.31303">
        <ele>298.4</ele>
        <time>2024-03-19T15:32:08Z</time>
      </trkpt>
      <trkpt lat="50.01606" lon="4.31309">
        <ele>298.6</ele>
        <time>2024-03-19T15:32:09Z</time>
      </trkpt>
      <trkpt lat="50.01612" lon="4.31316">
        <ele>298.6</ele>
        <time>2024-03-19T15:32:10Z</time>
      </trkpt>
      <trkpt lat="50.01619" lon="4.31322">
        <ele>298.6</ele>
        <time>2024-03-19T15:32:11Z</time>
      </trkpt>
      <trkpt lat="50.01625" lon="4.31328">
        <ele>298.6</ele>
        <time>2024-03-19T15:32:12Z</time>
      </trkpt>
      <trkpt lat="50.01632" lon="4.31334">
        <ele>298.6</ele>
        <time>2024-03-19T15:32:13Z</time>
      </trkpt>
      <trkpt lat="50.01639" lon="4.3134">
        <ele>298.4</ele>
        <time>2024-03-19T15:32:14Z</time>
      </trkpt>
      <trkpt lat="50.01646" lon="4.31347">
        <ele>298.4</ele>
        <time>2024-03-19T15:32:15Z</time>
      </trkpt>
      <trkpt lat="50.01653" lon="4.31352">
        <ele>298.6</ele>
        <time>2024-03-19T15:32:16Z</time>
      </trkpt>
      <trkpt lat="50.0166" lon="4.31358">
        <ele>298.4</ele>
        <time>2024-03-19T15:32:17Z</time>
      </trkpt>
      <trkpt lat="50.01668" lon="4.31362">
        <ele>298.2</ele>
        <time>2024-03-19T15:32:18Z</time>
      </trkpt>
      <trkpt lat="50.01676" lon="4.31366">
        <ele>298</ele>
        <time>2024-03-19T15:32:19Z</time>
      </trkpt>
      <trkpt lat="50.01684" lon="4.31369">
        <ele>297.6</ele>
        <time>2024-03-19T15:32:20Z</time>
      </trkpt>
      <trkpt lat="50.01692" lon="4.31373">
        <ele>297.6</ele>
        <time>2024-03-19T15:32:21Z</time>
      </trkpt>
      <trkpt lat="50.017" lon="4.31376">
        <ele>297.4</ele>
        <time>2024-03-19T15:32:22Z</time>
      </trkpt>
      <trkpt lat="50.01708" lon="4.3138">
        <ele>297</ele>
        <time>2024-03-19T15:32:23Z</time>
      </trkpt>
      <trkpt lat="50.01716" lon="4.31385">
        <ele>296.8</ele>
        <time>2024-03-19T15:32:24Z</time>
      </trkpt>
      <trkpt lat="50.01724" lon="4.3139">
        <ele>296.2</ele>
        <time>2024-03-19T15:32:25Z</time>
      </trkpt>
      <trkpt lat="50.01732" lon="4.31396">
        <ele>295.8</ele>
        <time>2024-03-19T15:32:26Z</time>
      </trkpt>
      <trkpt lat="50.01739" lon="4.31402">
        <ele>295.6</ele>
        <time>2024-03-19T15:32:27Z</time>
      </trkpt>
      <trkpt lat="50.01746" lon="4.31409">
        <ele>295.6</ele>
        <time>2024-03-19T15:32:28Z</time>
      </trkpt>
      <trkpt lat="50.01754" lon="4.31416">
        <ele>295.6</ele>
        <time>2024-03-19T15:32:29Z</time>
      </trkpt>
      <trkpt lat="50.01761" lon="4.31423">
        <ele>295.4</ele>
        <time>2024-03-19T15:32:30Z</time>
      </trkpt>
      <trkpt lat="50.01769" lon="4.31429">
        <ele>294.8</ele>
        <time>2024-03-19T15:32:31Z</time>
      </trkpt>
      <trkpt lat="50.01777" lon="4.31435">
        <ele>294.2</ele>
        <time>2024-03-19T15:32:32Z</time>
      </trkpt>
      <trkpt lat="50.01785" lon="4.3144">
        <ele>294</ele>
        <time>2024-03-19T15:32:33Z</time>
      </trkpt>
      <trkpt lat="50.01793" lon="4.31445">
        <ele>294</ele>
        <time>2024-03-19T15:32:34Z</time>
      </trkpt>
      <trkpt lat="50.01801" lon="4.3145">
        <ele>293.6</ele>
        <time>2024-03-19T15:32:35Z</time>
      </trkpt>
      <trkpt lat="50.01809" lon="4.31455">
        <ele>293.6</ele>
        <time>2024-03-19T15:32:36Z</time>
      </trkpt>
      <trkpt lat="50.01818" lon="4.31459">
        <ele>293.2</ele>
        <time>2024-03-19T15:32:37Z</time>
      </trkpt>
      <trkpt lat="50.01826" lon="4.31463">
        <ele>293</ele>
        <time>2024-03-19T15:32:38Z</time>
      </trkpt>
      <trkpt lat="50.01835" lon="4.31467">
        <ele>293</ele>
        <time>2024-03-19T15:32:39Z</time>
      </trkpt>
      <trkpt lat="50.01844" lon="4.31471">
        <ele>292.6</ele>
        <time>2024-03-19T15:32:40Z</time>
      </trkpt>
      <trkpt lat="50.01852" lon="4.31475">
        <ele>292.4</ele>
        <time>2024-03-19T15:32:41Z</time>
      </trkpt>
      <trkpt lat="50.01861" lon="4.31479">
        <ele>292.2</ele>
        <time>2024-03-19T15:32:42Z</time>
      </trkpt>
      <trkpt lat="50.0187" lon="4.31482">
        <ele>291.6</ele>
        <time>2024-03-19T15:32:43Z</time>
      </trkpt>
      <trkpt lat="50.01878" lon="4.31486">
        <ele>291.2</ele>
        <time>2024-03-19T15:32:44Z</time>
      </trkpt>
      <trkpt lat="50.01887" lon="4.31489">
        <ele>290.8</ele>
        <time>2024-03-19T15:32:45Z</time>
      </trkpt>
      <trkpt lat="50.01896" lon="4.31493">
        <ele>290.8</ele>
        <time>2024-03-19T15:32:46Z</time>
      </trkpt>
      <trkpt lat="50.01904" lon="4.31496">
        <ele>290.6</ele>
        <time>2024-03-19T15:32:47Z</time>
      </trkpt>
      <trkpt lat="50.01912" lon="4.31499">
        <ele>290.4</ele>
        <time>2024-03-19T15:32:48Z</time>
      </trkpt>
      <trkpt lat="50.01921" lon="4.31502">
        <ele>290.2</ele>
        <time>2024-03-19T15:32:49Z</time>
      </trkpt>
      <trkpt lat="50.01929" lon="4.31505">
        <ele>289.8</ele>
        <time>2024-03-19T15:32:50Z</time>
      </trkpt>
      <trkpt lat="50.01937" lon="4.31507">
        <ele>289.6</ele>
        <time>2024-03-19T15:32:51Z</time>
      </trkpt>
      <trkpt lat="50.01946" lon="4.31511">
        <ele>289.2</ele>
        <time>2024-03-19T15:32:52Z</time>
      </trkpt>
      <trkpt lat="50.01954" lon="4.31514">
        <ele>289</ele>
        <time>2024-03-19T15:32:53Z</time>
      </trkpt>
      <trkpt lat="50.01963" lon="4.31516">
        <ele>288.6</ele>
        <time>2024-03-19T15:32:54Z</time>
      </trkpt>
      <trkpt lat="50.01971" lon="4.31519">
        <ele>288.4</ele>
        <time>2024-03-19T15:32:55Z</time>
      </trkpt>
      <trkpt lat="50.01979" lon="4.31522">
        <ele>288</ele>
        <time>2024-03-19T15:32:56Z</time>
      </trkpt>
      <trkpt lat="50.01988" lon="4.31525">
        <ele>288</ele>
        <time>2024-03-19T15:32:57Z</time>
      </trkpt>
      <trkpt lat="50.01996" lon="4.31528">
        <ele>287.6</ele>
        <time>2024-03-19T15:32:58Z</time>
      </trkpt>
      <trkpt lat="50.02005" lon="4.31531">
        <ele>287.2</ele>
        <time>2024-03-19T15:32:59Z</time>
      </trkpt>
      <trkpt lat="50.02013" lon="4.31534">
        <ele>287</ele>
        <time>2024-03-19T15:33:00Z</time>
      </trkpt>
      <trkpt lat="50.02022" lon="4.31538">
        <ele>287</ele>
        <time>2024-03-19T15:33:01Z</time>
      </trkpt>
      <trkpt lat="50.0203" lon="4.31541">
        <ele>286.8</ele>
        <time>2024-03-19T15:33:02Z</time>
      </trkpt>
      <trkpt lat="50.02039" lon="4.31545">
        <ele>286.6</ele>
        <time>2024-03-19T15:33:03Z</time>
      </trkpt>
      <trkpt lat="50.02047" lon="4.31548">
        <ele>286.4</ele>
        <time>2024-03-19T15:33:04Z</time>
      </trkpt>
      <trkpt lat="50.02056" lon="4.31552">
        <ele>286</ele>
        <time>2024-03-19T15:33:05Z</time>
      </trkpt>
      <trkpt lat="50.02065" lon="4.31556">
        <ele>286</ele>
        <time>2024-03-19T15:33:06Z</time>
      </trkpt>
      <trkpt lat="50.02073" lon="4.3156">
        <ele>285.8</ele>
        <time>2024-03-19T15:33:07Z</time>
      </trkpt>
      <trkpt lat="50.02082" lon="4.31564">
        <ele>285.6</ele>
        <time>2024-03-19T15:33:08Z</time>
      </trkpt>
      <trkpt lat="50.02091" lon="4.31568">
        <ele>285.6</ele>
        <time>2024-03-19T15:33:09Z</time>
      </trkpt>
      <trkpt lat="50.021" lon="4.31572">
        <ele>285.4</ele>
        <time>2024-03-19T15:33:10Z</time>
      </trkpt>
      <trkpt lat="50.02109" lon="4.31577">
        <ele>285</ele>
        <time>2024-03-19T15:33:11Z</time>
      </trkpt>
      <trkpt lat="50.02119" lon="4.31581">
        <ele>285</ele>
        <time>2024-03-19T15:33:12Z</time>
      </trkpt>
      <trkpt lat="50.02128" lon="4.31585">
        <ele>284.4</ele>
        <time>2024-03-19T15:33:13Z</time>
      </trkpt>
      <trkpt lat="50.02138" lon="4.31589">
        <ele>284</ele>
        <time>2024-03-19T15:33:14Z</time>
      </trkpt>
      <trkpt lat="50.02148" lon="4.31593">
        <ele>284</ele>
        <time>2024-03-19T15:33:15Z</time>
      </trkpt>
      <trkpt lat="50.02157" lon="4.31598">
        <ele>283.6</ele>
        <time>2024-03-19T15:33:16Z</time>
      </trkpt>
      <trkpt lat="50.02167" lon="4.31603">
        <ele>283.6</ele>
        <time>2024-03-19T15:33:17Z</time>
      </trkpt>
      <trkpt lat="50.02176" lon="4.31609">
        <ele>283.2</ele>
        <time>2024-03-19T15:33:18Z</time>
      </trkpt>
      <trkpt lat="50.02185" lon="4.31615">
        <ele>282.6</ele>
        <time>2024-03-19T15:33:19Z</time>
      </trkpt>
      <trkpt lat="50.02194" lon="4.31623">
        <ele>282</ele>
        <time>2024-03-19T15:33:20Z</time>
      </trkpt>
      <trkpt lat="50.02202" lon="4.31633">
        <ele>281.6</ele>
        <time>2024-03-19T15:33:21Z</time>
      </trkpt>
      <trkpt lat="50.02209" lon="4.31644">
        <ele>281.2</ele>
        <time>2024-03-19T15:33:22Z</time>
      </trkpt>
      <trkpt lat="50.02215" lon="4.31656">
        <ele>280.6</ele>
        <time>2024-03-19T15:33:23Z</time>
      </trkpt>
      <trkpt lat="50.02221" lon="4.31669">
        <ele>280</ele>
        <time>2024-03-19T15:33:24Z</time>
      </trkpt>
      <trkpt lat="50.02227" lon="4.31683">
        <ele>279.6</ele>
        <time>2024-03-19T15:33:25Z</time>
      </trkpt>
      <trkpt lat="50.02233" lon="4.31696">
        <ele>279.4</ele>
        <time>2024-03-19T15:33:26Z</time>
      </trkpt>
      <trkpt lat="50.0224" lon="4.3171">
        <ele>279.2</ele>
        <time>2024-03-19T15:33:27Z</time>
      </trkpt>
      <trkpt lat="50.02246" lon="4.31723">
        <ele>279</ele>
        <time>2024-03-19T15:33:28Z</time>
      </trkpt>
      <trkpt lat="50.02252" lon="4.31738">
        <ele>279</ele>
        <time>2024-03-19T15:33:29Z</time>
      </trkpt>
      <trkpt lat="50.02258" lon="4.31752">
        <ele>278.6</ele>
        <time>2024-03-19T15:33:30Z</time>
      </trkpt>
      <trkpt lat="50.02264" lon="4.31766">
        <ele>278</ele>
        <time>2024-03-19T15:33:31Z</time>
      </trkpt>
      <trkpt lat="50.02271" lon="4.31779">
        <ele>277.6</ele>
        <time>2024-03-19T15:33:32Z</time>
      </trkpt>
      <trkpt lat="50.02278" lon="4.31792">
        <ele>277.2</ele>
        <time>2024-03-19T15:33:33Z</time>
      </trkpt>
      <trkpt lat="50.02284" lon="4.31804">
        <ele>276.4</ele>
        <time>2024-03-19T15:33:34Z</time>
      </trkpt>
      <trkpt lat="50.02291" lon="4.31816">
        <ele>275.8</ele>
        <time>2024-03-19T15:33:35Z</time>
      </trkpt>
      <trkpt lat="50.02297" lon="4.31826">
        <ele>275.2</ele>
        <time>2024-03-19T15:33:36Z</time>
      </trkpt>
      <trkpt lat="50.02302" lon="4.31835">
        <ele>274.2</ele>
        <time>2024-03-19T15:33:37Z</time>
      </trkpt>
      <trkpt lat="50.02305" lon="4.31845">
        <ele>273.6</ele>
        <time>2024-03-19T15:33:38Z</time>
      </trkpt>
      <trkpt lat="50.02305" lon="4.31856">
        <ele>272.6</ele>
        <time>2024-03-19T15:33:39Z</time>
      </trkpt>
      <trkpt lat="50.02302" lon="4.31867">
        <ele>272.2</ele>
        <time>2024-03-19T15:33:40Z</time>
      </trkpt>
      <trkpt lat="50.02297" lon="4.31876">
        <ele>271.4</ele>
        <time>2024-03-19T15:33:41Z</time>
      </trkpt>
      <trkpt lat="50.02292" lon="4.31887">
        <ele>269.8</ele>
        <time>2024-03-19T15:33:42Z</time>
      </trkpt>
      <trkpt lat="50.02287" lon="4.31897">
        <ele>268.8</ele>
        <time>2024-03-19T15:33:43Z</time>
      </trkpt>
      <trkpt lat="50.02282" lon="4.31908">
        <ele>268.2</ele>
        <time>2024-03-19T15:33:44Z</time>
      </trkpt>
      <trkpt lat="50.02276" lon="4.3192">
        <ele>267.8</ele>
        <time>2024-03-19T15:33:45Z</time>
      </trkpt>
      <trkpt lat="50.02271" lon="4.31931">
        <ele>267.8</ele>
        <time>2024-03-19T15:33:46Z</time>
      </trkpt>
      <trkpt lat="50.02265" lon="4.31942">
        <ele>267.6</ele>
        <time>2024-03-19T15:33:47Z</time>
      </trkpt>
      <trkpt lat="50.0226" lon="4.31952">
        <ele>267.2</ele>
        <time>2024-03-19T15:33:48Z</time>
      </trkpt>
      <trkpt lat="50.02257" lon="4.31961">
        <ele>266.8</ele>
        <time>2024-03-19T15:33:49Z</time>
      </trkpt>
      <trkpt lat="50.02255" lon="4.31969">
        <ele>266</ele>
        <time>2024-03-19T15:33:50Z</time>
      </trkpt>
      <trkpt lat="50.02255" lon="4.31976">
        <ele>265</ele>
        <time>2024-03-19T15:33:51Z</time>
      </trkpt>
      <trkpt lat="50.02257" lon="4.31983">
        <ele>264.4</ele>
        <time>2024-03-19T15:33:52Z</time>
      </trkpt>
      <trkpt lat="50.02259" lon="4.31988">
        <ele>264</ele>
        <time>2024-03-19T15:33:53Z</time>
      </trkpt>
      <trkpt lat="50.02262" lon="4.31995">
        <ele>263.6</ele>
        <time>2024-03-19T15:33:54Z</time>
      </trkpt>
      <trkpt lat="50.02264" lon="4.32001">
        <ele>263.4</ele>
        <time>2024-03-19T15:33:55Z</time>
      </trkpt>
      <trkpt lat="50.02266" lon="4.32007">
        <ele>263.4</ele>
        <time>2024-03-19T15:33:56Z</time>
      </trkpt>
      <trkpt lat="50.02268" lon="4.32014">
        <ele>263</ele>
        <time>2024-03-19T15:33:57Z</time>
      </trkpt>
      <trkpt lat="50.02269" lon="4.32021">
        <ele>263.2</ele>
        <time>2024-03-19T15:33:58Z</time>
      </trkpt>
      <trkpt lat="50.02269" lon="4.32029">
        <ele>263</ele>
        <time>2024-03-19T15:33:59Z</time>
      </trkpt>
      <trkpt lat="50.0227" lon="4.32037">
        <ele>262.8</ele>
        <time>2024-03-19T15:34:00Z</time>
      </trkpt>
      <trkpt lat="50.0227" lon="4.32046">
        <ele>262.6</ele>
        <time>2024-03-19T15:34:01Z</time>
      </trkpt>
      <trkpt lat="50.0227" lon="4.32054">
        <ele>262.4</ele>
        <time>2024-03-19T15:34:02Z</time>
      </trkpt>
      <trkpt lat="50.0227" lon="4.32061">
        <ele>262.4</ele>
        <time>2024-03-19T15:34:03Z</time>
      </trkpt>
      <trkpt lat="50.02271" lon="4.32068">
        <ele>262.2</ele>
        <time>2024-03-19T15:34:04Z</time>
      </trkpt>
      <trkpt lat="50.02272" lon="4.32075">
        <ele>261.8</ele>
        <time>2024-03-19T15:34:05Z</time>
      </trkpt>
      <trkpt lat="50.02273" lon="4.32081">
        <ele>261.8</ele>
        <time>2024-03-19T15:34:06Z</time>
      </trkpt>
      <trkpt lat="50.02274" lon="4.32088">
        <ele>261.4</ele>
        <time>2024-03-19T15:34:07Z</time>
      </trkpt>
      <trkpt lat="50.02275" lon="4.32094">
        <ele>261.6</ele>
        <time>2024-03-19T15:34:08Z</time>
      </trkpt>
      <trkpt lat="50.02276" lon="4.32099">
        <ele>261.4</ele>
        <time>2024-03-19T15:34:09Z</time>
      </trkpt>
      <trkpt lat="50.02277" lon="4.32104">
        <ele>261.4</ele>
        <time>2024-03-19T15:34:10Z</time>
      </trkpt>
      <trkpt lat="50.02278" lon="4.32107">
        <ele>261.2</ele>
        <time>2024-03-19T15:34:11Z</time>
      </trkpt>
      <trkpt lat="50.0228" lon="4.32108">
        <ele>261</ele>
        <time>2024-03-19T15:34:12Z</time>
      </trkpt>
      <trkpt lat="50.02281" lon="4.32108">
        <ele>261</ele>
        <time>2024-03-19T15:34:13Z</time>
      </trkpt>
      <trkpt lat="50.02283" lon="4.32107">
        <ele>261</ele>
        <time>2024-03-19T15:34:14Z</time>
      </trkpt>
      <trkpt lat="50.02284" lon="4.32105">
        <ele>260.4</ele>
        <time>2024-03-19T15:34:15Z</time>
      </trkpt>
      <trkpt lat="50.02285" lon="4.32102">
        <ele>259.8</ele>
        <time>2024-03-19T15:34:16Z</time>
      </trkpt>
    </trkseg>
  </trk>
</gpx>